<?xml version="1.0" encoding="UTF-8" standalone="no" ?>
<gpx xmlns="http://www.topografix.com/GPX/1/1" xmlns:xsi="http://www.w3.org/2001/XMLSchema-instance" xsi:schemaLocation="http://www.topografix.com/GPX/1/1 http://www.topografix.com/GPX/1/1/gpx.xsd" version="1.1" creator="VisuGPX - https://www.visugpx.com">
  <metadata>
    <name>rando st martial 14 km</name>
    <desc><![CDATA[les photos de la rando sont dispo en suivant le lien [url]https://rando-pedestre-33.over-blog.com/2022/07/rando-saint-martial-14.24-km.html[/url]]]></desc>
  </metadata>
  <trk>
    <name><![CDATA[rando st martial 14 km]]></name>
    <trkseg>
      <trkpt lat="44.63099" lon="-0.17603">
        <ele>65.3</ele>
        <time>2022-07-26T08:23:03Z</time>
      </trkpt>
      <trkpt lat="44.63099" lon="-0.17604">
        <ele>65.3</ele>
        <time>2022-07-26T08:23:04Z</time>
      </trkpt>
      <trkpt lat="44.63099" lon="-0.17604">
        <ele>65.3</ele>
        <time>2022-07-26T08:23:05Z</time>
      </trkpt>
      <trkpt lat="44.63099" lon="-0.17604">
        <ele>65.3</ele>
        <time>2022-07-26T08:23:06Z</time>
      </trkpt>
      <trkpt lat="44.63099" lon="-0.17604">
        <ele>65.3</ele>
        <time>2022-07-26T08:23:07Z</time>
      </trkpt>
      <trkpt lat="44.63098" lon="-0.17603">
        <ele>65.3</ele>
        <time>2022-07-26T08:23:08Z</time>
      </trkpt>
      <trkpt lat="44.63098" lon="-0.17603">
        <ele>65.3</ele>
        <time>2022-07-26T08:23:09Z</time>
      </trkpt>
      <trkpt lat="44.63098" lon="-0.17604">
        <ele>65.3</ele>
        <time>2022-07-26T08:23:10Z</time>
      </trkpt>
      <trkpt lat="44.63098" lon="-0.17605">
        <ele>65.3</ele>
        <time>2022-07-26T08:23:11Z</time>
      </trkpt>
      <trkpt lat="44.63098" lon="-0.17606">
        <ele>65.3</ele>
        <time>2022-07-26T08:23:12Z</time>
      </trkpt>
      <trkpt lat="44.63098" lon="-0.17606">
        <ele>65.3</ele>
        <time>2022-07-26T08:23:13Z</time>
      </trkpt>
      <trkpt lat="44.63097" lon="-0.17606">
        <ele>65.3</ele>
        <time>2022-07-26T08:23:14Z</time>
      </trkpt>
      <trkpt lat="44.63097" lon="-0.17606">
        <ele>65.3</ele>
        <time>2022-07-26T08:23:15Z</time>
      </trkpt>
      <trkpt lat="44.63097" lon="-0.17606">
        <ele>65.3</ele>
        <time>2022-07-26T08:23:16Z</time>
      </trkpt>
      <trkpt lat="44.63096" lon="-0.17606">
        <ele>65.3</ele>
        <time>2022-07-26T08:23:17Z</time>
      </trkpt>
      <trkpt lat="44.63096" lon="-0.17606">
        <ele>65.3</ele>
        <time>2022-07-26T08:23:18Z</time>
      </trkpt>
      <trkpt lat="44.63095" lon="-0.17606">
        <ele>65.3</ele>
        <time>2022-07-26T08:23:19Z</time>
      </trkpt>
      <trkpt lat="44.63095" lon="-0.17605">
        <ele>65.3</ele>
        <time>2022-07-26T08:23:20Z</time>
      </trkpt>
      <trkpt lat="44.63095" lon="-0.17605">
        <ele>65.3</ele>
        <time>2022-07-26T08:23:21Z</time>
      </trkpt>
      <trkpt lat="44.63094" lon="-0.17605">
        <ele>65.3</ele>
        <time>2022-07-26T08:23:22Z</time>
      </trkpt>
      <trkpt lat="44.63094" lon="-0.17605">
        <ele>65.3</ele>
        <time>2022-07-26T08:23:23Z</time>
      </trkpt>
      <trkpt lat="44.63094" lon="-0.17605">
        <ele>65.3</ele>
        <time>2022-07-26T08:23:24Z</time>
      </trkpt>
      <trkpt lat="44.63094" lon="-0.17606">
        <ele>65.3</ele>
        <time>2022-07-26T08:23:25Z</time>
      </trkpt>
      <trkpt lat="44.63095" lon="-0.17606">
        <ele>65.3</ele>
        <time>2022-07-26T08:23:26Z</time>
      </trkpt>
      <trkpt lat="44.63095" lon="-0.17606">
        <ele>65.3</ele>
        <time>2022-07-26T08:23:27Z</time>
      </trkpt>
      <trkpt lat="44.63095" lon="-0.17606">
        <ele>65.3</ele>
        <time>2022-07-26T08:23:28Z</time>
      </trkpt>
      <trkpt lat="44.63095" lon="-0.17606">
        <ele>65.3</ele>
        <time>2022-07-26T08:23:29Z</time>
      </trkpt>
      <trkpt lat="44.63095" lon="-0.17606">
        <ele>65.3</ele>
        <time>2022-07-26T08:23:30Z</time>
      </trkpt>
      <trkpt lat="44.63094" lon="-0.17606">
        <ele>65.3</ele>
        <time>2022-07-26T08:23:31Z</time>
      </trkpt>
      <trkpt lat="44.63094" lon="-0.17606">
        <ele>65.3</ele>
        <time>2022-07-26T08:23:32Z</time>
      </trkpt>
      <trkpt lat="44.63094" lon="-0.17607">
        <ele>65.3</ele>
        <time>2022-07-26T08:23:33Z</time>
      </trkpt>
      <trkpt lat="44.63094" lon="-0.17607">
        <ele>65.3</ele>
        <time>2022-07-26T08:23:34Z</time>
      </trkpt>
      <trkpt lat="44.63094" lon="-0.17607">
        <ele>65.3</ele>
        <time>2022-07-26T08:23:35Z</time>
      </trkpt>
      <trkpt lat="44.63094" lon="-0.17607">
        <ele>65.3</ele>
        <time>2022-07-26T08:23:36Z</time>
      </trkpt>
      <trkpt lat="44.63094" lon="-0.17606">
        <ele>65.3</ele>
        <time>2022-07-26T08:23:37Z</time>
      </trkpt>
      <trkpt lat="44.63094" lon="-0.17606">
        <ele>65.3</ele>
        <time>2022-07-26T08:23:38Z</time>
      </trkpt>
      <trkpt lat="44.63095" lon="-0.17606">
        <ele>65.3</ele>
        <time>2022-07-26T08:23:39Z</time>
      </trkpt>
      <trkpt lat="44.63095" lon="-0.17606">
        <ele>65.3</ele>
        <time>2022-07-26T08:23:40Z</time>
      </trkpt>
      <trkpt lat="44.63095" lon="-0.17606">
        <ele>65.3</ele>
        <time>2022-07-26T08:23:41Z</time>
      </trkpt>
      <trkpt lat="44.63095" lon="-0.17606">
        <ele>65.3</ele>
        <time>2022-07-26T08:23:42Z</time>
      </trkpt>
      <trkpt lat="44.63095" lon="-0.17606">
        <ele>65.3</ele>
        <time>2022-07-26T08:23:43Z</time>
      </trkpt>
      <trkpt lat="44.63095" lon="-0.17606">
        <ele>65.3</ele>
        <time>2022-07-26T08:23:44Z</time>
      </trkpt>
      <trkpt lat="44.63095" lon="-0.17606">
        <ele>65.3</ele>
        <time>2022-07-26T08:23:45Z</time>
      </trkpt>
      <trkpt lat="44.63095" lon="-0.17606">
        <ele>65.3</ele>
        <time>2022-07-26T08:23:46Z</time>
      </trkpt>
      <trkpt lat="44.63095" lon="-0.17606">
        <ele>65.3</ele>
        <time>2022-07-26T08:23:47Z</time>
      </trkpt>
      <trkpt lat="44.63095" lon="-0.17606">
        <ele>65.3</ele>
        <time>2022-07-26T08:23:48Z</time>
      </trkpt>
      <trkpt lat="44.63095" lon="-0.17606">
        <ele>65.3</ele>
        <time>2022-07-26T08:23:49Z</time>
      </trkpt>
      <trkpt lat="44.63095" lon="-0.17606">
        <ele>65.3</ele>
        <time>2022-07-26T08:23:50Z</time>
      </trkpt>
      <trkpt lat="44.63095" lon="-0.17606">
        <ele>65.3</ele>
        <time>2022-07-26T08:23:51Z</time>
      </trkpt>
      <trkpt lat="44.63094" lon="-0.17606">
        <ele>65.3</ele>
        <time>2022-07-26T08:23:52Z</time>
      </trkpt>
      <trkpt lat="44.63094" lon="-0.17607">
        <ele>65.3</ele>
        <time>2022-07-26T08:23:53Z</time>
      </trkpt>
      <trkpt lat="44.63094" lon="-0.17607">
        <ele>65.3</ele>
        <time>2022-07-26T08:23:54Z</time>
      </trkpt>
      <trkpt lat="44.63094" lon="-0.17608">
        <ele>65.3</ele>
        <time>2022-07-26T08:23:55Z</time>
      </trkpt>
      <trkpt lat="44.63093" lon="-0.17608">
        <ele>65.3</ele>
        <time>2022-07-26T08:23:56Z</time>
      </trkpt>
      <trkpt lat="44.63093" lon="-0.17609">
        <ele>65.3</ele>
        <time>2022-07-26T08:23:57Z</time>
      </trkpt>
      <trkpt lat="44.63093" lon="-0.1761">
        <ele>65.3</ele>
        <time>2022-07-26T08:23:58Z</time>
      </trkpt>
      <trkpt lat="44.63093" lon="-0.17611">
        <ele>65.3</ele>
        <time>2022-07-26T08:23:59Z</time>
      </trkpt>
      <trkpt lat="44.63093" lon="-0.17611">
        <ele>65.3</ele>
        <time>2022-07-26T08:24:00Z</time>
      </trkpt>
      <trkpt lat="44.63093" lon="-0.17611">
        <ele>65.3</ele>
        <time>2022-07-26T08:24:01Z</time>
      </trkpt>
      <trkpt lat="44.63093" lon="-0.1761">
        <ele>65.3</ele>
        <time>2022-07-26T08:24:02Z</time>
      </trkpt>
      <trkpt lat="44.63093" lon="-0.1761">
        <ele>65.3</ele>
        <time>2022-07-26T08:24:03Z</time>
      </trkpt>
      <trkpt lat="44.63093" lon="-0.1761">
        <ele>65.3</ele>
        <time>2022-07-26T08:24:04Z</time>
      </trkpt>
      <trkpt lat="44.63093" lon="-0.1761">
        <ele>65.3</ele>
        <time>2022-07-26T08:24:05Z</time>
      </trkpt>
      <trkpt lat="44.63093" lon="-0.1761">
        <ele>65.3</ele>
        <time>2022-07-26T08:24:06Z</time>
      </trkpt>
      <trkpt lat="44.63093" lon="-0.1761">
        <ele>65.3</ele>
        <time>2022-07-26T08:24:07Z</time>
      </trkpt>
      <trkpt lat="44.63093" lon="-0.1761">
        <ele>65.3</ele>
        <time>2022-07-26T08:24:08Z</time>
      </trkpt>
      <trkpt lat="44.63093" lon="-0.1761">
        <ele>65.3</ele>
        <time>2022-07-26T08:24:09Z</time>
      </trkpt>
      <trkpt lat="44.63093" lon="-0.1761">
        <ele>65.3</ele>
        <time>2022-07-26T08:24:10Z</time>
      </trkpt>
      <trkpt lat="44.63093" lon="-0.1761">
        <ele>65.3</ele>
        <time>2022-07-26T08:24:11Z</time>
      </trkpt>
      <trkpt lat="44.63093" lon="-0.1761">
        <ele>65.3</ele>
        <time>2022-07-26T08:24:12Z</time>
      </trkpt>
      <trkpt lat="44.63093" lon="-0.1761">
        <ele>65.3</ele>
        <time>2022-07-26T08:24:13Z</time>
      </trkpt>
      <trkpt lat="44.63093" lon="-0.17611">
        <ele>65.3</ele>
        <time>2022-07-26T08:24:14Z</time>
      </trkpt>
      <trkpt lat="44.63093" lon="-0.17611">
        <ele>65.3</ele>
        <time>2022-07-26T08:24:15Z</time>
      </trkpt>
      <trkpt lat="44.63093" lon="-0.17611">
        <ele>65.3</ele>
        <time>2022-07-26T08:24:16Z</time>
      </trkpt>
      <trkpt lat="44.63093" lon="-0.17611">
        <ele>65.3</ele>
        <time>2022-07-26T08:24:17Z</time>
      </trkpt>
      <trkpt lat="44.63092" lon="-0.17611">
        <ele>65.3</ele>
        <time>2022-07-26T08:24:18Z</time>
      </trkpt>
      <trkpt lat="44.63092" lon="-0.17612">
        <ele>65.3</ele>
        <time>2022-07-26T08:24:20Z</time>
      </trkpt>
      <trkpt lat="44.63091" lon="-0.17613">
        <ele>65.3</ele>
        <time>2022-07-26T08:24:21Z</time>
      </trkpt>
      <trkpt lat="44.63091" lon="-0.17615">
        <ele>65.3</ele>
        <time>2022-07-26T08:24:22Z</time>
      </trkpt>
      <trkpt lat="44.63091" lon="-0.17615">
        <ele>65.3</ele>
        <time>2022-07-26T08:24:23Z</time>
      </trkpt>
      <trkpt lat="44.63092" lon="-0.17617">
        <ele>65.3</ele>
        <time>2022-07-26T08:24:24Z</time>
      </trkpt>
      <trkpt lat="44.63092" lon="-0.17618">
        <ele>65.3</ele>
        <time>2022-07-26T08:24:26Z</time>
      </trkpt>
      <trkpt lat="44.63092" lon="-0.17618">
        <ele>65.3</ele>
        <time>2022-07-26T08:24:27Z</time>
      </trkpt>
      <trkpt lat="44.63092" lon="-0.17619">
        <ele>65.3</ele>
        <time>2022-07-26T08:24:28Z</time>
      </trkpt>
      <trkpt lat="44.63092" lon="-0.17619">
        <ele>65.3</ele>
        <time>2022-07-26T08:24:29Z</time>
      </trkpt>
      <trkpt lat="44.63093" lon="-0.17619">
        <ele>65.3</ele>
        <time>2022-07-26T08:24:30Z</time>
      </trkpt>
      <trkpt lat="44.63093" lon="-0.17619">
        <ele>65.3</ele>
        <time>2022-07-26T08:24:31Z</time>
      </trkpt>
      <trkpt lat="44.63093" lon="-0.17619">
        <ele>65.3</ele>
        <time>2022-07-26T08:24:32Z</time>
      </trkpt>
      <trkpt lat="44.63093" lon="-0.17619">
        <ele>65.3</ele>
        <time>2022-07-26T08:24:33Z</time>
      </trkpt>
      <trkpt lat="44.63093" lon="-0.17619">
        <ele>65.3</ele>
        <time>2022-07-26T08:24:34Z</time>
      </trkpt>
      <trkpt lat="44.63093" lon="-0.17619">
        <ele>65.3</ele>
        <time>2022-07-26T08:24:35Z</time>
      </trkpt>
      <trkpt lat="44.63093" lon="-0.17619">
        <ele>65.3</ele>
        <time>2022-07-26T08:24:36Z</time>
      </trkpt>
      <trkpt lat="44.63093" lon="-0.17619">
        <ele>65.3</ele>
        <time>2022-07-26T08:24:37Z</time>
      </trkpt>
      <trkpt lat="44.63093" lon="-0.17619">
        <ele>65.3</ele>
        <time>2022-07-26T08:24:38Z</time>
      </trkpt>
      <trkpt lat="44.63093" lon="-0.1762">
        <ele>65.3</ele>
        <time>2022-07-26T08:24:39Z</time>
      </trkpt>
      <trkpt lat="44.63093" lon="-0.1762">
        <ele>65.3</ele>
        <time>2022-07-26T08:24:40Z</time>
      </trkpt>
      <trkpt lat="44.63093" lon="-0.1762">
        <ele>65.3</ele>
        <time>2022-07-26T08:24:42Z</time>
      </trkpt>
      <trkpt lat="44.63093" lon="-0.1762">
        <ele>65.3</ele>
        <time>2022-07-26T08:24:43Z</time>
      </trkpt>
      <trkpt lat="44.63093" lon="-0.17621">
        <ele>65.3</ele>
        <time>2022-07-26T08:24:44Z</time>
      </trkpt>
      <trkpt lat="44.63093" lon="-0.17621">
        <ele>65.3</ele>
        <time>2022-07-26T08:24:45Z</time>
      </trkpt>
      <trkpt lat="44.63093" lon="-0.1762">
        <ele>65.3</ele>
        <time>2022-07-26T08:24:46Z</time>
      </trkpt>
      <trkpt lat="44.63093" lon="-0.17621">
        <ele>65.3</ele>
        <time>2022-07-26T08:24:47Z</time>
      </trkpt>
      <trkpt lat="44.63093" lon="-0.17621">
        <ele>65.3</ele>
        <time>2022-07-26T08:24:48Z</time>
      </trkpt>
      <trkpt lat="44.63093" lon="-0.17621">
        <ele>65.3</ele>
        <time>2022-07-26T08:24:49Z</time>
      </trkpt>
      <trkpt lat="44.63093" lon="-0.17621">
        <ele>65.3</ele>
        <time>2022-07-26T08:24:50Z</time>
      </trkpt>
      <trkpt lat="44.63093" lon="-0.17621">
        <ele>65.3</ele>
        <time>2022-07-26T08:24:51Z</time>
      </trkpt>
      <trkpt lat="44.63093" lon="-0.17621">
        <ele>65.3</ele>
        <time>2022-07-26T08:24:52Z</time>
      </trkpt>
      <trkpt lat="44.63093" lon="-0.17621">
        <ele>65.3</ele>
        <time>2022-07-26T08:24:53Z</time>
      </trkpt>
      <trkpt lat="44.63093" lon="-0.17622">
        <ele>65.3</ele>
        <time>2022-07-26T08:24:54Z</time>
      </trkpt>
      <trkpt lat="44.63093" lon="-0.17622">
        <ele>65.3</ele>
        <time>2022-07-26T08:24:55Z</time>
      </trkpt>
      <trkpt lat="44.63093" lon="-0.17622">
        <ele>65.3</ele>
        <time>2022-07-26T08:24:56Z</time>
      </trkpt>
      <trkpt lat="44.63093" lon="-0.17622">
        <ele>65.3</ele>
        <time>2022-07-26T08:24:57Z</time>
      </trkpt>
      <trkpt lat="44.63093" lon="-0.17623">
        <ele>65.3</ele>
        <time>2022-07-26T08:24:58Z</time>
      </trkpt>
      <trkpt lat="44.63093" lon="-0.17623">
        <ele>65.3</ele>
        <time>2022-07-26T08:24:59Z</time>
      </trkpt>
      <trkpt lat="44.63093" lon="-0.17623">
        <ele>65.3</ele>
        <time>2022-07-26T08:25:00Z</time>
      </trkpt>
      <trkpt lat="44.63093" lon="-0.17623">
        <ele>65.3</ele>
        <time>2022-07-26T08:25:01Z</time>
      </trkpt>
      <trkpt lat="44.63093" lon="-0.17623">
        <ele>65.3</ele>
        <time>2022-07-26T08:25:02Z</time>
      </trkpt>
      <trkpt lat="44.63093" lon="-0.17623">
        <ele>65.3</ele>
        <time>2022-07-26T08:25:03Z</time>
      </trkpt>
      <trkpt lat="44.63093" lon="-0.17623">
        <ele>65.3</ele>
        <time>2022-07-26T08:25:04Z</time>
      </trkpt>
      <trkpt lat="44.63092" lon="-0.17623">
        <ele>65.3</ele>
        <time>2022-07-26T08:25:05Z</time>
      </trkpt>
      <trkpt lat="44.63093" lon="-0.17624">
        <ele>65.3</ele>
        <time>2022-07-26T08:25:07Z</time>
      </trkpt>
      <trkpt lat="44.63092" lon="-0.17625">
        <ele>65.3</ele>
        <time>2022-07-26T08:25:09Z</time>
      </trkpt>
      <trkpt lat="44.63092" lon="-0.17625">
        <ele>65.3</ele>
        <time>2022-07-26T08:25:10Z</time>
      </trkpt>
      <trkpt lat="44.63092" lon="-0.17625">
        <ele>65.3</ele>
        <time>2022-07-26T08:25:11Z</time>
      </trkpt>
      <trkpt lat="44.63092" lon="-0.17625">
        <ele>65.3</ele>
        <time>2022-07-26T08:25:12Z</time>
      </trkpt>
      <trkpt lat="44.63092" lon="-0.17625">
        <ele>65.3</ele>
        <time>2022-07-26T08:25:13Z</time>
      </trkpt>
      <trkpt lat="44.63092" lon="-0.17625">
        <ele>65.3</ele>
        <time>2022-07-26T08:25:14Z</time>
      </trkpt>
      <trkpt lat="44.63092" lon="-0.17625">
        <ele>65.3</ele>
        <time>2022-07-26T08:25:15Z</time>
      </trkpt>
      <trkpt lat="44.63092" lon="-0.17625">
        <ele>65.3</ele>
        <time>2022-07-26T08:25:16Z</time>
      </trkpt>
      <trkpt lat="44.63092" lon="-0.17625">
        <ele>65.3</ele>
        <time>2022-07-26T08:25:17Z</time>
      </trkpt>
      <trkpt lat="44.63092" lon="-0.17625">
        <ele>65.3</ele>
        <time>2022-07-26T08:25:18Z</time>
      </trkpt>
      <trkpt lat="44.63092" lon="-0.17625">
        <ele>65.3</ele>
        <time>2022-07-26T08:25:19Z</time>
      </trkpt>
      <trkpt lat="44.63092" lon="-0.17625">
        <ele>65.3</ele>
        <time>2022-07-26T08:25:20Z</time>
      </trkpt>
      <trkpt lat="44.63092" lon="-0.17625">
        <ele>65.3</ele>
        <time>2022-07-26T08:25:21Z</time>
      </trkpt>
      <trkpt lat="44.63092" lon="-0.17625">
        <ele>65.3</ele>
        <time>2022-07-26T08:25:22Z</time>
      </trkpt>
      <trkpt lat="44.63092" lon="-0.17625">
        <ele>65.3</ele>
        <time>2022-07-26T08:25:23Z</time>
      </trkpt>
      <trkpt lat="44.63092" lon="-0.17626">
        <ele>65.3</ele>
        <time>2022-07-26T08:25:24Z</time>
      </trkpt>
      <trkpt lat="44.63092" lon="-0.17626">
        <ele>65.3</ele>
        <time>2022-07-26T08:25:25Z</time>
      </trkpt>
      <trkpt lat="44.63092" lon="-0.17627">
        <ele>65.3</ele>
        <time>2022-07-26T08:25:27Z</time>
      </trkpt>
      <trkpt lat="44.63092" lon="-0.17627">
        <ele>65.3</ele>
        <time>2022-07-26T08:25:28Z</time>
      </trkpt>
      <trkpt lat="44.63092" lon="-0.17627">
        <ele>65.3</ele>
        <time>2022-07-26T08:25:29Z</time>
      </trkpt>
      <trkpt lat="44.63092" lon="-0.17627">
        <ele>65.3</ele>
        <time>2022-07-26T08:25:30Z</time>
      </trkpt>
      <trkpt lat="44.63092" lon="-0.17627">
        <ele>65.3</ele>
        <time>2022-07-26T08:25:31Z</time>
      </trkpt>
      <trkpt lat="44.63092" lon="-0.17627">
        <ele>65.3</ele>
        <time>2022-07-26T08:25:32Z</time>
      </trkpt>
      <trkpt lat="44.63092" lon="-0.17627">
        <ele>65.3</ele>
        <time>2022-07-26T08:25:33Z</time>
      </trkpt>
      <trkpt lat="44.63092" lon="-0.17626">
        <ele>65.3</ele>
        <time>2022-07-26T08:25:34Z</time>
      </trkpt>
      <trkpt lat="44.63092" lon="-0.17626">
        <ele>65.3</ele>
        <time>2022-07-26T08:25:35Z</time>
      </trkpt>
      <trkpt lat="44.63092" lon="-0.17626">
        <ele>65.3</ele>
        <time>2022-07-26T08:25:36Z</time>
      </trkpt>
      <trkpt lat="44.63092" lon="-0.17626">
        <ele>65.3</ele>
        <time>2022-07-26T08:25:37Z</time>
      </trkpt>
      <trkpt lat="44.63092" lon="-0.17626">
        <ele>65.3</ele>
        <time>2022-07-26T08:25:38Z</time>
      </trkpt>
      <trkpt lat="44.63092" lon="-0.17626">
        <ele>65.3</ele>
        <time>2022-07-26T08:25:39Z</time>
      </trkpt>
      <trkpt lat="44.63092" lon="-0.17626">
        <ele>65.3</ele>
        <time>2022-07-26T08:25:40Z</time>
      </trkpt>
      <trkpt lat="44.63092" lon="-0.17626">
        <ele>65.3</ele>
        <time>2022-07-26T08:25:41Z</time>
      </trkpt>
      <trkpt lat="44.63092" lon="-0.17626">
        <ele>65.3</ele>
        <time>2022-07-26T08:25:42Z</time>
      </trkpt>
      <trkpt lat="44.63092" lon="-0.17626">
        <ele>65.3</ele>
        <time>2022-07-26T08:25:43Z</time>
      </trkpt>
      <trkpt lat="44.63092" lon="-0.17626">
        <ele>65.3</ele>
        <time>2022-07-26T08:25:44Z</time>
      </trkpt>
      <trkpt lat="44.63092" lon="-0.17627">
        <ele>65.3</ele>
        <time>2022-07-26T08:25:46Z</time>
      </trkpt>
      <trkpt lat="44.63092" lon="-0.17627">
        <ele>65.3</ele>
        <time>2022-07-26T08:25:47Z</time>
      </trkpt>
      <trkpt lat="44.63092" lon="-0.17628">
        <ele>65.3</ele>
        <time>2022-07-26T08:25:49Z</time>
      </trkpt>
      <trkpt lat="44.63092" lon="-0.17629">
        <ele>65.3</ele>
        <time>2022-07-26T08:25:50Z</time>
      </trkpt>
      <trkpt lat="44.63091" lon="-0.1763">
        <ele>65.3</ele>
        <time>2022-07-26T08:25:52Z</time>
      </trkpt>
      <trkpt lat="44.63091" lon="-0.17631">
        <ele>65.3</ele>
        <time>2022-07-26T08:25:54Z</time>
      </trkpt>
      <trkpt lat="44.63091" lon="-0.17632">
        <ele>65.3</ele>
        <time>2022-07-26T08:25:55Z</time>
      </trkpt>
      <trkpt lat="44.6309" lon="-0.17633">
        <ele>65.3</ele>
        <time>2022-07-26T08:25:56Z</time>
      </trkpt>
      <trkpt lat="44.6309" lon="-0.17633">
        <ele>65.3</ele>
        <time>2022-07-26T08:25:57Z</time>
      </trkpt>
      <trkpt lat="44.6309" lon="-0.17633">
        <ele>65.3</ele>
        <time>2022-07-26T08:25:58Z</time>
      </trkpt>
      <trkpt lat="44.63089" lon="-0.17633">
        <ele>65.3</ele>
        <time>2022-07-26T08:26:00Z</time>
      </trkpt>
      <trkpt lat="44.63089" lon="-0.17633">
        <ele>65.3</ele>
        <time>2022-07-26T08:26:01Z</time>
      </trkpt>
      <trkpt lat="44.63089" lon="-0.17633">
        <ele>65.3</ele>
        <time>2022-07-26T08:26:02Z</time>
      </trkpt>
      <trkpt lat="44.63089" lon="-0.17633">
        <ele>65.3</ele>
        <time>2022-07-26T08:26:03Z</time>
      </trkpt>
      <trkpt lat="44.63089" lon="-0.17634">
        <ele>65.3</ele>
        <time>2022-07-26T08:26:04Z</time>
      </trkpt>
      <trkpt lat="44.63089" lon="-0.17634">
        <ele>65.3</ele>
        <time>2022-07-26T08:26:05Z</time>
      </trkpt>
      <trkpt lat="44.63089" lon="-0.17634">
        <ele>65.3</ele>
        <time>2022-07-26T08:26:06Z</time>
      </trkpt>
      <trkpt lat="44.63088" lon="-0.17634">
        <ele>65.3</ele>
        <time>2022-07-26T08:26:07Z</time>
      </trkpt>
      <trkpt lat="44.63088" lon="-0.17634">
        <ele>65.3</ele>
        <time>2022-07-26T08:26:08Z</time>
      </trkpt>
      <trkpt lat="44.63088" lon="-0.17635">
        <ele>65.3</ele>
        <time>2022-07-26T08:26:10Z</time>
      </trkpt>
      <trkpt lat="44.63088" lon="-0.17635">
        <ele>65.3</ele>
        <time>2022-07-26T08:26:11Z</time>
      </trkpt>
      <trkpt lat="44.63088" lon="-0.17635">
        <ele>65.3</ele>
        <time>2022-07-26T08:26:12Z</time>
      </trkpt>
      <trkpt lat="44.63088" lon="-0.17635">
        <ele>65.3</ele>
        <time>2022-07-26T08:26:13Z</time>
      </trkpt>
      <trkpt lat="44.63088" lon="-0.17635">
        <ele>65.3</ele>
        <time>2022-07-26T08:26:14Z</time>
      </trkpt>
      <trkpt lat="44.63088" lon="-0.17635">
        <ele>65.3</ele>
        <time>2022-07-26T08:26:15Z</time>
      </trkpt>
      <trkpt lat="44.63088" lon="-0.17635">
        <ele>65.3</ele>
        <time>2022-07-26T08:26:16Z</time>
      </trkpt>
      <trkpt lat="44.63088" lon="-0.17635">
        <ele>65.3</ele>
        <time>2022-07-26T08:26:17Z</time>
      </trkpt>
      <trkpt lat="44.63088" lon="-0.17635">
        <ele>65.3</ele>
        <time>2022-07-26T08:26:18Z</time>
      </trkpt>
      <trkpt lat="44.63088" lon="-0.17635">
        <ele>65.3</ele>
        <time>2022-07-26T08:26:19Z</time>
      </trkpt>
      <trkpt lat="44.63088" lon="-0.17635">
        <ele>65.3</ele>
        <time>2022-07-26T08:26:20Z</time>
      </trkpt>
      <trkpt lat="44.63088" lon="-0.17635">
        <ele>65.3</ele>
        <time>2022-07-26T08:26:21Z</time>
      </trkpt>
      <trkpt lat="44.63088" lon="-0.17635">
        <ele>65.3</ele>
        <time>2022-07-26T08:26:22Z</time>
      </trkpt>
      <trkpt lat="44.63088" lon="-0.17635">
        <ele>65.3</ele>
        <time>2022-07-26T08:26:23Z</time>
      </trkpt>
      <trkpt lat="44.63088" lon="-0.17635">
        <ele>65.3</ele>
        <time>2022-07-26T08:26:24Z</time>
      </trkpt>
      <trkpt lat="44.63088" lon="-0.17635">
        <ele>65.3</ele>
        <time>2022-07-26T08:26:25Z</time>
      </trkpt>
      <trkpt lat="44.63088" lon="-0.17635">
        <ele>65.3</ele>
        <time>2022-07-26T08:26:26Z</time>
      </trkpt>
      <trkpt lat="44.63088" lon="-0.17635">
        <ele>65.3</ele>
        <time>2022-07-26T08:26:27Z</time>
      </trkpt>
      <trkpt lat="44.63088" lon="-0.17635">
        <ele>65.3</ele>
        <time>2022-07-26T08:26:28Z</time>
      </trkpt>
      <trkpt lat="44.63088" lon="-0.17635">
        <ele>65.3</ele>
        <time>2022-07-26T08:26:29Z</time>
      </trkpt>
      <trkpt lat="44.63088" lon="-0.17635">
        <ele>65.3</ele>
        <time>2022-07-26T08:26:30Z</time>
      </trkpt>
      <trkpt lat="44.63089" lon="-0.17635">
        <ele>65.3</ele>
        <time>2022-07-26T08:26:31Z</time>
      </trkpt>
      <trkpt lat="44.63089" lon="-0.17635">
        <ele>65.3</ele>
        <time>2022-07-26T08:26:32Z</time>
      </trkpt>
      <trkpt lat="44.63089" lon="-0.17634">
        <ele>65.3</ele>
        <time>2022-07-26T08:26:33Z</time>
      </trkpt>
      <trkpt lat="44.63088" lon="-0.17634">
        <ele>65.3</ele>
        <time>2022-07-26T08:26:34Z</time>
      </trkpt>
      <trkpt lat="44.63088" lon="-0.17634">
        <ele>65.3</ele>
        <time>2022-07-26T08:26:35Z</time>
      </trkpt>
      <trkpt lat="44.63088" lon="-0.17634">
        <ele>65.3</ele>
        <time>2022-07-26T08:26:36Z</time>
      </trkpt>
      <trkpt lat="44.63088" lon="-0.17634">
        <ele>65.3</ele>
        <time>2022-07-26T08:26:37Z</time>
      </trkpt>
      <trkpt lat="44.63088" lon="-0.17634">
        <ele>65.3</ele>
        <time>2022-07-26T08:26:38Z</time>
      </trkpt>
      <trkpt lat="44.63088" lon="-0.17634">
        <ele>65.3</ele>
        <time>2022-07-26T08:26:39Z</time>
      </trkpt>
      <trkpt lat="44.63088" lon="-0.17634">
        <ele>65.3</ele>
        <time>2022-07-26T08:26:40Z</time>
      </trkpt>
      <trkpt lat="44.63088" lon="-0.17634">
        <ele>65.3</ele>
        <time>2022-07-26T08:26:41Z</time>
      </trkpt>
      <trkpt lat="44.63088" lon="-0.17634">
        <ele>65.3</ele>
        <time>2022-07-26T08:26:42Z</time>
      </trkpt>
      <trkpt lat="44.63088" lon="-0.17634">
        <ele>65.3</ele>
        <time>2022-07-26T08:26:43Z</time>
      </trkpt>
      <trkpt lat="44.63088" lon="-0.17634">
        <ele>65.3</ele>
        <time>2022-07-26T08:26:44Z</time>
      </trkpt>
      <trkpt lat="44.63088" lon="-0.17634">
        <ele>65.3</ele>
        <time>2022-07-26T08:26:45Z</time>
      </trkpt>
      <trkpt lat="44.63088" lon="-0.17634">
        <ele>65.3</ele>
        <time>2022-07-26T08:26:46Z</time>
      </trkpt>
      <trkpt lat="44.63088" lon="-0.17634">
        <ele>65.3</ele>
        <time>2022-07-26T08:26:47Z</time>
      </trkpt>
      <trkpt lat="44.63088" lon="-0.17634">
        <ele>65.3</ele>
        <time>2022-07-26T08:26:48Z</time>
      </trkpt>
      <trkpt lat="44.63088" lon="-0.17634">
        <ele>65.3</ele>
        <time>2022-07-26T08:26:49Z</time>
      </trkpt>
      <trkpt lat="44.63088" lon="-0.17634">
        <ele>65.3</ele>
        <time>2022-07-26T08:26:50Z</time>
      </trkpt>
      <trkpt lat="44.63088" lon="-0.17634">
        <ele>65.3</ele>
        <time>2022-07-26T08:26:51Z</time>
      </trkpt>
      <trkpt lat="44.63088" lon="-0.17634">
        <ele>65.3</ele>
        <time>2022-07-26T08:26:52Z</time>
      </trkpt>
      <trkpt lat="44.63088" lon="-0.17635">
        <ele>65.3</ele>
        <time>2022-07-26T08:26:53Z</time>
      </trkpt>
      <trkpt lat="44.63088" lon="-0.17635">
        <ele>65.3</ele>
        <time>2022-07-26T08:26:54Z</time>
      </trkpt>
      <trkpt lat="44.63088" lon="-0.17635">
        <ele>65.3</ele>
        <time>2022-07-26T08:26:55Z</time>
      </trkpt>
      <trkpt lat="44.63088" lon="-0.17635">
        <ele>65.3</ele>
        <time>2022-07-26T08:26:56Z</time>
      </trkpt>
      <trkpt lat="44.63088" lon="-0.17634">
        <ele>65.3</ele>
        <time>2022-07-26T08:26:57Z</time>
      </trkpt>
      <trkpt lat="44.63088" lon="-0.17634">
        <ele>65.3</ele>
        <time>2022-07-26T08:26:58Z</time>
      </trkpt>
      <trkpt lat="44.63088" lon="-0.17634">
        <ele>65.3</ele>
        <time>2022-07-26T08:26:59Z</time>
      </trkpt>
      <trkpt lat="44.63088" lon="-0.17634">
        <ele>65.3</ele>
        <time>2022-07-26T08:27:00Z</time>
      </trkpt>
      <trkpt lat="44.63088" lon="-0.17634">
        <ele>65.3</ele>
        <time>2022-07-26T08:27:01Z</time>
      </trkpt>
      <trkpt lat="44.63088" lon="-0.17634">
        <ele>65.3</ele>
        <time>2022-07-26T08:27:02Z</time>
      </trkpt>
      <trkpt lat="44.63088" lon="-0.17634">
        <ele>65.3</ele>
        <time>2022-07-26T08:27:03Z</time>
      </trkpt>
      <trkpt lat="44.63088" lon="-0.17634">
        <ele>65.3</ele>
        <time>2022-07-26T08:27:04Z</time>
      </trkpt>
      <trkpt lat="44.63088" lon="-0.17634">
        <ele>65.3</ele>
        <time>2022-07-26T08:27:05Z</time>
      </trkpt>
      <trkpt lat="44.63088" lon="-0.17634">
        <ele>65.3</ele>
        <time>2022-07-26T08:27:06Z</time>
      </trkpt>
      <trkpt lat="44.63087" lon="-0.17634">
        <ele>65.3</ele>
        <time>2022-07-26T08:27:07Z</time>
      </trkpt>
      <trkpt lat="44.63087" lon="-0.17634">
        <ele>65.3</ele>
        <time>2022-07-26T08:27:08Z</time>
      </trkpt>
      <trkpt lat="44.63087" lon="-0.17634">
        <ele>65.3</ele>
        <time>2022-07-26T08:27:09Z</time>
      </trkpt>
      <trkpt lat="44.63087" lon="-0.17634">
        <ele>65.3</ele>
        <time>2022-07-26T08:27:10Z</time>
      </trkpt>
      <trkpt lat="44.63087" lon="-0.17634">
        <ele>65.3</ele>
        <time>2022-07-26T08:27:11Z</time>
      </trkpt>
      <trkpt lat="44.63087" lon="-0.17634">
        <ele>65.3</ele>
        <time>2022-07-26T08:27:12Z</time>
      </trkpt>
      <trkpt lat="44.63087" lon="-0.17634">
        <ele>65.3</ele>
        <time>2022-07-26T08:27:13Z</time>
      </trkpt>
      <trkpt lat="44.63087" lon="-0.17634">
        <ele>65.3</ele>
        <time>2022-07-26T08:27:14Z</time>
      </trkpt>
      <trkpt lat="44.63087" lon="-0.17634">
        <ele>65.3</ele>
        <time>2022-07-26T08:27:15Z</time>
      </trkpt>
      <trkpt lat="44.63087" lon="-0.17634">
        <ele>65.3</ele>
        <time>2022-07-26T08:27:16Z</time>
      </trkpt>
      <trkpt lat="44.63087" lon="-0.17634">
        <ele>65.3</ele>
        <time>2022-07-26T08:27:17Z</time>
      </trkpt>
      <trkpt lat="44.63087" lon="-0.17634">
        <ele>65.3</ele>
        <time>2022-07-26T08:27:18Z</time>
      </trkpt>
      <trkpt lat="44.63087" lon="-0.17634">
        <ele>65.3</ele>
        <time>2022-07-26T08:27:19Z</time>
      </trkpt>
      <trkpt lat="44.63087" lon="-0.17634">
        <ele>65.3</ele>
        <time>2022-07-26T08:27:20Z</time>
      </trkpt>
      <trkpt lat="44.63087" lon="-0.17634">
        <ele>65.3</ele>
        <time>2022-07-26T08:27:21Z</time>
      </trkpt>
      <trkpt lat="44.63087" lon="-0.17634">
        <ele>65.3</ele>
        <time>2022-07-26T08:27:22Z</time>
      </trkpt>
      <trkpt lat="44.63087" lon="-0.17634">
        <ele>65.3</ele>
        <time>2022-07-26T08:27:23Z</time>
      </trkpt>
      <trkpt lat="44.63087" lon="-0.17634">
        <ele>65.3</ele>
        <time>2022-07-26T08:27:24Z</time>
      </trkpt>
      <trkpt lat="44.63087" lon="-0.17634">
        <ele>65.3</ele>
        <time>2022-07-26T08:27:25Z</time>
      </trkpt>
      <trkpt lat="44.63087" lon="-0.17634">
        <ele>65.3</ele>
        <time>2022-07-26T08:27:26Z</time>
      </trkpt>
      <trkpt lat="44.63087" lon="-0.17634">
        <ele>65.3</ele>
        <time>2022-07-26T08:27:27Z</time>
      </trkpt>
      <trkpt lat="44.63087" lon="-0.17634">
        <ele>65.3</ele>
        <time>2022-07-26T08:27:28Z</time>
      </trkpt>
      <trkpt lat="44.63087" lon="-0.17634">
        <ele>65.3</ele>
        <time>2022-07-26T08:27:29Z</time>
      </trkpt>
      <trkpt lat="44.63087" lon="-0.17634">
        <ele>65.3</ele>
        <time>2022-07-26T08:27:30Z</time>
      </trkpt>
      <trkpt lat="44.63087" lon="-0.17634">
        <ele>65.3</ele>
        <time>2022-07-26T08:27:31Z</time>
      </trkpt>
      <trkpt lat="44.63087" lon="-0.17634">
        <ele>65.3</ele>
        <time>2022-07-26T08:27:32Z</time>
      </trkpt>
      <trkpt lat="44.63087" lon="-0.17634">
        <ele>65.3</ele>
        <time>2022-07-26T08:27:33Z</time>
      </trkpt>
      <trkpt lat="44.63087" lon="-0.17634">
        <ele>65.3</ele>
        <time>2022-07-26T08:27:34Z</time>
      </trkpt>
      <trkpt lat="44.63087" lon="-0.17634">
        <ele>65.3</ele>
        <time>2022-07-26T08:27:35Z</time>
      </trkpt>
      <trkpt lat="44.63087" lon="-0.17634">
        <ele>65.3</ele>
        <time>2022-07-26T08:27:36Z</time>
      </trkpt>
      <trkpt lat="44.63087" lon="-0.17634">
        <ele>65.3</ele>
        <time>2022-07-26T08:27:37Z</time>
      </trkpt>
      <trkpt lat="44.63087" lon="-0.17634">
        <ele>65.3</ele>
        <time>2022-07-26T08:27:38Z</time>
      </trkpt>
      <trkpt lat="44.63087" lon="-0.17634">
        <ele>65.3</ele>
        <time>2022-07-26T08:27:39Z</time>
      </trkpt>
      <trkpt lat="44.63087" lon="-0.17634">
        <ele>65.3</ele>
        <time>2022-07-26T08:27:40Z</time>
      </trkpt>
      <trkpt lat="44.63087" lon="-0.17634">
        <ele>65.3</ele>
        <time>2022-07-26T08:27:41Z</time>
      </trkpt>
      <trkpt lat="44.63087" lon="-0.17634">
        <ele>65.3</ele>
        <time>2022-07-26T08:27:42Z</time>
      </trkpt>
      <trkpt lat="44.63087" lon="-0.17634">
        <ele>65.3</ele>
        <time>2022-07-26T08:27:43Z</time>
      </trkpt>
      <trkpt lat="44.63087" lon="-0.17634">
        <ele>65.3</ele>
        <time>2022-07-26T08:27:44Z</time>
      </trkpt>
      <trkpt lat="44.63087" lon="-0.17634">
        <ele>65.3</ele>
        <time>2022-07-26T08:27:45Z</time>
      </trkpt>
      <trkpt lat="44.63087" lon="-0.17634">
        <ele>65.3</ele>
        <time>2022-07-26T08:27:46Z</time>
      </trkpt>
      <trkpt lat="44.63087" lon="-0.17634">
        <ele>65.3</ele>
        <time>2022-07-26T08:27:47Z</time>
      </trkpt>
      <trkpt lat="44.63087" lon="-0.17634">
        <ele>65.3</ele>
        <time>2022-07-26T08:27:48Z</time>
      </trkpt>
      <trkpt lat="44.63087" lon="-0.17634">
        <ele>65.3</ele>
        <time>2022-07-26T08:27:49Z</time>
      </trkpt>
      <trkpt lat="44.63087" lon="-0.17634">
        <ele>65.3</ele>
        <time>2022-07-26T08:27:50Z</time>
      </trkpt>
      <trkpt lat="44.63087" lon="-0.17634">
        <ele>65.3</ele>
        <time>2022-07-26T08:27:51Z</time>
      </trkpt>
      <trkpt lat="44.63087" lon="-0.17634">
        <ele>65.3</ele>
        <time>2022-07-26T08:27:52Z</time>
      </trkpt>
      <trkpt lat="44.63087" lon="-0.17634">
        <ele>65.3</ele>
        <time>2022-07-26T08:27:53Z</time>
      </trkpt>
      <trkpt lat="44.63087" lon="-0.17634">
        <ele>65.3</ele>
        <time>2022-07-26T08:27:54Z</time>
      </trkpt>
      <trkpt lat="44.63087" lon="-0.17634">
        <ele>65.3</ele>
        <time>2022-07-26T08:27:55Z</time>
      </trkpt>
      <trkpt lat="44.63087" lon="-0.17634">
        <ele>65.3</ele>
        <time>2022-07-26T08:27:56Z</time>
      </trkpt>
      <trkpt lat="44.63087" lon="-0.17634">
        <ele>65.3</ele>
        <time>2022-07-26T08:27:57Z</time>
      </trkpt>
      <trkpt lat="44.63087" lon="-0.17634">
        <ele>65.3</ele>
        <time>2022-07-26T08:27:58Z</time>
      </trkpt>
      <trkpt lat="44.63087" lon="-0.17634">
        <ele>65.3</ele>
        <time>2022-07-26T08:27:59Z</time>
      </trkpt>
      <trkpt lat="44.63087" lon="-0.17634">
        <ele>65.3</ele>
        <time>2022-07-26T08:28:00Z</time>
      </trkpt>
      <trkpt lat="44.63087" lon="-0.17634">
        <ele>65.3</ele>
        <time>2022-07-26T08:28:01Z</time>
      </trkpt>
      <trkpt lat="44.63087" lon="-0.17634">
        <ele>65.3</ele>
        <time>2022-07-26T08:28:02Z</time>
      </trkpt>
      <trkpt lat="44.63087" lon="-0.17634">
        <ele>65.3</ele>
        <time>2022-07-26T08:28:03Z</time>
      </trkpt>
      <trkpt lat="44.63087" lon="-0.17634">
        <ele>65.3</ele>
        <time>2022-07-26T08:28:04Z</time>
      </trkpt>
      <trkpt lat="44.63087" lon="-0.17634">
        <ele>65.3</ele>
        <time>2022-07-26T08:28:05Z</time>
      </trkpt>
      <trkpt lat="44.63087" lon="-0.17634">
        <ele>65.3</ele>
        <time>2022-07-26T08:28:06Z</time>
      </trkpt>
      <trkpt lat="44.63087" lon="-0.17634">
        <ele>65.3</ele>
        <time>2022-07-26T08:28:07Z</time>
      </trkpt>
      <trkpt lat="44.63086" lon="-0.17634">
        <ele>65.3</ele>
        <time>2022-07-26T08:28:08Z</time>
      </trkpt>
      <trkpt lat="44.63086" lon="-0.17634">
        <ele>65.3</ele>
        <time>2022-07-26T08:28:09Z</time>
      </trkpt>
      <trkpt lat="44.63085" lon="-0.17634">
        <ele>65.3</ele>
        <time>2022-07-26T08:28:10Z</time>
      </trkpt>
      <trkpt lat="44.63084" lon="-0.17634">
        <ele>65.3</ele>
        <time>2022-07-26T08:28:11Z</time>
      </trkpt>
      <trkpt lat="44.63084" lon="-0.17634">
        <ele>65.3</ele>
        <time>2022-07-26T08:28:12Z</time>
      </trkpt>
      <trkpt lat="44.63084" lon="-0.17634">
        <ele>65.3</ele>
        <time>2022-07-26T08:28:13Z</time>
      </trkpt>
      <trkpt lat="44.63083" lon="-0.17634">
        <ele>65.3</ele>
        <time>2022-07-26T08:28:14Z</time>
      </trkpt>
      <trkpt lat="44.63083" lon="-0.17634">
        <ele>65.3</ele>
        <time>2022-07-26T08:28:15Z</time>
      </trkpt>
      <trkpt lat="44.63083" lon="-0.17634">
        <ele>65.3</ele>
        <time>2022-07-26T08:28:16Z</time>
      </trkpt>
      <trkpt lat="44.63083" lon="-0.17633">
        <ele>65.3</ele>
        <time>2022-07-26T08:28:17Z</time>
      </trkpt>
      <trkpt lat="44.63084" lon="-0.17633">
        <ele>65.3</ele>
        <time>2022-07-26T08:28:18Z</time>
      </trkpt>
      <trkpt lat="44.63084" lon="-0.17633">
        <ele>65.3</ele>
        <time>2022-07-26T08:28:19Z</time>
      </trkpt>
      <trkpt lat="44.63084" lon="-0.17633">
        <ele>65.3</ele>
        <time>2022-07-26T08:28:20Z</time>
      </trkpt>
      <trkpt lat="44.63084" lon="-0.17633">
        <ele>65.3</ele>
        <time>2022-07-26T08:28:21Z</time>
      </trkpt>
      <trkpt lat="44.63084" lon="-0.17633">
        <ele>65.3</ele>
        <time>2022-07-26T08:28:22Z</time>
      </trkpt>
      <trkpt lat="44.63084" lon="-0.17633">
        <ele>65.3</ele>
        <time>2022-07-26T08:28:23Z</time>
      </trkpt>
      <trkpt lat="44.63084" lon="-0.17633">
        <ele>65.3</ele>
        <time>2022-07-26T08:28:24Z</time>
      </trkpt>
      <trkpt lat="44.63084" lon="-0.17633">
        <ele>65.3</ele>
        <time>2022-07-26T08:28:25Z</time>
      </trkpt>
      <trkpt lat="44.63084" lon="-0.17633">
        <ele>65.3</ele>
        <time>2022-07-26T08:28:26Z</time>
      </trkpt>
      <trkpt lat="44.63084" lon="-0.17633">
        <ele>65.3</ele>
        <time>2022-07-26T08:28:27Z</time>
      </trkpt>
      <trkpt lat="44.63084" lon="-0.17633">
        <ele>65.3</ele>
        <time>2022-07-26T08:28:28Z</time>
      </trkpt>
      <trkpt lat="44.63084" lon="-0.17633">
        <ele>65.3</ele>
        <time>2022-07-26T08:28:29Z</time>
      </trkpt>
      <trkpt lat="44.63084" lon="-0.17632">
        <ele>65.3</ele>
        <time>2022-07-26T08:28:30Z</time>
      </trkpt>
      <trkpt lat="44.63083" lon="-0.17633">
        <ele>65.3</ele>
        <time>2022-07-26T08:28:31Z</time>
      </trkpt>
      <trkpt lat="44.63083" lon="-0.17633">
        <ele>65.3</ele>
        <time>2022-07-26T08:28:32Z</time>
      </trkpt>
      <trkpt lat="44.63083" lon="-0.17633">
        <ele>65.3</ele>
        <time>2022-07-26T08:28:33Z</time>
      </trkpt>
      <trkpt lat="44.63083" lon="-0.17633">
        <ele>65.3</ele>
        <time>2022-07-26T08:28:34Z</time>
      </trkpt>
      <trkpt lat="44.63083" lon="-0.17633">
        <ele>65.3</ele>
        <time>2022-07-26T08:28:35Z</time>
      </trkpt>
      <trkpt lat="44.63083" lon="-0.17633">
        <ele>65.3</ele>
        <time>2022-07-26T08:28:36Z</time>
      </trkpt>
      <trkpt lat="44.63083" lon="-0.17632">
        <ele>65.3</ele>
        <time>2022-07-26T08:28:37Z</time>
      </trkpt>
      <trkpt lat="44.63084" lon="-0.17632">
        <ele>65.3</ele>
        <time>2022-07-26T08:28:38Z</time>
      </trkpt>
      <trkpt lat="44.63084" lon="-0.17632">
        <ele>65.3</ele>
        <time>2022-07-26T08:28:39Z</time>
      </trkpt>
      <trkpt lat="44.63084" lon="-0.17632">
        <ele>65.3</ele>
        <time>2022-07-26T08:28:40Z</time>
      </trkpt>
      <trkpt lat="44.63084" lon="-0.17632">
        <ele>65.3</ele>
        <time>2022-07-26T08:28:41Z</time>
      </trkpt>
      <trkpt lat="44.63084" lon="-0.17632">
        <ele>65.3</ele>
        <time>2022-07-26T08:28:42Z</time>
      </trkpt>
      <trkpt lat="44.63084" lon="-0.17632">
        <ele>65.3</ele>
        <time>2022-07-26T08:28:43Z</time>
      </trkpt>
      <trkpt lat="44.63084" lon="-0.17632">
        <ele>65.3</ele>
        <time>2022-07-26T08:28:44Z</time>
      </trkpt>
      <trkpt lat="44.63084" lon="-0.17632">
        <ele>65.3</ele>
        <time>2022-07-26T08:28:45Z</time>
      </trkpt>
      <trkpt lat="44.63084" lon="-0.17631">
        <ele>65.3</ele>
        <time>2022-07-26T08:28:46Z</time>
      </trkpt>
      <trkpt lat="44.63084" lon="-0.17631">
        <ele>65.3</ele>
        <time>2022-07-26T08:28:47Z</time>
      </trkpt>
      <trkpt lat="44.63084" lon="-0.17631">
        <ele>65.3</ele>
        <time>2022-07-26T08:28:48Z</time>
      </trkpt>
      <trkpt lat="44.63084" lon="-0.17631">
        <ele>65.3</ele>
        <time>2022-07-26T08:28:49Z</time>
      </trkpt>
      <trkpt lat="44.63084" lon="-0.17631">
        <ele>65.3</ele>
        <time>2022-07-26T08:28:50Z</time>
      </trkpt>
      <trkpt lat="44.63084" lon="-0.17631">
        <ele>65.3</ele>
        <time>2022-07-26T08:28:51Z</time>
      </trkpt>
      <trkpt lat="44.63084" lon="-0.17631">
        <ele>65.3</ele>
        <time>2022-07-26T08:28:52Z</time>
      </trkpt>
      <trkpt lat="44.63084" lon="-0.17631">
        <ele>65.3</ele>
        <time>2022-07-26T08:28:53Z</time>
      </trkpt>
      <trkpt lat="44.63084" lon="-0.17631">
        <ele>65.3</ele>
        <time>2022-07-26T08:28:54Z</time>
      </trkpt>
      <trkpt lat="44.63084" lon="-0.17631">
        <ele>65.3</ele>
        <time>2022-07-26T08:28:55Z</time>
      </trkpt>
      <trkpt lat="44.63084" lon="-0.17631">
        <ele>65.3</ele>
        <time>2022-07-26T08:28:56Z</time>
      </trkpt>
      <trkpt lat="44.63084" lon="-0.17631">
        <ele>65.3</ele>
        <time>2022-07-26T08:28:57Z</time>
      </trkpt>
      <trkpt lat="44.63084" lon="-0.17631">
        <ele>65.3</ele>
        <time>2022-07-26T08:28:58Z</time>
      </trkpt>
      <trkpt lat="44.63084" lon="-0.17631">
        <ele>65.3</ele>
        <time>2022-07-26T08:28:59Z</time>
      </trkpt>
      <trkpt lat="44.63084" lon="-0.17631">
        <ele>65.3</ele>
        <time>2022-07-26T08:29:00Z</time>
      </trkpt>
      <trkpt lat="44.63084" lon="-0.17631">
        <ele>65.3</ele>
        <time>2022-07-26T08:29:01Z</time>
      </trkpt>
      <trkpt lat="44.63084" lon="-0.17631">
        <ele>65.3</ele>
        <time>2022-07-26T08:29:02Z</time>
      </trkpt>
      <trkpt lat="44.63084" lon="-0.17631">
        <ele>65.3</ele>
        <time>2022-07-26T08:29:03Z</time>
      </trkpt>
      <trkpt lat="44.63084" lon="-0.17631">
        <ele>65.3</ele>
        <time>2022-07-26T08:29:04Z</time>
      </trkpt>
      <trkpt lat="44.63084" lon="-0.17631">
        <ele>65.3</ele>
        <time>2022-07-26T08:29:05Z</time>
      </trkpt>
      <trkpt lat="44.63084" lon="-0.17631">
        <ele>65.3</ele>
        <time>2022-07-26T08:29:06Z</time>
      </trkpt>
      <trkpt lat="44.63084" lon="-0.17631">
        <ele>65.3</ele>
        <time>2022-07-26T08:29:07Z</time>
      </trkpt>
      <trkpt lat="44.63084" lon="-0.17631">
        <ele>65.3</ele>
        <time>2022-07-26T08:29:08Z</time>
      </trkpt>
      <trkpt lat="44.63084" lon="-0.17631">
        <ele>65.3</ele>
        <time>2022-07-26T08:29:09Z</time>
      </trkpt>
      <trkpt lat="44.63084" lon="-0.17631">
        <ele>65.3</ele>
        <time>2022-07-26T08:29:10Z</time>
      </trkpt>
      <trkpt lat="44.63084" lon="-0.17631">
        <ele>65.3</ele>
        <time>2022-07-26T08:29:11Z</time>
      </trkpt>
      <trkpt lat="44.63084" lon="-0.17631">
        <ele>65.3</ele>
        <time>2022-07-26T08:29:12Z</time>
      </trkpt>
      <trkpt lat="44.63084" lon="-0.17631">
        <ele>65.3</ele>
        <time>2022-07-26T08:29:13Z</time>
      </trkpt>
      <trkpt lat="44.63084" lon="-0.17631">
        <ele>65.3</ele>
        <time>2022-07-26T08:29:14Z</time>
      </trkpt>
      <trkpt lat="44.63084" lon="-0.17631">
        <ele>65.3</ele>
        <time>2022-07-26T08:29:15Z</time>
      </trkpt>
      <trkpt lat="44.63084" lon="-0.17631">
        <ele>65.3</ele>
        <time>2022-07-26T08:29:16Z</time>
      </trkpt>
      <trkpt lat="44.63084" lon="-0.17631">
        <ele>65.3</ele>
        <time>2022-07-26T08:29:17Z</time>
      </trkpt>
      <trkpt lat="44.63084" lon="-0.17631">
        <ele>65.3</ele>
        <time>2022-07-26T08:29:18Z</time>
      </trkpt>
      <trkpt lat="44.63084" lon="-0.17631">
        <ele>65.3</ele>
        <time>2022-07-26T08:29:19Z</time>
      </trkpt>
      <trkpt lat="44.63084" lon="-0.17631">
        <ele>65.3</ele>
        <time>2022-07-26T08:29:20Z</time>
      </trkpt>
      <trkpt lat="44.63084" lon="-0.17631">
        <ele>65.3</ele>
        <time>2022-07-26T08:29:21Z</time>
      </trkpt>
      <trkpt lat="44.63084" lon="-0.17631">
        <ele>65.3</ele>
        <time>2022-07-26T08:29:22Z</time>
      </trkpt>
      <trkpt lat="44.63084" lon="-0.17631">
        <ele>65.3</ele>
        <time>2022-07-26T08:29:23Z</time>
      </trkpt>
      <trkpt lat="44.63084" lon="-0.17631">
        <ele>65.3</ele>
        <time>2022-07-26T08:29:24Z</time>
      </trkpt>
      <trkpt lat="44.63084" lon="-0.17631">
        <ele>65.3</ele>
        <time>2022-07-26T08:29:25Z</time>
      </trkpt>
      <trkpt lat="44.63084" lon="-0.17631">
        <ele>65.3</ele>
        <time>2022-07-26T08:29:26Z</time>
      </trkpt>
      <trkpt lat="44.63084" lon="-0.17631">
        <ele>65.3</ele>
        <time>2022-07-26T08:29:27Z</time>
      </trkpt>
      <trkpt lat="44.63084" lon="-0.17631">
        <ele>65.3</ele>
        <time>2022-07-26T08:29:28Z</time>
      </trkpt>
      <trkpt lat="44.63084" lon="-0.17631">
        <ele>65.3</ele>
        <time>2022-07-26T08:29:29Z</time>
      </trkpt>
      <trkpt lat="44.63084" lon="-0.17631">
        <ele>65.3</ele>
        <time>2022-07-26T08:29:30Z</time>
      </trkpt>
      <trkpt lat="44.63084" lon="-0.17631">
        <ele>65.3</ele>
        <time>2022-07-26T08:29:31Z</time>
      </trkpt>
      <trkpt lat="44.63084" lon="-0.17631">
        <ele>65.3</ele>
        <time>2022-07-26T08:29:32Z</time>
      </trkpt>
      <trkpt lat="44.63084" lon="-0.17631">
        <ele>65.3</ele>
        <time>2022-07-26T08:29:33Z</time>
      </trkpt>
      <trkpt lat="44.63085" lon="-0.17631">
        <ele>65.3</ele>
        <time>2022-07-26T08:29:34Z</time>
      </trkpt>
      <trkpt lat="44.63085" lon="-0.17632">
        <ele>65.3</ele>
        <time>2022-07-26T08:29:35Z</time>
      </trkpt>
      <trkpt lat="44.63085" lon="-0.17632">
        <ele>65.3</ele>
        <time>2022-07-26T08:29:36Z</time>
      </trkpt>
      <trkpt lat="44.63085" lon="-0.17631">
        <ele>65.3</ele>
        <time>2022-07-26T08:29:37Z</time>
      </trkpt>
      <trkpt lat="44.63085" lon="-0.17631">
        <ele>65.3</ele>
        <time>2022-07-26T08:29:38Z</time>
      </trkpt>
      <trkpt lat="44.63085" lon="-0.17631">
        <ele>65.3</ele>
        <time>2022-07-26T08:29:39Z</time>
      </trkpt>
      <trkpt lat="44.63085" lon="-0.17631">
        <ele>65.3</ele>
        <time>2022-07-26T08:29:40Z</time>
      </trkpt>
      <trkpt lat="44.63085" lon="-0.17631">
        <ele>65.3</ele>
        <time>2022-07-26T08:29:41Z</time>
      </trkpt>
      <trkpt lat="44.63084" lon="-0.17631">
        <ele>65.3</ele>
        <time>2022-07-26T08:29:42Z</time>
      </trkpt>
      <trkpt lat="44.63084" lon="-0.17631">
        <ele>65.3</ele>
        <time>2022-07-26T08:29:43Z</time>
      </trkpt>
      <trkpt lat="44.63085" lon="-0.17631">
        <ele>65.3</ele>
        <time>2022-07-26T08:29:44Z</time>
      </trkpt>
      <trkpt lat="44.63085" lon="-0.17631">
        <ele>65.3</ele>
        <time>2022-07-26T08:29:45Z</time>
      </trkpt>
      <trkpt lat="44.63085" lon="-0.17631">
        <ele>65.3</ele>
        <time>2022-07-26T08:29:46Z</time>
      </trkpt>
      <trkpt lat="44.63085" lon="-0.17631">
        <ele>65.3</ele>
        <time>2022-07-26T08:29:47Z</time>
      </trkpt>
      <trkpt lat="44.63085" lon="-0.17631">
        <ele>65.3</ele>
        <time>2022-07-26T08:29:48Z</time>
      </trkpt>
      <trkpt lat="44.63085" lon="-0.17631">
        <ele>65.3</ele>
        <time>2022-07-26T08:29:49Z</time>
      </trkpt>
      <trkpt lat="44.63085" lon="-0.17631">
        <ele>65.3</ele>
        <time>2022-07-26T08:29:50Z</time>
      </trkpt>
      <trkpt lat="44.63085" lon="-0.17631">
        <ele>65.3</ele>
        <time>2022-07-26T08:29:51Z</time>
      </trkpt>
      <trkpt lat="44.63085" lon="-0.17631">
        <ele>65.3</ele>
        <time>2022-07-26T08:29:52Z</time>
      </trkpt>
      <trkpt lat="44.63085" lon="-0.17631">
        <ele>65.3</ele>
        <time>2022-07-26T08:29:53Z</time>
      </trkpt>
      <trkpt lat="44.63085" lon="-0.17631">
        <ele>65.3</ele>
        <time>2022-07-26T08:29:54Z</time>
      </trkpt>
      <trkpt lat="44.63085" lon="-0.17631">
        <ele>65.3</ele>
        <time>2022-07-26T08:29:55Z</time>
      </trkpt>
      <trkpt lat="44.63085" lon="-0.17631">
        <ele>65.3</ele>
        <time>2022-07-26T08:29:56Z</time>
      </trkpt>
      <trkpt lat="44.63085" lon="-0.17631">
        <ele>65.3</ele>
        <time>2022-07-26T08:29:57Z</time>
      </trkpt>
      <trkpt lat="44.63085" lon="-0.17631">
        <ele>65.3</ele>
        <time>2022-07-26T08:29:58Z</time>
      </trkpt>
      <trkpt lat="44.63085" lon="-0.17631">
        <ele>65.3</ele>
        <time>2022-07-26T08:29:59Z</time>
      </trkpt>
      <trkpt lat="44.63085" lon="-0.17631">
        <ele>65.3</ele>
        <time>2022-07-26T08:30:00Z</time>
      </trkpt>
      <trkpt lat="44.63085" lon="-0.17631">
        <ele>65.3</ele>
        <time>2022-07-26T08:30:01Z</time>
      </trkpt>
      <trkpt lat="44.63085" lon="-0.17631">
        <ele>65.3</ele>
        <time>2022-07-26T08:30:02Z</time>
      </trkpt>
      <trkpt lat="44.63085" lon="-0.17631">
        <ele>65.3</ele>
        <time>2022-07-26T08:30:03Z</time>
      </trkpt>
      <trkpt lat="44.63085" lon="-0.17631">
        <ele>65.3</ele>
        <time>2022-07-26T08:30:04Z</time>
      </trkpt>
      <trkpt lat="44.63085" lon="-0.17631">
        <ele>65.3</ele>
        <time>2022-07-26T08:30:05Z</time>
      </trkpt>
      <trkpt lat="44.63085" lon="-0.17631">
        <ele>65.3</ele>
        <time>2022-07-26T08:30:06Z</time>
      </trkpt>
      <trkpt lat="44.63085" lon="-0.17631">
        <ele>65.3</ele>
        <time>2022-07-26T08:30:07Z</time>
      </trkpt>
      <trkpt lat="44.63085" lon="-0.17631">
        <ele>65.3</ele>
        <time>2022-07-26T08:30:08Z</time>
      </trkpt>
      <trkpt lat="44.63085" lon="-0.17631">
        <ele>65.3</ele>
        <time>2022-07-26T08:30:09Z</time>
      </trkpt>
      <trkpt lat="44.63085" lon="-0.17631">
        <ele>65.3</ele>
        <time>2022-07-26T08:30:10Z</time>
      </trkpt>
      <trkpt lat="44.63085" lon="-0.17631">
        <ele>65.3</ele>
        <time>2022-07-26T08:30:11Z</time>
      </trkpt>
      <trkpt lat="44.63085" lon="-0.17631">
        <ele>65.3</ele>
        <time>2022-07-26T08:30:12Z</time>
      </trkpt>
      <trkpt lat="44.63085" lon="-0.17631">
        <ele>65.3</ele>
        <time>2022-07-26T08:30:13Z</time>
      </trkpt>
      <trkpt lat="44.63085" lon="-0.17631">
        <ele>65.3</ele>
        <time>2022-07-26T08:30:14Z</time>
      </trkpt>
      <trkpt lat="44.63085" lon="-0.17631">
        <ele>65.3</ele>
        <time>2022-07-26T08:30:15Z</time>
      </trkpt>
      <trkpt lat="44.63085" lon="-0.17631">
        <ele>65.3</ele>
        <time>2022-07-26T08:30:16Z</time>
      </trkpt>
      <trkpt lat="44.63085" lon="-0.17631">
        <ele>65.3</ele>
        <time>2022-07-26T08:30:17Z</time>
      </trkpt>
      <trkpt lat="44.63085" lon="-0.17631">
        <ele>65.3</ele>
        <time>2022-07-26T08:30:18Z</time>
      </trkpt>
      <trkpt lat="44.63085" lon="-0.17631">
        <ele>65.3</ele>
        <time>2022-07-26T08:30:19Z</time>
      </trkpt>
      <trkpt lat="44.63085" lon="-0.17631">
        <ele>65.3</ele>
        <time>2022-07-26T08:30:20Z</time>
      </trkpt>
      <trkpt lat="44.63085" lon="-0.17631">
        <ele>65.3</ele>
        <time>2022-07-26T08:30:21Z</time>
      </trkpt>
      <trkpt lat="44.63085" lon="-0.17631">
        <ele>65.3</ele>
        <time>2022-07-26T08:30:22Z</time>
      </trkpt>
      <trkpt lat="44.63085" lon="-0.17631">
        <ele>65.3</ele>
        <time>2022-07-26T08:30:23Z</time>
      </trkpt>
      <trkpt lat="44.63085" lon="-0.17631">
        <ele>65.3</ele>
        <time>2022-07-26T08:30:24Z</time>
      </trkpt>
      <trkpt lat="44.63084" lon="-0.17631">
        <ele>65.3</ele>
        <time>2022-07-26T08:30:25Z</time>
      </trkpt>
      <trkpt lat="44.63084" lon="-0.17631">
        <ele>65.3</ele>
        <time>2022-07-26T08:30:26Z</time>
      </trkpt>
      <trkpt lat="44.63084" lon="-0.17631">
        <ele>65.3</ele>
        <time>2022-07-26T08:30:27Z</time>
      </trkpt>
      <trkpt lat="44.63084" lon="-0.17631">
        <ele>65.3</ele>
        <time>2022-07-26T08:30:28Z</time>
      </trkpt>
      <trkpt lat="44.63084" lon="-0.17631">
        <ele>65.3</ele>
        <time>2022-07-26T08:30:29Z</time>
      </trkpt>
      <trkpt lat="44.63084" lon="-0.17631">
        <ele>65.3</ele>
        <time>2022-07-26T08:30:30Z</time>
      </trkpt>
      <trkpt lat="44.63084" lon="-0.17631">
        <ele>65.3</ele>
        <time>2022-07-26T08:30:31Z</time>
      </trkpt>
      <trkpt lat="44.63084" lon="-0.17631">
        <ele>65.3</ele>
        <time>2022-07-26T08:30:32Z</time>
      </trkpt>
      <trkpt lat="44.63084" lon="-0.17631">
        <ele>65.3</ele>
        <time>2022-07-26T08:30:33Z</time>
      </trkpt>
      <trkpt lat="44.63084" lon="-0.17631">
        <ele>65.3</ele>
        <time>2022-07-26T08:30:34Z</time>
      </trkpt>
      <trkpt lat="44.63084" lon="-0.17631">
        <ele>65.3</ele>
        <time>2022-07-26T08:30:35Z</time>
      </trkpt>
      <trkpt lat="44.63084" lon="-0.17631">
        <ele>65.3</ele>
        <time>2022-07-26T08:30:36Z</time>
      </trkpt>
      <trkpt lat="44.63084" lon="-0.17631">
        <ele>65.3</ele>
        <time>2022-07-26T08:30:37Z</time>
      </trkpt>
      <trkpt lat="44.63084" lon="-0.17631">
        <ele>65.3</ele>
        <time>2022-07-26T08:30:38Z</time>
      </trkpt>
      <trkpt lat="44.63084" lon="-0.17631">
        <ele>65.3</ele>
        <time>2022-07-26T08:30:39Z</time>
      </trkpt>
      <trkpt lat="44.63084" lon="-0.17631">
        <ele>65.3</ele>
        <time>2022-07-26T08:30:40Z</time>
      </trkpt>
      <trkpt lat="44.63084" lon="-0.17631">
        <ele>65.3</ele>
        <time>2022-07-26T08:30:41Z</time>
      </trkpt>
      <trkpt lat="44.63084" lon="-0.17631">
        <ele>65.3</ele>
        <time>2022-07-26T08:30:42Z</time>
      </trkpt>
      <trkpt lat="44.63084" lon="-0.17631">
        <ele>65.3</ele>
        <time>2022-07-26T08:30:43Z</time>
      </trkpt>
      <trkpt lat="44.63084" lon="-0.17631">
        <ele>65.3</ele>
        <time>2022-07-26T08:30:44Z</time>
      </trkpt>
      <trkpt lat="44.63084" lon="-0.17631">
        <ele>65.3</ele>
        <time>2022-07-26T08:30:45Z</time>
      </trkpt>
      <trkpt lat="44.63084" lon="-0.17631">
        <ele>65.3</ele>
        <time>2022-07-26T08:30:46Z</time>
      </trkpt>
      <trkpt lat="44.63084" lon="-0.17631">
        <ele>65.3</ele>
        <time>2022-07-26T08:30:47Z</time>
      </trkpt>
      <trkpt lat="44.63084" lon="-0.17631">
        <ele>65.3</ele>
        <time>2022-07-26T08:30:48Z</time>
      </trkpt>
      <trkpt lat="44.63084" lon="-0.17631">
        <ele>65.3</ele>
        <time>2022-07-26T08:30:49Z</time>
      </trkpt>
      <trkpt lat="44.63084" lon="-0.17631">
        <ele>65.3</ele>
        <time>2022-07-26T08:30:50Z</time>
      </trkpt>
      <trkpt lat="44.63084" lon="-0.17631">
        <ele>65.3</ele>
        <time>2022-07-26T08:30:51Z</time>
      </trkpt>
      <trkpt lat="44.63084" lon="-0.17631">
        <ele>65.3</ele>
        <time>2022-07-26T08:30:52Z</time>
      </trkpt>
      <trkpt lat="44.63084" lon="-0.17631">
        <ele>65.3</ele>
        <time>2022-07-26T08:30:53Z</time>
      </trkpt>
      <trkpt lat="44.63084" lon="-0.17631">
        <ele>65.3</ele>
        <time>2022-07-26T08:30:54Z</time>
      </trkpt>
      <trkpt lat="44.63084" lon="-0.17631">
        <ele>65.3</ele>
        <time>2022-07-26T08:30:55Z</time>
      </trkpt>
      <trkpt lat="44.63084" lon="-0.17631">
        <ele>65.3</ele>
        <time>2022-07-26T08:30:56Z</time>
      </trkpt>
      <trkpt lat="44.63084" lon="-0.17631">
        <ele>65.3</ele>
        <time>2022-07-26T08:30:57Z</time>
      </trkpt>
      <trkpt lat="44.63084" lon="-0.17631">
        <ele>65.3</ele>
        <time>2022-07-26T08:30:58Z</time>
      </trkpt>
      <trkpt lat="44.63084" lon="-0.17631">
        <ele>65.3</ele>
        <time>2022-07-26T08:30:59Z</time>
      </trkpt>
      <trkpt lat="44.63084" lon="-0.17631">
        <ele>65.3</ele>
        <time>2022-07-26T08:31:00Z</time>
      </trkpt>
      <trkpt lat="44.63084" lon="-0.17631">
        <ele>65.3</ele>
        <time>2022-07-26T08:31:01Z</time>
      </trkpt>
      <trkpt lat="44.63084" lon="-0.17631">
        <ele>65.3</ele>
        <time>2022-07-26T08:31:02Z</time>
      </trkpt>
      <trkpt lat="44.63084" lon="-0.17631">
        <ele>65.3</ele>
        <time>2022-07-26T08:31:03Z</time>
      </trkpt>
      <trkpt lat="44.63084" lon="-0.17631">
        <ele>65.3</ele>
        <time>2022-07-26T08:31:04Z</time>
      </trkpt>
      <trkpt lat="44.63084" lon="-0.17631">
        <ele>65.3</ele>
        <time>2022-07-26T08:31:05Z</time>
      </trkpt>
      <trkpt lat="44.63084" lon="-0.17631">
        <ele>65.3</ele>
        <time>2022-07-26T08:31:06Z</time>
      </trkpt>
      <trkpt lat="44.63084" lon="-0.17631">
        <ele>65.3</ele>
        <time>2022-07-26T08:31:07Z</time>
      </trkpt>
      <trkpt lat="44.63084" lon="-0.17631">
        <ele>65.3</ele>
        <time>2022-07-26T08:31:08Z</time>
      </trkpt>
      <trkpt lat="44.63084" lon="-0.17631">
        <ele>65.3</ele>
        <time>2022-07-26T08:31:09Z</time>
      </trkpt>
      <trkpt lat="44.63084" lon="-0.17631">
        <ele>65.3</ele>
        <time>2022-07-26T08:31:10Z</time>
      </trkpt>
      <trkpt lat="44.63084" lon="-0.17631">
        <ele>65.3</ele>
        <time>2022-07-26T08:31:11Z</time>
      </trkpt>
      <trkpt lat="44.63084" lon="-0.17631">
        <ele>65.3</ele>
        <time>2022-07-26T08:31:12Z</time>
      </trkpt>
      <trkpt lat="44.63084" lon="-0.17631">
        <ele>65.3</ele>
        <time>2022-07-26T08:31:13Z</time>
      </trkpt>
      <trkpt lat="44.63084" lon="-0.17631">
        <ele>65.3</ele>
        <time>2022-07-26T08:31:14Z</time>
      </trkpt>
      <trkpt lat="44.63084" lon="-0.17631">
        <ele>65.3</ele>
        <time>2022-07-26T08:31:15Z</time>
      </trkpt>
      <trkpt lat="44.63084" lon="-0.17631">
        <ele>65.3</ele>
        <time>2022-07-26T08:31:16Z</time>
      </trkpt>
      <trkpt lat="44.63084" lon="-0.17631">
        <ele>65.3</ele>
        <time>2022-07-26T08:31:17Z</time>
      </trkpt>
      <trkpt lat="44.63084" lon="-0.17632">
        <ele>65.3</ele>
        <time>2022-07-26T08:31:18Z</time>
      </trkpt>
      <trkpt lat="44.63084" lon="-0.17632">
        <ele>65.3</ele>
        <time>2022-07-26T08:31:19Z</time>
      </trkpt>
      <trkpt lat="44.63084" lon="-0.17632">
        <ele>65.3</ele>
        <time>2022-07-26T08:31:20Z</time>
      </trkpt>
      <trkpt lat="44.63084" lon="-0.17632">
        <ele>65.3</ele>
        <time>2022-07-26T08:31:21Z</time>
      </trkpt>
      <trkpt lat="44.63084" lon="-0.17632">
        <ele>65.3</ele>
        <time>2022-07-26T08:31:22Z</time>
      </trkpt>
      <trkpt lat="44.63084" lon="-0.17632">
        <ele>65.3</ele>
        <time>2022-07-26T08:31:23Z</time>
      </trkpt>
      <trkpt lat="44.63084" lon="-0.17632">
        <ele>65.3</ele>
        <time>2022-07-26T08:31:24Z</time>
      </trkpt>
      <trkpt lat="44.63084" lon="-0.17632">
        <ele>65.3</ele>
        <time>2022-07-26T08:31:25Z</time>
      </trkpt>
      <trkpt lat="44.63084" lon="-0.17632">
        <ele>65.3</ele>
        <time>2022-07-26T08:31:26Z</time>
      </trkpt>
      <trkpt lat="44.63084" lon="-0.17632">
        <ele>65.3</ele>
        <time>2022-07-26T08:31:27Z</time>
      </trkpt>
      <trkpt lat="44.63084" lon="-0.17632">
        <ele>65.3</ele>
        <time>2022-07-26T08:31:28Z</time>
      </trkpt>
      <trkpt lat="44.63084" lon="-0.17632">
        <ele>65.3</ele>
        <time>2022-07-26T08:31:29Z</time>
      </trkpt>
      <trkpt lat="44.63084" lon="-0.17632">
        <ele>65.3</ele>
        <time>2022-07-26T08:31:30Z</time>
      </trkpt>
      <trkpt lat="44.63084" lon="-0.17632">
        <ele>65.3</ele>
        <time>2022-07-26T08:31:31Z</time>
      </trkpt>
      <trkpt lat="44.63084" lon="-0.17632">
        <ele>65.3</ele>
        <time>2022-07-26T08:31:32Z</time>
      </trkpt>
      <trkpt lat="44.63085" lon="-0.17632">
        <ele>65.3</ele>
        <time>2022-07-26T08:31:33Z</time>
      </trkpt>
      <trkpt lat="44.63085" lon="-0.17632">
        <ele>65.3</ele>
        <time>2022-07-26T08:31:34Z</time>
      </trkpt>
      <trkpt lat="44.63085" lon="-0.17632">
        <ele>65.3</ele>
        <time>2022-07-26T08:31:35Z</time>
      </trkpt>
      <trkpt lat="44.63085" lon="-0.17632">
        <ele>65.3</ele>
        <time>2022-07-26T08:31:36Z</time>
      </trkpt>
      <trkpt lat="44.63085" lon="-0.17632">
        <ele>65.3</ele>
        <time>2022-07-26T08:31:37Z</time>
      </trkpt>
      <trkpt lat="44.63085" lon="-0.17632">
        <ele>65.3</ele>
        <time>2022-07-26T08:31:38Z</time>
      </trkpt>
      <trkpt lat="44.63085" lon="-0.17632">
        <ele>65.3</ele>
        <time>2022-07-26T08:31:39Z</time>
      </trkpt>
      <trkpt lat="44.63085" lon="-0.17632">
        <ele>65.3</ele>
        <time>2022-07-26T08:31:40Z</time>
      </trkpt>
      <trkpt lat="44.63085" lon="-0.17632">
        <ele>65.3</ele>
        <time>2022-07-26T08:31:41Z</time>
      </trkpt>
      <trkpt lat="44.63085" lon="-0.17632">
        <ele>65.3</ele>
        <time>2022-07-26T08:31:42Z</time>
      </trkpt>
      <trkpt lat="44.63085" lon="-0.17632">
        <ele>65.3</ele>
        <time>2022-07-26T08:31:43Z</time>
      </trkpt>
      <trkpt lat="44.63085" lon="-0.17632">
        <ele>65.3</ele>
        <time>2022-07-26T08:31:44Z</time>
      </trkpt>
      <trkpt lat="44.63085" lon="-0.17632">
        <ele>65.3</ele>
        <time>2022-07-26T08:31:45Z</time>
      </trkpt>
      <trkpt lat="44.63085" lon="-0.17632">
        <ele>65.3</ele>
        <time>2022-07-26T08:31:46Z</time>
      </trkpt>
      <trkpt lat="44.63085" lon="-0.17632">
        <ele>65.3</ele>
        <time>2022-07-26T08:31:47Z</time>
      </trkpt>
      <trkpt lat="44.63085" lon="-0.17633">
        <ele>65.3</ele>
        <time>2022-07-26T08:31:48Z</time>
      </trkpt>
      <trkpt lat="44.63085" lon="-0.17634">
        <ele>65.3</ele>
        <time>2022-07-26T08:31:49Z</time>
      </trkpt>
      <trkpt lat="44.63084" lon="-0.17635">
        <ele>65.3</ele>
        <time>2022-07-26T08:31:50Z</time>
      </trkpt>
      <trkpt lat="44.63084" lon="-0.17636">
        <ele>65.3</ele>
        <time>2022-07-26T08:31:51Z</time>
      </trkpt>
      <trkpt lat="44.63084" lon="-0.17637">
        <ele>65.3</ele>
        <time>2022-07-26T08:31:52Z</time>
      </trkpt>
      <trkpt lat="44.63084" lon="-0.17638">
        <ele>65.3</ele>
        <time>2022-07-26T08:31:53Z</time>
      </trkpt>
      <trkpt lat="44.63084" lon="-0.17637">
        <ele>65.3</ele>
        <time>2022-07-26T08:31:54Z</time>
      </trkpt>
      <trkpt lat="44.63085" lon="-0.17637">
        <ele>65.3</ele>
        <time>2022-07-26T08:31:55Z</time>
      </trkpt>
      <trkpt lat="44.63085" lon="-0.17638">
        <ele>65.3</ele>
        <time>2022-07-26T08:31:56Z</time>
      </trkpt>
      <trkpt lat="44.63085" lon="-0.17639">
        <ele>65.3</ele>
        <time>2022-07-26T08:31:57Z</time>
      </trkpt>
      <trkpt lat="44.63085" lon="-0.1764">
        <ele>65.3</ele>
        <time>2022-07-26T08:31:59Z</time>
      </trkpt>
      <trkpt lat="44.63086" lon="-0.17641">
        <ele>65.3</ele>
        <time>2022-07-26T08:32:00Z</time>
      </trkpt>
      <trkpt lat="44.63086" lon="-0.17642">
        <ele>65.3</ele>
        <time>2022-07-26T08:32:01Z</time>
      </trkpt>
      <trkpt lat="44.63085" lon="-0.17644">
        <ele>65.3</ele>
        <time>2022-07-26T08:32:02Z</time>
      </trkpt>
      <trkpt lat="44.63085" lon="-0.17645">
        <ele>65.3</ele>
        <time>2022-07-26T08:32:04Z</time>
      </trkpt>
      <trkpt lat="44.63085" lon="-0.17647">
        <ele>65.3</ele>
        <time>2022-07-26T08:32:05Z</time>
      </trkpt>
      <trkpt lat="44.63085" lon="-0.17648">
        <ele>65.3</ele>
        <time>2022-07-26T08:32:06Z</time>
      </trkpt>
      <trkpt lat="44.63085" lon="-0.17649">
        <ele>65.3</ele>
        <time>2022-07-26T08:32:07Z</time>
      </trkpt>
      <trkpt lat="44.63086" lon="-0.17651">
        <ele>65.3</ele>
        <time>2022-07-26T08:32:09Z</time>
      </trkpt>
      <trkpt lat="44.63086" lon="-0.17652">
        <ele>65.3</ele>
        <time>2022-07-26T08:32:10Z</time>
      </trkpt>
      <trkpt lat="44.63087" lon="-0.17654">
        <ele>65.3</ele>
        <time>2022-07-26T08:32:11Z</time>
      </trkpt>
      <trkpt lat="44.63087" lon="-0.17654">
        <ele>65.3</ele>
        <time>2022-07-26T08:32:12Z</time>
      </trkpt>
      <trkpt lat="44.63087" lon="-0.17655">
        <ele>65.3</ele>
        <time>2022-07-26T08:32:13Z</time>
      </trkpt>
      <trkpt lat="44.63087" lon="-0.17655">
        <ele>65.3</ele>
        <time>2022-07-26T08:32:14Z</time>
      </trkpt>
      <trkpt lat="44.63087" lon="-0.17655">
        <ele>65.3</ele>
        <time>2022-07-26T08:32:15Z</time>
      </trkpt>
      <trkpt lat="44.63087" lon="-0.17655">
        <ele>65.3</ele>
        <time>2022-07-26T08:32:16Z</time>
      </trkpt>
      <trkpt lat="44.63087" lon="-0.17655">
        <ele>65.3</ele>
        <time>2022-07-26T08:32:17Z</time>
      </trkpt>
      <trkpt lat="44.63087" lon="-0.17655">
        <ele>65.3</ele>
        <time>2022-07-26T08:32:18Z</time>
      </trkpt>
      <trkpt lat="44.63087" lon="-0.17655">
        <ele>65.3</ele>
        <time>2022-07-26T08:32:19Z</time>
      </trkpt>
      <trkpt lat="44.63087" lon="-0.17655">
        <ele>65.3</ele>
        <time>2022-07-26T08:32:20Z</time>
      </trkpt>
      <trkpt lat="44.63087" lon="-0.17655">
        <ele>65.3</ele>
        <time>2022-07-26T08:32:21Z</time>
      </trkpt>
      <trkpt lat="44.63087" lon="-0.17655">
        <ele>65.3</ele>
        <time>2022-07-26T08:32:22Z</time>
      </trkpt>
      <trkpt lat="44.63087" lon="-0.17655">
        <ele>65.3</ele>
        <time>2022-07-26T08:32:23Z</time>
      </trkpt>
      <trkpt lat="44.63087" lon="-0.17655">
        <ele>65.3</ele>
        <time>2022-07-26T08:32:24Z</time>
      </trkpt>
      <trkpt lat="44.63087" lon="-0.17655">
        <ele>65.3</ele>
        <time>2022-07-26T08:32:25Z</time>
      </trkpt>
      <trkpt lat="44.63087" lon="-0.17655">
        <ele>65.3</ele>
        <time>2022-07-26T08:32:26Z</time>
      </trkpt>
      <trkpt lat="44.63087" lon="-0.17655">
        <ele>65.3</ele>
        <time>2022-07-26T08:32:27Z</time>
      </trkpt>
      <trkpt lat="44.63087" lon="-0.17655">
        <ele>65.3</ele>
        <time>2022-07-26T08:32:28Z</time>
      </trkpt>
      <trkpt lat="44.63087" lon="-0.17655">
        <ele>65.3</ele>
        <time>2022-07-26T08:32:29Z</time>
      </trkpt>
      <trkpt lat="44.63087" lon="-0.17654">
        <ele>65.3</ele>
        <time>2022-07-26T08:32:30Z</time>
      </trkpt>
      <trkpt lat="44.63087" lon="-0.17654">
        <ele>65.3</ele>
        <time>2022-07-26T08:32:31Z</time>
      </trkpt>
      <trkpt lat="44.63087" lon="-0.17654">
        <ele>65.3</ele>
        <time>2022-07-26T08:32:32Z</time>
      </trkpt>
      <trkpt lat="44.63087" lon="-0.17653">
        <ele>65.3</ele>
        <time>2022-07-26T08:32:33Z</time>
      </trkpt>
      <trkpt lat="44.63087" lon="-0.17654">
        <ele>65.3</ele>
        <time>2022-07-26T08:32:34Z</time>
      </trkpt>
      <trkpt lat="44.63087" lon="-0.17654">
        <ele>65.3</ele>
        <time>2022-07-26T08:32:35Z</time>
      </trkpt>
      <trkpt lat="44.63087" lon="-0.17654">
        <ele>65.3</ele>
        <time>2022-07-26T08:32:36Z</time>
      </trkpt>
      <trkpt lat="44.63087" lon="-0.17654">
        <ele>65.3</ele>
        <time>2022-07-26T08:32:37Z</time>
      </trkpt>
      <trkpt lat="44.63087" lon="-0.17654">
        <ele>65.3</ele>
        <time>2022-07-26T08:32:38Z</time>
      </trkpt>
      <trkpt lat="44.63087" lon="-0.17654">
        <ele>65.3</ele>
        <time>2022-07-26T08:32:39Z</time>
      </trkpt>
      <trkpt lat="44.63087" lon="-0.17654">
        <ele>65.3</ele>
        <time>2022-07-26T08:32:40Z</time>
      </trkpt>
      <trkpt lat="44.63087" lon="-0.17654">
        <ele>65.3</ele>
        <time>2022-07-26T08:32:41Z</time>
      </trkpt>
      <trkpt lat="44.63087" lon="-0.17654">
        <ele>65.3</ele>
        <time>2022-07-26T08:32:42Z</time>
      </trkpt>
      <trkpt lat="44.63087" lon="-0.17654">
        <ele>65.3</ele>
        <time>2022-07-26T08:32:43Z</time>
      </trkpt>
      <trkpt lat="44.63087" lon="-0.17654">
        <ele>65.3</ele>
        <time>2022-07-26T08:32:44Z</time>
      </trkpt>
      <trkpt lat="44.63087" lon="-0.17654">
        <ele>65.3</ele>
        <time>2022-07-26T08:32:45Z</time>
      </trkpt>
      <trkpt lat="44.63087" lon="-0.17654">
        <ele>65.3</ele>
        <time>2022-07-26T08:32:46Z</time>
      </trkpt>
      <trkpt lat="44.63087" lon="-0.17654">
        <ele>65.3</ele>
        <time>2022-07-26T08:32:47Z</time>
      </trkpt>
      <trkpt lat="44.63087" lon="-0.17654">
        <ele>65.3</ele>
        <time>2022-07-26T08:32:48Z</time>
      </trkpt>
      <trkpt lat="44.63087" lon="-0.17654">
        <ele>65.3</ele>
        <time>2022-07-26T08:32:49Z</time>
      </trkpt>
      <trkpt lat="44.63087" lon="-0.17654">
        <ele>65.3</ele>
        <time>2022-07-26T08:32:50Z</time>
      </trkpt>
      <trkpt lat="44.63086" lon="-0.17654">
        <ele>65.3</ele>
        <time>2022-07-26T08:32:51Z</time>
      </trkpt>
      <trkpt lat="44.63086" lon="-0.17654">
        <ele>65.3</ele>
        <time>2022-07-26T08:32:52Z</time>
      </trkpt>
      <trkpt lat="44.63086" lon="-0.17654">
        <ele>65.3</ele>
        <time>2022-07-26T08:32:54Z</time>
      </trkpt>
      <trkpt lat="44.63086" lon="-0.17654">
        <ele>65.3</ele>
        <time>2022-07-26T08:32:55Z</time>
      </trkpt>
      <trkpt lat="44.63086" lon="-0.17654">
        <ele>65.3</ele>
        <time>2022-07-26T08:32:56Z</time>
      </trkpt>
      <trkpt lat="44.63086" lon="-0.17654">
        <ele>65.3</ele>
        <time>2022-07-26T08:32:57Z</time>
      </trkpt>
      <trkpt lat="44.63086" lon="-0.17654">
        <ele>65.3</ele>
        <time>2022-07-26T08:32:58Z</time>
      </trkpt>
      <trkpt lat="44.63086" lon="-0.17654">
        <ele>65.3</ele>
        <time>2022-07-26T08:32:59Z</time>
      </trkpt>
      <trkpt lat="44.63086" lon="-0.17654">
        <ele>65.3</ele>
        <time>2022-07-26T08:33:00Z</time>
      </trkpt>
      <trkpt lat="44.63086" lon="-0.17654">
        <ele>65.3</ele>
        <time>2022-07-26T08:33:01Z</time>
      </trkpt>
      <trkpt lat="44.63086" lon="-0.17654">
        <ele>65.3</ele>
        <time>2022-07-26T08:33:02Z</time>
      </trkpt>
      <trkpt lat="44.63086" lon="-0.17654">
        <ele>65.3</ele>
        <time>2022-07-26T08:33:03Z</time>
      </trkpt>
      <trkpt lat="44.63086" lon="-0.17654">
        <ele>65.3</ele>
        <time>2022-07-26T08:33:04Z</time>
      </trkpt>
      <trkpt lat="44.63086" lon="-0.17654">
        <ele>65.3</ele>
        <time>2022-07-26T08:33:05Z</time>
      </trkpt>
      <trkpt lat="44.63086" lon="-0.17654">
        <ele>65.3</ele>
        <time>2022-07-26T08:33:06Z</time>
      </trkpt>
      <trkpt lat="44.63086" lon="-0.17654">
        <ele>65.3</ele>
        <time>2022-07-26T08:33:07Z</time>
      </trkpt>
      <trkpt lat="44.63086" lon="-0.17654">
        <ele>65.3</ele>
        <time>2022-07-26T08:33:08Z</time>
      </trkpt>
      <trkpt lat="44.63086" lon="-0.17654">
        <ele>65.3</ele>
        <time>2022-07-26T08:33:09Z</time>
      </trkpt>
      <trkpt lat="44.63086" lon="-0.17654">
        <ele>65.3</ele>
        <time>2022-07-26T08:33:10Z</time>
      </trkpt>
      <trkpt lat="44.63086" lon="-0.17654">
        <ele>65.3</ele>
        <time>2022-07-26T08:33:11Z</time>
      </trkpt>
      <trkpt lat="44.63086" lon="-0.17654">
        <ele>65.3</ele>
        <time>2022-07-26T08:33:12Z</time>
      </trkpt>
      <trkpt lat="44.63086" lon="-0.17654">
        <ele>65.3</ele>
        <time>2022-07-26T08:33:13Z</time>
      </trkpt>
      <trkpt lat="44.63086" lon="-0.17654">
        <ele>65.3</ele>
        <time>2022-07-26T08:33:14Z</time>
      </trkpt>
      <trkpt lat="44.63086" lon="-0.17654">
        <ele>65.3</ele>
        <time>2022-07-26T08:33:15Z</time>
      </trkpt>
      <trkpt lat="44.63086" lon="-0.17654">
        <ele>65.3</ele>
        <time>2022-07-26T08:33:16Z</time>
      </trkpt>
      <trkpt lat="44.63086" lon="-0.17654">
        <ele>65.3</ele>
        <time>2022-07-26T08:33:17Z</time>
      </trkpt>
      <trkpt lat="44.63086" lon="-0.17654">
        <ele>65.3</ele>
        <time>2022-07-26T08:33:18Z</time>
      </trkpt>
      <trkpt lat="44.63086" lon="-0.17654">
        <ele>65.3</ele>
        <time>2022-07-26T08:33:19Z</time>
      </trkpt>
      <trkpt lat="44.63085" lon="-0.17654">
        <ele>65.3</ele>
        <time>2022-07-26T08:33:20Z</time>
      </trkpt>
      <trkpt lat="44.63085" lon="-0.17655">
        <ele>65.3</ele>
        <time>2022-07-26T08:33:21Z</time>
      </trkpt>
      <trkpt lat="44.63084" lon="-0.17655">
        <ele>65.3</ele>
        <time>2022-07-26T08:33:22Z</time>
      </trkpt>
      <trkpt lat="44.63084" lon="-0.17655">
        <ele>65.3</ele>
        <time>2022-07-26T08:33:23Z</time>
      </trkpt>
      <trkpt lat="44.63084" lon="-0.17655">
        <ele>65.3</ele>
        <time>2022-07-26T08:33:24Z</time>
      </trkpt>
      <trkpt lat="44.63083" lon="-0.17656">
        <ele>65.3</ele>
        <time>2022-07-26T08:33:25Z</time>
      </trkpt>
      <trkpt lat="44.63082" lon="-0.17658">
        <ele>65.3</ele>
        <time>2022-07-26T08:33:26Z</time>
      </trkpt>
      <trkpt lat="44.63081" lon="-0.17658">
        <ele>65.2</ele>
        <time>2022-07-26T08:33:27Z</time>
      </trkpt>
      <trkpt lat="44.6308" lon="-0.17659">
        <ele>65.2</ele>
        <time>2022-07-26T08:33:28Z</time>
      </trkpt>
      <trkpt lat="44.6308" lon="-0.17659">
        <ele>65.2</ele>
        <time>2022-07-26T08:33:30Z</time>
      </trkpt>
      <trkpt lat="44.63079" lon="-0.1766">
        <ele>65.2</ele>
        <time>2022-07-26T08:33:31Z</time>
      </trkpt>
      <trkpt lat="44.63079" lon="-0.1766">
        <ele>65.2</ele>
        <time>2022-07-26T08:33:32Z</time>
      </trkpt>
      <trkpt lat="44.63079" lon="-0.1766">
        <ele>65.2</ele>
        <time>2022-07-26T08:33:33Z</time>
      </trkpt>
      <trkpt lat="44.63079" lon="-0.1766">
        <ele>65.2</ele>
        <time>2022-07-26T08:33:34Z</time>
      </trkpt>
      <trkpt lat="44.63079" lon="-0.1766">
        <ele>65.2</ele>
        <time>2022-07-26T08:33:35Z</time>
      </trkpt>
      <trkpt lat="44.63078" lon="-0.1766">
        <ele>65.2</ele>
        <time>2022-07-26T08:33:36Z</time>
      </trkpt>
      <trkpt lat="44.63078" lon="-0.1766">
        <ele>65.2</ele>
        <time>2022-07-26T08:33:37Z</time>
      </trkpt>
      <trkpt lat="44.63078" lon="-0.1766">
        <ele>65.2</ele>
        <time>2022-07-26T08:33:38Z</time>
      </trkpt>
      <trkpt lat="44.63078" lon="-0.1766">
        <ele>65.2</ele>
        <time>2022-07-26T08:33:39Z</time>
      </trkpt>
      <trkpt lat="44.63078" lon="-0.17661">
        <ele>65.2</ele>
        <time>2022-07-26T08:33:40Z</time>
      </trkpt>
      <trkpt lat="44.63077" lon="-0.17661">
        <ele>65.2</ele>
        <time>2022-07-26T08:33:41Z</time>
      </trkpt>
      <trkpt lat="44.63077" lon="-0.17661">
        <ele>65.2</ele>
        <time>2022-07-26T08:33:42Z</time>
      </trkpt>
      <trkpt lat="44.63077" lon="-0.17661">
        <ele>65.2</ele>
        <time>2022-07-26T08:33:43Z</time>
      </trkpt>
      <trkpt lat="44.63077" lon="-0.17661">
        <ele>65.2</ele>
        <time>2022-07-26T08:33:44Z</time>
      </trkpt>
      <trkpt lat="44.63077" lon="-0.17661">
        <ele>65.2</ele>
        <time>2022-07-26T08:33:45Z</time>
      </trkpt>
      <trkpt lat="44.63076" lon="-0.17661">
        <ele>65.2</ele>
        <time>2022-07-26T08:33:46Z</time>
      </trkpt>
      <trkpt lat="44.63076" lon="-0.17661">
        <ele>65.1</ele>
        <time>2022-07-26T08:33:48Z</time>
      </trkpt>
      <trkpt lat="44.63076" lon="-0.17661">
        <ele>65.1</ele>
        <time>2022-07-26T08:33:49Z</time>
      </trkpt>
      <trkpt lat="44.63076" lon="-0.17661">
        <ele>65.1</ele>
        <time>2022-07-26T08:33:50Z</time>
      </trkpt>
      <trkpt lat="44.63076" lon="-0.17661">
        <ele>65.1</ele>
        <time>2022-07-26T08:33:51Z</time>
      </trkpt>
      <trkpt lat="44.63075" lon="-0.17661">
        <ele>65.1</ele>
        <time>2022-07-26T08:33:52Z</time>
      </trkpt>
      <trkpt lat="44.63075" lon="-0.17662">
        <ele>65.1</ele>
        <time>2022-07-26T08:33:53Z</time>
      </trkpt>
      <trkpt lat="44.63072" lon="-0.1766">
        <ele>65.1</ele>
        <time>2022-07-26T08:33:55Z</time>
      </trkpt>
      <trkpt lat="44.63071" lon="-0.17659">
        <ele>65.1</ele>
        <time>2022-07-26T08:33:56Z</time>
      </trkpt>
      <trkpt lat="44.6307" lon="-0.17658">
        <ele>65.1</ele>
        <time>2022-07-26T08:33:57Z</time>
      </trkpt>
      <trkpt lat="44.63069" lon="-0.17658">
        <ele>65</ele>
        <time>2022-07-26T08:33:58Z</time>
      </trkpt>
      <trkpt lat="44.63068" lon="-0.17658">
        <ele>65</ele>
        <time>2022-07-26T08:33:59Z</time>
      </trkpt>
      <trkpt lat="44.63067" lon="-0.17658">
        <ele>65</ele>
        <time>2022-07-26T08:34:00Z</time>
      </trkpt>
      <trkpt lat="44.63066" lon="-0.17657">
        <ele>65</ele>
        <time>2022-07-26T08:34:01Z</time>
      </trkpt>
      <trkpt lat="44.63065" lon="-0.17657">
        <ele>65</ele>
        <time>2022-07-26T08:34:02Z</time>
      </trkpt>
      <trkpt lat="44.63063" lon="-0.17656">
        <ele>65</ele>
        <time>2022-07-26T08:34:03Z</time>
      </trkpt>
      <trkpt lat="44.63062" lon="-0.17656">
        <ele>65</ele>
        <time>2022-07-26T08:34:04Z</time>
      </trkpt>
      <trkpt lat="44.63061" lon="-0.17656">
        <ele>65</ele>
        <time>2022-07-26T08:34:05Z</time>
      </trkpt>
      <trkpt lat="44.63059" lon="-0.17656">
        <ele>65</ele>
        <time>2022-07-26T08:34:07Z</time>
      </trkpt>
      <trkpt lat="44.63058" lon="-0.17657">
        <ele>65</ele>
        <time>2022-07-26T08:34:08Z</time>
      </trkpt>
      <trkpt lat="44.63057" lon="-0.17657">
        <ele>64.9</ele>
        <time>2022-07-26T08:34:09Z</time>
      </trkpt>
      <trkpt lat="44.63056" lon="-0.17657">
        <ele>64.9</ele>
        <time>2022-07-26T08:34:10Z</time>
      </trkpt>
      <trkpt lat="44.63053" lon="-0.17655">
        <ele>64.9</ele>
        <time>2022-07-26T08:34:12Z</time>
      </trkpt>
      <trkpt lat="44.63052" lon="-0.17655">
        <ele>64.9</ele>
        <time>2022-07-26T08:34:14Z</time>
      </trkpt>
      <trkpt lat="44.63051" lon="-0.17655">
        <ele>64.9</ele>
        <time>2022-07-26T08:34:15Z</time>
      </trkpt>
      <trkpt lat="44.6305" lon="-0.17655">
        <ele>64.9</ele>
        <time>2022-07-26T08:34:16Z</time>
      </trkpt>
      <trkpt lat="44.63049" lon="-0.17655">
        <ele>64.9</ele>
        <time>2022-07-26T08:34:17Z</time>
      </trkpt>
      <trkpt lat="44.63048" lon="-0.17655">
        <ele>64.9</ele>
        <time>2022-07-26T08:34:18Z</time>
      </trkpt>
      <trkpt lat="44.63046" lon="-0.17655">
        <ele>64.9</ele>
        <time>2022-07-26T08:34:19Z</time>
      </trkpt>
      <trkpt lat="44.63045" lon="-0.17655">
        <ele>64.9</ele>
        <time>2022-07-26T08:34:20Z</time>
      </trkpt>
      <trkpt lat="44.63042" lon="-0.17654">
        <ele>64.9</ele>
        <time>2022-07-26T08:34:22Z</time>
      </trkpt>
      <trkpt lat="44.6304" lon="-0.17653">
        <ele>64.9</ele>
        <time>2022-07-26T08:34:23Z</time>
      </trkpt>
      <trkpt lat="44.63039" lon="-0.17652">
        <ele>64.9</ele>
        <time>2022-07-26T08:34:24Z</time>
      </trkpt>
      <trkpt lat="44.63038" lon="-0.17652">
        <ele>64.9</ele>
        <time>2022-07-26T08:34:25Z</time>
      </trkpt>
      <trkpt lat="44.63037" lon="-0.17651">
        <ele>64.9</ele>
        <time>2022-07-26T08:34:26Z</time>
      </trkpt>
      <trkpt lat="44.63035" lon="-0.17649">
        <ele>64.9</ele>
        <time>2022-07-26T08:34:28Z</time>
      </trkpt>
      <trkpt lat="44.63033" lon="-0.17647">
        <ele>64.9</ele>
        <time>2022-07-26T08:34:29Z</time>
      </trkpt>
      <trkpt lat="44.63032" lon="-0.17646">
        <ele>64.9</ele>
        <time>2022-07-26T08:34:30Z</time>
      </trkpt>
      <trkpt lat="44.63031" lon="-0.17645">
        <ele>64.9</ele>
        <time>2022-07-26T08:34:31Z</time>
      </trkpt>
      <trkpt lat="44.63031" lon="-0.17645">
        <ele>64.9</ele>
        <time>2022-07-26T08:34:32Z</time>
      </trkpt>
      <trkpt lat="44.6303" lon="-0.17643">
        <ele>65</ele>
        <time>2022-07-26T08:34:33Z</time>
      </trkpt>
      <trkpt lat="44.63028" lon="-0.17642">
        <ele>65</ele>
        <time>2022-07-26T08:34:35Z</time>
      </trkpt>
      <trkpt lat="44.63026" lon="-0.17638">
        <ele>65</ele>
        <time>2022-07-26T08:34:36Z</time>
      </trkpt>
      <trkpt lat="44.63025" lon="-0.17637">
        <ele>65.1</ele>
        <time>2022-07-26T08:34:38Z</time>
      </trkpt>
      <trkpt lat="44.63024" lon="-0.17635">
        <ele>65.1</ele>
        <time>2022-07-26T08:34:40Z</time>
      </trkpt>
      <trkpt lat="44.63024" lon="-0.17633">
        <ele>65.1</ele>
        <time>2022-07-26T08:34:41Z</time>
      </trkpt>
      <trkpt lat="44.63023" lon="-0.17632">
        <ele>65.1</ele>
        <time>2022-07-26T08:34:42Z</time>
      </trkpt>
      <trkpt lat="44.63022" lon="-0.1763">
        <ele>65.2</ele>
        <time>2022-07-26T08:34:43Z</time>
      </trkpt>
      <trkpt lat="44.63021" lon="-0.17629">
        <ele>65.2</ele>
        <time>2022-07-26T08:34:44Z</time>
      </trkpt>
      <trkpt lat="44.63021" lon="-0.17627">
        <ele>65.2</ele>
        <time>2022-07-26T08:34:45Z</time>
      </trkpt>
      <trkpt lat="44.63019" lon="-0.17625">
        <ele>65.3</ele>
        <time>2022-07-26T08:34:47Z</time>
      </trkpt>
      <trkpt lat="44.63018" lon="-0.17624">
        <ele>65.3</ele>
        <time>2022-07-26T08:34:48Z</time>
      </trkpt>
      <trkpt lat="44.63017" lon="-0.17622">
        <ele>65.3</ele>
        <time>2022-07-26T08:34:49Z</time>
      </trkpt>
      <trkpt lat="44.63016" lon="-0.17621">
        <ele>65.4</ele>
        <time>2022-07-26T08:34:50Z</time>
      </trkpt>
      <trkpt lat="44.63014" lon="-0.17619">
        <ele>65.4</ele>
        <time>2022-07-26T08:34:51Z</time>
      </trkpt>
      <trkpt lat="44.63013" lon="-0.17618">
        <ele>65.4</ele>
        <time>2022-07-26T08:34:53Z</time>
      </trkpt>
      <trkpt lat="44.63013" lon="-0.17616">
        <ele>65.5</ele>
        <time>2022-07-26T08:34:54Z</time>
      </trkpt>
      <trkpt lat="44.63012" lon="-0.17615">
        <ele>65.5</ele>
        <time>2022-07-26T08:34:55Z</time>
      </trkpt>
      <trkpt lat="44.6301" lon="-0.17612">
        <ele>65.6</ele>
        <time>2022-07-26T08:34:57Z</time>
      </trkpt>
      <trkpt lat="44.63008" lon="-0.1761">
        <ele>65.7</ele>
        <time>2022-07-26T08:34:58Z</time>
      </trkpt>
      <trkpt lat="44.63008" lon="-0.17609">
        <ele>65.7</ele>
        <time>2022-07-26T08:34:59Z</time>
      </trkpt>
      <trkpt lat="44.63007" lon="-0.17609">
        <ele>65.7</ele>
        <time>2022-07-26T08:35:00Z</time>
      </trkpt>
      <trkpt lat="44.63006" lon="-0.17607">
        <ele>65.7</ele>
        <time>2022-07-26T08:35:01Z</time>
      </trkpt>
      <trkpt lat="44.63005" lon="-0.17606">
        <ele>65.8</ele>
        <time>2022-07-26T08:35:02Z</time>
      </trkpt>
      <trkpt lat="44.63003" lon="-0.17603">
        <ele>65.9</ele>
        <time>2022-07-26T08:35:03Z</time>
      </trkpt>
      <trkpt lat="44.63002" lon="-0.17603">
        <ele>65.9</ele>
        <time>2022-07-26T08:35:05Z</time>
      </trkpt>
      <trkpt lat="44.63002" lon="-0.17602">
        <ele>65.9</ele>
        <time>2022-07-26T08:35:06Z</time>
      </trkpt>
      <trkpt lat="44.63" lon="-0.17599">
        <ele>66</ele>
        <time>2022-07-26T08:35:07Z</time>
      </trkpt>
      <trkpt lat="44.63" lon="-0.17598">
        <ele>66</ele>
        <time>2022-07-26T08:35:08Z</time>
      </trkpt>
      <trkpt lat="44.62998" lon="-0.17596">
        <ele>66.1</ele>
        <time>2022-07-26T08:35:09Z</time>
      </trkpt>
      <trkpt lat="44.62998" lon="-0.17595">
        <ele>66.1</ele>
        <time>2022-07-26T08:35:10Z</time>
      </trkpt>
      <trkpt lat="44.62997" lon="-0.17594">
        <ele>66.1</ele>
        <time>2022-07-26T08:35:11Z</time>
      </trkpt>
      <trkpt lat="44.62996" lon="-0.17591">
        <ele>66.2</ele>
        <time>2022-07-26T08:35:12Z</time>
      </trkpt>
      <trkpt lat="44.62995" lon="-0.1759">
        <ele>66.2</ele>
        <time>2022-07-26T08:35:13Z</time>
      </trkpt>
      <trkpt lat="44.62994" lon="-0.17589">
        <ele>66.3</ele>
        <time>2022-07-26T08:35:15Z</time>
      </trkpt>
      <trkpt lat="44.62993" lon="-0.17587">
        <ele>66.3</ele>
        <time>2022-07-26T08:35:16Z</time>
      </trkpt>
      <trkpt lat="44.62991" lon="-0.17585">
        <ele>66.4</ele>
        <time>2022-07-26T08:35:17Z</time>
      </trkpt>
      <trkpt lat="44.62991" lon="-0.17584">
        <ele>66.4</ele>
        <time>2022-07-26T08:35:18Z</time>
      </trkpt>
      <trkpt lat="44.62989" lon="-0.17582">
        <ele>66.5</ele>
        <time>2022-07-26T08:35:20Z</time>
      </trkpt>
      <trkpt lat="44.62988" lon="-0.1758">
        <ele>66.5</ele>
        <time>2022-07-26T08:35:21Z</time>
      </trkpt>
      <trkpt lat="44.62987" lon="-0.17579">
        <ele>66.6</ele>
        <time>2022-07-26T08:35:22Z</time>
      </trkpt>
      <trkpt lat="44.62986" lon="-0.17577">
        <ele>66.6</ele>
        <time>2022-07-26T08:35:23Z</time>
      </trkpt>
      <trkpt lat="44.62985" lon="-0.17575">
        <ele>66.7</ele>
        <time>2022-07-26T08:35:25Z</time>
      </trkpt>
      <trkpt lat="44.62984" lon="-0.17574">
        <ele>66.7</ele>
        <time>2022-07-26T08:35:26Z</time>
      </trkpt>
      <trkpt lat="44.62982" lon="-0.17571">
        <ele>66.8</ele>
        <time>2022-07-26T08:35:27Z</time>
      </trkpt>
      <trkpt lat="44.62981" lon="-0.1757">
        <ele>66.9</ele>
        <time>2022-07-26T08:35:28Z</time>
      </trkpt>
      <trkpt lat="44.62981" lon="-0.17569">
        <ele>66.9</ele>
        <time>2022-07-26T08:35:29Z</time>
      </trkpt>
      <trkpt lat="44.6298" lon="-0.17568">
        <ele>66.9</ele>
        <time>2022-07-26T08:35:30Z</time>
      </trkpt>
      <trkpt lat="44.62979" lon="-0.17566">
        <ele>67</ele>
        <time>2022-07-26T08:35:31Z</time>
      </trkpt>
      <trkpt lat="44.62977" lon="-0.17565">
        <ele>67</ele>
        <time>2022-07-26T08:35:32Z</time>
      </trkpt>
      <trkpt lat="44.62976" lon="-0.17564">
        <ele>67.1</ele>
        <time>2022-07-26T08:35:33Z</time>
      </trkpt>
      <trkpt lat="44.62975" lon="-0.17563">
        <ele>67.1</ele>
        <time>2022-07-26T08:35:34Z</time>
      </trkpt>
      <trkpt lat="44.62974" lon="-0.17561">
        <ele>67.2</ele>
        <time>2022-07-26T08:35:36Z</time>
      </trkpt>
      <trkpt lat="44.62973" lon="-0.17559">
        <ele>67.2</ele>
        <time>2022-07-26T08:35:37Z</time>
      </trkpt>
      <trkpt lat="44.62972" lon="-0.17559">
        <ele>67.3</ele>
        <time>2022-07-26T08:35:38Z</time>
      </trkpt>
      <trkpt lat="44.62971" lon="-0.17557">
        <ele>67.4</ele>
        <time>2022-07-26T08:35:39Z</time>
      </trkpt>
      <trkpt lat="44.6297" lon="-0.17556">
        <ele>67.4</ele>
        <time>2022-07-26T08:35:40Z</time>
      </trkpt>
      <trkpt lat="44.62969" lon="-0.17555">
        <ele>67.4</ele>
        <time>2022-07-26T08:35:41Z</time>
      </trkpt>
      <trkpt lat="44.62967" lon="-0.17552">
        <ele>67.5</ele>
        <time>2022-07-26T08:35:42Z</time>
      </trkpt>
      <trkpt lat="44.62966" lon="-0.17551">
        <ele>67.6</ele>
        <time>2022-07-26T08:35:44Z</time>
      </trkpt>
      <trkpt lat="44.62965" lon="-0.1755">
        <ele>67.6</ele>
        <time>2022-07-26T08:35:45Z</time>
      </trkpt>
      <trkpt lat="44.62964" lon="-0.17548">
        <ele>67.7</ele>
        <time>2022-07-26T08:35:46Z</time>
      </trkpt>
      <trkpt lat="44.62963" lon="-0.17547">
        <ele>67.7</ele>
        <time>2022-07-26T08:35:47Z</time>
      </trkpt>
      <trkpt lat="44.62962" lon="-0.17547">
        <ele>67.7</ele>
        <time>2022-07-26T08:35:48Z</time>
      </trkpt>
      <trkpt lat="44.62962" lon="-0.17546">
        <ele>67.8</ele>
        <time>2022-07-26T08:35:49Z</time>
      </trkpt>
      <trkpt lat="44.62961" lon="-0.17545">
        <ele>67.8</ele>
        <time>2022-07-26T08:35:50Z</time>
      </trkpt>
      <trkpt lat="44.62959" lon="-0.17543">
        <ele>67.9</ele>
        <time>2022-07-26T08:35:51Z</time>
      </trkpt>
      <trkpt lat="44.62958" lon="-0.17541">
        <ele>67.9</ele>
        <time>2022-07-26T08:35:52Z</time>
      </trkpt>
      <trkpt lat="44.62957" lon="-0.1754">
        <ele>68</ele>
        <time>2022-07-26T08:35:53Z</time>
      </trkpt>
      <trkpt lat="44.62956" lon="-0.17539">
        <ele>68</ele>
        <time>2022-07-26T08:35:54Z</time>
      </trkpt>
      <trkpt lat="44.62955" lon="-0.17538">
        <ele>68.1</ele>
        <time>2022-07-26T08:35:55Z</time>
      </trkpt>
      <trkpt lat="44.62955" lon="-0.17537">
        <ele>68.1</ele>
        <time>2022-07-26T08:35:56Z</time>
      </trkpt>
      <trkpt lat="44.62953" lon="-0.17535">
        <ele>68.2</ele>
        <time>2022-07-26T08:35:57Z</time>
      </trkpt>
      <trkpt lat="44.62952" lon="-0.17533">
        <ele>68.2</ele>
        <time>2022-07-26T08:35:58Z</time>
      </trkpt>
      <trkpt lat="44.62951" lon="-0.17532">
        <ele>68.3</ele>
        <time>2022-07-26T08:35:59Z</time>
      </trkpt>
      <trkpt lat="44.6295" lon="-0.17531">
        <ele>68.3</ele>
        <time>2022-07-26T08:36:00Z</time>
      </trkpt>
      <trkpt lat="44.6295" lon="-0.1753">
        <ele>68.3</ele>
        <time>2022-07-26T08:36:01Z</time>
      </trkpt>
      <trkpt lat="44.62949" lon="-0.17529">
        <ele>68.4</ele>
        <time>2022-07-26T08:36:02Z</time>
      </trkpt>
      <trkpt lat="44.62948" lon="-0.17528">
        <ele>68.4</ele>
        <time>2022-07-26T08:36:03Z</time>
      </trkpt>
      <trkpt lat="44.62947" lon="-0.17527">
        <ele>68.5</ele>
        <time>2022-07-26T08:36:04Z</time>
      </trkpt>
      <trkpt lat="44.62946" lon="-0.17526">
        <ele>68.5</ele>
        <time>2022-07-26T08:36:05Z</time>
      </trkpt>
      <trkpt lat="44.62946" lon="-0.17524">
        <ele>68.6</ele>
        <time>2022-07-26T08:36:06Z</time>
      </trkpt>
      <trkpt lat="44.62944" lon="-0.17523">
        <ele>68.6</ele>
        <time>2022-07-26T08:36:07Z</time>
      </trkpt>
      <trkpt lat="44.62943" lon="-0.17521">
        <ele>68.7</ele>
        <time>2022-07-26T08:36:08Z</time>
      </trkpt>
      <trkpt lat="44.62943" lon="-0.1752">
        <ele>68.7</ele>
        <time>2022-07-26T08:36:09Z</time>
      </trkpt>
      <trkpt lat="44.62942" lon="-0.17519">
        <ele>68.8</ele>
        <time>2022-07-26T08:36:10Z</time>
      </trkpt>
      <trkpt lat="44.62941" lon="-0.17518">
        <ele>68.8</ele>
        <time>2022-07-26T08:36:11Z</time>
      </trkpt>
      <trkpt lat="44.6294" lon="-0.17515">
        <ele>68.9</ele>
        <time>2022-07-26T08:36:12Z</time>
      </trkpt>
      <trkpt lat="44.62939" lon="-0.17514">
        <ele>69</ele>
        <time>2022-07-26T08:36:13Z</time>
      </trkpt>
      <trkpt lat="44.62938" lon="-0.17512">
        <ele>69</ele>
        <time>2022-07-26T08:36:15Z</time>
      </trkpt>
      <trkpt lat="44.62937" lon="-0.17511">
        <ele>69.1</ele>
        <time>2022-07-26T08:36:16Z</time>
      </trkpt>
      <trkpt lat="44.62936" lon="-0.17508">
        <ele>69.2</ele>
        <time>2022-07-26T08:36:17Z</time>
      </trkpt>
      <trkpt lat="44.62935" lon="-0.17507">
        <ele>69.2</ele>
        <time>2022-07-26T08:36:18Z</time>
      </trkpt>
      <trkpt lat="44.62934" lon="-0.17506">
        <ele>69.3</ele>
        <time>2022-07-26T08:36:19Z</time>
      </trkpt>
      <trkpt lat="44.62933" lon="-0.17505">
        <ele>69.3</ele>
        <time>2022-07-26T08:36:20Z</time>
      </trkpt>
      <trkpt lat="44.62932" lon="-0.17503">
        <ele>69.4</ele>
        <time>2022-07-26T08:36:21Z</time>
      </trkpt>
      <trkpt lat="44.62931" lon="-0.17501">
        <ele>69.4</ele>
        <time>2022-07-26T08:36:22Z</time>
      </trkpt>
      <trkpt lat="44.6293" lon="-0.175">
        <ele>69.5</ele>
        <time>2022-07-26T08:36:23Z</time>
      </trkpt>
      <trkpt lat="44.62929" lon="-0.17499">
        <ele>69.5</ele>
        <time>2022-07-26T08:36:24Z</time>
      </trkpt>
      <trkpt lat="44.62928" lon="-0.17497">
        <ele>69.6</ele>
        <time>2022-07-26T08:36:25Z</time>
      </trkpt>
      <trkpt lat="44.62926" lon="-0.17495">
        <ele>69.7</ele>
        <time>2022-07-26T08:36:27Z</time>
      </trkpt>
      <trkpt lat="44.62926" lon="-0.17495">
        <ele>69.7</ele>
        <time>2022-07-26T08:36:28Z</time>
      </trkpt>
      <trkpt lat="44.62925" lon="-0.17494">
        <ele>69.7</ele>
        <time>2022-07-26T08:36:29Z</time>
      </trkpt>
      <trkpt lat="44.62924" lon="-0.17492">
        <ele>69.8</ele>
        <time>2022-07-26T08:36:30Z</time>
      </trkpt>
      <trkpt lat="44.62923" lon="-0.17491">
        <ele>69.8</ele>
        <time>2022-07-26T08:36:31Z</time>
      </trkpt>
      <trkpt lat="44.62922" lon="-0.1749">
        <ele>69.9</ele>
        <time>2022-07-26T08:36:32Z</time>
      </trkpt>
      <trkpt lat="44.6292" lon="-0.17488">
        <ele>70</ele>
        <time>2022-07-26T08:36:33Z</time>
      </trkpt>
      <trkpt lat="44.62919" lon="-0.17487">
        <ele>70</ele>
        <time>2022-07-26T08:36:35Z</time>
      </trkpt>
      <trkpt lat="44.62918" lon="-0.17487">
        <ele>70.1</ele>
        <time>2022-07-26T08:36:36Z</time>
      </trkpt>
      <trkpt lat="44.62917" lon="-0.17486">
        <ele>70.1</ele>
        <time>2022-07-26T08:36:37Z</time>
      </trkpt>
      <trkpt lat="44.62916" lon="-0.17485">
        <ele>70.1</ele>
        <time>2022-07-26T08:36:38Z</time>
      </trkpt>
      <trkpt lat="44.62914" lon="-0.17484">
        <ele>70.2</ele>
        <time>2022-07-26T08:36:39Z</time>
      </trkpt>
      <trkpt lat="44.62913" lon="-0.17484">
        <ele>70.3</ele>
        <time>2022-07-26T08:36:40Z</time>
      </trkpt>
      <trkpt lat="44.62912" lon="-0.17484">
        <ele>70.3</ele>
        <time>2022-07-26T08:36:41Z</time>
      </trkpt>
      <trkpt lat="44.62911" lon="-0.17484">
        <ele>70.3</ele>
        <time>2022-07-26T08:36:42Z</time>
      </trkpt>
      <trkpt lat="44.6291" lon="-0.17484">
        <ele>70.4</ele>
        <time>2022-07-26T08:36:43Z</time>
      </trkpt>
      <trkpt lat="44.62909" lon="-0.17484">
        <ele>70.4</ele>
        <time>2022-07-26T08:36:44Z</time>
      </trkpt>
      <trkpt lat="44.62908" lon="-0.17483">
        <ele>70.4</ele>
        <time>2022-07-26T08:36:45Z</time>
      </trkpt>
      <trkpt lat="44.62906" lon="-0.17482">
        <ele>70.5</ele>
        <time>2022-07-26T08:36:47Z</time>
      </trkpt>
      <trkpt lat="44.62905" lon="-0.17481">
        <ele>70.6</ele>
        <time>2022-07-26T08:36:48Z</time>
      </trkpt>
      <trkpt lat="44.62904" lon="-0.17481">
        <ele>70.6</ele>
        <time>2022-07-26T08:36:49Z</time>
      </trkpt>
      <trkpt lat="44.62904" lon="-0.1748">
        <ele>70.6</ele>
        <time>2022-07-26T08:36:50Z</time>
      </trkpt>
      <trkpt lat="44.62903" lon="-0.1748">
        <ele>70.7</ele>
        <time>2022-07-26T08:36:51Z</time>
      </trkpt>
      <trkpt lat="44.62902" lon="-0.1748">
        <ele>70.7</ele>
        <time>2022-07-26T08:36:52Z</time>
      </trkpt>
      <trkpt lat="44.62902" lon="-0.1748">
        <ele>70.7</ele>
        <time>2022-07-26T08:36:53Z</time>
      </trkpt>
      <trkpt lat="44.62902" lon="-0.17481">
        <ele>70.7</ele>
        <time>2022-07-26T08:36:54Z</time>
      </trkpt>
      <trkpt lat="44.62901" lon="-0.17481">
        <ele>70.7</ele>
        <time>2022-07-26T08:36:55Z</time>
      </trkpt>
      <trkpt lat="44.62899" lon="-0.17479">
        <ele>70.8</ele>
        <time>2022-07-26T08:36:57Z</time>
      </trkpt>
      <trkpt lat="44.62898" lon="-0.17478">
        <ele>70.9</ele>
        <time>2022-07-26T08:36:58Z</time>
      </trkpt>
      <trkpt lat="44.62897" lon="-0.17478">
        <ele>70.9</ele>
        <time>2022-07-26T08:36:59Z</time>
      </trkpt>
      <trkpt lat="44.62896" lon="-0.17477">
        <ele>71</ele>
        <time>2022-07-26T08:37:00Z</time>
      </trkpt>
      <trkpt lat="44.62894" lon="-0.17475">
        <ele>71</ele>
        <time>2022-07-26T08:37:02Z</time>
      </trkpt>
      <trkpt lat="44.62893" lon="-0.17474">
        <ele>71.1</ele>
        <time>2022-07-26T08:37:03Z</time>
      </trkpt>
      <trkpt lat="44.62892" lon="-0.17473">
        <ele>71.2</ele>
        <time>2022-07-26T08:37:04Z</time>
      </trkpt>
      <trkpt lat="44.62891" lon="-0.17472">
        <ele>71.2</ele>
        <time>2022-07-26T08:37:05Z</time>
      </trkpt>
      <trkpt lat="44.6289" lon="-0.17472">
        <ele>71.2</ele>
        <time>2022-07-26T08:37:06Z</time>
      </trkpt>
      <trkpt lat="44.62889" lon="-0.17471">
        <ele>71.3</ele>
        <time>2022-07-26T08:37:07Z</time>
      </trkpt>
      <trkpt lat="44.62888" lon="-0.17469">
        <ele>71.4</ele>
        <time>2022-07-26T08:37:08Z</time>
      </trkpt>
      <trkpt lat="44.62886" lon="-0.17468">
        <ele>71.4</ele>
        <time>2022-07-26T08:37:09Z</time>
      </trkpt>
      <trkpt lat="44.62884" lon="-0.17468">
        <ele>71.5</ele>
        <time>2022-07-26T08:37:10Z</time>
      </trkpt>
      <trkpt lat="44.62883" lon="-0.17466">
        <ele>71.6</ele>
        <time>2022-07-26T08:37:11Z</time>
      </trkpt>
      <trkpt lat="44.62882" lon="-0.17465">
        <ele>71.6</ele>
        <time>2022-07-26T08:37:12Z</time>
      </trkpt>
      <trkpt lat="44.62881" lon="-0.17465">
        <ele>71.6</ele>
        <time>2022-07-26T08:37:13Z</time>
      </trkpt>
      <trkpt lat="44.6288" lon="-0.17463">
        <ele>71.7</ele>
        <time>2022-07-26T08:37:14Z</time>
      </trkpt>
      <trkpt lat="44.62878" lon="-0.17462">
        <ele>71.8</ele>
        <time>2022-07-26T08:37:15Z</time>
      </trkpt>
      <trkpt lat="44.62877" lon="-0.17461">
        <ele>71.8</ele>
        <time>2022-07-26T08:37:16Z</time>
      </trkpt>
      <trkpt lat="44.62875" lon="-0.1746">
        <ele>71.9</ele>
        <time>2022-07-26T08:37:17Z</time>
      </trkpt>
      <trkpt lat="44.62873" lon="-0.17459">
        <ele>72</ele>
        <time>2022-07-26T08:37:18Z</time>
      </trkpt>
      <trkpt lat="44.62873" lon="-0.17458">
        <ele>72</ele>
        <time>2022-07-26T08:37:19Z</time>
      </trkpt>
      <trkpt lat="44.62872" lon="-0.17458">
        <ele>71.9</ele>
        <time>2022-07-26T08:37:20Z</time>
      </trkpt>
      <trkpt lat="44.6287" lon="-0.17457">
        <ele>71.9</ele>
        <time>2022-07-26T08:37:22Z</time>
      </trkpt>
      <trkpt lat="44.62869" lon="-0.17456">
        <ele>71.8</ele>
        <time>2022-07-26T08:37:23Z</time>
      </trkpt>
      <trkpt lat="44.62868" lon="-0.17456">
        <ele>71.8</ele>
        <time>2022-07-26T08:37:24Z</time>
      </trkpt>
      <trkpt lat="44.62867" lon="-0.17455">
        <ele>71.8</ele>
        <time>2022-07-26T08:37:25Z</time>
      </trkpt>
      <trkpt lat="44.62865" lon="-0.17455">
        <ele>71.7</ele>
        <time>2022-07-26T08:37:26Z</time>
      </trkpt>
      <trkpt lat="44.62864" lon="-0.17459">
        <ele>71.6</ele>
        <time>2022-07-26T08:37:27Z</time>
      </trkpt>
      <trkpt lat="44.62865" lon="-0.17459">
        <ele>71.6</ele>
        <time>2022-07-26T08:37:28Z</time>
      </trkpt>
      <trkpt lat="44.62865" lon="-0.1746">
        <ele>71.6</ele>
        <time>2022-07-26T08:37:29Z</time>
      </trkpt>
      <trkpt lat="44.62866" lon="-0.1746">
        <ele>71.6</ele>
        <time>2022-07-26T08:37:30Z</time>
      </trkpt>
      <trkpt lat="44.62869" lon="-0.17461">
        <ele>71.5</ele>
        <time>2022-07-26T08:37:31Z</time>
      </trkpt>
      <trkpt lat="44.6287" lon="-0.1746">
        <ele>71.4</ele>
        <time>2022-07-26T08:37:32Z</time>
      </trkpt>
      <trkpt lat="44.62871" lon="-0.1746">
        <ele>71.4</ele>
        <time>2022-07-26T08:37:33Z</time>
      </trkpt>
      <trkpt lat="44.62873" lon="-0.17459">
        <ele>71.3</ele>
        <time>2022-07-26T08:37:34Z</time>
      </trkpt>
      <trkpt lat="44.62876" lon="-0.17457">
        <ele>71.1</ele>
        <time>2022-07-26T08:37:35Z</time>
      </trkpt>
      <trkpt lat="44.62877" lon="-0.17457">
        <ele>71.1</ele>
        <time>2022-07-26T08:37:36Z</time>
      </trkpt>
      <trkpt lat="44.62879" lon="-0.17454">
        <ele>70.9</ele>
        <time>2022-07-26T08:37:37Z</time>
      </trkpt>
      <trkpt lat="44.62879" lon="-0.17453">
        <ele>70.9</ele>
        <time>2022-07-26T08:37:38Z</time>
      </trkpt>
      <trkpt lat="44.62881" lon="-0.17451">
        <ele>70.7</ele>
        <time>2022-07-26T08:37:40Z</time>
      </trkpt>
      <trkpt lat="44.62882" lon="-0.1745">
        <ele>70.6</ele>
        <time>2022-07-26T08:37:41Z</time>
      </trkpt>
      <trkpt lat="44.62883" lon="-0.17448">
        <ele>70.5</ele>
        <time>2022-07-26T08:37:42Z</time>
      </trkpt>
      <trkpt lat="44.62885" lon="-0.17446">
        <ele>70.4</ele>
        <time>2022-07-26T08:37:43Z</time>
      </trkpt>
      <trkpt lat="44.62886" lon="-0.17445">
        <ele>70.3</ele>
        <time>2022-07-26T08:37:44Z</time>
      </trkpt>
      <trkpt lat="44.62887" lon="-0.17443">
        <ele>70.2</ele>
        <time>2022-07-26T08:37:45Z</time>
      </trkpt>
      <trkpt lat="44.62888" lon="-0.17441">
        <ele>70.1</ele>
        <time>2022-07-26T08:37:46Z</time>
      </trkpt>
      <trkpt lat="44.62889" lon="-0.1744">
        <ele>70</ele>
        <time>2022-07-26T08:37:47Z</time>
      </trkpt>
      <trkpt lat="44.6289" lon="-0.17439">
        <ele>69.9</ele>
        <time>2022-07-26T08:37:48Z</time>
      </trkpt>
      <trkpt lat="44.62892" lon="-0.17437">
        <ele>69.8</ele>
        <time>2022-07-26T08:37:50Z</time>
      </trkpt>
      <trkpt lat="44.62893" lon="-0.17435">
        <ele>69.7</ele>
        <time>2022-07-26T08:37:51Z</time>
      </trkpt>
      <trkpt lat="44.62894" lon="-0.17434">
        <ele>69.6</ele>
        <time>2022-07-26T08:37:52Z</time>
      </trkpt>
      <trkpt lat="44.62895" lon="-0.17432">
        <ele>69.4</ele>
        <time>2022-07-26T08:37:53Z</time>
      </trkpt>
      <trkpt lat="44.62896" lon="-0.17431">
        <ele>69.4</ele>
        <time>2022-07-26T08:37:54Z</time>
      </trkpt>
      <trkpt lat="44.62897" lon="-0.1743">
        <ele>69.3</ele>
        <time>2022-07-26T08:37:55Z</time>
      </trkpt>
      <trkpt lat="44.62898" lon="-0.17429">
        <ele>69.2</ele>
        <time>2022-07-26T08:37:56Z</time>
      </trkpt>
      <trkpt lat="44.62899" lon="-0.17427">
        <ele>69.1</ele>
        <time>2022-07-26T08:37:58Z</time>
      </trkpt>
      <trkpt lat="44.629" lon="-0.17425">
        <ele>69</ele>
        <time>2022-07-26T08:37:59Z</time>
      </trkpt>
      <trkpt lat="44.62902" lon="-0.17423">
        <ele>68.9</ele>
        <time>2022-07-26T08:38:00Z</time>
      </trkpt>
      <trkpt lat="44.62902" lon="-0.17422">
        <ele>68.8</ele>
        <time>2022-07-26T08:38:01Z</time>
      </trkpt>
      <trkpt lat="44.62903" lon="-0.17421">
        <ele>68.8</ele>
        <time>2022-07-26T08:38:02Z</time>
      </trkpt>
      <trkpt lat="44.62904" lon="-0.1742">
        <ele>68.7</ele>
        <time>2022-07-26T08:38:03Z</time>
      </trkpt>
      <trkpt lat="44.62905" lon="-0.17418">
        <ele>68.6</ele>
        <time>2022-07-26T08:38:04Z</time>
      </trkpt>
      <trkpt lat="44.62907" lon="-0.17416">
        <ele>68.5</ele>
        <time>2022-07-26T08:38:05Z</time>
      </trkpt>
      <trkpt lat="44.62907" lon="-0.17415">
        <ele>68.5</ele>
        <time>2022-07-26T08:38:07Z</time>
      </trkpt>
      <trkpt lat="44.62908" lon="-0.17414">
        <ele>68.4</ele>
        <time>2022-07-26T08:38:08Z</time>
      </trkpt>
      <trkpt lat="44.62909" lon="-0.17413">
        <ele>68.4</ele>
        <time>2022-07-26T08:38:09Z</time>
      </trkpt>
      <trkpt lat="44.6291" lon="-0.17412">
        <ele>68.3</ele>
        <time>2022-07-26T08:38:10Z</time>
      </trkpt>
      <trkpt lat="44.62912" lon="-0.17409">
        <ele>68.2</ele>
        <time>2022-07-26T08:38:11Z</time>
      </trkpt>
      <trkpt lat="44.62912" lon="-0.17407">
        <ele>68.1</ele>
        <time>2022-07-26T08:38:12Z</time>
      </trkpt>
      <trkpt lat="44.62914" lon="-0.17405">
        <ele>68</ele>
        <time>2022-07-26T08:38:14Z</time>
      </trkpt>
      <trkpt lat="44.62914" lon="-0.17404">
        <ele>68</ele>
        <time>2022-07-26T08:38:15Z</time>
      </trkpt>
      <trkpt lat="44.62915" lon="-0.17403">
        <ele>68</ele>
        <time>2022-07-26T08:38:16Z</time>
      </trkpt>
      <trkpt lat="44.62916" lon="-0.17401">
        <ele>67.9</ele>
        <time>2022-07-26T08:38:17Z</time>
      </trkpt>
      <trkpt lat="44.62917" lon="-0.17399">
        <ele>67.8</ele>
        <time>2022-07-26T08:38:18Z</time>
      </trkpt>
      <trkpt lat="44.62918" lon="-0.17397">
        <ele>67.8</ele>
        <time>2022-07-26T08:38:19Z</time>
      </trkpt>
      <trkpt lat="44.62919" lon="-0.17396">
        <ele>67.8</ele>
        <time>2022-07-26T08:38:20Z</time>
      </trkpt>
      <trkpt lat="44.62919" lon="-0.17395">
        <ele>67.7</ele>
        <time>2022-07-26T08:38:21Z</time>
      </trkpt>
      <trkpt lat="44.6292" lon="-0.17394">
        <ele>67.7</ele>
        <time>2022-07-26T08:38:22Z</time>
      </trkpt>
      <trkpt lat="44.62922" lon="-0.17392">
        <ele>67.7</ele>
        <time>2022-07-26T08:38:24Z</time>
      </trkpt>
      <trkpt lat="44.62923" lon="-0.1739">
        <ele>67.6</ele>
        <time>2022-07-26T08:38:25Z</time>
      </trkpt>
      <trkpt lat="44.62923" lon="-0.17388">
        <ele>67.6</ele>
        <time>2022-07-26T08:38:26Z</time>
      </trkpt>
      <trkpt lat="44.62925" lon="-0.17385">
        <ele>67.5</ele>
        <time>2022-07-26T08:38:28Z</time>
      </trkpt>
      <trkpt lat="44.62926" lon="-0.17384">
        <ele>67.5</ele>
        <time>2022-07-26T08:38:29Z</time>
      </trkpt>
      <trkpt lat="44.62927" lon="-0.17383">
        <ele>67.5</ele>
        <time>2022-07-26T08:38:30Z</time>
      </trkpt>
      <trkpt lat="44.62928" lon="-0.17381">
        <ele>67.4</ele>
        <time>2022-07-26T08:38:31Z</time>
      </trkpt>
      <trkpt lat="44.62929" lon="-0.17379">
        <ele>67.4</ele>
        <time>2022-07-26T08:38:32Z</time>
      </trkpt>
      <trkpt lat="44.62929" lon="-0.17379">
        <ele>67.4</ele>
        <time>2022-07-26T08:38:33Z</time>
      </trkpt>
      <trkpt lat="44.6293" lon="-0.17378">
        <ele>67.4</ele>
        <time>2022-07-26T08:38:34Z</time>
      </trkpt>
      <trkpt lat="44.62931" lon="-0.17377">
        <ele>67.4</ele>
        <time>2022-07-26T08:38:35Z</time>
      </trkpt>
      <trkpt lat="44.62932" lon="-0.17376">
        <ele>67.4</ele>
        <time>2022-07-26T08:38:36Z</time>
      </trkpt>
      <trkpt lat="44.62934" lon="-0.17373">
        <ele>67.4</ele>
        <time>2022-07-26T08:38:37Z</time>
      </trkpt>
      <trkpt lat="44.62935" lon="-0.17372">
        <ele>67.4</ele>
        <time>2022-07-26T08:38:39Z</time>
      </trkpt>
      <trkpt lat="44.62936" lon="-0.17371">
        <ele>67.4</ele>
        <time>2022-07-26T08:38:40Z</time>
      </trkpt>
      <trkpt lat="44.62937" lon="-0.1737">
        <ele>67.4</ele>
        <time>2022-07-26T08:38:41Z</time>
      </trkpt>
      <trkpt lat="44.62938" lon="-0.17369">
        <ele>67.4</ele>
        <time>2022-07-26T08:38:42Z</time>
      </trkpt>
      <trkpt lat="44.62939" lon="-0.17367">
        <ele>67.4</ele>
        <time>2022-07-26T08:38:43Z</time>
      </trkpt>
      <trkpt lat="44.6294" lon="-0.17367">
        <ele>67.4</ele>
        <time>2022-07-26T08:38:44Z</time>
      </trkpt>
      <trkpt lat="44.62941" lon="-0.17365">
        <ele>67.4</ele>
        <time>2022-07-26T08:38:45Z</time>
      </trkpt>
      <trkpt lat="44.62942" lon="-0.17363">
        <ele>67.4</ele>
        <time>2022-07-26T08:38:46Z</time>
      </trkpt>
      <trkpt lat="44.62943" lon="-0.17362">
        <ele>67.4</ele>
        <time>2022-07-26T08:38:47Z</time>
      </trkpt>
      <trkpt lat="44.62944" lon="-0.17361">
        <ele>67.4</ele>
        <time>2022-07-26T08:38:48Z</time>
      </trkpt>
      <trkpt lat="44.62945" lon="-0.1736">
        <ele>67.4</ele>
        <time>2022-07-26T08:38:49Z</time>
      </trkpt>
      <trkpt lat="44.62945" lon="-0.17359">
        <ele>67.4</ele>
        <time>2022-07-26T08:38:50Z</time>
      </trkpt>
      <trkpt lat="44.62946" lon="-0.17358">
        <ele>67.3</ele>
        <time>2022-07-26T08:38:51Z</time>
      </trkpt>
      <trkpt lat="44.62947" lon="-0.17356">
        <ele>67.3</ele>
        <time>2022-07-26T08:38:52Z</time>
      </trkpt>
      <trkpt lat="44.62949" lon="-0.17354">
        <ele>67.3</ele>
        <time>2022-07-26T08:38:53Z</time>
      </trkpt>
      <trkpt lat="44.62949" lon="-0.17353">
        <ele>67.3</ele>
        <time>2022-07-26T08:38:54Z</time>
      </trkpt>
      <trkpt lat="44.6295" lon="-0.17352">
        <ele>67.3</ele>
        <time>2022-07-26T08:38:55Z</time>
      </trkpt>
      <trkpt lat="44.62951" lon="-0.17351">
        <ele>67.3</ele>
        <time>2022-07-26T08:38:56Z</time>
      </trkpt>
      <trkpt lat="44.62952" lon="-0.1735">
        <ele>67.3</ele>
        <time>2022-07-26T08:38:57Z</time>
      </trkpt>
      <trkpt lat="44.62953" lon="-0.17348">
        <ele>67.3</ele>
        <time>2022-07-26T08:38:58Z</time>
      </trkpt>
      <trkpt lat="44.62955" lon="-0.17347">
        <ele>67.3</ele>
        <time>2022-07-26T08:38:59Z</time>
      </trkpt>
      <trkpt lat="44.62956" lon="-0.17346">
        <ele>67.3</ele>
        <time>2022-07-26T08:39:01Z</time>
      </trkpt>
      <trkpt lat="44.62956" lon="-0.17345">
        <ele>67.4</ele>
        <time>2022-07-26T08:39:02Z</time>
      </trkpt>
      <trkpt lat="44.62958" lon="-0.17344">
        <ele>67.4</ele>
        <time>2022-07-26T08:39:03Z</time>
      </trkpt>
      <trkpt lat="44.62959" lon="-0.17343">
        <ele>67.4</ele>
        <time>2022-07-26T08:39:04Z</time>
      </trkpt>
      <trkpt lat="44.62961" lon="-0.17342">
        <ele>67.4</ele>
        <time>2022-07-26T08:39:05Z</time>
      </trkpt>
      <trkpt lat="44.62962" lon="-0.17341">
        <ele>67.4</ele>
        <time>2022-07-26T08:39:06Z</time>
      </trkpt>
      <trkpt lat="44.62963" lon="-0.1734">
        <ele>67.4</ele>
        <time>2022-07-26T08:39:07Z</time>
      </trkpt>
      <trkpt lat="44.62964" lon="-0.17339">
        <ele>67.4</ele>
        <time>2022-07-26T08:39:08Z</time>
      </trkpt>
      <trkpt lat="44.62966" lon="-0.17337">
        <ele>67.4</ele>
        <time>2022-07-26T08:39:10Z</time>
      </trkpt>
      <trkpt lat="44.62967" lon="-0.17336">
        <ele>67.4</ele>
        <time>2022-07-26T08:39:11Z</time>
      </trkpt>
      <trkpt lat="44.62968" lon="-0.17335">
        <ele>67.4</ele>
        <time>2022-07-26T08:39:12Z</time>
      </trkpt>
      <trkpt lat="44.62969" lon="-0.17333">
        <ele>67.4</ele>
        <time>2022-07-26T08:39:13Z</time>
      </trkpt>
      <trkpt lat="44.6297" lon="-0.17333">
        <ele>67.4</ele>
        <time>2022-07-26T08:39:14Z</time>
      </trkpt>
      <trkpt lat="44.62972" lon="-0.17332">
        <ele>67.4</ele>
        <time>2022-07-26T08:39:15Z</time>
      </trkpt>
      <trkpt lat="44.62973" lon="-0.17331">
        <ele>67.5</ele>
        <time>2022-07-26T08:39:16Z</time>
      </trkpt>
      <trkpt lat="44.62974" lon="-0.1733">
        <ele>67.5</ele>
        <time>2022-07-26T08:39:17Z</time>
      </trkpt>
      <trkpt lat="44.62976" lon="-0.17329">
        <ele>67.5</ele>
        <time>2022-07-26T08:39:18Z</time>
      </trkpt>
      <trkpt lat="44.62976" lon="-0.17328">
        <ele>67.5</ele>
        <time>2022-07-26T08:39:19Z</time>
      </trkpt>
      <trkpt lat="44.62977" lon="-0.17327">
        <ele>67.5</ele>
        <time>2022-07-26T08:39:20Z</time>
      </trkpt>
      <trkpt lat="44.62978" lon="-0.17326">
        <ele>67.5</ele>
        <time>2022-07-26T08:39:21Z</time>
      </trkpt>
      <trkpt lat="44.6298" lon="-0.17324">
        <ele>67.5</ele>
        <time>2022-07-26T08:39:23Z</time>
      </trkpt>
      <trkpt lat="44.62981" lon="-0.17323">
        <ele>67.5</ele>
        <time>2022-07-26T08:39:24Z</time>
      </trkpt>
      <trkpt lat="44.62982" lon="-0.17322">
        <ele>67.6</ele>
        <time>2022-07-26T08:39:25Z</time>
      </trkpt>
      <trkpt lat="44.62984" lon="-0.17321">
        <ele>67.6</ele>
        <time>2022-07-26T08:39:26Z</time>
      </trkpt>
      <trkpt lat="44.62985" lon="-0.1732">
        <ele>67.6</ele>
        <time>2022-07-26T08:39:27Z</time>
      </trkpt>
      <trkpt lat="44.62986" lon="-0.17319">
        <ele>67.6</ele>
        <time>2022-07-26T08:39:28Z</time>
      </trkpt>
      <trkpt lat="44.62987" lon="-0.17319">
        <ele>67.6</ele>
        <time>2022-07-26T08:39:29Z</time>
      </trkpt>
      <trkpt lat="44.62989" lon="-0.17317">
        <ele>67.6</ele>
        <time>2022-07-26T08:39:31Z</time>
      </trkpt>
      <trkpt lat="44.6299" lon="-0.17317">
        <ele>67.6</ele>
        <time>2022-07-26T08:39:32Z</time>
      </trkpt>
      <trkpt lat="44.62992" lon="-0.17316">
        <ele>67.6</ele>
        <time>2022-07-26T08:39:33Z</time>
      </trkpt>
      <trkpt lat="44.62993" lon="-0.17315">
        <ele>67.6</ele>
        <time>2022-07-26T08:39:34Z</time>
      </trkpt>
      <trkpt lat="44.62994" lon="-0.17314">
        <ele>67.6</ele>
        <time>2022-07-26T08:39:35Z</time>
      </trkpt>
      <trkpt lat="44.62995" lon="-0.17313">
        <ele>67.6</ele>
        <time>2022-07-26T08:39:36Z</time>
      </trkpt>
      <trkpt lat="44.62996" lon="-0.17312">
        <ele>67.6</ele>
        <time>2022-07-26T08:39:37Z</time>
      </trkpt>
      <trkpt lat="44.62998" lon="-0.17311">
        <ele>67.6</ele>
        <time>2022-07-26T08:39:38Z</time>
      </trkpt>
      <trkpt lat="44.62999" lon="-0.1731">
        <ele>67.6</ele>
        <time>2022-07-26T08:39:39Z</time>
      </trkpt>
      <trkpt lat="44.63" lon="-0.17309">
        <ele>67.6</ele>
        <time>2022-07-26T08:39:41Z</time>
      </trkpt>
      <trkpt lat="44.63001" lon="-0.17308">
        <ele>67.6</ele>
        <time>2022-07-26T08:39:42Z</time>
      </trkpt>
      <trkpt lat="44.63003" lon="-0.17307">
        <ele>67.6</ele>
        <time>2022-07-26T08:39:43Z</time>
      </trkpt>
      <trkpt lat="44.63003" lon="-0.17306">
        <ele>67.6</ele>
        <time>2022-07-26T08:39:44Z</time>
      </trkpt>
      <trkpt lat="44.63005" lon="-0.17305">
        <ele>67.6</ele>
        <time>2022-07-26T08:39:45Z</time>
      </trkpt>
      <trkpt lat="44.63006" lon="-0.17304">
        <ele>67.7</ele>
        <time>2022-07-26T08:39:47Z</time>
      </trkpt>
      <trkpt lat="44.63008" lon="-0.17302">
        <ele>67.7</ele>
        <time>2022-07-26T08:39:48Z</time>
      </trkpt>
      <trkpt lat="44.63009" lon="-0.17302">
        <ele>67.7</ele>
        <time>2022-07-26T08:39:49Z</time>
      </trkpt>
      <trkpt lat="44.63011" lon="-0.173">
        <ele>67.7</ele>
        <time>2022-07-26T08:39:51Z</time>
      </trkpt>
      <trkpt lat="44.63012" lon="-0.173">
        <ele>67.8</ele>
        <time>2022-07-26T08:39:52Z</time>
      </trkpt>
      <trkpt lat="44.63014" lon="-0.17298">
        <ele>67.8</ele>
        <time>2022-07-26T08:39:53Z</time>
      </trkpt>
      <trkpt lat="44.63014" lon="-0.17298">
        <ele>67.8</ele>
        <time>2022-07-26T08:39:54Z</time>
      </trkpt>
      <trkpt lat="44.63016" lon="-0.17296">
        <ele>67.8</ele>
        <time>2022-07-26T08:39:55Z</time>
      </trkpt>
      <trkpt lat="44.63017" lon="-0.17296">
        <ele>67.8</ele>
        <time>2022-07-26T08:39:56Z</time>
      </trkpt>
      <trkpt lat="44.63018" lon="-0.17295">
        <ele>67.9</ele>
        <time>2022-07-26T08:39:57Z</time>
      </trkpt>
      <trkpt lat="44.63019" lon="-0.17293">
        <ele>67.9</ele>
        <time>2022-07-26T08:39:58Z</time>
      </trkpt>
      <trkpt lat="44.6302" lon="-0.17292">
        <ele>67.9</ele>
        <time>2022-07-26T08:40:00Z</time>
      </trkpt>
      <trkpt lat="44.63021" lon="-0.17291">
        <ele>67.9</ele>
        <time>2022-07-26T08:40:01Z</time>
      </trkpt>
      <trkpt lat="44.63023" lon="-0.1729">
        <ele>67.9</ele>
        <time>2022-07-26T08:40:02Z</time>
      </trkpt>
      <trkpt lat="44.63025" lon="-0.17288">
        <ele>67.9</ele>
        <time>2022-07-26T08:40:03Z</time>
      </trkpt>
      <trkpt lat="44.63026" lon="-0.17288">
        <ele>67.9</ele>
        <time>2022-07-26T08:40:04Z</time>
      </trkpt>
      <trkpt lat="44.63027" lon="-0.17287">
        <ele>67.9</ele>
        <time>2022-07-26T08:40:05Z</time>
      </trkpt>
      <trkpt lat="44.63028" lon="-0.17286">
        <ele>67.9</ele>
        <time>2022-07-26T08:40:06Z</time>
      </trkpt>
      <trkpt lat="44.6303" lon="-0.17285">
        <ele>67.9</ele>
        <time>2022-07-26T08:40:07Z</time>
      </trkpt>
      <trkpt lat="44.63033" lon="-0.17283">
        <ele>67.9</ele>
        <time>2022-07-26T08:40:09Z</time>
      </trkpt>
      <trkpt lat="44.63034" lon="-0.17283">
        <ele>67.9</ele>
        <time>2022-07-26T08:40:10Z</time>
      </trkpt>
      <trkpt lat="44.63035" lon="-0.17281">
        <ele>67.9</ele>
        <time>2022-07-26T08:40:11Z</time>
      </trkpt>
      <trkpt lat="44.63036" lon="-0.1728">
        <ele>67.9</ele>
        <time>2022-07-26T08:40:12Z</time>
      </trkpt>
      <trkpt lat="44.63039" lon="-0.17279">
        <ele>67.9</ele>
        <time>2022-07-26T08:40:14Z</time>
      </trkpt>
      <trkpt lat="44.6304" lon="-0.17278">
        <ele>67.9</ele>
        <time>2022-07-26T08:40:15Z</time>
      </trkpt>
      <trkpt lat="44.63041" lon="-0.17277">
        <ele>67.9</ele>
        <time>2022-07-26T08:40:16Z</time>
      </trkpt>
      <trkpt lat="44.63042" lon="-0.17276">
        <ele>67.9</ele>
        <time>2022-07-26T08:40:17Z</time>
      </trkpt>
      <trkpt lat="44.63044" lon="-0.17274">
        <ele>67.9</ele>
        <time>2022-07-26T08:40:18Z</time>
      </trkpt>
      <trkpt lat="44.63044" lon="-0.17273">
        <ele>67.9</ele>
        <time>2022-07-26T08:40:19Z</time>
      </trkpt>
      <trkpt lat="44.63046" lon="-0.17271">
        <ele>67.9</ele>
        <time>2022-07-26T08:40:20Z</time>
      </trkpt>
      <trkpt lat="44.63046" lon="-0.17271">
        <ele>67.9</ele>
        <time>2022-07-26T08:40:21Z</time>
      </trkpt>
      <trkpt lat="44.63047" lon="-0.1727">
        <ele>67.9</ele>
        <time>2022-07-26T08:40:22Z</time>
      </trkpt>
      <trkpt lat="44.63049" lon="-0.17268">
        <ele>67.9</ele>
        <time>2022-07-26T08:40:23Z</time>
      </trkpt>
      <trkpt lat="44.6305" lon="-0.17267">
        <ele>67.9</ele>
        <time>2022-07-26T08:40:24Z</time>
      </trkpt>
      <trkpt lat="44.63052" lon="-0.17266">
        <ele>67.9</ele>
        <time>2022-07-26T08:40:26Z</time>
      </trkpt>
      <trkpt lat="44.63053" lon="-0.17266">
        <ele>67.8</ele>
        <time>2022-07-26T08:40:27Z</time>
      </trkpt>
      <trkpt lat="44.63054" lon="-0.17264">
        <ele>67.8</ele>
        <time>2022-07-26T08:40:28Z</time>
      </trkpt>
      <trkpt lat="44.63054" lon="-0.17262">
        <ele>67.8</ele>
        <time>2022-07-26T08:40:29Z</time>
      </trkpt>
      <trkpt lat="44.63053" lon="-0.1726">
        <ele>67.9</ele>
        <time>2022-07-26T08:40:30Z</time>
      </trkpt>
      <trkpt lat="44.63052" lon="-0.17258">
        <ele>67.9</ele>
        <time>2022-07-26T08:40:32Z</time>
      </trkpt>
      <trkpt lat="44.63051" lon="-0.17256">
        <ele>68</ele>
        <time>2022-07-26T08:40:33Z</time>
      </trkpt>
      <trkpt lat="44.6305" lon="-0.17254">
        <ele>68</ele>
        <time>2022-07-26T08:40:34Z</time>
      </trkpt>
      <trkpt lat="44.63049" lon="-0.17253">
        <ele>68</ele>
        <time>2022-07-26T08:40:35Z</time>
      </trkpt>
      <trkpt lat="44.63048" lon="-0.1725">
        <ele>68.2</ele>
        <time>2022-07-26T08:40:37Z</time>
      </trkpt>
      <trkpt lat="44.63047" lon="-0.17249">
        <ele>68.2</ele>
        <time>2022-07-26T08:40:38Z</time>
      </trkpt>
      <trkpt lat="44.63046" lon="-0.17248">
        <ele>68.2</ele>
        <time>2022-07-26T08:40:39Z</time>
      </trkpt>
      <trkpt lat="44.63044" lon="-0.17246">
        <ele>68.3</ele>
        <time>2022-07-26T08:40:40Z</time>
      </trkpt>
      <trkpt lat="44.63043" lon="-0.17245">
        <ele>68.3</ele>
        <time>2022-07-26T08:40:42Z</time>
      </trkpt>
      <trkpt lat="44.63042" lon="-0.17243">
        <ele>68.5</ele>
        <time>2022-07-26T08:40:43Z</time>
      </trkpt>
      <trkpt lat="44.63041" lon="-0.17242">
        <ele>68.5</ele>
        <time>2022-07-26T08:40:44Z</time>
      </trkpt>
      <trkpt lat="44.6304" lon="-0.1724">
        <ele>68.6</ele>
        <time>2022-07-26T08:40:45Z</time>
      </trkpt>
      <trkpt lat="44.63039" lon="-0.17239">
        <ele>68.7</ele>
        <time>2022-07-26T08:40:46Z</time>
      </trkpt>
      <trkpt lat="44.63038" lon="-0.17238">
        <ele>68.7</ele>
        <time>2022-07-26T08:40:47Z</time>
      </trkpt>
      <trkpt lat="44.63037" lon="-0.17237">
        <ele>68.7</ele>
        <time>2022-07-26T08:40:48Z</time>
      </trkpt>
      <trkpt lat="44.63036" lon="-0.17235">
        <ele>68.8</ele>
        <time>2022-07-26T08:40:49Z</time>
      </trkpt>
      <trkpt lat="44.63035" lon="-0.17234">
        <ele>68.9</ele>
        <time>2022-07-26T08:40:50Z</time>
      </trkpt>
      <trkpt lat="44.63034" lon="-0.17232">
        <ele>68.9</ele>
        <time>2022-07-26T08:40:51Z</time>
      </trkpt>
      <trkpt lat="44.63033" lon="-0.17231">
        <ele>69</ele>
        <time>2022-07-26T08:40:52Z</time>
      </trkpt>
      <trkpt lat="44.63033" lon="-0.1723">
        <ele>69.1</ele>
        <time>2022-07-26T08:40:53Z</time>
      </trkpt>
      <trkpt lat="44.63032" lon="-0.17229">
        <ele>69.1</ele>
        <time>2022-07-26T08:40:54Z</time>
      </trkpt>
      <trkpt lat="44.63031" lon="-0.17227">
        <ele>69.1</ele>
        <time>2022-07-26T08:40:55Z</time>
      </trkpt>
      <trkpt lat="44.6303" lon="-0.17226">
        <ele>69.3</ele>
        <time>2022-07-26T08:40:56Z</time>
      </trkpt>
      <trkpt lat="44.6303" lon="-0.17225">
        <ele>69.3</ele>
        <time>2022-07-26T08:40:57Z</time>
      </trkpt>
      <trkpt lat="44.63029" lon="-0.17223">
        <ele>69.3</ele>
        <time>2022-07-26T08:40:58Z</time>
      </trkpt>
      <trkpt lat="44.63028" lon="-0.17222">
        <ele>69.3</ele>
        <time>2022-07-26T08:40:59Z</time>
      </trkpt>
      <trkpt lat="44.63027" lon="-0.1722">
        <ele>69.5</ele>
        <time>2022-07-26T08:41:00Z</time>
      </trkpt>
      <trkpt lat="44.63027" lon="-0.17219">
        <ele>69.5</ele>
        <time>2022-07-26T08:41:01Z</time>
      </trkpt>
      <trkpt lat="44.63026" lon="-0.17218">
        <ele>69.6</ele>
        <time>2022-07-26T08:41:02Z</time>
      </trkpt>
      <trkpt lat="44.63025" lon="-0.17216">
        <ele>69.7</ele>
        <time>2022-07-26T08:41:03Z</time>
      </trkpt>
      <trkpt lat="44.63023" lon="-0.17213">
        <ele>69.9</ele>
        <time>2022-07-26T08:41:05Z</time>
      </trkpt>
      <trkpt lat="44.63023" lon="-0.17212">
        <ele>69.9</ele>
        <time>2022-07-26T08:41:06Z</time>
      </trkpt>
      <trkpt lat="44.63021" lon="-0.17211">
        <ele>69.9</ele>
        <time>2022-07-26T08:41:07Z</time>
      </trkpt>
      <trkpt lat="44.6302" lon="-0.17209">
        <ele>70.1</ele>
        <time>2022-07-26T08:41:09Z</time>
      </trkpt>
      <trkpt lat="44.63018" lon="-0.17207">
        <ele>70.2</ele>
        <time>2022-07-26T08:41:10Z</time>
      </trkpt>
      <trkpt lat="44.63018" lon="-0.17206">
        <ele>70.2</ele>
        <time>2022-07-26T08:41:11Z</time>
      </trkpt>
      <trkpt lat="44.63017" lon="-0.17204">
        <ele>70.4</ele>
        <time>2022-07-26T08:41:12Z</time>
      </trkpt>
      <trkpt lat="44.63015" lon="-0.17202">
        <ele>70.4</ele>
        <time>2022-07-26T08:41:14Z</time>
      </trkpt>
      <trkpt lat="44.63014" lon="-0.172">
        <ele>70.6</ele>
        <time>2022-07-26T08:41:15Z</time>
      </trkpt>
      <trkpt lat="44.63013" lon="-0.17199">
        <ele>70.6</ele>
        <time>2022-07-26T08:41:16Z</time>
      </trkpt>
      <trkpt lat="44.63012" lon="-0.17198">
        <ele>70.7</ele>
        <time>2022-07-26T08:41:17Z</time>
      </trkpt>
      <trkpt lat="44.63011" lon="-0.17197">
        <ele>70.7</ele>
        <time>2022-07-26T08:41:18Z</time>
      </trkpt>
      <trkpt lat="44.63009" lon="-0.17194">
        <ele>70.8</ele>
        <time>2022-07-26T08:41:20Z</time>
      </trkpt>
      <trkpt lat="44.63008" lon="-0.17193">
        <ele>71</ele>
        <time>2022-07-26T08:41:21Z</time>
      </trkpt>
      <trkpt lat="44.63008" lon="-0.17192">
        <ele>71.1</ele>
        <time>2022-07-26T08:41:22Z</time>
      </trkpt>
      <trkpt lat="44.63006" lon="-0.17189">
        <ele>71.2</ele>
        <time>2022-07-26T08:41:24Z</time>
      </trkpt>
      <trkpt lat="44.63004" lon="-0.17187">
        <ele>71.3</ele>
        <time>2022-07-26T08:41:25Z</time>
      </trkpt>
      <trkpt lat="44.63004" lon="-0.17186">
        <ele>71.3</ele>
        <time>2022-07-26T08:41:26Z</time>
      </trkpt>
      <trkpt lat="44.63002" lon="-0.17184">
        <ele>71.4</ele>
        <time>2022-07-26T08:41:27Z</time>
      </trkpt>
      <trkpt lat="44.63002" lon="-0.17183">
        <ele>71.4</ele>
        <time>2022-07-26T08:41:28Z</time>
      </trkpt>
      <trkpt lat="44.63001" lon="-0.17182">
        <ele>71.5</ele>
        <time>2022-07-26T08:41:29Z</time>
      </trkpt>
      <trkpt lat="44.62999" lon="-0.17179">
        <ele>71.6</ele>
        <time>2022-07-26T08:41:30Z</time>
      </trkpt>
      <trkpt lat="44.62998" lon="-0.17178">
        <ele>71.7</ele>
        <time>2022-07-26T08:41:32Z</time>
      </trkpt>
      <trkpt lat="44.62997" lon="-0.17177">
        <ele>71.8</ele>
        <time>2022-07-26T08:41:33Z</time>
      </trkpt>
      <trkpt lat="44.62997" lon="-0.17176">
        <ele>71.9</ele>
        <time>2022-07-26T08:41:34Z</time>
      </trkpt>
      <trkpt lat="44.62996" lon="-0.17174">
        <ele>72</ele>
        <time>2022-07-26T08:41:35Z</time>
      </trkpt>
      <trkpt lat="44.62995" lon="-0.17173">
        <ele>72</ele>
        <time>2022-07-26T08:41:36Z</time>
      </trkpt>
      <trkpt lat="44.62995" lon="-0.17172">
        <ele>72</ele>
        <time>2022-07-26T08:41:37Z</time>
      </trkpt>
      <trkpt lat="44.62994" lon="-0.17171">
        <ele>72.1</ele>
        <time>2022-07-26T08:41:38Z</time>
      </trkpt>
      <trkpt lat="44.62993" lon="-0.17169">
        <ele>72.2</ele>
        <time>2022-07-26T08:41:39Z</time>
      </trkpt>
      <trkpt lat="44.62992" lon="-0.17167">
        <ele>72.2</ele>
        <time>2022-07-26T08:41:40Z</time>
      </trkpt>
      <trkpt lat="44.62991" lon="-0.17166">
        <ele>72.4</ele>
        <time>2022-07-26T08:41:41Z</time>
      </trkpt>
      <trkpt lat="44.6299" lon="-0.17165">
        <ele>72.4</ele>
        <time>2022-07-26T08:41:42Z</time>
      </trkpt>
      <trkpt lat="44.62988" lon="-0.17163">
        <ele>72.4</ele>
        <time>2022-07-26T08:41:44Z</time>
      </trkpt>
      <trkpt lat="44.62987" lon="-0.17161">
        <ele>72.6</ele>
        <time>2022-07-26T08:41:45Z</time>
      </trkpt>
      <trkpt lat="44.62986" lon="-0.1716">
        <ele>72.6</ele>
        <time>2022-07-26T08:41:46Z</time>
      </trkpt>
      <trkpt lat="44.62985" lon="-0.17159">
        <ele>72.6</ele>
        <time>2022-07-26T08:41:47Z</time>
      </trkpt>
      <trkpt lat="44.62984" lon="-0.17158">
        <ele>72.7</ele>
        <time>2022-07-26T08:41:48Z</time>
      </trkpt>
      <trkpt lat="44.62982" lon="-0.17154">
        <ele>72.8</ele>
        <time>2022-07-26T08:41:50Z</time>
      </trkpt>
      <trkpt lat="44.62981" lon="-0.17153">
        <ele>72.9</ele>
        <time>2022-07-26T08:41:52Z</time>
      </trkpt>
      <trkpt lat="44.6298" lon="-0.17151">
        <ele>72.9</ele>
        <time>2022-07-26T08:41:53Z</time>
      </trkpt>
      <trkpt lat="44.62979" lon="-0.1715">
        <ele>72.9</ele>
        <time>2022-07-26T08:41:54Z</time>
      </trkpt>
      <trkpt lat="44.62978" lon="-0.17147">
        <ele>73.1</ele>
        <time>2022-07-26T08:41:55Z</time>
      </trkpt>
      <trkpt lat="44.62977" lon="-0.17146">
        <ele>73.1</ele>
        <time>2022-07-26T08:41:56Z</time>
      </trkpt>
      <trkpt lat="44.62977" lon="-0.17145">
        <ele>73.1</ele>
        <time>2022-07-26T08:41:57Z</time>
      </trkpt>
      <trkpt lat="44.62976" lon="-0.17144">
        <ele>73.2</ele>
        <time>2022-07-26T08:41:58Z</time>
      </trkpt>
      <trkpt lat="44.62975" lon="-0.17143">
        <ele>73.2</ele>
        <time>2022-07-26T08:41:59Z</time>
      </trkpt>
      <trkpt lat="44.62973" lon="-0.1714">
        <ele>73.3</ele>
        <time>2022-07-26T08:42:00Z</time>
      </trkpt>
      <trkpt lat="44.62973" lon="-0.1714">
        <ele>73.3</ele>
        <time>2022-07-26T08:42:01Z</time>
      </trkpt>
      <trkpt lat="44.62972" lon="-0.17138">
        <ele>73.4</ele>
        <time>2022-07-26T08:42:02Z</time>
      </trkpt>
      <trkpt lat="44.62971" lon="-0.17137">
        <ele>73.4</ele>
        <time>2022-07-26T08:42:04Z</time>
      </trkpt>
      <trkpt lat="44.6297" lon="-0.17134">
        <ele>73.5</ele>
        <time>2022-07-26T08:42:05Z</time>
      </trkpt>
      <trkpt lat="44.62969" lon="-0.17133">
        <ele>73.6</ele>
        <time>2022-07-26T08:42:06Z</time>
      </trkpt>
      <trkpt lat="44.62968" lon="-0.17132">
        <ele>73.6</ele>
        <time>2022-07-26T08:42:07Z</time>
      </trkpt>
      <trkpt lat="44.62967" lon="-0.1713">
        <ele>73.6</ele>
        <time>2022-07-26T08:42:08Z</time>
      </trkpt>
      <trkpt lat="44.62965" lon="-0.17128">
        <ele>73.7</ele>
        <time>2022-07-26T08:42:10Z</time>
      </trkpt>
      <trkpt lat="44.62964" lon="-0.17126">
        <ele>73.8</ele>
        <time>2022-07-26T08:42:11Z</time>
      </trkpt>
      <trkpt lat="44.62963" lon="-0.17125">
        <ele>73.8</ele>
        <time>2022-07-26T08:42:12Z</time>
      </trkpt>
      <trkpt lat="44.62962" lon="-0.17124">
        <ele>73.8</ele>
        <time>2022-07-26T08:42:13Z</time>
      </trkpt>
      <trkpt lat="44.62961" lon="-0.17121">
        <ele>73.9</ele>
        <time>2022-07-26T08:42:15Z</time>
      </trkpt>
      <trkpt lat="44.62959" lon="-0.17119">
        <ele>74</ele>
        <time>2022-07-26T08:42:16Z</time>
      </trkpt>
      <trkpt lat="44.62959" lon="-0.17118">
        <ele>74</ele>
        <time>2022-07-26T08:42:17Z</time>
      </trkpt>
      <trkpt lat="44.62958" lon="-0.17117">
        <ele>74</ele>
        <time>2022-07-26T08:42:18Z</time>
      </trkpt>
      <trkpt lat="44.62957" lon="-0.17115">
        <ele>74.1</ele>
        <time>2022-07-26T08:42:19Z</time>
      </trkpt>
      <trkpt lat="44.62956" lon="-0.17113">
        <ele>74.1</ele>
        <time>2022-07-26T08:42:20Z</time>
      </trkpt>
      <trkpt lat="44.62955" lon="-0.17112">
        <ele>74.2</ele>
        <time>2022-07-26T08:42:21Z</time>
      </trkpt>
      <trkpt lat="44.62954" lon="-0.1711">
        <ele>74.3</ele>
        <time>2022-07-26T08:42:23Z</time>
      </trkpt>
      <trkpt lat="44.62952" lon="-0.17108">
        <ele>74.3</ele>
        <time>2022-07-26T08:42:24Z</time>
      </trkpt>
      <trkpt lat="44.62951" lon="-0.17107">
        <ele>74.3</ele>
        <time>2022-07-26T08:42:26Z</time>
      </trkpt>
      <trkpt lat="44.6295" lon="-0.17106">
        <ele>74.4</ele>
        <time>2022-07-26T08:42:27Z</time>
      </trkpt>
      <trkpt lat="44.62949" lon="-0.17104">
        <ele>74.4</ele>
        <time>2022-07-26T08:42:28Z</time>
      </trkpt>
      <trkpt lat="44.62948" lon="-0.17103">
        <ele>74.4</ele>
        <time>2022-07-26T08:42:29Z</time>
      </trkpt>
      <trkpt lat="44.62946" lon="-0.17101">
        <ele>74.5</ele>
        <time>2022-07-26T08:42:30Z</time>
      </trkpt>
      <trkpt lat="44.62946" lon="-0.171">
        <ele>74.5</ele>
        <time>2022-07-26T08:42:31Z</time>
      </trkpt>
      <trkpt lat="44.62945" lon="-0.17099">
        <ele>74.5</ele>
        <time>2022-07-26T08:42:32Z</time>
      </trkpt>
      <trkpt lat="44.62944" lon="-0.17098">
        <ele>74.6</ele>
        <time>2022-07-26T08:42:33Z</time>
      </trkpt>
      <trkpt lat="44.62942" lon="-0.17096">
        <ele>74.6</ele>
        <time>2022-07-26T08:42:35Z</time>
      </trkpt>
      <trkpt lat="44.62942" lon="-0.17094">
        <ele>74.7</ele>
        <time>2022-07-26T08:42:36Z</time>
      </trkpt>
      <trkpt lat="44.62941" lon="-0.17093">
        <ele>74.7</ele>
        <time>2022-07-26T08:42:38Z</time>
      </trkpt>
      <trkpt lat="44.6294" lon="-0.17091">
        <ele>74.7</ele>
        <time>2022-07-26T08:42:39Z</time>
      </trkpt>
      <trkpt lat="44.62938" lon="-0.17088">
        <ele>74.8</ele>
        <time>2022-07-26T08:42:40Z</time>
      </trkpt>
      <trkpt lat="44.62938" lon="-0.17087">
        <ele>74.9</ele>
        <time>2022-07-26T08:42:41Z</time>
      </trkpt>
      <trkpt lat="44.62937" lon="-0.17086">
        <ele>74.9</ele>
        <time>2022-07-26T08:42:42Z</time>
      </trkpt>
      <trkpt lat="44.62936" lon="-0.17085">
        <ele>74.9</ele>
        <time>2022-07-26T08:42:43Z</time>
      </trkpt>
      <trkpt lat="44.62935" lon="-0.17083">
        <ele>75</ele>
        <time>2022-07-26T08:42:44Z</time>
      </trkpt>
      <trkpt lat="44.62933" lon="-0.1708">
        <ele>75</ele>
        <time>2022-07-26T08:42:45Z</time>
      </trkpt>
      <trkpt lat="44.62933" lon="-0.17079">
        <ele>75.1</ele>
        <time>2022-07-26T08:42:46Z</time>
      </trkpt>
      <trkpt lat="44.62932" lon="-0.17078">
        <ele>75.1</ele>
        <time>2022-07-26T08:42:47Z</time>
      </trkpt>
      <trkpt lat="44.62931" lon="-0.17077">
        <ele>75.1</ele>
        <time>2022-07-26T08:42:49Z</time>
      </trkpt>
      <trkpt lat="44.62929" lon="-0.17072">
        <ele>75.2</ele>
        <time>2022-07-26T08:42:51Z</time>
      </trkpt>
      <trkpt lat="44.62928" lon="-0.17071">
        <ele>75.3</ele>
        <time>2022-07-26T08:42:52Z</time>
      </trkpt>
      <trkpt lat="44.62927" lon="-0.1707">
        <ele>75.3</ele>
        <time>2022-07-26T08:42:53Z</time>
      </trkpt>
      <trkpt lat="44.62927" lon="-0.17069">
        <ele>75.3</ele>
        <time>2022-07-26T08:42:54Z</time>
      </trkpt>
      <trkpt lat="44.62926" lon="-0.17068">
        <ele>75.4</ele>
        <time>2022-07-26T08:42:55Z</time>
      </trkpt>
      <trkpt lat="44.62925" lon="-0.17066">
        <ele>75.5</ele>
        <time>2022-07-26T08:42:56Z</time>
      </trkpt>
      <trkpt lat="44.62924" lon="-0.17065">
        <ele>75.5</ele>
        <time>2022-07-26T08:42:57Z</time>
      </trkpt>
      <trkpt lat="44.62923" lon="-0.17064">
        <ele>75.5</ele>
        <time>2022-07-26T08:42:58Z</time>
      </trkpt>
      <trkpt lat="44.62922" lon="-0.17063">
        <ele>75.6</ele>
        <time>2022-07-26T08:42:59Z</time>
      </trkpt>
      <trkpt lat="44.62921" lon="-0.17061">
        <ele>75.6</ele>
        <time>2022-07-26T08:43:00Z</time>
      </trkpt>
      <trkpt lat="44.6292" lon="-0.1706">
        <ele>75.7</ele>
        <time>2022-07-26T08:43:01Z</time>
      </trkpt>
      <trkpt lat="44.62919" lon="-0.17059">
        <ele>75.8</ele>
        <time>2022-07-26T08:43:02Z</time>
      </trkpt>
      <trkpt lat="44.62919" lon="-0.17057">
        <ele>75.8</ele>
        <time>2022-07-26T08:43:03Z</time>
      </trkpt>
      <trkpt lat="44.62917" lon="-0.17056">
        <ele>75.9</ele>
        <time>2022-07-26T08:43:05Z</time>
      </trkpt>
      <trkpt lat="44.62916" lon="-0.17054">
        <ele>76</ele>
        <time>2022-07-26T08:43:06Z</time>
      </trkpt>
      <trkpt lat="44.62916" lon="-0.17053">
        <ele>76</ele>
        <time>2022-07-26T08:43:07Z</time>
      </trkpt>
      <trkpt lat="44.62914" lon="-0.17051">
        <ele>76.1</ele>
        <time>2022-07-26T08:43:08Z</time>
      </trkpt>
      <trkpt lat="44.62913" lon="-0.17049">
        <ele>76.1</ele>
        <time>2022-07-26T08:43:09Z</time>
      </trkpt>
      <trkpt lat="44.62913" lon="-0.17048">
        <ele>76.2</ele>
        <time>2022-07-26T08:43:10Z</time>
      </trkpt>
      <trkpt lat="44.62912" lon="-0.17047">
        <ele>76.2</ele>
        <time>2022-07-26T08:43:12Z</time>
      </trkpt>
      <trkpt lat="44.62911" lon="-0.17046">
        <ele>76.3</ele>
        <time>2022-07-26T08:43:13Z</time>
      </trkpt>
      <trkpt lat="44.6291" lon="-0.17045">
        <ele>76.4</ele>
        <time>2022-07-26T08:43:14Z</time>
      </trkpt>
      <trkpt lat="44.62909" lon="-0.17043">
        <ele>76.4</ele>
        <time>2022-07-26T08:43:15Z</time>
      </trkpt>
      <trkpt lat="44.62908" lon="-0.17041">
        <ele>76.5</ele>
        <time>2022-07-26T08:43:17Z</time>
      </trkpt>
      <trkpt lat="44.62907" lon="-0.1704">
        <ele>76.6</ele>
        <time>2022-07-26T08:43:18Z</time>
      </trkpt>
      <trkpt lat="44.62908" lon="-0.17038">
        <ele>76.6</ele>
        <time>2022-07-26T08:43:19Z</time>
      </trkpt>
      <trkpt lat="44.62908" lon="-0.17035">
        <ele>76.7</ele>
        <time>2022-07-26T08:43:21Z</time>
      </trkpt>
      <trkpt lat="44.62909" lon="-0.17034">
        <ele>76.6</ele>
        <time>2022-07-26T08:43:22Z</time>
      </trkpt>
      <trkpt lat="44.62908" lon="-0.17034">
        <ele>76.7</ele>
        <time>2022-07-26T08:43:23Z</time>
      </trkpt>
      <trkpt lat="44.62908" lon="-0.17033">
        <ele>76.8</ele>
        <time>2022-07-26T08:43:24Z</time>
      </trkpt>
      <trkpt lat="44.62907" lon="-0.17033">
        <ele>76.8</ele>
        <time>2022-07-26T08:43:25Z</time>
      </trkpt>
      <trkpt lat="44.62907" lon="-0.17032">
        <ele>76.8</ele>
        <time>2022-07-26T08:43:26Z</time>
      </trkpt>
      <trkpt lat="44.62906" lon="-0.17032">
        <ele>76.8</ele>
        <time>2022-07-26T08:43:27Z</time>
      </trkpt>
      <trkpt lat="44.62906" lon="-0.17034">
        <ele>76.7</ele>
        <time>2022-07-26T08:43:28Z</time>
      </trkpt>
      <trkpt lat="44.62905" lon="-0.17037">
        <ele>76.8</ele>
        <time>2022-07-26T08:43:29Z</time>
      </trkpt>
      <trkpt lat="44.62905" lon="-0.17037">
        <ele>76.9</ele>
        <time>2022-07-26T08:43:30Z</time>
      </trkpt>
      <trkpt lat="44.62905" lon="-0.17037">
        <ele>76.9</ele>
        <time>2022-07-26T08:43:31Z</time>
      </trkpt>
      <trkpt lat="44.62906" lon="-0.17037">
        <ele>76.8</ele>
        <time>2022-07-26T08:43:32Z</time>
      </trkpt>
      <trkpt lat="44.62908" lon="-0.17036">
        <ele>76.8</ele>
        <time>2022-07-26T08:43:33Z</time>
      </trkpt>
      <trkpt lat="44.6291" lon="-0.17035">
        <ele>76.7</ele>
        <time>2022-07-26T08:43:34Z</time>
      </trkpt>
      <trkpt lat="44.62912" lon="-0.17034">
        <ele>76.6</ele>
        <time>2022-07-26T08:43:36Z</time>
      </trkpt>
      <trkpt lat="44.62913" lon="-0.17034">
        <ele>76.7</ele>
        <time>2022-07-26T08:43:37Z</time>
      </trkpt>
      <trkpt lat="44.62915" lon="-0.17033">
        <ele>76.8</ele>
        <time>2022-07-26T08:43:38Z</time>
      </trkpt>
      <trkpt lat="44.62917" lon="-0.17031">
        <ele>76.7</ele>
        <time>2022-07-26T08:43:39Z</time>
      </trkpt>
      <trkpt lat="44.62919" lon="-0.17028">
        <ele>76.7</ele>
        <time>2022-07-26T08:43:40Z</time>
      </trkpt>
      <trkpt lat="44.62919" lon="-0.17026">
        <ele>76.7</ele>
        <time>2022-07-26T08:43:41Z</time>
      </trkpt>
      <trkpt lat="44.62921" lon="-0.17022">
        <ele>76.7</ele>
        <time>2022-07-26T08:43:43Z</time>
      </trkpt>
      <trkpt lat="44.62923" lon="-0.17019">
        <ele>76.8</ele>
        <time>2022-07-26T08:43:44Z</time>
      </trkpt>
      <trkpt lat="44.62924" lon="-0.17017">
        <ele>76.7</ele>
        <time>2022-07-26T08:43:45Z</time>
      </trkpt>
      <trkpt lat="44.62924" lon="-0.17015">
        <ele>76.8</ele>
        <time>2022-07-26T08:43:46Z</time>
      </trkpt>
      <trkpt lat="44.62925" lon="-0.17014">
        <ele>76.8</ele>
        <time>2022-07-26T08:43:47Z</time>
      </trkpt>
      <trkpt lat="44.62926" lon="-0.17013">
        <ele>76.8</ele>
        <time>2022-07-26T08:43:48Z</time>
      </trkpt>
      <trkpt lat="44.62927" lon="-0.17011">
        <ele>76.9</ele>
        <time>2022-07-26T08:43:49Z</time>
      </trkpt>
      <trkpt lat="44.62927" lon="-0.17009">
        <ele>76.8</ele>
        <time>2022-07-26T08:43:50Z</time>
      </trkpt>
      <trkpt lat="44.62928" lon="-0.17008">
        <ele>76.8</ele>
        <time>2022-07-26T08:43:51Z</time>
      </trkpt>
      <trkpt lat="44.62929" lon="-0.17006">
        <ele>76.9</ele>
        <time>2022-07-26T08:43:52Z</time>
      </trkpt>
      <trkpt lat="44.6293" lon="-0.17003">
        <ele>76.9</ele>
        <time>2022-07-26T08:43:54Z</time>
      </trkpt>
      <trkpt lat="44.6293" lon="-0.17002">
        <ele>76.9</ele>
        <time>2022-07-26T08:43:55Z</time>
      </trkpt>
      <trkpt lat="44.62931" lon="-0.17001">
        <ele>76.9</ele>
        <time>2022-07-26T08:43:56Z</time>
      </trkpt>
      <trkpt lat="44.62932" lon="-0.16999">
        <ele>76.9</ele>
        <time>2022-07-26T08:43:57Z</time>
      </trkpt>
      <trkpt lat="44.62933" lon="-0.16998">
        <ele>77</ele>
        <time>2022-07-26T08:43:58Z</time>
      </trkpt>
      <trkpt lat="44.62934" lon="-0.16995">
        <ele>76.9</ele>
        <time>2022-07-26T08:44:00Z</time>
      </trkpt>
      <trkpt lat="44.62934" lon="-0.16994">
        <ele>77</ele>
        <time>2022-07-26T08:44:01Z</time>
      </trkpt>
      <trkpt lat="44.62935" lon="-0.16993">
        <ele>77</ele>
        <time>2022-07-26T08:44:02Z</time>
      </trkpt>
      <trkpt lat="44.62936" lon="-0.16991">
        <ele>76.9</ele>
        <time>2022-07-26T08:44:03Z</time>
      </trkpt>
      <trkpt lat="44.62936" lon="-0.16989">
        <ele>77</ele>
        <time>2022-07-26T08:44:04Z</time>
      </trkpt>
      <trkpt lat="44.62936" lon="-0.16986">
        <ele>77</ele>
        <time>2022-07-26T08:44:06Z</time>
      </trkpt>
      <trkpt lat="44.62936" lon="-0.16986">
        <ele>77.2</ele>
        <time>2022-07-26T08:44:07Z</time>
      </trkpt>
      <trkpt lat="44.62936" lon="-0.16985">
        <ele>77.2</ele>
        <time>2022-07-26T08:44:08Z</time>
      </trkpt>
      <trkpt lat="44.62934" lon="-0.16985">
        <ele>77.2</ele>
        <time>2022-07-26T08:44:10Z</time>
      </trkpt>
      <trkpt lat="44.62934" lon="-0.16984">
        <ele>77.2</ele>
        <time>2022-07-26T08:44:11Z</time>
      </trkpt>
      <trkpt lat="44.62933" lon="-0.16983">
        <ele>77.3</ele>
        <time>2022-07-26T08:44:12Z</time>
      </trkpt>
      <trkpt lat="44.62932" lon="-0.16982">
        <ele>77.4</ele>
        <time>2022-07-26T08:44:13Z</time>
      </trkpt>
      <trkpt lat="44.6293" lon="-0.1698">
        <ele>77.5</ele>
        <time>2022-07-26T08:44:14Z</time>
      </trkpt>
      <trkpt lat="44.62929" lon="-0.16979">
        <ele>77.5</ele>
        <time>2022-07-26T08:44:15Z</time>
      </trkpt>
      <trkpt lat="44.62926" lon="-0.16979">
        <ele>77.6</ele>
        <time>2022-07-26T08:44:16Z</time>
      </trkpt>
      <trkpt lat="44.62926" lon="-0.16978">
        <ele>77.6</ele>
        <time>2022-07-26T08:44:17Z</time>
      </trkpt>
      <trkpt lat="44.62925" lon="-0.16978">
        <ele>77.6</ele>
        <time>2022-07-26T08:44:18Z</time>
      </trkpt>
      <trkpt lat="44.62922" lon="-0.16976">
        <ele>77.8</ele>
        <time>2022-07-26T08:44:20Z</time>
      </trkpt>
      <trkpt lat="44.62921" lon="-0.16976">
        <ele>77.8</ele>
        <time>2022-07-26T08:44:21Z</time>
      </trkpt>
      <trkpt lat="44.6292" lon="-0.16975">
        <ele>78</ele>
        <time>2022-07-26T08:44:22Z</time>
      </trkpt>
      <trkpt lat="44.62919" lon="-0.16975">
        <ele>78</ele>
        <time>2022-07-26T08:44:23Z</time>
      </trkpt>
      <trkpt lat="44.62917" lon="-0.16973">
        <ele>78.1</ele>
        <time>2022-07-26T08:44:25Z</time>
      </trkpt>
      <trkpt lat="44.62916" lon="-0.16972">
        <ele>78.2</ele>
        <time>2022-07-26T08:44:26Z</time>
      </trkpt>
      <trkpt lat="44.62915" lon="-0.16971">
        <ele>78.2</ele>
        <time>2022-07-26T08:44:27Z</time>
      </trkpt>
      <trkpt lat="44.62914" lon="-0.1697">
        <ele>78.3</ele>
        <time>2022-07-26T08:44:28Z</time>
      </trkpt>
      <trkpt lat="44.62913" lon="-0.16969">
        <ele>78.3</ele>
        <time>2022-07-26T08:44:29Z</time>
      </trkpt>
      <trkpt lat="44.62912" lon="-0.16968">
        <ele>78.4</ele>
        <time>2022-07-26T08:44:30Z</time>
      </trkpt>
      <trkpt lat="44.62911" lon="-0.16967">
        <ele>78.5</ele>
        <time>2022-07-26T08:44:31Z</time>
      </trkpt>
      <trkpt lat="44.6291" lon="-0.16965">
        <ele>78.5</ele>
        <time>2022-07-26T08:44:33Z</time>
      </trkpt>
      <trkpt lat="44.62909" lon="-0.16963">
        <ele>78.6</ele>
        <time>2022-07-26T08:44:34Z</time>
      </trkpt>
      <trkpt lat="44.62908" lon="-0.16962">
        <ele>78.7</ele>
        <time>2022-07-26T08:44:35Z</time>
      </trkpt>
      <trkpt lat="44.62907" lon="-0.16961">
        <ele>78.7</ele>
        <time>2022-07-26T08:44:36Z</time>
      </trkpt>
      <trkpt lat="44.62906" lon="-0.16959">
        <ele>78.8</ele>
        <time>2022-07-26T08:44:37Z</time>
      </trkpt>
      <trkpt lat="44.62905" lon="-0.16958">
        <ele>78.8</ele>
        <time>2022-07-26T08:44:39Z</time>
      </trkpt>
      <trkpt lat="44.62904" lon="-0.16957">
        <ele>78.9</ele>
        <time>2022-07-26T08:44:40Z</time>
      </trkpt>
      <trkpt lat="44.62903" lon="-0.16956">
        <ele>79</ele>
        <time>2022-07-26T08:44:41Z</time>
      </trkpt>
      <trkpt lat="44.62902" lon="-0.16955">
        <ele>79.1</ele>
        <time>2022-07-26T08:44:42Z</time>
      </trkpt>
      <trkpt lat="44.62901" lon="-0.16953">
        <ele>79.2</ele>
        <time>2022-07-26T08:44:43Z</time>
      </trkpt>
      <trkpt lat="44.62899" lon="-0.1695">
        <ele>79.3</ele>
        <time>2022-07-26T08:44:45Z</time>
      </trkpt>
      <trkpt lat="44.62899" lon="-0.16949">
        <ele>79.4</ele>
        <time>2022-07-26T08:44:46Z</time>
      </trkpt>
      <trkpt lat="44.62898" lon="-0.16948">
        <ele>79.4</ele>
        <time>2022-07-26T08:44:47Z</time>
      </trkpt>
      <trkpt lat="44.62897" lon="-0.16947">
        <ele>79.4</ele>
        <time>2022-07-26T08:44:48Z</time>
      </trkpt>
      <trkpt lat="44.62896" lon="-0.16946">
        <ele>79.6</ele>
        <time>2022-07-26T08:44:49Z</time>
      </trkpt>
      <trkpt lat="44.62895" lon="-0.16945">
        <ele>79.6</ele>
        <time>2022-07-26T08:44:50Z</time>
      </trkpt>
      <trkpt lat="44.62894" lon="-0.16944">
        <ele>79.6</ele>
        <time>2022-07-26T08:44:51Z</time>
      </trkpt>
      <trkpt lat="44.62893" lon="-0.16942">
        <ele>79.7</ele>
        <time>2022-07-26T08:44:52Z</time>
      </trkpt>
      <trkpt lat="44.62893" lon="-0.16941">
        <ele>79.8</ele>
        <time>2022-07-26T08:44:53Z</time>
      </trkpt>
      <trkpt lat="44.62892" lon="-0.1694">
        <ele>79.8</ele>
        <time>2022-07-26T08:44:54Z</time>
      </trkpt>
      <trkpt lat="44.6289" lon="-0.16939">
        <ele>79.8</ele>
        <time>2022-07-26T08:44:55Z</time>
      </trkpt>
      <trkpt lat="44.62889" lon="-0.16938">
        <ele>80</ele>
        <time>2022-07-26T08:44:56Z</time>
      </trkpt>
      <trkpt lat="44.62887" lon="-0.16937">
        <ele>80.1</ele>
        <time>2022-07-26T08:44:58Z</time>
      </trkpt>
      <trkpt lat="44.62886" lon="-0.16936">
        <ele>80.2</ele>
        <time>2022-07-26T08:44:59Z</time>
      </trkpt>
      <trkpt lat="44.62884" lon="-0.16934">
        <ele>80.4</ele>
        <time>2022-07-26T08:45:00Z</time>
      </trkpt>
      <trkpt lat="44.62883" lon="-0.16933">
        <ele>80.4</ele>
        <time>2022-07-26T08:45:01Z</time>
      </trkpt>
      <trkpt lat="44.62883" lon="-0.16933">
        <ele>80.4</ele>
        <time>2022-07-26T08:45:02Z</time>
      </trkpt>
      <trkpt lat="44.62882" lon="-0.16932">
        <ele>80.5</ele>
        <time>2022-07-26T08:45:03Z</time>
      </trkpt>
      <trkpt lat="44.6288" lon="-0.16929">
        <ele>80.7</ele>
        <time>2022-07-26T08:45:05Z</time>
      </trkpt>
      <trkpt lat="44.6288" lon="-0.16928">
        <ele>80.7</ele>
        <time>2022-07-26T08:45:06Z</time>
      </trkpt>
      <trkpt lat="44.62879" lon="-0.16927">
        <ele>80.7</ele>
        <time>2022-07-26T08:45:07Z</time>
      </trkpt>
      <trkpt lat="44.62878" lon="-0.16926">
        <ele>80.9</ele>
        <time>2022-07-26T08:45:08Z</time>
      </trkpt>
      <trkpt lat="44.62877" lon="-0.16925">
        <ele>80.9</ele>
        <time>2022-07-26T08:45:09Z</time>
      </trkpt>
      <trkpt lat="44.62875" lon="-0.16923">
        <ele>80.9</ele>
        <time>2022-07-26T08:45:10Z</time>
      </trkpt>
      <trkpt lat="44.62874" lon="-0.16921">
        <ele>81.1</ele>
        <time>2022-07-26T08:45:11Z</time>
      </trkpt>
      <trkpt lat="44.62873" lon="-0.1692">
        <ele>81.1</ele>
        <time>2022-07-26T08:45:12Z</time>
      </trkpt>
      <trkpt lat="44.62873" lon="-0.16919">
        <ele>81.1</ele>
        <time>2022-07-26T08:45:13Z</time>
      </trkpt>
      <trkpt lat="44.62871" lon="-0.16917">
        <ele>81.3</ele>
        <time>2022-07-26T08:45:14Z</time>
      </trkpt>
      <trkpt lat="44.62871" lon="-0.16916">
        <ele>81.3</ele>
        <time>2022-07-26T08:45:15Z</time>
      </trkpt>
      <trkpt lat="44.6287" lon="-0.16915">
        <ele>81.3</ele>
        <time>2022-07-26T08:45:16Z</time>
      </trkpt>
      <trkpt lat="44.62869" lon="-0.16913">
        <ele>81.5</ele>
        <time>2022-07-26T08:45:18Z</time>
      </trkpt>
      <trkpt lat="44.62868" lon="-0.16912">
        <ele>81.5</ele>
        <time>2022-07-26T08:45:19Z</time>
      </trkpt>
      <trkpt lat="44.62867" lon="-0.1691">
        <ele>81.5</ele>
        <time>2022-07-26T08:45:20Z</time>
      </trkpt>
      <trkpt lat="44.62865" lon="-0.16908">
        <ele>81.7</ele>
        <time>2022-07-26T08:45:21Z</time>
      </trkpt>
      <trkpt lat="44.62864" lon="-0.16907">
        <ele>81.7</ele>
        <time>2022-07-26T08:45:22Z</time>
      </trkpt>
      <trkpt lat="44.62864" lon="-0.16906">
        <ele>81.7</ele>
        <time>2022-07-26T08:45:23Z</time>
      </trkpt>
      <trkpt lat="44.62861" lon="-0.16904">
        <ele>81.9</ele>
        <time>2022-07-26T08:45:24Z</time>
      </trkpt>
      <trkpt lat="44.6286" lon="-0.16903">
        <ele>81.9</ele>
        <time>2022-07-26T08:45:26Z</time>
      </trkpt>
      <trkpt lat="44.6286" lon="-0.16902">
        <ele>81.9</ele>
        <time>2022-07-26T08:45:27Z</time>
      </trkpt>
      <trkpt lat="44.62859" lon="-0.16902">
        <ele>82.1</ele>
        <time>2022-07-26T08:45:28Z</time>
      </trkpt>
      <trkpt lat="44.62858" lon="-0.16901">
        <ele>82.1</ele>
        <time>2022-07-26T08:45:29Z</time>
      </trkpt>
      <trkpt lat="44.62856" lon="-0.169">
        <ele>82.3</ele>
        <time>2022-07-26T08:45:30Z</time>
      </trkpt>
      <trkpt lat="44.62855" lon="-0.169">
        <ele>82.3</ele>
        <time>2022-07-26T08:45:31Z</time>
      </trkpt>
      <trkpt lat="44.62854" lon="-0.169">
        <ele>82.3</ele>
        <time>2022-07-26T08:45:32Z</time>
      </trkpt>
      <trkpt lat="44.62853" lon="-0.169">
        <ele>82.4</ele>
        <time>2022-07-26T08:45:33Z</time>
      </trkpt>
      <trkpt lat="44.62851" lon="-0.169">
        <ele>82.5</ele>
        <time>2022-07-26T08:45:34Z</time>
      </trkpt>
      <trkpt lat="44.6285" lon="-0.16899">
        <ele>82.6</ele>
        <time>2022-07-26T08:45:35Z</time>
      </trkpt>
      <trkpt lat="44.62848" lon="-0.16899">
        <ele>82.6</ele>
        <time>2022-07-26T08:45:37Z</time>
      </trkpt>
      <trkpt lat="44.62847" lon="-0.16898">
        <ele>82.7</ele>
        <time>2022-07-26T08:45:38Z</time>
      </trkpt>
      <trkpt lat="44.62846" lon="-0.16898">
        <ele>82.8</ele>
        <time>2022-07-26T08:45:39Z</time>
      </trkpt>
      <trkpt lat="44.62844" lon="-0.16896">
        <ele>82.9</ele>
        <time>2022-07-26T08:45:40Z</time>
      </trkpt>
      <trkpt lat="44.62844" lon="-0.16895">
        <ele>82.9</ele>
        <time>2022-07-26T08:45:41Z</time>
      </trkpt>
      <trkpt lat="44.62843" lon="-0.16894">
        <ele>82.9</ele>
        <time>2022-07-26T08:45:42Z</time>
      </trkpt>
      <trkpt lat="44.62843" lon="-0.16892">
        <ele>82.9</ele>
        <time>2022-07-26T08:45:43Z</time>
      </trkpt>
      <trkpt lat="44.62843" lon="-0.16891">
        <ele>82.9</ele>
        <time>2022-07-26T08:45:44Z</time>
      </trkpt>
      <trkpt lat="44.62842" lon="-0.16888">
        <ele>82.9</ele>
        <time>2022-07-26T08:45:45Z</time>
      </trkpt>
      <trkpt lat="44.62842" lon="-0.16886">
        <ele>82.9</ele>
        <time>2022-07-26T08:45:46Z</time>
      </trkpt>
      <trkpt lat="44.62842" lon="-0.16885">
        <ele>82.9</ele>
        <time>2022-07-26T08:45:47Z</time>
      </trkpt>
      <trkpt lat="44.62842" lon="-0.16883">
        <ele>83</ele>
        <time>2022-07-26T08:45:48Z</time>
      </trkpt>
      <trkpt lat="44.62842" lon="-0.16881">
        <ele>83</ele>
        <time>2022-07-26T08:45:49Z</time>
      </trkpt>
      <trkpt lat="44.62842" lon="-0.16879">
        <ele>83</ele>
        <time>2022-07-26T08:45:50Z</time>
      </trkpt>
      <trkpt lat="44.62842" lon="-0.16877">
        <ele>83</ele>
        <time>2022-07-26T08:45:51Z</time>
      </trkpt>
      <trkpt lat="44.62841" lon="-0.16875">
        <ele>83</ele>
        <time>2022-07-26T08:45:52Z</time>
      </trkpt>
      <trkpt lat="44.62841" lon="-0.16873">
        <ele>83</ele>
        <time>2022-07-26T08:45:53Z</time>
      </trkpt>
      <trkpt lat="44.6284" lon="-0.16872">
        <ele>83</ele>
        <time>2022-07-26T08:45:54Z</time>
      </trkpt>
      <trkpt lat="44.62839" lon="-0.1687">
        <ele>83</ele>
        <time>2022-07-26T08:45:56Z</time>
      </trkpt>
      <trkpt lat="44.62838" lon="-0.16869">
        <ele>83</ele>
        <time>2022-07-26T08:45:57Z</time>
      </trkpt>
      <trkpt lat="44.62837" lon="-0.16866">
        <ele>83</ele>
        <time>2022-07-26T08:45:58Z</time>
      </trkpt>
      <trkpt lat="44.62837" lon="-0.16865">
        <ele>83</ele>
        <time>2022-07-26T08:45:59Z</time>
      </trkpt>
      <trkpt lat="44.62836" lon="-0.16864">
        <ele>83</ele>
        <time>2022-07-26T08:46:00Z</time>
      </trkpt>
      <trkpt lat="44.62835" lon="-0.16862">
        <ele>83</ele>
        <time>2022-07-26T08:46:01Z</time>
      </trkpt>
      <trkpt lat="44.62834" lon="-0.16861">
        <ele>83</ele>
        <time>2022-07-26T08:46:03Z</time>
      </trkpt>
      <trkpt lat="44.62834" lon="-0.1686">
        <ele>83</ele>
        <time>2022-07-26T08:46:04Z</time>
      </trkpt>
      <trkpt lat="44.62832" lon="-0.16857">
        <ele>83</ele>
        <time>2022-07-26T08:46:05Z</time>
      </trkpt>
      <trkpt lat="44.62832" lon="-0.16856">
        <ele>83</ele>
        <time>2022-07-26T08:46:06Z</time>
      </trkpt>
      <trkpt lat="44.62831" lon="-0.16855">
        <ele>83</ele>
        <time>2022-07-26T08:46:07Z</time>
      </trkpt>
      <trkpt lat="44.6283" lon="-0.16853">
        <ele>83</ele>
        <time>2022-07-26T08:46:08Z</time>
      </trkpt>
      <trkpt lat="44.62828" lon="-0.16851">
        <ele>83</ele>
        <time>2022-07-26T08:46:09Z</time>
      </trkpt>
      <trkpt lat="44.62827" lon="-0.1685">
        <ele>83</ele>
        <time>2022-07-26T08:46:10Z</time>
      </trkpt>
      <trkpt lat="44.62826" lon="-0.16847">
        <ele>83</ele>
        <time>2022-07-26T08:46:11Z</time>
      </trkpt>
      <trkpt lat="44.62825" lon="-0.16847">
        <ele>83</ele>
        <time>2022-07-26T08:46:13Z</time>
      </trkpt>
      <trkpt lat="44.62825" lon="-0.16845">
        <ele>83.1</ele>
        <time>2022-07-26T08:46:14Z</time>
      </trkpt>
      <trkpt lat="44.62823" lon="-0.16843">
        <ele>83.1</ele>
        <time>2022-07-26T08:46:15Z</time>
      </trkpt>
      <trkpt lat="44.62823" lon="-0.16842">
        <ele>83.1</ele>
        <time>2022-07-26T08:46:16Z</time>
      </trkpt>
      <trkpt lat="44.62821" lon="-0.1684">
        <ele>83.1</ele>
        <time>2022-07-26T08:46:17Z</time>
      </trkpt>
      <trkpt lat="44.62821" lon="-0.16838">
        <ele>83.1</ele>
        <time>2022-07-26T08:46:19Z</time>
      </trkpt>
      <trkpt lat="44.6282" lon="-0.16836">
        <ele>83.1</ele>
        <time>2022-07-26T08:46:20Z</time>
      </trkpt>
      <trkpt lat="44.62819" lon="-0.16834">
        <ele>83.1</ele>
        <time>2022-07-26T08:46:21Z</time>
      </trkpt>
      <trkpt lat="44.62818" lon="-0.16833">
        <ele>83.1</ele>
        <time>2022-07-26T08:46:23Z</time>
      </trkpt>
      <trkpt lat="44.62817" lon="-0.16832">
        <ele>83.1</ele>
        <time>2022-07-26T08:46:24Z</time>
      </trkpt>
      <trkpt lat="44.62816" lon="-0.1683">
        <ele>83.1</ele>
        <time>2022-07-26T08:46:25Z</time>
      </trkpt>
      <trkpt lat="44.62815" lon="-0.16828">
        <ele>83.1</ele>
        <time>2022-07-26T08:46:26Z</time>
      </trkpt>
      <trkpt lat="44.62814" lon="-0.16826">
        <ele>83.1</ele>
        <time>2022-07-26T08:46:28Z</time>
      </trkpt>
      <trkpt lat="44.62813" lon="-0.16825">
        <ele>83.1</ele>
        <time>2022-07-26T08:46:29Z</time>
      </trkpt>
      <trkpt lat="44.62811" lon="-0.16823">
        <ele>83.1</ele>
        <time>2022-07-26T08:46:30Z</time>
      </trkpt>
      <trkpt lat="44.6281" lon="-0.16822">
        <ele>83.1</ele>
        <time>2022-07-26T08:46:31Z</time>
      </trkpt>
      <trkpt lat="44.62809" lon="-0.16821">
        <ele>83.1</ele>
        <time>2022-07-26T08:46:32Z</time>
      </trkpt>
      <trkpt lat="44.62808" lon="-0.1682">
        <ele>83.1</ele>
        <time>2022-07-26T08:46:33Z</time>
      </trkpt>
      <trkpt lat="44.62806" lon="-0.16816">
        <ele>83.1</ele>
        <time>2022-07-26T08:46:35Z</time>
      </trkpt>
      <trkpt lat="44.62805" lon="-0.16815">
        <ele>83.1</ele>
        <time>2022-07-26T08:46:36Z</time>
      </trkpt>
      <trkpt lat="44.62805" lon="-0.16815">
        <ele>83.1</ele>
        <time>2022-07-26T08:46:37Z</time>
      </trkpt>
      <trkpt lat="44.62804" lon="-0.16814">
        <ele>83.1</ele>
        <time>2022-07-26T08:46:38Z</time>
      </trkpt>
      <trkpt lat="44.62802" lon="-0.16811">
        <ele>83.2</ele>
        <time>2022-07-26T08:46:39Z</time>
      </trkpt>
      <trkpt lat="44.62801" lon="-0.1681">
        <ele>83.2</ele>
        <time>2022-07-26T08:46:40Z</time>
      </trkpt>
      <trkpt lat="44.62801" lon="-0.16809">
        <ele>83.2</ele>
        <time>2022-07-26T08:46:41Z</time>
      </trkpt>
      <trkpt lat="44.628" lon="-0.16808">
        <ele>83.2</ele>
        <time>2022-07-26T08:46:42Z</time>
      </trkpt>
      <trkpt lat="44.62799" lon="-0.16807">
        <ele>83.2</ele>
        <time>2022-07-26T08:46:43Z</time>
      </trkpt>
      <trkpt lat="44.62798" lon="-0.16806">
        <ele>83.2</ele>
        <time>2022-07-26T08:46:44Z</time>
      </trkpt>
      <trkpt lat="44.62797" lon="-0.16804">
        <ele>83.2</ele>
        <time>2022-07-26T08:46:45Z</time>
      </trkpt>
      <trkpt lat="44.62796" lon="-0.16804">
        <ele>83.2</ele>
        <time>2022-07-26T08:46:46Z</time>
      </trkpt>
      <trkpt lat="44.62795" lon="-0.16802">
        <ele>83.2</ele>
        <time>2022-07-26T08:46:47Z</time>
      </trkpt>
      <trkpt lat="44.62794" lon="-0.16801">
        <ele>83.2</ele>
        <time>2022-07-26T08:46:49Z</time>
      </trkpt>
      <trkpt lat="44.62793" lon="-0.168">
        <ele>83.2</ele>
        <time>2022-07-26T08:46:50Z</time>
      </trkpt>
      <trkpt lat="44.62793" lon="-0.16799">
        <ele>83.2</ele>
        <time>2022-07-26T08:46:51Z</time>
      </trkpt>
      <trkpt lat="44.62792" lon="-0.16797">
        <ele>83.2</ele>
        <time>2022-07-26T08:46:53Z</time>
      </trkpt>
      <trkpt lat="44.62791" lon="-0.16796">
        <ele>83.2</ele>
        <time>2022-07-26T08:46:54Z</time>
      </trkpt>
      <trkpt lat="44.62789" lon="-0.16796">
        <ele>83.2</ele>
        <time>2022-07-26T08:46:55Z</time>
      </trkpt>
      <trkpt lat="44.62788" lon="-0.16797">
        <ele>83.2</ele>
        <time>2022-07-26T08:46:56Z</time>
      </trkpt>
      <trkpt lat="44.62787" lon="-0.16797">
        <ele>83.2</ele>
        <time>2022-07-26T08:46:57Z</time>
      </trkpt>
      <trkpt lat="44.62785" lon="-0.16798">
        <ele>83.2</ele>
        <time>2022-07-26T08:46:58Z</time>
      </trkpt>
      <trkpt lat="44.62784" lon="-0.16798">
        <ele>83.2</ele>
        <time>2022-07-26T08:46:59Z</time>
      </trkpt>
      <trkpt lat="44.62782" lon="-0.16797">
        <ele>83.2</ele>
        <time>2022-07-26T08:47:00Z</time>
      </trkpt>
      <trkpt lat="44.62781" lon="-0.16796">
        <ele>83.2</ele>
        <time>2022-07-26T08:47:01Z</time>
      </trkpt>
      <trkpt lat="44.6278" lon="-0.16794">
        <ele>83.2</ele>
        <time>2022-07-26T08:47:02Z</time>
      </trkpt>
      <trkpt lat="44.62778" lon="-0.16791">
        <ele>83.2</ele>
        <time>2022-07-26T08:47:04Z</time>
      </trkpt>
      <trkpt lat="44.62778" lon="-0.16789">
        <ele>83.3</ele>
        <time>2022-07-26T08:47:05Z</time>
      </trkpt>
      <trkpt lat="44.62777" lon="-0.16788">
        <ele>83.3</ele>
        <time>2022-07-26T08:47:06Z</time>
      </trkpt>
      <trkpt lat="44.62776" lon="-0.16786">
        <ele>83.3</ele>
        <time>2022-07-26T08:47:08Z</time>
      </trkpt>
      <trkpt lat="44.62775" lon="-0.16785">
        <ele>83.3</ele>
        <time>2022-07-26T08:47:09Z</time>
      </trkpt>
      <trkpt lat="44.62773" lon="-0.16782">
        <ele>83.3</ele>
        <time>2022-07-26T08:47:10Z</time>
      </trkpt>
      <trkpt lat="44.62772" lon="-0.1678">
        <ele>83.3</ele>
        <time>2022-07-26T08:47:12Z</time>
      </trkpt>
      <trkpt lat="44.62771" lon="-0.16779">
        <ele>83.3</ele>
        <time>2022-07-26T08:47:13Z</time>
      </trkpt>
      <trkpt lat="44.62771" lon="-0.16778">
        <ele>83.3</ele>
        <time>2022-07-26T08:47:14Z</time>
      </trkpt>
      <trkpt lat="44.6277" lon="-0.16777">
        <ele>83.3</ele>
        <time>2022-07-26T08:47:15Z</time>
      </trkpt>
      <trkpt lat="44.62769" lon="-0.16775">
        <ele>83.3</ele>
        <time>2022-07-26T08:47:16Z</time>
      </trkpt>
      <trkpt lat="44.62768" lon="-0.16772">
        <ele>83.3</ele>
        <time>2022-07-26T08:47:17Z</time>
      </trkpt>
      <trkpt lat="44.62767" lon="-0.1677">
        <ele>83.3</ele>
        <time>2022-07-26T08:47:19Z</time>
      </trkpt>
      <trkpt lat="44.62766" lon="-0.16769">
        <ele>83.3</ele>
        <time>2022-07-26T08:47:20Z</time>
      </trkpt>
      <trkpt lat="44.62766" lon="-0.16767">
        <ele>83.3</ele>
        <time>2022-07-26T08:47:21Z</time>
      </trkpt>
      <trkpt lat="44.62765" lon="-0.16766">
        <ele>83.3</ele>
        <time>2022-07-26T08:47:22Z</time>
      </trkpt>
      <trkpt lat="44.62764" lon="-0.16764">
        <ele>83.3</ele>
        <time>2022-07-26T08:47:24Z</time>
      </trkpt>
      <trkpt lat="44.62763" lon="-0.16763">
        <ele>83.3</ele>
        <time>2022-07-26T08:47:25Z</time>
      </trkpt>
      <trkpt lat="44.62762" lon="-0.16762">
        <ele>83.3</ele>
        <time>2022-07-26T08:47:26Z</time>
      </trkpt>
      <trkpt lat="44.62761" lon="-0.16761">
        <ele>83.3</ele>
        <time>2022-07-26T08:47:27Z</time>
      </trkpt>
      <trkpt lat="44.6276" lon="-0.16759">
        <ele>83.3</ele>
        <time>2022-07-26T08:47:28Z</time>
      </trkpt>
      <trkpt lat="44.62759" lon="-0.16756">
        <ele>83.3</ele>
        <time>2022-07-26T08:47:29Z</time>
      </trkpt>
      <trkpt lat="44.62758" lon="-0.16755">
        <ele>83.4</ele>
        <time>2022-07-26T08:47:30Z</time>
      </trkpt>
      <trkpt lat="44.62756" lon="-0.16752">
        <ele>83.4</ele>
        <time>2022-07-26T08:47:31Z</time>
      </trkpt>
      <trkpt lat="44.62755" lon="-0.16751">
        <ele>83.4</ele>
        <time>2022-07-26T08:47:33Z</time>
      </trkpt>
      <trkpt lat="44.62754" lon="-0.16749">
        <ele>83.4</ele>
        <time>2022-07-26T08:47:34Z</time>
      </trkpt>
      <trkpt lat="44.62753" lon="-0.16748">
        <ele>83.4</ele>
        <time>2022-07-26T08:47:35Z</time>
      </trkpt>
      <trkpt lat="44.62752" lon="-0.16747">
        <ele>83.4</ele>
        <time>2022-07-26T08:47:36Z</time>
      </trkpt>
      <trkpt lat="44.62751" lon="-0.16745">
        <ele>83.4</ele>
        <time>2022-07-26T08:47:38Z</time>
      </trkpt>
      <trkpt lat="44.6275" lon="-0.16743">
        <ele>83.4</ele>
        <time>2022-07-26T08:47:39Z</time>
      </trkpt>
      <trkpt lat="44.62749" lon="-0.16741">
        <ele>83.4</ele>
        <time>2022-07-26T08:47:40Z</time>
      </trkpt>
      <trkpt lat="44.62748" lon="-0.1674">
        <ele>83.4</ele>
        <time>2022-07-26T08:47:41Z</time>
      </trkpt>
      <trkpt lat="44.62747" lon="-0.16739">
        <ele>83.4</ele>
        <time>2022-07-26T08:47:42Z</time>
      </trkpt>
      <trkpt lat="44.62747" lon="-0.16738">
        <ele>83.4</ele>
        <time>2022-07-26T08:47:43Z</time>
      </trkpt>
      <trkpt lat="44.62746" lon="-0.16736">
        <ele>83.4</ele>
        <time>2022-07-26T08:47:44Z</time>
      </trkpt>
      <trkpt lat="44.62744" lon="-0.16733">
        <ele>83.4</ele>
        <time>2022-07-26T08:47:46Z</time>
      </trkpt>
      <trkpt lat="44.62743" lon="-0.16731">
        <ele>83.4</ele>
        <time>2022-07-26T08:47:47Z</time>
      </trkpt>
      <trkpt lat="44.62742" lon="-0.1673">
        <ele>83.4</ele>
        <time>2022-07-26T08:47:48Z</time>
      </trkpt>
      <trkpt lat="44.62741" lon="-0.16729">
        <ele>83.4</ele>
        <time>2022-07-26T08:47:49Z</time>
      </trkpt>
      <trkpt lat="44.6274" lon="-0.16726">
        <ele>83.4</ele>
        <time>2022-07-26T08:47:50Z</time>
      </trkpt>
      <trkpt lat="44.6274" lon="-0.16725">
        <ele>83.4</ele>
        <time>2022-07-26T08:47:51Z</time>
      </trkpt>
      <trkpt lat="44.62739" lon="-0.16723">
        <ele>83.4</ele>
        <time>2022-07-26T08:47:53Z</time>
      </trkpt>
      <trkpt lat="44.62738" lon="-0.16721">
        <ele>83.4</ele>
        <time>2022-07-26T08:47:54Z</time>
      </trkpt>
      <trkpt lat="44.62737" lon="-0.16719">
        <ele>83.5</ele>
        <time>2022-07-26T08:47:55Z</time>
      </trkpt>
      <trkpt lat="44.62736" lon="-0.16717">
        <ele>83.5</ele>
        <time>2022-07-26T08:47:57Z</time>
      </trkpt>
      <trkpt lat="44.62735" lon="-0.16716">
        <ele>83.5</ele>
        <time>2022-07-26T08:47:58Z</time>
      </trkpt>
      <trkpt lat="44.62734" lon="-0.16714">
        <ele>83.5</ele>
        <time>2022-07-26T08:47:59Z</time>
      </trkpt>
      <trkpt lat="44.62734" lon="-0.16712">
        <ele>83.5</ele>
        <time>2022-07-26T08:48:00Z</time>
      </trkpt>
      <trkpt lat="44.62732" lon="-0.1671">
        <ele>83.5</ele>
        <time>2022-07-26T08:48:02Z</time>
      </trkpt>
      <trkpt lat="44.62732" lon="-0.16708">
        <ele>83.5</ele>
        <time>2022-07-26T08:48:03Z</time>
      </trkpt>
      <trkpt lat="44.62731" lon="-0.16707">
        <ele>83.5</ele>
        <time>2022-07-26T08:48:04Z</time>
      </trkpt>
      <trkpt lat="44.62729" lon="-0.16704">
        <ele>83.5</ele>
        <time>2022-07-26T08:48:06Z</time>
      </trkpt>
      <trkpt lat="44.62729" lon="-0.16703">
        <ele>83.5</ele>
        <time>2022-07-26T08:48:07Z</time>
      </trkpt>
      <trkpt lat="44.62728" lon="-0.167">
        <ele>83.5</ele>
        <time>2022-07-26T08:48:08Z</time>
      </trkpt>
      <trkpt lat="44.62727" lon="-0.16699">
        <ele>83.5</ele>
        <time>2022-07-26T08:48:09Z</time>
      </trkpt>
      <trkpt lat="44.62726" lon="-0.16698">
        <ele>83.5</ele>
        <time>2022-07-26T08:48:10Z</time>
      </trkpt>
      <trkpt lat="44.62725" lon="-0.16696">
        <ele>83.5</ele>
        <time>2022-07-26T08:48:11Z</time>
      </trkpt>
      <trkpt lat="44.62724" lon="-0.16695">
        <ele>83.5</ele>
        <time>2022-07-26T08:48:12Z</time>
      </trkpt>
      <trkpt lat="44.62724" lon="-0.16694">
        <ele>83.5</ele>
        <time>2022-07-26T08:48:13Z</time>
      </trkpt>
      <trkpt lat="44.62723" lon="-0.16692">
        <ele>83.5</ele>
        <time>2022-07-26T08:48:14Z</time>
      </trkpt>
      <trkpt lat="44.62722" lon="-0.1669">
        <ele>83.5</ele>
        <time>2022-07-26T08:48:16Z</time>
      </trkpt>
      <trkpt lat="44.62721" lon="-0.16689">
        <ele>83.5</ele>
        <time>2022-07-26T08:48:17Z</time>
      </trkpt>
      <trkpt lat="44.6272" lon="-0.16688">
        <ele>83.5</ele>
        <time>2022-07-26T08:48:18Z</time>
      </trkpt>
      <trkpt lat="44.62719" lon="-0.16687">
        <ele>83.5</ele>
        <time>2022-07-26T08:48:19Z</time>
      </trkpt>
      <trkpt lat="44.62718" lon="-0.16684">
        <ele>83.6</ele>
        <time>2022-07-26T08:48:21Z</time>
      </trkpt>
      <trkpt lat="44.62717" lon="-0.16682">
        <ele>83.6</ele>
        <time>2022-07-26T08:48:22Z</time>
      </trkpt>
      <trkpt lat="44.62717" lon="-0.16681">
        <ele>83.6</ele>
        <time>2022-07-26T08:48:23Z</time>
      </trkpt>
      <trkpt lat="44.62716" lon="-0.16679">
        <ele>83.6</ele>
        <time>2022-07-26T08:48:24Z</time>
      </trkpt>
      <trkpt lat="44.62714" lon="-0.16675">
        <ele>83.6</ele>
        <time>2022-07-26T08:48:26Z</time>
      </trkpt>
      <trkpt lat="44.62714" lon="-0.16675">
        <ele>83.6</ele>
        <time>2022-07-26T08:48:27Z</time>
      </trkpt>
      <trkpt lat="44.62713" lon="-0.16673">
        <ele>83.6</ele>
        <time>2022-07-26T08:48:28Z</time>
      </trkpt>
      <trkpt lat="44.62712" lon="-0.16672">
        <ele>83.6</ele>
        <time>2022-07-26T08:48:29Z</time>
      </trkpt>
      <trkpt lat="44.62711" lon="-0.16668">
        <ele>83.6</ele>
        <time>2022-07-26T08:48:31Z</time>
      </trkpt>
      <trkpt lat="44.62709" lon="-0.16666">
        <ele>83.6</ele>
        <time>2022-07-26T08:48:32Z</time>
      </trkpt>
      <trkpt lat="44.62709" lon="-0.16665">
        <ele>83.6</ele>
        <time>2022-07-26T08:48:33Z</time>
      </trkpt>
      <trkpt lat="44.62709" lon="-0.16664">
        <ele>83.6</ele>
        <time>2022-07-26T08:48:34Z</time>
      </trkpt>
      <trkpt lat="44.62708" lon="-0.16662">
        <ele>83.6</ele>
        <time>2022-07-26T08:48:35Z</time>
      </trkpt>
      <trkpt lat="44.62707" lon="-0.1666">
        <ele>83.6</ele>
        <time>2022-07-26T08:48:36Z</time>
      </trkpt>
      <trkpt lat="44.62705" lon="-0.16657">
        <ele>83.6</ele>
        <time>2022-07-26T08:48:37Z</time>
      </trkpt>
      <trkpt lat="44.62704" lon="-0.16655">
        <ele>83.6</ele>
        <time>2022-07-26T08:48:39Z</time>
      </trkpt>
      <trkpt lat="44.62703" lon="-0.16654">
        <ele>83.6</ele>
        <time>2022-07-26T08:48:40Z</time>
      </trkpt>
      <trkpt lat="44.62702" lon="-0.16652">
        <ele>83.6</ele>
        <time>2022-07-26T08:48:41Z</time>
      </trkpt>
      <trkpt lat="44.62701" lon="-0.1665">
        <ele>83.6</ele>
        <time>2022-07-26T08:48:42Z</time>
      </trkpt>
      <trkpt lat="44.627" lon="-0.16649">
        <ele>83.6</ele>
        <time>2022-07-26T08:48:44Z</time>
      </trkpt>
      <trkpt lat="44.627" lon="-0.16648">
        <ele>83.6</ele>
        <time>2022-07-26T08:48:45Z</time>
      </trkpt>
      <trkpt lat="44.62699" lon="-0.16646">
        <ele>83.7</ele>
        <time>2022-07-26T08:48:46Z</time>
      </trkpt>
      <trkpt lat="44.62698" lon="-0.16646">
        <ele>83.7</ele>
        <time>2022-07-26T08:48:47Z</time>
      </trkpt>
      <trkpt lat="44.62696" lon="-0.16644">
        <ele>83.7</ele>
        <time>2022-07-26T08:48:48Z</time>
      </trkpt>
      <trkpt lat="44.62696" lon="-0.16643">
        <ele>83.7</ele>
        <time>2022-07-26T08:48:49Z</time>
      </trkpt>
      <trkpt lat="44.62695" lon="-0.16642">
        <ele>83.7</ele>
        <time>2022-07-26T08:48:50Z</time>
      </trkpt>
      <trkpt lat="44.62694" lon="-0.1664">
        <ele>83.7</ele>
        <time>2022-07-26T08:48:51Z</time>
      </trkpt>
      <trkpt lat="44.62694" lon="-0.16639">
        <ele>83.7</ele>
        <time>2022-07-26T08:48:52Z</time>
      </trkpt>
      <trkpt lat="44.62693" lon="-0.16638">
        <ele>83.7</ele>
        <time>2022-07-26T08:48:54Z</time>
      </trkpt>
      <trkpt lat="44.62692" lon="-0.16636">
        <ele>83.7</ele>
        <time>2022-07-26T08:48:55Z</time>
      </trkpt>
      <trkpt lat="44.62691" lon="-0.16635">
        <ele>83.7</ele>
        <time>2022-07-26T08:48:56Z</time>
      </trkpt>
      <trkpt lat="44.62692" lon="-0.16635">
        <ele>83.7</ele>
        <time>2022-07-26T08:48:57Z</time>
      </trkpt>
      <trkpt lat="44.62692" lon="-0.16636">
        <ele>83.7</ele>
        <time>2022-07-26T08:48:58Z</time>
      </trkpt>
      <trkpt lat="44.62692" lon="-0.16636">
        <ele>83.7</ele>
        <time>2022-07-26T08:48:59Z</time>
      </trkpt>
      <trkpt lat="44.62693" lon="-0.16636">
        <ele>83.7</ele>
        <time>2022-07-26T08:49:00Z</time>
      </trkpt>
      <trkpt lat="44.62692" lon="-0.16635">
        <ele>83.7</ele>
        <time>2022-07-26T08:49:01Z</time>
      </trkpt>
      <trkpt lat="44.62692" lon="-0.16634">
        <ele>83.7</ele>
        <time>2022-07-26T08:49:02Z</time>
      </trkpt>
      <trkpt lat="44.62691" lon="-0.16632">
        <ele>83.7</ele>
        <time>2022-07-26T08:49:03Z</time>
      </trkpt>
      <trkpt lat="44.6269" lon="-0.1663">
        <ele>83.7</ele>
        <time>2022-07-26T08:49:05Z</time>
      </trkpt>
      <trkpt lat="44.62689" lon="-0.16627">
        <ele>83.7</ele>
        <time>2022-07-26T08:49:06Z</time>
      </trkpt>
      <trkpt lat="44.62689" lon="-0.16626">
        <ele>83.7</ele>
        <time>2022-07-26T08:49:07Z</time>
      </trkpt>
      <trkpt lat="44.62688" lon="-0.16623">
        <ele>83.7</ele>
        <time>2022-07-26T08:49:08Z</time>
      </trkpt>
      <trkpt lat="44.62687" lon="-0.16622">
        <ele>83.7</ele>
        <time>2022-07-26T08:49:09Z</time>
      </trkpt>
      <trkpt lat="44.62687" lon="-0.1662">
        <ele>83.7</ele>
        <time>2022-07-26T08:49:10Z</time>
      </trkpt>
      <trkpt lat="44.62686" lon="-0.16618">
        <ele>83.7</ele>
        <time>2022-07-26T08:49:11Z</time>
      </trkpt>
      <trkpt lat="44.62686" lon="-0.16616">
        <ele>83.7</ele>
        <time>2022-07-26T08:49:12Z</time>
      </trkpt>
      <trkpt lat="44.62685" lon="-0.16615">
        <ele>83.7</ele>
        <time>2022-07-26T08:49:13Z</time>
      </trkpt>
      <trkpt lat="44.62684" lon="-0.16613">
        <ele>83.7</ele>
        <time>2022-07-26T08:49:14Z</time>
      </trkpt>
      <trkpt lat="44.62684" lon="-0.16612">
        <ele>83.7</ele>
        <time>2022-07-26T08:49:15Z</time>
      </trkpt>
      <trkpt lat="44.62683" lon="-0.1661">
        <ele>83.8</ele>
        <time>2022-07-26T08:49:16Z</time>
      </trkpt>
      <trkpt lat="44.62683" lon="-0.16609">
        <ele>83.8</ele>
        <time>2022-07-26T08:49:17Z</time>
      </trkpt>
      <trkpt lat="44.62682" lon="-0.16608">
        <ele>83.8</ele>
        <time>2022-07-26T08:49:18Z</time>
      </trkpt>
      <trkpt lat="44.62681" lon="-0.16606">
        <ele>83.8</ele>
        <time>2022-07-26T08:49:19Z</time>
      </trkpt>
      <trkpt lat="44.6268" lon="-0.16604">
        <ele>83.8</ele>
        <time>2022-07-26T08:49:20Z</time>
      </trkpt>
      <trkpt lat="44.6268" lon="-0.16603">
        <ele>83.8</ele>
        <time>2022-07-26T08:49:21Z</time>
      </trkpt>
      <trkpt lat="44.62679" lon="-0.16602">
        <ele>83.8</ele>
        <time>2022-07-26T08:49:22Z</time>
      </trkpt>
      <trkpt lat="44.62678" lon="-0.166">
        <ele>83.8</ele>
        <time>2022-07-26T08:49:24Z</time>
      </trkpt>
      <trkpt lat="44.62678" lon="-0.16598">
        <ele>83.8</ele>
        <time>2022-07-26T08:49:25Z</time>
      </trkpt>
      <trkpt lat="44.62678" lon="-0.16596">
        <ele>83.8</ele>
        <time>2022-07-26T08:49:26Z</time>
      </trkpt>
      <trkpt lat="44.62679" lon="-0.16595">
        <ele>83.8</ele>
        <time>2022-07-26T08:49:27Z</time>
      </trkpt>
      <trkpt lat="44.62679" lon="-0.16594">
        <ele>83.8</ele>
        <time>2022-07-26T08:49:28Z</time>
      </trkpt>
      <trkpt lat="44.62681" lon="-0.16592">
        <ele>83.8</ele>
        <time>2022-07-26T08:49:30Z</time>
      </trkpt>
      <trkpt lat="44.62681" lon="-0.16589">
        <ele>83.8</ele>
        <time>2022-07-26T08:49:31Z</time>
      </trkpt>
      <trkpt lat="44.6268" lon="-0.16587">
        <ele>83.8</ele>
        <time>2022-07-26T08:49:32Z</time>
      </trkpt>
      <trkpt lat="44.6268" lon="-0.16584">
        <ele>83.8</ele>
        <time>2022-07-26T08:49:33Z</time>
      </trkpt>
      <trkpt lat="44.6268" lon="-0.16583">
        <ele>83.8</ele>
        <time>2022-07-26T08:49:34Z</time>
      </trkpt>
      <trkpt lat="44.62679" lon="-0.16581">
        <ele>83.8</ele>
        <time>2022-07-26T08:49:35Z</time>
      </trkpt>
      <trkpt lat="44.62678" lon="-0.16579">
        <ele>83.8</ele>
        <time>2022-07-26T08:49:36Z</time>
      </trkpt>
      <trkpt lat="44.62677" lon="-0.16578">
        <ele>83.8</ele>
        <time>2022-07-26T08:49:38Z</time>
      </trkpt>
      <trkpt lat="44.62676" lon="-0.16577">
        <ele>83.8</ele>
        <time>2022-07-26T08:49:39Z</time>
      </trkpt>
      <trkpt lat="44.62675" lon="-0.16575">
        <ele>83.8</ele>
        <time>2022-07-26T08:49:40Z</time>
      </trkpt>
      <trkpt lat="44.62674" lon="-0.16573">
        <ele>83.8</ele>
        <time>2022-07-26T08:49:41Z</time>
      </trkpt>
      <trkpt lat="44.62673" lon="-0.1657">
        <ele>83.9</ele>
        <time>2022-07-26T08:49:43Z</time>
      </trkpt>
      <trkpt lat="44.62673" lon="-0.16569">
        <ele>83.9</ele>
        <time>2022-07-26T08:49:44Z</time>
      </trkpt>
      <trkpt lat="44.62672" lon="-0.16566">
        <ele>83.9</ele>
        <time>2022-07-26T08:49:45Z</time>
      </trkpt>
      <trkpt lat="44.62672" lon="-0.16565">
        <ele>83.9</ele>
        <time>2022-07-26T08:49:46Z</time>
      </trkpt>
      <trkpt lat="44.62671" lon="-0.16564">
        <ele>83.9</ele>
        <time>2022-07-26T08:49:47Z</time>
      </trkpt>
      <trkpt lat="44.62671" lon="-0.16562">
        <ele>83.9</ele>
        <time>2022-07-26T08:49:48Z</time>
      </trkpt>
      <trkpt lat="44.62671" lon="-0.1656">
        <ele>83.8</ele>
        <time>2022-07-26T08:49:49Z</time>
      </trkpt>
      <trkpt lat="44.6267" lon="-0.16557">
        <ele>83.8</ele>
        <time>2022-07-26T08:49:50Z</time>
      </trkpt>
      <trkpt lat="44.6267" lon="-0.16555">
        <ele>83.8</ele>
        <time>2022-07-26T08:49:52Z</time>
      </trkpt>
      <trkpt lat="44.6267" lon="-0.16554">
        <ele>83.8</ele>
        <time>2022-07-26T08:49:53Z</time>
      </trkpt>
      <trkpt lat="44.6267" lon="-0.16553">
        <ele>83.8</ele>
        <time>2022-07-26T08:49:54Z</time>
      </trkpt>
      <trkpt lat="44.6267" lon="-0.16551">
        <ele>83.8</ele>
        <time>2022-07-26T08:49:55Z</time>
      </trkpt>
      <trkpt lat="44.6267" lon="-0.16549">
        <ele>83.8</ele>
        <time>2022-07-26T08:49:56Z</time>
      </trkpt>
      <trkpt lat="44.6267" lon="-0.16546">
        <ele>83.8</ele>
        <time>2022-07-26T08:49:57Z</time>
      </trkpt>
      <trkpt lat="44.6267" lon="-0.16545">
        <ele>83.8</ele>
        <time>2022-07-26T08:49:59Z</time>
      </trkpt>
      <trkpt lat="44.6267" lon="-0.16543">
        <ele>83.8</ele>
        <time>2022-07-26T08:50:00Z</time>
      </trkpt>
      <trkpt lat="44.6267" lon="-0.16541">
        <ele>83.8</ele>
        <time>2022-07-26T08:50:01Z</time>
      </trkpt>
      <trkpt lat="44.62671" lon="-0.16539">
        <ele>83.8</ele>
        <time>2022-07-26T08:50:02Z</time>
      </trkpt>
      <trkpt lat="44.62672" lon="-0.16538">
        <ele>83.8</ele>
        <time>2022-07-26T08:50:03Z</time>
      </trkpt>
      <trkpt lat="44.62673" lon="-0.16536">
        <ele>83.8</ele>
        <time>2022-07-26T08:50:04Z</time>
      </trkpt>
      <trkpt lat="44.62674" lon="-0.16535">
        <ele>83.8</ele>
        <time>2022-07-26T08:50:05Z</time>
      </trkpt>
      <trkpt lat="44.62675" lon="-0.16534">
        <ele>83.8</ele>
        <time>2022-07-26T08:50:06Z</time>
      </trkpt>
      <trkpt lat="44.62676" lon="-0.16531">
        <ele>83.8</ele>
        <time>2022-07-26T08:50:07Z</time>
      </trkpt>
      <trkpt lat="44.62677" lon="-0.1653">
        <ele>83.8</ele>
        <time>2022-07-26T08:50:08Z</time>
      </trkpt>
      <trkpt lat="44.62678" lon="-0.16528">
        <ele>83.8</ele>
        <time>2022-07-26T08:50:10Z</time>
      </trkpt>
      <trkpt lat="44.62679" lon="-0.16527">
        <ele>83.8</ele>
        <time>2022-07-26T08:50:11Z</time>
      </trkpt>
      <trkpt lat="44.6268" lon="-0.16526">
        <ele>83.8</ele>
        <time>2022-07-26T08:50:12Z</time>
      </trkpt>
      <trkpt lat="44.62682" lon="-0.16525">
        <ele>83.8</ele>
        <time>2022-07-26T08:50:13Z</time>
      </trkpt>
      <trkpt lat="44.62682" lon="-0.16524">
        <ele>83.8</ele>
        <time>2022-07-26T08:50:14Z</time>
      </trkpt>
      <trkpt lat="44.62683" lon="-0.16523">
        <ele>83.8</ele>
        <time>2022-07-26T08:50:15Z</time>
      </trkpt>
      <trkpt lat="44.62685" lon="-0.16522">
        <ele>83.8</ele>
        <time>2022-07-26T08:50:16Z</time>
      </trkpt>
      <trkpt lat="44.62686" lon="-0.16522">
        <ele>83.7</ele>
        <time>2022-07-26T08:50:17Z</time>
      </trkpt>
      <trkpt lat="44.62688" lon="-0.16522">
        <ele>83.7</ele>
        <time>2022-07-26T08:50:18Z</time>
      </trkpt>
      <trkpt lat="44.62689" lon="-0.16522">
        <ele>83.7</ele>
        <time>2022-07-26T08:50:19Z</time>
      </trkpt>
      <trkpt lat="44.62689" lon="-0.16522">
        <ele>83.7</ele>
        <time>2022-07-26T08:50:20Z</time>
      </trkpt>
      <trkpt lat="44.62691" lon="-0.16522">
        <ele>83.7</ele>
        <time>2022-07-26T08:50:21Z</time>
      </trkpt>
      <trkpt lat="44.62693" lon="-0.16522">
        <ele>83.6</ele>
        <time>2022-07-26T08:50:23Z</time>
      </trkpt>
      <trkpt lat="44.62696" lon="-0.16523">
        <ele>83.6</ele>
        <time>2022-07-26T08:50:24Z</time>
      </trkpt>
      <trkpt lat="44.62696" lon="-0.16523">
        <ele>83.6</ele>
        <time>2022-07-26T08:50:25Z</time>
      </trkpt>
      <trkpt lat="44.62697" lon="-0.16523">
        <ele>83.6</ele>
        <time>2022-07-26T08:50:26Z</time>
      </trkpt>
      <trkpt lat="44.627" lon="-0.16523">
        <ele>83.5</ele>
        <time>2022-07-26T08:50:28Z</time>
      </trkpt>
      <trkpt lat="44.62701" lon="-0.16523">
        <ele>83.5</ele>
        <time>2022-07-26T08:50:29Z</time>
      </trkpt>
      <trkpt lat="44.62703" lon="-0.16523">
        <ele>83.5</ele>
        <time>2022-07-26T08:50:30Z</time>
      </trkpt>
      <trkpt lat="44.62703" lon="-0.16523">
        <ele>83.5</ele>
        <time>2022-07-26T08:50:31Z</time>
      </trkpt>
      <trkpt lat="44.62704" lon="-0.16523">
        <ele>83.4</ele>
        <time>2022-07-26T08:50:32Z</time>
      </trkpt>
      <trkpt lat="44.62706" lon="-0.16523">
        <ele>83.4</ele>
        <time>2022-07-26T08:50:33Z</time>
      </trkpt>
      <trkpt lat="44.62707" lon="-0.16523">
        <ele>83.4</ele>
        <time>2022-07-26T08:50:34Z</time>
      </trkpt>
      <trkpt lat="44.62709" lon="-0.16523">
        <ele>83.4</ele>
        <time>2022-07-26T08:50:35Z</time>
      </trkpt>
      <trkpt lat="44.6271" lon="-0.16523">
        <ele>83.3</ele>
        <time>2022-07-26T08:50:36Z</time>
      </trkpt>
      <trkpt lat="44.62711" lon="-0.16523">
        <ele>83.3</ele>
        <time>2022-07-26T08:50:37Z</time>
      </trkpt>
      <trkpt lat="44.62714" lon="-0.16523">
        <ele>83.3</ele>
        <time>2022-07-26T08:50:38Z</time>
      </trkpt>
      <trkpt lat="44.62715" lon="-0.16523">
        <ele>83.3</ele>
        <time>2022-07-26T08:50:40Z</time>
      </trkpt>
      <trkpt lat="44.62717" lon="-0.16523">
        <ele>83.2</ele>
        <time>2022-07-26T08:50:41Z</time>
      </trkpt>
      <trkpt lat="44.62718" lon="-0.16523">
        <ele>83.2</ele>
        <time>2022-07-26T08:50:42Z</time>
      </trkpt>
      <trkpt lat="44.62719" lon="-0.16523">
        <ele>83.1</ele>
        <time>2022-07-26T08:50:43Z</time>
      </trkpt>
      <trkpt lat="44.6272" lon="-0.16523">
        <ele>83.1</ele>
        <time>2022-07-26T08:50:44Z</time>
      </trkpt>
      <trkpt lat="44.62721" lon="-0.16523">
        <ele>83.1</ele>
        <time>2022-07-26T08:50:45Z</time>
      </trkpt>
      <trkpt lat="44.62722" lon="-0.16523">
        <ele>83.1</ele>
        <time>2022-07-26T08:50:46Z</time>
      </trkpt>
      <trkpt lat="44.62724" lon="-0.16524">
        <ele>83.1</ele>
        <time>2022-07-26T08:50:47Z</time>
      </trkpt>
      <trkpt lat="44.62726" lon="-0.16524">
        <ele>83</ele>
        <time>2022-07-26T08:50:48Z</time>
      </trkpt>
      <trkpt lat="44.62727" lon="-0.16524">
        <ele>83</ele>
        <time>2022-07-26T08:50:49Z</time>
      </trkpt>
      <trkpt lat="44.62728" lon="-0.16524">
        <ele>83</ele>
        <time>2022-07-26T08:50:50Z</time>
      </trkpt>
      <trkpt lat="44.62729" lon="-0.16524">
        <ele>82.9</ele>
        <time>2022-07-26T08:50:52Z</time>
      </trkpt>
      <trkpt lat="44.62732" lon="-0.16524">
        <ele>82.9</ele>
        <time>2022-07-26T08:50:53Z</time>
      </trkpt>
      <trkpt lat="44.62732" lon="-0.16524">
        <ele>82.9</ele>
        <time>2022-07-26T08:50:54Z</time>
      </trkpt>
      <trkpt lat="44.62734" lon="-0.16524">
        <ele>82.8</ele>
        <time>2022-07-26T08:50:55Z</time>
      </trkpt>
      <trkpt lat="44.62735" lon="-0.16524">
        <ele>82.8</ele>
        <time>2022-07-26T08:50:56Z</time>
      </trkpt>
      <trkpt lat="44.62736" lon="-0.16524">
        <ele>82.8</ele>
        <time>2022-07-26T08:50:57Z</time>
      </trkpt>
      <trkpt lat="44.62738" lon="-0.16524">
        <ele>82.8</ele>
        <time>2022-07-26T08:50:58Z</time>
      </trkpt>
      <trkpt lat="44.62739" lon="-0.16524">
        <ele>82.8</ele>
        <time>2022-07-26T08:51:00Z</time>
      </trkpt>
      <trkpt lat="44.62741" lon="-0.16524">
        <ele>82.7</ele>
        <time>2022-07-26T08:51:01Z</time>
      </trkpt>
      <trkpt lat="44.62742" lon="-0.16524">
        <ele>82.7</ele>
        <time>2022-07-26T08:51:02Z</time>
      </trkpt>
      <trkpt lat="44.62744" lon="-0.16524">
        <ele>82.6</ele>
        <time>2022-07-26T08:51:03Z</time>
      </trkpt>
      <trkpt lat="44.62745" lon="-0.16524">
        <ele>82.6</ele>
        <time>2022-07-26T08:51:04Z</time>
      </trkpt>
      <trkpt lat="44.62746" lon="-0.16524">
        <ele>82.6</ele>
        <time>2022-07-26T08:51:05Z</time>
      </trkpt>
      <trkpt lat="44.62747" lon="-0.16524">
        <ele>82.6</ele>
        <time>2022-07-26T08:51:06Z</time>
      </trkpt>
      <trkpt lat="44.62749" lon="-0.16525">
        <ele>82.6</ele>
        <time>2022-07-26T08:51:07Z</time>
      </trkpt>
      <trkpt lat="44.62751" lon="-0.16525">
        <ele>82.5</ele>
        <time>2022-07-26T08:51:08Z</time>
      </trkpt>
      <trkpt lat="44.62751" lon="-0.16525">
        <ele>82.5</ele>
        <time>2022-07-26T08:51:09Z</time>
      </trkpt>
      <trkpt lat="44.62753" lon="-0.16526">
        <ele>82.4</ele>
        <time>2022-07-26T08:51:10Z</time>
      </trkpt>
      <trkpt lat="44.62754" lon="-0.16526">
        <ele>82.4</ele>
        <time>2022-07-26T08:51:11Z</time>
      </trkpt>
      <trkpt lat="44.62755" lon="-0.16526">
        <ele>82.4</ele>
        <time>2022-07-26T08:51:12Z</time>
      </trkpt>
      <trkpt lat="44.62757" lon="-0.16526">
        <ele>82.3</ele>
        <time>2022-07-26T08:51:13Z</time>
      </trkpt>
      <trkpt lat="44.62758" lon="-0.16526">
        <ele>82.3</ele>
        <time>2022-07-26T08:51:14Z</time>
      </trkpt>
      <trkpt lat="44.62759" lon="-0.16526">
        <ele>82.3</ele>
        <time>2022-07-26T08:51:15Z</time>
      </trkpt>
      <trkpt lat="44.62761" lon="-0.16526">
        <ele>82.3</ele>
        <time>2022-07-26T08:51:16Z</time>
      </trkpt>
      <trkpt lat="44.62762" lon="-0.16526">
        <ele>82.2</ele>
        <time>2022-07-26T08:51:17Z</time>
      </trkpt>
      <trkpt lat="44.62764" lon="-0.16526">
        <ele>82.2</ele>
        <time>2022-07-26T08:51:18Z</time>
      </trkpt>
      <trkpt lat="44.62766" lon="-0.16526">
        <ele>82.1</ele>
        <time>2022-07-26T08:51:20Z</time>
      </trkpt>
      <trkpt lat="44.62767" lon="-0.16526">
        <ele>82.1</ele>
        <time>2022-07-26T08:51:21Z</time>
      </trkpt>
      <trkpt lat="44.62768" lon="-0.16526">
        <ele>82.1</ele>
        <time>2022-07-26T08:51:22Z</time>
      </trkpt>
      <trkpt lat="44.6277" lon="-0.16526">
        <ele>82.1</ele>
        <time>2022-07-26T08:51:23Z</time>
      </trkpt>
      <trkpt lat="44.62771" lon="-0.16525">
        <ele>82.1</ele>
        <time>2022-07-26T08:51:24Z</time>
      </trkpt>
      <trkpt lat="44.62772" lon="-0.16525">
        <ele>82</ele>
        <time>2022-07-26T08:51:25Z</time>
      </trkpt>
      <trkpt lat="44.62774" lon="-0.16525">
        <ele>82</ele>
        <time>2022-07-26T08:51:26Z</time>
      </trkpt>
      <trkpt lat="44.62777" lon="-0.16524">
        <ele>81.9</ele>
        <time>2022-07-26T08:51:28Z</time>
      </trkpt>
      <trkpt lat="44.62777" lon="-0.16524">
        <ele>81.8</ele>
        <time>2022-07-26T08:51:29Z</time>
      </trkpt>
      <trkpt lat="44.6278" lon="-0.16524">
        <ele>81.8</ele>
        <time>2022-07-26T08:51:31Z</time>
      </trkpt>
      <trkpt lat="44.62781" lon="-0.16525">
        <ele>81.8</ele>
        <time>2022-07-26T08:51:32Z</time>
      </trkpt>
      <trkpt lat="44.62783" lon="-0.16525">
        <ele>81.8</ele>
        <time>2022-07-26T08:51:33Z</time>
      </trkpt>
      <trkpt lat="44.62784" lon="-0.16525">
        <ele>81.7</ele>
        <time>2022-07-26T08:51:34Z</time>
      </trkpt>
      <trkpt lat="44.62786" lon="-0.16526">
        <ele>81.7</ele>
        <time>2022-07-26T08:51:35Z</time>
      </trkpt>
      <trkpt lat="44.62787" lon="-0.16526">
        <ele>81.6</ele>
        <time>2022-07-26T08:51:36Z</time>
      </trkpt>
      <trkpt lat="44.6279" lon="-0.16526">
        <ele>81.5</ele>
        <time>2022-07-26T08:51:38Z</time>
      </trkpt>
      <trkpt lat="44.62791" lon="-0.16526">
        <ele>81.5</ele>
        <time>2022-07-26T08:51:39Z</time>
      </trkpt>
      <trkpt lat="44.62792" lon="-0.16526">
        <ele>81.5</ele>
        <time>2022-07-26T08:51:40Z</time>
      </trkpt>
      <trkpt lat="44.62794" lon="-0.16526">
        <ele>81.5</ele>
        <time>2022-07-26T08:51:41Z</time>
      </trkpt>
      <trkpt lat="44.62795" lon="-0.16525">
        <ele>81.5</ele>
        <time>2022-07-26T08:51:43Z</time>
      </trkpt>
      <trkpt lat="44.62796" lon="-0.16523">
        <ele>81.4</ele>
        <time>2022-07-26T08:51:44Z</time>
      </trkpt>
      <trkpt lat="44.62796" lon="-0.16521">
        <ele>81.3</ele>
        <time>2022-07-26T08:51:45Z</time>
      </trkpt>
      <trkpt lat="44.62795" lon="-0.1652">
        <ele>81.4</ele>
        <time>2022-07-26T08:51:46Z</time>
      </trkpt>
      <trkpt lat="44.62794" lon="-0.16519">
        <ele>81.4</ele>
        <time>2022-07-26T08:51:47Z</time>
      </trkpt>
      <trkpt lat="44.62791" lon="-0.1652">
        <ele>81.5</ele>
        <time>2022-07-26T08:51:48Z</time>
      </trkpt>
      <trkpt lat="44.62791" lon="-0.1652">
        <ele>81.5</ele>
        <time>2022-07-26T08:51:49Z</time>
      </trkpt>
      <trkpt lat="44.62788" lon="-0.16521">
        <ele>81.6</ele>
        <time>2022-07-26T08:51:51Z</time>
      </trkpt>
      <trkpt lat="44.62787" lon="-0.16521">
        <ele>81.6</ele>
        <time>2022-07-26T08:51:52Z</time>
      </trkpt>
      <trkpt lat="44.62784" lon="-0.16522">
        <ele>81.6</ele>
        <time>2022-07-26T08:51:53Z</time>
      </trkpt>
      <trkpt lat="44.62783" lon="-0.16522">
        <ele>81.7</ele>
        <time>2022-07-26T08:51:54Z</time>
      </trkpt>
      <trkpt lat="44.62781" lon="-0.16522">
        <ele>81.8</ele>
        <time>2022-07-26T08:51:55Z</time>
      </trkpt>
      <trkpt lat="44.62779" lon="-0.16522">
        <ele>81.8</ele>
        <time>2022-07-26T08:51:56Z</time>
      </trkpt>
      <trkpt lat="44.62776" lon="-0.16522">
        <ele>81.9</ele>
        <time>2022-07-26T08:51:58Z</time>
      </trkpt>
      <trkpt lat="44.62775" lon="-0.16521">
        <ele>81.9</ele>
        <time>2022-07-26T08:51:59Z</time>
      </trkpt>
      <trkpt lat="44.62773" lon="-0.1652">
        <ele>82</ele>
        <time>2022-07-26T08:52:00Z</time>
      </trkpt>
      <trkpt lat="44.62772" lon="-0.1652">
        <ele>82</ele>
        <time>2022-07-26T08:52:01Z</time>
      </trkpt>
      <trkpt lat="44.62771" lon="-0.16519">
        <ele>82</ele>
        <time>2022-07-26T08:52:02Z</time>
      </trkpt>
      <trkpt lat="44.62769" lon="-0.16519">
        <ele>82</ele>
        <time>2022-07-26T08:52:03Z</time>
      </trkpt>
      <trkpt lat="44.62768" lon="-0.16519">
        <ele>82.1</ele>
        <time>2022-07-26T08:52:05Z</time>
      </trkpt>
      <trkpt lat="44.62765" lon="-0.16519">
        <ele>82.2</ele>
        <time>2022-07-26T08:52:06Z</time>
      </trkpt>
      <trkpt lat="44.62764" lon="-0.16519">
        <ele>82.2</ele>
        <time>2022-07-26T08:52:07Z</time>
      </trkpt>
      <trkpt lat="44.62761" lon="-0.16519">
        <ele>82.2</ele>
        <time>2022-07-26T08:52:08Z</time>
      </trkpt>
      <trkpt lat="44.6276" lon="-0.16519">
        <ele>82.2</ele>
        <time>2022-07-26T08:52:09Z</time>
      </trkpt>
      <trkpt lat="44.6276" lon="-0.16518">
        <ele>82.2</ele>
        <time>2022-07-26T08:52:10Z</time>
      </trkpt>
      <trkpt lat="44.62759" lon="-0.16518">
        <ele>82.3</ele>
        <time>2022-07-26T08:52:11Z</time>
      </trkpt>
      <trkpt lat="44.62757" lon="-0.16516">
        <ele>82.3</ele>
        <time>2022-07-26T08:52:12Z</time>
      </trkpt>
      <trkpt lat="44.62756" lon="-0.16515">
        <ele>82.3</ele>
        <time>2022-07-26T08:52:13Z</time>
      </trkpt>
      <trkpt lat="44.62755" lon="-0.16514">
        <ele>82.3</ele>
        <time>2022-07-26T08:52:15Z</time>
      </trkpt>
      <trkpt lat="44.62754" lon="-0.16513">
        <ele>82.3</ele>
        <time>2022-07-26T08:52:16Z</time>
      </trkpt>
      <trkpt lat="44.62753" lon="-0.16512">
        <ele>82.3</ele>
        <time>2022-07-26T08:52:17Z</time>
      </trkpt>
      <trkpt lat="44.62753" lon="-0.1651">
        <ele>82.3</ele>
        <time>2022-07-26T08:52:18Z</time>
      </trkpt>
      <trkpt lat="44.62753" lon="-0.16508">
        <ele>82.3</ele>
        <time>2022-07-26T08:52:19Z</time>
      </trkpt>
      <trkpt lat="44.62753" lon="-0.16506">
        <ele>82.3</ele>
        <time>2022-07-26T08:52:20Z</time>
      </trkpt>
      <trkpt lat="44.62753" lon="-0.16504">
        <ele>82.3</ele>
        <time>2022-07-26T08:52:21Z</time>
      </trkpt>
      <trkpt lat="44.62753" lon="-0.16501">
        <ele>82.3</ele>
        <time>2022-07-26T08:52:22Z</time>
      </trkpt>
      <trkpt lat="44.62753" lon="-0.16499">
        <ele>82.2</ele>
        <time>2022-07-26T08:52:23Z</time>
      </trkpt>
      <trkpt lat="44.62753" lon="-0.16497">
        <ele>82.3</ele>
        <time>2022-07-26T08:52:24Z</time>
      </trkpt>
      <trkpt lat="44.62752" lon="-0.16494">
        <ele>82.3</ele>
        <time>2022-07-26T08:52:25Z</time>
      </trkpt>
      <trkpt lat="44.62752" lon="-0.16493">
        <ele>82.3</ele>
        <time>2022-07-26T08:52:26Z</time>
      </trkpt>
      <trkpt lat="44.62752" lon="-0.1649">
        <ele>82.3</ele>
        <time>2022-07-26T08:52:28Z</time>
      </trkpt>
      <trkpt lat="44.62752" lon="-0.16488">
        <ele>82.3</ele>
        <time>2022-07-26T08:52:29Z</time>
      </trkpt>
      <trkpt lat="44.62752" lon="-0.16485">
        <ele>82.2</ele>
        <time>2022-07-26T08:52:30Z</time>
      </trkpt>
      <trkpt lat="44.62752" lon="-0.16484">
        <ele>82.2</ele>
        <time>2022-07-26T08:52:31Z</time>
      </trkpt>
      <trkpt lat="44.62752" lon="-0.16483">
        <ele>82.2</ele>
        <time>2022-07-26T08:52:32Z</time>
      </trkpt>
      <trkpt lat="44.62752" lon="-0.16481">
        <ele>82.2</ele>
        <time>2022-07-26T08:52:33Z</time>
      </trkpt>
      <trkpt lat="44.62752" lon="-0.16477">
        <ele>82.1</ele>
        <time>2022-07-26T08:52:35Z</time>
      </trkpt>
      <trkpt lat="44.62752" lon="-0.16475">
        <ele>82.1</ele>
        <time>2022-07-26T08:52:36Z</time>
      </trkpt>
      <trkpt lat="44.62753" lon="-0.16473">
        <ele>82.1</ele>
        <time>2022-07-26T08:52:37Z</time>
      </trkpt>
      <trkpt lat="44.62753" lon="-0.16471">
        <ele>82</ele>
        <time>2022-07-26T08:52:39Z</time>
      </trkpt>
      <trkpt lat="44.62753" lon="-0.16467">
        <ele>82</ele>
        <time>2022-07-26T08:52:40Z</time>
      </trkpt>
      <trkpt lat="44.62753" lon="-0.16465">
        <ele>81.9</ele>
        <time>2022-07-26T08:52:42Z</time>
      </trkpt>
      <trkpt lat="44.62754" lon="-0.16463">
        <ele>81.9</ele>
        <time>2022-07-26T08:52:43Z</time>
      </trkpt>
      <trkpt lat="44.62754" lon="-0.1646">
        <ele>81.9</ele>
        <time>2022-07-26T08:52:44Z</time>
      </trkpt>
      <trkpt lat="44.62754" lon="-0.16458">
        <ele>81.9</ele>
        <time>2022-07-26T08:52:45Z</time>
      </trkpt>
      <trkpt lat="44.62754" lon="-0.16455">
        <ele>81.8</ele>
        <time>2022-07-26T08:52:47Z</time>
      </trkpt>
      <trkpt lat="44.62754" lon="-0.16454">
        <ele>81.8</ele>
        <time>2022-07-26T08:52:48Z</time>
      </trkpt>
      <trkpt lat="44.62754" lon="-0.16453">
        <ele>81.8</ele>
        <time>2022-07-26T08:52:49Z</time>
      </trkpt>
      <trkpt lat="44.62753" lon="-0.16451">
        <ele>81.8</ele>
        <time>2022-07-26T08:52:50Z</time>
      </trkpt>
      <trkpt lat="44.62752" lon="-0.1645">
        <ele>81.9</ele>
        <time>2022-07-26T08:52:51Z</time>
      </trkpt>
      <trkpt lat="44.62749" lon="-0.16448">
        <ele>81.9</ele>
        <time>2022-07-26T08:52:53Z</time>
      </trkpt>
      <trkpt lat="44.62748" lon="-0.16448">
        <ele>81.9</ele>
        <time>2022-07-26T08:52:54Z</time>
      </trkpt>
      <trkpt lat="44.62746" lon="-0.16448">
        <ele>82</ele>
        <time>2022-07-26T08:52:55Z</time>
      </trkpt>
      <trkpt lat="44.62744" lon="-0.16448">
        <ele>82</ele>
        <time>2022-07-26T08:52:57Z</time>
      </trkpt>
      <trkpt lat="44.62742" lon="-0.16448">
        <ele>82.1</ele>
        <time>2022-07-26T08:52:58Z</time>
      </trkpt>
      <trkpt lat="44.62741" lon="-0.16448">
        <ele>82.1</ele>
        <time>2022-07-26T08:52:59Z</time>
      </trkpt>
      <trkpt lat="44.62738" lon="-0.16448">
        <ele>82.2</ele>
        <time>2022-07-26T08:53:01Z</time>
      </trkpt>
      <trkpt lat="44.62737" lon="-0.16447">
        <ele>82.2</ele>
        <time>2022-07-26T08:53:02Z</time>
      </trkpt>
      <trkpt lat="44.62736" lon="-0.16447">
        <ele>82.2</ele>
        <time>2022-07-26T08:53:03Z</time>
      </trkpt>
      <trkpt lat="44.62735" lon="-0.16446">
        <ele>82.2</ele>
        <time>2022-07-26T08:53:04Z</time>
      </trkpt>
      <trkpt lat="44.62732" lon="-0.16446">
        <ele>82.3</ele>
        <time>2022-07-26T08:53:06Z</time>
      </trkpt>
      <trkpt lat="44.62732" lon="-0.16446">
        <ele>82.3</ele>
        <time>2022-07-26T08:53:07Z</time>
      </trkpt>
      <trkpt lat="44.6273" lon="-0.16446">
        <ele>82.4</ele>
        <time>2022-07-26T08:53:08Z</time>
      </trkpt>
      <trkpt lat="44.62729" lon="-0.16445">
        <ele>82.3</ele>
        <time>2022-07-26T08:53:09Z</time>
      </trkpt>
      <trkpt lat="44.62729" lon="-0.16443">
        <ele>82.3</ele>
        <time>2022-07-26T08:53:11Z</time>
      </trkpt>
      <trkpt lat="44.6273" lon="-0.16441">
        <ele>82.3</ele>
        <time>2022-07-26T08:53:12Z</time>
      </trkpt>
      <trkpt lat="44.62732" lon="-0.16438">
        <ele>82.2</ele>
        <time>2022-07-26T08:53:13Z</time>
      </trkpt>
      <trkpt lat="44.62735" lon="-0.16436">
        <ele>82.1</ele>
        <time>2022-07-26T08:53:16Z</time>
      </trkpt>
      <trkpt lat="44.62737" lon="-0.16435">
        <ele>82.1</ele>
        <time>2022-07-26T08:53:17Z</time>
      </trkpt>
      <trkpt lat="44.62738" lon="-0.16433">
        <ele>82</ele>
        <time>2022-07-26T08:53:18Z</time>
      </trkpt>
      <trkpt lat="44.62739" lon="-0.16432">
        <ele>82</ele>
        <time>2022-07-26T08:53:19Z</time>
      </trkpt>
      <trkpt lat="44.6274" lon="-0.16429">
        <ele>82</ele>
        <time>2022-07-26T08:53:20Z</time>
      </trkpt>
      <trkpt lat="44.6274" lon="-0.16427">
        <ele>81.9</ele>
        <time>2022-07-26T08:53:22Z</time>
      </trkpt>
      <trkpt lat="44.62741" lon="-0.16425">
        <ele>81.9</ele>
        <time>2022-07-26T08:53:23Z</time>
      </trkpt>
      <trkpt lat="44.62741" lon="-0.16424">
        <ele>81.9</ele>
        <time>2022-07-26T08:53:24Z</time>
      </trkpt>
      <trkpt lat="44.62741" lon="-0.16421">
        <ele>81.8</ele>
        <time>2022-07-26T08:53:26Z</time>
      </trkpt>
      <trkpt lat="44.62741" lon="-0.16419">
        <ele>81.8</ele>
        <time>2022-07-26T08:53:27Z</time>
      </trkpt>
      <trkpt lat="44.62741" lon="-0.16418">
        <ele>81.8</ele>
        <time>2022-07-26T08:53:28Z</time>
      </trkpt>
      <trkpt lat="44.62741" lon="-0.16417">
        <ele>81.8</ele>
        <time>2022-07-26T08:53:29Z</time>
      </trkpt>
      <trkpt lat="44.62741" lon="-0.16414">
        <ele>81.8</ele>
        <time>2022-07-26T08:53:30Z</time>
      </trkpt>
      <trkpt lat="44.62741" lon="-0.16413">
        <ele>81.8</ele>
        <time>2022-07-26T08:53:31Z</time>
      </trkpt>
      <trkpt lat="44.62741" lon="-0.16411">
        <ele>81.8</ele>
        <time>2022-07-26T08:53:32Z</time>
      </trkpt>
      <trkpt lat="44.62741" lon="-0.1641">
        <ele>81.8</ele>
        <time>2022-07-26T08:53:33Z</time>
      </trkpt>
      <trkpt lat="44.62741" lon="-0.16408">
        <ele>81.8</ele>
        <time>2022-07-26T08:53:34Z</time>
      </trkpt>
      <trkpt lat="44.62741" lon="-0.16405">
        <ele>81.8</ele>
        <time>2022-07-26T08:53:36Z</time>
      </trkpt>
      <trkpt lat="44.62741" lon="-0.16404">
        <ele>81.8</ele>
        <time>2022-07-26T08:53:37Z</time>
      </trkpt>
      <trkpt lat="44.62741" lon="-0.16402">
        <ele>81.8</ele>
        <time>2022-07-26T08:53:38Z</time>
      </trkpt>
      <trkpt lat="44.62741" lon="-0.16401">
        <ele>81.8</ele>
        <time>2022-07-26T08:53:39Z</time>
      </trkpt>
      <trkpt lat="44.62741" lon="-0.16398">
        <ele>81.8</ele>
        <time>2022-07-26T08:53:40Z</time>
      </trkpt>
      <trkpt lat="44.62741" lon="-0.16397">
        <ele>81.8</ele>
        <time>2022-07-26T08:53:41Z</time>
      </trkpt>
      <trkpt lat="44.62741" lon="-0.16394">
        <ele>81.8</ele>
        <time>2022-07-26T08:53:43Z</time>
      </trkpt>
      <trkpt lat="44.62741" lon="-0.16393">
        <ele>81.8</ele>
        <time>2022-07-26T08:53:44Z</time>
      </trkpt>
      <trkpt lat="44.62741" lon="-0.16389">
        <ele>81.9</ele>
        <time>2022-07-26T08:53:46Z</time>
      </trkpt>
      <trkpt lat="44.62741" lon="-0.16388">
        <ele>81.9</ele>
        <time>2022-07-26T08:53:47Z</time>
      </trkpt>
      <trkpt lat="44.62741" lon="-0.16385">
        <ele>81.9</ele>
        <time>2022-07-26T08:53:48Z</time>
      </trkpt>
      <trkpt lat="44.62741" lon="-0.16384">
        <ele>81.9</ele>
        <time>2022-07-26T08:53:49Z</time>
      </trkpt>
      <trkpt lat="44.62741" lon="-0.16383">
        <ele>81.9</ele>
        <time>2022-07-26T08:53:50Z</time>
      </trkpt>
      <trkpt lat="44.62741" lon="-0.16379">
        <ele>81.9</ele>
        <time>2022-07-26T08:53:51Z</time>
      </trkpt>
      <trkpt lat="44.62741" lon="-0.16377">
        <ele>81.9</ele>
        <time>2022-07-26T08:53:53Z</time>
      </trkpt>
      <trkpt lat="44.62741" lon="-0.16376">
        <ele>82</ele>
        <time>2022-07-26T08:53:54Z</time>
      </trkpt>
      <trkpt lat="44.62741" lon="-0.16375">
        <ele>82</ele>
        <time>2022-07-26T08:53:55Z</time>
      </trkpt>
      <trkpt lat="44.62741" lon="-0.16373">
        <ele>82</ele>
        <time>2022-07-26T08:53:56Z</time>
      </trkpt>
      <trkpt lat="44.62741" lon="-0.16372">
        <ele>82.1</ele>
        <time>2022-07-26T08:53:57Z</time>
      </trkpt>
      <trkpt lat="44.62742" lon="-0.16371">
        <ele>82.1</ele>
        <time>2022-07-26T08:53:58Z</time>
      </trkpt>
      <trkpt lat="44.62742" lon="-0.16369">
        <ele>82.1</ele>
        <time>2022-07-26T08:53:59Z</time>
      </trkpt>
      <trkpt lat="44.62742" lon="-0.16367">
        <ele>82.1</ele>
        <time>2022-07-26T08:54:00Z</time>
      </trkpt>
      <trkpt lat="44.62743" lon="-0.16365">
        <ele>82.1</ele>
        <time>2022-07-26T08:54:01Z</time>
      </trkpt>
      <trkpt lat="44.62743" lon="-0.16364">
        <ele>82.1</ele>
        <time>2022-07-26T08:54:02Z</time>
      </trkpt>
      <trkpt lat="44.62744" lon="-0.16363">
        <ele>82.1</ele>
        <time>2022-07-26T08:54:04Z</time>
      </trkpt>
      <trkpt lat="44.62745" lon="-0.16361">
        <ele>82.1</ele>
        <time>2022-07-26T08:54:05Z</time>
      </trkpt>
      <trkpt lat="44.62746" lon="-0.1636">
        <ele>82.1</ele>
        <time>2022-07-26T08:54:06Z</time>
      </trkpt>
      <trkpt lat="44.62745" lon="-0.1636">
        <ele>82.1</ele>
        <time>2022-07-26T08:54:07Z</time>
      </trkpt>
      <trkpt lat="44.62745" lon="-0.16361">
        <ele>82.1</ele>
        <time>2022-07-26T08:54:08Z</time>
      </trkpt>
      <trkpt lat="44.62744" lon="-0.16361">
        <ele>82.1</ele>
        <time>2022-07-26T08:54:09Z</time>
      </trkpt>
      <trkpt lat="44.62744" lon="-0.16362">
        <ele>82.1</ele>
        <time>2022-07-26T08:54:10Z</time>
      </trkpt>
      <trkpt lat="44.62743" lon="-0.16362">
        <ele>82.2</ele>
        <time>2022-07-26T08:54:11Z</time>
      </trkpt>
      <trkpt lat="44.62743" lon="-0.16362">
        <ele>82.2</ele>
        <time>2022-07-26T08:54:12Z</time>
      </trkpt>
      <trkpt lat="44.62742" lon="-0.16363">
        <ele>82.2</ele>
        <time>2022-07-26T08:54:13Z</time>
      </trkpt>
      <trkpt lat="44.62742" lon="-0.16363">
        <ele>82.2</ele>
        <time>2022-07-26T08:54:14Z</time>
      </trkpt>
      <trkpt lat="44.62742" lon="-0.16364">
        <ele>82.1</ele>
        <time>2022-07-26T08:54:15Z</time>
      </trkpt>
      <trkpt lat="44.62737" lon="-0.16363">
        <ele>82.3</ele>
        <time>2022-07-26T08:54:17Z</time>
      </trkpt>
      <trkpt lat="44.62735" lon="-0.16363">
        <ele>82.3</ele>
        <time>2022-07-26T08:54:18Z</time>
      </trkpt>
      <trkpt lat="44.62734" lon="-0.16362">
        <ele>82.4</ele>
        <time>2022-07-26T08:54:19Z</time>
      </trkpt>
      <trkpt lat="44.62731" lon="-0.16361">
        <ele>82.5</ele>
        <time>2022-07-26T08:54:20Z</time>
      </trkpt>
      <trkpt lat="44.6273" lon="-0.1636">
        <ele>82.5</ele>
        <time>2022-07-26T08:54:22Z</time>
      </trkpt>
      <trkpt lat="44.62729" lon="-0.1636">
        <ele>82.5</ele>
        <time>2022-07-26T08:54:23Z</time>
      </trkpt>
      <trkpt lat="44.62728" lon="-0.1636">
        <ele>82.6</ele>
        <time>2022-07-26T08:54:24Z</time>
      </trkpt>
      <trkpt lat="44.62726" lon="-0.16359">
        <ele>82.6</ele>
        <time>2022-07-26T08:54:25Z</time>
      </trkpt>
      <trkpt lat="44.62725" lon="-0.16358">
        <ele>82.6</ele>
        <time>2022-07-26T08:54:26Z</time>
      </trkpt>
      <trkpt lat="44.62724" lon="-0.16358">
        <ele>82.7</ele>
        <time>2022-07-26T08:54:27Z</time>
      </trkpt>
      <trkpt lat="44.62722" lon="-0.16356">
        <ele>82.8</ele>
        <time>2022-07-26T08:54:29Z</time>
      </trkpt>
      <trkpt lat="44.62721" lon="-0.16356">
        <ele>82.8</ele>
        <time>2022-07-26T08:54:30Z</time>
      </trkpt>
      <trkpt lat="44.62719" lon="-0.16355">
        <ele>82.9</ele>
        <time>2022-07-26T08:54:31Z</time>
      </trkpt>
      <trkpt lat="44.62718" lon="-0.16355">
        <ele>82.9</ele>
        <time>2022-07-26T08:54:32Z</time>
      </trkpt>
      <trkpt lat="44.62715" lon="-0.16355">
        <ele>82.9</ele>
        <time>2022-07-26T08:54:34Z</time>
      </trkpt>
      <trkpt lat="44.62714" lon="-0.16355">
        <ele>82.9</ele>
        <time>2022-07-26T08:54:35Z</time>
      </trkpt>
      <trkpt lat="44.62711" lon="-0.16355">
        <ele>83.1</ele>
        <time>2022-07-26T08:54:36Z</time>
      </trkpt>
      <trkpt lat="44.62711" lon="-0.16355">
        <ele>83.1</ele>
        <time>2022-07-26T08:54:37Z</time>
      </trkpt>
      <trkpt lat="44.62708" lon="-0.16354">
        <ele>83.1</ele>
        <time>2022-07-26T08:54:39Z</time>
      </trkpt>
      <trkpt lat="44.62707" lon="-0.16354">
        <ele>83.1</ele>
        <time>2022-07-26T08:54:40Z</time>
      </trkpt>
      <trkpt lat="44.62706" lon="-0.16354">
        <ele>83.2</ele>
        <time>2022-07-26T08:54:41Z</time>
      </trkpt>
      <trkpt lat="44.62705" lon="-0.16354">
        <ele>83.2</ele>
        <time>2022-07-26T08:54:42Z</time>
      </trkpt>
      <trkpt lat="44.62704" lon="-0.16354">
        <ele>83.3</ele>
        <time>2022-07-26T08:54:43Z</time>
      </trkpt>
      <trkpt lat="44.62703" lon="-0.16352">
        <ele>83.3</ele>
        <time>2022-07-26T08:54:44Z</time>
      </trkpt>
      <trkpt lat="44.62701" lon="-0.16351">
        <ele>83.3</ele>
        <time>2022-07-26T08:54:46Z</time>
      </trkpt>
      <trkpt lat="44.62699" lon="-0.1635">
        <ele>83.4</ele>
        <time>2022-07-26T08:54:47Z</time>
      </trkpt>
      <trkpt lat="44.62697" lon="-0.1635">
        <ele>83.5</ele>
        <time>2022-07-26T08:54:48Z</time>
      </trkpt>
      <trkpt lat="44.62695" lon="-0.16349">
        <ele>83.5</ele>
        <time>2022-07-26T08:54:49Z</time>
      </trkpt>
      <trkpt lat="44.62695" lon="-0.16349">
        <ele>83.5</ele>
        <time>2022-07-26T08:54:50Z</time>
      </trkpt>
      <trkpt lat="44.62694" lon="-0.16349">
        <ele>83.5</ele>
        <time>2022-07-26T08:54:51Z</time>
      </trkpt>
      <trkpt lat="44.62692" lon="-0.16348">
        <ele>83.5</ele>
        <time>2022-07-26T08:54:52Z</time>
      </trkpt>
      <trkpt lat="44.62691" lon="-0.16348">
        <ele>83.6</ele>
        <time>2022-07-26T08:54:53Z</time>
      </trkpt>
      <trkpt lat="44.62689" lon="-0.16347">
        <ele>83.6</ele>
        <time>2022-07-26T08:54:54Z</time>
      </trkpt>
      <trkpt lat="44.62687" lon="-0.16346">
        <ele>83.7</ele>
        <time>2022-07-26T08:54:55Z</time>
      </trkpt>
      <trkpt lat="44.62685" lon="-0.16345">
        <ele>83.8</ele>
        <time>2022-07-26T08:54:56Z</time>
      </trkpt>
      <trkpt lat="44.62684" lon="-0.16345">
        <ele>83.8</ele>
        <time>2022-07-26T08:54:58Z</time>
      </trkpt>
      <trkpt lat="44.62683" lon="-0.16344">
        <ele>83.8</ele>
        <time>2022-07-26T08:54:59Z</time>
      </trkpt>
      <trkpt lat="44.62682" lon="-0.16344">
        <ele>83.9</ele>
        <time>2022-07-26T08:55:00Z</time>
      </trkpt>
      <trkpt lat="44.6268" lon="-0.16344">
        <ele>83.9</ele>
        <time>2022-07-26T08:55:01Z</time>
      </trkpt>
      <trkpt lat="44.62679" lon="-0.16344">
        <ele>83.9</ele>
        <time>2022-07-26T08:55:02Z</time>
      </trkpt>
      <trkpt lat="44.62678" lon="-0.16343">
        <ele>83.9</ele>
        <time>2022-07-26T08:55:03Z</time>
      </trkpt>
      <trkpt lat="44.62675" lon="-0.16342">
        <ele>84</ele>
        <time>2022-07-26T08:55:04Z</time>
      </trkpt>
      <trkpt lat="44.62675" lon="-0.16342">
        <ele>84.1</ele>
        <time>2022-07-26T08:55:05Z</time>
      </trkpt>
      <trkpt lat="44.62674" lon="-0.16342">
        <ele>84.1</ele>
        <time>2022-07-26T08:55:06Z</time>
      </trkpt>
      <trkpt lat="44.62672" lon="-0.16341">
        <ele>84.1</ele>
        <time>2022-07-26T08:55:07Z</time>
      </trkpt>
      <trkpt lat="44.62671" lon="-0.1634">
        <ele>84.1</ele>
        <time>2022-07-26T08:55:08Z</time>
      </trkpt>
      <trkpt lat="44.62668" lon="-0.16339">
        <ele>84.2</ele>
        <time>2022-07-26T08:55:10Z</time>
      </trkpt>
      <trkpt lat="44.62667" lon="-0.16339">
        <ele>84.2</ele>
        <time>2022-07-26T08:55:11Z</time>
      </trkpt>
      <trkpt lat="44.62666" lon="-0.16338">
        <ele>84.3</ele>
        <time>2022-07-26T08:55:12Z</time>
      </trkpt>
      <trkpt lat="44.62664" lon="-0.16338">
        <ele>84.4</ele>
        <time>2022-07-26T08:55:13Z</time>
      </trkpt>
      <trkpt lat="44.62662" lon="-0.16337">
        <ele>84.4</ele>
        <time>2022-07-26T08:55:15Z</time>
      </trkpt>
      <trkpt lat="44.6266" lon="-0.16337">
        <ele>84.5</ele>
        <time>2022-07-26T08:55:16Z</time>
      </trkpt>
      <trkpt lat="44.62659" lon="-0.16337">
        <ele>84.5</ele>
        <time>2022-07-26T08:55:17Z</time>
      </trkpt>
      <trkpt lat="44.62657" lon="-0.16336">
        <ele>84.6</ele>
        <time>2022-07-26T08:55:18Z</time>
      </trkpt>
      <trkpt lat="44.62656" lon="-0.16336">
        <ele>84.6</ele>
        <time>2022-07-26T08:55:19Z</time>
      </trkpt>
      <trkpt lat="44.62655" lon="-0.16335">
        <ele>84.6</ele>
        <time>2022-07-26T08:55:20Z</time>
      </trkpt>
      <trkpt lat="44.62654" lon="-0.16335">
        <ele>84.7</ele>
        <time>2022-07-26T08:55:21Z</time>
      </trkpt>
      <trkpt lat="44.62653" lon="-0.16334">
        <ele>84.7</ele>
        <time>2022-07-26T08:55:22Z</time>
      </trkpt>
      <trkpt lat="44.62651" lon="-0.16333">
        <ele>84.8</ele>
        <time>2022-07-26T08:55:23Z</time>
      </trkpt>
      <trkpt lat="44.6265" lon="-0.16333">
        <ele>84.8</ele>
        <time>2022-07-26T08:55:24Z</time>
      </trkpt>
      <trkpt lat="44.62649" lon="-0.16333">
        <ele>84.8</ele>
        <time>2022-07-26T08:55:25Z</time>
      </trkpt>
      <trkpt lat="44.62648" lon="-0.16332">
        <ele>84.9</ele>
        <time>2022-07-26T08:55:27Z</time>
      </trkpt>
      <trkpt lat="44.62646" lon="-0.1633">
        <ele>84.9</ele>
        <time>2022-07-26T08:55:28Z</time>
      </trkpt>
      <trkpt lat="44.62646" lon="-0.16329">
        <ele>84.9</ele>
        <time>2022-07-26T08:55:29Z</time>
      </trkpt>
      <trkpt lat="44.62646" lon="-0.16328">
        <ele>84.9</ele>
        <time>2022-07-26T08:55:30Z</time>
      </trkpt>
      <trkpt lat="44.62647" lon="-0.16329">
        <ele>84.9</ele>
        <time>2022-07-26T08:55:31Z</time>
      </trkpt>
      <trkpt lat="44.62647" lon="-0.16331">
        <ele>84.9</ele>
        <time>2022-07-26T08:55:32Z</time>
      </trkpt>
      <trkpt lat="44.62647" lon="-0.16332">
        <ele>84.9</ele>
        <time>2022-07-26T08:55:34Z</time>
      </trkpt>
      <trkpt lat="44.62648" lon="-0.16333">
        <ele>84.9</ele>
        <time>2022-07-26T08:55:35Z</time>
      </trkpt>
      <trkpt lat="44.62649" lon="-0.16331">
        <ele>84.8</ele>
        <time>2022-07-26T08:55:36Z</time>
      </trkpt>
      <trkpt lat="44.6265" lon="-0.1633">
        <ele>84.8</ele>
        <time>2022-07-26T08:55:37Z</time>
      </trkpt>
      <trkpt lat="44.6265" lon="-0.16329">
        <ele>84.8</ele>
        <time>2022-07-26T08:55:38Z</time>
      </trkpt>
      <trkpt lat="44.62651" lon="-0.16324">
        <ele>84.9</ele>
        <time>2022-07-26T08:55:39Z</time>
      </trkpt>
      <trkpt lat="44.62651" lon="-0.1632">
        <ele>84.9</ele>
        <time>2022-07-26T08:55:40Z</time>
      </trkpt>
      <trkpt lat="44.62652" lon="-0.16316">
        <ele>84.9</ele>
        <time>2022-07-26T08:55:42Z</time>
      </trkpt>
      <trkpt lat="44.62652" lon="-0.16315">
        <ele>84.9</ele>
        <time>2022-07-26T08:55:43Z</time>
      </trkpt>
      <trkpt lat="44.62651" lon="-0.16313">
        <ele>84.9</ele>
        <time>2022-07-26T08:55:44Z</time>
      </trkpt>
      <trkpt lat="44.62651" lon="-0.1631">
        <ele>84.9</ele>
        <time>2022-07-26T08:55:45Z</time>
      </trkpt>
      <trkpt lat="44.6265" lon="-0.16308">
        <ele>84.9</ele>
        <time>2022-07-26T08:55:46Z</time>
      </trkpt>
      <trkpt lat="44.62649" lon="-0.16306">
        <ele>85</ele>
        <time>2022-07-26T08:55:48Z</time>
      </trkpt>
      <trkpt lat="44.62648" lon="-0.16304">
        <ele>85</ele>
        <time>2022-07-26T08:55:49Z</time>
      </trkpt>
      <trkpt lat="44.62646" lon="-0.16302">
        <ele>85</ele>
        <time>2022-07-26T08:55:50Z</time>
      </trkpt>
      <trkpt lat="44.62644" lon="-0.163">
        <ele>85.1</ele>
        <time>2022-07-26T08:55:52Z</time>
      </trkpt>
      <trkpt lat="44.62642" lon="-0.163">
        <ele>85.2</ele>
        <time>2022-07-26T08:55:53Z</time>
      </trkpt>
      <trkpt lat="44.6264" lon="-0.16301">
        <ele>85.2</ele>
        <time>2022-07-26T08:55:54Z</time>
      </trkpt>
      <trkpt lat="44.62638" lon="-0.16301">
        <ele>85.3</ele>
        <time>2022-07-26T08:55:55Z</time>
      </trkpt>
      <trkpt lat="44.62637" lon="-0.16302">
        <ele>85.3</ele>
        <time>2022-07-26T08:55:56Z</time>
      </trkpt>
      <trkpt lat="44.62635" lon="-0.16302">
        <ele>85.4</ele>
        <time>2022-07-26T08:55:57Z</time>
      </trkpt>
      <trkpt lat="44.62633" lon="-0.16303">
        <ele>85.6</ele>
        <time>2022-07-26T08:55:58Z</time>
      </trkpt>
      <trkpt lat="44.62632" lon="-0.16303">
        <ele>85.5</ele>
        <time>2022-07-26T08:55:59Z</time>
      </trkpt>
      <trkpt lat="44.6263" lon="-0.16302">
        <ele>85.7</ele>
        <time>2022-07-26T08:56:00Z</time>
      </trkpt>
      <trkpt lat="44.62628" lon="-0.16302">
        <ele>85.7</ele>
        <time>2022-07-26T08:56:01Z</time>
      </trkpt>
      <trkpt lat="44.62627" lon="-0.16302">
        <ele>85.8</ele>
        <time>2022-07-26T08:56:02Z</time>
      </trkpt>
      <trkpt lat="44.62625" lon="-0.16302">
        <ele>85.8</ele>
        <time>2022-07-26T08:56:03Z</time>
      </trkpt>
      <trkpt lat="44.62623" lon="-0.16302">
        <ele>85.9</ele>
        <time>2022-07-26T08:56:05Z</time>
      </trkpt>
      <trkpt lat="44.62621" lon="-0.16303">
        <ele>86</ele>
        <time>2022-07-26T08:56:07Z</time>
      </trkpt>
      <trkpt lat="44.6262" lon="-0.16303">
        <ele>86</ele>
        <time>2022-07-26T08:56:08Z</time>
      </trkpt>
      <trkpt lat="44.62619" lon="-0.16304">
        <ele>86</ele>
        <time>2022-07-26T08:56:09Z</time>
      </trkpt>
      <trkpt lat="44.62617" lon="-0.16304">
        <ele>86.1</ele>
        <time>2022-07-26T08:56:10Z</time>
      </trkpt>
      <trkpt lat="44.62616" lon="-0.16305">
        <ele>86.1</ele>
        <time>2022-07-26T08:56:11Z</time>
      </trkpt>
      <trkpt lat="44.62614" lon="-0.16305">
        <ele>86.2</ele>
        <time>2022-07-26T08:56:12Z</time>
      </trkpt>
      <trkpt lat="44.62613" lon="-0.16305">
        <ele>86.2</ele>
        <time>2022-07-26T08:56:13Z</time>
      </trkpt>
      <trkpt lat="44.62612" lon="-0.16306">
        <ele>86.3</ele>
        <time>2022-07-26T08:56:14Z</time>
      </trkpt>
      <trkpt lat="44.62611" lon="-0.16306">
        <ele>86.3</ele>
        <time>2022-07-26T08:56:15Z</time>
      </trkpt>
      <trkpt lat="44.62608" lon="-0.16306">
        <ele>86.5</ele>
        <time>2022-07-26T08:56:16Z</time>
      </trkpt>
      <trkpt lat="44.62608" lon="-0.16307">
        <ele>86.5</ele>
        <time>2022-07-26T08:56:17Z</time>
      </trkpt>
      <trkpt lat="44.62607" lon="-0.16307">
        <ele>86.5</ele>
        <time>2022-07-26T08:56:18Z</time>
      </trkpt>
      <trkpt lat="44.62605" lon="-0.16307">
        <ele>86.6</ele>
        <time>2022-07-26T08:56:19Z</time>
      </trkpt>
      <trkpt lat="44.62602" lon="-0.16307">
        <ele>86.7</ele>
        <time>2022-07-26T08:56:21Z</time>
      </trkpt>
      <trkpt lat="44.62602" lon="-0.16308">
        <ele>86.7</ele>
        <time>2022-07-26T08:56:22Z</time>
      </trkpt>
      <trkpt lat="44.62601" lon="-0.16308">
        <ele>86.6</ele>
        <time>2022-07-26T08:56:23Z</time>
      </trkpt>
      <trkpt lat="44.62599" lon="-0.16308">
        <ele>86.8</ele>
        <time>2022-07-26T08:56:24Z</time>
      </trkpt>
      <trkpt lat="44.62598" lon="-0.16309">
        <ele>86.8</ele>
        <time>2022-07-26T08:56:25Z</time>
      </trkpt>
      <trkpt lat="44.62596" lon="-0.16309">
        <ele>86.9</ele>
        <time>2022-07-26T08:56:26Z</time>
      </trkpt>
      <trkpt lat="44.62595" lon="-0.16309">
        <ele>86.9</ele>
        <time>2022-07-26T08:56:27Z</time>
      </trkpt>
      <trkpt lat="44.62594" lon="-0.16309">
        <ele>86.9</ele>
        <time>2022-07-26T08:56:28Z</time>
      </trkpt>
      <trkpt lat="44.62593" lon="-0.16309">
        <ele>86.9</ele>
        <time>2022-07-26T08:56:29Z</time>
      </trkpt>
      <trkpt lat="44.6259" lon="-0.1631">
        <ele>87</ele>
        <time>2022-07-26T08:56:30Z</time>
      </trkpt>
      <trkpt lat="44.62589" lon="-0.1631">
        <ele>87</ele>
        <time>2022-07-26T08:56:31Z</time>
      </trkpt>
      <trkpt lat="44.62588" lon="-0.1631">
        <ele>87</ele>
        <time>2022-07-26T08:56:32Z</time>
      </trkpt>
      <trkpt lat="44.62587" lon="-0.1631">
        <ele>87.1</ele>
        <time>2022-07-26T08:56:33Z</time>
      </trkpt>
      <trkpt lat="44.62585" lon="-0.1631">
        <ele>87.1</ele>
        <time>2022-07-26T08:56:35Z</time>
      </trkpt>
      <trkpt lat="44.62584" lon="-0.1631">
        <ele>87.2</ele>
        <time>2022-07-26T08:56:36Z</time>
      </trkpt>
      <trkpt lat="44.62582" lon="-0.1631">
        <ele>87.2</ele>
        <time>2022-07-26T08:56:37Z</time>
      </trkpt>
      <trkpt lat="44.62581" lon="-0.1631">
        <ele>87.2</ele>
        <time>2022-07-26T08:56:38Z</time>
      </trkpt>
      <trkpt lat="44.6258" lon="-0.16311">
        <ele>87.2</ele>
        <time>2022-07-26T08:56:39Z</time>
      </trkpt>
      <trkpt lat="44.62579" lon="-0.16311">
        <ele>87.2</ele>
        <time>2022-07-26T08:56:40Z</time>
      </trkpt>
      <trkpt lat="44.62577" lon="-0.16312">
        <ele>87.3</ele>
        <time>2022-07-26T08:56:42Z</time>
      </trkpt>
      <trkpt lat="44.62578" lon="-0.16313">
        <ele>87.2</ele>
        <time>2022-07-26T08:56:43Z</time>
      </trkpt>
      <trkpt lat="44.62578" lon="-0.16314">
        <ele>87.2</ele>
        <time>2022-07-26T08:56:44Z</time>
      </trkpt>
      <trkpt lat="44.62578" lon="-0.16315">
        <ele>87.2</ele>
        <time>2022-07-26T08:56:46Z</time>
      </trkpt>
      <trkpt lat="44.62578" lon="-0.16316">
        <ele>87.2</ele>
        <time>2022-07-26T08:56:47Z</time>
      </trkpt>
      <trkpt lat="44.62578" lon="-0.16319">
        <ele>87.2</ele>
        <time>2022-07-26T08:56:48Z</time>
      </trkpt>
      <trkpt lat="44.62578" lon="-0.1632">
        <ele>87.2</ele>
        <time>2022-07-26T08:56:49Z</time>
      </trkpt>
      <trkpt lat="44.62578" lon="-0.16321">
        <ele>87.1</ele>
        <time>2022-07-26T08:56:50Z</time>
      </trkpt>
      <trkpt lat="44.62579" lon="-0.16327">
        <ele>87</ele>
        <time>2022-07-26T08:56:52Z</time>
      </trkpt>
      <trkpt lat="44.62579" lon="-0.16329">
        <ele>87</ele>
        <time>2022-07-26T08:56:53Z</time>
      </trkpt>
      <trkpt lat="44.6258" lon="-0.16331">
        <ele>86.9</ele>
        <time>2022-07-26T08:56:54Z</time>
      </trkpt>
      <trkpt lat="44.6258" lon="-0.16333">
        <ele>86.9</ele>
        <time>2022-07-26T08:56:55Z</time>
      </trkpt>
      <trkpt lat="44.62581" lon="-0.16337">
        <ele>86.9</ele>
        <time>2022-07-26T08:56:57Z</time>
      </trkpt>
      <trkpt lat="44.62581" lon="-0.16339">
        <ele>86.8</ele>
        <time>2022-07-26T08:56:58Z</time>
      </trkpt>
      <trkpt lat="44.62581" lon="-0.16341">
        <ele>86.8</ele>
        <time>2022-07-26T08:57:00Z</time>
      </trkpt>
      <trkpt lat="44.62582" lon="-0.16342">
        <ele>86.7</ele>
        <time>2022-07-26T08:57:01Z</time>
      </trkpt>
      <trkpt lat="44.62582" lon="-0.16345">
        <ele>86.7</ele>
        <time>2022-07-26T08:57:02Z</time>
      </trkpt>
      <trkpt lat="44.62583" lon="-0.16346">
        <ele>86.7</ele>
        <time>2022-07-26T08:57:03Z</time>
      </trkpt>
      <trkpt lat="44.62583" lon="-0.16347">
        <ele>86.6</ele>
        <time>2022-07-26T08:57:04Z</time>
      </trkpt>
      <trkpt lat="44.62583" lon="-0.16349">
        <ele>86.6</ele>
        <time>2022-07-26T08:57:05Z</time>
      </trkpt>
      <trkpt lat="44.62583" lon="-0.16351">
        <ele>86.6</ele>
        <time>2022-07-26T08:57:06Z</time>
      </trkpt>
      <trkpt lat="44.62583" lon="-0.16354">
        <ele>86.5</ele>
        <time>2022-07-26T08:57:08Z</time>
      </trkpt>
      <trkpt lat="44.62584" lon="-0.16357">
        <ele>86.4</ele>
        <time>2022-07-26T08:57:09Z</time>
      </trkpt>
      <trkpt lat="44.62585" lon="-0.16358">
        <ele>86.4</ele>
        <time>2022-07-26T08:57:10Z</time>
      </trkpt>
      <trkpt lat="44.62585" lon="-0.1636">
        <ele>86.2</ele>
        <time>2022-07-26T08:57:11Z</time>
      </trkpt>
      <trkpt lat="44.62585" lon="-0.16362">
        <ele>86.2</ele>
        <time>2022-07-26T08:57:12Z</time>
      </trkpt>
      <trkpt lat="44.62585" lon="-0.16364">
        <ele>86.1</ele>
        <time>2022-07-26T08:57:14Z</time>
      </trkpt>
      <trkpt lat="44.62585" lon="-0.16365">
        <ele>86.1</ele>
        <time>2022-07-26T08:57:15Z</time>
      </trkpt>
      <trkpt lat="44.62585" lon="-0.16367">
        <ele>86.1</ele>
        <time>2022-07-26T08:57:16Z</time>
      </trkpt>
      <trkpt lat="44.62586" lon="-0.16369">
        <ele>86</ele>
        <time>2022-07-26T08:57:17Z</time>
      </trkpt>
      <trkpt lat="44.62586" lon="-0.16371">
        <ele>86</ele>
        <time>2022-07-26T08:57:18Z</time>
      </trkpt>
      <trkpt lat="44.62586" lon="-0.16372">
        <ele>86</ele>
        <time>2022-07-26T08:57:19Z</time>
      </trkpt>
      <trkpt lat="44.62586" lon="-0.16374">
        <ele>86</ele>
        <time>2022-07-26T08:57:20Z</time>
      </trkpt>
      <trkpt lat="44.62587" lon="-0.16378">
        <ele>85.9</ele>
        <time>2022-07-26T08:57:21Z</time>
      </trkpt>
      <trkpt lat="44.62586" lon="-0.1638">
        <ele>85.9</ele>
        <time>2022-07-26T08:57:23Z</time>
      </trkpt>
      <trkpt lat="44.62586" lon="-0.16381">
        <ele>85.8</ele>
        <time>2022-07-26T08:57:24Z</time>
      </trkpt>
      <trkpt lat="44.62586" lon="-0.16385">
        <ele>85.8</ele>
        <time>2022-07-26T08:57:26Z</time>
      </trkpt>
      <trkpt lat="44.62586" lon="-0.16389">
        <ele>85.8</ele>
        <time>2022-07-26T08:57:27Z</time>
      </trkpt>
      <trkpt lat="44.62586" lon="-0.1639">
        <ele>85.7</ele>
        <time>2022-07-26T08:57:28Z</time>
      </trkpt>
      <trkpt lat="44.62586" lon="-0.16393">
        <ele>85.7</ele>
        <time>2022-07-26T08:57:29Z</time>
      </trkpt>
      <trkpt lat="44.62586" lon="-0.16394">
        <ele>85.6</ele>
        <time>2022-07-26T08:57:30Z</time>
      </trkpt>
      <trkpt lat="44.62587" lon="-0.16396">
        <ele>85.6</ele>
        <time>2022-07-26T08:57:31Z</time>
      </trkpt>
      <trkpt lat="44.62587" lon="-0.16397">
        <ele>85.6</ele>
        <time>2022-07-26T08:57:32Z</time>
      </trkpt>
      <trkpt lat="44.62587" lon="-0.16398">
        <ele>85.6</ele>
        <time>2022-07-26T08:57:33Z</time>
      </trkpt>
      <trkpt lat="44.62587" lon="-0.16401">
        <ele>85.6</ele>
        <time>2022-07-26T08:57:35Z</time>
      </trkpt>
      <trkpt lat="44.62587" lon="-0.16402">
        <ele>85.6</ele>
        <time>2022-07-26T08:57:36Z</time>
      </trkpt>
      <trkpt lat="44.62587" lon="-0.16405">
        <ele>85.6</ele>
        <time>2022-07-26T08:57:37Z</time>
      </trkpt>
      <trkpt lat="44.62586" lon="-0.16407">
        <ele>85.6</ele>
        <time>2022-07-26T08:57:38Z</time>
      </trkpt>
      <trkpt lat="44.62586" lon="-0.16408">
        <ele>85.6</ele>
        <time>2022-07-26T08:57:39Z</time>
      </trkpt>
      <trkpt lat="44.62585" lon="-0.16409">
        <ele>85.6</ele>
        <time>2022-07-26T08:57:41Z</time>
      </trkpt>
      <trkpt lat="44.62584" lon="-0.1641">
        <ele>85.6</ele>
        <time>2022-07-26T08:57:42Z</time>
      </trkpt>
      <trkpt lat="44.62584" lon="-0.16411">
        <ele>85.6</ele>
        <time>2022-07-26T08:57:43Z</time>
      </trkpt>
      <trkpt lat="44.62583" lon="-0.16411">
        <ele>85.6</ele>
        <time>2022-07-26T08:57:44Z</time>
      </trkpt>
      <trkpt lat="44.62581" lon="-0.16411">
        <ele>85.7</ele>
        <time>2022-07-26T08:57:45Z</time>
      </trkpt>
      <trkpt lat="44.62579" lon="-0.16412">
        <ele>85.7</ele>
        <time>2022-07-26T08:57:47Z</time>
      </trkpt>
      <trkpt lat="44.62578" lon="-0.16412">
        <ele>85.8</ele>
        <time>2022-07-26T08:57:48Z</time>
      </trkpt>
      <trkpt lat="44.62577" lon="-0.16412">
        <ele>85.8</ele>
        <time>2022-07-26T08:57:49Z</time>
      </trkpt>
      <trkpt lat="44.62575" lon="-0.16413">
        <ele>85.9</ele>
        <time>2022-07-26T08:57:50Z</time>
      </trkpt>
      <trkpt lat="44.62575" lon="-0.16413">
        <ele>85.9</ele>
        <time>2022-07-26T08:57:51Z</time>
      </trkpt>
      <trkpt lat="44.62572" lon="-0.16414">
        <ele>85.9</ele>
        <time>2022-07-26T08:57:52Z</time>
      </trkpt>
      <trkpt lat="44.62572" lon="-0.16414">
        <ele>85.9</ele>
        <time>2022-07-26T08:57:53Z</time>
      </trkpt>
      <trkpt lat="44.6257" lon="-0.16414">
        <ele>85.9</ele>
        <time>2022-07-26T08:57:54Z</time>
      </trkpt>
      <trkpt lat="44.62569" lon="-0.16415">
        <ele>86</ele>
        <time>2022-07-26T08:57:55Z</time>
      </trkpt>
      <trkpt lat="44.62568" lon="-0.16416">
        <ele>86</ele>
        <time>2022-07-26T08:57:56Z</time>
      </trkpt>
      <trkpt lat="44.62566" lon="-0.16417">
        <ele>86.1</ele>
        <time>2022-07-26T08:57:57Z</time>
      </trkpt>
      <trkpt lat="44.62565" lon="-0.16417">
        <ele>86.1</ele>
        <time>2022-07-26T08:57:58Z</time>
      </trkpt>
      <trkpt lat="44.62563" lon="-0.16418">
        <ele>86.1</ele>
        <time>2022-07-26T08:58:00Z</time>
      </trkpt>
      <trkpt lat="44.62562" lon="-0.16419">
        <ele>86.2</ele>
        <time>2022-07-26T08:58:01Z</time>
      </trkpt>
      <trkpt lat="44.62561" lon="-0.1642">
        <ele>86.2</ele>
        <time>2022-07-26T08:58:02Z</time>
      </trkpt>
      <trkpt lat="44.6256" lon="-0.1642">
        <ele>86.3</ele>
        <time>2022-07-26T08:58:03Z</time>
      </trkpt>
      <trkpt lat="44.62559" lon="-0.16421">
        <ele>86.3</ele>
        <time>2022-07-26T08:58:04Z</time>
      </trkpt>
      <trkpt lat="44.62558" lon="-0.16422">
        <ele>86.3</ele>
        <time>2022-07-26T08:58:05Z</time>
      </trkpt>
      <trkpt lat="44.62557" lon="-0.16423">
        <ele>86.3</ele>
        <time>2022-07-26T08:58:06Z</time>
      </trkpt>
      <trkpt lat="44.62555" lon="-0.16424">
        <ele>86.4</ele>
        <time>2022-07-26T08:58:07Z</time>
      </trkpt>
      <trkpt lat="44.62554" lon="-0.16426">
        <ele>86.5</ele>
        <time>2022-07-26T08:58:09Z</time>
      </trkpt>
      <trkpt lat="44.62553" lon="-0.16427">
        <ele>86.5</ele>
        <time>2022-07-26T08:58:10Z</time>
      </trkpt>
      <trkpt lat="44.62552" lon="-0.16427">
        <ele>86.5</ele>
        <time>2022-07-26T08:58:11Z</time>
      </trkpt>
      <trkpt lat="44.6255" lon="-0.16429">
        <ele>86.6</ele>
        <time>2022-07-26T08:58:12Z</time>
      </trkpt>
      <trkpt lat="44.62549" lon="-0.16429">
        <ele>86.6</ele>
        <time>2022-07-26T08:58:13Z</time>
      </trkpt>
      <trkpt lat="44.62548" lon="-0.1643">
        <ele>86.6</ele>
        <time>2022-07-26T08:58:14Z</time>
      </trkpt>
      <trkpt lat="44.62546" lon="-0.16431">
        <ele>86.6</ele>
        <time>2022-07-26T08:58:16Z</time>
      </trkpt>
      <trkpt lat="44.62544" lon="-0.16432">
        <ele>86.7</ele>
        <time>2022-07-26T08:58:17Z</time>
      </trkpt>
      <trkpt lat="44.62544" lon="-0.16433">
        <ele>86.8</ele>
        <time>2022-07-26T08:58:18Z</time>
      </trkpt>
      <trkpt lat="44.62543" lon="-0.16433">
        <ele>86.8</ele>
        <time>2022-07-26T08:58:19Z</time>
      </trkpt>
      <trkpt lat="44.62542" lon="-0.16434">
        <ele>86.8</ele>
        <time>2022-07-26T08:58:20Z</time>
      </trkpt>
      <trkpt lat="44.62539" lon="-0.16436">
        <ele>86.9</ele>
        <time>2022-07-26T08:58:22Z</time>
      </trkpt>
      <trkpt lat="44.62537" lon="-0.16437">
        <ele>87</ele>
        <time>2022-07-26T08:58:23Z</time>
      </trkpt>
      <trkpt lat="44.62537" lon="-0.16437">
        <ele>87</ele>
        <time>2022-07-26T08:58:24Z</time>
      </trkpt>
      <trkpt lat="44.62536" lon="-0.16438">
        <ele>87</ele>
        <time>2022-07-26T08:58:25Z</time>
      </trkpt>
      <trkpt lat="44.62535" lon="-0.16438">
        <ele>87</ele>
        <time>2022-07-26T08:58:26Z</time>
      </trkpt>
      <trkpt lat="44.62533" lon="-0.1644">
        <ele>87</ele>
        <time>2022-07-26T08:58:27Z</time>
      </trkpt>
      <trkpt lat="44.62533" lon="-0.1644">
        <ele>87.1</ele>
        <time>2022-07-26T08:58:28Z</time>
      </trkpt>
      <trkpt lat="44.62532" lon="-0.16441">
        <ele>87.2</ele>
        <time>2022-07-26T08:58:29Z</time>
      </trkpt>
      <trkpt lat="44.6253" lon="-0.16443">
        <ele>87.2</ele>
        <time>2022-07-26T08:58:31Z</time>
      </trkpt>
      <trkpt lat="44.62528" lon="-0.16444">
        <ele>87.3</ele>
        <time>2022-07-26T08:58:32Z</time>
      </trkpt>
      <trkpt lat="44.62527" lon="-0.16444">
        <ele>87.3</ele>
        <time>2022-07-26T08:58:33Z</time>
      </trkpt>
      <trkpt lat="44.62525" lon="-0.16445">
        <ele>87.4</ele>
        <time>2022-07-26T08:58:34Z</time>
      </trkpt>
      <trkpt lat="44.62524" lon="-0.16445">
        <ele>87.5</ele>
        <time>2022-07-26T08:58:36Z</time>
      </trkpt>
      <trkpt lat="44.62522" lon="-0.16447">
        <ele>87.5</ele>
        <time>2022-07-26T08:58:37Z</time>
      </trkpt>
      <trkpt lat="44.62521" lon="-0.16447">
        <ele>87.5</ele>
        <time>2022-07-26T08:58:38Z</time>
      </trkpt>
      <trkpt lat="44.62519" lon="-0.16448">
        <ele>87.6</ele>
        <time>2022-07-26T08:58:39Z</time>
      </trkpt>
      <trkpt lat="44.62518" lon="-0.16448">
        <ele>87.6</ele>
        <time>2022-07-26T08:58:40Z</time>
      </trkpt>
      <trkpt lat="44.62517" lon="-0.16449">
        <ele>87.7</ele>
        <time>2022-07-26T08:58:41Z</time>
      </trkpt>
      <trkpt lat="44.62515" lon="-0.1645">
        <ele>87.8</ele>
        <time>2022-07-26T08:58:42Z</time>
      </trkpt>
      <trkpt lat="44.62514" lon="-0.1645">
        <ele>87.9</ele>
        <time>2022-07-26T08:58:43Z</time>
      </trkpt>
      <trkpt lat="44.62513" lon="-0.1645">
        <ele>87.9</ele>
        <time>2022-07-26T08:58:44Z</time>
      </trkpt>
      <trkpt lat="44.62511" lon="-0.16451">
        <ele>88</ele>
        <time>2022-07-26T08:58:46Z</time>
      </trkpt>
      <trkpt lat="44.62509" lon="-0.16452">
        <ele>88</ele>
        <time>2022-07-26T08:58:47Z</time>
      </trkpt>
      <trkpt lat="44.62508" lon="-0.16453">
        <ele>88</ele>
        <time>2022-07-26T08:58:48Z</time>
      </trkpt>
      <trkpt lat="44.62506" lon="-0.16454">
        <ele>88.2</ele>
        <time>2022-07-26T08:58:50Z</time>
      </trkpt>
      <trkpt lat="44.62505" lon="-0.16455">
        <ele>88.3</ele>
        <time>2022-07-26T08:58:51Z</time>
      </trkpt>
      <trkpt lat="44.62504" lon="-0.16456">
        <ele>88.3</ele>
        <time>2022-07-26T08:58:52Z</time>
      </trkpt>
      <trkpt lat="44.62503" lon="-0.16456">
        <ele>88.3</ele>
        <time>2022-07-26T08:58:53Z</time>
      </trkpt>
      <trkpt lat="44.62503" lon="-0.16456">
        <ele>88.3</ele>
        <time>2022-07-26T08:58:54Z</time>
      </trkpt>
      <trkpt lat="44.62503" lon="-0.16456">
        <ele>88.3</ele>
        <time>2022-07-26T08:58:55Z</time>
      </trkpt>
      <trkpt lat="44.62503" lon="-0.16456">
        <ele>88.3</ele>
        <time>2022-07-26T08:58:56Z</time>
      </trkpt>
      <trkpt lat="44.62502" lon="-0.16456">
        <ele>88.3</ele>
        <time>2022-07-26T08:58:57Z</time>
      </trkpt>
      <trkpt lat="44.62502" lon="-0.16456">
        <ele>88.3</ele>
        <time>2022-07-26T08:58:58Z</time>
      </trkpt>
      <trkpt lat="44.62502" lon="-0.16455">
        <ele>88.3</ele>
        <time>2022-07-26T08:58:59Z</time>
      </trkpt>
      <trkpt lat="44.62502" lon="-0.16455">
        <ele>88.3</ele>
        <time>2022-07-26T08:59:00Z</time>
      </trkpt>
      <trkpt lat="44.62501" lon="-0.16454">
        <ele>88.3</ele>
        <time>2022-07-26T08:59:01Z</time>
      </trkpt>
      <trkpt lat="44.625" lon="-0.16453">
        <ele>88.2</ele>
        <time>2022-07-26T08:59:02Z</time>
      </trkpt>
      <trkpt lat="44.625" lon="-0.16452">
        <ele>88.2</ele>
        <time>2022-07-26T08:59:03Z</time>
      </trkpt>
      <trkpt lat="44.62499" lon="-0.16451">
        <ele>88.3</ele>
        <time>2022-07-26T08:59:04Z</time>
      </trkpt>
      <trkpt lat="44.62498" lon="-0.16448">
        <ele>88.2</ele>
        <time>2022-07-26T08:59:06Z</time>
      </trkpt>
      <trkpt lat="44.62497" lon="-0.16447">
        <ele>88.2</ele>
        <time>2022-07-26T08:59:07Z</time>
      </trkpt>
      <trkpt lat="44.62497" lon="-0.16442">
        <ele>88</ele>
        <time>2022-07-26T08:59:08Z</time>
      </trkpt>
      <trkpt lat="44.62496" lon="-0.16437">
        <ele>87.9</ele>
        <time>2022-07-26T08:59:09Z</time>
      </trkpt>
      <trkpt lat="44.62496" lon="-0.16433">
        <ele>87.8</ele>
        <time>2022-07-26T08:59:10Z</time>
      </trkpt>
      <trkpt lat="44.62495" lon="-0.16432">
        <ele>87.7</ele>
        <time>2022-07-26T08:59:11Z</time>
      </trkpt>
      <trkpt lat="44.62495" lon="-0.16429">
        <ele>87.7</ele>
        <time>2022-07-26T08:59:12Z</time>
      </trkpt>
      <trkpt lat="44.62493" lon="-0.16425">
        <ele>87.6</ele>
        <time>2022-07-26T08:59:14Z</time>
      </trkpt>
      <trkpt lat="44.62493" lon="-0.16423">
        <ele>87.5</ele>
        <time>2022-07-26T08:59:15Z</time>
      </trkpt>
      <trkpt lat="44.62492" lon="-0.16422">
        <ele>87.5</ele>
        <time>2022-07-26T08:59:16Z</time>
      </trkpt>
      <trkpt lat="44.62492" lon="-0.16423">
        <ele>87.5</ele>
        <time>2022-07-26T08:59:17Z</time>
      </trkpt>
      <trkpt lat="44.6249" lon="-0.16423">
        <ele>87.5</ele>
        <time>2022-07-26T08:59:19Z</time>
      </trkpt>
      <trkpt lat="44.6249" lon="-0.16422">
        <ele>87.5</ele>
        <time>2022-07-26T08:59:20Z</time>
      </trkpt>
      <trkpt lat="44.6249" lon="-0.16422">
        <ele>87.6</ele>
        <time>2022-07-26T08:59:21Z</time>
      </trkpt>
      <trkpt lat="44.6249" lon="-0.16422">
        <ele>87.6</ele>
        <time>2022-07-26T08:59:22Z</time>
      </trkpt>
      <trkpt lat="44.62489" lon="-0.16421">
        <ele>87.6</ele>
        <time>2022-07-26T08:59:23Z</time>
      </trkpt>
      <trkpt lat="44.62489" lon="-0.16419">
        <ele>87.5</ele>
        <time>2022-07-26T08:59:25Z</time>
      </trkpt>
      <trkpt lat="44.62488" lon="-0.16418">
        <ele>87.5</ele>
        <time>2022-07-26T08:59:26Z</time>
      </trkpt>
      <trkpt lat="44.62487" lon="-0.16417">
        <ele>87.5</ele>
        <time>2022-07-26T08:59:27Z</time>
      </trkpt>
      <trkpt lat="44.62487" lon="-0.16415">
        <ele>87.5</ele>
        <time>2022-07-26T08:59:28Z</time>
      </trkpt>
      <trkpt lat="44.62486" lon="-0.16414">
        <ele>87.4</ele>
        <time>2022-07-26T08:59:29Z</time>
      </trkpt>
      <trkpt lat="44.62485" lon="-0.16414">
        <ele>87.4</ele>
        <time>2022-07-26T08:59:30Z</time>
      </trkpt>
      <trkpt lat="44.62484" lon="-0.16414">
        <ele>87.4</ele>
        <time>2022-07-26T08:59:31Z</time>
      </trkpt>
      <trkpt lat="44.62484" lon="-0.16414">
        <ele>87.4</ele>
        <time>2022-07-26T08:59:32Z</time>
      </trkpt>
      <trkpt lat="44.62483" lon="-0.16414">
        <ele>87.4</ele>
        <time>2022-07-26T08:59:33Z</time>
      </trkpt>
      <trkpt lat="44.62482" lon="-0.16415">
        <ele>87.4</ele>
        <time>2022-07-26T08:59:34Z</time>
      </trkpt>
      <trkpt lat="44.62481" lon="-0.16416">
        <ele>87.5</ele>
        <time>2022-07-26T08:59:36Z</time>
      </trkpt>
      <trkpt lat="44.6248" lon="-0.16417">
        <ele>87.6</ele>
        <time>2022-07-26T08:59:38Z</time>
      </trkpt>
      <trkpt lat="44.62479" lon="-0.16419">
        <ele>87.6</ele>
        <time>2022-07-26T08:59:39Z</time>
      </trkpt>
      <trkpt lat="44.62479" lon="-0.1642">
        <ele>87.7</ele>
        <time>2022-07-26T08:59:40Z</time>
      </trkpt>
      <trkpt lat="44.62479" lon="-0.16421">
        <ele>87.7</ele>
        <time>2022-07-26T08:59:41Z</time>
      </trkpt>
      <trkpt lat="44.62477" lon="-0.16422">
        <ele>87.7</ele>
        <time>2022-07-26T08:59:43Z</time>
      </trkpt>
      <trkpt lat="44.62476" lon="-0.16424">
        <ele>87.7</ele>
        <time>2022-07-26T08:59:44Z</time>
      </trkpt>
      <trkpt lat="44.62476" lon="-0.16425">
        <ele>87.9</ele>
        <time>2022-07-26T08:59:45Z</time>
      </trkpt>
      <trkpt lat="44.62475" lon="-0.16426">
        <ele>87.9</ele>
        <time>2022-07-26T08:59:46Z</time>
      </trkpt>
      <trkpt lat="44.62474" lon="-0.16427">
        <ele>87.9</ele>
        <time>2022-07-26T08:59:47Z</time>
      </trkpt>
      <trkpt lat="44.62473" lon="-0.16428">
        <ele>87.9</ele>
        <time>2022-07-26T08:59:48Z</time>
      </trkpt>
      <trkpt lat="44.62472" lon="-0.16429">
        <ele>88</ele>
        <time>2022-07-26T08:59:50Z</time>
      </trkpt>
      <trkpt lat="44.6247" lon="-0.1643">
        <ele>88.1</ele>
        <time>2022-07-26T08:59:51Z</time>
      </trkpt>
      <trkpt lat="44.6247" lon="-0.16431">
        <ele>88.1</ele>
        <time>2022-07-26T08:59:52Z</time>
      </trkpt>
      <trkpt lat="44.62469" lon="-0.16431">
        <ele>88.1</ele>
        <time>2022-07-26T08:59:53Z</time>
      </trkpt>
      <trkpt lat="44.62468" lon="-0.16432">
        <ele>88.1</ele>
        <time>2022-07-26T08:59:54Z</time>
      </trkpt>
      <trkpt lat="44.62467" lon="-0.16431">
        <ele>88.1</ele>
        <time>2022-07-26T08:59:55Z</time>
      </trkpt>
      <trkpt lat="44.62466" lon="-0.16431">
        <ele>88.1</ele>
        <time>2022-07-26T08:59:56Z</time>
      </trkpt>
      <trkpt lat="44.62465" lon="-0.16431">
        <ele>88.2</ele>
        <time>2022-07-26T08:59:58Z</time>
      </trkpt>
      <trkpt lat="44.62463" lon="-0.16431">
        <ele>88.2</ele>
        <time>2022-07-26T08:59:59Z</time>
      </trkpt>
      <trkpt lat="44.62462" lon="-0.16431">
        <ele>88.2</ele>
        <time>2022-07-26T09:00:00Z</time>
      </trkpt>
      <trkpt lat="44.62461" lon="-0.16431">
        <ele>88.2</ele>
        <time>2022-07-26T09:00:01Z</time>
      </trkpt>
      <trkpt lat="44.6246" lon="-0.16431">
        <ele>88.2</ele>
        <time>2022-07-26T09:00:02Z</time>
      </trkpt>
      <trkpt lat="44.62459" lon="-0.16432">
        <ele>88.3</ele>
        <time>2022-07-26T09:00:03Z</time>
      </trkpt>
      <trkpt lat="44.62458" lon="-0.16432">
        <ele>88.3</ele>
        <time>2022-07-26T09:00:04Z</time>
      </trkpt>
      <trkpt lat="44.62457" lon="-0.16433">
        <ele>88.4</ele>
        <time>2022-07-26T09:00:05Z</time>
      </trkpt>
      <trkpt lat="44.62456" lon="-0.16433">
        <ele>88.5</ele>
        <time>2022-07-26T09:00:06Z</time>
      </trkpt>
      <trkpt lat="44.62455" lon="-0.16433">
        <ele>88.5</ele>
        <time>2022-07-26T09:00:07Z</time>
      </trkpt>
      <trkpt lat="44.62454" lon="-0.16433">
        <ele>88.5</ele>
        <time>2022-07-26T09:00:08Z</time>
      </trkpt>
      <trkpt lat="44.62452" lon="-0.16434">
        <ele>88.5</ele>
        <time>2022-07-26T09:00:10Z</time>
      </trkpt>
      <trkpt lat="44.62451" lon="-0.16434">
        <ele>88.5</ele>
        <time>2022-07-26T09:00:11Z</time>
      </trkpt>
      <trkpt lat="44.6245" lon="-0.16434">
        <ele>88.5</ele>
        <time>2022-07-26T09:00:12Z</time>
      </trkpt>
      <trkpt lat="44.6245" lon="-0.16434">
        <ele>88.5</ele>
        <time>2022-07-26T09:00:14Z</time>
      </trkpt>
      <trkpt lat="44.62448" lon="-0.16434">
        <ele>88.5</ele>
        <time>2022-07-26T09:00:15Z</time>
      </trkpt>
      <trkpt lat="44.62447" lon="-0.16434">
        <ele>88.6</ele>
        <time>2022-07-26T09:00:16Z</time>
      </trkpt>
      <trkpt lat="44.62445" lon="-0.16434">
        <ele>88.6</ele>
        <time>2022-07-26T09:00:17Z</time>
      </trkpt>
      <trkpt lat="44.62444" lon="-0.16434">
        <ele>88.7</ele>
        <time>2022-07-26T09:00:18Z</time>
      </trkpt>
      <trkpt lat="44.62443" lon="-0.16434">
        <ele>88.7</ele>
        <time>2022-07-26T09:00:19Z</time>
      </trkpt>
      <trkpt lat="44.62442" lon="-0.16434">
        <ele>88.7</ele>
        <time>2022-07-26T09:00:20Z</time>
      </trkpt>
      <trkpt lat="44.62441" lon="-0.16434">
        <ele>88.7</ele>
        <time>2022-07-26T09:00:21Z</time>
      </trkpt>
      <trkpt lat="44.6244" lon="-0.16434">
        <ele>88.7</ele>
        <time>2022-07-26T09:00:22Z</time>
      </trkpt>
      <trkpt lat="44.6244" lon="-0.16434">
        <ele>88.7</ele>
        <time>2022-07-26T09:00:23Z</time>
      </trkpt>
      <trkpt lat="44.62438" lon="-0.16434">
        <ele>88.7</ele>
        <time>2022-07-26T09:00:24Z</time>
      </trkpt>
      <trkpt lat="44.62437" lon="-0.16435">
        <ele>88.8</ele>
        <time>2022-07-26T09:00:25Z</time>
      </trkpt>
      <trkpt lat="44.62435" lon="-0.16435">
        <ele>88.9</ele>
        <time>2022-07-26T09:00:26Z</time>
      </trkpt>
      <trkpt lat="44.62434" lon="-0.16435">
        <ele>88.9</ele>
        <time>2022-07-26T09:00:27Z</time>
      </trkpt>
      <trkpt lat="44.62433" lon="-0.16435">
        <ele>88.9</ele>
        <time>2022-07-26T09:00:29Z</time>
      </trkpt>
      <trkpt lat="44.62432" lon="-0.16435">
        <ele>88.9</ele>
        <time>2022-07-26T09:00:30Z</time>
      </trkpt>
      <trkpt lat="44.6243" lon="-0.16435">
        <ele>88.9</ele>
        <time>2022-07-26T09:00:31Z</time>
      </trkpt>
      <trkpt lat="44.6243" lon="-0.16435">
        <ele>88.9</ele>
        <time>2022-07-26T09:00:32Z</time>
      </trkpt>
      <trkpt lat="44.62428" lon="-0.16435">
        <ele>89</ele>
        <time>2022-07-26T09:00:33Z</time>
      </trkpt>
      <trkpt lat="44.62427" lon="-0.16435">
        <ele>89</ele>
        <time>2022-07-26T09:00:34Z</time>
      </trkpt>
      <trkpt lat="44.62425" lon="-0.16435">
        <ele>89</ele>
        <time>2022-07-26T09:00:36Z</time>
      </trkpt>
      <trkpt lat="44.62425" lon="-0.16435">
        <ele>89</ele>
        <time>2022-07-26T09:00:37Z</time>
      </trkpt>
      <trkpt lat="44.62424" lon="-0.16435">
        <ele>89</ele>
        <time>2022-07-26T09:00:38Z</time>
      </trkpt>
      <trkpt lat="44.62422" lon="-0.16435">
        <ele>89.1</ele>
        <time>2022-07-26T09:00:39Z</time>
      </trkpt>
      <trkpt lat="44.6242" lon="-0.16435">
        <ele>89.1</ele>
        <time>2022-07-26T09:00:40Z</time>
      </trkpt>
      <trkpt lat="44.62419" lon="-0.16434">
        <ele>89.2</ele>
        <time>2022-07-26T09:00:42Z</time>
      </trkpt>
      <trkpt lat="44.62418" lon="-0.16435">
        <ele>89.2</ele>
        <time>2022-07-26T09:00:43Z</time>
      </trkpt>
      <trkpt lat="44.62417" lon="-0.16435">
        <ele>89.2</ele>
        <time>2022-07-26T09:00:44Z</time>
      </trkpt>
      <trkpt lat="44.62415" lon="-0.16435">
        <ele>89.3</ele>
        <time>2022-07-26T09:00:46Z</time>
      </trkpt>
      <trkpt lat="44.62414" lon="-0.16436">
        <ele>89.3</ele>
        <time>2022-07-26T09:00:47Z</time>
      </trkpt>
      <trkpt lat="44.62413" lon="-0.16436">
        <ele>89.4</ele>
        <time>2022-07-26T09:00:48Z</time>
      </trkpt>
      <trkpt lat="44.62412" lon="-0.16436">
        <ele>89.4</ele>
        <time>2022-07-26T09:00:49Z</time>
      </trkpt>
      <trkpt lat="44.62409" lon="-0.16436">
        <ele>89.4</ele>
        <time>2022-07-26T09:00:50Z</time>
      </trkpt>
      <trkpt lat="44.62408" lon="-0.16436">
        <ele>89.4</ele>
        <time>2022-07-26T09:00:52Z</time>
      </trkpt>
      <trkpt lat="44.62407" lon="-0.16437">
        <ele>89.7</ele>
        <time>2022-07-26T09:00:53Z</time>
      </trkpt>
      <trkpt lat="44.62406" lon="-0.16437">
        <ele>89.7</ele>
        <time>2022-07-26T09:00:54Z</time>
      </trkpt>
      <trkpt lat="44.62405" lon="-0.16437">
        <ele>89.7</ele>
        <time>2022-07-26T09:00:55Z</time>
      </trkpt>
      <trkpt lat="44.62403" lon="-0.16438">
        <ele>89.8</ele>
        <time>2022-07-26T09:00:56Z</time>
      </trkpt>
      <trkpt lat="44.62402" lon="-0.16438">
        <ele>89.8</ele>
        <time>2022-07-26T09:00:57Z</time>
      </trkpt>
      <trkpt lat="44.62401" lon="-0.16438">
        <ele>89.8</ele>
        <time>2022-07-26T09:00:59Z</time>
      </trkpt>
      <trkpt lat="44.62399" lon="-0.16438">
        <ele>89.8</ele>
        <time>2022-07-26T09:01:00Z</time>
      </trkpt>
      <trkpt lat="44.62397" lon="-0.16438">
        <ele>89.9</ele>
        <time>2022-07-26T09:01:01Z</time>
      </trkpt>
      <trkpt lat="44.62396" lon="-0.16438">
        <ele>89.9</ele>
        <time>2022-07-26T09:01:02Z</time>
      </trkpt>
      <trkpt lat="44.62395" lon="-0.16438">
        <ele>89.9</ele>
        <time>2022-07-26T09:01:03Z</time>
      </trkpt>
      <trkpt lat="44.62393" lon="-0.16439">
        <ele>89.9</ele>
        <time>2022-07-26T09:01:04Z</time>
      </trkpt>
      <trkpt lat="44.62392" lon="-0.16439">
        <ele>90</ele>
        <time>2022-07-26T09:01:06Z</time>
      </trkpt>
      <trkpt lat="44.62391" lon="-0.16439">
        <ele>90</ele>
        <time>2022-07-26T09:01:07Z</time>
      </trkpt>
      <trkpt lat="44.6239" lon="-0.16439">
        <ele>90</ele>
        <time>2022-07-26T09:01:08Z</time>
      </trkpt>
      <trkpt lat="44.62389" lon="-0.16439">
        <ele>90</ele>
        <time>2022-07-26T09:01:09Z</time>
      </trkpt>
      <trkpt lat="44.62388" lon="-0.16438">
        <ele>90</ele>
        <time>2022-07-26T09:01:10Z</time>
      </trkpt>
      <trkpt lat="44.62386" lon="-0.16437">
        <ele>90.1</ele>
        <time>2022-07-26T09:01:11Z</time>
      </trkpt>
      <trkpt lat="44.62385" lon="-0.16437">
        <ele>90.1</ele>
        <time>2022-07-26T09:01:12Z</time>
      </trkpt>
      <trkpt lat="44.62385" lon="-0.16437">
        <ele>90.1</ele>
        <time>2022-07-26T09:01:13Z</time>
      </trkpt>
      <trkpt lat="44.62384" lon="-0.16437">
        <ele>90.1</ele>
        <time>2022-07-26T09:01:14Z</time>
      </trkpt>
      <trkpt lat="44.62384" lon="-0.16438">
        <ele>90.1</ele>
        <time>2022-07-26T09:01:15Z</time>
      </trkpt>
      <trkpt lat="44.62384" lon="-0.1644">
        <ele>90.1</ele>
        <time>2022-07-26T09:01:16Z</time>
      </trkpt>
      <trkpt lat="44.62384" lon="-0.16441">
        <ele>90.1</ele>
        <time>2022-07-26T09:01:17Z</time>
      </trkpt>
      <trkpt lat="44.62384" lon="-0.16442">
        <ele>90.3</ele>
        <time>2022-07-26T09:01:18Z</time>
      </trkpt>
      <trkpt lat="44.62384" lon="-0.16444">
        <ele>90.3</ele>
        <time>2022-07-26T09:01:19Z</time>
      </trkpt>
      <trkpt lat="44.62384" lon="-0.16446">
        <ele>90.5</ele>
        <time>2022-07-26T09:01:20Z</time>
      </trkpt>
      <trkpt lat="44.62384" lon="-0.16449">
        <ele>90.5</ele>
        <time>2022-07-26T09:01:22Z</time>
      </trkpt>
      <trkpt lat="44.62385" lon="-0.16452">
        <ele>90.8</ele>
        <time>2022-07-26T09:01:24Z</time>
      </trkpt>
      <trkpt lat="44.62385" lon="-0.16454">
        <ele>90.8</ele>
        <time>2022-07-26T09:01:25Z</time>
      </trkpt>
      <trkpt lat="44.62385" lon="-0.16455">
        <ele>91</ele>
        <time>2022-07-26T09:01:26Z</time>
      </trkpt>
      <trkpt lat="44.62386" lon="-0.16458">
        <ele>91</ele>
        <time>2022-07-26T09:01:27Z</time>
      </trkpt>
      <trkpt lat="44.62386" lon="-0.16459">
        <ele>91.2</ele>
        <time>2022-07-26T09:01:28Z</time>
      </trkpt>
      <trkpt lat="44.62387" lon="-0.16461">
        <ele>91.2</ele>
        <time>2022-07-26T09:01:29Z</time>
      </trkpt>
      <trkpt lat="44.62387" lon="-0.16463">
        <ele>91.5</ele>
        <time>2022-07-26T09:01:30Z</time>
      </trkpt>
      <trkpt lat="44.62387" lon="-0.16464">
        <ele>91.5</ele>
        <time>2022-07-26T09:01:31Z</time>
      </trkpt>
      <trkpt lat="44.62388" lon="-0.16466">
        <ele>91.5</ele>
        <time>2022-07-26T09:01:32Z</time>
      </trkpt>
      <trkpt lat="44.62388" lon="-0.16467">
        <ele>91.8</ele>
        <time>2022-07-26T09:01:34Z</time>
      </trkpt>
      <trkpt lat="44.62387" lon="-0.16469">
        <ele>91.8</ele>
        <time>2022-07-26T09:01:35Z</time>
      </trkpt>
      <trkpt lat="44.62388" lon="-0.1647">
        <ele>91.8</ele>
        <time>2022-07-26T09:01:36Z</time>
      </trkpt>
      <trkpt lat="44.62388" lon="-0.16473">
        <ele>92.1</ele>
        <time>2022-07-26T09:01:37Z</time>
      </trkpt>
      <trkpt lat="44.62387" lon="-0.16475">
        <ele>92.1</ele>
        <time>2022-07-26T09:01:38Z</time>
      </trkpt>
      <trkpt lat="44.62387" lon="-0.16476">
        <ele>92.5</ele>
        <time>2022-07-26T09:01:39Z</time>
      </trkpt>
      <trkpt lat="44.62387" lon="-0.16477">
        <ele>92.5</ele>
        <time>2022-07-26T09:01:41Z</time>
      </trkpt>
      <trkpt lat="44.62387" lon="-0.16478">
        <ele>92.5</ele>
        <time>2022-07-26T09:01:42Z</time>
      </trkpt>
      <trkpt lat="44.62387" lon="-0.1648">
        <ele>93</ele>
        <time>2022-07-26T09:01:43Z</time>
      </trkpt>
      <trkpt lat="44.62388" lon="-0.16482">
        <ele>93</ele>
        <time>2022-07-26T09:01:44Z</time>
      </trkpt>
      <trkpt lat="44.62388" lon="-0.16483">
        <ele>93</ele>
        <time>2022-07-26T09:01:45Z</time>
      </trkpt>
      <trkpt lat="44.62388" lon="-0.16484">
        <ele>93.3</ele>
        <time>2022-07-26T09:01:46Z</time>
      </trkpt>
      <trkpt lat="44.62388" lon="-0.16485">
        <ele>93.3</ele>
        <time>2022-07-26T09:01:48Z</time>
      </trkpt>
      <trkpt lat="44.62389" lon="-0.16487">
        <ele>93.3</ele>
        <time>2022-07-26T09:01:49Z</time>
      </trkpt>
      <trkpt lat="44.62389" lon="-0.16489">
        <ele>93.6</ele>
        <time>2022-07-26T09:01:50Z</time>
      </trkpt>
      <trkpt lat="44.6239" lon="-0.16491">
        <ele>93.6</ele>
        <time>2022-07-26T09:01:51Z</time>
      </trkpt>
      <trkpt lat="44.6239" lon="-0.16492">
        <ele>93.6</ele>
        <time>2022-07-26T09:01:53Z</time>
      </trkpt>
      <trkpt lat="44.6239" lon="-0.16494">
        <ele>93.9</ele>
        <time>2022-07-26T09:01:54Z</time>
      </trkpt>
      <trkpt lat="44.6239" lon="-0.16495">
        <ele>93.9</ele>
        <time>2022-07-26T09:01:55Z</time>
      </trkpt>
      <trkpt lat="44.6239" lon="-0.16497">
        <ele>94.1</ele>
        <time>2022-07-26T09:01:56Z</time>
      </trkpt>
      <trkpt lat="44.6239" lon="-0.16499">
        <ele>94.1</ele>
        <time>2022-07-26T09:01:57Z</time>
      </trkpt>
      <trkpt lat="44.6239" lon="-0.165">
        <ele>94.1</ele>
        <time>2022-07-26T09:01:58Z</time>
      </trkpt>
      <trkpt lat="44.6239" lon="-0.16502">
        <ele>94.4</ele>
        <time>2022-07-26T09:01:59Z</time>
      </trkpt>
      <trkpt lat="44.6239" lon="-0.16503">
        <ele>94.4</ele>
        <time>2022-07-26T09:02:00Z</time>
      </trkpt>
      <trkpt lat="44.6239" lon="-0.16506">
        <ele>94.6</ele>
        <time>2022-07-26T09:02:02Z</time>
      </trkpt>
      <trkpt lat="44.62391" lon="-0.16507">
        <ele>94.6</ele>
        <time>2022-07-26T09:02:03Z</time>
      </trkpt>
      <trkpt lat="44.62391" lon="-0.16508">
        <ele>94.6</ele>
        <time>2022-07-26T09:02:04Z</time>
      </trkpt>
      <trkpt lat="44.62391" lon="-0.1651">
        <ele>94.9</ele>
        <time>2022-07-26T09:02:05Z</time>
      </trkpt>
      <trkpt lat="44.62391" lon="-0.16512">
        <ele>94.9</ele>
        <time>2022-07-26T09:02:06Z</time>
      </trkpt>
      <trkpt lat="44.62391" lon="-0.16514">
        <ele>95.1</ele>
        <time>2022-07-26T09:02:07Z</time>
      </trkpt>
      <trkpt lat="44.62391" lon="-0.16516">
        <ele>95.1</ele>
        <time>2022-07-26T09:02:08Z</time>
      </trkpt>
      <trkpt lat="44.62391" lon="-0.16517">
        <ele>95.1</ele>
        <time>2022-07-26T09:02:09Z</time>
      </trkpt>
      <trkpt lat="44.62391" lon="-0.16519">
        <ele>95.3</ele>
        <time>2022-07-26T09:02:10Z</time>
      </trkpt>
      <trkpt lat="44.62392" lon="-0.16522">
        <ele>95.3</ele>
        <time>2022-07-26T09:02:12Z</time>
      </trkpt>
      <trkpt lat="44.62391" lon="-0.16524">
        <ele>95.6</ele>
        <time>2022-07-26T09:02:13Z</time>
      </trkpt>
      <trkpt lat="44.62391" lon="-0.16526">
        <ele>95.6</ele>
        <time>2022-07-26T09:02:14Z</time>
      </trkpt>
      <trkpt lat="44.62391" lon="-0.16527">
        <ele>95.8</ele>
        <time>2022-07-26T09:02:15Z</time>
      </trkpt>
      <trkpt lat="44.62391" lon="-0.16531">
        <ele>95.8</ele>
        <time>2022-07-26T09:02:17Z</time>
      </trkpt>
      <trkpt lat="44.62391" lon="-0.16532">
        <ele>96</ele>
        <time>2022-07-26T09:02:18Z</time>
      </trkpt>
      <trkpt lat="44.62391" lon="-0.16533">
        <ele>96</ele>
        <time>2022-07-26T09:02:19Z</time>
      </trkpt>
      <trkpt lat="44.62391" lon="-0.16535">
        <ele>96</ele>
        <time>2022-07-26T09:02:20Z</time>
      </trkpt>
      <trkpt lat="44.62391" lon="-0.16536">
        <ele>96.2</ele>
        <time>2022-07-26T09:02:21Z</time>
      </trkpt>
      <trkpt lat="44.62391" lon="-0.16539">
        <ele>96.2</ele>
        <time>2022-07-26T09:02:22Z</time>
      </trkpt>
      <trkpt lat="44.6239" lon="-0.1654">
        <ele>96.4</ele>
        <time>2022-07-26T09:02:23Z</time>
      </trkpt>
      <trkpt lat="44.6239" lon="-0.16541">
        <ele>96.4</ele>
        <time>2022-07-26T09:02:24Z</time>
      </trkpt>
      <trkpt lat="44.6239" lon="-0.16544">
        <ele>96.6</ele>
        <time>2022-07-26T09:02:25Z</time>
      </trkpt>
      <trkpt lat="44.6239" lon="-0.16545">
        <ele>96.6</ele>
        <time>2022-07-26T09:02:26Z</time>
      </trkpt>
      <trkpt lat="44.6239" lon="-0.16546">
        <ele>96.6</ele>
        <time>2022-07-26T09:02:27Z</time>
      </trkpt>
      <trkpt lat="44.6239" lon="-0.16549">
        <ele>96.8</ele>
        <time>2022-07-26T09:02:29Z</time>
      </trkpt>
      <trkpt lat="44.6239" lon="-0.16551">
        <ele>96.8</ele>
        <time>2022-07-26T09:02:30Z</time>
      </trkpt>
      <trkpt lat="44.6239" lon="-0.16552">
        <ele>96.8</ele>
        <time>2022-07-26T09:02:31Z</time>
      </trkpt>
      <trkpt lat="44.6239" lon="-0.16555">
        <ele>96.9</ele>
        <time>2022-07-26T09:02:32Z</time>
      </trkpt>
      <trkpt lat="44.6239" lon="-0.16556">
        <ele>96.9</ele>
        <time>2022-07-26T09:02:33Z</time>
      </trkpt>
      <trkpt lat="44.6239" lon="-0.16557">
        <ele>96.9</ele>
        <time>2022-07-26T09:02:34Z</time>
      </trkpt>
      <trkpt lat="44.6239" lon="-0.1656">
        <ele>97</ele>
        <time>2022-07-26T09:02:35Z</time>
      </trkpt>
      <trkpt lat="44.6239" lon="-0.16561">
        <ele>97.2</ele>
        <time>2022-07-26T09:02:36Z</time>
      </trkpt>
      <trkpt lat="44.6239" lon="-0.16563">
        <ele>97.2</ele>
        <time>2022-07-26T09:02:37Z</time>
      </trkpt>
      <trkpt lat="44.6239" lon="-0.16564">
        <ele>97.2</ele>
        <time>2022-07-26T09:02:38Z</time>
      </trkpt>
      <trkpt lat="44.6239" lon="-0.16567">
        <ele>97.3</ele>
        <time>2022-07-26T09:02:40Z</time>
      </trkpt>
      <trkpt lat="44.6239" lon="-0.16568">
        <ele>97.3</ele>
        <time>2022-07-26T09:02:41Z</time>
      </trkpt>
      <trkpt lat="44.6239" lon="-0.16571">
        <ele>97.3</ele>
        <time>2022-07-26T09:02:42Z</time>
      </trkpt>
      <trkpt lat="44.62391" lon="-0.16574">
        <ele>97.3</ele>
        <time>2022-07-26T09:02:44Z</time>
      </trkpt>
      <trkpt lat="44.62391" lon="-0.16575">
        <ele>97.4</ele>
        <time>2022-07-26T09:02:45Z</time>
      </trkpt>
      <trkpt lat="44.62391" lon="-0.16576">
        <ele>97.4</ele>
        <time>2022-07-26T09:02:46Z</time>
      </trkpt>
      <trkpt lat="44.62392" lon="-0.16578">
        <ele>97.4</ele>
        <time>2022-07-26T09:02:47Z</time>
      </trkpt>
      <trkpt lat="44.62392" lon="-0.16579">
        <ele>97.4</ele>
        <time>2022-07-26T09:02:48Z</time>
      </trkpt>
      <trkpt lat="44.62392" lon="-0.1658">
        <ele>97.4</ele>
        <time>2022-07-26T09:02:49Z</time>
      </trkpt>
      <trkpt lat="44.62392" lon="-0.16581">
        <ele>97.4</ele>
        <time>2022-07-26T09:02:50Z</time>
      </trkpt>
      <trkpt lat="44.62393" lon="-0.16585">
        <ele>97.3</ele>
        <time>2022-07-26T09:02:52Z</time>
      </trkpt>
      <trkpt lat="44.62393" lon="-0.16585">
        <ele>97.3</ele>
        <time>2022-07-26T09:02:53Z</time>
      </trkpt>
      <trkpt lat="44.62393" lon="-0.16586">
        <ele>97.3</ele>
        <time>2022-07-26T09:02:54Z</time>
      </trkpt>
      <trkpt lat="44.62393" lon="-0.16589">
        <ele>97.3</ele>
        <time>2022-07-26T09:02:55Z</time>
      </trkpt>
      <trkpt lat="44.62393" lon="-0.1659">
        <ele>97.3</ele>
        <time>2022-07-26T09:02:56Z</time>
      </trkpt>
      <trkpt lat="44.62393" lon="-0.16592">
        <ele>97.3</ele>
        <time>2022-07-26T09:02:57Z</time>
      </trkpt>
      <trkpt lat="44.62393" lon="-0.16593">
        <ele>97.3</ele>
        <time>2022-07-26T09:02:58Z</time>
      </trkpt>
      <trkpt lat="44.62393" lon="-0.16594">
        <ele>97.3</ele>
        <time>2022-07-26T09:02:59Z</time>
      </trkpt>
      <trkpt lat="44.62394" lon="-0.16596">
        <ele>97.3</ele>
        <time>2022-07-26T09:03:00Z</time>
      </trkpt>
      <trkpt lat="44.62394" lon="-0.16598">
        <ele>97.3</ele>
        <time>2022-07-26T09:03:01Z</time>
      </trkpt>
      <trkpt lat="44.62394" lon="-0.166">
        <ele>97.2</ele>
        <time>2022-07-26T09:03:02Z</time>
      </trkpt>
      <trkpt lat="44.62394" lon="-0.16601">
        <ele>97.2</ele>
        <time>2022-07-26T09:03:03Z</time>
      </trkpt>
      <trkpt lat="44.62394" lon="-0.16603">
        <ele>97.2</ele>
        <time>2022-07-26T09:03:04Z</time>
      </trkpt>
      <trkpt lat="44.62394" lon="-0.16605">
        <ele>97.1</ele>
        <time>2022-07-26T09:03:06Z</time>
      </trkpt>
      <trkpt lat="44.62394" lon="-0.16607">
        <ele>97.1</ele>
        <time>2022-07-26T09:03:07Z</time>
      </trkpt>
      <trkpt lat="44.62394" lon="-0.16608">
        <ele>97</ele>
        <time>2022-07-26T09:03:08Z</time>
      </trkpt>
      <trkpt lat="44.62394" lon="-0.1661">
        <ele>97</ele>
        <time>2022-07-26T09:03:09Z</time>
      </trkpt>
      <trkpt lat="44.62394" lon="-0.16612">
        <ele>97</ele>
        <time>2022-07-26T09:03:10Z</time>
      </trkpt>
      <trkpt lat="44.62394" lon="-0.16613">
        <ele>96.9</ele>
        <time>2022-07-26T09:03:11Z</time>
      </trkpt>
      <trkpt lat="44.62394" lon="-0.16615">
        <ele>96.9</ele>
        <time>2022-07-26T09:03:12Z</time>
      </trkpt>
      <trkpt lat="44.62393" lon="-0.16617">
        <ele>96.9</ele>
        <time>2022-07-26T09:03:13Z</time>
      </trkpt>
      <trkpt lat="44.62393" lon="-0.16618">
        <ele>96.8</ele>
        <time>2022-07-26T09:03:14Z</time>
      </trkpt>
      <trkpt lat="44.62393" lon="-0.16619">
        <ele>96.8</ele>
        <time>2022-07-26T09:03:15Z</time>
      </trkpt>
      <trkpt lat="44.62393" lon="-0.1662">
        <ele>96.8</ele>
        <time>2022-07-26T09:03:16Z</time>
      </trkpt>
      <trkpt lat="44.62394" lon="-0.16622">
        <ele>96.7</ele>
        <time>2022-07-26T09:03:18Z</time>
      </trkpt>
      <trkpt lat="44.62395" lon="-0.16623">
        <ele>96.6</ele>
        <time>2022-07-26T09:03:19Z</time>
      </trkpt>
      <trkpt lat="44.62396" lon="-0.16624">
        <ele>96.6</ele>
        <time>2022-07-26T09:03:20Z</time>
      </trkpt>
      <trkpt lat="44.62395" lon="-0.16625">
        <ele>96.6</ele>
        <time>2022-07-26T09:03:21Z</time>
      </trkpt>
      <trkpt lat="44.62394" lon="-0.16627">
        <ele>96.5</ele>
        <time>2022-07-26T09:03:22Z</time>
      </trkpt>
      <trkpt lat="44.62392" lon="-0.16629">
        <ele>96.4</ele>
        <time>2022-07-26T09:03:24Z</time>
      </trkpt>
      <trkpt lat="44.62392" lon="-0.1663">
        <ele>96.3</ele>
        <time>2022-07-26T09:03:25Z</time>
      </trkpt>
      <trkpt lat="44.62391" lon="-0.16631">
        <ele>96.3</ele>
        <time>2022-07-26T09:03:26Z</time>
      </trkpt>
      <trkpt lat="44.62391" lon="-0.16633">
        <ele>96.2</ele>
        <time>2022-07-26T09:03:27Z</time>
      </trkpt>
      <trkpt lat="44.62391" lon="-0.16634">
        <ele>96.2</ele>
        <time>2022-07-26T09:03:28Z</time>
      </trkpt>
      <trkpt lat="44.62391" lon="-0.16635">
        <ele>96.1</ele>
        <time>2022-07-26T09:03:29Z</time>
      </trkpt>
      <trkpt lat="44.62391" lon="-0.16638">
        <ele>96</ele>
        <time>2022-07-26T09:03:30Z</time>
      </trkpt>
      <trkpt lat="44.62391" lon="-0.1664">
        <ele>96</ele>
        <time>2022-07-26T09:03:31Z</time>
      </trkpt>
      <trkpt lat="44.62392" lon="-0.16641">
        <ele>95.9</ele>
        <time>2022-07-26T09:03:32Z</time>
      </trkpt>
      <trkpt lat="44.62392" lon="-0.16642">
        <ele>95.9</ele>
        <time>2022-07-26T09:03:33Z</time>
      </trkpt>
      <trkpt lat="44.62393" lon="-0.16643">
        <ele>95.8</ele>
        <time>2022-07-26T09:03:34Z</time>
      </trkpt>
      <trkpt lat="44.62393" lon="-0.16644">
        <ele>95.8</ele>
        <time>2022-07-26T09:03:35Z</time>
      </trkpt>
      <trkpt lat="44.62394" lon="-0.16647">
        <ele>95.7</ele>
        <time>2022-07-26T09:03:37Z</time>
      </trkpt>
      <trkpt lat="44.62394" lon="-0.16648">
        <ele>95.6</ele>
        <time>2022-07-26T09:03:38Z</time>
      </trkpt>
      <trkpt lat="44.62395" lon="-0.16649">
        <ele>95.6</ele>
        <time>2022-07-26T09:03:39Z</time>
      </trkpt>
      <trkpt lat="44.62395" lon="-0.16651">
        <ele>95.5</ele>
        <time>2022-07-26T09:03:40Z</time>
      </trkpt>
      <trkpt lat="44.62396" lon="-0.16653">
        <ele>95.4</ele>
        <time>2022-07-26T09:03:41Z</time>
      </trkpt>
      <trkpt lat="44.62396" lon="-0.16654">
        <ele>95.4</ele>
        <time>2022-07-26T09:03:42Z</time>
      </trkpt>
      <trkpt lat="44.62396" lon="-0.16655">
        <ele>95.3</ele>
        <time>2022-07-26T09:03:43Z</time>
      </trkpt>
      <trkpt lat="44.62397" lon="-0.16657">
        <ele>95.2</ele>
        <time>2022-07-26T09:03:45Z</time>
      </trkpt>
      <trkpt lat="44.62397" lon="-0.16658">
        <ele>95.2</ele>
        <time>2022-07-26T09:03:46Z</time>
      </trkpt>
      <trkpt lat="44.62398" lon="-0.1666">
        <ele>95.1</ele>
        <time>2022-07-26T09:03:47Z</time>
      </trkpt>
      <trkpt lat="44.62398" lon="-0.16662">
        <ele>95</ele>
        <time>2022-07-26T09:03:48Z</time>
      </trkpt>
      <trkpt lat="44.62398" lon="-0.16664">
        <ele>94.9</ele>
        <time>2022-07-26T09:03:49Z</time>
      </trkpt>
      <trkpt lat="44.62399" lon="-0.16666">
        <ele>94.9</ele>
        <time>2022-07-26T09:03:51Z</time>
      </trkpt>
      <trkpt lat="44.62399" lon="-0.16667">
        <ele>94.8</ele>
        <time>2022-07-26T09:03:52Z</time>
      </trkpt>
      <trkpt lat="44.624" lon="-0.16669">
        <ele>94.7</ele>
        <time>2022-07-26T09:03:53Z</time>
      </trkpt>
      <trkpt lat="44.624" lon="-0.1667">
        <ele>94.7</ele>
        <time>2022-07-26T09:03:54Z</time>
      </trkpt>
      <trkpt lat="44.62401" lon="-0.16671">
        <ele>94.6</ele>
        <time>2022-07-26T09:03:55Z</time>
      </trkpt>
      <trkpt lat="44.62401" lon="-0.16675">
        <ele>94.5</ele>
        <time>2022-07-26T09:03:57Z</time>
      </trkpt>
      <trkpt lat="44.62401" lon="-0.16676">
        <ele>94.4</ele>
        <time>2022-07-26T09:03:59Z</time>
      </trkpt>
      <trkpt lat="44.62401" lon="-0.16677">
        <ele>94.4</ele>
        <time>2022-07-26T09:04:00Z</time>
      </trkpt>
      <trkpt lat="44.62401" lon="-0.16679">
        <ele>94.3</ele>
        <time>2022-07-26T09:04:01Z</time>
      </trkpt>
      <trkpt lat="44.62402" lon="-0.16681">
        <ele>94.2</ele>
        <time>2022-07-26T09:04:02Z</time>
      </trkpt>
      <trkpt lat="44.62402" lon="-0.16683">
        <ele>94.1</ele>
        <time>2022-07-26T09:04:03Z</time>
      </trkpt>
      <trkpt lat="44.62402" lon="-0.16684">
        <ele>94.1</ele>
        <time>2022-07-26T09:04:04Z</time>
      </trkpt>
      <trkpt lat="44.62402" lon="-0.16685">
        <ele>94</ele>
        <time>2022-07-26T09:04:05Z</time>
      </trkpt>
      <trkpt lat="44.62403" lon="-0.16688">
        <ele>93.9</ele>
        <time>2022-07-26T09:04:07Z</time>
      </trkpt>
      <trkpt lat="44.62403" lon="-0.1669">
        <ele>93.8</ele>
        <time>2022-07-26T09:04:08Z</time>
      </trkpt>
      <trkpt lat="44.62403" lon="-0.16692">
        <ele>93.8</ele>
        <time>2022-07-26T09:04:09Z</time>
      </trkpt>
      <trkpt lat="44.62403" lon="-0.16693">
        <ele>93.7</ele>
        <time>2022-07-26T09:04:10Z</time>
      </trkpt>
      <trkpt lat="44.62404" lon="-0.16695">
        <ele>93.6</ele>
        <time>2022-07-26T09:04:11Z</time>
      </trkpt>
      <trkpt lat="44.62404" lon="-0.16697">
        <ele>93.5</ele>
        <time>2022-07-26T09:04:12Z</time>
      </trkpt>
      <trkpt lat="44.62405" lon="-0.16699">
        <ele>93.4</ele>
        <time>2022-07-26T09:04:14Z</time>
      </trkpt>
      <trkpt lat="44.62405" lon="-0.167">
        <ele>93.3</ele>
        <time>2022-07-26T09:04:15Z</time>
      </trkpt>
      <trkpt lat="44.62406" lon="-0.16702">
        <ele>93.2</ele>
        <time>2022-07-26T09:04:16Z</time>
      </trkpt>
      <trkpt lat="44.62406" lon="-0.16703">
        <ele>93.1</ele>
        <time>2022-07-26T09:04:17Z</time>
      </trkpt>
      <trkpt lat="44.62406" lon="-0.16704">
        <ele>93</ele>
        <time>2022-07-26T09:04:18Z</time>
      </trkpt>
      <trkpt lat="44.62407" lon="-0.16708">
        <ele>92.8</ele>
        <time>2022-07-26T09:04:19Z</time>
      </trkpt>
      <trkpt lat="44.62407" lon="-0.16709">
        <ele>92.7</ele>
        <time>2022-07-26T09:04:20Z</time>
      </trkpt>
      <trkpt lat="44.62407" lon="-0.16711">
        <ele>92.6</ele>
        <time>2022-07-26T09:04:21Z</time>
      </trkpt>
      <trkpt lat="44.62408" lon="-0.16713">
        <ele>92.5</ele>
        <time>2022-07-26T09:04:22Z</time>
      </trkpt>
      <trkpt lat="44.62408" lon="-0.16714">
        <ele>92.5</ele>
        <time>2022-07-26T09:04:23Z</time>
      </trkpt>
      <trkpt lat="44.62408" lon="-0.16715">
        <ele>92.4</ele>
        <time>2022-07-26T09:04:24Z</time>
      </trkpt>
      <trkpt lat="44.62408" lon="-0.16716">
        <ele>92.3</ele>
        <time>2022-07-26T09:04:25Z</time>
      </trkpt>
      <trkpt lat="44.62408" lon="-0.16719">
        <ele>92.1</ele>
        <time>2022-07-26T09:04:26Z</time>
      </trkpt>
      <trkpt lat="44.62409" lon="-0.16721">
        <ele>92</ele>
        <time>2022-07-26T09:04:28Z</time>
      </trkpt>
      <trkpt lat="44.62409" lon="-0.16724">
        <ele>91.8</ele>
        <time>2022-07-26T09:04:29Z</time>
      </trkpt>
      <trkpt lat="44.62409" lon="-0.16726">
        <ele>91.7</ele>
        <time>2022-07-26T09:04:30Z</time>
      </trkpt>
      <trkpt lat="44.62409" lon="-0.16727">
        <ele>91.6</ele>
        <time>2022-07-26T09:04:31Z</time>
      </trkpt>
      <trkpt lat="44.6241" lon="-0.16728">
        <ele>91.5</ele>
        <time>2022-07-26T09:04:33Z</time>
      </trkpt>
      <trkpt lat="44.6241" lon="-0.1673">
        <ele>91.4</ele>
        <time>2022-07-26T09:04:34Z</time>
      </trkpt>
      <trkpt lat="44.6241" lon="-0.16732">
        <ele>91.3</ele>
        <time>2022-07-26T09:04:35Z</time>
      </trkpt>
      <trkpt lat="44.6241" lon="-0.16735">
        <ele>91</ele>
        <time>2022-07-26T09:04:37Z</time>
      </trkpt>
      <trkpt lat="44.6241" lon="-0.16736">
        <ele>90.9</ele>
        <time>2022-07-26T09:04:38Z</time>
      </trkpt>
      <trkpt lat="44.6241" lon="-0.16738">
        <ele>90.8</ele>
        <time>2022-07-26T09:04:39Z</time>
      </trkpt>
      <trkpt lat="44.62411" lon="-0.16739">
        <ele>90.7</ele>
        <time>2022-07-26T09:04:41Z</time>
      </trkpt>
      <trkpt lat="44.62411" lon="-0.16741">
        <ele>90.6</ele>
        <time>2022-07-26T09:04:42Z</time>
      </trkpt>
      <trkpt lat="44.62411" lon="-0.16743">
        <ele>90.5</ele>
        <time>2022-07-26T09:04:43Z</time>
      </trkpt>
      <trkpt lat="44.62412" lon="-0.16744">
        <ele>90.4</ele>
        <time>2022-07-26T09:04:44Z</time>
      </trkpt>
      <trkpt lat="44.62412" lon="-0.16745">
        <ele>90.3</ele>
        <time>2022-07-26T09:04:45Z</time>
      </trkpt>
      <trkpt lat="44.62413" lon="-0.16747">
        <ele>90.2</ele>
        <time>2022-07-26T09:04:46Z</time>
      </trkpt>
      <trkpt lat="44.62413" lon="-0.16749">
        <ele>90.1</ele>
        <time>2022-07-26T09:04:47Z</time>
      </trkpt>
      <trkpt lat="44.62414" lon="-0.1675">
        <ele>90</ele>
        <time>2022-07-26T09:04:48Z</time>
      </trkpt>
      <trkpt lat="44.62414" lon="-0.16753">
        <ele>89.8</ele>
        <time>2022-07-26T09:04:49Z</time>
      </trkpt>
      <trkpt lat="44.62415" lon="-0.16754">
        <ele>89.7</ele>
        <time>2022-07-26T09:04:50Z</time>
      </trkpt>
      <trkpt lat="44.62415" lon="-0.16755">
        <ele>89.6</ele>
        <time>2022-07-26T09:04:51Z</time>
      </trkpt>
      <trkpt lat="44.62416" lon="-0.16756">
        <ele>89.6</ele>
        <time>2022-07-26T09:04:52Z</time>
      </trkpt>
      <trkpt lat="44.62416" lon="-0.16757">
        <ele>89.5</ele>
        <time>2022-07-26T09:04:53Z</time>
      </trkpt>
      <trkpt lat="44.62417" lon="-0.16759">
        <ele>89.4</ele>
        <time>2022-07-26T09:04:55Z</time>
      </trkpt>
      <trkpt lat="44.62417" lon="-0.16761">
        <ele>89.2</ele>
        <time>2022-07-26T09:04:56Z</time>
      </trkpt>
      <trkpt lat="44.62418" lon="-0.16764">
        <ele>89.1</ele>
        <time>2022-07-26T09:04:57Z</time>
      </trkpt>
      <trkpt lat="44.62418" lon="-0.16765">
        <ele>89</ele>
        <time>2022-07-26T09:04:58Z</time>
      </trkpt>
      <trkpt lat="44.62418" lon="-0.16766">
        <ele>88.9</ele>
        <time>2022-07-26T09:04:59Z</time>
      </trkpt>
      <trkpt lat="44.62419" lon="-0.16769">
        <ele>88.7</ele>
        <time>2022-07-26T09:05:01Z</time>
      </trkpt>
      <trkpt lat="44.62419" lon="-0.16771">
        <ele>88.6</ele>
        <time>2022-07-26T09:05:02Z</time>
      </trkpt>
      <trkpt lat="44.62419" lon="-0.16772">
        <ele>88.5</ele>
        <time>2022-07-26T09:05:03Z</time>
      </trkpt>
      <trkpt lat="44.62419" lon="-0.16773">
        <ele>88.4</ele>
        <time>2022-07-26T09:05:04Z</time>
      </trkpt>
      <trkpt lat="44.62419" lon="-0.16776">
        <ele>88.3</ele>
        <time>2022-07-26T09:05:05Z</time>
      </trkpt>
      <trkpt lat="44.62419" lon="-0.16777">
        <ele>88.2</ele>
        <time>2022-07-26T09:05:07Z</time>
      </trkpt>
      <trkpt lat="44.62419" lon="-0.16778">
        <ele>88.1</ele>
        <time>2022-07-26T09:05:08Z</time>
      </trkpt>
      <trkpt lat="44.62418" lon="-0.16779">
        <ele>88</ele>
        <time>2022-07-26T09:05:09Z</time>
      </trkpt>
      <trkpt lat="44.62418" lon="-0.16781">
        <ele>87.9</ele>
        <time>2022-07-26T09:05:10Z</time>
      </trkpt>
      <trkpt lat="44.62418" lon="-0.16783">
        <ele>87.7</ele>
        <time>2022-07-26T09:05:11Z</time>
      </trkpt>
      <trkpt lat="44.62418" lon="-0.16783">
        <ele>87.7</ele>
        <time>2022-07-26T09:05:12Z</time>
      </trkpt>
      <trkpt lat="44.62418" lon="-0.16785">
        <ele>87.6</ele>
        <time>2022-07-26T09:05:13Z</time>
      </trkpt>
      <trkpt lat="44.62418" lon="-0.16786">
        <ele>87.5</ele>
        <time>2022-07-26T09:05:14Z</time>
      </trkpt>
      <trkpt lat="44.62418" lon="-0.16788">
        <ele>87.4</ele>
        <time>2022-07-26T09:05:15Z</time>
      </trkpt>
      <trkpt lat="44.62418" lon="-0.1679">
        <ele>87.2</ele>
        <time>2022-07-26T09:05:16Z</time>
      </trkpt>
      <trkpt lat="44.62418" lon="-0.1679">
        <ele>87.2</ele>
        <time>2022-07-26T09:05:17Z</time>
      </trkpt>
      <trkpt lat="44.62418" lon="-0.1679">
        <ele>87.2</ele>
        <time>2022-07-26T09:05:18Z</time>
      </trkpt>
      <trkpt lat="44.62418" lon="-0.1679">
        <ele>87.1</ele>
        <time>2022-07-26T09:05:19Z</time>
      </trkpt>
      <trkpt lat="44.62418" lon="-0.16792">
        <ele>87</ele>
        <time>2022-07-26T09:05:20Z</time>
      </trkpt>
      <trkpt lat="44.62419" lon="-0.16793">
        <ele>86.9</ele>
        <time>2022-07-26T09:05:22Z</time>
      </trkpt>
      <trkpt lat="44.6242" lon="-0.16794">
        <ele>86.8</ele>
        <time>2022-07-26T09:05:23Z</time>
      </trkpt>
      <trkpt lat="44.6242" lon="-0.16795">
        <ele>86.8</ele>
        <time>2022-07-26T09:05:24Z</time>
      </trkpt>
      <trkpt lat="44.6242" lon="-0.16795">
        <ele>86.7</ele>
        <time>2022-07-26T09:05:25Z</time>
      </trkpt>
      <trkpt lat="44.6242" lon="-0.16795">
        <ele>86.7</ele>
        <time>2022-07-26T09:05:27Z</time>
      </trkpt>
      <trkpt lat="44.6242" lon="-0.16795">
        <ele>86.7</ele>
        <time>2022-07-26T09:05:28Z</time>
      </trkpt>
      <trkpt lat="44.6242" lon="-0.16795">
        <ele>86.7</ele>
        <time>2022-07-26T09:05:29Z</time>
      </trkpt>
      <trkpt lat="44.6242" lon="-0.16795">
        <ele>86.7</ele>
        <time>2022-07-26T09:05:30Z</time>
      </trkpt>
      <trkpt lat="44.6242" lon="-0.16796">
        <ele>86.6</ele>
        <time>2022-07-26T09:05:32Z</time>
      </trkpt>
      <trkpt lat="44.6242" lon="-0.16798">
        <ele>86.5</ele>
        <time>2022-07-26T09:05:33Z</time>
      </trkpt>
      <trkpt lat="44.6242" lon="-0.16799">
        <ele>86.4</ele>
        <time>2022-07-26T09:05:35Z</time>
      </trkpt>
      <trkpt lat="44.6242" lon="-0.168">
        <ele>86.4</ele>
        <time>2022-07-26T09:05:36Z</time>
      </trkpt>
      <trkpt lat="44.6242" lon="-0.16801">
        <ele>86.3</ele>
        <time>2022-07-26T09:05:37Z</time>
      </trkpt>
      <trkpt lat="44.6242" lon="-0.16802">
        <ele>86.2</ele>
        <time>2022-07-26T09:05:38Z</time>
      </trkpt>
      <trkpt lat="44.62421" lon="-0.16804">
        <ele>86.1</ele>
        <time>2022-07-26T09:05:39Z</time>
      </trkpt>
      <trkpt lat="44.62421" lon="-0.16805">
        <ele>86</ele>
        <time>2022-07-26T09:05:40Z</time>
      </trkpt>
      <trkpt lat="44.62421" lon="-0.16807">
        <ele>85.9</ele>
        <time>2022-07-26T09:05:41Z</time>
      </trkpt>
      <trkpt lat="44.6242" lon="-0.1681">
        <ele>85.7</ele>
        <time>2022-07-26T09:05:42Z</time>
      </trkpt>
      <trkpt lat="44.6242" lon="-0.16812">
        <ele>85.5</ele>
        <time>2022-07-26T09:05:43Z</time>
      </trkpt>
      <trkpt lat="44.62421" lon="-0.16814">
        <ele>85.4</ele>
        <time>2022-07-26T09:05:44Z</time>
      </trkpt>
      <trkpt lat="44.62421" lon="-0.16815">
        <ele>85.3</ele>
        <time>2022-07-26T09:05:46Z</time>
      </trkpt>
      <trkpt lat="44.62421" lon="-0.16817">
        <ele>85.2</ele>
        <time>2022-07-26T09:05:47Z</time>
      </trkpt>
      <trkpt lat="44.62421" lon="-0.16818">
        <ele>85.1</ele>
        <time>2022-07-26T09:05:48Z</time>
      </trkpt>
      <trkpt lat="44.62421" lon="-0.1682">
        <ele>85</ele>
        <time>2022-07-26T09:05:49Z</time>
      </trkpt>
      <trkpt lat="44.62421" lon="-0.16821">
        <ele>84.9</ele>
        <time>2022-07-26T09:05:50Z</time>
      </trkpt>
      <trkpt lat="44.62421" lon="-0.16823">
        <ele>84.8</ele>
        <time>2022-07-26T09:05:51Z</time>
      </trkpt>
      <trkpt lat="44.62421" lon="-0.16825">
        <ele>84.6</ele>
        <time>2022-07-26T09:05:53Z</time>
      </trkpt>
      <trkpt lat="44.62422" lon="-0.16827">
        <ele>84.5</ele>
        <time>2022-07-26T09:05:54Z</time>
      </trkpt>
      <trkpt lat="44.62422" lon="-0.16828">
        <ele>84.4</ele>
        <time>2022-07-26T09:05:55Z</time>
      </trkpt>
      <trkpt lat="44.62422" lon="-0.16829">
        <ele>84.3</ele>
        <time>2022-07-26T09:05:56Z</time>
      </trkpt>
      <trkpt lat="44.62422" lon="-0.16831">
        <ele>84.2</ele>
        <time>2022-07-26T09:05:58Z</time>
      </trkpt>
      <trkpt lat="44.62422" lon="-0.16833">
        <ele>84.1</ele>
        <time>2022-07-26T09:05:59Z</time>
      </trkpt>
      <trkpt lat="44.62422" lon="-0.16834">
        <ele>84</ele>
        <time>2022-07-26T09:06:00Z</time>
      </trkpt>
      <trkpt lat="44.62422" lon="-0.16836">
        <ele>83.9</ele>
        <time>2022-07-26T09:06:01Z</time>
      </trkpt>
      <trkpt lat="44.62422" lon="-0.16837">
        <ele>83.8</ele>
        <time>2022-07-26T09:06:02Z</time>
      </trkpt>
      <trkpt lat="44.62423" lon="-0.16839">
        <ele>83.7</ele>
        <time>2022-07-26T09:06:03Z</time>
      </trkpt>
      <trkpt lat="44.62423" lon="-0.1684">
        <ele>83.6</ele>
        <time>2022-07-26T09:06:04Z</time>
      </trkpt>
      <trkpt lat="44.62423" lon="-0.16841">
        <ele>83.5</ele>
        <time>2022-07-26T09:06:05Z</time>
      </trkpt>
      <trkpt lat="44.62423" lon="-0.16843">
        <ele>83.4</ele>
        <time>2022-07-26T09:06:06Z</time>
      </trkpt>
      <trkpt lat="44.62423" lon="-0.16844">
        <ele>83.3</ele>
        <time>2022-07-26T09:06:07Z</time>
      </trkpt>
      <trkpt lat="44.62423" lon="-0.16845">
        <ele>83.2</ele>
        <time>2022-07-26T09:06:09Z</time>
      </trkpt>
      <trkpt lat="44.62422" lon="-0.16847">
        <ele>83.1</ele>
        <time>2022-07-26T09:06:10Z</time>
      </trkpt>
      <trkpt lat="44.62422" lon="-0.16848">
        <ele>83</ele>
        <time>2022-07-26T09:06:11Z</time>
      </trkpt>
      <trkpt lat="44.62421" lon="-0.1685">
        <ele>82.9</ele>
        <time>2022-07-26T09:06:12Z</time>
      </trkpt>
      <trkpt lat="44.62422" lon="-0.16851">
        <ele>82.9</ele>
        <time>2022-07-26T09:06:13Z</time>
      </trkpt>
      <trkpt lat="44.62422" lon="-0.16853">
        <ele>82.8</ele>
        <time>2022-07-26T09:06:14Z</time>
      </trkpt>
      <trkpt lat="44.62422" lon="-0.16855">
        <ele>82.7</ele>
        <time>2022-07-26T09:06:15Z</time>
      </trkpt>
      <trkpt lat="44.62422" lon="-0.16857">
        <ele>82.6</ele>
        <time>2022-07-26T09:06:16Z</time>
      </trkpt>
      <trkpt lat="44.62422" lon="-0.16859">
        <ele>82.5</ele>
        <time>2022-07-26T09:06:17Z</time>
      </trkpt>
      <trkpt lat="44.62423" lon="-0.1686">
        <ele>82.4</ele>
        <time>2022-07-26T09:06:19Z</time>
      </trkpt>
      <trkpt lat="44.62423" lon="-0.16861">
        <ele>82.4</ele>
        <time>2022-07-26T09:06:20Z</time>
      </trkpt>
      <trkpt lat="44.62423" lon="-0.16862">
        <ele>82.3</ele>
        <time>2022-07-26T09:06:21Z</time>
      </trkpt>
      <trkpt lat="44.62423" lon="-0.16865">
        <ele>82.2</ele>
        <time>2022-07-26T09:06:22Z</time>
      </trkpt>
      <trkpt lat="44.62423" lon="-0.16864">
        <ele>82.2</ele>
        <time>2022-07-26T09:06:23Z</time>
      </trkpt>
      <trkpt lat="44.62424" lon="-0.16864">
        <ele>82.2</ele>
        <time>2022-07-26T09:06:24Z</time>
      </trkpt>
      <trkpt lat="44.62424" lon="-0.16864">
        <ele>82.2</ele>
        <time>2022-07-26T09:06:25Z</time>
      </trkpt>
      <trkpt lat="44.62424" lon="-0.16863">
        <ele>82.1</ele>
        <time>2022-07-26T09:06:26Z</time>
      </trkpt>
      <trkpt lat="44.62424" lon="-0.16863">
        <ele>82.1</ele>
        <time>2022-07-26T09:06:27Z</time>
      </trkpt>
      <trkpt lat="44.62424" lon="-0.16863">
        <ele>82.1</ele>
        <time>2022-07-26T09:06:28Z</time>
      </trkpt>
      <trkpt lat="44.62424" lon="-0.16864">
        <ele>82.1</ele>
        <time>2022-07-26T09:06:29Z</time>
      </trkpt>
      <trkpt lat="44.62424" lon="-0.16865">
        <ele>82</ele>
        <time>2022-07-26T09:06:30Z</time>
      </trkpt>
      <trkpt lat="44.62423" lon="-0.16867">
        <ele>81.9</ele>
        <time>2022-07-26T09:06:31Z</time>
      </trkpt>
      <trkpt lat="44.62424" lon="-0.1687">
        <ele>81.8</ele>
        <time>2022-07-26T09:06:32Z</time>
      </trkpt>
      <trkpt lat="44.62424" lon="-0.16872">
        <ele>81.7</ele>
        <time>2022-07-26T09:06:33Z</time>
      </trkpt>
      <trkpt lat="44.62424" lon="-0.16874">
        <ele>81.6</ele>
        <time>2022-07-26T09:06:34Z</time>
      </trkpt>
      <trkpt lat="44.62424" lon="-0.16876">
        <ele>81.5</ele>
        <time>2022-07-26T09:06:35Z</time>
      </trkpt>
      <trkpt lat="44.62424" lon="-0.16878">
        <ele>81.5</ele>
        <time>2022-07-26T09:06:36Z</time>
      </trkpt>
      <trkpt lat="44.62423" lon="-0.1688">
        <ele>81.4</ele>
        <time>2022-07-26T09:06:38Z</time>
      </trkpt>
      <trkpt lat="44.62424" lon="-0.16882">
        <ele>81.3</ele>
        <time>2022-07-26T09:06:39Z</time>
      </trkpt>
      <trkpt lat="44.62424" lon="-0.16883">
        <ele>81.2</ele>
        <time>2022-07-26T09:06:40Z</time>
      </trkpt>
      <trkpt lat="44.62424" lon="-0.16885">
        <ele>81.2</ele>
        <time>2022-07-26T09:06:41Z</time>
      </trkpt>
      <trkpt lat="44.62424" lon="-0.16889">
        <ele>81</ele>
        <time>2022-07-26T09:06:42Z</time>
      </trkpt>
      <trkpt lat="44.62424" lon="-0.16889">
        <ele>81</ele>
        <time>2022-07-26T09:06:43Z</time>
      </trkpt>
      <trkpt lat="44.62424" lon="-0.1689">
        <ele>81</ele>
        <time>2022-07-26T09:06:44Z</time>
      </trkpt>
      <trkpt lat="44.62425" lon="-0.16894">
        <ele>80.8</ele>
        <time>2022-07-26T09:06:46Z</time>
      </trkpt>
      <trkpt lat="44.62425" lon="-0.16895">
        <ele>80.8</ele>
        <time>2022-07-26T09:06:47Z</time>
      </trkpt>
      <trkpt lat="44.62425" lon="-0.16897">
        <ele>80.7</ele>
        <time>2022-07-26T09:06:48Z</time>
      </trkpt>
      <trkpt lat="44.62426" lon="-0.169">
        <ele>80.6</ele>
        <time>2022-07-26T09:06:50Z</time>
      </trkpt>
      <trkpt lat="44.62426" lon="-0.16901">
        <ele>80.6</ele>
        <time>2022-07-26T09:06:51Z</time>
      </trkpt>
      <trkpt lat="44.62427" lon="-0.16904">
        <ele>80.5</ele>
        <time>2022-07-26T09:06:52Z</time>
      </trkpt>
      <trkpt lat="44.62427" lon="-0.16906">
        <ele>80.4</ele>
        <time>2022-07-26T09:06:53Z</time>
      </trkpt>
      <trkpt lat="44.62427" lon="-0.16907">
        <ele>80.4</ele>
        <time>2022-07-26T09:06:54Z</time>
      </trkpt>
      <trkpt lat="44.62428" lon="-0.1691">
        <ele>80.3</ele>
        <time>2022-07-26T09:06:56Z</time>
      </trkpt>
      <trkpt lat="44.62428" lon="-0.16913">
        <ele>80.3</ele>
        <time>2022-07-26T09:06:57Z</time>
      </trkpt>
      <trkpt lat="44.62428" lon="-0.16914">
        <ele>80.2</ele>
        <time>2022-07-26T09:06:58Z</time>
      </trkpt>
      <trkpt lat="44.62428" lon="-0.16916">
        <ele>80.2</ele>
        <time>2022-07-26T09:06:59Z</time>
      </trkpt>
      <trkpt lat="44.62428" lon="-0.16917">
        <ele>80.2</ele>
        <time>2022-07-26T09:07:00Z</time>
      </trkpt>
      <trkpt lat="44.62429" lon="-0.1692">
        <ele>80.1</ele>
        <time>2022-07-26T09:07:02Z</time>
      </trkpt>
      <trkpt lat="44.62429" lon="-0.16922">
        <ele>80.1</ele>
        <time>2022-07-26T09:07:03Z</time>
      </trkpt>
      <trkpt lat="44.62429" lon="-0.16923">
        <ele>80</ele>
        <time>2022-07-26T09:07:04Z</time>
      </trkpt>
      <trkpt lat="44.6243" lon="-0.16925">
        <ele>80</ele>
        <time>2022-07-26T09:07:05Z</time>
      </trkpt>
      <trkpt lat="44.6243" lon="-0.16926">
        <ele>80</ele>
        <time>2022-07-26T09:07:06Z</time>
      </trkpt>
      <trkpt lat="44.6243" lon="-0.16927">
        <ele>79.9</ele>
        <time>2022-07-26T09:07:07Z</time>
      </trkpt>
      <trkpt lat="44.6243" lon="-0.16928">
        <ele>79.9</ele>
        <time>2022-07-26T09:07:08Z</time>
      </trkpt>
      <trkpt lat="44.62431" lon="-0.1693">
        <ele>79.9</ele>
        <time>2022-07-26T09:07:09Z</time>
      </trkpt>
      <trkpt lat="44.62432" lon="-0.16933">
        <ele>79.8</ele>
        <time>2022-07-26T09:07:10Z</time>
      </trkpt>
      <trkpt lat="44.62432" lon="-0.16934">
        <ele>79.8</ele>
        <time>2022-07-26T09:07:11Z</time>
      </trkpt>
      <trkpt lat="44.62432" lon="-0.16935">
        <ele>79.8</ele>
        <time>2022-07-26T09:07:12Z</time>
      </trkpt>
      <trkpt lat="44.62433" lon="-0.16936">
        <ele>79.8</ele>
        <time>2022-07-26T09:07:13Z</time>
      </trkpt>
      <trkpt lat="44.62433" lon="-0.16938">
        <ele>79.7</ele>
        <time>2022-07-26T09:07:14Z</time>
      </trkpt>
      <trkpt lat="44.62434" lon="-0.1694">
        <ele>79.7</ele>
        <time>2022-07-26T09:07:15Z</time>
      </trkpt>
      <trkpt lat="44.62434" lon="-0.16941">
        <ele>79.7</ele>
        <time>2022-07-26T09:07:16Z</time>
      </trkpt>
      <trkpt lat="44.62434" lon="-0.16944">
        <ele>79.6</ele>
        <time>2022-07-26T09:07:17Z</time>
      </trkpt>
      <trkpt lat="44.62435" lon="-0.16945">
        <ele>79.6</ele>
        <time>2022-07-26T09:07:18Z</time>
      </trkpt>
      <trkpt lat="44.62435" lon="-0.16947">
        <ele>79.5</ele>
        <time>2022-07-26T09:07:19Z</time>
      </trkpt>
      <trkpt lat="44.62436" lon="-0.16948">
        <ele>79.5</ele>
        <time>2022-07-26T09:07:20Z</time>
      </trkpt>
      <trkpt lat="44.62436" lon="-0.1695">
        <ele>79.5</ele>
        <time>2022-07-26T09:07:21Z</time>
      </trkpt>
      <trkpt lat="44.62437" lon="-0.16952">
        <ele>79.5</ele>
        <time>2022-07-26T09:07:22Z</time>
      </trkpt>
      <trkpt lat="44.62437" lon="-0.16953">
        <ele>79.4</ele>
        <time>2022-07-26T09:07:23Z</time>
      </trkpt>
      <trkpt lat="44.62437" lon="-0.16955">
        <ele>79.4</ele>
        <time>2022-07-26T09:07:24Z</time>
      </trkpt>
      <trkpt lat="44.62438" lon="-0.16956">
        <ele>79.4</ele>
        <time>2022-07-26T09:07:25Z</time>
      </trkpt>
      <trkpt lat="44.62438" lon="-0.16958">
        <ele>79.4</ele>
        <time>2022-07-26T09:07:26Z</time>
      </trkpt>
      <trkpt lat="44.62439" lon="-0.1696">
        <ele>79.3</ele>
        <time>2022-07-26T09:07:27Z</time>
      </trkpt>
      <trkpt lat="44.62439" lon="-0.16962">
        <ele>79.3</ele>
        <time>2022-07-26T09:07:28Z</time>
      </trkpt>
      <trkpt lat="44.6244" lon="-0.16963">
        <ele>79.3</ele>
        <time>2022-07-26T09:07:29Z</time>
      </trkpt>
      <trkpt lat="44.6244" lon="-0.16965">
        <ele>79.3</ele>
        <time>2022-07-26T09:07:30Z</time>
      </trkpt>
      <trkpt lat="44.6244" lon="-0.16966">
        <ele>79.2</ele>
        <time>2022-07-26T09:07:31Z</time>
      </trkpt>
      <trkpt lat="44.62441" lon="-0.16969">
        <ele>79.2</ele>
        <time>2022-07-26T09:07:32Z</time>
      </trkpt>
      <trkpt lat="44.62441" lon="-0.1697">
        <ele>79.2</ele>
        <time>2022-07-26T09:07:33Z</time>
      </trkpt>
      <trkpt lat="44.62441" lon="-0.16971">
        <ele>79.2</ele>
        <time>2022-07-26T09:07:34Z</time>
      </trkpt>
      <trkpt lat="44.62441" lon="-0.16973">
        <ele>79.2</ele>
        <time>2022-07-26T09:07:35Z</time>
      </trkpt>
      <trkpt lat="44.62442" lon="-0.16975">
        <ele>79.2</ele>
        <time>2022-07-26T09:07:36Z</time>
      </trkpt>
      <trkpt lat="44.62443" lon="-0.16978">
        <ele>79.1</ele>
        <time>2022-07-26T09:07:37Z</time>
      </trkpt>
      <trkpt lat="44.62443" lon="-0.16979">
        <ele>79.1</ele>
        <time>2022-07-26T09:07:38Z</time>
      </trkpt>
      <trkpt lat="44.62443" lon="-0.1698">
        <ele>79.1</ele>
        <time>2022-07-26T09:07:39Z</time>
      </trkpt>
      <trkpt lat="44.62444" lon="-0.16982">
        <ele>79.1</ele>
        <time>2022-07-26T09:07:40Z</time>
      </trkpt>
      <trkpt lat="44.62444" lon="-0.16983">
        <ele>79.1</ele>
        <time>2022-07-26T09:07:41Z</time>
      </trkpt>
      <trkpt lat="44.62444" lon="-0.16986">
        <ele>79</ele>
        <time>2022-07-26T09:07:42Z</time>
      </trkpt>
      <trkpt lat="44.62444" lon="-0.16987">
        <ele>79</ele>
        <time>2022-07-26T09:07:43Z</time>
      </trkpt>
      <trkpt lat="44.62445" lon="-0.16989">
        <ele>79</ele>
        <time>2022-07-26T09:07:44Z</time>
      </trkpt>
      <trkpt lat="44.62445" lon="-0.1699">
        <ele>79</ele>
        <time>2022-07-26T09:07:45Z</time>
      </trkpt>
      <trkpt lat="44.62445" lon="-0.16992">
        <ele>79</ele>
        <time>2022-07-26T09:07:46Z</time>
      </trkpt>
      <trkpt lat="44.62446" lon="-0.16994">
        <ele>79</ele>
        <time>2022-07-26T09:07:48Z</time>
      </trkpt>
      <trkpt lat="44.62446" lon="-0.16996">
        <ele>78.9</ele>
        <time>2022-07-26T09:07:49Z</time>
      </trkpt>
      <trkpt lat="44.62447" lon="-0.16998">
        <ele>78.9</ele>
        <time>2022-07-26T09:07:50Z</time>
      </trkpt>
      <trkpt lat="44.62448" lon="-0.17001">
        <ele>78.9</ele>
        <time>2022-07-26T09:07:51Z</time>
      </trkpt>
      <trkpt lat="44.62448" lon="-0.17002">
        <ele>78.9</ele>
        <time>2022-07-26T09:07:52Z</time>
      </trkpt>
      <trkpt lat="44.62448" lon="-0.17003">
        <ele>78.9</ele>
        <time>2022-07-26T09:07:53Z</time>
      </trkpt>
      <trkpt lat="44.62449" lon="-0.17006">
        <ele>78.9</ele>
        <time>2022-07-26T09:07:54Z</time>
      </trkpt>
      <trkpt lat="44.62449" lon="-0.17007">
        <ele>78.9</ele>
        <time>2022-07-26T09:07:55Z</time>
      </trkpt>
      <trkpt lat="44.6245" lon="-0.17008">
        <ele>78.9</ele>
        <time>2022-07-26T09:07:56Z</time>
      </trkpt>
      <trkpt lat="44.6245" lon="-0.1701">
        <ele>78.8</ele>
        <time>2022-07-26T09:07:57Z</time>
      </trkpt>
      <trkpt lat="44.6245" lon="-0.17012">
        <ele>78.8</ele>
        <time>2022-07-26T09:07:58Z</time>
      </trkpt>
      <trkpt lat="44.62451" lon="-0.17015">
        <ele>78.8</ele>
        <time>2022-07-26T09:07:59Z</time>
      </trkpt>
      <trkpt lat="44.62451" lon="-0.17017">
        <ele>78.7</ele>
        <time>2022-07-26T09:08:00Z</time>
      </trkpt>
      <trkpt lat="44.62452" lon="-0.17018">
        <ele>78.7</ele>
        <time>2022-07-26T09:08:01Z</time>
      </trkpt>
      <trkpt lat="44.62453" lon="-0.17022">
        <ele>78.7</ele>
        <time>2022-07-26T09:08:03Z</time>
      </trkpt>
      <trkpt lat="44.62453" lon="-0.17023">
        <ele>78.7</ele>
        <time>2022-07-26T09:08:04Z</time>
      </trkpt>
      <trkpt lat="44.62453" lon="-0.17024">
        <ele>78.7</ele>
        <time>2022-07-26T09:08:05Z</time>
      </trkpt>
      <trkpt lat="44.62454" lon="-0.17028">
        <ele>78.7</ele>
        <time>2022-07-26T09:08:07Z</time>
      </trkpt>
      <trkpt lat="44.62455" lon="-0.17029">
        <ele>78.6</ele>
        <time>2022-07-26T09:08:08Z</time>
      </trkpt>
      <trkpt lat="44.62455" lon="-0.17031">
        <ele>78.6</ele>
        <time>2022-07-26T09:08:09Z</time>
      </trkpt>
      <trkpt lat="44.62456" lon="-0.17034">
        <ele>78.6</ele>
        <time>2022-07-26T09:08:11Z</time>
      </trkpt>
      <trkpt lat="44.62456" lon="-0.17036">
        <ele>78.6</ele>
        <time>2022-07-26T09:08:12Z</time>
      </trkpt>
      <trkpt lat="44.62457" lon="-0.17037">
        <ele>78.6</ele>
        <time>2022-07-26T09:08:13Z</time>
      </trkpt>
      <trkpt lat="44.62457" lon="-0.1704">
        <ele>78.5</ele>
        <time>2022-07-26T09:08:15Z</time>
      </trkpt>
      <trkpt lat="44.62458" lon="-0.17041">
        <ele>78.5</ele>
        <time>2022-07-26T09:08:16Z</time>
      </trkpt>
      <trkpt lat="44.62459" lon="-0.17044">
        <ele>78.5</ele>
        <time>2022-07-26T09:08:17Z</time>
      </trkpt>
      <trkpt lat="44.62459" lon="-0.17045">
        <ele>78.5</ele>
        <time>2022-07-26T09:08:18Z</time>
      </trkpt>
      <trkpt lat="44.62459" lon="-0.17046">
        <ele>78.4</ele>
        <time>2022-07-26T09:08:19Z</time>
      </trkpt>
      <trkpt lat="44.6246" lon="-0.17048">
        <ele>78.5</ele>
        <time>2022-07-26T09:08:20Z</time>
      </trkpt>
      <trkpt lat="44.6246" lon="-0.1705">
        <ele>78.5</ele>
        <time>2022-07-26T09:08:21Z</time>
      </trkpt>
      <trkpt lat="44.62461" lon="-0.17053">
        <ele>78.4</ele>
        <time>2022-07-26T09:08:22Z</time>
      </trkpt>
      <trkpt lat="44.62462" lon="-0.17055">
        <ele>78.4</ele>
        <time>2022-07-26T09:08:24Z</time>
      </trkpt>
      <trkpt lat="44.62463" lon="-0.17056">
        <ele>78.4</ele>
        <time>2022-07-26T09:08:25Z</time>
      </trkpt>
      <trkpt lat="44.62463" lon="-0.17057">
        <ele>78.4</ele>
        <time>2022-07-26T09:08:26Z</time>
      </trkpt>
      <trkpt lat="44.62464" lon="-0.1706">
        <ele>78.3</ele>
        <time>2022-07-26T09:08:27Z</time>
      </trkpt>
      <trkpt lat="44.62464" lon="-0.17062">
        <ele>78.3</ele>
        <time>2022-07-26T09:08:29Z</time>
      </trkpt>
      <trkpt lat="44.62465" lon="-0.17065">
        <ele>78.2</ele>
        <time>2022-07-26T09:08:30Z</time>
      </trkpt>
      <trkpt lat="44.62466" lon="-0.17067">
        <ele>78.3</ele>
        <time>2022-07-26T09:08:31Z</time>
      </trkpt>
      <trkpt lat="44.62466" lon="-0.17068">
        <ele>78.2</ele>
        <time>2022-07-26T09:08:32Z</time>
      </trkpt>
      <trkpt lat="44.62466" lon="-0.1707">
        <ele>78.2</ele>
        <time>2022-07-26T09:08:33Z</time>
      </trkpt>
      <trkpt lat="44.62467" lon="-0.17071">
        <ele>78.2</ele>
        <time>2022-07-26T09:08:34Z</time>
      </trkpt>
      <trkpt lat="44.62468" lon="-0.17074">
        <ele>78.1</ele>
        <time>2022-07-26T09:08:36Z</time>
      </trkpt>
      <trkpt lat="44.62468" lon="-0.17077">
        <ele>78</ele>
        <time>2022-07-26T09:08:37Z</time>
      </trkpt>
      <trkpt lat="44.62469" lon="-0.17078">
        <ele>78</ele>
        <time>2022-07-26T09:08:38Z</time>
      </trkpt>
      <trkpt lat="44.62469" lon="-0.1708">
        <ele>78</ele>
        <time>2022-07-26T09:08:39Z</time>
      </trkpt>
      <trkpt lat="44.6247" lon="-0.17082">
        <ele>77.9</ele>
        <time>2022-07-26T09:08:41Z</time>
      </trkpt>
      <trkpt lat="44.62471" lon="-0.17085">
        <ele>77.8</ele>
        <time>2022-07-26T09:08:42Z</time>
      </trkpt>
      <trkpt lat="44.62471" lon="-0.17086">
        <ele>77.8</ele>
        <time>2022-07-26T09:08:43Z</time>
      </trkpt>
      <trkpt lat="44.62472" lon="-0.17088">
        <ele>77.8</ele>
        <time>2022-07-26T09:08:45Z</time>
      </trkpt>
      <trkpt lat="44.62472" lon="-0.1709">
        <ele>77.7</ele>
        <time>2022-07-26T09:08:46Z</time>
      </trkpt>
      <trkpt lat="44.62473" lon="-0.17094">
        <ele>77.6</ele>
        <time>2022-07-26T09:08:48Z</time>
      </trkpt>
      <trkpt lat="44.62473" lon="-0.17095">
        <ele>77.6</ele>
        <time>2022-07-26T09:08:49Z</time>
      </trkpt>
      <trkpt lat="44.62473" lon="-0.17097">
        <ele>77.6</ele>
        <time>2022-07-26T09:08:50Z</time>
      </trkpt>
      <trkpt lat="44.62474" lon="-0.17098">
        <ele>77.4</ele>
        <time>2022-07-26T09:08:51Z</time>
      </trkpt>
      <trkpt lat="44.62475" lon="-0.17102">
        <ele>77.3</ele>
        <time>2022-07-26T09:08:53Z</time>
      </trkpt>
      <trkpt lat="44.62476" lon="-0.17105">
        <ele>77.3</ele>
        <time>2022-07-26T09:08:54Z</time>
      </trkpt>
      <trkpt lat="44.62476" lon="-0.17106">
        <ele>77.3</ele>
        <time>2022-07-26T09:08:55Z</time>
      </trkpt>
      <trkpt lat="44.62476" lon="-0.17107">
        <ele>77.2</ele>
        <time>2022-07-26T09:08:56Z</time>
      </trkpt>
      <trkpt lat="44.62478" lon="-0.17111">
        <ele>77</ele>
        <time>2022-07-26T09:08:58Z</time>
      </trkpt>
      <trkpt lat="44.62478" lon="-0.17112">
        <ele>77.1</ele>
        <time>2022-07-26T09:08:59Z</time>
      </trkpt>
      <trkpt lat="44.62479" lon="-0.17114">
        <ele>77.1</ele>
        <time>2022-07-26T09:09:00Z</time>
      </trkpt>
      <trkpt lat="44.62479" lon="-0.17116">
        <ele>76.9</ele>
        <time>2022-07-26T09:09:01Z</time>
      </trkpt>
      <trkpt lat="44.6248" lon="-0.1712">
        <ele>76.8</ele>
        <time>2022-07-26T09:09:03Z</time>
      </trkpt>
      <trkpt lat="44.62481" lon="-0.17121">
        <ele>76.8</ele>
        <time>2022-07-26T09:09:04Z</time>
      </trkpt>
      <trkpt lat="44.62482" lon="-0.17124">
        <ele>76.7</ele>
        <time>2022-07-26T09:09:05Z</time>
      </trkpt>
      <trkpt lat="44.62483" lon="-0.17127">
        <ele>76.7</ele>
        <time>2022-07-26T09:09:06Z</time>
      </trkpt>
      <trkpt lat="44.62483" lon="-0.17129">
        <ele>76.5</ele>
        <time>2022-07-26T09:09:07Z</time>
      </trkpt>
      <trkpt lat="44.62484" lon="-0.17131">
        <ele>76.6</ele>
        <time>2022-07-26T09:09:09Z</time>
      </trkpt>
      <trkpt lat="44.62484" lon="-0.17132">
        <ele>76.5</ele>
        <time>2022-07-26T09:09:10Z</time>
      </trkpt>
      <trkpt lat="44.62485" lon="-0.17133">
        <ele>76.5</ele>
        <time>2022-07-26T09:09:11Z</time>
      </trkpt>
      <trkpt lat="44.62485" lon="-0.17135">
        <ele>76.5</ele>
        <time>2022-07-26T09:09:12Z</time>
      </trkpt>
      <trkpt lat="44.62486" lon="-0.17137">
        <ele>76.4</ele>
        <time>2022-07-26T09:09:13Z</time>
      </trkpt>
      <trkpt lat="44.62487" lon="-0.17139">
        <ele>76.4</ele>
        <time>2022-07-26T09:09:14Z</time>
      </trkpt>
      <trkpt lat="44.62487" lon="-0.1714">
        <ele>76.4</ele>
        <time>2022-07-26T09:09:15Z</time>
      </trkpt>
      <trkpt lat="44.62487" lon="-0.17141">
        <ele>76.3</ele>
        <time>2022-07-26T09:09:16Z</time>
      </trkpt>
      <trkpt lat="44.62488" lon="-0.17143">
        <ele>76.3</ele>
        <time>2022-07-26T09:09:17Z</time>
      </trkpt>
      <trkpt lat="44.62488" lon="-0.17146">
        <ele>76.2</ele>
        <time>2022-07-26T09:09:18Z</time>
      </trkpt>
      <trkpt lat="44.62489" lon="-0.17147">
        <ele>76.2</ele>
        <time>2022-07-26T09:09:19Z</time>
      </trkpt>
      <trkpt lat="44.62489" lon="-0.17149">
        <ele>76.1</ele>
        <time>2022-07-26T09:09:20Z</time>
      </trkpt>
      <trkpt lat="44.62489" lon="-0.17151">
        <ele>76.1</ele>
        <time>2022-07-26T09:09:21Z</time>
      </trkpt>
      <trkpt lat="44.6249" lon="-0.17152">
        <ele>76.1</ele>
        <time>2022-07-26T09:09:22Z</time>
      </trkpt>
      <trkpt lat="44.62491" lon="-0.17156">
        <ele>76.1</ele>
        <time>2022-07-26T09:09:24Z</time>
      </trkpt>
      <trkpt lat="44.62492" lon="-0.17157">
        <ele>76.1</ele>
        <time>2022-07-26T09:09:25Z</time>
      </trkpt>
      <trkpt lat="44.62492" lon="-0.17159">
        <ele>76</ele>
        <time>2022-07-26T09:09:26Z</time>
      </trkpt>
      <trkpt lat="44.62492" lon="-0.1716">
        <ele>76</ele>
        <time>2022-07-26T09:09:27Z</time>
      </trkpt>
      <trkpt lat="44.62493" lon="-0.17164">
        <ele>76</ele>
        <time>2022-07-26T09:09:28Z</time>
      </trkpt>
      <trkpt lat="44.62494" lon="-0.17166">
        <ele>76</ele>
        <time>2022-07-26T09:09:30Z</time>
      </trkpt>
      <trkpt lat="44.62494" lon="-0.17167">
        <ele>76</ele>
        <time>2022-07-26T09:09:31Z</time>
      </trkpt>
      <trkpt lat="44.62494" lon="-0.17169">
        <ele>76</ele>
        <time>2022-07-26T09:09:32Z</time>
      </trkpt>
      <trkpt lat="44.62494" lon="-0.1717">
        <ele>76</ele>
        <time>2022-07-26T09:09:33Z</time>
      </trkpt>
      <trkpt lat="44.62495" lon="-0.17171">
        <ele>75.9</ele>
        <time>2022-07-26T09:09:35Z</time>
      </trkpt>
      <trkpt lat="44.62495" lon="-0.17173">
        <ele>75.9</ele>
        <time>2022-07-26T09:09:36Z</time>
      </trkpt>
      <trkpt lat="44.62496" lon="-0.17174">
        <ele>75.9</ele>
        <time>2022-07-26T09:09:37Z</time>
      </trkpt>
      <trkpt lat="44.62497" lon="-0.17177">
        <ele>76</ele>
        <time>2022-07-26T09:09:38Z</time>
      </trkpt>
      <trkpt lat="44.62497" lon="-0.17178">
        <ele>76</ele>
        <time>2022-07-26T09:09:39Z</time>
      </trkpt>
      <trkpt lat="44.62498" lon="-0.1718">
        <ele>76</ele>
        <time>2022-07-26T09:09:40Z</time>
      </trkpt>
      <trkpt lat="44.62499" lon="-0.17183">
        <ele>76</ele>
        <time>2022-07-26T09:09:42Z</time>
      </trkpt>
      <trkpt lat="44.625" lon="-0.17186">
        <ele>76</ele>
        <time>2022-07-26T09:09:43Z</time>
      </trkpt>
      <trkpt lat="44.625" lon="-0.17187">
        <ele>76</ele>
        <time>2022-07-26T09:09:44Z</time>
      </trkpt>
      <trkpt lat="44.62501" lon="-0.17189">
        <ele>76</ele>
        <time>2022-07-26T09:09:46Z</time>
      </trkpt>
      <trkpt lat="44.62502" lon="-0.17191">
        <ele>76</ele>
        <time>2022-07-26T09:09:47Z</time>
      </trkpt>
      <trkpt lat="44.62503" lon="-0.17194">
        <ele>76.1</ele>
        <time>2022-07-26T09:09:48Z</time>
      </trkpt>
      <trkpt lat="44.62503" lon="-0.17195">
        <ele>76.1</ele>
        <time>2022-07-26T09:09:49Z</time>
      </trkpt>
      <trkpt lat="44.62503" lon="-0.17196">
        <ele>76.1</ele>
        <time>2022-07-26T09:09:51Z</time>
      </trkpt>
      <trkpt lat="44.62504" lon="-0.17199">
        <ele>76.1</ele>
        <time>2022-07-26T09:09:52Z</time>
      </trkpt>
      <trkpt lat="44.62505" lon="-0.17201">
        <ele>76.1</ele>
        <time>2022-07-26T09:09:53Z</time>
      </trkpt>
      <trkpt lat="44.62505" lon="-0.17202">
        <ele>76.1</ele>
        <time>2022-07-26T09:09:54Z</time>
      </trkpt>
      <trkpt lat="44.62505" lon="-0.17204">
        <ele>76.1</ele>
        <time>2022-07-26T09:09:55Z</time>
      </trkpt>
      <trkpt lat="44.62506" lon="-0.17207">
        <ele>76.1</ele>
        <time>2022-07-26T09:09:57Z</time>
      </trkpt>
      <trkpt lat="44.62506" lon="-0.1721">
        <ele>76.1</ele>
        <time>2022-07-26T09:09:58Z</time>
      </trkpt>
      <trkpt lat="44.62507" lon="-0.17212">
        <ele>76.1</ele>
        <time>2022-07-26T09:09:59Z</time>
      </trkpt>
      <trkpt lat="44.62507" lon="-0.17214">
        <ele>76.1</ele>
        <time>2022-07-26T09:10:01Z</time>
      </trkpt>
      <trkpt lat="44.62508" lon="-0.17215">
        <ele>76.1</ele>
        <time>2022-07-26T09:10:02Z</time>
      </trkpt>
      <trkpt lat="44.62509" lon="-0.17218">
        <ele>76.2</ele>
        <time>2022-07-26T09:10:03Z</time>
      </trkpt>
      <trkpt lat="44.62509" lon="-0.17219">
        <ele>76.2</ele>
        <time>2022-07-26T09:10:04Z</time>
      </trkpt>
      <trkpt lat="44.62509" lon="-0.1722">
        <ele>76.2</ele>
        <time>2022-07-26T09:10:05Z</time>
      </trkpt>
      <trkpt lat="44.62509" lon="-0.17222">
        <ele>76.2</ele>
        <time>2022-07-26T09:10:06Z</time>
      </trkpt>
      <trkpt lat="44.6251" lon="-0.17224">
        <ele>76.2</ele>
        <time>2022-07-26T09:10:08Z</time>
      </trkpt>
      <trkpt lat="44.6251" lon="-0.17224">
        <ele>76.2</ele>
        <time>2022-07-26T09:10:09Z</time>
      </trkpt>
      <trkpt lat="44.6251" lon="-0.17225">
        <ele>76.2</ele>
        <time>2022-07-26T09:10:10Z</time>
      </trkpt>
      <trkpt lat="44.62511" lon="-0.17226">
        <ele>76.1</ele>
        <time>2022-07-26T09:10:11Z</time>
      </trkpt>
      <trkpt lat="44.62512" lon="-0.1723">
        <ele>76.2</ele>
        <time>2022-07-26T09:10:13Z</time>
      </trkpt>
      <trkpt lat="44.62512" lon="-0.17231">
        <ele>76.2</ele>
        <time>2022-07-26T09:10:14Z</time>
      </trkpt>
      <trkpt lat="44.62512" lon="-0.17233">
        <ele>76.2</ele>
        <time>2022-07-26T09:10:15Z</time>
      </trkpt>
      <trkpt lat="44.62513" lon="-0.17235">
        <ele>76.2</ele>
        <time>2022-07-26T09:10:17Z</time>
      </trkpt>
      <trkpt lat="44.62513" lon="-0.17238">
        <ele>76.2</ele>
        <time>2022-07-26T09:10:18Z</time>
      </trkpt>
      <trkpt lat="44.62513" lon="-0.17239">
        <ele>76.2</ele>
        <time>2022-07-26T09:10:19Z</time>
      </trkpt>
      <trkpt lat="44.62514" lon="-0.17242">
        <ele>76.2</ele>
        <time>2022-07-26T09:10:20Z</time>
      </trkpt>
      <trkpt lat="44.62514" lon="-0.17243">
        <ele>76.2</ele>
        <time>2022-07-26T09:10:21Z</time>
      </trkpt>
      <trkpt lat="44.62514" lon="-0.17244">
        <ele>76.2</ele>
        <time>2022-07-26T09:10:22Z</time>
      </trkpt>
      <trkpt lat="44.62515" lon="-0.17247">
        <ele>76.2</ele>
        <time>2022-07-26T09:10:23Z</time>
      </trkpt>
      <trkpt lat="44.62515" lon="-0.17248">
        <ele>76.2</ele>
        <time>2022-07-26T09:10:24Z</time>
      </trkpt>
      <trkpt lat="44.62516" lon="-0.17251">
        <ele>76.2</ele>
        <time>2022-07-26T09:10:26Z</time>
      </trkpt>
      <trkpt lat="44.62517" lon="-0.17252">
        <ele>76.2</ele>
        <time>2022-07-26T09:10:27Z</time>
      </trkpt>
      <trkpt lat="44.62517" lon="-0.17255">
        <ele>76.2</ele>
        <time>2022-07-26T09:10:28Z</time>
      </trkpt>
      <trkpt lat="44.62518" lon="-0.17256">
        <ele>76.2</ele>
        <time>2022-07-26T09:10:29Z</time>
      </trkpt>
      <trkpt lat="44.62518" lon="-0.17259">
        <ele>76.3</ele>
        <time>2022-07-26T09:10:31Z</time>
      </trkpt>
      <trkpt lat="44.62518" lon="-0.17261">
        <ele>76.3</ele>
        <time>2022-07-26T09:10:32Z</time>
      </trkpt>
      <trkpt lat="44.62519" lon="-0.17264">
        <ele>76.3</ele>
        <time>2022-07-26T09:10:33Z</time>
      </trkpt>
      <trkpt lat="44.6252" lon="-0.17265">
        <ele>76.2</ele>
        <time>2022-07-26T09:10:34Z</time>
      </trkpt>
      <trkpt lat="44.6252" lon="-0.17267">
        <ele>76.2</ele>
        <time>2022-07-26T09:10:35Z</time>
      </trkpt>
      <trkpt lat="44.6252" lon="-0.17269">
        <ele>76.2</ele>
        <time>2022-07-26T09:10:37Z</time>
      </trkpt>
      <trkpt lat="44.62521" lon="-0.17273">
        <ele>76.3</ele>
        <time>2022-07-26T09:10:38Z</time>
      </trkpt>
      <trkpt lat="44.62521" lon="-0.17274">
        <ele>76.3</ele>
        <time>2022-07-26T09:10:39Z</time>
      </trkpt>
      <trkpt lat="44.62522" lon="-0.17276">
        <ele>76.3</ele>
        <time>2022-07-26T09:10:40Z</time>
      </trkpt>
      <trkpt lat="44.62522" lon="-0.17279">
        <ele>76.3</ele>
        <time>2022-07-26T09:10:42Z</time>
      </trkpt>
      <trkpt lat="44.62523" lon="-0.17282">
        <ele>76.3</ele>
        <time>2022-07-26T09:10:43Z</time>
      </trkpt>
      <trkpt lat="44.62523" lon="-0.17283">
        <ele>76.3</ele>
        <time>2022-07-26T09:10:44Z</time>
      </trkpt>
      <trkpt lat="44.62523" lon="-0.17284">
        <ele>76.3</ele>
        <time>2022-07-26T09:10:45Z</time>
      </trkpt>
      <trkpt lat="44.62523" lon="-0.17286">
        <ele>76.3</ele>
        <time>2022-07-26T09:10:46Z</time>
      </trkpt>
      <trkpt lat="44.62524" lon="-0.17288">
        <ele>76.4</ele>
        <time>2022-07-26T09:10:47Z</time>
      </trkpt>
      <trkpt lat="44.62525" lon="-0.17291">
        <ele>76.4</ele>
        <time>2022-07-26T09:10:48Z</time>
      </trkpt>
      <trkpt lat="44.62525" lon="-0.17292">
        <ele>76.4</ele>
        <time>2022-07-26T09:10:49Z</time>
      </trkpt>
      <trkpt lat="44.62525" lon="-0.17294">
        <ele>76.4</ele>
        <time>2022-07-26T09:10:50Z</time>
      </trkpt>
      <trkpt lat="44.62526" lon="-0.17297">
        <ele>76.4</ele>
        <time>2022-07-26T09:10:52Z</time>
      </trkpt>
      <trkpt lat="44.62526" lon="-0.17299">
        <ele>76.4</ele>
        <time>2022-07-26T09:10:53Z</time>
      </trkpt>
      <trkpt lat="44.62527" lon="-0.173">
        <ele>76.6</ele>
        <time>2022-07-26T09:10:54Z</time>
      </trkpt>
      <trkpt lat="44.62528" lon="-0.17303">
        <ele>76.6</ele>
        <time>2022-07-26T09:10:55Z</time>
      </trkpt>
      <trkpt lat="44.62528" lon="-0.17304">
        <ele>76.6</ele>
        <time>2022-07-26T09:10:56Z</time>
      </trkpt>
      <trkpt lat="44.62528" lon="-0.17306">
        <ele>76.6</ele>
        <time>2022-07-26T09:10:57Z</time>
      </trkpt>
      <trkpt lat="44.62529" lon="-0.17309">
        <ele>76.5</ele>
        <time>2022-07-26T09:10:59Z</time>
      </trkpt>
      <trkpt lat="44.62529" lon="-0.1731">
        <ele>76.5</ele>
        <time>2022-07-26T09:11:00Z</time>
      </trkpt>
      <trkpt lat="44.62529" lon="-0.17313">
        <ele>76.5</ele>
        <time>2022-07-26T09:11:01Z</time>
      </trkpt>
      <trkpt lat="44.62529" lon="-0.17315">
        <ele>76.5</ele>
        <time>2022-07-26T09:11:02Z</time>
      </trkpt>
      <trkpt lat="44.62529" lon="-0.17316">
        <ele>76.5</ele>
        <time>2022-07-26T09:11:03Z</time>
      </trkpt>
      <trkpt lat="44.6253" lon="-0.17318">
        <ele>76.5</ele>
        <time>2022-07-26T09:11:04Z</time>
      </trkpt>
      <trkpt lat="44.6253" lon="-0.1732">
        <ele>76.7</ele>
        <time>2022-07-26T09:11:05Z</time>
      </trkpt>
      <trkpt lat="44.6253" lon="-0.17321">
        <ele>76.7</ele>
        <time>2022-07-26T09:11:06Z</time>
      </trkpt>
      <trkpt lat="44.6253" lon="-0.17322">
        <ele>76.7</ele>
        <time>2022-07-26T09:11:07Z</time>
      </trkpt>
      <trkpt lat="44.6253" lon="-0.17325">
        <ele>76.7</ele>
        <time>2022-07-26T09:11:08Z</time>
      </trkpt>
      <trkpt lat="44.62531" lon="-0.17326">
        <ele>76.7</ele>
        <time>2022-07-26T09:11:09Z</time>
      </trkpt>
      <trkpt lat="44.62531" lon="-0.17327">
        <ele>76.7</ele>
        <time>2022-07-26T09:11:10Z</time>
      </trkpt>
      <trkpt lat="44.62531" lon="-0.17329">
        <ele>76.7</ele>
        <time>2022-07-26T09:11:11Z</time>
      </trkpt>
      <trkpt lat="44.62531" lon="-0.17331">
        <ele>76.7</ele>
        <time>2022-07-26T09:11:12Z</time>
      </trkpt>
      <trkpt lat="44.62531" lon="-0.17334">
        <ele>76.6</ele>
        <time>2022-07-26T09:11:13Z</time>
      </trkpt>
      <trkpt lat="44.62531" lon="-0.17335">
        <ele>76.6</ele>
        <time>2022-07-26T09:11:14Z</time>
      </trkpt>
      <trkpt lat="44.62531" lon="-0.17338">
        <ele>76.6</ele>
        <time>2022-07-26T09:11:15Z</time>
      </trkpt>
      <trkpt lat="44.62531" lon="-0.17339">
        <ele>76.6</ele>
        <time>2022-07-26T09:11:16Z</time>
      </trkpt>
      <trkpt lat="44.62531" lon="-0.1734">
        <ele>76.6</ele>
        <time>2022-07-26T09:11:17Z</time>
      </trkpt>
      <trkpt lat="44.62532" lon="-0.17344">
        <ele>76.6</ele>
        <time>2022-07-26T09:11:18Z</time>
      </trkpt>
      <trkpt lat="44.62532" lon="-0.17345">
        <ele>76.6</ele>
        <time>2022-07-26T09:11:19Z</time>
      </trkpt>
      <trkpt lat="44.62533" lon="-0.17347">
        <ele>76.6</ele>
        <time>2022-07-26T09:11:21Z</time>
      </trkpt>
      <trkpt lat="44.62533" lon="-0.1735">
        <ele>76.6</ele>
        <time>2022-07-26T09:11:22Z</time>
      </trkpt>
      <trkpt lat="44.62533" lon="-0.17352">
        <ele>76.6</ele>
        <time>2022-07-26T09:11:23Z</time>
      </trkpt>
      <trkpt lat="44.62533" lon="-0.17353">
        <ele>76.6</ele>
        <time>2022-07-26T09:11:24Z</time>
      </trkpt>
      <trkpt lat="44.62533" lon="-0.17355">
        <ele>76.5</ele>
        <time>2022-07-26T09:11:25Z</time>
      </trkpt>
      <trkpt lat="44.62533" lon="-0.17358">
        <ele>76.5</ele>
        <time>2022-07-26T09:11:27Z</time>
      </trkpt>
      <trkpt lat="44.62533" lon="-0.17362">
        <ele>76.7</ele>
        <time>2022-07-26T09:11:28Z</time>
      </trkpt>
      <trkpt lat="44.62533" lon="-0.17362">
        <ele>76.7</ele>
        <time>2022-07-26T09:11:29Z</time>
      </trkpt>
      <trkpt lat="44.62533" lon="-0.17364">
        <ele>76.7</ele>
        <time>2022-07-26T09:11:30Z</time>
      </trkpt>
      <trkpt lat="44.62533" lon="-0.17365">
        <ele>76.7</ele>
        <time>2022-07-26T09:11:31Z</time>
      </trkpt>
      <trkpt lat="44.62534" lon="-0.17367">
        <ele>76.7</ele>
        <time>2022-07-26T09:11:32Z</time>
      </trkpt>
      <trkpt lat="44.62534" lon="-0.17369">
        <ele>76.6</ele>
        <time>2022-07-26T09:11:33Z</time>
      </trkpt>
      <trkpt lat="44.62535" lon="-0.17371">
        <ele>76.6</ele>
        <time>2022-07-26T09:11:34Z</time>
      </trkpt>
      <trkpt lat="44.62535" lon="-0.17372">
        <ele>76.6</ele>
        <time>2022-07-26T09:11:35Z</time>
      </trkpt>
      <trkpt lat="44.62535" lon="-0.17374">
        <ele>76.6</ele>
        <time>2022-07-26T09:11:36Z</time>
      </trkpt>
      <trkpt lat="44.62535" lon="-0.17378">
        <ele>76.6</ele>
        <time>2022-07-26T09:11:38Z</time>
      </trkpt>
      <trkpt lat="44.62536" lon="-0.17379">
        <ele>76.6</ele>
        <time>2022-07-26T09:11:39Z</time>
      </trkpt>
      <trkpt lat="44.62536" lon="-0.17381">
        <ele>76.8</ele>
        <time>2022-07-26T09:11:40Z</time>
      </trkpt>
      <trkpt lat="44.62536" lon="-0.17382">
        <ele>76.7</ele>
        <time>2022-07-26T09:11:41Z</time>
      </trkpt>
      <trkpt lat="44.62536" lon="-0.17384">
        <ele>76.7</ele>
        <time>2022-07-26T09:11:42Z</time>
      </trkpt>
      <trkpt lat="44.62537" lon="-0.17387">
        <ele>76.7</ele>
        <time>2022-07-26T09:11:43Z</time>
      </trkpt>
      <trkpt lat="44.62538" lon="-0.17387">
        <ele>76.7</ele>
        <time>2022-07-26T09:11:44Z</time>
      </trkpt>
      <trkpt lat="44.62538" lon="-0.17389">
        <ele>76.7</ele>
        <time>2022-07-26T09:11:45Z</time>
      </trkpt>
      <trkpt lat="44.62539" lon="-0.17391">
        <ele>76.6</ele>
        <time>2022-07-26T09:11:47Z</time>
      </trkpt>
      <trkpt lat="44.6254" lon="-0.17395">
        <ele>76.8</ele>
        <time>2022-07-26T09:11:48Z</time>
      </trkpt>
      <trkpt lat="44.6254" lon="-0.17396">
        <ele>76.8</ele>
        <time>2022-07-26T09:11:49Z</time>
      </trkpt>
      <trkpt lat="44.6254" lon="-0.17398">
        <ele>76.7</ele>
        <time>2022-07-26T09:11:51Z</time>
      </trkpt>
      <trkpt lat="44.62541" lon="-0.174">
        <ele>76.7</ele>
        <time>2022-07-26T09:11:52Z</time>
      </trkpt>
      <trkpt lat="44.62541" lon="-0.17403">
        <ele>76.6</ele>
        <time>2022-07-26T09:11:53Z</time>
      </trkpt>
      <trkpt lat="44.62541" lon="-0.17404">
        <ele>76.6</ele>
        <time>2022-07-26T09:11:54Z</time>
      </trkpt>
      <trkpt lat="44.62542" lon="-0.17406">
        <ele>76.6</ele>
        <time>2022-07-26T09:11:55Z</time>
      </trkpt>
      <trkpt lat="44.62542" lon="-0.17408">
        <ele>76.6</ele>
        <time>2022-07-26T09:11:56Z</time>
      </trkpt>
      <trkpt lat="44.62543" lon="-0.17412">
        <ele>76.7</ele>
        <time>2022-07-26T09:11:58Z</time>
      </trkpt>
      <trkpt lat="44.62543" lon="-0.17413">
        <ele>76.7</ele>
        <time>2022-07-26T09:11:59Z</time>
      </trkpt>
      <trkpt lat="44.62543" lon="-0.17414">
        <ele>76.7</ele>
        <time>2022-07-26T09:12:00Z</time>
      </trkpt>
      <trkpt lat="44.62544" lon="-0.17416">
        <ele>76.6</ele>
        <time>2022-07-26T09:12:01Z</time>
      </trkpt>
      <trkpt lat="44.62544" lon="-0.17417">
        <ele>76.6</ele>
        <time>2022-07-26T09:12:02Z</time>
      </trkpt>
      <trkpt lat="44.62545" lon="-0.17419">
        <ele>76.5</ele>
        <time>2022-07-26T09:12:03Z</time>
      </trkpt>
      <trkpt lat="44.62545" lon="-0.1742">
        <ele>76.6</ele>
        <time>2022-07-26T09:12:04Z</time>
      </trkpt>
      <trkpt lat="44.62545" lon="-0.17422">
        <ele>76.6</ele>
        <time>2022-07-26T09:12:05Z</time>
      </trkpt>
      <trkpt lat="44.62545" lon="-0.17424">
        <ele>76.6</ele>
        <time>2022-07-26T09:12:06Z</time>
      </trkpt>
      <trkpt lat="44.62546" lon="-0.17426">
        <ele>76.5</ele>
        <time>2022-07-26T09:12:08Z</time>
      </trkpt>
      <trkpt lat="44.62546" lon="-0.17428">
        <ele>76.4</ele>
        <time>2022-07-26T09:12:09Z</time>
      </trkpt>
      <trkpt lat="44.62546" lon="-0.17432">
        <ele>76.4</ele>
        <time>2022-07-26T09:12:10Z</time>
      </trkpt>
      <trkpt lat="44.62546" lon="-0.17433">
        <ele>76.3</ele>
        <time>2022-07-26T09:12:12Z</time>
      </trkpt>
      <trkpt lat="44.62546" lon="-0.17434">
        <ele>76.3</ele>
        <time>2022-07-26T09:12:13Z</time>
      </trkpt>
      <trkpt lat="44.62547" lon="-0.17436">
        <ele>76.3</ele>
        <time>2022-07-26T09:12:14Z</time>
      </trkpt>
      <trkpt lat="44.62548" lon="-0.17438">
        <ele>76.2</ele>
        <time>2022-07-26T09:12:15Z</time>
      </trkpt>
      <trkpt lat="44.62549" lon="-0.1744">
        <ele>76.3</ele>
        <time>2022-07-26T09:12:16Z</time>
      </trkpt>
      <trkpt lat="44.6255" lon="-0.17441">
        <ele>76.2</ele>
        <time>2022-07-26T09:12:17Z</time>
      </trkpt>
      <trkpt lat="44.62551" lon="-0.17442">
        <ele>76.2</ele>
        <time>2022-07-26T09:12:18Z</time>
      </trkpt>
      <trkpt lat="44.62551" lon="-0.17443">
        <ele>76.3</ele>
        <time>2022-07-26T09:12:19Z</time>
      </trkpt>
      <trkpt lat="44.62552" lon="-0.17443">
        <ele>76.3</ele>
        <time>2022-07-26T09:12:20Z</time>
      </trkpt>
      <trkpt lat="44.62554" lon="-0.17444">
        <ele>76.3</ele>
        <time>2022-07-26T09:12:21Z</time>
      </trkpt>
      <trkpt lat="44.62554" lon="-0.17445">
        <ele>76.3</ele>
        <time>2022-07-26T09:12:22Z</time>
      </trkpt>
      <trkpt lat="44.62555" lon="-0.17447">
        <ele>76.3</ele>
        <time>2022-07-26T09:12:23Z</time>
      </trkpt>
      <trkpt lat="44.62555" lon="-0.17449">
        <ele>76.2</ele>
        <time>2022-07-26T09:12:25Z</time>
      </trkpt>
      <trkpt lat="44.62554" lon="-0.17452">
        <ele>76.2</ele>
        <time>2022-07-26T09:12:26Z</time>
      </trkpt>
      <trkpt lat="44.62554" lon="-0.17453">
        <ele>76.1</ele>
        <time>2022-07-26T09:12:27Z</time>
      </trkpt>
      <trkpt lat="44.62552" lon="-0.17457">
        <ele>76</ele>
        <time>2022-07-26T09:12:29Z</time>
      </trkpt>
      <trkpt lat="44.62552" lon="-0.17458">
        <ele>75.8</ele>
        <time>2022-07-26T09:12:30Z</time>
      </trkpt>
      <trkpt lat="44.62551" lon="-0.1746">
        <ele>75.7</ele>
        <time>2022-07-26T09:12:31Z</time>
      </trkpt>
      <trkpt lat="44.6255" lon="-0.17462">
        <ele>75.7</ele>
        <time>2022-07-26T09:12:32Z</time>
      </trkpt>
      <trkpt lat="44.62548" lon="-0.17465">
        <ele>75.6</ele>
        <time>2022-07-26T09:12:34Z</time>
      </trkpt>
      <trkpt lat="44.62548" lon="-0.17466">
        <ele>75.6</ele>
        <time>2022-07-26T09:12:35Z</time>
      </trkpt>
      <trkpt lat="44.62547" lon="-0.17467">
        <ele>75.4</ele>
        <time>2022-07-26T09:12:36Z</time>
      </trkpt>
      <trkpt lat="44.62546" lon="-0.17469">
        <ele>75.4</ele>
        <time>2022-07-26T09:12:37Z</time>
      </trkpt>
      <trkpt lat="44.62545" lon="-0.17472">
        <ele>75.3</ele>
        <time>2022-07-26T09:12:38Z</time>
      </trkpt>
      <trkpt lat="44.62545" lon="-0.17473">
        <ele>75.3</ele>
        <time>2022-07-26T09:12:39Z</time>
      </trkpt>
      <trkpt lat="44.62544" lon="-0.17475">
        <ele>75.2</ele>
        <time>2022-07-26T09:12:41Z</time>
      </trkpt>
      <trkpt lat="44.62544" lon="-0.17477">
        <ele>75.2</ele>
        <time>2022-07-26T09:12:42Z</time>
      </trkpt>
      <trkpt lat="44.62543" lon="-0.17479">
        <ele>75.2</ele>
        <time>2022-07-26T09:12:43Z</time>
      </trkpt>
      <trkpt lat="44.62543" lon="-0.1748">
        <ele>75.1</ele>
        <time>2022-07-26T09:12:44Z</time>
      </trkpt>
      <trkpt lat="44.62543" lon="-0.17483">
        <ele>75.1</ele>
        <time>2022-07-26T09:12:46Z</time>
      </trkpt>
      <trkpt lat="44.62542" lon="-0.17485">
        <ele>75</ele>
        <time>2022-07-26T09:12:47Z</time>
      </trkpt>
      <trkpt lat="44.62541" lon="-0.17487">
        <ele>74.9</ele>
        <time>2022-07-26T09:12:49Z</time>
      </trkpt>
      <trkpt lat="44.62541" lon="-0.17488">
        <ele>74.8</ele>
        <time>2022-07-26T09:12:50Z</time>
      </trkpt>
      <trkpt lat="44.62541" lon="-0.1749">
        <ele>74.8</ele>
        <time>2022-07-26T09:12:51Z</time>
      </trkpt>
      <trkpt lat="44.62542" lon="-0.17492">
        <ele>74.9</ele>
        <time>2022-07-26T09:12:52Z</time>
      </trkpt>
      <trkpt lat="44.62543" lon="-0.17492">
        <ele>74.9</ele>
        <time>2022-07-26T09:12:54Z</time>
      </trkpt>
      <trkpt lat="44.62543" lon="-0.17492">
        <ele>74.8</ele>
        <time>2022-07-26T09:12:55Z</time>
      </trkpt>
      <trkpt lat="44.62542" lon="-0.17493">
        <ele>74.8</ele>
        <time>2022-07-26T09:12:56Z</time>
      </trkpt>
      <trkpt lat="44.62542" lon="-0.17494">
        <ele>74.7</ele>
        <time>2022-07-26T09:12:58Z</time>
      </trkpt>
      <trkpt lat="44.62541" lon="-0.17494">
        <ele>74.7</ele>
        <time>2022-07-26T09:12:59Z</time>
      </trkpt>
      <trkpt lat="44.62541" lon="-0.17495">
        <ele>74.7</ele>
        <time>2022-07-26T09:13:00Z</time>
      </trkpt>
      <trkpt lat="44.6254" lon="-0.17496">
        <ele>74.7</ele>
        <time>2022-07-26T09:13:01Z</time>
      </trkpt>
      <trkpt lat="44.6254" lon="-0.17496">
        <ele>74.7</ele>
        <time>2022-07-26T09:13:02Z</time>
      </trkpt>
      <trkpt lat="44.62538" lon="-0.17499">
        <ele>74.6</ele>
        <time>2022-07-26T09:13:03Z</time>
      </trkpt>
      <trkpt lat="44.62536" lon="-0.17501">
        <ele>74.5</ele>
        <time>2022-07-26T09:13:05Z</time>
      </trkpt>
      <trkpt lat="44.62536" lon="-0.17503">
        <ele>74.4</ele>
        <time>2022-07-26T09:13:06Z</time>
      </trkpt>
      <trkpt lat="44.62535" lon="-0.17505">
        <ele>74.4</ele>
        <time>2022-07-26T09:13:07Z</time>
      </trkpt>
      <trkpt lat="44.62534" lon="-0.17507">
        <ele>74.4</ele>
        <time>2022-07-26T09:13:08Z</time>
      </trkpt>
      <trkpt lat="44.62534" lon="-0.17509">
        <ele>74.4</ele>
        <time>2022-07-26T09:13:09Z</time>
      </trkpt>
      <trkpt lat="44.62533" lon="-0.17511">
        <ele>74.3</ele>
        <time>2022-07-26T09:13:10Z</time>
      </trkpt>
      <trkpt lat="44.62533" lon="-0.17514">
        <ele>74.3</ele>
        <time>2022-07-26T09:13:11Z</time>
      </trkpt>
      <trkpt lat="44.62533" lon="-0.17515">
        <ele>74.1</ele>
        <time>2022-07-26T09:13:12Z</time>
      </trkpt>
      <trkpt lat="44.62532" lon="-0.17516">
        <ele>74.1</ele>
        <time>2022-07-26T09:13:13Z</time>
      </trkpt>
      <trkpt lat="44.62532" lon="-0.17518">
        <ele>74.1</ele>
        <time>2022-07-26T09:13:14Z</time>
      </trkpt>
      <trkpt lat="44.62532" lon="-0.1752">
        <ele>74.1</ele>
        <time>2022-07-26T09:13:15Z</time>
      </trkpt>
      <trkpt lat="44.62531" lon="-0.17523">
        <ele>74</ele>
        <time>2022-07-26T09:13:17Z</time>
      </trkpt>
      <trkpt lat="44.62531" lon="-0.17524">
        <ele>74</ele>
        <time>2022-07-26T09:13:18Z</time>
      </trkpt>
      <trkpt lat="44.6253" lon="-0.17527">
        <ele>73.9</ele>
        <time>2022-07-26T09:13:19Z</time>
      </trkpt>
      <trkpt lat="44.6253" lon="-0.17528">
        <ele>73.8</ele>
        <time>2022-07-26T09:13:20Z</time>
      </trkpt>
      <trkpt lat="44.62529" lon="-0.17531">
        <ele>73.7</ele>
        <time>2022-07-26T09:13:21Z</time>
      </trkpt>
      <trkpt lat="44.62529" lon="-0.17533">
        <ele>73.7</ele>
        <time>2022-07-26T09:13:22Z</time>
      </trkpt>
      <trkpt lat="44.62528" lon="-0.17534">
        <ele>73.7</ele>
        <time>2022-07-26T09:13:23Z</time>
      </trkpt>
      <trkpt lat="44.62527" lon="-0.17537">
        <ele>73.6</ele>
        <time>2022-07-26T09:13:25Z</time>
      </trkpt>
      <trkpt lat="44.62527" lon="-0.17538">
        <ele>73.5</ele>
        <time>2022-07-26T09:13:26Z</time>
      </trkpt>
      <trkpt lat="44.62526" lon="-0.1754">
        <ele>73.5</ele>
        <time>2022-07-26T09:13:27Z</time>
      </trkpt>
      <trkpt lat="44.62525" lon="-0.17541">
        <ele>73.5</ele>
        <time>2022-07-26T09:13:28Z</time>
      </trkpt>
      <trkpt lat="44.62525" lon="-0.17543">
        <ele>73.5</ele>
        <time>2022-07-26T09:13:29Z</time>
      </trkpt>
      <trkpt lat="44.62524" lon="-0.17543">
        <ele>73.5</ele>
        <time>2022-07-26T09:13:30Z</time>
      </trkpt>
      <trkpt lat="44.62524" lon="-0.17545">
        <ele>73.4</ele>
        <time>2022-07-26T09:13:31Z</time>
      </trkpt>
      <trkpt lat="44.62523" lon="-0.17546">
        <ele>73.3</ele>
        <time>2022-07-26T09:13:32Z</time>
      </trkpt>
      <trkpt lat="44.62523" lon="-0.17547">
        <ele>73.3</ele>
        <time>2022-07-26T09:13:33Z</time>
      </trkpt>
      <trkpt lat="44.62523" lon="-0.17548">
        <ele>73.3</ele>
        <time>2022-07-26T09:13:34Z</time>
      </trkpt>
      <trkpt lat="44.62522" lon="-0.17549">
        <ele>73.2</ele>
        <time>2022-07-26T09:13:35Z</time>
      </trkpt>
      <trkpt lat="44.62522" lon="-0.1755">
        <ele>73.2</ele>
        <time>2022-07-26T09:13:36Z</time>
      </trkpt>
      <trkpt lat="44.62521" lon="-0.17553">
        <ele>73.1</ele>
        <time>2022-07-26T09:13:37Z</time>
      </trkpt>
      <trkpt lat="44.6252" lon="-0.17554">
        <ele>73</ele>
        <time>2022-07-26T09:13:38Z</time>
      </trkpt>
      <trkpt lat="44.6252" lon="-0.17555">
        <ele>73</ele>
        <time>2022-07-26T09:13:39Z</time>
      </trkpt>
      <trkpt lat="44.6252" lon="-0.17556">
        <ele>73</ele>
        <time>2022-07-26T09:13:40Z</time>
      </trkpt>
      <trkpt lat="44.62519" lon="-0.17557">
        <ele>72.9</ele>
        <time>2022-07-26T09:13:41Z</time>
      </trkpt>
      <trkpt lat="44.62519" lon="-0.17559">
        <ele>72.9</ele>
        <time>2022-07-26T09:13:42Z</time>
      </trkpt>
      <trkpt lat="44.62518" lon="-0.17562">
        <ele>72.8</ele>
        <time>2022-07-26T09:13:44Z</time>
      </trkpt>
      <trkpt lat="44.62518" lon="-0.17563">
        <ele>72.8</ele>
        <time>2022-07-26T09:13:45Z</time>
      </trkpt>
      <trkpt lat="44.62518" lon="-0.17564">
        <ele>72.8</ele>
        <time>2022-07-26T09:13:46Z</time>
      </trkpt>
      <trkpt lat="44.62517" lon="-0.17565">
        <ele>72.7</ele>
        <time>2022-07-26T09:13:47Z</time>
      </trkpt>
      <trkpt lat="44.62517" lon="-0.17567">
        <ele>72.6</ele>
        <time>2022-07-26T09:13:48Z</time>
      </trkpt>
      <trkpt lat="44.62516" lon="-0.17568">
        <ele>72.6</ele>
        <time>2022-07-26T09:13:49Z</time>
      </trkpt>
      <trkpt lat="44.62516" lon="-0.1757">
        <ele>72.5</ele>
        <time>2022-07-26T09:13:50Z</time>
      </trkpt>
      <trkpt lat="44.62515" lon="-0.17572">
        <ele>72.5</ele>
        <time>2022-07-26T09:13:52Z</time>
      </trkpt>
      <trkpt lat="44.62515" lon="-0.17574">
        <ele>72.5</ele>
        <time>2022-07-26T09:13:53Z</time>
      </trkpt>
      <trkpt lat="44.62515" lon="-0.17576">
        <ele>72.4</ele>
        <time>2022-07-26T09:13:54Z</time>
      </trkpt>
      <trkpt lat="44.62514" lon="-0.17578">
        <ele>72.3</ele>
        <time>2022-07-26T09:13:55Z</time>
      </trkpt>
      <trkpt lat="44.62514" lon="-0.17579">
        <ele>72.2</ele>
        <time>2022-07-26T09:13:56Z</time>
      </trkpt>
      <trkpt lat="44.62514" lon="-0.17581">
        <ele>72.2</ele>
        <time>2022-07-26T09:13:58Z</time>
      </trkpt>
      <trkpt lat="44.62513" lon="-0.17582">
        <ele>72.2</ele>
        <time>2022-07-26T09:13:59Z</time>
      </trkpt>
      <trkpt lat="44.62513" lon="-0.17583">
        <ele>72.1</ele>
        <time>2022-07-26T09:14:00Z</time>
      </trkpt>
      <trkpt lat="44.62513" lon="-0.17585">
        <ele>72.1</ele>
        <time>2022-07-26T09:14:01Z</time>
      </trkpt>
      <trkpt lat="44.62513" lon="-0.17586">
        <ele>72.1</ele>
        <time>2022-07-26T09:14:02Z</time>
      </trkpt>
      <trkpt lat="44.62513" lon="-0.17588">
        <ele>72</ele>
        <time>2022-07-26T09:14:03Z</time>
      </trkpt>
      <trkpt lat="44.62513" lon="-0.17589">
        <ele>72</ele>
        <time>2022-07-26T09:14:04Z</time>
      </trkpt>
      <trkpt lat="44.62512" lon="-0.17591">
        <ele>72</ele>
        <time>2022-07-26T09:14:05Z</time>
      </trkpt>
      <trkpt lat="44.62512" lon="-0.17592">
        <ele>71.9</ele>
        <time>2022-07-26T09:14:06Z</time>
      </trkpt>
      <trkpt lat="44.62512" lon="-0.17594">
        <ele>71.9</ele>
        <time>2022-07-26T09:14:07Z</time>
      </trkpt>
      <trkpt lat="44.62512" lon="-0.17595">
        <ele>71.9</ele>
        <time>2022-07-26T09:14:08Z</time>
      </trkpt>
      <trkpt lat="44.62511" lon="-0.17596">
        <ele>71.8</ele>
        <time>2022-07-26T09:14:09Z</time>
      </trkpt>
      <trkpt lat="44.62511" lon="-0.17598">
        <ele>71.7</ele>
        <time>2022-07-26T09:14:10Z</time>
      </trkpt>
      <trkpt lat="44.6251" lon="-0.17599">
        <ele>71.7</ele>
        <time>2022-07-26T09:14:11Z</time>
      </trkpt>
      <trkpt lat="44.6251" lon="-0.17601">
        <ele>71.6</ele>
        <time>2022-07-26T09:14:12Z</time>
      </trkpt>
      <trkpt lat="44.6251" lon="-0.17602">
        <ele>71.6</ele>
        <time>2022-07-26T09:14:13Z</time>
      </trkpt>
      <trkpt lat="44.62509" lon="-0.17603">
        <ele>71.6</ele>
        <time>2022-07-26T09:14:14Z</time>
      </trkpt>
      <trkpt lat="44.62509" lon="-0.17605">
        <ele>71.5</ele>
        <time>2022-07-26T09:14:15Z</time>
      </trkpt>
      <trkpt lat="44.62509" lon="-0.17606">
        <ele>71.5</ele>
        <time>2022-07-26T09:14:16Z</time>
      </trkpt>
      <trkpt lat="44.62508" lon="-0.17608">
        <ele>71.4</ele>
        <time>2022-07-26T09:14:17Z</time>
      </trkpt>
      <trkpt lat="44.62508" lon="-0.17609">
        <ele>71.2</ele>
        <time>2022-07-26T09:14:18Z</time>
      </trkpt>
      <trkpt lat="44.62507" lon="-0.17611">
        <ele>71.2</ele>
        <time>2022-07-26T09:14:19Z</time>
      </trkpt>
      <trkpt lat="44.62507" lon="-0.17612">
        <ele>71.2</ele>
        <time>2022-07-26T09:14:20Z</time>
      </trkpt>
      <trkpt lat="44.62506" lon="-0.17614">
        <ele>71.1</ele>
        <time>2022-07-26T09:14:22Z</time>
      </trkpt>
      <trkpt lat="44.62506" lon="-0.17615">
        <ele>71.1</ele>
        <time>2022-07-26T09:14:23Z</time>
      </trkpt>
      <trkpt lat="44.62505" lon="-0.17617">
        <ele>70.9</ele>
        <time>2022-07-26T09:14:24Z</time>
      </trkpt>
      <trkpt lat="44.62505" lon="-0.17618">
        <ele>70.9</ele>
        <time>2022-07-26T09:14:25Z</time>
      </trkpt>
      <trkpt lat="44.62504" lon="-0.17619">
        <ele>70.9</ele>
        <time>2022-07-26T09:14:26Z</time>
      </trkpt>
      <trkpt lat="44.62503" lon="-0.17621">
        <ele>70.9</ele>
        <time>2022-07-26T09:14:27Z</time>
      </trkpt>
      <trkpt lat="44.62502" lon="-0.17624">
        <ele>70.8</ele>
        <time>2022-07-26T09:14:28Z</time>
      </trkpt>
      <trkpt lat="44.62502" lon="-0.17626">
        <ele>70.6</ele>
        <time>2022-07-26T09:14:30Z</time>
      </trkpt>
      <trkpt lat="44.62502" lon="-0.17627">
        <ele>70.6</ele>
        <time>2022-07-26T09:14:31Z</time>
      </trkpt>
      <trkpt lat="44.62501" lon="-0.17629">
        <ele>70.6</ele>
        <time>2022-07-26T09:14:32Z</time>
      </trkpt>
      <trkpt lat="44.62501" lon="-0.1763">
        <ele>70.5</ele>
        <time>2022-07-26T09:14:33Z</time>
      </trkpt>
      <trkpt lat="44.625" lon="-0.17633">
        <ele>70.5</ele>
        <time>2022-07-26T09:14:35Z</time>
      </trkpt>
      <trkpt lat="44.625" lon="-0.17635">
        <ele>70.4</ele>
        <time>2022-07-26T09:14:36Z</time>
      </trkpt>
      <trkpt lat="44.62499" lon="-0.17636">
        <ele>70.4</ele>
        <time>2022-07-26T09:14:37Z</time>
      </trkpt>
      <trkpt lat="44.62499" lon="-0.17638">
        <ele>70.2</ele>
        <time>2022-07-26T09:14:38Z</time>
      </trkpt>
      <trkpt lat="44.62499" lon="-0.1764">
        <ele>70.2</ele>
        <time>2022-07-26T09:14:39Z</time>
      </trkpt>
      <trkpt lat="44.62499" lon="-0.17642">
        <ele>70.2</ele>
        <time>2022-07-26T09:14:40Z</time>
      </trkpt>
      <trkpt lat="44.62498" lon="-0.17644">
        <ele>70.1</ele>
        <time>2022-07-26T09:14:42Z</time>
      </trkpt>
      <trkpt lat="44.62498" lon="-0.17646">
        <ele>70.1</ele>
        <time>2022-07-26T09:14:43Z</time>
      </trkpt>
      <trkpt lat="44.62497" lon="-0.17647">
        <ele>70</ele>
        <time>2022-07-26T09:14:44Z</time>
      </trkpt>
      <trkpt lat="44.62497" lon="-0.17649">
        <ele>70</ele>
        <time>2022-07-26T09:14:45Z</time>
      </trkpt>
      <trkpt lat="44.62497" lon="-0.1765">
        <ele>70</ele>
        <time>2022-07-26T09:14:46Z</time>
      </trkpt>
      <trkpt lat="44.62496" lon="-0.17651">
        <ele>69.9</ele>
        <time>2022-07-26T09:14:47Z</time>
      </trkpt>
      <trkpt lat="44.62496" lon="-0.17653">
        <ele>69.9</ele>
        <time>2022-07-26T09:14:48Z</time>
      </trkpt>
      <trkpt lat="44.62496" lon="-0.17654">
        <ele>69.7</ele>
        <time>2022-07-26T09:14:49Z</time>
      </trkpt>
      <trkpt lat="44.62496" lon="-0.17656">
        <ele>69.6</ele>
        <time>2022-07-26T09:14:50Z</time>
      </trkpt>
      <trkpt lat="44.62496" lon="-0.17658">
        <ele>69.6</ele>
        <time>2022-07-26T09:14:51Z</time>
      </trkpt>
      <trkpt lat="44.62495" lon="-0.17659">
        <ele>69.6</ele>
        <time>2022-07-26T09:14:52Z</time>
      </trkpt>
      <trkpt lat="44.62495" lon="-0.17661">
        <ele>69.5</ele>
        <time>2022-07-26T09:14:53Z</time>
      </trkpt>
      <trkpt lat="44.62495" lon="-0.17662">
        <ele>69.5</ele>
        <time>2022-07-26T09:14:54Z</time>
      </trkpt>
      <trkpt lat="44.62494" lon="-0.17663">
        <ele>69.5</ele>
        <time>2022-07-26T09:14:56Z</time>
      </trkpt>
      <trkpt lat="44.62494" lon="-0.17665">
        <ele>69.4</ele>
        <time>2022-07-26T09:14:57Z</time>
      </trkpt>
      <trkpt lat="44.62493" lon="-0.17666">
        <ele>69.4</ele>
        <time>2022-07-26T09:14:58Z</time>
      </trkpt>
      <trkpt lat="44.62493" lon="-0.17668">
        <ele>69.4</ele>
        <time>2022-07-26T09:14:59Z</time>
      </trkpt>
      <trkpt lat="44.62493" lon="-0.1767">
        <ele>69.2</ele>
        <time>2022-07-26T09:15:00Z</time>
      </trkpt>
      <trkpt lat="44.62493" lon="-0.17672">
        <ele>69.2</ele>
        <time>2022-07-26T09:15:02Z</time>
      </trkpt>
      <trkpt lat="44.62492" lon="-0.17674">
        <ele>69.1</ele>
        <time>2022-07-26T09:15:03Z</time>
      </trkpt>
      <trkpt lat="44.62492" lon="-0.17676">
        <ele>69.1</ele>
        <time>2022-07-26T09:15:04Z</time>
      </trkpt>
      <trkpt lat="44.62492" lon="-0.17677">
        <ele>69</ele>
        <time>2022-07-26T09:15:05Z</time>
      </trkpt>
      <trkpt lat="44.62491" lon="-0.1768">
        <ele>69</ele>
        <time>2022-07-26T09:15:06Z</time>
      </trkpt>
      <trkpt lat="44.62491" lon="-0.17681">
        <ele>68.9</ele>
        <time>2022-07-26T09:15:07Z</time>
      </trkpt>
      <trkpt lat="44.62491" lon="-0.17682">
        <ele>68.9</ele>
        <time>2022-07-26T09:15:08Z</time>
      </trkpt>
      <trkpt lat="44.6249" lon="-0.17684">
        <ele>68.9</ele>
        <time>2022-07-26T09:15:09Z</time>
      </trkpt>
      <trkpt lat="44.62489" lon="-0.17687">
        <ele>68.7</ele>
        <time>2022-07-26T09:15:11Z</time>
      </trkpt>
      <trkpt lat="44.62488" lon="-0.1769">
        <ele>68.7</ele>
        <time>2022-07-26T09:15:12Z</time>
      </trkpt>
      <trkpt lat="44.62488" lon="-0.17691">
        <ele>68.6</ele>
        <time>2022-07-26T09:15:13Z</time>
      </trkpt>
      <trkpt lat="44.62487" lon="-0.17691">
        <ele>68.6</ele>
        <time>2022-07-26T09:15:14Z</time>
      </trkpt>
      <trkpt lat="44.62486" lon="-0.17694">
        <ele>68.3</ele>
        <time>2022-07-26T09:15:15Z</time>
      </trkpt>
      <trkpt lat="44.62486" lon="-0.17695">
        <ele>68.3</ele>
        <time>2022-07-26T09:15:16Z</time>
      </trkpt>
      <trkpt lat="44.62486" lon="-0.17696">
        <ele>68.3</ele>
        <time>2022-07-26T09:15:17Z</time>
      </trkpt>
      <trkpt lat="44.62485" lon="-0.17698">
        <ele>68.3</ele>
        <time>2022-07-26T09:15:18Z</time>
      </trkpt>
      <trkpt lat="44.62485" lon="-0.17699">
        <ele>68.2</ele>
        <time>2022-07-26T09:15:19Z</time>
      </trkpt>
      <trkpt lat="44.62484" lon="-0.17701">
        <ele>68.2</ele>
        <time>2022-07-26T09:15:20Z</time>
      </trkpt>
      <trkpt lat="44.62484" lon="-0.17702">
        <ele>68.1</ele>
        <time>2022-07-26T09:15:21Z</time>
      </trkpt>
      <trkpt lat="44.62483" lon="-0.17704">
        <ele>68</ele>
        <time>2022-07-26T09:15:22Z</time>
      </trkpt>
      <trkpt lat="44.62483" lon="-0.17707">
        <ele>68</ele>
        <time>2022-07-26T09:15:24Z</time>
      </trkpt>
      <trkpt lat="44.62483" lon="-0.1771">
        <ele>67.9</ele>
        <time>2022-07-26T09:15:25Z</time>
      </trkpt>
      <trkpt lat="44.62483" lon="-0.17711">
        <ele>67.9</ele>
        <time>2022-07-26T09:15:26Z</time>
      </trkpt>
      <trkpt lat="44.62483" lon="-0.17712">
        <ele>67.8</ele>
        <time>2022-07-26T09:15:27Z</time>
      </trkpt>
      <trkpt lat="44.62482" lon="-0.17717">
        <ele>67.7</ele>
        <time>2022-07-26T09:15:29Z</time>
      </trkpt>
      <trkpt lat="44.62482" lon="-0.17718">
        <ele>67.7</ele>
        <time>2022-07-26T09:15:30Z</time>
      </trkpt>
      <trkpt lat="44.62482" lon="-0.17719">
        <ele>67.7</ele>
        <time>2022-07-26T09:15:31Z</time>
      </trkpt>
      <trkpt lat="44.62481" lon="-0.1772">
        <ele>67.6</ele>
        <time>2022-07-26T09:15:32Z</time>
      </trkpt>
      <trkpt lat="44.62481" lon="-0.17721">
        <ele>67.6</ele>
        <time>2022-07-26T09:15:33Z</time>
      </trkpt>
      <trkpt lat="44.6248" lon="-0.17725">
        <ele>67.3</ele>
        <time>2022-07-26T09:15:34Z</time>
      </trkpt>
      <trkpt lat="44.6248" lon="-0.17725">
        <ele>67.3</ele>
        <time>2022-07-26T09:15:35Z</time>
      </trkpt>
      <trkpt lat="44.62479" lon="-0.17726">
        <ele>67.3</ele>
        <time>2022-07-26T09:15:36Z</time>
      </trkpt>
      <trkpt lat="44.62479" lon="-0.17727">
        <ele>67.3</ele>
        <time>2022-07-26T09:15:37Z</time>
      </trkpt>
      <trkpt lat="44.62478" lon="-0.17728">
        <ele>67.2</ele>
        <time>2022-07-26T09:15:38Z</time>
      </trkpt>
      <trkpt lat="44.62478" lon="-0.1773">
        <ele>67.2</ele>
        <time>2022-07-26T09:15:39Z</time>
      </trkpt>
      <trkpt lat="44.62478" lon="-0.17732">
        <ele>67.1</ele>
        <time>2022-07-26T09:15:40Z</time>
      </trkpt>
      <trkpt lat="44.62477" lon="-0.17735">
        <ele>67</ele>
        <time>2022-07-26T09:15:42Z</time>
      </trkpt>
      <trkpt lat="44.62477" lon="-0.17736">
        <ele>67</ele>
        <time>2022-07-26T09:15:43Z</time>
      </trkpt>
      <trkpt lat="44.62476" lon="-0.17737">
        <ele>66.9</ele>
        <time>2022-07-26T09:15:44Z</time>
      </trkpt>
      <trkpt lat="44.62476" lon="-0.17739">
        <ele>66.9</ele>
        <time>2022-07-26T09:15:45Z</time>
      </trkpt>
      <trkpt lat="44.62475" lon="-0.17741">
        <ele>66.9</ele>
        <time>2022-07-26T09:15:46Z</time>
      </trkpt>
      <trkpt lat="44.62475" lon="-0.17742">
        <ele>66.6</ele>
        <time>2022-07-26T09:15:47Z</time>
      </trkpt>
      <trkpt lat="44.62474" lon="-0.17743">
        <ele>66.6</ele>
        <time>2022-07-26T09:15:48Z</time>
      </trkpt>
      <trkpt lat="44.62473" lon="-0.17745">
        <ele>66.6</ele>
        <time>2022-07-26T09:15:49Z</time>
      </trkpt>
      <trkpt lat="44.62473" lon="-0.17747">
        <ele>66.5</ele>
        <time>2022-07-26T09:15:50Z</time>
      </trkpt>
      <trkpt lat="44.62473" lon="-0.1775">
        <ele>66.4</ele>
        <time>2022-07-26T09:15:51Z</time>
      </trkpt>
      <trkpt lat="44.62472" lon="-0.17752">
        <ele>66.4</ele>
        <time>2022-07-26T09:15:53Z</time>
      </trkpt>
      <trkpt lat="44.62472" lon="-0.17753">
        <ele>66.4</ele>
        <time>2022-07-26T09:15:54Z</time>
      </trkpt>
      <trkpt lat="44.62472" lon="-0.17755">
        <ele>66.3</ele>
        <time>2022-07-26T09:15:55Z</time>
      </trkpt>
      <trkpt lat="44.62472" lon="-0.17756">
        <ele>66.3</ele>
        <time>2022-07-26T09:15:56Z</time>
      </trkpt>
      <trkpt lat="44.62472" lon="-0.17758">
        <ele>66.1</ele>
        <time>2022-07-26T09:15:57Z</time>
      </trkpt>
      <trkpt lat="44.62472" lon="-0.1776">
        <ele>66</ele>
        <time>2022-07-26T09:15:59Z</time>
      </trkpt>
      <trkpt lat="44.62471" lon="-0.17762">
        <ele>66</ele>
        <time>2022-07-26T09:16:00Z</time>
      </trkpt>
      <trkpt lat="44.62471" lon="-0.17764">
        <ele>65.9</ele>
        <time>2022-07-26T09:16:01Z</time>
      </trkpt>
      <trkpt lat="44.62471" lon="-0.17766">
        <ele>65.9</ele>
        <time>2022-07-26T09:16:02Z</time>
      </trkpt>
      <trkpt lat="44.6247" lon="-0.17767">
        <ele>65.8</ele>
        <time>2022-07-26T09:16:03Z</time>
      </trkpt>
      <trkpt lat="44.6247" lon="-0.17769">
        <ele>65.8</ele>
        <time>2022-07-26T09:16:04Z</time>
      </trkpt>
      <trkpt lat="44.6247" lon="-0.1777">
        <ele>65.8</ele>
        <time>2022-07-26T09:16:05Z</time>
      </trkpt>
      <trkpt lat="44.62469" lon="-0.17773">
        <ele>65.7</ele>
        <time>2022-07-26T09:16:07Z</time>
      </trkpt>
      <trkpt lat="44.62469" lon="-0.17775">
        <ele>65.7</ele>
        <time>2022-07-26T09:16:08Z</time>
      </trkpt>
      <trkpt lat="44.62469" lon="-0.17778">
        <ele>65.6</ele>
        <time>2022-07-26T09:16:09Z</time>
      </trkpt>
      <trkpt lat="44.62469" lon="-0.1778">
        <ele>65.3</ele>
        <time>2022-07-26T09:16:10Z</time>
      </trkpt>
      <trkpt lat="44.62468" lon="-0.17782">
        <ele>65.3</ele>
        <time>2022-07-26T09:16:12Z</time>
      </trkpt>
      <trkpt lat="44.62468" lon="-0.17783">
        <ele>65.3</ele>
        <time>2022-07-26T09:16:13Z</time>
      </trkpt>
      <trkpt lat="44.62468" lon="-0.17785">
        <ele>65.2</ele>
        <time>2022-07-26T09:16:14Z</time>
      </trkpt>
      <trkpt lat="44.62467" lon="-0.17787">
        <ele>65.2</ele>
        <time>2022-07-26T09:16:15Z</time>
      </trkpt>
      <trkpt lat="44.62467" lon="-0.17789">
        <ele>65.1</ele>
        <time>2022-07-26T09:16:17Z</time>
      </trkpt>
      <trkpt lat="44.62467" lon="-0.17791">
        <ele>65.1</ele>
        <time>2022-07-26T09:16:18Z</time>
      </trkpt>
      <trkpt lat="44.62466" lon="-0.17793">
        <ele>65</ele>
        <time>2022-07-26T09:16:19Z</time>
      </trkpt>
      <trkpt lat="44.62466" lon="-0.17795">
        <ele>65</ele>
        <time>2022-07-26T09:16:20Z</time>
      </trkpt>
      <trkpt lat="44.62466" lon="-0.17797">
        <ele>64.9</ele>
        <time>2022-07-26T09:16:22Z</time>
      </trkpt>
      <trkpt lat="44.62466" lon="-0.17799">
        <ele>64.9</ele>
        <time>2022-07-26T09:16:23Z</time>
      </trkpt>
      <trkpt lat="44.62466" lon="-0.17802">
        <ele>64.8</ele>
        <time>2022-07-26T09:16:24Z</time>
      </trkpt>
      <trkpt lat="44.62466" lon="-0.17805">
        <ele>64.8</ele>
        <time>2022-07-26T09:16:26Z</time>
      </trkpt>
      <trkpt lat="44.62466" lon="-0.17806">
        <ele>64.7</ele>
        <time>2022-07-26T09:16:27Z</time>
      </trkpt>
      <trkpt lat="44.62466" lon="-0.17807">
        <ele>64.7</ele>
        <time>2022-07-26T09:16:28Z</time>
      </trkpt>
      <trkpt lat="44.62466" lon="-0.1781">
        <ele>64.6</ele>
        <time>2022-07-26T09:16:30Z</time>
      </trkpt>
      <trkpt lat="44.62466" lon="-0.17812">
        <ele>64.6</ele>
        <time>2022-07-26T09:16:31Z</time>
      </trkpt>
      <trkpt lat="44.62466" lon="-0.17813">
        <ele>64.6</ele>
        <time>2022-07-26T09:16:32Z</time>
      </trkpt>
      <trkpt lat="44.62466" lon="-0.17816">
        <ele>64.5</ele>
        <time>2022-07-26T09:16:33Z</time>
      </trkpt>
      <trkpt lat="44.62466" lon="-0.17819">
        <ele>64.5</ele>
        <time>2022-07-26T09:16:35Z</time>
      </trkpt>
      <trkpt lat="44.62466" lon="-0.1782">
        <ele>64.5</ele>
        <time>2022-07-26T09:16:36Z</time>
      </trkpt>
      <trkpt lat="44.62466" lon="-0.17822">
        <ele>64.5</ele>
        <time>2022-07-26T09:16:37Z</time>
      </trkpt>
      <trkpt lat="44.62466" lon="-0.17824">
        <ele>64.4</ele>
        <time>2022-07-26T09:16:38Z</time>
      </trkpt>
      <trkpt lat="44.62467" lon="-0.17828">
        <ele>64.4</ele>
        <time>2022-07-26T09:16:40Z</time>
      </trkpt>
      <trkpt lat="44.62467" lon="-0.17829">
        <ele>64.4</ele>
        <time>2022-07-26T09:16:41Z</time>
      </trkpt>
      <trkpt lat="44.62467" lon="-0.17831">
        <ele>64.4</ele>
        <time>2022-07-26T09:16:42Z</time>
      </trkpt>
      <trkpt lat="44.62467" lon="-0.17833">
        <ele>64.3</ele>
        <time>2022-07-26T09:16:43Z</time>
      </trkpt>
      <trkpt lat="44.62467" lon="-0.17836">
        <ele>64.2</ele>
        <time>2022-07-26T09:16:45Z</time>
      </trkpt>
      <trkpt lat="44.62467" lon="-0.17838">
        <ele>64.2</ele>
        <time>2022-07-26T09:16:46Z</time>
      </trkpt>
      <trkpt lat="44.62467" lon="-0.17839">
        <ele>64.2</ele>
        <time>2022-07-26T09:16:47Z</time>
      </trkpt>
      <trkpt lat="44.62467" lon="-0.17841">
        <ele>64.2</ele>
        <time>2022-07-26T09:16:48Z</time>
      </trkpt>
      <trkpt lat="44.62467" lon="-0.17845">
        <ele>64.2</ele>
        <time>2022-07-26T09:16:50Z</time>
      </trkpt>
      <trkpt lat="44.62468" lon="-0.17846">
        <ele>64.2</ele>
        <time>2022-07-26T09:16:51Z</time>
      </trkpt>
      <trkpt lat="44.62468" lon="-0.17848">
        <ele>64.2</ele>
        <time>2022-07-26T09:16:52Z</time>
      </trkpt>
      <trkpt lat="44.62468" lon="-0.1785">
        <ele>64.1</ele>
        <time>2022-07-26T09:16:53Z</time>
      </trkpt>
      <trkpt lat="44.62468" lon="-0.17852">
        <ele>64.1</ele>
        <time>2022-07-26T09:16:54Z</time>
      </trkpt>
      <trkpt lat="44.62468" lon="-0.17854">
        <ele>64.1</ele>
        <time>2022-07-26T09:16:55Z</time>
      </trkpt>
      <trkpt lat="44.62468" lon="-0.17855">
        <ele>64.1</ele>
        <time>2022-07-26T09:16:56Z</time>
      </trkpt>
      <trkpt lat="44.62468" lon="-0.17856">
        <ele>64.1</ele>
        <time>2022-07-26T09:16:57Z</time>
      </trkpt>
      <trkpt lat="44.62468" lon="-0.17858">
        <ele>64.1</ele>
        <time>2022-07-26T09:16:58Z</time>
      </trkpt>
      <trkpt lat="44.62468" lon="-0.17863">
        <ele>64.1</ele>
        <time>2022-07-26T09:17:00Z</time>
      </trkpt>
      <trkpt lat="44.62468" lon="-0.17864">
        <ele>64.1</ele>
        <time>2022-07-26T09:17:01Z</time>
      </trkpt>
      <trkpt lat="44.62468" lon="-0.17865">
        <ele>64.1</ele>
        <time>2022-07-26T09:17:02Z</time>
      </trkpt>
      <trkpt lat="44.62468" lon="-0.17867">
        <ele>64.1</ele>
        <time>2022-07-26T09:17:03Z</time>
      </trkpt>
      <trkpt lat="44.62468" lon="-0.1787">
        <ele>64</ele>
        <time>2022-07-26T09:17:04Z</time>
      </trkpt>
      <trkpt lat="44.62468" lon="-0.17872">
        <ele>64</ele>
        <time>2022-07-26T09:17:06Z</time>
      </trkpt>
      <trkpt lat="44.62468" lon="-0.17873">
        <ele>64</ele>
        <time>2022-07-26T09:17:07Z</time>
      </trkpt>
      <trkpt lat="44.62468" lon="-0.17875">
        <ele>64</ele>
        <time>2022-07-26T09:17:08Z</time>
      </trkpt>
      <trkpt lat="44.62468" lon="-0.17877">
        <ele>64</ele>
        <time>2022-07-26T09:17:09Z</time>
      </trkpt>
      <trkpt lat="44.62468" lon="-0.17879">
        <ele>64</ele>
        <time>2022-07-26T09:17:10Z</time>
      </trkpt>
      <trkpt lat="44.62468" lon="-0.17881">
        <ele>64</ele>
        <time>2022-07-26T09:17:11Z</time>
      </trkpt>
      <trkpt lat="44.62469" lon="-0.17884">
        <ele>64</ele>
        <time>2022-07-26T09:17:12Z</time>
      </trkpt>
      <trkpt lat="44.62469" lon="-0.17885">
        <ele>64</ele>
        <time>2022-07-26T09:17:13Z</time>
      </trkpt>
      <trkpt lat="44.62469" lon="-0.17887">
        <ele>64</ele>
        <time>2022-07-26T09:17:14Z</time>
      </trkpt>
      <trkpt lat="44.62469" lon="-0.1789">
        <ele>64</ele>
        <time>2022-07-26T09:17:15Z</time>
      </trkpt>
      <trkpt lat="44.62469" lon="-0.17892">
        <ele>63.9</ele>
        <time>2022-07-26T09:17:17Z</time>
      </trkpt>
      <trkpt lat="44.62469" lon="-0.17893">
        <ele>63.9</ele>
        <time>2022-07-26T09:17:18Z</time>
      </trkpt>
      <trkpt lat="44.62469" lon="-0.17895">
        <ele>63.9</ele>
        <time>2022-07-26T09:17:19Z</time>
      </trkpt>
      <trkpt lat="44.62469" lon="-0.17897">
        <ele>63.9</ele>
        <time>2022-07-26T09:17:20Z</time>
      </trkpt>
      <trkpt lat="44.62469" lon="-0.17898">
        <ele>63.9</ele>
        <time>2022-07-26T09:17:21Z</time>
      </trkpt>
      <trkpt lat="44.62469" lon="-0.179">
        <ele>63.9</ele>
        <time>2022-07-26T09:17:22Z</time>
      </trkpt>
      <trkpt lat="44.62469" lon="-0.17902">
        <ele>63.8</ele>
        <time>2022-07-26T09:17:24Z</time>
      </trkpt>
      <trkpt lat="44.62469" lon="-0.17905">
        <ele>63.8</ele>
        <time>2022-07-26T09:17:25Z</time>
      </trkpt>
      <trkpt lat="44.62469" lon="-0.17906">
        <ele>63.8</ele>
        <time>2022-07-26T09:17:26Z</time>
      </trkpt>
      <trkpt lat="44.62469" lon="-0.17909">
        <ele>63.7</ele>
        <time>2022-07-26T09:17:27Z</time>
      </trkpt>
      <trkpt lat="44.6247" lon="-0.1791">
        <ele>63.7</ele>
        <time>2022-07-26T09:17:28Z</time>
      </trkpt>
      <trkpt lat="44.6247" lon="-0.17911">
        <ele>63.7</ele>
        <time>2022-07-26T09:17:29Z</time>
      </trkpt>
      <trkpt lat="44.6247" lon="-0.17915">
        <ele>63.7</ele>
        <time>2022-07-26T09:17:30Z</time>
      </trkpt>
      <trkpt lat="44.6247" lon="-0.17916">
        <ele>63.7</ele>
        <time>2022-07-26T09:17:31Z</time>
      </trkpt>
      <trkpt lat="44.6247" lon="-0.17917">
        <ele>63.7</ele>
        <time>2022-07-26T09:17:32Z</time>
      </trkpt>
      <trkpt lat="44.6247" lon="-0.1792">
        <ele>63.6</ele>
        <time>2022-07-26T09:17:33Z</time>
      </trkpt>
      <trkpt lat="44.6247" lon="-0.17922">
        <ele>63.5</ele>
        <time>2022-07-26T09:17:34Z</time>
      </trkpt>
      <trkpt lat="44.62471" lon="-0.17923">
        <ele>63.5</ele>
        <time>2022-07-26T09:17:35Z</time>
      </trkpt>
      <trkpt lat="44.62471" lon="-0.17924">
        <ele>63.5</ele>
        <time>2022-07-26T09:17:36Z</time>
      </trkpt>
      <trkpt lat="44.62471" lon="-0.17926">
        <ele>63.4</ele>
        <time>2022-07-26T09:17:37Z</time>
      </trkpt>
      <trkpt lat="44.62471" lon="-0.17928">
        <ele>63.4</ele>
        <time>2022-07-26T09:17:38Z</time>
      </trkpt>
      <trkpt lat="44.6247" lon="-0.17929">
        <ele>63.4</ele>
        <time>2022-07-26T09:17:39Z</time>
      </trkpt>
      <trkpt lat="44.6247" lon="-0.17932">
        <ele>63.3</ele>
        <time>2022-07-26T09:17:40Z</time>
      </trkpt>
      <trkpt lat="44.6247" lon="-0.17933">
        <ele>63.3</ele>
        <time>2022-07-26T09:17:41Z</time>
      </trkpt>
      <trkpt lat="44.6247" lon="-0.17935">
        <ele>63.2</ele>
        <time>2022-07-26T09:17:42Z</time>
      </trkpt>
      <trkpt lat="44.6247" lon="-0.17937">
        <ele>63.2</ele>
        <time>2022-07-26T09:17:43Z</time>
      </trkpt>
      <trkpt lat="44.6247" lon="-0.17938">
        <ele>63.2</ele>
        <time>2022-07-26T09:17:44Z</time>
      </trkpt>
      <trkpt lat="44.6247" lon="-0.17941">
        <ele>63.1</ele>
        <time>2022-07-26T09:17:45Z</time>
      </trkpt>
      <trkpt lat="44.62471" lon="-0.17945">
        <ele>63</ele>
        <time>2022-07-26T09:17:47Z</time>
      </trkpt>
      <trkpt lat="44.62471" lon="-0.17946">
        <ele>63</ele>
        <time>2022-07-26T09:17:48Z</time>
      </trkpt>
      <trkpt lat="44.62471" lon="-0.17949">
        <ele>63</ele>
        <time>2022-07-26T09:17:49Z</time>
      </trkpt>
      <trkpt lat="44.62472" lon="-0.1795">
        <ele>63</ele>
        <time>2022-07-26T09:17:51Z</time>
      </trkpt>
      <trkpt lat="44.62472" lon="-0.17951">
        <ele>63.1</ele>
        <time>2022-07-26T09:17:52Z</time>
      </trkpt>
      <trkpt lat="44.62472" lon="-0.17953">
        <ele>63</ele>
        <time>2022-07-26T09:17:53Z</time>
      </trkpt>
      <trkpt lat="44.62473" lon="-0.17955">
        <ele>63</ele>
        <time>2022-07-26T09:17:54Z</time>
      </trkpt>
      <trkpt lat="44.62473" lon="-0.17957">
        <ele>62.9</ele>
        <time>2022-07-26T09:17:55Z</time>
      </trkpt>
      <trkpt lat="44.62473" lon="-0.17959">
        <ele>62.9</ele>
        <time>2022-07-26T09:17:57Z</time>
      </trkpt>
      <trkpt lat="44.62473" lon="-0.17961">
        <ele>62.8</ele>
        <time>2022-07-26T09:17:58Z</time>
      </trkpt>
      <trkpt lat="44.62473" lon="-0.17963">
        <ele>62.8</ele>
        <time>2022-07-26T09:17:59Z</time>
      </trkpt>
      <trkpt lat="44.62473" lon="-0.17966">
        <ele>62.7</ele>
        <time>2022-07-26T09:18:01Z</time>
      </trkpt>
      <trkpt lat="44.62473" lon="-0.17968">
        <ele>62.7</ele>
        <time>2022-07-26T09:18:02Z</time>
      </trkpt>
      <trkpt lat="44.62473" lon="-0.1797">
        <ele>62.6</ele>
        <time>2022-07-26T09:18:03Z</time>
      </trkpt>
      <trkpt lat="44.62472" lon="-0.17971">
        <ele>62.6</ele>
        <time>2022-07-26T09:18:04Z</time>
      </trkpt>
      <trkpt lat="44.62472" lon="-0.17974">
        <ele>62.4</ele>
        <time>2022-07-26T09:18:06Z</time>
      </trkpt>
      <trkpt lat="44.62471" lon="-0.17974">
        <ele>62.4</ele>
        <time>2022-07-26T09:18:07Z</time>
      </trkpt>
      <trkpt lat="44.62471" lon="-0.17975">
        <ele>62.4</ele>
        <time>2022-07-26T09:18:08Z</time>
      </trkpt>
      <trkpt lat="44.62471" lon="-0.17977">
        <ele>62.4</ele>
        <time>2022-07-26T09:18:09Z</time>
      </trkpt>
      <trkpt lat="44.62471" lon="-0.17979">
        <ele>62.4</ele>
        <time>2022-07-26T09:18:10Z</time>
      </trkpt>
      <trkpt lat="44.62471" lon="-0.1798">
        <ele>62.4</ele>
        <time>2022-07-26T09:18:11Z</time>
      </trkpt>
      <trkpt lat="44.62472" lon="-0.17984">
        <ele>62.3</ele>
        <time>2022-07-26T09:18:13Z</time>
      </trkpt>
      <trkpt lat="44.62472" lon="-0.17987">
        <ele>62.3</ele>
        <time>2022-07-26T09:18:15Z</time>
      </trkpt>
      <trkpt lat="44.62472" lon="-0.17988">
        <ele>62.3</ele>
        <time>2022-07-26T09:18:16Z</time>
      </trkpt>
      <trkpt lat="44.62473" lon="-0.17991">
        <ele>62.2</ele>
        <time>2022-07-26T09:18:17Z</time>
      </trkpt>
      <trkpt lat="44.62473" lon="-0.17993">
        <ele>62.2</ele>
        <time>2022-07-26T09:18:18Z</time>
      </trkpt>
      <trkpt lat="44.62473" lon="-0.17994">
        <ele>62.2</ele>
        <time>2022-07-26T09:18:19Z</time>
      </trkpt>
      <trkpt lat="44.62473" lon="-0.17996">
        <ele>62.2</ele>
        <time>2022-07-26T09:18:20Z</time>
      </trkpt>
      <trkpt lat="44.62473" lon="-0.17997">
        <ele>62.2</ele>
        <time>2022-07-26T09:18:21Z</time>
      </trkpt>
      <trkpt lat="44.62473" lon="-0.17998">
        <ele>62.2</ele>
        <time>2022-07-26T09:18:22Z</time>
      </trkpt>
      <trkpt lat="44.62473" lon="-0.18002">
        <ele>62.1</ele>
        <time>2022-07-26T09:18:23Z</time>
      </trkpt>
      <trkpt lat="44.62473" lon="-0.18003">
        <ele>62.1</ele>
        <time>2022-07-26T09:18:24Z</time>
      </trkpt>
      <trkpt lat="44.62474" lon="-0.18005">
        <ele>62.1</ele>
        <time>2022-07-26T09:18:25Z</time>
      </trkpt>
      <trkpt lat="44.62474" lon="-0.18006">
        <ele>62.1</ele>
        <time>2022-07-26T09:18:26Z</time>
      </trkpt>
      <trkpt lat="44.62474" lon="-0.18008">
        <ele>62</ele>
        <time>2022-07-26T09:18:27Z</time>
      </trkpt>
      <trkpt lat="44.62474" lon="-0.18009">
        <ele>62</ele>
        <time>2022-07-26T09:18:29Z</time>
      </trkpt>
      <trkpt lat="44.62474" lon="-0.18012">
        <ele>62</ele>
        <time>2022-07-26T09:18:30Z</time>
      </trkpt>
      <trkpt lat="44.62474" lon="-0.18012">
        <ele>62</ele>
        <time>2022-07-26T09:18:31Z</time>
      </trkpt>
      <trkpt lat="44.62475" lon="-0.18014">
        <ele>62</ele>
        <time>2022-07-26T09:18:32Z</time>
      </trkpt>
      <trkpt lat="44.62475" lon="-0.18017">
        <ele>62</ele>
        <time>2022-07-26T09:18:33Z</time>
      </trkpt>
      <trkpt lat="44.62475" lon="-0.18019">
        <ele>62</ele>
        <time>2022-07-26T09:18:34Z</time>
      </trkpt>
      <trkpt lat="44.62475" lon="-0.1802">
        <ele>62</ele>
        <time>2022-07-26T09:18:35Z</time>
      </trkpt>
      <trkpt lat="44.62475" lon="-0.18022">
        <ele>61.9</ele>
        <time>2022-07-26T09:18:36Z</time>
      </trkpt>
      <trkpt lat="44.62475" lon="-0.18023">
        <ele>61.9</ele>
        <time>2022-07-26T09:18:37Z</time>
      </trkpt>
      <trkpt lat="44.62475" lon="-0.18026">
        <ele>61.9</ele>
        <time>2022-07-26T09:18:39Z</time>
      </trkpt>
      <trkpt lat="44.62475" lon="-0.18028">
        <ele>61.9</ele>
        <time>2022-07-26T09:18:40Z</time>
      </trkpt>
      <trkpt lat="44.62475" lon="-0.18029">
        <ele>61.8</ele>
        <time>2022-07-26T09:18:41Z</time>
      </trkpt>
      <trkpt lat="44.62475" lon="-0.18031">
        <ele>61.8</ele>
        <time>2022-07-26T09:18:42Z</time>
      </trkpt>
      <trkpt lat="44.62475" lon="-0.18033">
        <ele>61.8</ele>
        <time>2022-07-26T09:18:43Z</time>
      </trkpt>
      <trkpt lat="44.62475" lon="-0.18037">
        <ele>61.8</ele>
        <time>2022-07-26T09:18:45Z</time>
      </trkpt>
      <trkpt lat="44.62475" lon="-0.18039">
        <ele>61.7</ele>
        <time>2022-07-26T09:18:46Z</time>
      </trkpt>
      <trkpt lat="44.62475" lon="-0.18041">
        <ele>61.7</ele>
        <time>2022-07-26T09:18:47Z</time>
      </trkpt>
      <trkpt lat="44.62475" lon="-0.18042">
        <ele>61.7</ele>
        <time>2022-07-26T09:18:48Z</time>
      </trkpt>
      <trkpt lat="44.62475" lon="-0.18044">
        <ele>61.7</ele>
        <time>2022-07-26T09:18:49Z</time>
      </trkpt>
      <trkpt lat="44.62476" lon="-0.18048">
        <ele>61.7</ele>
        <time>2022-07-26T09:18:51Z</time>
      </trkpt>
      <trkpt lat="44.62476" lon="-0.18051">
        <ele>61.6</ele>
        <time>2022-07-26T09:18:52Z</time>
      </trkpt>
      <trkpt lat="44.62476" lon="-0.18052">
        <ele>61.6</ele>
        <time>2022-07-26T09:18:53Z</time>
      </trkpt>
      <trkpt lat="44.62476" lon="-0.18053">
        <ele>61.6</ele>
        <time>2022-07-26T09:18:54Z</time>
      </trkpt>
      <trkpt lat="44.62476" lon="-0.18056">
        <ele>61.5</ele>
        <time>2022-07-26T09:18:55Z</time>
      </trkpt>
      <trkpt lat="44.62476" lon="-0.18057">
        <ele>61.5</ele>
        <time>2022-07-26T09:18:56Z</time>
      </trkpt>
      <trkpt lat="44.62476" lon="-0.18058">
        <ele>61.5</ele>
        <time>2022-07-26T09:18:57Z</time>
      </trkpt>
      <trkpt lat="44.62476" lon="-0.1806">
        <ele>61.5</ele>
        <time>2022-07-26T09:18:58Z</time>
      </trkpt>
      <trkpt lat="44.62476" lon="-0.18062">
        <ele>61.5</ele>
        <time>2022-07-26T09:18:59Z</time>
      </trkpt>
      <trkpt lat="44.62477" lon="-0.18064">
        <ele>61.4</ele>
        <time>2022-07-26T09:19:00Z</time>
      </trkpt>
      <trkpt lat="44.62477" lon="-0.18067">
        <ele>61.4</ele>
        <time>2022-07-26T09:19:02Z</time>
      </trkpt>
      <trkpt lat="44.62477" lon="-0.1807">
        <ele>61.3</ele>
        <time>2022-07-26T09:19:03Z</time>
      </trkpt>
      <trkpt lat="44.62477" lon="-0.18072">
        <ele>61.3</ele>
        <time>2022-07-26T09:19:04Z</time>
      </trkpt>
      <trkpt lat="44.62477" lon="-0.18073">
        <ele>61.2</ele>
        <time>2022-07-26T09:19:05Z</time>
      </trkpt>
      <trkpt lat="44.62477" lon="-0.18075">
        <ele>61.2</ele>
        <time>2022-07-26T09:19:07Z</time>
      </trkpt>
      <trkpt lat="44.62477" lon="-0.18077">
        <ele>61.1</ele>
        <time>2022-07-26T09:19:08Z</time>
      </trkpt>
      <trkpt lat="44.62477" lon="-0.18079">
        <ele>61.1</ele>
        <time>2022-07-26T09:19:09Z</time>
      </trkpt>
      <trkpt lat="44.62477" lon="-0.18082">
        <ele>61.1</ele>
        <time>2022-07-26T09:19:10Z</time>
      </trkpt>
      <trkpt lat="44.62477" lon="-0.18083">
        <ele>61.1</ele>
        <time>2022-07-26T09:19:12Z</time>
      </trkpt>
      <trkpt lat="44.62477" lon="-0.18086">
        <ele>61</ele>
        <time>2022-07-26T09:19:13Z</time>
      </trkpt>
      <trkpt lat="44.62477" lon="-0.18089">
        <ele>60.9</ele>
        <time>2022-07-26T09:19:14Z</time>
      </trkpt>
      <trkpt lat="44.62477" lon="-0.18091">
        <ele>60.9</ele>
        <time>2022-07-26T09:19:15Z</time>
      </trkpt>
      <trkpt lat="44.62477" lon="-0.18092">
        <ele>60.9</ele>
        <time>2022-07-26T09:19:16Z</time>
      </trkpt>
      <trkpt lat="44.62477" lon="-0.18093">
        <ele>60.9</ele>
        <time>2022-07-26T09:19:17Z</time>
      </trkpt>
      <trkpt lat="44.62477" lon="-0.18095">
        <ele>60.8</ele>
        <time>2022-07-26T09:19:18Z</time>
      </trkpt>
      <trkpt lat="44.62477" lon="-0.18097">
        <ele>60.8</ele>
        <time>2022-07-26T09:19:19Z</time>
      </trkpt>
      <trkpt lat="44.62478" lon="-0.18099">
        <ele>60.7</ele>
        <time>2022-07-26T09:19:20Z</time>
      </trkpt>
      <trkpt lat="44.62478" lon="-0.18101">
        <ele>60.7</ele>
        <time>2022-07-26T09:19:21Z</time>
      </trkpt>
      <trkpt lat="44.62478" lon="-0.18104">
        <ele>60.6</ele>
        <time>2022-07-26T09:19:23Z</time>
      </trkpt>
      <trkpt lat="44.62478" lon="-0.18108">
        <ele>60.5</ele>
        <time>2022-07-26T09:19:25Z</time>
      </trkpt>
      <trkpt lat="44.62478" lon="-0.18109">
        <ele>60.5</ele>
        <time>2022-07-26T09:19:26Z</time>
      </trkpt>
      <trkpt lat="44.62478" lon="-0.18111">
        <ele>60.4</ele>
        <time>2022-07-26T09:19:27Z</time>
      </trkpt>
      <trkpt lat="44.62478" lon="-0.18112">
        <ele>60.4</ele>
        <time>2022-07-26T09:19:28Z</time>
      </trkpt>
      <trkpt lat="44.62478" lon="-0.18114">
        <ele>60.4</ele>
        <time>2022-07-26T09:19:29Z</time>
      </trkpt>
      <trkpt lat="44.62479" lon="-0.18117">
        <ele>60.3</ele>
        <time>2022-07-26T09:19:30Z</time>
      </trkpt>
      <trkpt lat="44.62479" lon="-0.18119">
        <ele>60.3</ele>
        <time>2022-07-26T09:19:32Z</time>
      </trkpt>
      <trkpt lat="44.62479" lon="-0.18121">
        <ele>60.2</ele>
        <time>2022-07-26T09:19:33Z</time>
      </trkpt>
      <trkpt lat="44.62479" lon="-0.18123">
        <ele>60.2</ele>
        <time>2022-07-26T09:19:34Z</time>
      </trkpt>
      <trkpt lat="44.62479" lon="-0.18125">
        <ele>60.1</ele>
        <time>2022-07-26T09:19:35Z</time>
      </trkpt>
      <trkpt lat="44.62479" lon="-0.18126">
        <ele>60.1</ele>
        <time>2022-07-26T09:19:36Z</time>
      </trkpt>
      <trkpt lat="44.62479" lon="-0.18128">
        <ele>60</ele>
        <time>2022-07-26T09:19:37Z</time>
      </trkpt>
      <trkpt lat="44.62479" lon="-0.1813">
        <ele>60</ele>
        <time>2022-07-26T09:19:39Z</time>
      </trkpt>
      <trkpt lat="44.62479" lon="-0.18133">
        <ele>59.9</ele>
        <time>2022-07-26T09:19:40Z</time>
      </trkpt>
      <trkpt lat="44.62479" lon="-0.18134">
        <ele>59.9</ele>
        <time>2022-07-26T09:19:41Z</time>
      </trkpt>
      <trkpt lat="44.6248" lon="-0.18136">
        <ele>59.8</ele>
        <time>2022-07-26T09:19:42Z</time>
      </trkpt>
      <trkpt lat="44.6248" lon="-0.18138">
        <ele>59.8</ele>
        <time>2022-07-26T09:19:43Z</time>
      </trkpt>
      <trkpt lat="44.6248" lon="-0.1814">
        <ele>59.8</ele>
        <time>2022-07-26T09:19:44Z</time>
      </trkpt>
      <trkpt lat="44.6248" lon="-0.18143">
        <ele>59.7</ele>
        <time>2022-07-26T09:19:45Z</time>
      </trkpt>
      <trkpt lat="44.6248" lon="-0.18144">
        <ele>59.7</ele>
        <time>2022-07-26T09:19:46Z</time>
      </trkpt>
      <trkpt lat="44.6248" lon="-0.18146">
        <ele>59.6</ele>
        <time>2022-07-26T09:19:47Z</time>
      </trkpt>
      <trkpt lat="44.6248" lon="-0.18149">
        <ele>59.5</ele>
        <time>2022-07-26T09:19:49Z</time>
      </trkpt>
      <trkpt lat="44.6248" lon="-0.18153">
        <ele>59.5</ele>
        <time>2022-07-26T09:19:51Z</time>
      </trkpt>
      <trkpt lat="44.6248" lon="-0.18154">
        <ele>59.5</ele>
        <time>2022-07-26T09:19:52Z</time>
      </trkpt>
      <trkpt lat="44.6248" lon="-0.18156">
        <ele>59.5</ele>
        <time>2022-07-26T09:19:53Z</time>
      </trkpt>
      <trkpt lat="44.6248" lon="-0.18157">
        <ele>59.4</ele>
        <time>2022-07-26T09:19:54Z</time>
      </trkpt>
      <trkpt lat="44.6248" lon="-0.18159">
        <ele>59.4</ele>
        <time>2022-07-26T09:19:55Z</time>
      </trkpt>
      <trkpt lat="44.6248" lon="-0.18162">
        <ele>59.3</ele>
        <time>2022-07-26T09:19:56Z</time>
      </trkpt>
      <trkpt lat="44.6248" lon="-0.18164">
        <ele>59.3</ele>
        <time>2022-07-26T09:19:57Z</time>
      </trkpt>
      <trkpt lat="44.6248" lon="-0.18165">
        <ele>59.3</ele>
        <time>2022-07-26T09:19:58Z</time>
      </trkpt>
      <trkpt lat="44.62481" lon="-0.18169">
        <ele>59.3</ele>
        <time>2022-07-26T09:20:00Z</time>
      </trkpt>
      <trkpt lat="44.62481" lon="-0.1817">
        <ele>59.3</ele>
        <time>2022-07-26T09:20:01Z</time>
      </trkpt>
      <trkpt lat="44.62481" lon="-0.18172">
        <ele>59.2</ele>
        <time>2022-07-26T09:20:02Z</time>
      </trkpt>
      <trkpt lat="44.62482" lon="-0.18173">
        <ele>59.2</ele>
        <time>2022-07-26T09:20:03Z</time>
      </trkpt>
      <trkpt lat="44.62482" lon="-0.18177">
        <ele>59.2</ele>
        <time>2022-07-26T09:20:04Z</time>
      </trkpt>
      <trkpt lat="44.62482" lon="-0.18179">
        <ele>59.2</ele>
        <time>2022-07-26T09:20:05Z</time>
      </trkpt>
      <trkpt lat="44.62482" lon="-0.18181">
        <ele>59.1</ele>
        <time>2022-07-26T09:20:06Z</time>
      </trkpt>
      <trkpt lat="44.62483" lon="-0.18182">
        <ele>59.1</ele>
        <time>2022-07-26T09:20:07Z</time>
      </trkpt>
      <trkpt lat="44.62483" lon="-0.18183">
        <ele>59.1</ele>
        <time>2022-07-26T09:20:08Z</time>
      </trkpt>
      <trkpt lat="44.62483" lon="-0.18184">
        <ele>59.1</ele>
        <time>2022-07-26T09:20:09Z</time>
      </trkpt>
      <trkpt lat="44.62484" lon="-0.18187">
        <ele>59.1</ele>
        <time>2022-07-26T09:20:10Z</time>
      </trkpt>
      <trkpt lat="44.62484" lon="-0.18187">
        <ele>59.1</ele>
        <time>2022-07-26T09:20:11Z</time>
      </trkpt>
      <trkpt lat="44.62485" lon="-0.18189">
        <ele>59.1</ele>
        <time>2022-07-26T09:20:12Z</time>
      </trkpt>
      <trkpt lat="44.62485" lon="-0.1819">
        <ele>59.1</ele>
        <time>2022-07-26T09:20:13Z</time>
      </trkpt>
      <trkpt lat="44.62486" lon="-0.18194">
        <ele>59</ele>
        <time>2022-07-26T09:20:15Z</time>
      </trkpt>
      <trkpt lat="44.62487" lon="-0.18196">
        <ele>59</ele>
        <time>2022-07-26T09:20:17Z</time>
      </trkpt>
      <trkpt lat="44.62488" lon="-0.18197">
        <ele>59</ele>
        <time>2022-07-26T09:20:18Z</time>
      </trkpt>
      <trkpt lat="44.62488" lon="-0.18199">
        <ele>59</ele>
        <time>2022-07-26T09:20:19Z</time>
      </trkpt>
      <trkpt lat="44.62489" lon="-0.18202">
        <ele>59</ele>
        <time>2022-07-26T09:20:20Z</time>
      </trkpt>
      <trkpt lat="44.62489" lon="-0.18203">
        <ele>59</ele>
        <time>2022-07-26T09:20:21Z</time>
      </trkpt>
      <trkpt lat="44.62489" lon="-0.18204">
        <ele>59</ele>
        <time>2022-07-26T09:20:22Z</time>
      </trkpt>
      <trkpt lat="44.62489" lon="-0.18206">
        <ele>58.9</ele>
        <time>2022-07-26T09:20:23Z</time>
      </trkpt>
      <trkpt lat="44.62489" lon="-0.18208">
        <ele>58.9</ele>
        <time>2022-07-26T09:20:24Z</time>
      </trkpt>
      <trkpt lat="44.62489" lon="-0.18211">
        <ele>58.9</ele>
        <time>2022-07-26T09:20:26Z</time>
      </trkpt>
      <trkpt lat="44.62489" lon="-0.18213">
        <ele>58.9</ele>
        <time>2022-07-26T09:20:27Z</time>
      </trkpt>
      <trkpt lat="44.62489" lon="-0.18215">
        <ele>58.9</ele>
        <time>2022-07-26T09:20:28Z</time>
      </trkpt>
      <trkpt lat="44.62489" lon="-0.18216">
        <ele>58.9</ele>
        <time>2022-07-26T09:20:29Z</time>
      </trkpt>
      <trkpt lat="44.6249" lon="-0.18219">
        <ele>58.9</ele>
        <time>2022-07-26T09:20:30Z</time>
      </trkpt>
      <trkpt lat="44.6249" lon="-0.1822">
        <ele>58.9</ele>
        <time>2022-07-26T09:20:31Z</time>
      </trkpt>
      <trkpt lat="44.6249" lon="-0.18223">
        <ele>58.9</ele>
        <time>2022-07-26T09:20:33Z</time>
      </trkpt>
      <trkpt lat="44.6249" lon="-0.18224">
        <ele>58.9</ele>
        <time>2022-07-26T09:20:34Z</time>
      </trkpt>
      <trkpt lat="44.62491" lon="-0.18226">
        <ele>58.9</ele>
        <time>2022-07-26T09:20:35Z</time>
      </trkpt>
      <trkpt lat="44.62491" lon="-0.18229">
        <ele>58.9</ele>
        <time>2022-07-26T09:20:36Z</time>
      </trkpt>
      <trkpt lat="44.62491" lon="-0.1823">
        <ele>58.9</ele>
        <time>2022-07-26T09:20:37Z</time>
      </trkpt>
      <trkpt lat="44.62492" lon="-0.18232">
        <ele>58.9</ele>
        <time>2022-07-26T09:20:38Z</time>
      </trkpt>
      <trkpt lat="44.62492" lon="-0.18233">
        <ele>58.9</ele>
        <time>2022-07-26T09:20:39Z</time>
      </trkpt>
      <trkpt lat="44.62492" lon="-0.18236">
        <ele>58.9</ele>
        <time>2022-07-26T09:20:41Z</time>
      </trkpt>
      <trkpt lat="44.62492" lon="-0.18238">
        <ele>58.9</ele>
        <time>2022-07-26T09:20:42Z</time>
      </trkpt>
      <trkpt lat="44.62492" lon="-0.1824">
        <ele>58.9</ele>
        <time>2022-07-26T09:20:43Z</time>
      </trkpt>
      <trkpt lat="44.62493" lon="-0.18242">
        <ele>58.9</ele>
        <time>2022-07-26T09:20:44Z</time>
      </trkpt>
      <trkpt lat="44.62493" lon="-0.18243">
        <ele>58.9</ele>
        <time>2022-07-26T09:20:45Z</time>
      </trkpt>
      <trkpt lat="44.62493" lon="-0.18245">
        <ele>59</ele>
        <time>2022-07-26T09:20:46Z</time>
      </trkpt>
      <trkpt lat="44.62493" lon="-0.18247">
        <ele>59</ele>
        <time>2022-07-26T09:20:47Z</time>
      </trkpt>
      <trkpt lat="44.62494" lon="-0.18248">
        <ele>59.1</ele>
        <time>2022-07-26T09:20:48Z</time>
      </trkpt>
      <trkpt lat="44.62494" lon="-0.1825">
        <ele>59.1</ele>
        <time>2022-07-26T09:20:49Z</time>
      </trkpt>
      <trkpt lat="44.62494" lon="-0.18252">
        <ele>59.1</ele>
        <time>2022-07-26T09:20:50Z</time>
      </trkpt>
      <trkpt lat="44.62495" lon="-0.18253">
        <ele>59.1</ele>
        <time>2022-07-26T09:20:51Z</time>
      </trkpt>
      <trkpt lat="44.62495" lon="-0.18257">
        <ele>59.2</ele>
        <time>2022-07-26T09:20:53Z</time>
      </trkpt>
      <trkpt lat="44.62496" lon="-0.1826">
        <ele>59.2</ele>
        <time>2022-07-26T09:20:54Z</time>
      </trkpt>
      <trkpt lat="44.62496" lon="-0.18261">
        <ele>59.3</ele>
        <time>2022-07-26T09:20:55Z</time>
      </trkpt>
      <trkpt lat="44.62496" lon="-0.18262">
        <ele>59.3</ele>
        <time>2022-07-26T09:20:56Z</time>
      </trkpt>
      <trkpt lat="44.62497" lon="-0.18265">
        <ele>59.3</ele>
        <time>2022-07-26T09:20:57Z</time>
      </trkpt>
      <trkpt lat="44.62497" lon="-0.18266">
        <ele>59.4</ele>
        <time>2022-07-26T09:20:58Z</time>
      </trkpt>
      <trkpt lat="44.62497" lon="-0.18267">
        <ele>59.4</ele>
        <time>2022-07-26T09:20:59Z</time>
      </trkpt>
      <trkpt lat="44.62498" lon="-0.1827">
        <ele>59.4</ele>
        <time>2022-07-26T09:21:00Z</time>
      </trkpt>
      <trkpt lat="44.62498" lon="-0.18271">
        <ele>59.4</ele>
        <time>2022-07-26T09:21:01Z</time>
      </trkpt>
      <trkpt lat="44.62498" lon="-0.18272">
        <ele>59.4</ele>
        <time>2022-07-26T09:21:02Z</time>
      </trkpt>
      <trkpt lat="44.62499" lon="-0.18275">
        <ele>59.5</ele>
        <time>2022-07-26T09:21:04Z</time>
      </trkpt>
      <trkpt lat="44.62499" lon="-0.18277">
        <ele>59.5</ele>
        <time>2022-07-26T09:21:05Z</time>
      </trkpt>
      <trkpt lat="44.62499" lon="-0.1828">
        <ele>59.6</ele>
        <time>2022-07-26T09:21:07Z</time>
      </trkpt>
      <trkpt lat="44.62499" lon="-0.18281">
        <ele>59.6</ele>
        <time>2022-07-26T09:21:08Z</time>
      </trkpt>
      <trkpt lat="44.62499" lon="-0.18283">
        <ele>59.7</ele>
        <time>2022-07-26T09:21:09Z</time>
      </trkpt>
      <trkpt lat="44.62499" lon="-0.18285">
        <ele>59.7</ele>
        <time>2022-07-26T09:21:10Z</time>
      </trkpt>
      <trkpt lat="44.625" lon="-0.18289">
        <ele>59.8</ele>
        <time>2022-07-26T09:21:11Z</time>
      </trkpt>
      <trkpt lat="44.625" lon="-0.18289">
        <ele>59.8</ele>
        <time>2022-07-26T09:21:12Z</time>
      </trkpt>
      <trkpt lat="44.625" lon="-0.1829">
        <ele>59.8</ele>
        <time>2022-07-26T09:21:13Z</time>
      </trkpt>
      <trkpt lat="44.625" lon="-0.18292">
        <ele>60</ele>
        <time>2022-07-26T09:21:14Z</time>
      </trkpt>
      <trkpt lat="44.62501" lon="-0.18295">
        <ele>60</ele>
        <time>2022-07-26T09:21:15Z</time>
      </trkpt>
      <trkpt lat="44.62501" lon="-0.18296">
        <ele>60.1</ele>
        <time>2022-07-26T09:21:17Z</time>
      </trkpt>
      <trkpt lat="44.62502" lon="-0.18297">
        <ele>60.1</ele>
        <time>2022-07-26T09:21:18Z</time>
      </trkpt>
      <trkpt lat="44.62502" lon="-0.18298">
        <ele>60.1</ele>
        <time>2022-07-26T09:21:19Z</time>
      </trkpt>
      <trkpt lat="44.62502" lon="-0.18299">
        <ele>60.1</ele>
        <time>2022-07-26T09:21:20Z</time>
      </trkpt>
      <trkpt lat="44.62502" lon="-0.18302">
        <ele>60.2</ele>
        <time>2022-07-26T09:21:21Z</time>
      </trkpt>
      <trkpt lat="44.62501" lon="-0.18303">
        <ele>60.2</ele>
        <time>2022-07-26T09:21:22Z</time>
      </trkpt>
      <trkpt lat="44.62501" lon="-0.18304">
        <ele>60.4</ele>
        <time>2022-07-26T09:21:23Z</time>
      </trkpt>
      <trkpt lat="44.625" lon="-0.18308">
        <ele>60.5</ele>
        <time>2022-07-26T09:21:24Z</time>
      </trkpt>
      <trkpt lat="44.625" lon="-0.18309">
        <ele>60.5</ele>
        <time>2022-07-26T09:21:25Z</time>
      </trkpt>
      <trkpt lat="44.62499" lon="-0.18312">
        <ele>60.5</ele>
        <time>2022-07-26T09:21:26Z</time>
      </trkpt>
      <trkpt lat="44.62498" lon="-0.18313">
        <ele>60.7</ele>
        <time>2022-07-26T09:21:28Z</time>
      </trkpt>
      <trkpt lat="44.62498" lon="-0.18314">
        <ele>60.7</ele>
        <time>2022-07-26T09:21:29Z</time>
      </trkpt>
      <trkpt lat="44.62497" lon="-0.18317">
        <ele>60.9</ele>
        <time>2022-07-26T09:21:30Z</time>
      </trkpt>
      <trkpt lat="44.62496" lon="-0.18318">
        <ele>60.9</ele>
        <time>2022-07-26T09:21:31Z</time>
      </trkpt>
      <trkpt lat="44.62496" lon="-0.1832">
        <ele>60.9</ele>
        <time>2022-07-26T09:21:33Z</time>
      </trkpt>
      <trkpt lat="44.62496" lon="-0.18322">
        <ele>61.1</ele>
        <time>2022-07-26T09:21:34Z</time>
      </trkpt>
      <trkpt lat="44.62495" lon="-0.18324">
        <ele>61.1</ele>
        <time>2022-07-26T09:21:35Z</time>
      </trkpt>
      <trkpt lat="44.62494" lon="-0.18326">
        <ele>61.4</ele>
        <time>2022-07-26T09:21:36Z</time>
      </trkpt>
      <trkpt lat="44.62494" lon="-0.18328">
        <ele>61.4</ele>
        <time>2022-07-26T09:21:37Z</time>
      </trkpt>
      <trkpt lat="44.62494" lon="-0.18329">
        <ele>61.4</ele>
        <time>2022-07-26T09:21:38Z</time>
      </trkpt>
      <trkpt lat="44.62493" lon="-0.1833">
        <ele>61.6</ele>
        <time>2022-07-26T09:21:39Z</time>
      </trkpt>
      <trkpt lat="44.62493" lon="-0.18331">
        <ele>61.6</ele>
        <time>2022-07-26T09:21:40Z</time>
      </trkpt>
      <trkpt lat="44.62493" lon="-0.18333">
        <ele>61.7</ele>
        <time>2022-07-26T09:21:41Z</time>
      </trkpt>
      <trkpt lat="44.62493" lon="-0.18334">
        <ele>62</ele>
        <time>2022-07-26T09:21:42Z</time>
      </trkpt>
      <trkpt lat="44.62493" lon="-0.18335">
        <ele>62</ele>
        <time>2022-07-26T09:21:43Z</time>
      </trkpt>
      <trkpt lat="44.62493" lon="-0.18337">
        <ele>62</ele>
        <time>2022-07-26T09:21:44Z</time>
      </trkpt>
      <trkpt lat="44.62492" lon="-0.18341">
        <ele>62.3</ele>
        <time>2022-07-26T09:21:46Z</time>
      </trkpt>
      <trkpt lat="44.62491" lon="-0.18342">
        <ele>62.6</ele>
        <time>2022-07-26T09:21:47Z</time>
      </trkpt>
      <trkpt lat="44.62491" lon="-0.18344">
        <ele>62.6</ele>
        <time>2022-07-26T09:21:48Z</time>
      </trkpt>
      <trkpt lat="44.6249" lon="-0.18345">
        <ele>62.6</ele>
        <time>2022-07-26T09:21:49Z</time>
      </trkpt>
      <trkpt lat="44.6249" lon="-0.18346">
        <ele>62.6</ele>
        <time>2022-07-26T09:21:50Z</time>
      </trkpt>
      <trkpt lat="44.62489" lon="-0.18347">
        <ele>62.9</ele>
        <time>2022-07-26T09:21:51Z</time>
      </trkpt>
      <trkpt lat="44.62489" lon="-0.1835">
        <ele>62.9</ele>
        <time>2022-07-26T09:21:53Z</time>
      </trkpt>
      <trkpt lat="44.62488" lon="-0.18352">
        <ele>63.3</ele>
        <time>2022-07-26T09:21:54Z</time>
      </trkpt>
      <trkpt lat="44.62487" lon="-0.18353">
        <ele>63.3</ele>
        <time>2022-07-26T09:21:55Z</time>
      </trkpt>
      <trkpt lat="44.62487" lon="-0.18356">
        <ele>63.6</ele>
        <time>2022-07-26T09:21:56Z</time>
      </trkpt>
      <trkpt lat="44.62486" lon="-0.18357">
        <ele>63.6</ele>
        <time>2022-07-26T09:21:57Z</time>
      </trkpt>
      <trkpt lat="44.62486" lon="-0.18358">
        <ele>63.6</ele>
        <time>2022-07-26T09:21:58Z</time>
      </trkpt>
      <trkpt lat="44.62486" lon="-0.1836">
        <ele>64</ele>
        <time>2022-07-26T09:21:59Z</time>
      </trkpt>
      <trkpt lat="44.62485" lon="-0.18363">
        <ele>64</ele>
        <time>2022-07-26T09:22:01Z</time>
      </trkpt>
      <trkpt lat="44.62484" lon="-0.18364">
        <ele>64.3</ele>
        <time>2022-07-26T09:22:02Z</time>
      </trkpt>
      <trkpt lat="44.62484" lon="-0.18365">
        <ele>64.3</ele>
        <time>2022-07-26T09:22:03Z</time>
      </trkpt>
      <trkpt lat="44.62483" lon="-0.18366">
        <ele>64.3</ele>
        <time>2022-07-26T09:22:04Z</time>
      </trkpt>
      <trkpt lat="44.62483" lon="-0.18367">
        <ele>64.3</ele>
        <time>2022-07-26T09:22:05Z</time>
      </trkpt>
      <trkpt lat="44.62482" lon="-0.1837">
        <ele>64.7</ele>
        <time>2022-07-26T09:22:06Z</time>
      </trkpt>
      <trkpt lat="44.62481" lon="-0.18372">
        <ele>64.7</ele>
        <time>2022-07-26T09:22:08Z</time>
      </trkpt>
      <trkpt lat="44.6248" lon="-0.18373">
        <ele>65.1</ele>
        <time>2022-07-26T09:22:09Z</time>
      </trkpt>
      <trkpt lat="44.62479" lon="-0.18375">
        <ele>65.1</ele>
        <time>2022-07-26T09:22:10Z</time>
      </trkpt>
      <trkpt lat="44.62478" lon="-0.18377">
        <ele>65.4</ele>
        <time>2022-07-26T09:22:11Z</time>
      </trkpt>
      <trkpt lat="44.62478" lon="-0.18378">
        <ele>65.4</ele>
        <time>2022-07-26T09:22:12Z</time>
      </trkpt>
      <trkpt lat="44.62477" lon="-0.18379">
        <ele>65.4</ele>
        <time>2022-07-26T09:22:13Z</time>
      </trkpt>
      <trkpt lat="44.62476" lon="-0.18382">
        <ele>65.8</ele>
        <time>2022-07-26T09:22:15Z</time>
      </trkpt>
      <trkpt lat="44.62475" lon="-0.18384">
        <ele>65.8</ele>
        <time>2022-07-26T09:22:16Z</time>
      </trkpt>
      <trkpt lat="44.62475" lon="-0.18385">
        <ele>65.8</ele>
        <time>2022-07-26T09:22:17Z</time>
      </trkpt>
      <trkpt lat="44.62474" lon="-0.18386">
        <ele>66.1</ele>
        <time>2022-07-26T09:22:18Z</time>
      </trkpt>
      <trkpt lat="44.62473" lon="-0.18388">
        <ele>66.1</ele>
        <time>2022-07-26T09:22:19Z</time>
      </trkpt>
      <trkpt lat="44.62473" lon="-0.18389">
        <ele>66.1</ele>
        <time>2022-07-26T09:22:20Z</time>
      </trkpt>
      <trkpt lat="44.62472" lon="-0.1839">
        <ele>66.4</ele>
        <time>2022-07-26T09:22:21Z</time>
      </trkpt>
      <trkpt lat="44.62472" lon="-0.18391">
        <ele>66.4</ele>
        <time>2022-07-26T09:22:22Z</time>
      </trkpt>
      <trkpt lat="44.62471" lon="-0.18392">
        <ele>66.4</ele>
        <time>2022-07-26T09:22:24Z</time>
      </trkpt>
      <trkpt lat="44.62471" lon="-0.18393">
        <ele>66.4</ele>
        <time>2022-07-26T09:22:25Z</time>
      </trkpt>
      <trkpt lat="44.62469" lon="-0.18395">
        <ele>66.7</ele>
        <time>2022-07-26T09:22:26Z</time>
      </trkpt>
      <trkpt lat="44.62469" lon="-0.18396">
        <ele>66.7</ele>
        <time>2022-07-26T09:22:27Z</time>
      </trkpt>
      <trkpt lat="44.62469" lon="-0.18396">
        <ele>66.7</ele>
        <time>2022-07-26T09:22:28Z</time>
      </trkpt>
      <trkpt lat="44.62468" lon="-0.18396">
        <ele>66.7</ele>
        <time>2022-07-26T09:22:29Z</time>
      </trkpt>
      <trkpt lat="44.62468" lon="-0.18395">
        <ele>66.7</ele>
        <time>2022-07-26T09:22:30Z</time>
      </trkpt>
      <trkpt lat="44.62469" lon="-0.18395">
        <ele>66.7</ele>
        <time>2022-07-26T09:22:31Z</time>
      </trkpt>
      <trkpt lat="44.62469" lon="-0.18394">
        <ele>66.7</ele>
        <time>2022-07-26T09:22:32Z</time>
      </trkpt>
      <trkpt lat="44.62469" lon="-0.18394">
        <ele>66.7</ele>
        <time>2022-07-26T09:22:33Z</time>
      </trkpt>
      <trkpt lat="44.6247" lon="-0.18394">
        <ele>66.7</ele>
        <time>2022-07-26T09:22:34Z</time>
      </trkpt>
      <trkpt lat="44.6247" lon="-0.18393">
        <ele>66.4</ele>
        <time>2022-07-26T09:22:35Z</time>
      </trkpt>
      <trkpt lat="44.6247" lon="-0.18393">
        <ele>66.4</ele>
        <time>2022-07-26T09:22:36Z</time>
      </trkpt>
      <trkpt lat="44.6247" lon="-0.18393">
        <ele>66.4</ele>
        <time>2022-07-26T09:22:37Z</time>
      </trkpt>
      <trkpt lat="44.6247" lon="-0.18393">
        <ele>66.4</ele>
        <time>2022-07-26T09:22:38Z</time>
      </trkpt>
      <trkpt lat="44.6247" lon="-0.18393">
        <ele>66.4</ele>
        <time>2022-07-26T09:22:39Z</time>
      </trkpt>
      <trkpt lat="44.6247" lon="-0.18393">
        <ele>66.4</ele>
        <time>2022-07-26T09:22:40Z</time>
      </trkpt>
      <trkpt lat="44.6247" lon="-0.18392">
        <ele>66.4</ele>
        <time>2022-07-26T09:22:41Z</time>
      </trkpt>
      <trkpt lat="44.62471" lon="-0.18392">
        <ele>66.4</ele>
        <time>2022-07-26T09:22:42Z</time>
      </trkpt>
      <trkpt lat="44.62471" lon="-0.18392">
        <ele>66.4</ele>
        <time>2022-07-26T09:22:43Z</time>
      </trkpt>
      <trkpt lat="44.62471" lon="-0.18392">
        <ele>66.4</ele>
        <time>2022-07-26T09:22:44Z</time>
      </trkpt>
      <trkpt lat="44.62471" lon="-0.18392">
        <ele>66.4</ele>
        <time>2022-07-26T09:22:45Z</time>
      </trkpt>
      <trkpt lat="44.62471" lon="-0.18392">
        <ele>66.4</ele>
        <time>2022-07-26T09:22:46Z</time>
      </trkpt>
      <trkpt lat="44.6247" lon="-0.18393">
        <ele>66.4</ele>
        <time>2022-07-26T09:22:47Z</time>
      </trkpt>
      <trkpt lat="44.6247" lon="-0.18393">
        <ele>66.4</ele>
        <time>2022-07-26T09:22:48Z</time>
      </trkpt>
      <trkpt lat="44.6247" lon="-0.18393">
        <ele>66.4</ele>
        <time>2022-07-26T09:22:49Z</time>
      </trkpt>
      <trkpt lat="44.6247" lon="-0.18393">
        <ele>66.4</ele>
        <time>2022-07-26T09:22:50Z</time>
      </trkpt>
      <trkpt lat="44.6247" lon="-0.18393">
        <ele>66.4</ele>
        <time>2022-07-26T09:22:51Z</time>
      </trkpt>
      <trkpt lat="44.6247" lon="-0.18393">
        <ele>66.4</ele>
        <time>2022-07-26T09:22:52Z</time>
      </trkpt>
      <trkpt lat="44.6247" lon="-0.18393">
        <ele>66.4</ele>
        <time>2022-07-26T09:22:53Z</time>
      </trkpt>
      <trkpt lat="44.6247" lon="-0.18393">
        <ele>66.4</ele>
        <time>2022-07-26T09:22:54Z</time>
      </trkpt>
      <trkpt lat="44.6247" lon="-0.18393">
        <ele>66.4</ele>
        <time>2022-07-26T09:22:55Z</time>
      </trkpt>
      <trkpt lat="44.6247" lon="-0.18393">
        <ele>66.4</ele>
        <time>2022-07-26T09:22:56Z</time>
      </trkpt>
      <trkpt lat="44.6247" lon="-0.18393">
        <ele>66.4</ele>
        <time>2022-07-26T09:22:57Z</time>
      </trkpt>
      <trkpt lat="44.6247" lon="-0.18393">
        <ele>66.4</ele>
        <time>2022-07-26T09:22:58Z</time>
      </trkpt>
      <trkpt lat="44.6247" lon="-0.18393">
        <ele>66.4</ele>
        <time>2022-07-26T09:22:59Z</time>
      </trkpt>
      <trkpt lat="44.6247" lon="-0.18393">
        <ele>66.4</ele>
        <time>2022-07-26T09:23:00Z</time>
      </trkpt>
      <trkpt lat="44.6247" lon="-0.18393">
        <ele>66.4</ele>
        <time>2022-07-26T09:23:01Z</time>
      </trkpt>
      <trkpt lat="44.6247" lon="-0.18393">
        <ele>66.4</ele>
        <time>2022-07-26T09:23:02Z</time>
      </trkpt>
      <trkpt lat="44.6247" lon="-0.18393">
        <ele>66.4</ele>
        <time>2022-07-26T09:23:03Z</time>
      </trkpt>
      <trkpt lat="44.6247" lon="-0.18393">
        <ele>66.4</ele>
        <time>2022-07-26T09:23:04Z</time>
      </trkpt>
      <trkpt lat="44.6247" lon="-0.18393">
        <ele>66.4</ele>
        <time>2022-07-26T09:23:05Z</time>
      </trkpt>
      <trkpt lat="44.6247" lon="-0.18393">
        <ele>66.4</ele>
        <time>2022-07-26T09:23:06Z</time>
      </trkpt>
      <trkpt lat="44.6247" lon="-0.18393">
        <ele>66.4</ele>
        <time>2022-07-26T09:23:07Z</time>
      </trkpt>
      <trkpt lat="44.6247" lon="-0.18393">
        <ele>66.4</ele>
        <time>2022-07-26T09:23:08Z</time>
      </trkpt>
      <trkpt lat="44.6247" lon="-0.18393">
        <ele>66.4</ele>
        <time>2022-07-26T09:23:09Z</time>
      </trkpt>
      <trkpt lat="44.6247" lon="-0.18393">
        <ele>66.4</ele>
        <time>2022-07-26T09:23:10Z</time>
      </trkpt>
      <trkpt lat="44.6247" lon="-0.18393">
        <ele>66.4</ele>
        <time>2022-07-26T09:23:11Z</time>
      </trkpt>
      <trkpt lat="44.6247" lon="-0.18393">
        <ele>66.4</ele>
        <time>2022-07-26T09:23:12Z</time>
      </trkpt>
      <trkpt lat="44.6247" lon="-0.18393">
        <ele>66.4</ele>
        <time>2022-07-26T09:23:13Z</time>
      </trkpt>
      <trkpt lat="44.6247" lon="-0.18393">
        <ele>66.4</ele>
        <time>2022-07-26T09:23:14Z</time>
      </trkpt>
      <trkpt lat="44.6247" lon="-0.18393">
        <ele>66.4</ele>
        <time>2022-07-26T09:23:15Z</time>
      </trkpt>
      <trkpt lat="44.6247" lon="-0.18393">
        <ele>66.4</ele>
        <time>2022-07-26T09:23:16Z</time>
      </trkpt>
      <trkpt lat="44.6247" lon="-0.18393">
        <ele>66.4</ele>
        <time>2022-07-26T09:23:17Z</time>
      </trkpt>
      <trkpt lat="44.62471" lon="-0.18393">
        <ele>66.4</ele>
        <time>2022-07-26T09:23:18Z</time>
      </trkpt>
      <trkpt lat="44.62471" lon="-0.18393">
        <ele>66.4</ele>
        <time>2022-07-26T09:23:19Z</time>
      </trkpt>
      <trkpt lat="44.62471" lon="-0.18392">
        <ele>66.4</ele>
        <time>2022-07-26T09:23:20Z</time>
      </trkpt>
      <trkpt lat="44.62471" lon="-0.18392">
        <ele>66.4</ele>
        <time>2022-07-26T09:23:21Z</time>
      </trkpt>
      <trkpt lat="44.62471" lon="-0.18392">
        <ele>66.4</ele>
        <time>2022-07-26T09:23:22Z</time>
      </trkpt>
      <trkpt lat="44.62471" lon="-0.18392">
        <ele>66.4</ele>
        <time>2022-07-26T09:23:23Z</time>
      </trkpt>
      <trkpt lat="44.62471" lon="-0.18392">
        <ele>66.4</ele>
        <time>2022-07-26T09:23:24Z</time>
      </trkpt>
      <trkpt lat="44.62471" lon="-0.18392">
        <ele>66.4</ele>
        <time>2022-07-26T09:23:25Z</time>
      </trkpt>
      <trkpt lat="44.62471" lon="-0.18392">
        <ele>66.4</ele>
        <time>2022-07-26T09:23:26Z</time>
      </trkpt>
      <trkpt lat="44.62471" lon="-0.18392">
        <ele>66.4</ele>
        <time>2022-07-26T09:23:27Z</time>
      </trkpt>
      <trkpt lat="44.62471" lon="-0.18392">
        <ele>66.4</ele>
        <time>2022-07-26T09:23:28Z</time>
      </trkpt>
      <trkpt lat="44.62471" lon="-0.18392">
        <ele>66.4</ele>
        <time>2022-07-26T09:23:29Z</time>
      </trkpt>
      <trkpt lat="44.62471" lon="-0.18392">
        <ele>66.4</ele>
        <time>2022-07-26T09:23:30Z</time>
      </trkpt>
      <trkpt lat="44.62471" lon="-0.18392">
        <ele>66.4</ele>
        <time>2022-07-26T09:23:31Z</time>
      </trkpt>
      <trkpt lat="44.62471" lon="-0.18391">
        <ele>66.4</ele>
        <time>2022-07-26T09:23:32Z</time>
      </trkpt>
      <trkpt lat="44.62471" lon="-0.18391">
        <ele>66.4</ele>
        <time>2022-07-26T09:23:33Z</time>
      </trkpt>
      <trkpt lat="44.62471" lon="-0.18391">
        <ele>66.4</ele>
        <time>2022-07-26T09:23:34Z</time>
      </trkpt>
      <trkpt lat="44.62471" lon="-0.18391">
        <ele>66.4</ele>
        <time>2022-07-26T09:23:35Z</time>
      </trkpt>
      <trkpt lat="44.62471" lon="-0.18391">
        <ele>66.4</ele>
        <time>2022-07-26T09:23:36Z</time>
      </trkpt>
      <trkpt lat="44.62471" lon="-0.18391">
        <ele>66.4</ele>
        <time>2022-07-26T09:23:37Z</time>
      </trkpt>
      <trkpt lat="44.62471" lon="-0.1839">
        <ele>66.4</ele>
        <time>2022-07-26T09:23:38Z</time>
      </trkpt>
      <trkpt lat="44.62471" lon="-0.1839">
        <ele>66.4</ele>
        <time>2022-07-26T09:23:39Z</time>
      </trkpt>
      <trkpt lat="44.62471" lon="-0.1839">
        <ele>66.4</ele>
        <time>2022-07-26T09:23:40Z</time>
      </trkpt>
      <trkpt lat="44.62471" lon="-0.18389">
        <ele>66.4</ele>
        <time>2022-07-26T09:23:41Z</time>
      </trkpt>
      <trkpt lat="44.62471" lon="-0.18389">
        <ele>66.1</ele>
        <time>2022-07-26T09:23:42Z</time>
      </trkpt>
      <trkpt lat="44.62471" lon="-0.18389">
        <ele>66.1</ele>
        <time>2022-07-26T09:23:43Z</time>
      </trkpt>
      <trkpt lat="44.62471" lon="-0.18389">
        <ele>66.4</ele>
        <time>2022-07-26T09:23:44Z</time>
      </trkpt>
      <trkpt lat="44.62471" lon="-0.1839">
        <ele>66.4</ele>
        <time>2022-07-26T09:23:45Z</time>
      </trkpt>
      <trkpt lat="44.62471" lon="-0.1839">
        <ele>66.4</ele>
        <time>2022-07-26T09:23:46Z</time>
      </trkpt>
      <trkpt lat="44.62471" lon="-0.1839">
        <ele>66.4</ele>
        <time>2022-07-26T09:23:47Z</time>
      </trkpt>
      <trkpt lat="44.62471" lon="-0.1839">
        <ele>66.4</ele>
        <time>2022-07-26T09:23:48Z</time>
      </trkpt>
      <trkpt lat="44.62471" lon="-0.18389">
        <ele>66.4</ele>
        <time>2022-07-26T09:23:49Z</time>
      </trkpt>
      <trkpt lat="44.62471" lon="-0.18389">
        <ele>66.4</ele>
        <time>2022-07-26T09:23:50Z</time>
      </trkpt>
      <trkpt lat="44.62471" lon="-0.18389">
        <ele>66.4</ele>
        <time>2022-07-26T09:23:51Z</time>
      </trkpt>
      <trkpt lat="44.62471" lon="-0.18389">
        <ele>66.4</ele>
        <time>2022-07-26T09:23:52Z</time>
      </trkpt>
      <trkpt lat="44.62471" lon="-0.18389">
        <ele>66.4</ele>
        <time>2022-07-26T09:23:53Z</time>
      </trkpt>
      <trkpt lat="44.62471" lon="-0.18389">
        <ele>66.4</ele>
        <time>2022-07-26T09:23:54Z</time>
      </trkpt>
      <trkpt lat="44.62471" lon="-0.18389">
        <ele>66.4</ele>
        <time>2022-07-26T09:23:55Z</time>
      </trkpt>
      <trkpt lat="44.62471" lon="-0.18389">
        <ele>66.4</ele>
        <time>2022-07-26T09:23:56Z</time>
      </trkpt>
      <trkpt lat="44.62471" lon="-0.18389">
        <ele>66.4</ele>
        <time>2022-07-26T09:23:57Z</time>
      </trkpt>
      <trkpt lat="44.62471" lon="-0.18389">
        <ele>66.4</ele>
        <time>2022-07-26T09:23:58Z</time>
      </trkpt>
      <trkpt lat="44.62471" lon="-0.18389">
        <ele>66.4</ele>
        <time>2022-07-26T09:23:59Z</time>
      </trkpt>
      <trkpt lat="44.62471" lon="-0.18389">
        <ele>66.4</ele>
        <time>2022-07-26T09:24:00Z</time>
      </trkpt>
      <trkpt lat="44.62471" lon="-0.18389">
        <ele>66.4</ele>
        <time>2022-07-26T09:24:01Z</time>
      </trkpt>
      <trkpt lat="44.62471" lon="-0.18389">
        <ele>66.4</ele>
        <time>2022-07-26T09:24:02Z</time>
      </trkpt>
      <trkpt lat="44.62471" lon="-0.18389">
        <ele>66.4</ele>
        <time>2022-07-26T09:24:03Z</time>
      </trkpt>
      <trkpt lat="44.62471" lon="-0.18389">
        <ele>66.4</ele>
        <time>2022-07-26T09:24:04Z</time>
      </trkpt>
      <trkpt lat="44.62471" lon="-0.18389">
        <ele>66.4</ele>
        <time>2022-07-26T09:24:05Z</time>
      </trkpt>
      <trkpt lat="44.62471" lon="-0.18389">
        <ele>66.4</ele>
        <time>2022-07-26T09:24:06Z</time>
      </trkpt>
      <trkpt lat="44.62471" lon="-0.18389">
        <ele>66.4</ele>
        <time>2022-07-26T09:24:07Z</time>
      </trkpt>
      <trkpt lat="44.62471" lon="-0.18389">
        <ele>66.4</ele>
        <time>2022-07-26T09:24:08Z</time>
      </trkpt>
      <trkpt lat="44.62471" lon="-0.18389">
        <ele>66.4</ele>
        <time>2022-07-26T09:24:09Z</time>
      </trkpt>
      <trkpt lat="44.62471" lon="-0.18389">
        <ele>66.4</ele>
        <time>2022-07-26T09:24:10Z</time>
      </trkpt>
      <trkpt lat="44.62471" lon="-0.18389">
        <ele>66.4</ele>
        <time>2022-07-26T09:24:11Z</time>
      </trkpt>
      <trkpt lat="44.62471" lon="-0.18389">
        <ele>66.4</ele>
        <time>2022-07-26T09:24:12Z</time>
      </trkpt>
      <trkpt lat="44.62471" lon="-0.18389">
        <ele>66.4</ele>
        <time>2022-07-26T09:24:13Z</time>
      </trkpt>
      <trkpt lat="44.62471" lon="-0.18389">
        <ele>66.4</ele>
        <time>2022-07-26T09:24:14Z</time>
      </trkpt>
      <trkpt lat="44.62471" lon="-0.18389">
        <ele>66.4</ele>
        <time>2022-07-26T09:24:15Z</time>
      </trkpt>
      <trkpt lat="44.62471" lon="-0.18389">
        <ele>66.4</ele>
        <time>2022-07-26T09:24:16Z</time>
      </trkpt>
      <trkpt lat="44.62471" lon="-0.18389">
        <ele>66.4</ele>
        <time>2022-07-26T09:24:17Z</time>
      </trkpt>
      <trkpt lat="44.62471" lon="-0.18389">
        <ele>66.4</ele>
        <time>2022-07-26T09:24:18Z</time>
      </trkpt>
      <trkpt lat="44.62471" lon="-0.18389">
        <ele>66.4</ele>
        <time>2022-07-26T09:24:19Z</time>
      </trkpt>
      <trkpt lat="44.62471" lon="-0.18389">
        <ele>66.4</ele>
        <time>2022-07-26T09:24:20Z</time>
      </trkpt>
      <trkpt lat="44.62471" lon="-0.18389">
        <ele>66.4</ele>
        <time>2022-07-26T09:24:21Z</time>
      </trkpt>
      <trkpt lat="44.62471" lon="-0.18389">
        <ele>66.4</ele>
        <time>2022-07-26T09:24:22Z</time>
      </trkpt>
      <trkpt lat="44.62471" lon="-0.18389">
        <ele>66.4</ele>
        <time>2022-07-26T09:24:23Z</time>
      </trkpt>
      <trkpt lat="44.62471" lon="-0.18389">
        <ele>66.4</ele>
        <time>2022-07-26T09:24:24Z</time>
      </trkpt>
      <trkpt lat="44.62471" lon="-0.18389">
        <ele>66.4</ele>
        <time>2022-07-26T09:24:25Z</time>
      </trkpt>
      <trkpt lat="44.62471" lon="-0.18389">
        <ele>66.4</ele>
        <time>2022-07-26T09:24:26Z</time>
      </trkpt>
      <trkpt lat="44.62471" lon="-0.18389">
        <ele>66.4</ele>
        <time>2022-07-26T09:24:27Z</time>
      </trkpt>
      <trkpt lat="44.62471" lon="-0.18389">
        <ele>66.4</ele>
        <time>2022-07-26T09:24:28Z</time>
      </trkpt>
      <trkpt lat="44.62471" lon="-0.18389">
        <ele>66.4</ele>
        <time>2022-07-26T09:24:29Z</time>
      </trkpt>
      <trkpt lat="44.62471" lon="-0.18389">
        <ele>66.4</ele>
        <time>2022-07-26T09:24:30Z</time>
      </trkpt>
      <trkpt lat="44.62471" lon="-0.18389">
        <ele>66.4</ele>
        <time>2022-07-26T09:24:31Z</time>
      </trkpt>
      <trkpt lat="44.62471" lon="-0.18389">
        <ele>66.4</ele>
        <time>2022-07-26T09:24:32Z</time>
      </trkpt>
      <trkpt lat="44.62471" lon="-0.18389">
        <ele>66.4</ele>
        <time>2022-07-26T09:24:33Z</time>
      </trkpt>
      <trkpt lat="44.62471" lon="-0.18389">
        <ele>66.4</ele>
        <time>2022-07-26T09:24:34Z</time>
      </trkpt>
      <trkpt lat="44.62471" lon="-0.18389">
        <ele>66.4</ele>
        <time>2022-07-26T09:24:35Z</time>
      </trkpt>
      <trkpt lat="44.62471" lon="-0.18389">
        <ele>66.4</ele>
        <time>2022-07-26T09:24:36Z</time>
      </trkpt>
      <trkpt lat="44.62471" lon="-0.18389">
        <ele>66.4</ele>
        <time>2022-07-26T09:24:37Z</time>
      </trkpt>
      <trkpt lat="44.62471" lon="-0.18389">
        <ele>66.4</ele>
        <time>2022-07-26T09:24:38Z</time>
      </trkpt>
      <trkpt lat="44.62471" lon="-0.18389">
        <ele>66.4</ele>
        <time>2022-07-26T09:24:39Z</time>
      </trkpt>
      <trkpt lat="44.62471" lon="-0.18389">
        <ele>66.4</ele>
        <time>2022-07-26T09:24:40Z</time>
      </trkpt>
      <trkpt lat="44.62471" lon="-0.18389">
        <ele>66.4</ele>
        <time>2022-07-26T09:24:41Z</time>
      </trkpt>
      <trkpt lat="44.62471" lon="-0.18389">
        <ele>66.4</ele>
        <time>2022-07-26T09:24:42Z</time>
      </trkpt>
      <trkpt lat="44.62471" lon="-0.18389">
        <ele>66.4</ele>
        <time>2022-07-26T09:24:43Z</time>
      </trkpt>
      <trkpt lat="44.62471" lon="-0.18389">
        <ele>66.4</ele>
        <time>2022-07-26T09:24:44Z</time>
      </trkpt>
      <trkpt lat="44.62471" lon="-0.18389">
        <ele>66.4</ele>
        <time>2022-07-26T09:24:45Z</time>
      </trkpt>
      <trkpt lat="44.62471" lon="-0.18389">
        <ele>66.4</ele>
        <time>2022-07-26T09:24:46Z</time>
      </trkpt>
      <trkpt lat="44.62471" lon="-0.18389">
        <ele>66.4</ele>
        <time>2022-07-26T09:24:47Z</time>
      </trkpt>
      <trkpt lat="44.62471" lon="-0.18389">
        <ele>66.4</ele>
        <time>2022-07-26T09:24:48Z</time>
      </trkpt>
      <trkpt lat="44.62471" lon="-0.18389">
        <ele>66.4</ele>
        <time>2022-07-26T09:24:49Z</time>
      </trkpt>
      <trkpt lat="44.62471" lon="-0.18389">
        <ele>66.4</ele>
        <time>2022-07-26T09:24:50Z</time>
      </trkpt>
      <trkpt lat="44.62471" lon="-0.18389">
        <ele>66.4</ele>
        <time>2022-07-26T09:24:51Z</time>
      </trkpt>
      <trkpt lat="44.62471" lon="-0.18389">
        <ele>66.4</ele>
        <time>2022-07-26T09:24:52Z</time>
      </trkpt>
      <trkpt lat="44.62471" lon="-0.18389">
        <ele>66.1</ele>
        <time>2022-07-26T09:24:53Z</time>
      </trkpt>
      <trkpt lat="44.62471" lon="-0.18389">
        <ele>66.1</ele>
        <time>2022-07-26T09:24:54Z</time>
      </trkpt>
      <trkpt lat="44.62471" lon="-0.18389">
        <ele>66.1</ele>
        <time>2022-07-26T09:24:55Z</time>
      </trkpt>
      <trkpt lat="44.62471" lon="-0.18389">
        <ele>66.1</ele>
        <time>2022-07-26T09:24:56Z</time>
      </trkpt>
      <trkpt lat="44.62471" lon="-0.18389">
        <ele>66.1</ele>
        <time>2022-07-26T09:24:57Z</time>
      </trkpt>
      <trkpt lat="44.62471" lon="-0.18389">
        <ele>66.1</ele>
        <time>2022-07-26T09:24:58Z</time>
      </trkpt>
      <trkpt lat="44.62471" lon="-0.18389">
        <ele>66.1</ele>
        <time>2022-07-26T09:24:59Z</time>
      </trkpt>
      <trkpt lat="44.62471" lon="-0.18389">
        <ele>66.1</ele>
        <time>2022-07-26T09:25:00Z</time>
      </trkpt>
      <trkpt lat="44.62471" lon="-0.18389">
        <ele>66.1</ele>
        <time>2022-07-26T09:25:01Z</time>
      </trkpt>
      <trkpt lat="44.62471" lon="-0.18389">
        <ele>66.1</ele>
        <time>2022-07-26T09:25:02Z</time>
      </trkpt>
      <trkpt lat="44.62471" lon="-0.18389">
        <ele>66.1</ele>
        <time>2022-07-26T09:25:03Z</time>
      </trkpt>
      <trkpt lat="44.62471" lon="-0.18389">
        <ele>66.1</ele>
        <time>2022-07-26T09:25:04Z</time>
      </trkpt>
      <trkpt lat="44.62471" lon="-0.18389">
        <ele>66.1</ele>
        <time>2022-07-26T09:25:05Z</time>
      </trkpt>
      <trkpt lat="44.62471" lon="-0.18389">
        <ele>66.1</ele>
        <time>2022-07-26T09:25:06Z</time>
      </trkpt>
      <trkpt lat="44.62471" lon="-0.18389">
        <ele>66.1</ele>
        <time>2022-07-26T09:25:07Z</time>
      </trkpt>
      <trkpt lat="44.62471" lon="-0.18389">
        <ele>66.1</ele>
        <time>2022-07-26T09:25:08Z</time>
      </trkpt>
      <trkpt lat="44.62471" lon="-0.18389">
        <ele>66.1</ele>
        <time>2022-07-26T09:25:09Z</time>
      </trkpt>
      <trkpt lat="44.62471" lon="-0.18389">
        <ele>66.1</ele>
        <time>2022-07-26T09:25:10Z</time>
      </trkpt>
      <trkpt lat="44.62471" lon="-0.18388">
        <ele>66.1</ele>
        <time>2022-07-26T09:25:11Z</time>
      </trkpt>
      <trkpt lat="44.62471" lon="-0.18388">
        <ele>66.1</ele>
        <time>2022-07-26T09:25:12Z</time>
      </trkpt>
      <trkpt lat="44.62471" lon="-0.18388">
        <ele>66.1</ele>
        <time>2022-07-26T09:25:13Z</time>
      </trkpt>
      <trkpt lat="44.62471" lon="-0.18388">
        <ele>66.1</ele>
        <time>2022-07-26T09:25:14Z</time>
      </trkpt>
      <trkpt lat="44.62471" lon="-0.18388">
        <ele>66.1</ele>
        <time>2022-07-26T09:25:15Z</time>
      </trkpt>
      <trkpt lat="44.62471" lon="-0.18388">
        <ele>66.1</ele>
        <time>2022-07-26T09:25:16Z</time>
      </trkpt>
      <trkpt lat="44.62471" lon="-0.18388">
        <ele>66.1</ele>
        <time>2022-07-26T09:25:17Z</time>
      </trkpt>
      <trkpt lat="44.62471" lon="-0.18388">
        <ele>66.1</ele>
        <time>2022-07-26T09:25:18Z</time>
      </trkpt>
      <trkpt lat="44.62471" lon="-0.18388">
        <ele>66.1</ele>
        <time>2022-07-26T09:25:19Z</time>
      </trkpt>
      <trkpt lat="44.62471" lon="-0.18388">
        <ele>66.1</ele>
        <time>2022-07-26T09:25:20Z</time>
      </trkpt>
      <trkpt lat="44.62471" lon="-0.18388">
        <ele>66.1</ele>
        <time>2022-07-26T09:25:21Z</time>
      </trkpt>
      <trkpt lat="44.62471" lon="-0.18388">
        <ele>66.1</ele>
        <time>2022-07-26T09:25:22Z</time>
      </trkpt>
      <trkpt lat="44.62471" lon="-0.18389">
        <ele>66.1</ele>
        <time>2022-07-26T09:25:23Z</time>
      </trkpt>
      <trkpt lat="44.62471" lon="-0.1839">
        <ele>66.4</ele>
        <time>2022-07-26T09:25:24Z</time>
      </trkpt>
      <trkpt lat="44.62471" lon="-0.1839">
        <ele>66.4</ele>
        <time>2022-07-26T09:25:25Z</time>
      </trkpt>
      <trkpt lat="44.62472" lon="-0.18391">
        <ele>66.4</ele>
        <time>2022-07-26T09:25:26Z</time>
      </trkpt>
      <trkpt lat="44.62472" lon="-0.18391">
        <ele>66.4</ele>
        <time>2022-07-26T09:25:27Z</time>
      </trkpt>
      <trkpt lat="44.62472" lon="-0.18391">
        <ele>66.4</ele>
        <time>2022-07-26T09:25:28Z</time>
      </trkpt>
      <trkpt lat="44.62472" lon="-0.18391">
        <ele>66.4</ele>
        <time>2022-07-26T09:25:29Z</time>
      </trkpt>
      <trkpt lat="44.62472" lon="-0.18391">
        <ele>66.4</ele>
        <time>2022-07-26T09:25:30Z</time>
      </trkpt>
      <trkpt lat="44.62472" lon="-0.18391">
        <ele>66.4</ele>
        <time>2022-07-26T09:25:31Z</time>
      </trkpt>
      <trkpt lat="44.62472" lon="-0.18391">
        <ele>66.4</ele>
        <time>2022-07-26T09:25:32Z</time>
      </trkpt>
      <trkpt lat="44.62472" lon="-0.18391">
        <ele>66.4</ele>
        <time>2022-07-26T09:25:33Z</time>
      </trkpt>
      <trkpt lat="44.62472" lon="-0.18391">
        <ele>66.4</ele>
        <time>2022-07-26T09:25:34Z</time>
      </trkpt>
      <trkpt lat="44.62472" lon="-0.18391">
        <ele>66.4</ele>
        <time>2022-07-26T09:25:35Z</time>
      </trkpt>
      <trkpt lat="44.62472" lon="-0.18391">
        <ele>66.4</ele>
        <time>2022-07-26T09:25:36Z</time>
      </trkpt>
      <trkpt lat="44.62472" lon="-0.18391">
        <ele>66.4</ele>
        <time>2022-07-26T09:25:37Z</time>
      </trkpt>
      <trkpt lat="44.62472" lon="-0.18391">
        <ele>66.4</ele>
        <time>2022-07-26T09:25:38Z</time>
      </trkpt>
      <trkpt lat="44.62472" lon="-0.18391">
        <ele>66.4</ele>
        <time>2022-07-26T09:25:39Z</time>
      </trkpt>
      <trkpt lat="44.62472" lon="-0.18391">
        <ele>66.4</ele>
        <time>2022-07-26T09:25:40Z</time>
      </trkpt>
      <trkpt lat="44.62472" lon="-0.18391">
        <ele>66.4</ele>
        <time>2022-07-26T09:25:41Z</time>
      </trkpt>
      <trkpt lat="44.62471" lon="-0.18392">
        <ele>66.4</ele>
        <time>2022-07-26T09:25:42Z</time>
      </trkpt>
      <trkpt lat="44.62471" lon="-0.18393">
        <ele>66.4</ele>
        <time>2022-07-26T09:25:43Z</time>
      </trkpt>
      <trkpt lat="44.62471" lon="-0.18394">
        <ele>66.7</ele>
        <time>2022-07-26T09:25:44Z</time>
      </trkpt>
      <trkpt lat="44.62472" lon="-0.18392">
        <ele>66.4</ele>
        <time>2022-07-26T09:25:45Z</time>
      </trkpt>
      <trkpt lat="44.62472" lon="-0.18392">
        <ele>66.4</ele>
        <time>2022-07-26T09:25:46Z</time>
      </trkpt>
      <trkpt lat="44.62473" lon="-0.18392">
        <ele>66.4</ele>
        <time>2022-07-26T09:25:47Z</time>
      </trkpt>
      <trkpt lat="44.62473" lon="-0.18394">
        <ele>66.7</ele>
        <time>2022-07-26T09:25:48Z</time>
      </trkpt>
      <trkpt lat="44.62473" lon="-0.18395">
        <ele>66.7</ele>
        <time>2022-07-26T09:25:49Z</time>
      </trkpt>
      <trkpt lat="44.62473" lon="-0.18397">
        <ele>66.7</ele>
        <time>2022-07-26T09:25:50Z</time>
      </trkpt>
      <trkpt lat="44.62471" lon="-0.18401">
        <ele>67</ele>
        <time>2022-07-26T09:25:52Z</time>
      </trkpt>
      <trkpt lat="44.6247" lon="-0.18403">
        <ele>67.2</ele>
        <time>2022-07-26T09:25:53Z</time>
      </trkpt>
      <trkpt lat="44.62469" lon="-0.18404">
        <ele>67.2</ele>
        <time>2022-07-26T09:25:54Z</time>
      </trkpt>
      <trkpt lat="44.62468" lon="-0.18406">
        <ele>67.2</ele>
        <time>2022-07-26T09:25:55Z</time>
      </trkpt>
      <trkpt lat="44.62467" lon="-0.18407">
        <ele>67.5</ele>
        <time>2022-07-26T09:25:56Z</time>
      </trkpt>
      <trkpt lat="44.62464" lon="-0.1841">
        <ele>67.5</ele>
        <time>2022-07-26T09:25:58Z</time>
      </trkpt>
      <trkpt lat="44.62463" lon="-0.18411">
        <ele>67.7</ele>
        <time>2022-07-26T09:25:59Z</time>
      </trkpt>
      <trkpt lat="44.62462" lon="-0.18412">
        <ele>67.7</ele>
        <time>2022-07-26T09:26:00Z</time>
      </trkpt>
      <trkpt lat="44.6246" lon="-0.18414">
        <ele>67.7</ele>
        <time>2022-07-26T09:26:01Z</time>
      </trkpt>
      <trkpt lat="44.62459" lon="-0.18415">
        <ele>68</ele>
        <time>2022-07-26T09:26:02Z</time>
      </trkpt>
      <trkpt lat="44.62457" lon="-0.18418">
        <ele>68</ele>
        <time>2022-07-26T09:26:03Z</time>
      </trkpt>
      <trkpt lat="44.62456" lon="-0.18419">
        <ele>68</ele>
        <time>2022-07-26T09:26:04Z</time>
      </trkpt>
      <trkpt lat="44.62455" lon="-0.18422">
        <ele>68.2</ele>
        <time>2022-07-26T09:26:05Z</time>
      </trkpt>
      <trkpt lat="44.62455" lon="-0.18423">
        <ele>68.2</ele>
        <time>2022-07-26T09:26:07Z</time>
      </trkpt>
      <trkpt lat="44.62455" lon="-0.18424">
        <ele>68.5</ele>
        <time>2022-07-26T09:26:08Z</time>
      </trkpt>
      <trkpt lat="44.62455" lon="-0.18425">
        <ele>68.5</ele>
        <time>2022-07-26T09:26:09Z</time>
      </trkpt>
      <trkpt lat="44.62455" lon="-0.18426">
        <ele>68.5</ele>
        <time>2022-07-26T09:26:10Z</time>
      </trkpt>
      <trkpt lat="44.62456" lon="-0.18427">
        <ele>68.5</ele>
        <time>2022-07-26T09:26:11Z</time>
      </trkpt>
      <trkpt lat="44.62456" lon="-0.18427">
        <ele>68.5</ele>
        <time>2022-07-26T09:26:12Z</time>
      </trkpt>
      <trkpt lat="44.62456" lon="-0.18428">
        <ele>68.5</ele>
        <time>2022-07-26T09:26:13Z</time>
      </trkpt>
      <trkpt lat="44.62457" lon="-0.18428">
        <ele>68.5</ele>
        <time>2022-07-26T09:26:14Z</time>
      </trkpt>
      <trkpt lat="44.62457" lon="-0.18428">
        <ele>68.5</ele>
        <time>2022-07-26T09:26:16Z</time>
      </trkpt>
      <trkpt lat="44.62457" lon="-0.18428">
        <ele>68.5</ele>
        <time>2022-07-26T09:26:17Z</time>
      </trkpt>
      <trkpt lat="44.62457" lon="-0.18427">
        <ele>68.5</ele>
        <time>2022-07-26T09:26:19Z</time>
      </trkpt>
      <trkpt lat="44.62457" lon="-0.18428">
        <ele>68.5</ele>
        <time>2022-07-26T09:26:20Z</time>
      </trkpt>
      <trkpt lat="44.62457" lon="-0.18428">
        <ele>68.7</ele>
        <time>2022-07-26T09:26:21Z</time>
      </trkpt>
      <trkpt lat="44.62458" lon="-0.18428">
        <ele>68.7</ele>
        <time>2022-07-26T09:26:22Z</time>
      </trkpt>
      <trkpt lat="44.62458" lon="-0.18429">
        <ele>68.7</ele>
        <time>2022-07-26T09:26:23Z</time>
      </trkpt>
      <trkpt lat="44.62458" lon="-0.1843">
        <ele>68.7</ele>
        <time>2022-07-26T09:26:24Z</time>
      </trkpt>
      <trkpt lat="44.62458" lon="-0.18431">
        <ele>68.7</ele>
        <time>2022-07-26T09:26:25Z</time>
      </trkpt>
      <trkpt lat="44.62459" lon="-0.18432">
        <ele>68.9</ele>
        <time>2022-07-26T09:26:26Z</time>
      </trkpt>
      <trkpt lat="44.6246" lon="-0.18433">
        <ele>68.9</ele>
        <time>2022-07-26T09:26:28Z</time>
      </trkpt>
      <trkpt lat="44.6246" lon="-0.18435">
        <ele>68.9</ele>
        <time>2022-07-26T09:26:29Z</time>
      </trkpt>
      <trkpt lat="44.62462" lon="-0.18437">
        <ele>69</ele>
        <time>2022-07-26T09:26:30Z</time>
      </trkpt>
      <trkpt lat="44.62462" lon="-0.18438">
        <ele>68.9</ele>
        <time>2022-07-26T09:26:31Z</time>
      </trkpt>
      <trkpt lat="44.62463" lon="-0.18439">
        <ele>68.8</ele>
        <time>2022-07-26T09:26:32Z</time>
      </trkpt>
      <trkpt lat="44.62463" lon="-0.18441">
        <ele>68.9</ele>
        <time>2022-07-26T09:26:33Z</time>
      </trkpt>
      <trkpt lat="44.62463" lon="-0.18442">
        <ele>68.8</ele>
        <time>2022-07-26T09:26:34Z</time>
      </trkpt>
      <trkpt lat="44.62463" lon="-0.18443">
        <ele>68.7</ele>
        <time>2022-07-26T09:26:35Z</time>
      </trkpt>
      <trkpt lat="44.62462" lon="-0.18443">
        <ele>68.6</ele>
        <time>2022-07-26T09:26:36Z</time>
      </trkpt>
      <trkpt lat="44.62462" lon="-0.18444">
        <ele>68.5</ele>
        <time>2022-07-26T09:26:37Z</time>
      </trkpt>
      <trkpt lat="44.62462" lon="-0.18445">
        <ele>68.4</ele>
        <time>2022-07-26T09:26:38Z</time>
      </trkpt>
      <trkpt lat="44.62462" lon="-0.18445">
        <ele>68.3</ele>
        <time>2022-07-26T09:26:39Z</time>
      </trkpt>
      <trkpt lat="44.62462" lon="-0.18445">
        <ele>68.2</ele>
        <time>2022-07-26T09:26:40Z</time>
      </trkpt>
      <trkpt lat="44.62462" lon="-0.18445">
        <ele>68.1</ele>
        <time>2022-07-26T09:26:41Z</time>
      </trkpt>
      <trkpt lat="44.62462" lon="-0.18445">
        <ele>68.2</ele>
        <time>2022-07-26T09:26:42Z</time>
      </trkpt>
      <trkpt lat="44.62462" lon="-0.18445">
        <ele>68.1</ele>
        <time>2022-07-26T09:26:43Z</time>
      </trkpt>
      <trkpt lat="44.62463" lon="-0.18445">
        <ele>68</ele>
        <time>2022-07-26T09:26:44Z</time>
      </trkpt>
      <trkpt lat="44.62463" lon="-0.18446">
        <ele>67.9</ele>
        <time>2022-07-26T09:26:45Z</time>
      </trkpt>
      <trkpt lat="44.62463" lon="-0.18446">
        <ele>67.8</ele>
        <time>2022-07-26T09:26:46Z</time>
      </trkpt>
      <trkpt lat="44.62463" lon="-0.18446">
        <ele>67.8</ele>
        <time>2022-07-26T09:26:47Z</time>
      </trkpt>
      <trkpt lat="44.62463" lon="-0.18447">
        <ele>67.7</ele>
        <time>2022-07-26T09:26:48Z</time>
      </trkpt>
      <trkpt lat="44.62463" lon="-0.18447">
        <ele>67.6</ele>
        <time>2022-07-26T09:26:49Z</time>
      </trkpt>
      <trkpt lat="44.62463" lon="-0.18447">
        <ele>67.5</ele>
        <time>2022-07-26T09:26:50Z</time>
      </trkpt>
      <trkpt lat="44.62463" lon="-0.18447">
        <ele>67.4</ele>
        <time>2022-07-26T09:26:51Z</time>
      </trkpt>
      <trkpt lat="44.62463" lon="-0.18447">
        <ele>67.3</ele>
        <time>2022-07-26T09:26:52Z</time>
      </trkpt>
      <trkpt lat="44.62463" lon="-0.18447">
        <ele>67.2</ele>
        <time>2022-07-26T09:26:53Z</time>
      </trkpt>
      <trkpt lat="44.62464" lon="-0.18448">
        <ele>67.1</ele>
        <time>2022-07-26T09:26:54Z</time>
      </trkpt>
      <trkpt lat="44.62464" lon="-0.18448">
        <ele>67</ele>
        <time>2022-07-26T09:26:55Z</time>
      </trkpt>
      <trkpt lat="44.62465" lon="-0.18448">
        <ele>66.9</ele>
        <time>2022-07-26T09:26:56Z</time>
      </trkpt>
      <trkpt lat="44.62465" lon="-0.18448">
        <ele>66.8</ele>
        <time>2022-07-26T09:26:57Z</time>
      </trkpt>
      <trkpt lat="44.62465" lon="-0.18448">
        <ele>66.7</ele>
        <time>2022-07-26T09:26:58Z</time>
      </trkpt>
      <trkpt lat="44.62465" lon="-0.18448">
        <ele>66.6</ele>
        <time>2022-07-26T09:26:59Z</time>
      </trkpt>
      <trkpt lat="44.62466" lon="-0.18449">
        <ele>66.4</ele>
        <time>2022-07-26T09:27:01Z</time>
      </trkpt>
      <trkpt lat="44.62467" lon="-0.1845">
        <ele>66.5</ele>
        <time>2022-07-26T09:27:02Z</time>
      </trkpt>
      <trkpt lat="44.62468" lon="-0.18451">
        <ele>66.4</ele>
        <time>2022-07-26T09:27:03Z</time>
      </trkpt>
      <trkpt lat="44.62469" lon="-0.18453">
        <ele>66.3</ele>
        <time>2022-07-26T09:27:05Z</time>
      </trkpt>
      <trkpt lat="44.6247" lon="-0.18453">
        <ele>66.2</ele>
        <time>2022-07-26T09:27:06Z</time>
      </trkpt>
      <trkpt lat="44.62472" lon="-0.18455">
        <ele>66.2</ele>
        <time>2022-07-26T09:27:07Z</time>
      </trkpt>
      <trkpt lat="44.62473" lon="-0.18456">
        <ele>66.1</ele>
        <time>2022-07-26T09:27:08Z</time>
      </trkpt>
      <trkpt lat="44.62475" lon="-0.18457">
        <ele>66</ele>
        <time>2022-07-26T09:27:10Z</time>
      </trkpt>
      <trkpt lat="44.62476" lon="-0.18459">
        <ele>66</ele>
        <time>2022-07-26T09:27:11Z</time>
      </trkpt>
      <trkpt lat="44.62477" lon="-0.1846">
        <ele>65.9</ele>
        <time>2022-07-26T09:27:12Z</time>
      </trkpt>
      <trkpt lat="44.62479" lon="-0.18463">
        <ele>66</ele>
        <time>2022-07-26T09:27:13Z</time>
      </trkpt>
      <trkpt lat="44.62479" lon="-0.18464">
        <ele>65.9</ele>
        <time>2022-07-26T09:27:14Z</time>
      </trkpt>
      <trkpt lat="44.6248" lon="-0.18466">
        <ele>65.8</ele>
        <time>2022-07-26T09:27:15Z</time>
      </trkpt>
      <trkpt lat="44.62481" lon="-0.18468">
        <ele>65.9</ele>
        <time>2022-07-26T09:27:17Z</time>
      </trkpt>
      <trkpt lat="44.62482" lon="-0.18471">
        <ele>65.8</ele>
        <time>2022-07-26T09:27:18Z</time>
      </trkpt>
      <trkpt lat="44.62483" lon="-0.18473">
        <ele>65.8</ele>
        <time>2022-07-26T09:27:20Z</time>
      </trkpt>
      <trkpt lat="44.62484" lon="-0.18475">
        <ele>65.9</ele>
        <time>2022-07-26T09:27:21Z</time>
      </trkpt>
      <trkpt lat="44.62485" lon="-0.18477">
        <ele>65.8</ele>
        <time>2022-07-26T09:27:22Z</time>
      </trkpt>
      <trkpt lat="44.62487" lon="-0.18479">
        <ele>65.7</ele>
        <time>2022-07-26T09:27:23Z</time>
      </trkpt>
      <trkpt lat="44.62488" lon="-0.1848">
        <ele>65.8</ele>
        <time>2022-07-26T09:27:25Z</time>
      </trkpt>
      <trkpt lat="44.62489" lon="-0.18481">
        <ele>65.7</ele>
        <time>2022-07-26T09:27:26Z</time>
      </trkpt>
      <trkpt lat="44.6249" lon="-0.18482">
        <ele>65.6</ele>
        <time>2022-07-26T09:27:27Z</time>
      </trkpt>
      <trkpt lat="44.62491" lon="-0.18483">
        <ele>65.5</ele>
        <time>2022-07-26T09:27:28Z</time>
      </trkpt>
      <trkpt lat="44.62492" lon="-0.18485">
        <ele>65.6</ele>
        <time>2022-07-26T09:27:29Z</time>
      </trkpt>
      <trkpt lat="44.62493" lon="-0.18486">
        <ele>65.5</ele>
        <time>2022-07-26T09:27:31Z</time>
      </trkpt>
      <trkpt lat="44.62493" lon="-0.18487">
        <ele>65.4</ele>
        <time>2022-07-26T09:27:32Z</time>
      </trkpt>
      <trkpt lat="44.62495" lon="-0.18489">
        <ele>65.4</ele>
        <time>2022-07-26T09:27:33Z</time>
      </trkpt>
      <trkpt lat="44.62495" lon="-0.1849">
        <ele>65.3</ele>
        <time>2022-07-26T09:27:34Z</time>
      </trkpt>
      <trkpt lat="44.62496" lon="-0.18491">
        <ele>65.2</ele>
        <time>2022-07-26T09:27:35Z</time>
      </trkpt>
      <trkpt lat="44.62496" lon="-0.18492">
        <ele>65.1</ele>
        <time>2022-07-26T09:27:36Z</time>
      </trkpt>
      <trkpt lat="44.62497" lon="-0.18493">
        <ele>65.2</ele>
        <time>2022-07-26T09:27:37Z</time>
      </trkpt>
      <trkpt lat="44.62497" lon="-0.18496">
        <ele>65.1</ele>
        <time>2022-07-26T09:27:39Z</time>
      </trkpt>
      <trkpt lat="44.62499" lon="-0.18498">
        <ele>65.1</ele>
        <time>2022-07-26T09:27:40Z</time>
      </trkpt>
      <trkpt lat="44.62499" lon="-0.18499">
        <ele>65</ele>
        <time>2022-07-26T09:27:41Z</time>
      </trkpt>
      <trkpt lat="44.625" lon="-0.185">
        <ele>64.9</ele>
        <time>2022-07-26T09:27:42Z</time>
      </trkpt>
      <trkpt lat="44.62501" lon="-0.18502">
        <ele>64.9</ele>
        <time>2022-07-26T09:27:43Z</time>
      </trkpt>
      <trkpt lat="44.62502" lon="-0.18503">
        <ele>64.8</ele>
        <time>2022-07-26T09:27:44Z</time>
      </trkpt>
      <trkpt lat="44.62503" lon="-0.18505">
        <ele>64.7</ele>
        <time>2022-07-26T09:27:45Z</time>
      </trkpt>
      <trkpt lat="44.62503" lon="-0.18506">
        <ele>64.8</ele>
        <time>2022-07-26T09:27:47Z</time>
      </trkpt>
      <trkpt lat="44.62504" lon="-0.18508">
        <ele>64.7</ele>
        <time>2022-07-26T09:27:48Z</time>
      </trkpt>
      <trkpt lat="44.62505" lon="-0.18509">
        <ele>64.7</ele>
        <time>2022-07-26T09:27:49Z</time>
      </trkpt>
      <trkpt lat="44.62506" lon="-0.18512">
        <ele>64.6</ele>
        <time>2022-07-26T09:27:50Z</time>
      </trkpt>
      <trkpt lat="44.62506" lon="-0.18513">
        <ele>64.5</ele>
        <time>2022-07-26T09:27:51Z</time>
      </trkpt>
      <trkpt lat="44.62506" lon="-0.18515">
        <ele>64.6</ele>
        <time>2022-07-26T09:27:52Z</time>
      </trkpt>
      <trkpt lat="44.62506" lon="-0.18516">
        <ele>64.5</ele>
        <time>2022-07-26T09:27:53Z</time>
      </trkpt>
      <trkpt lat="44.62507" lon="-0.18517">
        <ele>64.4</ele>
        <time>2022-07-26T09:27:54Z</time>
      </trkpt>
      <trkpt lat="44.62507" lon="-0.18519">
        <ele>64.4</ele>
        <time>2022-07-26T09:27:55Z</time>
      </trkpt>
      <trkpt lat="44.62508" lon="-0.18522">
        <ele>64.3</ele>
        <time>2022-07-26T09:27:56Z</time>
      </trkpt>
      <trkpt lat="44.62508" lon="-0.18523">
        <ele>64.3</ele>
        <time>2022-07-26T09:27:57Z</time>
      </trkpt>
      <trkpt lat="44.62509" lon="-0.18524">
        <ele>64.2</ele>
        <time>2022-07-26T09:27:58Z</time>
      </trkpt>
      <trkpt lat="44.62509" lon="-0.18526">
        <ele>64.1</ele>
        <time>2022-07-26T09:27:59Z</time>
      </trkpt>
      <trkpt lat="44.62509" lon="-0.18527">
        <ele>64.1</ele>
        <time>2022-07-26T09:28:00Z</time>
      </trkpt>
      <trkpt lat="44.6251" lon="-0.18529">
        <ele>64</ele>
        <time>2022-07-26T09:28:02Z</time>
      </trkpt>
      <trkpt lat="44.6251" lon="-0.18532">
        <ele>64.1</ele>
        <time>2022-07-26T09:28:03Z</time>
      </trkpt>
      <trkpt lat="44.62511" lon="-0.18533">
        <ele>64</ele>
        <time>2022-07-26T09:28:04Z</time>
      </trkpt>
      <trkpt lat="44.62511" lon="-0.18534">
        <ele>63.9</ele>
        <time>2022-07-26T09:28:05Z</time>
      </trkpt>
      <trkpt lat="44.62511" lon="-0.18536">
        <ele>64</ele>
        <time>2022-07-26T09:28:06Z</time>
      </trkpt>
      <trkpt lat="44.62512" lon="-0.18537">
        <ele>63.8</ele>
        <time>2022-07-26T09:28:07Z</time>
      </trkpt>
      <trkpt lat="44.62512" lon="-0.18539">
        <ele>63.7</ele>
        <time>2022-07-26T09:28:08Z</time>
      </trkpt>
      <trkpt lat="44.62512" lon="-0.18542">
        <ele>63.8</ele>
        <time>2022-07-26T09:28:09Z</time>
      </trkpt>
      <trkpt lat="44.62513" lon="-0.18543">
        <ele>63.7</ele>
        <time>2022-07-26T09:28:10Z</time>
      </trkpt>
      <trkpt lat="44.62513" lon="-0.18544">
        <ele>63.7</ele>
        <time>2022-07-26T09:28:11Z</time>
      </trkpt>
      <trkpt lat="44.62514" lon="-0.18547">
        <ele>63.6</ele>
        <time>2022-07-26T09:28:12Z</time>
      </trkpt>
      <trkpt lat="44.62514" lon="-0.18548">
        <ele>63.5</ele>
        <time>2022-07-26T09:28:13Z</time>
      </trkpt>
      <trkpt lat="44.62514" lon="-0.18549">
        <ele>63.5</ele>
        <time>2022-07-26T09:28:14Z</time>
      </trkpt>
      <trkpt lat="44.62514" lon="-0.18551">
        <ele>63.4</ele>
        <time>2022-07-26T09:28:15Z</time>
      </trkpt>
      <trkpt lat="44.62515" lon="-0.18553">
        <ele>63.4</ele>
        <time>2022-07-26T09:28:16Z</time>
      </trkpt>
      <trkpt lat="44.62515" lon="-0.18555">
        <ele>63.3</ele>
        <time>2022-07-26T09:28:18Z</time>
      </trkpt>
      <trkpt lat="44.62515" lon="-0.18557">
        <ele>63.3</ele>
        <time>2022-07-26T09:28:19Z</time>
      </trkpt>
      <trkpt lat="44.62516" lon="-0.18558">
        <ele>63.2</ele>
        <time>2022-07-26T09:28:20Z</time>
      </trkpt>
      <trkpt lat="44.62516" lon="-0.1856">
        <ele>63.1</ele>
        <time>2022-07-26T09:28:21Z</time>
      </trkpt>
      <trkpt lat="44.62516" lon="-0.18562">
        <ele>63.2</ele>
        <time>2022-07-26T09:28:23Z</time>
      </trkpt>
      <trkpt lat="44.62516" lon="-0.18564">
        <ele>63.2</ele>
        <time>2022-07-26T09:28:24Z</time>
      </trkpt>
      <trkpt lat="44.62516" lon="-0.18565">
        <ele>63.2</ele>
        <time>2022-07-26T09:28:25Z</time>
      </trkpt>
      <trkpt lat="44.62517" lon="-0.18567">
        <ele>63.4</ele>
        <time>2022-07-26T09:28:26Z</time>
      </trkpt>
      <trkpt lat="44.62517" lon="-0.18568">
        <ele>63.4</ele>
        <time>2022-07-26T09:28:27Z</time>
      </trkpt>
      <trkpt lat="44.62518" lon="-0.18569">
        <ele>63.4</ele>
        <time>2022-07-26T09:28:28Z</time>
      </trkpt>
      <trkpt lat="44.62518" lon="-0.1857">
        <ele>63.4</ele>
        <time>2022-07-26T09:28:29Z</time>
      </trkpt>
      <trkpt lat="44.62518" lon="-0.18571">
        <ele>63.4</ele>
        <time>2022-07-26T09:28:30Z</time>
      </trkpt>
      <trkpt lat="44.62519" lon="-0.18572">
        <ele>63.4</ele>
        <time>2022-07-26T09:28:31Z</time>
      </trkpt>
      <trkpt lat="44.62519" lon="-0.18574">
        <ele>63.4</ele>
        <time>2022-07-26T09:28:32Z</time>
      </trkpt>
      <trkpt lat="44.6252" lon="-0.18575">
        <ele>63.6</ele>
        <time>2022-07-26T09:28:34Z</time>
      </trkpt>
      <trkpt lat="44.62521" lon="-0.18577">
        <ele>63.5</ele>
        <time>2022-07-26T09:28:35Z</time>
      </trkpt>
      <trkpt lat="44.62522" lon="-0.1858">
        <ele>63.6</ele>
        <time>2022-07-26T09:28:36Z</time>
      </trkpt>
      <trkpt lat="44.62521" lon="-0.18581">
        <ele>63.6</ele>
        <time>2022-07-26T09:28:37Z</time>
      </trkpt>
      <trkpt lat="44.62521" lon="-0.18582">
        <ele>63.6</ele>
        <time>2022-07-26T09:28:38Z</time>
      </trkpt>
      <trkpt lat="44.62521" lon="-0.18584">
        <ele>63.7</ele>
        <time>2022-07-26T09:28:40Z</time>
      </trkpt>
      <trkpt lat="44.62521" lon="-0.18586">
        <ele>63.7</ele>
        <time>2022-07-26T09:28:41Z</time>
      </trkpt>
      <trkpt lat="44.6252" lon="-0.18588">
        <ele>63.9</ele>
        <time>2022-07-26T09:28:42Z</time>
      </trkpt>
      <trkpt lat="44.6252" lon="-0.1859">
        <ele>63.9</ele>
        <time>2022-07-26T09:28:43Z</time>
      </trkpt>
      <trkpt lat="44.6252" lon="-0.18592">
        <ele>64</ele>
        <time>2022-07-26T09:28:44Z</time>
      </trkpt>
      <trkpt lat="44.62519" lon="-0.18594">
        <ele>64</ele>
        <time>2022-07-26T09:28:45Z</time>
      </trkpt>
      <trkpt lat="44.62517" lon="-0.18593">
        <ele>64</ele>
        <time>2022-07-26T09:28:46Z</time>
      </trkpt>
      <trkpt lat="44.62515" lon="-0.18593">
        <ele>64</ele>
        <time>2022-07-26T09:28:48Z</time>
      </trkpt>
      <trkpt lat="44.62512" lon="-0.18592">
        <ele>64.1</ele>
        <time>2022-07-26T09:28:49Z</time>
      </trkpt>
      <trkpt lat="44.62512" lon="-0.18591">
        <ele>64.1</ele>
        <time>2022-07-26T09:28:50Z</time>
      </trkpt>
      <trkpt lat="44.62509" lon="-0.18589">
        <ele>64</ele>
        <time>2022-07-26T09:28:52Z</time>
      </trkpt>
      <trkpt lat="44.62508" lon="-0.18588">
        <ele>64.1</ele>
        <time>2022-07-26T09:28:53Z</time>
      </trkpt>
      <trkpt lat="44.62508" lon="-0.18587">
        <ele>64.1</ele>
        <time>2022-07-26T09:28:54Z</time>
      </trkpt>
      <trkpt lat="44.62507" lon="-0.18586">
        <ele>64</ele>
        <time>2022-07-26T09:28:55Z</time>
      </trkpt>
      <trkpt lat="44.62507" lon="-0.18584">
        <ele>64</ele>
        <time>2022-07-26T09:28:56Z</time>
      </trkpt>
      <trkpt lat="44.62506" lon="-0.18583">
        <ele>64</ele>
        <time>2022-07-26T09:28:57Z</time>
      </trkpt>
      <trkpt lat="44.62505" lon="-0.18581">
        <ele>63.9</ele>
        <time>2022-07-26T09:28:58Z</time>
      </trkpt>
      <trkpt lat="44.62502" lon="-0.18578">
        <ele>63.9</ele>
        <time>2022-07-26T09:29:00Z</time>
      </trkpt>
      <trkpt lat="44.62502" lon="-0.18577">
        <ele>63.9</ele>
        <time>2022-07-26T09:29:01Z</time>
      </trkpt>
      <trkpt lat="44.62499" lon="-0.18575">
        <ele>63.9</ele>
        <time>2022-07-26T09:29:02Z</time>
      </trkpt>
      <trkpt lat="44.62498" lon="-0.18574">
        <ele>63.9</ele>
        <time>2022-07-26T09:29:03Z</time>
      </trkpt>
      <trkpt lat="44.62495" lon="-0.1857">
        <ele>63.9</ele>
        <time>2022-07-26T09:29:05Z</time>
      </trkpt>
      <trkpt lat="44.62495" lon="-0.18569">
        <ele>63.7</ele>
        <time>2022-07-26T09:29:06Z</time>
      </trkpt>
      <trkpt lat="44.62494" lon="-0.18568">
        <ele>63.7</ele>
        <time>2022-07-26T09:29:07Z</time>
      </trkpt>
      <trkpt lat="44.62493" lon="-0.18567">
        <ele>63.7</ele>
        <time>2022-07-26T09:29:08Z</time>
      </trkpt>
      <trkpt lat="44.62492" lon="-0.18565">
        <ele>63.8</ele>
        <time>2022-07-26T09:29:09Z</time>
      </trkpt>
      <trkpt lat="44.62492" lon="-0.18563">
        <ele>63.6</ele>
        <time>2022-07-26T09:29:10Z</time>
      </trkpt>
      <trkpt lat="44.62491" lon="-0.18562">
        <ele>63.6</ele>
        <time>2022-07-26T09:29:11Z</time>
      </trkpt>
      <trkpt lat="44.6249" lon="-0.1856">
        <ele>63.5</ele>
        <time>2022-07-26T09:29:12Z</time>
      </trkpt>
      <trkpt lat="44.62489" lon="-0.18556">
        <ele>63.4</ele>
        <time>2022-07-26T09:29:14Z</time>
      </trkpt>
      <trkpt lat="44.62489" lon="-0.18555">
        <ele>63.4</ele>
        <time>2022-07-26T09:29:15Z</time>
      </trkpt>
      <trkpt lat="44.62488" lon="-0.1855">
        <ele>63.2</ele>
        <time>2022-07-26T09:29:17Z</time>
      </trkpt>
      <trkpt lat="44.62488" lon="-0.18549">
        <ele>63.2</ele>
        <time>2022-07-26T09:29:18Z</time>
      </trkpt>
      <trkpt lat="44.62487" lon="-0.18547">
        <ele>63.1</ele>
        <time>2022-07-26T09:29:19Z</time>
      </trkpt>
      <trkpt lat="44.62486" lon="-0.18544">
        <ele>63.1</ele>
        <time>2022-07-26T09:29:21Z</time>
      </trkpt>
      <trkpt lat="44.62486" lon="-0.18542">
        <ele>63</ele>
        <time>2022-07-26T09:29:22Z</time>
      </trkpt>
      <trkpt lat="44.62486" lon="-0.18539">
        <ele>62.8</ele>
        <time>2022-07-26T09:29:23Z</time>
      </trkpt>
      <trkpt lat="44.62486" lon="-0.18537">
        <ele>62.8</ele>
        <time>2022-07-26T09:29:24Z</time>
      </trkpt>
      <trkpt lat="44.62486" lon="-0.18534">
        <ele>62.7</ele>
        <time>2022-07-26T09:29:25Z</time>
      </trkpt>
      <trkpt lat="44.62486" lon="-0.18531">
        <ele>62.6</ele>
        <time>2022-07-26T09:29:27Z</time>
      </trkpt>
      <trkpt lat="44.62486" lon="-0.18528">
        <ele>62.6</ele>
        <time>2022-07-26T09:29:28Z</time>
      </trkpt>
      <trkpt lat="44.62486" lon="-0.18525">
        <ele>62.4</ele>
        <time>2022-07-26T09:29:30Z</time>
      </trkpt>
      <trkpt lat="44.62485" lon="-0.18524">
        <ele>62.4</ele>
        <time>2022-07-26T09:29:31Z</time>
      </trkpt>
      <trkpt lat="44.62485" lon="-0.18522">
        <ele>62.2</ele>
        <time>2022-07-26T09:29:32Z</time>
      </trkpt>
      <trkpt lat="44.62483" lon="-0.18519">
        <ele>62.3</ele>
        <time>2022-07-26T09:29:33Z</time>
      </trkpt>
      <trkpt lat="44.62483" lon="-0.18518">
        <ele>62.3</ele>
        <time>2022-07-26T09:29:34Z</time>
      </trkpt>
      <trkpt lat="44.62483" lon="-0.18517">
        <ele>62.1</ele>
        <time>2022-07-26T09:29:35Z</time>
      </trkpt>
      <trkpt lat="44.62482" lon="-0.18515">
        <ele>62.1</ele>
        <time>2022-07-26T09:29:36Z</time>
      </trkpt>
      <trkpt lat="44.62481" lon="-0.18512">
        <ele>62</ele>
        <time>2022-07-26T09:29:38Z</time>
      </trkpt>
      <trkpt lat="44.6248" lon="-0.1851">
        <ele>62</ele>
        <time>2022-07-26T09:29:39Z</time>
      </trkpt>
      <trkpt lat="44.6248" lon="-0.18509">
        <ele>61.8</ele>
        <time>2022-07-26T09:29:40Z</time>
      </trkpt>
      <trkpt lat="44.62479" lon="-0.18508">
        <ele>61.8</ele>
        <time>2022-07-26T09:29:41Z</time>
      </trkpt>
      <trkpt lat="44.62479" lon="-0.18506">
        <ele>61.8</ele>
        <time>2022-07-26T09:29:42Z</time>
      </trkpt>
      <trkpt lat="44.62478" lon="-0.18503">
        <ele>61.7</ele>
        <time>2022-07-26T09:29:44Z</time>
      </trkpt>
      <trkpt lat="44.62477" lon="-0.185">
        <ele>61.6</ele>
        <time>2022-07-26T09:29:45Z</time>
      </trkpt>
      <trkpt lat="44.62477" lon="-0.18499">
        <ele>61.6</ele>
        <time>2022-07-26T09:29:46Z</time>
      </trkpt>
      <trkpt lat="44.62476" lon="-0.18498">
        <ele>61.6</ele>
        <time>2022-07-26T09:29:47Z</time>
      </trkpt>
      <trkpt lat="44.62476" lon="-0.18497">
        <ele>61.6</ele>
        <time>2022-07-26T09:29:48Z</time>
      </trkpt>
      <trkpt lat="44.62475" lon="-0.18495">
        <ele>61.4</ele>
        <time>2022-07-26T09:29:49Z</time>
      </trkpt>
      <trkpt lat="44.62474" lon="-0.18493">
        <ele>61.5</ele>
        <time>2022-07-26T09:29:51Z</time>
      </trkpt>
      <trkpt lat="44.62474" lon="-0.18491">
        <ele>61.3</ele>
        <time>2022-07-26T09:29:52Z</time>
      </trkpt>
      <trkpt lat="44.62473" lon="-0.18489">
        <ele>61.3</ele>
        <time>2022-07-26T09:29:53Z</time>
      </trkpt>
      <trkpt lat="44.62472" lon="-0.18488">
        <ele>61.1</ele>
        <time>2022-07-26T09:29:54Z</time>
      </trkpt>
      <trkpt lat="44.62472" lon="-0.18486">
        <ele>61.1</ele>
        <time>2022-07-26T09:29:55Z</time>
      </trkpt>
      <trkpt lat="44.62471" lon="-0.18483">
        <ele>61</ele>
        <time>2022-07-26T09:29:57Z</time>
      </trkpt>
      <trkpt lat="44.6247" lon="-0.18481">
        <ele>61</ele>
        <time>2022-07-26T09:29:58Z</time>
      </trkpt>
      <trkpt lat="44.6247" lon="-0.18479">
        <ele>61</ele>
        <time>2022-07-26T09:29:59Z</time>
      </trkpt>
      <trkpt lat="44.62469" lon="-0.18478">
        <ele>60.8</ele>
        <time>2022-07-26T09:30:00Z</time>
      </trkpt>
      <trkpt lat="44.62469" lon="-0.18476">
        <ele>60.8</ele>
        <time>2022-07-26T09:30:01Z</time>
      </trkpt>
      <trkpt lat="44.62468" lon="-0.18474">
        <ele>60.7</ele>
        <time>2022-07-26T09:30:03Z</time>
      </trkpt>
      <trkpt lat="44.62467" lon="-0.18472">
        <ele>60.7</ele>
        <time>2022-07-26T09:30:04Z</time>
      </trkpt>
      <trkpt lat="44.62467" lon="-0.18471">
        <ele>60.5</ele>
        <time>2022-07-26T09:30:05Z</time>
      </trkpt>
      <trkpt lat="44.62467" lon="-0.18469">
        <ele>60.5</ele>
        <time>2022-07-26T09:30:06Z</time>
      </trkpt>
      <trkpt lat="44.62467" lon="-0.18467">
        <ele>60.5</ele>
        <time>2022-07-26T09:30:07Z</time>
      </trkpt>
      <trkpt lat="44.62466" lon="-0.18466">
        <ele>60.3</ele>
        <time>2022-07-26T09:30:08Z</time>
      </trkpt>
      <trkpt lat="44.62466" lon="-0.18464">
        <ele>60.3</ele>
        <time>2022-07-26T09:30:09Z</time>
      </trkpt>
      <trkpt lat="44.62466" lon="-0.18462">
        <ele>60.4</ele>
        <time>2022-07-26T09:30:11Z</time>
      </trkpt>
      <trkpt lat="44.62465" lon="-0.18461">
        <ele>60.2</ele>
        <time>2022-07-26T09:30:12Z</time>
      </trkpt>
      <trkpt lat="44.62464" lon="-0.18458">
        <ele>60.2</ele>
        <time>2022-07-26T09:30:14Z</time>
      </trkpt>
      <trkpt lat="44.62463" lon="-0.18457">
        <ele>60</ele>
        <time>2022-07-26T09:30:15Z</time>
      </trkpt>
      <trkpt lat="44.62463" lon="-0.18454">
        <ele>60</ele>
        <time>2022-07-26T09:30:16Z</time>
      </trkpt>
      <trkpt lat="44.62462" lon="-0.18452">
        <ele>59.9</ele>
        <time>2022-07-26T09:30:18Z</time>
      </trkpt>
      <trkpt lat="44.62462" lon="-0.18451">
        <ele>59.9</ele>
        <time>2022-07-26T09:30:19Z</time>
      </trkpt>
      <trkpt lat="44.62461" lon="-0.18449">
        <ele>59.7</ele>
        <time>2022-07-26T09:30:20Z</time>
      </trkpt>
      <trkpt lat="44.62461" lon="-0.18447">
        <ele>59.7</ele>
        <time>2022-07-26T09:30:21Z</time>
      </trkpt>
      <trkpt lat="44.6246" lon="-0.18445">
        <ele>59.5</ele>
        <time>2022-07-26T09:30:23Z</time>
      </trkpt>
      <trkpt lat="44.62459" lon="-0.18443">
        <ele>59.6</ele>
        <time>2022-07-26T09:30:24Z</time>
      </trkpt>
      <trkpt lat="44.62459" lon="-0.18442">
        <ele>59.6</ele>
        <time>2022-07-26T09:30:25Z</time>
      </trkpt>
      <trkpt lat="44.62459" lon="-0.1844">
        <ele>59.4</ele>
        <time>2022-07-26T09:30:26Z</time>
      </trkpt>
      <trkpt lat="44.62458" lon="-0.18439">
        <ele>59.4</ele>
        <time>2022-07-26T09:30:27Z</time>
      </trkpt>
      <trkpt lat="44.62457" lon="-0.18435">
        <ele>59.2</ele>
        <time>2022-07-26T09:30:29Z</time>
      </trkpt>
      <trkpt lat="44.62457" lon="-0.18434">
        <ele>59.2</ele>
        <time>2022-07-26T09:30:31Z</time>
      </trkpt>
      <trkpt lat="44.62456" lon="-0.18432">
        <ele>59</ele>
        <time>2022-07-26T09:30:32Z</time>
      </trkpt>
      <trkpt lat="44.62456" lon="-0.1843">
        <ele>59</ele>
        <time>2022-07-26T09:30:33Z</time>
      </trkpt>
      <trkpt lat="44.62454" lon="-0.18428">
        <ele>59</ele>
        <time>2022-07-26T09:30:34Z</time>
      </trkpt>
      <trkpt lat="44.62454" lon="-0.18427">
        <ele>58.8</ele>
        <time>2022-07-26T09:30:35Z</time>
      </trkpt>
      <trkpt lat="44.62454" lon="-0.18426">
        <ele>58.8</ele>
        <time>2022-07-26T09:30:36Z</time>
      </trkpt>
      <trkpt lat="44.62453" lon="-0.18423">
        <ele>58.6</ele>
        <time>2022-07-26T09:30:38Z</time>
      </trkpt>
      <trkpt lat="44.62452" lon="-0.18422">
        <ele>58.6</ele>
        <time>2022-07-26T09:30:39Z</time>
      </trkpt>
      <trkpt lat="44.62452" lon="-0.18419">
        <ele>58.3</ele>
        <time>2022-07-26T09:30:40Z</time>
      </trkpt>
      <trkpt lat="44.62452" lon="-0.18417">
        <ele>58.3</ele>
        <time>2022-07-26T09:30:41Z</time>
      </trkpt>
      <trkpt lat="44.62453" lon="-0.18414">
        <ele>58.1</ele>
        <time>2022-07-26T09:30:43Z</time>
      </trkpt>
      <trkpt lat="44.62453" lon="-0.18413">
        <ele>58.1</ele>
        <time>2022-07-26T09:30:44Z</time>
      </trkpt>
      <trkpt lat="44.62453" lon="-0.18412">
        <ele>58.1</ele>
        <time>2022-07-26T09:30:45Z</time>
      </trkpt>
      <trkpt lat="44.62454" lon="-0.18411">
        <ele>58.1</ele>
        <time>2022-07-26T09:30:46Z</time>
      </trkpt>
      <trkpt lat="44.62454" lon="-0.18409">
        <ele>57.8</ele>
        <time>2022-07-26T09:30:47Z</time>
      </trkpt>
      <trkpt lat="44.62454" lon="-0.18407">
        <ele>57.8</ele>
        <time>2022-07-26T09:30:48Z</time>
      </trkpt>
      <trkpt lat="44.62454" lon="-0.18407">
        <ele>57.8</ele>
        <time>2022-07-26T09:30:49Z</time>
      </trkpt>
      <trkpt lat="44.62453" lon="-0.18407">
        <ele>57.8</ele>
        <time>2022-07-26T09:30:50Z</time>
      </trkpt>
      <trkpt lat="44.62453" lon="-0.18408">
        <ele>57.8</ele>
        <time>2022-07-26T09:30:51Z</time>
      </trkpt>
      <trkpt lat="44.62453" lon="-0.18408">
        <ele>57.8</ele>
        <time>2022-07-26T09:30:52Z</time>
      </trkpt>
      <trkpt lat="44.62453" lon="-0.18408">
        <ele>57.8</ele>
        <time>2022-07-26T09:30:53Z</time>
      </trkpt>
      <trkpt lat="44.62453" lon="-0.18409">
        <ele>57.8</ele>
        <time>2022-07-26T09:30:54Z</time>
      </trkpt>
      <trkpt lat="44.62453" lon="-0.18409">
        <ele>57.8</ele>
        <time>2022-07-26T09:30:55Z</time>
      </trkpt>
      <trkpt lat="44.62453" lon="-0.18409">
        <ele>57.8</ele>
        <time>2022-07-26T09:30:56Z</time>
      </trkpt>
      <trkpt lat="44.62453" lon="-0.18409">
        <ele>57.8</ele>
        <time>2022-07-26T09:30:57Z</time>
      </trkpt>
      <trkpt lat="44.62452" lon="-0.18409">
        <ele>57.8</ele>
        <time>2022-07-26T09:30:58Z</time>
      </trkpt>
      <trkpt lat="44.62452" lon="-0.1841">
        <ele>57.8</ele>
        <time>2022-07-26T09:30:59Z</time>
      </trkpt>
      <trkpt lat="44.62451" lon="-0.1841">
        <ele>57.8</ele>
        <time>2022-07-26T09:31:00Z</time>
      </trkpt>
      <trkpt lat="44.6245" lon="-0.1841">
        <ele>57.9</ele>
        <time>2022-07-26T09:31:01Z</time>
      </trkpt>
      <trkpt lat="44.62449" lon="-0.1841">
        <ele>57.9</ele>
        <time>2022-07-26T09:31:02Z</time>
      </trkpt>
      <trkpt lat="44.62448" lon="-0.1841">
        <ele>57.9</ele>
        <time>2022-07-26T09:31:03Z</time>
      </trkpt>
      <trkpt lat="44.62446" lon="-0.1841">
        <ele>57.9</ele>
        <time>2022-07-26T09:31:05Z</time>
      </trkpt>
      <trkpt lat="44.62444" lon="-0.1841">
        <ele>57.9</ele>
        <time>2022-07-26T09:31:06Z</time>
      </trkpt>
      <trkpt lat="44.62443" lon="-0.1841">
        <ele>57.9</ele>
        <time>2022-07-26T09:31:07Z</time>
      </trkpt>
      <trkpt lat="44.62441" lon="-0.18409">
        <ele>57.9</ele>
        <time>2022-07-26T09:31:08Z</time>
      </trkpt>
      <trkpt lat="44.6244" lon="-0.18408">
        <ele>57.9</ele>
        <time>2022-07-26T09:31:09Z</time>
      </trkpt>
      <trkpt lat="44.62439" lon="-0.18407">
        <ele>57.9</ele>
        <time>2022-07-26T09:31:10Z</time>
      </trkpt>
      <trkpt lat="44.62438" lon="-0.18405">
        <ele>57.6</ele>
        <time>2022-07-26T09:31:12Z</time>
      </trkpt>
      <trkpt lat="44.62438" lon="-0.18403">
        <ele>57.6</ele>
        <time>2022-07-26T09:31:13Z</time>
      </trkpt>
      <trkpt lat="44.62437" lon="-0.18401">
        <ele>57.4</ele>
        <time>2022-07-26T09:31:14Z</time>
      </trkpt>
      <trkpt lat="44.62436" lon="-0.18398">
        <ele>57.4</ele>
        <time>2022-07-26T09:31:15Z</time>
      </trkpt>
      <trkpt lat="44.62436" lon="-0.18398">
        <ele>57.1</ele>
        <time>2022-07-26T09:31:16Z</time>
      </trkpt>
      <trkpt lat="44.62436" lon="-0.18397">
        <ele>57.1</ele>
        <time>2022-07-26T09:31:17Z</time>
      </trkpt>
      <trkpt lat="44.62435" lon="-0.18394">
        <ele>57.1</ele>
        <time>2022-07-26T09:31:19Z</time>
      </trkpt>
      <trkpt lat="44.62434" lon="-0.18393">
        <ele>56.8</ele>
        <time>2022-07-26T09:31:20Z</time>
      </trkpt>
      <trkpt lat="44.62434" lon="-0.18392">
        <ele>56.8</ele>
        <time>2022-07-26T09:31:21Z</time>
      </trkpt>
      <trkpt lat="44.62433" lon="-0.18391">
        <ele>56.8</ele>
        <time>2022-07-26T09:31:22Z</time>
      </trkpt>
      <trkpt lat="44.62432" lon="-0.1839">
        <ele>56.8</ele>
        <time>2022-07-26T09:31:23Z</time>
      </trkpt>
      <trkpt lat="44.62432" lon="-0.1839">
        <ele>56.8</ele>
        <time>2022-07-26T09:31:24Z</time>
      </trkpt>
      <trkpt lat="44.62431" lon="-0.18389">
        <ele>56.5</ele>
        <time>2022-07-26T09:31:25Z</time>
      </trkpt>
      <trkpt lat="44.6243" lon="-0.18388">
        <ele>56.5</ele>
        <time>2022-07-26T09:31:27Z</time>
      </trkpt>
      <trkpt lat="44.6243" lon="-0.18387">
        <ele>56.5</ele>
        <time>2022-07-26T09:31:28Z</time>
      </trkpt>
      <trkpt lat="44.62429" lon="-0.18387">
        <ele>56.5</ele>
        <time>2022-07-26T09:31:29Z</time>
      </trkpt>
      <trkpt lat="44.62428" lon="-0.18386">
        <ele>56.5</ele>
        <time>2022-07-26T09:31:30Z</time>
      </trkpt>
      <trkpt lat="44.62428" lon="-0.18386">
        <ele>56.5</ele>
        <time>2022-07-26T09:31:31Z</time>
      </trkpt>
      <trkpt lat="44.62428" lon="-0.18385">
        <ele>56.2</ele>
        <time>2022-07-26T09:31:32Z</time>
      </trkpt>
      <trkpt lat="44.62428" lon="-0.18384">
        <ele>56.2</ele>
        <time>2022-07-26T09:31:33Z</time>
      </trkpt>
      <trkpt lat="44.62428" lon="-0.18384">
        <ele>56.2</ele>
        <time>2022-07-26T09:31:34Z</time>
      </trkpt>
      <trkpt lat="44.62428" lon="-0.18383">
        <ele>56.2</ele>
        <time>2022-07-26T09:31:35Z</time>
      </trkpt>
      <trkpt lat="44.62428" lon="-0.18383">
        <ele>56.2</ele>
        <time>2022-07-26T09:31:36Z</time>
      </trkpt>
      <trkpt lat="44.62428" lon="-0.18383">
        <ele>56.2</ele>
        <time>2022-07-26T09:31:37Z</time>
      </trkpt>
      <trkpt lat="44.62429" lon="-0.18384">
        <ele>56.2</ele>
        <time>2022-07-26T09:31:38Z</time>
      </trkpt>
      <trkpt lat="44.62429" lon="-0.18384">
        <ele>56.2</ele>
        <time>2022-07-26T09:31:39Z</time>
      </trkpt>
      <trkpt lat="44.62429" lon="-0.18384">
        <ele>56.2</ele>
        <time>2022-07-26T09:31:40Z</time>
      </trkpt>
      <trkpt lat="44.62429" lon="-0.18384">
        <ele>56.2</ele>
        <time>2022-07-26T09:31:41Z</time>
      </trkpt>
      <trkpt lat="44.62429" lon="-0.18384">
        <ele>56.2</ele>
        <time>2022-07-26T09:31:42Z</time>
      </trkpt>
      <trkpt lat="44.62429" lon="-0.18385">
        <ele>56.2</ele>
        <time>2022-07-26T09:31:43Z</time>
      </trkpt>
      <trkpt lat="44.62429" lon="-0.18385">
        <ele>56.2</ele>
        <time>2022-07-26T09:31:44Z</time>
      </trkpt>
      <trkpt lat="44.62429" lon="-0.18385">
        <ele>56.5</ele>
        <time>2022-07-26T09:31:45Z</time>
      </trkpt>
      <trkpt lat="44.62429" lon="-0.18386">
        <ele>56.5</ele>
        <time>2022-07-26T09:31:46Z</time>
      </trkpt>
      <trkpt lat="44.62429" lon="-0.18386">
        <ele>56.5</ele>
        <time>2022-07-26T09:31:47Z</time>
      </trkpt>
      <trkpt lat="44.6243" lon="-0.18387">
        <ele>56.5</ele>
        <time>2022-07-26T09:31:48Z</time>
      </trkpt>
      <trkpt lat="44.6243" lon="-0.18387">
        <ele>56.5</ele>
        <time>2022-07-26T09:31:49Z</time>
      </trkpt>
      <trkpt lat="44.6243" lon="-0.18389">
        <ele>56.5</ele>
        <time>2022-07-26T09:31:50Z</time>
      </trkpt>
      <trkpt lat="44.62431" lon="-0.18391">
        <ele>56.8</ele>
        <time>2022-07-26T09:31:51Z</time>
      </trkpt>
      <trkpt lat="44.62432" lon="-0.18393">
        <ele>56.8</ele>
        <time>2022-07-26T09:31:52Z</time>
      </trkpt>
      <trkpt lat="44.62433" lon="-0.18395">
        <ele>57.1</ele>
        <time>2022-07-26T09:31:53Z</time>
      </trkpt>
      <trkpt lat="44.62434" lon="-0.18398">
        <ele>57.1</ele>
        <time>2022-07-26T09:31:55Z</time>
      </trkpt>
      <trkpt lat="44.62436" lon="-0.18401">
        <ele>57.4</ele>
        <time>2022-07-26T09:31:56Z</time>
      </trkpt>
      <trkpt lat="44.62436" lon="-0.18402">
        <ele>57.6</ele>
        <time>2022-07-26T09:31:57Z</time>
      </trkpt>
      <trkpt lat="44.62437" lon="-0.18403">
        <ele>57.6</ele>
        <time>2022-07-26T09:31:58Z</time>
      </trkpt>
      <trkpt lat="44.62437" lon="-0.18405">
        <ele>57.6</ele>
        <time>2022-07-26T09:31:59Z</time>
      </trkpt>
      <trkpt lat="44.62438" lon="-0.18406">
        <ele>57.9</ele>
        <time>2022-07-26T09:32:00Z</time>
      </trkpt>
      <trkpt lat="44.62441" lon="-0.1841">
        <ele>57.9</ele>
        <time>2022-07-26T09:32:01Z</time>
      </trkpt>
      <trkpt lat="44.62442" lon="-0.18411">
        <ele>58.1</ele>
        <time>2022-07-26T09:32:03Z</time>
      </trkpt>
      <trkpt lat="44.62443" lon="-0.18412">
        <ele>58.1</ele>
        <time>2022-07-26T09:32:05Z</time>
      </trkpt>
      <trkpt lat="44.62444" lon="-0.18413">
        <ele>58.1</ele>
        <time>2022-07-26T09:32:06Z</time>
      </trkpt>
      <trkpt lat="44.62446" lon="-0.18413">
        <ele>58.1</ele>
        <time>2022-07-26T09:32:07Z</time>
      </trkpt>
      <trkpt lat="44.62447" lon="-0.18413">
        <ele>58.1</ele>
        <time>2022-07-26T09:32:08Z</time>
      </trkpt>
      <trkpt lat="44.62448" lon="-0.18413">
        <ele>58.1</ele>
        <time>2022-07-26T09:32:09Z</time>
      </trkpt>
      <trkpt lat="44.6245" lon="-0.18413">
        <ele>58.1</ele>
        <time>2022-07-26T09:32:11Z</time>
      </trkpt>
      <trkpt lat="44.62451" lon="-0.18414">
        <ele>58.1</ele>
        <time>2022-07-26T09:32:12Z</time>
      </trkpt>
      <trkpt lat="44.62452" lon="-0.18414">
        <ele>58.1</ele>
        <time>2022-07-26T09:32:13Z</time>
      </trkpt>
      <trkpt lat="44.62454" lon="-0.18415">
        <ele>58.3</ele>
        <time>2022-07-26T09:32:15Z</time>
      </trkpt>
      <trkpt lat="44.62456" lon="-0.18417">
        <ele>58.3</ele>
        <time>2022-07-26T09:32:16Z</time>
      </trkpt>
      <trkpt lat="44.62456" lon="-0.18419">
        <ele>58.3</ele>
        <time>2022-07-26T09:32:17Z</time>
      </trkpt>
      <trkpt lat="44.62456" lon="-0.18422">
        <ele>58.6</ele>
        <time>2022-07-26T09:32:18Z</time>
      </trkpt>
      <trkpt lat="44.62456" lon="-0.18423">
        <ele>58.6</ele>
        <time>2022-07-26T09:32:19Z</time>
      </trkpt>
      <trkpt lat="44.62456" lon="-0.18424">
        <ele>58.8</ele>
        <time>2022-07-26T09:32:20Z</time>
      </trkpt>
      <trkpt lat="44.62455" lon="-0.18427">
        <ele>58.8</ele>
        <time>2022-07-26T09:32:22Z</time>
      </trkpt>
      <trkpt lat="44.62455" lon="-0.18429">
        <ele>59</ele>
        <time>2022-07-26T09:32:23Z</time>
      </trkpt>
      <trkpt lat="44.62455" lon="-0.1843">
        <ele>59</ele>
        <time>2022-07-26T09:32:24Z</time>
      </trkpt>
      <trkpt lat="44.62454" lon="-0.1843">
        <ele>59</ele>
        <time>2022-07-26T09:32:25Z</time>
      </trkpt>
      <trkpt lat="44.62454" lon="-0.18431">
        <ele>59</ele>
        <time>2022-07-26T09:32:26Z</time>
      </trkpt>
      <trkpt lat="44.62454" lon="-0.18431">
        <ele>59</ele>
        <time>2022-07-26T09:32:27Z</time>
      </trkpt>
      <trkpt lat="44.62454" lon="-0.1843">
        <ele>59</ele>
        <time>2022-07-26T09:32:28Z</time>
      </trkpt>
      <trkpt lat="44.62454" lon="-0.18431">
        <ele>59</ele>
        <time>2022-07-26T09:32:29Z</time>
      </trkpt>
      <trkpt lat="44.62454" lon="-0.18431">
        <ele>59</ele>
        <time>2022-07-26T09:32:30Z</time>
      </trkpt>
      <trkpt lat="44.62454" lon="-0.18433">
        <ele>59.2</ele>
        <time>2022-07-26T09:32:32Z</time>
      </trkpt>
      <trkpt lat="44.62455" lon="-0.18433">
        <ele>59.2</ele>
        <time>2022-07-26T09:32:33Z</time>
      </trkpt>
      <trkpt lat="44.62455" lon="-0.18434">
        <ele>59.2</ele>
        <time>2022-07-26T09:32:34Z</time>
      </trkpt>
      <trkpt lat="44.62455" lon="-0.18434">
        <ele>59.2</ele>
        <time>2022-07-26T09:32:35Z</time>
      </trkpt>
      <trkpt lat="44.62456" lon="-0.18435">
        <ele>59.2</ele>
        <time>2022-07-26T09:32:36Z</time>
      </trkpt>
      <trkpt lat="44.62456" lon="-0.18435">
        <ele>59.2</ele>
        <time>2022-07-26T09:32:37Z</time>
      </trkpt>
      <trkpt lat="44.62456" lon="-0.18436">
        <ele>59.2</ele>
        <time>2022-07-26T09:32:38Z</time>
      </trkpt>
      <trkpt lat="44.62456" lon="-0.18436">
        <ele>59.2</ele>
        <time>2022-07-26T09:32:39Z</time>
      </trkpt>
      <trkpt lat="44.62456" lon="-0.18436">
        <ele>59.2</ele>
        <time>2022-07-26T09:32:40Z</time>
      </trkpt>
      <trkpt lat="44.62456" lon="-0.18437">
        <ele>59.4</ele>
        <time>2022-07-26T09:32:41Z</time>
      </trkpt>
      <trkpt lat="44.62456" lon="-0.18437">
        <ele>59.4</ele>
        <time>2022-07-26T09:32:42Z</time>
      </trkpt>
      <trkpt lat="44.62457" lon="-0.18437">
        <ele>59.4</ele>
        <time>2022-07-26T09:32:43Z</time>
      </trkpt>
      <trkpt lat="44.62457" lon="-0.18437">
        <ele>59.4</ele>
        <time>2022-07-26T09:32:44Z</time>
      </trkpt>
      <trkpt lat="44.62457" lon="-0.18438">
        <ele>59.4</ele>
        <time>2022-07-26T09:32:45Z</time>
      </trkpt>
      <trkpt lat="44.62457" lon="-0.18438">
        <ele>59.4</ele>
        <time>2022-07-26T09:32:46Z</time>
      </trkpt>
      <trkpt lat="44.62457" lon="-0.18438">
        <ele>59.4</ele>
        <time>2022-07-26T09:32:47Z</time>
      </trkpt>
      <trkpt lat="44.62457" lon="-0.18438">
        <ele>59.4</ele>
        <time>2022-07-26T09:32:48Z</time>
      </trkpt>
      <trkpt lat="44.62457" lon="-0.18439">
        <ele>59.4</ele>
        <time>2022-07-26T09:32:49Z</time>
      </trkpt>
      <trkpt lat="44.62457" lon="-0.18439">
        <ele>59.4</ele>
        <time>2022-07-26T09:32:50Z</time>
      </trkpt>
      <trkpt lat="44.62457" lon="-0.1844">
        <ele>59.4</ele>
        <time>2022-07-26T09:32:51Z</time>
      </trkpt>
      <trkpt lat="44.62457" lon="-0.18439">
        <ele>59.4</ele>
        <time>2022-07-26T09:32:52Z</time>
      </trkpt>
      <trkpt lat="44.62457" lon="-0.18439">
        <ele>59.4</ele>
        <time>2022-07-26T09:32:53Z</time>
      </trkpt>
      <trkpt lat="44.62457" lon="-0.18439">
        <ele>59.4</ele>
        <time>2022-07-26T09:32:54Z</time>
      </trkpt>
      <trkpt lat="44.62457" lon="-0.18438">
        <ele>59.4</ele>
        <time>2022-07-26T09:32:55Z</time>
      </trkpt>
      <trkpt lat="44.62458" lon="-0.18438">
        <ele>59.4</ele>
        <time>2022-07-26T09:32:56Z</time>
      </trkpt>
      <trkpt lat="44.62458" lon="-0.18437">
        <ele>59.4</ele>
        <time>2022-07-26T09:32:57Z</time>
      </trkpt>
      <trkpt lat="44.62458" lon="-0.18437">
        <ele>59.4</ele>
        <time>2022-07-26T09:32:58Z</time>
      </trkpt>
      <trkpt lat="44.62458" lon="-0.18436">
        <ele>59.2</ele>
        <time>2022-07-26T09:32:59Z</time>
      </trkpt>
      <trkpt lat="44.62458" lon="-0.18436">
        <ele>59.2</ele>
        <time>2022-07-26T09:33:00Z</time>
      </trkpt>
      <trkpt lat="44.62458" lon="-0.18435">
        <ele>59.2</ele>
        <time>2022-07-26T09:33:01Z</time>
      </trkpt>
      <trkpt lat="44.62458" lon="-0.18435">
        <ele>59.2</ele>
        <time>2022-07-26T09:33:02Z</time>
      </trkpt>
      <trkpt lat="44.62458" lon="-0.18434">
        <ele>59.2</ele>
        <time>2022-07-26T09:33:03Z</time>
      </trkpt>
      <trkpt lat="44.62456" lon="-0.18435">
        <ele>59.2</ele>
        <time>2022-07-26T09:33:05Z</time>
      </trkpt>
      <trkpt lat="44.62455" lon="-0.18433">
        <ele>59.2</ele>
        <time>2022-07-26T09:33:06Z</time>
      </trkpt>
      <trkpt lat="44.62455" lon="-0.18432">
        <ele>59</ele>
        <time>2022-07-26T09:33:07Z</time>
      </trkpt>
      <trkpt lat="44.62455" lon="-0.1843">
        <ele>59</ele>
        <time>2022-07-26T09:33:08Z</time>
      </trkpt>
      <trkpt lat="44.62455" lon="-0.18428">
        <ele>59</ele>
        <time>2022-07-26T09:33:09Z</time>
      </trkpt>
      <trkpt lat="44.62455" lon="-0.18427">
        <ele>58.8</ele>
        <time>2022-07-26T09:33:10Z</time>
      </trkpt>
      <trkpt lat="44.62455" lon="-0.18425">
        <ele>58.8</ele>
        <time>2022-07-26T09:33:11Z</time>
      </trkpt>
      <trkpt lat="44.62455" lon="-0.18424">
        <ele>58.8</ele>
        <time>2022-07-26T09:33:12Z</time>
      </trkpt>
      <trkpt lat="44.62455" lon="-0.18424">
        <ele>58.8</ele>
        <time>2022-07-26T09:33:13Z</time>
      </trkpt>
      <trkpt lat="44.62455" lon="-0.18423">
        <ele>58.6</ele>
        <time>2022-07-26T09:33:14Z</time>
      </trkpt>
      <trkpt lat="44.62455" lon="-0.18423">
        <ele>58.6</ele>
        <time>2022-07-26T09:33:15Z</time>
      </trkpt>
      <trkpt lat="44.62455" lon="-0.18422">
        <ele>58.6</ele>
        <time>2022-07-26T09:33:16Z</time>
      </trkpt>
      <trkpt lat="44.62455" lon="-0.18422">
        <ele>58.6</ele>
        <time>2022-07-26T09:33:17Z</time>
      </trkpt>
      <trkpt lat="44.62455" lon="-0.18421">
        <ele>58.6</ele>
        <time>2022-07-26T09:33:18Z</time>
      </trkpt>
      <trkpt lat="44.62454" lon="-0.18421">
        <ele>58.6</ele>
        <time>2022-07-26T09:33:19Z</time>
      </trkpt>
      <trkpt lat="44.62453" lon="-0.1842">
        <ele>58.6</ele>
        <time>2022-07-26T09:33:20Z</time>
      </trkpt>
      <trkpt lat="44.62453" lon="-0.1842">
        <ele>58.6</ele>
        <time>2022-07-26T09:33:21Z</time>
      </trkpt>
      <trkpt lat="44.62452" lon="-0.1842">
        <ele>58.6</ele>
        <time>2022-07-26T09:33:22Z</time>
      </trkpt>
      <trkpt lat="44.62452" lon="-0.1842">
        <ele>58.6</ele>
        <time>2022-07-26T09:33:23Z</time>
      </trkpt>
      <trkpt lat="44.62452" lon="-0.18419">
        <ele>58.6</ele>
        <time>2022-07-26T09:33:24Z</time>
      </trkpt>
      <trkpt lat="44.62451" lon="-0.18419">
        <ele>58.6</ele>
        <time>2022-07-26T09:33:25Z</time>
      </trkpt>
      <trkpt lat="44.62451" lon="-0.18419">
        <ele>58.3</ele>
        <time>2022-07-26T09:33:26Z</time>
      </trkpt>
      <trkpt lat="44.62451" lon="-0.18419">
        <ele>58.3</ele>
        <time>2022-07-26T09:33:27Z</time>
      </trkpt>
      <trkpt lat="44.62451" lon="-0.18419">
        <ele>58.3</ele>
        <time>2022-07-26T09:33:28Z</time>
      </trkpt>
      <trkpt lat="44.6245" lon="-0.18419">
        <ele>58.3</ele>
        <time>2022-07-26T09:33:29Z</time>
      </trkpt>
      <trkpt lat="44.6245" lon="-0.18419">
        <ele>58.3</ele>
        <time>2022-07-26T09:33:30Z</time>
      </trkpt>
      <trkpt lat="44.6245" lon="-0.18418">
        <ele>58.3</ele>
        <time>2022-07-26T09:33:31Z</time>
      </trkpt>
      <trkpt lat="44.62449" lon="-0.18418">
        <ele>58.3</ele>
        <time>2022-07-26T09:33:32Z</time>
      </trkpt>
      <trkpt lat="44.62448" lon="-0.18418">
        <ele>58.3</ele>
        <time>2022-07-26T09:33:33Z</time>
      </trkpt>
      <trkpt lat="44.62447" lon="-0.18418">
        <ele>58.3</ele>
        <time>2022-07-26T09:33:34Z</time>
      </trkpt>
      <trkpt lat="44.62446" lon="-0.18418">
        <ele>58.4</ele>
        <time>2022-07-26T09:33:35Z</time>
      </trkpt>
      <trkpt lat="44.62444" lon="-0.18417">
        <ele>58.4</ele>
        <time>2022-07-26T09:33:36Z</time>
      </trkpt>
      <trkpt lat="44.62443" lon="-0.18416">
        <ele>58.4</ele>
        <time>2022-07-26T09:33:37Z</time>
      </trkpt>
      <trkpt lat="44.62442" lon="-0.18414">
        <ele>58.1</ele>
        <time>2022-07-26T09:33:39Z</time>
      </trkpt>
      <trkpt lat="44.62441" lon="-0.18412">
        <ele>58.1</ele>
        <time>2022-07-26T09:33:41Z</time>
      </trkpt>
      <trkpt lat="44.6244" lon="-0.1841">
        <ele>57.9</ele>
        <time>2022-07-26T09:33:42Z</time>
      </trkpt>
      <trkpt lat="44.6244" lon="-0.18409">
        <ele>57.9</ele>
        <time>2022-07-26T09:33:43Z</time>
      </trkpt>
      <trkpt lat="44.6244" lon="-0.18408">
        <ele>57.9</ele>
        <time>2022-07-26T09:33:44Z</time>
      </trkpt>
      <trkpt lat="44.6244" lon="-0.18407">
        <ele>57.9</ele>
        <time>2022-07-26T09:33:45Z</time>
      </trkpt>
      <trkpt lat="44.62439" lon="-0.18404">
        <ele>57.6</ele>
        <time>2022-07-26T09:33:47Z</time>
      </trkpt>
      <trkpt lat="44.62438" lon="-0.18403">
        <ele>57.6</ele>
        <time>2022-07-26T09:33:48Z</time>
      </trkpt>
      <trkpt lat="44.62437" lon="-0.184">
        <ele>57.4</ele>
        <time>2022-07-26T09:33:49Z</time>
      </trkpt>
      <trkpt lat="44.62437" lon="-0.18398">
        <ele>57.4</ele>
        <time>2022-07-26T09:33:50Z</time>
      </trkpt>
      <trkpt lat="44.62437" lon="-0.18397">
        <ele>57.1</ele>
        <time>2022-07-26T09:33:51Z</time>
      </trkpt>
      <trkpt lat="44.62436" lon="-0.18396">
        <ele>57.1</ele>
        <time>2022-07-26T09:33:52Z</time>
      </trkpt>
      <trkpt lat="44.62436" lon="-0.18394">
        <ele>57.1</ele>
        <time>2022-07-26T09:33:53Z</time>
      </trkpt>
      <trkpt lat="44.62435" lon="-0.18393">
        <ele>56.8</ele>
        <time>2022-07-26T09:33:55Z</time>
      </trkpt>
      <trkpt lat="44.62434" lon="-0.18391">
        <ele>56.8</ele>
        <time>2022-07-26T09:33:56Z</time>
      </trkpt>
      <trkpt lat="44.62433" lon="-0.18389">
        <ele>56.8</ele>
        <time>2022-07-26T09:33:57Z</time>
      </trkpt>
      <trkpt lat="44.62432" lon="-0.18388">
        <ele>56.5</ele>
        <time>2022-07-26T09:33:58Z</time>
      </trkpt>
      <trkpt lat="44.62432" lon="-0.18387">
        <ele>56.5</ele>
        <time>2022-07-26T09:33:59Z</time>
      </trkpt>
      <trkpt lat="44.62431" lon="-0.18386">
        <ele>56.5</ele>
        <time>2022-07-26T09:34:01Z</time>
      </trkpt>
      <trkpt lat="44.6243" lon="-0.18383">
        <ele>56.2</ele>
        <time>2022-07-26T09:34:02Z</time>
      </trkpt>
      <trkpt lat="44.62431" lon="-0.18381">
        <ele>56.2</ele>
        <time>2022-07-26T09:34:03Z</time>
      </trkpt>
      <trkpt lat="44.62431" lon="-0.18377">
        <ele>55.9</ele>
        <time>2022-07-26T09:34:05Z</time>
      </trkpt>
      <trkpt lat="44.62431" lon="-0.18375">
        <ele>55.6</ele>
        <time>2022-07-26T09:34:06Z</time>
      </trkpt>
      <trkpt lat="44.62432" lon="-0.18373">
        <ele>55.5</ele>
        <time>2022-07-26T09:34:07Z</time>
      </trkpt>
      <trkpt lat="44.62433" lon="-0.18372">
        <ele>55.2</ele>
        <time>2022-07-26T09:34:08Z</time>
      </trkpt>
      <trkpt lat="44.62434" lon="-0.18371">
        <ele>55.2</ele>
        <time>2022-07-26T09:34:09Z</time>
      </trkpt>
      <trkpt lat="44.62435" lon="-0.1837">
        <ele>55.2</ele>
        <time>2022-07-26T09:34:10Z</time>
      </trkpt>
      <trkpt lat="44.62436" lon="-0.18368">
        <ele>55.2</ele>
        <time>2022-07-26T09:34:12Z</time>
      </trkpt>
      <trkpt lat="44.62436" lon="-0.18367">
        <ele>54.9</ele>
        <time>2022-07-26T09:34:13Z</time>
      </trkpt>
      <trkpt lat="44.62436" lon="-0.18366">
        <ele>54.9</ele>
        <time>2022-07-26T09:34:14Z</time>
      </trkpt>
      <trkpt lat="44.62435" lon="-0.18364">
        <ele>54.9</ele>
        <time>2022-07-26T09:34:15Z</time>
      </trkpt>
      <trkpt lat="44.62435" lon="-0.18362">
        <ele>54.5</ele>
        <time>2022-07-26T09:34:17Z</time>
      </trkpt>
      <trkpt lat="44.62435" lon="-0.18361">
        <ele>54.5</ele>
        <time>2022-07-26T09:34:18Z</time>
      </trkpt>
      <trkpt lat="44.62435" lon="-0.1836">
        <ele>54.6</ele>
        <time>2022-07-26T09:34:19Z</time>
      </trkpt>
      <trkpt lat="44.62435" lon="-0.18359">
        <ele>54.6</ele>
        <time>2022-07-26T09:34:20Z</time>
      </trkpt>
      <trkpt lat="44.62435" lon="-0.18357">
        <ele>54.2</ele>
        <time>2022-07-26T09:34:22Z</time>
      </trkpt>
      <trkpt lat="44.62435" lon="-0.18357">
        <ele>54.2</ele>
        <time>2022-07-26T09:34:23Z</time>
      </trkpt>
      <trkpt lat="44.62435" lon="-0.18357">
        <ele>54.2</ele>
        <time>2022-07-26T09:34:24Z</time>
      </trkpt>
      <trkpt lat="44.62435" lon="-0.18357">
        <ele>54.2</ele>
        <time>2022-07-26T09:34:25Z</time>
      </trkpt>
      <trkpt lat="44.62435" lon="-0.18357">
        <ele>54.2</ele>
        <time>2022-07-26T09:34:26Z</time>
      </trkpt>
      <trkpt lat="44.62435" lon="-0.18357">
        <ele>54.2</ele>
        <time>2022-07-26T09:34:27Z</time>
      </trkpt>
      <trkpt lat="44.62435" lon="-0.18358">
        <ele>54.2</ele>
        <time>2022-07-26T09:34:28Z</time>
      </trkpt>
      <trkpt lat="44.62435" lon="-0.18358">
        <ele>54.2</ele>
        <time>2022-07-26T09:34:29Z</time>
      </trkpt>
      <trkpt lat="44.62435" lon="-0.18358">
        <ele>54.2</ele>
        <time>2022-07-26T09:34:30Z</time>
      </trkpt>
      <trkpt lat="44.62435" lon="-0.18358">
        <ele>54.2</ele>
        <time>2022-07-26T09:34:31Z</time>
      </trkpt>
      <trkpt lat="44.62435" lon="-0.18358">
        <ele>54.2</ele>
        <time>2022-07-26T09:34:32Z</time>
      </trkpt>
      <trkpt lat="44.62435" lon="-0.18358">
        <ele>54.2</ele>
        <time>2022-07-26T09:34:33Z</time>
      </trkpt>
      <trkpt lat="44.62435" lon="-0.18358">
        <ele>54.2</ele>
        <time>2022-07-26T09:34:34Z</time>
      </trkpt>
      <trkpt lat="44.62434" lon="-0.18358">
        <ele>54.2</ele>
        <time>2022-07-26T09:34:35Z</time>
      </trkpt>
      <trkpt lat="44.62434" lon="-0.18358">
        <ele>54.2</ele>
        <time>2022-07-26T09:34:36Z</time>
      </trkpt>
      <trkpt lat="44.62434" lon="-0.18358">
        <ele>54.2</ele>
        <time>2022-07-26T09:34:37Z</time>
      </trkpt>
      <trkpt lat="44.62434" lon="-0.18358">
        <ele>54.2</ele>
        <time>2022-07-26T09:34:38Z</time>
      </trkpt>
      <trkpt lat="44.62434" lon="-0.18358">
        <ele>54.2</ele>
        <time>2022-07-26T09:34:39Z</time>
      </trkpt>
      <trkpt lat="44.62434" lon="-0.18359">
        <ele>54.2</ele>
        <time>2022-07-26T09:34:40Z</time>
      </trkpt>
      <trkpt lat="44.62434" lon="-0.18359">
        <ele>54.2</ele>
        <time>2022-07-26T09:34:41Z</time>
      </trkpt>
      <trkpt lat="44.62433" lon="-0.1836">
        <ele>54.6</ele>
        <time>2022-07-26T09:34:42Z</time>
      </trkpt>
      <trkpt lat="44.62434" lon="-0.18362">
        <ele>54.6</ele>
        <time>2022-07-26T09:34:43Z</time>
      </trkpt>
      <trkpt lat="44.62434" lon="-0.18363">
        <ele>54.6</ele>
        <time>2022-07-26T09:34:45Z</time>
      </trkpt>
      <trkpt lat="44.62434" lon="-0.18364">
        <ele>54.9</ele>
        <time>2022-07-26T09:34:46Z</time>
      </trkpt>
      <trkpt lat="44.62434" lon="-0.18365">
        <ele>54.9</ele>
        <time>2022-07-26T09:34:47Z</time>
      </trkpt>
      <trkpt lat="44.62434" lon="-0.18368">
        <ele>55.2</ele>
        <time>2022-07-26T09:34:49Z</time>
      </trkpt>
      <trkpt lat="44.62435" lon="-0.18369">
        <ele>55.2</ele>
        <time>2022-07-26T09:34:50Z</time>
      </trkpt>
      <trkpt lat="44.62437" lon="-0.18372">
        <ele>55.5</ele>
        <time>2022-07-26T09:34:52Z</time>
      </trkpt>
      <trkpt lat="44.62437" lon="-0.18374">
        <ele>55.5</ele>
        <time>2022-07-26T09:34:53Z</time>
      </trkpt>
      <trkpt lat="44.62437" lon="-0.18376">
        <ele>55.5</ele>
        <time>2022-07-26T09:34:54Z</time>
      </trkpt>
      <trkpt lat="44.62438" lon="-0.18379">
        <ele>55.9</ele>
        <time>2022-07-26T09:34:55Z</time>
      </trkpt>
      <trkpt lat="44.62438" lon="-0.18381">
        <ele>56.2</ele>
        <time>2022-07-26T09:34:57Z</time>
      </trkpt>
      <trkpt lat="44.62438" lon="-0.18383">
        <ele>56.2</ele>
        <time>2022-07-26T09:34:58Z</time>
      </trkpt>
      <trkpt lat="44.62438" lon="-0.18386">
        <ele>56.5</ele>
        <time>2022-07-26T09:34:59Z</time>
      </trkpt>
      <trkpt lat="44.62438" lon="-0.18387">
        <ele>56.5</ele>
        <time>2022-07-26T09:35:00Z</time>
      </trkpt>
      <trkpt lat="44.62438" lon="-0.18388">
        <ele>56.5</ele>
        <time>2022-07-26T09:35:01Z</time>
      </trkpt>
      <trkpt lat="44.62438" lon="-0.1839">
        <ele>56.8</ele>
        <time>2022-07-26T09:35:02Z</time>
      </trkpt>
      <trkpt lat="44.62439" lon="-0.18392">
        <ele>56.8</ele>
        <time>2022-07-26T09:35:03Z</time>
      </trkpt>
      <trkpt lat="44.62439" lon="-0.18394">
        <ele>57.1</ele>
        <time>2022-07-26T09:35:04Z</time>
      </trkpt>
      <trkpt lat="44.62441" lon="-0.18397">
        <ele>57.1</ele>
        <time>2022-07-26T09:35:05Z</time>
      </trkpt>
      <trkpt lat="44.62441" lon="-0.18399">
        <ele>57.4</ele>
        <time>2022-07-26T09:35:06Z</time>
      </trkpt>
      <trkpt lat="44.62442" lon="-0.184">
        <ele>57.4</ele>
        <time>2022-07-26T09:35:08Z</time>
      </trkpt>
      <trkpt lat="44.62443" lon="-0.18401">
        <ele>57.4</ele>
        <time>2022-07-26T09:35:09Z</time>
      </trkpt>
      <trkpt lat="44.62443" lon="-0.18403">
        <ele>57.6</ele>
        <time>2022-07-26T09:35:10Z</time>
      </trkpt>
      <trkpt lat="44.62444" lon="-0.18406">
        <ele>57.6</ele>
        <time>2022-07-26T09:35:12Z</time>
      </trkpt>
      <trkpt lat="44.62444" lon="-0.18407">
        <ele>57.9</ele>
        <time>2022-07-26T09:35:13Z</time>
      </trkpt>
      <trkpt lat="44.62445" lon="-0.18408">
        <ele>57.9</ele>
        <time>2022-07-26T09:35:14Z</time>
      </trkpt>
      <trkpt lat="44.62445" lon="-0.18409">
        <ele>57.9</ele>
        <time>2022-07-26T09:35:15Z</time>
      </trkpt>
      <trkpt lat="44.62446" lon="-0.18412">
        <ele>58.1</ele>
        <time>2022-07-26T09:35:17Z</time>
      </trkpt>
      <trkpt lat="44.62447" lon="-0.18413">
        <ele>58.1</ele>
        <time>2022-07-26T09:35:18Z</time>
      </trkpt>
      <trkpt lat="44.62447" lon="-0.18414">
        <ele>58.1</ele>
        <time>2022-07-26T09:35:19Z</time>
      </trkpt>
      <trkpt lat="44.62448" lon="-0.18415">
        <ele>58.3</ele>
        <time>2022-07-26T09:35:20Z</time>
      </trkpt>
      <trkpt lat="44.6245" lon="-0.18417">
        <ele>58.3</ele>
        <time>2022-07-26T09:35:22Z</time>
      </trkpt>
      <trkpt lat="44.62451" lon="-0.18417">
        <ele>58.3</ele>
        <time>2022-07-26T09:35:23Z</time>
      </trkpt>
      <trkpt lat="44.62452" lon="-0.18417">
        <ele>58.3</ele>
        <time>2022-07-26T09:35:24Z</time>
      </trkpt>
      <trkpt lat="44.62453" lon="-0.18417">
        <ele>58.3</ele>
        <time>2022-07-26T09:35:25Z</time>
      </trkpt>
      <trkpt lat="44.62456" lon="-0.18418">
        <ele>58.3</ele>
        <time>2022-07-26T09:35:27Z</time>
      </trkpt>
      <trkpt lat="44.62458" lon="-0.18418">
        <ele>58.3</ele>
        <time>2022-07-26T09:35:28Z</time>
      </trkpt>
      <trkpt lat="44.62459" lon="-0.18418">
        <ele>58.3</ele>
        <time>2022-07-26T09:35:30Z</time>
      </trkpt>
      <trkpt lat="44.6246" lon="-0.18419">
        <ele>58.3</ele>
        <time>2022-07-26T09:35:31Z</time>
      </trkpt>
      <trkpt lat="44.62461" lon="-0.1842">
        <ele>58.5</ele>
        <time>2022-07-26T09:35:32Z</time>
      </trkpt>
      <trkpt lat="44.62462" lon="-0.18421">
        <ele>58.5</ele>
        <time>2022-07-26T09:35:33Z</time>
      </trkpt>
      <trkpt lat="44.62462" lon="-0.18423">
        <ele>58.5</ele>
        <time>2022-07-26T09:35:34Z</time>
      </trkpt>
      <trkpt lat="44.62462" lon="-0.18425">
        <ele>58.7</ele>
        <time>2022-07-26T09:35:36Z</time>
      </trkpt>
      <trkpt lat="44.62462" lon="-0.18427">
        <ele>58.7</ele>
        <time>2022-07-26T09:35:37Z</time>
      </trkpt>
      <trkpt lat="44.62461" lon="-0.18429">
        <ele>59</ele>
        <time>2022-07-26T09:35:38Z</time>
      </trkpt>
      <trkpt lat="44.62462" lon="-0.18432">
        <ele>59.2</ele>
        <time>2022-07-26T09:35:39Z</time>
      </trkpt>
      <trkpt lat="44.62462" lon="-0.18434">
        <ele>59.2</ele>
        <time>2022-07-26T09:35:40Z</time>
      </trkpt>
      <trkpt lat="44.62463" lon="-0.18436">
        <ele>59.2</ele>
        <time>2022-07-26T09:35:41Z</time>
      </trkpt>
      <trkpt lat="44.62463" lon="-0.18437">
        <ele>59.3</ele>
        <time>2022-07-26T09:35:42Z</time>
      </trkpt>
      <trkpt lat="44.62463" lon="-0.18439">
        <ele>59.3</ele>
        <time>2022-07-26T09:35:43Z</time>
      </trkpt>
      <trkpt lat="44.62464" lon="-0.18441">
        <ele>59.5</ele>
        <time>2022-07-26T09:35:45Z</time>
      </trkpt>
      <trkpt lat="44.62465" lon="-0.18443">
        <ele>59.5</ele>
        <time>2022-07-26T09:35:46Z</time>
      </trkpt>
      <trkpt lat="44.62466" lon="-0.18445">
        <ele>59.5</ele>
        <time>2022-07-26T09:35:47Z</time>
      </trkpt>
      <trkpt lat="44.62467" lon="-0.18446">
        <ele>59.6</ele>
        <time>2022-07-26T09:35:48Z</time>
      </trkpt>
      <trkpt lat="44.62467" lon="-0.18448">
        <ele>59.6</ele>
        <time>2022-07-26T09:35:49Z</time>
      </trkpt>
      <trkpt lat="44.62468" lon="-0.1845">
        <ele>59.8</ele>
        <time>2022-07-26T09:35:51Z</time>
      </trkpt>
      <trkpt lat="44.6247" lon="-0.18452">
        <ele>59.8</ele>
        <time>2022-07-26T09:35:52Z</time>
      </trkpt>
      <trkpt lat="44.6247" lon="-0.18453">
        <ele>59.8</ele>
        <time>2022-07-26T09:35:53Z</time>
      </trkpt>
      <trkpt lat="44.62471" lon="-0.18454">
        <ele>59.9</ele>
        <time>2022-07-26T09:35:54Z</time>
      </trkpt>
      <trkpt lat="44.62472" lon="-0.18456">
        <ele>59.9</ele>
        <time>2022-07-26T09:35:55Z</time>
      </trkpt>
      <trkpt lat="44.62473" lon="-0.18458">
        <ele>59.9</ele>
        <time>2022-07-26T09:35:56Z</time>
      </trkpt>
      <trkpt lat="44.62474" lon="-0.1846">
        <ele>60.1</ele>
        <time>2022-07-26T09:35:57Z</time>
      </trkpt>
      <trkpt lat="44.62475" lon="-0.18461">
        <ele>60.1</ele>
        <time>2022-07-26T09:35:58Z</time>
      </trkpt>
      <trkpt lat="44.62475" lon="-0.18463">
        <ele>60.2</ele>
        <time>2022-07-26T09:35:59Z</time>
      </trkpt>
      <trkpt lat="44.62476" lon="-0.18466">
        <ele>60.2</ele>
        <time>2022-07-26T09:36:01Z</time>
      </trkpt>
      <trkpt lat="44.62477" lon="-0.18468">
        <ele>60.4</ele>
        <time>2022-07-26T09:36:02Z</time>
      </trkpt>
      <trkpt lat="44.62478" lon="-0.1847">
        <ele>60.4</ele>
        <time>2022-07-26T09:36:03Z</time>
      </trkpt>
      <trkpt lat="44.62479" lon="-0.18471">
        <ele>60.6</ele>
        <time>2022-07-26T09:36:04Z</time>
      </trkpt>
      <trkpt lat="44.6248" lon="-0.18474">
        <ele>60.6</ele>
        <time>2022-07-26T09:36:06Z</time>
      </trkpt>
      <trkpt lat="44.6248" lon="-0.18476">
        <ele>60.7</ele>
        <time>2022-07-26T09:36:07Z</time>
      </trkpt>
      <trkpt lat="44.62481" lon="-0.18477">
        <ele>60.7</ele>
        <time>2022-07-26T09:36:08Z</time>
      </trkpt>
      <trkpt lat="44.62482" lon="-0.18478">
        <ele>60.7</ele>
        <time>2022-07-26T09:36:09Z</time>
      </trkpt>
      <trkpt lat="44.62482" lon="-0.1848">
        <ele>60.9</ele>
        <time>2022-07-26T09:36:10Z</time>
      </trkpt>
      <trkpt lat="44.62483" lon="-0.18481">
        <ele>60.9</ele>
        <time>2022-07-26T09:36:11Z</time>
      </trkpt>
      <trkpt lat="44.62485" lon="-0.18485">
        <ele>61</ele>
        <time>2022-07-26T09:36:12Z</time>
      </trkpt>
      <trkpt lat="44.62485" lon="-0.18487">
        <ele>61</ele>
        <time>2022-07-26T09:36:14Z</time>
      </trkpt>
      <trkpt lat="44.62486" lon="-0.18489">
        <ele>61.2</ele>
        <time>2022-07-26T09:36:15Z</time>
      </trkpt>
      <trkpt lat="44.62486" lon="-0.1849">
        <ele>61.2</ele>
        <time>2022-07-26T09:36:16Z</time>
      </trkpt>
      <trkpt lat="44.62486" lon="-0.18492">
        <ele>61.2</ele>
        <time>2022-07-26T09:36:17Z</time>
      </trkpt>
      <trkpt lat="44.62486" lon="-0.18493">
        <ele>61.3</ele>
        <time>2022-07-26T09:36:18Z</time>
      </trkpt>
      <trkpt lat="44.62486" lon="-0.18495">
        <ele>61.3</ele>
        <time>2022-07-26T09:36:19Z</time>
      </trkpt>
      <trkpt lat="44.62486" lon="-0.18496">
        <ele>61.3</ele>
        <time>2022-07-26T09:36:20Z</time>
      </trkpt>
      <trkpt lat="44.62487" lon="-0.18501">
        <ele>61.6</ele>
        <time>2022-07-26T09:36:22Z</time>
      </trkpt>
      <trkpt lat="44.62487" lon="-0.18502">
        <ele>61.6</ele>
        <time>2022-07-26T09:36:23Z</time>
      </trkpt>
      <trkpt lat="44.62488" lon="-0.18503">
        <ele>61.6</ele>
        <time>2022-07-26T09:36:24Z</time>
      </trkpt>
      <trkpt lat="44.62488" lon="-0.18504">
        <ele>61.6</ele>
        <time>2022-07-26T09:36:25Z</time>
      </trkpt>
      <trkpt lat="44.62488" lon="-0.18505">
        <ele>61.7</ele>
        <time>2022-07-26T09:36:26Z</time>
      </trkpt>
      <trkpt lat="44.62489" lon="-0.18508">
        <ele>61.7</ele>
        <time>2022-07-26T09:36:27Z</time>
      </trkpt>
      <trkpt lat="44.62489" lon="-0.18509">
        <ele>61.7</ele>
        <time>2022-07-26T09:36:28Z</time>
      </trkpt>
      <trkpt lat="44.6249" lon="-0.18511">
        <ele>61.9</ele>
        <time>2022-07-26T09:36:30Z</time>
      </trkpt>
      <trkpt lat="44.6249" lon="-0.18513">
        <ele>61.9</ele>
        <time>2022-07-26T09:36:31Z</time>
      </trkpt>
      <trkpt lat="44.6249" lon="-0.18515">
        <ele>62</ele>
        <time>2022-07-26T09:36:32Z</time>
      </trkpt>
      <trkpt lat="44.62491" lon="-0.18518">
        <ele>62.2</ele>
        <time>2022-07-26T09:36:34Z</time>
      </trkpt>
      <trkpt lat="44.62492" lon="-0.18521">
        <ele>62.2</ele>
        <time>2022-07-26T09:36:35Z</time>
      </trkpt>
      <trkpt lat="44.62492" lon="-0.18523">
        <ele>62.3</ele>
        <time>2022-07-26T09:36:36Z</time>
      </trkpt>
      <trkpt lat="44.62492" lon="-0.18524">
        <ele>62.3</ele>
        <time>2022-07-26T09:36:37Z</time>
      </trkpt>
      <trkpt lat="44.62492" lon="-0.18527">
        <ele>62.5</ele>
        <time>2022-07-26T09:36:38Z</time>
      </trkpt>
      <trkpt lat="44.62493" lon="-0.18529">
        <ele>62.5</ele>
        <time>2022-07-26T09:36:40Z</time>
      </trkpt>
      <trkpt lat="44.62493" lon="-0.1853">
        <ele>62.5</ele>
        <time>2022-07-26T09:36:41Z</time>
      </trkpt>
      <trkpt lat="44.62494" lon="-0.18533">
        <ele>62.6</ele>
        <time>2022-07-26T09:36:42Z</time>
      </trkpt>
      <trkpt lat="44.62494" lon="-0.18534">
        <ele>62.6</ele>
        <time>2022-07-26T09:36:43Z</time>
      </trkpt>
      <trkpt lat="44.62495" lon="-0.18537">
        <ele>62.7</ele>
        <time>2022-07-26T09:36:44Z</time>
      </trkpt>
      <trkpt lat="44.62495" lon="-0.18538">
        <ele>62.7</ele>
        <time>2022-07-26T09:36:45Z</time>
      </trkpt>
      <trkpt lat="44.62495" lon="-0.18539">
        <ele>62.7</ele>
        <time>2022-07-26T09:36:46Z</time>
      </trkpt>
      <trkpt lat="44.62496" lon="-0.18541">
        <ele>62.8</ele>
        <time>2022-07-26T09:36:47Z</time>
      </trkpt>
      <trkpt lat="44.62496" lon="-0.18543">
        <ele>62.8</ele>
        <time>2022-07-26T09:36:48Z</time>
      </trkpt>
      <trkpt lat="44.62497" lon="-0.18544">
        <ele>62.9</ele>
        <time>2022-07-26T09:36:49Z</time>
      </trkpt>
      <trkpt lat="44.62498" lon="-0.18547">
        <ele>62.9</ele>
        <time>2022-07-26T09:36:51Z</time>
      </trkpt>
      <trkpt lat="44.62499" lon="-0.1855">
        <ele>63.1</ele>
        <time>2022-07-26T09:36:53Z</time>
      </trkpt>
      <trkpt lat="44.62499" lon="-0.18551">
        <ele>63</ele>
        <time>2022-07-26T09:36:54Z</time>
      </trkpt>
      <trkpt lat="44.625" lon="-0.18553">
        <ele>63.2</ele>
        <time>2022-07-26T09:36:55Z</time>
      </trkpt>
      <trkpt lat="44.625" lon="-0.18554">
        <ele>63.2</ele>
        <time>2022-07-26T09:36:56Z</time>
      </trkpt>
      <trkpt lat="44.62501" lon="-0.18555">
        <ele>63.2</ele>
        <time>2022-07-26T09:36:57Z</time>
      </trkpt>
      <trkpt lat="44.62502" lon="-0.18558">
        <ele>63.3</ele>
        <time>2022-07-26T09:36:58Z</time>
      </trkpt>
      <trkpt lat="44.62502" lon="-0.18559">
        <ele>63.3</ele>
        <time>2022-07-26T09:36:59Z</time>
      </trkpt>
      <trkpt lat="44.62502" lon="-0.1856">
        <ele>63.3</ele>
        <time>2022-07-26T09:37:00Z</time>
      </trkpt>
      <trkpt lat="44.62502" lon="-0.18563">
        <ele>63.4</ele>
        <time>2022-07-26T09:37:01Z</time>
      </trkpt>
      <trkpt lat="44.62503" lon="-0.18564">
        <ele>63.4</ele>
        <time>2022-07-26T09:37:02Z</time>
      </trkpt>
      <trkpt lat="44.62503" lon="-0.18566">
        <ele>63.5</ele>
        <time>2022-07-26T09:37:03Z</time>
      </trkpt>
      <trkpt lat="44.62503" lon="-0.18568">
        <ele>63.5</ele>
        <time>2022-07-26T09:37:04Z</time>
      </trkpt>
      <trkpt lat="44.62503" lon="-0.1857">
        <ele>63.7</ele>
        <time>2022-07-26T09:37:05Z</time>
      </trkpt>
      <trkpt lat="44.62504" lon="-0.18572">
        <ele>63.7</ele>
        <time>2022-07-26T09:37:06Z</time>
      </trkpt>
      <trkpt lat="44.62504" lon="-0.18574">
        <ele>63.8</ele>
        <time>2022-07-26T09:37:07Z</time>
      </trkpt>
      <trkpt lat="44.62505" lon="-0.18576">
        <ele>63.8</ele>
        <time>2022-07-26T09:37:09Z</time>
      </trkpt>
      <trkpt lat="44.62505" lon="-0.18579">
        <ele>63.9</ele>
        <time>2022-07-26T09:37:10Z</time>
      </trkpt>
      <trkpt lat="44.62505" lon="-0.18582">
        <ele>63.9</ele>
        <time>2022-07-26T09:37:11Z</time>
      </trkpt>
      <trkpt lat="44.62505" lon="-0.18584">
        <ele>64</ele>
        <time>2022-07-26T09:37:12Z</time>
      </trkpt>
      <trkpt lat="44.62505" lon="-0.18585">
        <ele>64</ele>
        <time>2022-07-26T09:37:13Z</time>
      </trkpt>
      <trkpt lat="44.62505" lon="-0.18586">
        <ele>64</ele>
        <time>2022-07-26T09:37:14Z</time>
      </trkpt>
      <trkpt lat="44.62505" lon="-0.18588">
        <ele>64.2</ele>
        <time>2022-07-26T09:37:15Z</time>
      </trkpt>
      <trkpt lat="44.62503" lon="-0.18589">
        <ele>64.2</ele>
        <time>2022-07-26T09:37:17Z</time>
      </trkpt>
      <trkpt lat="44.62502" lon="-0.18591">
        <ele>64.3</ele>
        <time>2022-07-26T09:37:18Z</time>
      </trkpt>
      <trkpt lat="44.625" lon="-0.18592">
        <ele>64.4</ele>
        <time>2022-07-26T09:37:19Z</time>
      </trkpt>
      <trkpt lat="44.62499" lon="-0.18593">
        <ele>64.4</ele>
        <time>2022-07-26T09:37:21Z</time>
      </trkpt>
      <trkpt lat="44.62498" lon="-0.18593">
        <ele>64.5</ele>
        <time>2022-07-26T09:37:22Z</time>
      </trkpt>
      <trkpt lat="44.62497" lon="-0.18594">
        <ele>64.5</ele>
        <time>2022-07-26T09:37:23Z</time>
      </trkpt>
      <trkpt lat="44.62497" lon="-0.18594">
        <ele>64.5</ele>
        <time>2022-07-26T09:37:24Z</time>
      </trkpt>
      <trkpt lat="44.62496" lon="-0.18595">
        <ele>64.5</ele>
        <time>2022-07-26T09:37:25Z</time>
      </trkpt>
      <trkpt lat="44.62493" lon="-0.18596">
        <ele>64.7</ele>
        <time>2022-07-26T09:37:26Z</time>
      </trkpt>
      <trkpt lat="44.62492" lon="-0.18597">
        <ele>64.8</ele>
        <time>2022-07-26T09:37:27Z</time>
      </trkpt>
      <trkpt lat="44.62491" lon="-0.18598">
        <ele>64.8</ele>
        <time>2022-07-26T09:37:28Z</time>
      </trkpt>
      <trkpt lat="44.6249" lon="-0.18599">
        <ele>64.9</ele>
        <time>2022-07-26T09:37:29Z</time>
      </trkpt>
      <trkpt lat="44.62489" lon="-0.186">
        <ele>65</ele>
        <time>2022-07-26T09:37:30Z</time>
      </trkpt>
      <trkpt lat="44.62487" lon="-0.18603">
        <ele>65</ele>
        <time>2022-07-26T09:37:31Z</time>
      </trkpt>
      <trkpt lat="44.62487" lon="-0.18604">
        <ele>65.1</ele>
        <time>2022-07-26T09:37:33Z</time>
      </trkpt>
      <trkpt lat="44.62486" lon="-0.18605">
        <ele>65.3</ele>
        <time>2022-07-26T09:37:34Z</time>
      </trkpt>
      <trkpt lat="44.62485" lon="-0.18606">
        <ele>65.3</ele>
        <time>2022-07-26T09:37:35Z</time>
      </trkpt>
      <trkpt lat="44.62485" lon="-0.18607">
        <ele>65.3</ele>
        <time>2022-07-26T09:37:36Z</time>
      </trkpt>
      <trkpt lat="44.62484" lon="-0.18608">
        <ele>65.4</ele>
        <time>2022-07-26T09:37:37Z</time>
      </trkpt>
      <trkpt lat="44.62483" lon="-0.18608">
        <ele>65.6</ele>
        <time>2022-07-26T09:37:38Z</time>
      </trkpt>
      <trkpt lat="44.62482" lon="-0.18609">
        <ele>65.6</ele>
        <time>2022-07-26T09:37:40Z</time>
      </trkpt>
      <trkpt lat="44.6248" lon="-0.18609">
        <ele>65.7</ele>
        <time>2022-07-26T09:37:41Z</time>
      </trkpt>
      <trkpt lat="44.62479" lon="-0.18609">
        <ele>65.7</ele>
        <time>2022-07-26T09:37:42Z</time>
      </trkpt>
      <trkpt lat="44.62478" lon="-0.18609">
        <ele>65.7</ele>
        <time>2022-07-26T09:37:43Z</time>
      </trkpt>
      <trkpt lat="44.62475" lon="-0.18608">
        <ele>65.8</ele>
        <time>2022-07-26T09:37:44Z</time>
      </trkpt>
      <trkpt lat="44.62474" lon="-0.18608">
        <ele>65.8</ele>
        <time>2022-07-26T09:37:46Z</time>
      </trkpt>
      <trkpt lat="44.62473" lon="-0.18607">
        <ele>65.8</ele>
        <time>2022-07-26T09:37:47Z</time>
      </trkpt>
      <trkpt lat="44.62472" lon="-0.18607">
        <ele>65.8</ele>
        <time>2022-07-26T09:37:48Z</time>
      </trkpt>
      <trkpt lat="44.62471" lon="-0.18607">
        <ele>65.9</ele>
        <time>2022-07-26T09:37:49Z</time>
      </trkpt>
      <trkpt lat="44.62469" lon="-0.18606">
        <ele>65.9</ele>
        <time>2022-07-26T09:37:50Z</time>
      </trkpt>
      <trkpt lat="44.62468" lon="-0.18606">
        <ele>66</ele>
        <time>2022-07-26T09:37:51Z</time>
      </trkpt>
      <trkpt lat="44.62467" lon="-0.18606">
        <ele>66</ele>
        <time>2022-07-26T09:37:52Z</time>
      </trkpt>
      <trkpt lat="44.62465" lon="-0.18605">
        <ele>66.2</ele>
        <time>2022-07-26T09:37:53Z</time>
      </trkpt>
      <trkpt lat="44.62464" lon="-0.18605">
        <ele>66.2</ele>
        <time>2022-07-26T09:37:55Z</time>
      </trkpt>
      <trkpt lat="44.62463" lon="-0.18605">
        <ele>66.2</ele>
        <time>2022-07-26T09:37:56Z</time>
      </trkpt>
      <trkpt lat="44.62462" lon="-0.18605">
        <ele>66.3</ele>
        <time>2022-07-26T09:37:57Z</time>
      </trkpt>
      <trkpt lat="44.62461" lon="-0.18605">
        <ele>66.3</ele>
        <time>2022-07-26T09:37:58Z</time>
      </trkpt>
      <trkpt lat="44.62459" lon="-0.18605">
        <ele>66.5</ele>
        <time>2022-07-26T09:37:59Z</time>
      </trkpt>
      <trkpt lat="44.62458" lon="-0.18605">
        <ele>66.5</ele>
        <time>2022-07-26T09:38:01Z</time>
      </trkpt>
      <trkpt lat="44.62457" lon="-0.18606">
        <ele>66.5</ele>
        <time>2022-07-26T09:38:02Z</time>
      </trkpt>
      <trkpt lat="44.62456" lon="-0.18606">
        <ele>66.6</ele>
        <time>2022-07-26T09:38:03Z</time>
      </trkpt>
      <trkpt lat="44.62456" lon="-0.18606">
        <ele>66.6</ele>
        <time>2022-07-26T09:38:04Z</time>
      </trkpt>
      <trkpt lat="44.62455" lon="-0.18607">
        <ele>66.6</ele>
        <time>2022-07-26T09:38:05Z</time>
      </trkpt>
      <trkpt lat="44.62454" lon="-0.18608">
        <ele>66.6</ele>
        <time>2022-07-26T09:38:07Z</time>
      </trkpt>
      <trkpt lat="44.62453" lon="-0.18608">
        <ele>67</ele>
        <time>2022-07-26T09:38:08Z</time>
      </trkpt>
      <trkpt lat="44.62453" lon="-0.18609">
        <ele>67</ele>
        <time>2022-07-26T09:38:09Z</time>
      </trkpt>
      <trkpt lat="44.62452" lon="-0.1861">
        <ele>67</ele>
        <time>2022-07-26T09:38:10Z</time>
      </trkpt>
      <trkpt lat="44.62451" lon="-0.18611">
        <ele>67</ele>
        <time>2022-07-26T09:38:12Z</time>
      </trkpt>
      <trkpt lat="44.6245" lon="-0.18612">
        <ele>67.3</ele>
        <time>2022-07-26T09:38:13Z</time>
      </trkpt>
      <trkpt lat="44.62449" lon="-0.18613">
        <ele>67.3</ele>
        <time>2022-07-26T09:38:14Z</time>
      </trkpt>
      <trkpt lat="44.62448" lon="-0.18613">
        <ele>67.3</ele>
        <time>2022-07-26T09:38:15Z</time>
      </trkpt>
      <trkpt lat="44.62447" lon="-0.18614">
        <ele>67.5</ele>
        <time>2022-07-26T09:38:16Z</time>
      </trkpt>
      <trkpt lat="44.62446" lon="-0.18614">
        <ele>67.5</ele>
        <time>2022-07-26T09:38:17Z</time>
      </trkpt>
      <trkpt lat="44.62444" lon="-0.18616">
        <ele>67.6</ele>
        <time>2022-07-26T09:38:18Z</time>
      </trkpt>
      <trkpt lat="44.62443" lon="-0.18617">
        <ele>67.9</ele>
        <time>2022-07-26T09:38:20Z</time>
      </trkpt>
      <trkpt lat="44.62442" lon="-0.18618">
        <ele>67.9</ele>
        <time>2022-07-26T09:38:21Z</time>
      </trkpt>
      <trkpt lat="44.62441" lon="-0.18618">
        <ele>68</ele>
        <time>2022-07-26T09:38:22Z</time>
      </trkpt>
      <trkpt lat="44.6244" lon="-0.18619">
        <ele>68</ele>
        <time>2022-07-26T09:38:23Z</time>
      </trkpt>
      <trkpt lat="44.62437" lon="-0.1862">
        <ele>68.2</ele>
        <time>2022-07-26T09:38:25Z</time>
      </trkpt>
      <trkpt lat="44.62436" lon="-0.18619">
        <ele>68.2</ele>
        <time>2022-07-26T09:38:26Z</time>
      </trkpt>
      <trkpt lat="44.62435" lon="-0.18618">
        <ele>68.2</ele>
        <time>2022-07-26T09:38:27Z</time>
      </trkpt>
      <trkpt lat="44.62434" lon="-0.18616">
        <ele>68.1</ele>
        <time>2022-07-26T09:38:29Z</time>
      </trkpt>
      <trkpt lat="44.62434" lon="-0.18613">
        <ele>68.1</ele>
        <time>2022-07-26T09:38:30Z</time>
      </trkpt>
      <trkpt lat="44.62433" lon="-0.18612">
        <ele>67.9</ele>
        <time>2022-07-26T09:38:31Z</time>
      </trkpt>
      <trkpt lat="44.62432" lon="-0.1861">
        <ele>68</ele>
        <time>2022-07-26T09:38:32Z</time>
      </trkpt>
      <trkpt lat="44.62431" lon="-0.18609">
        <ele>68</ele>
        <time>2022-07-26T09:38:33Z</time>
      </trkpt>
      <trkpt lat="44.62431" lon="-0.18608">
        <ele>67.7</ele>
        <time>2022-07-26T09:38:34Z</time>
      </trkpt>
      <trkpt lat="44.6243" lon="-0.18607">
        <ele>67.7</ele>
        <time>2022-07-26T09:38:35Z</time>
      </trkpt>
      <trkpt lat="44.62428" lon="-0.18606">
        <ele>67.9</ele>
        <time>2022-07-26T09:38:36Z</time>
      </trkpt>
      <trkpt lat="44.62427" lon="-0.18605">
        <ele>67.9</ele>
        <time>2022-07-26T09:38:37Z</time>
      </trkpt>
      <trkpt lat="44.62426" lon="-0.18604">
        <ele>68</ele>
        <time>2022-07-26T09:38:38Z</time>
      </trkpt>
      <trkpt lat="44.62424" lon="-0.18604">
        <ele>68</ele>
        <time>2022-07-26T09:38:39Z</time>
      </trkpt>
      <trkpt lat="44.62423" lon="-0.18605">
        <ele>68.1</ele>
        <time>2022-07-26T09:38:40Z</time>
      </trkpt>
      <trkpt lat="44.62421" lon="-0.18606">
        <ele>68.1</ele>
        <time>2022-07-26T09:38:41Z</time>
      </trkpt>
      <trkpt lat="44.6242" lon="-0.18607">
        <ele>68.1</ele>
        <time>2022-07-26T09:38:42Z</time>
      </trkpt>
      <trkpt lat="44.62418" lon="-0.1861">
        <ele>68.5</ele>
        <time>2022-07-26T09:38:43Z</time>
      </trkpt>
      <trkpt lat="44.62417" lon="-0.1861">
        <ele>68.5</ele>
        <time>2022-07-26T09:38:44Z</time>
      </trkpt>
      <trkpt lat="44.62416" lon="-0.18611">
        <ele>68.6</ele>
        <time>2022-07-26T09:38:46Z</time>
      </trkpt>
      <trkpt lat="44.62415" lon="-0.18612">
        <ele>68.6</ele>
        <time>2022-07-26T09:38:47Z</time>
      </trkpt>
      <trkpt lat="44.62412" lon="-0.18611">
        <ele>68.6</ele>
        <time>2022-07-26T09:38:48Z</time>
      </trkpt>
      <trkpt lat="44.62411" lon="-0.18611">
        <ele>68.6</ele>
        <time>2022-07-26T09:38:49Z</time>
      </trkpt>
      <trkpt lat="44.62411" lon="-0.18611">
        <ele>68.6</ele>
        <time>2022-07-26T09:38:50Z</time>
      </trkpt>
      <trkpt lat="44.6241" lon="-0.18611">
        <ele>68.7</ele>
        <time>2022-07-26T09:38:51Z</time>
      </trkpt>
      <trkpt lat="44.62409" lon="-0.1861">
        <ele>68.7</ele>
        <time>2022-07-26T09:38:52Z</time>
      </trkpt>
      <trkpt lat="44.62407" lon="-0.18608">
        <ele>68.5</ele>
        <time>2022-07-26T09:38:54Z</time>
      </trkpt>
      <trkpt lat="44.62406" lon="-0.18606">
        <ele>68.5</ele>
        <time>2022-07-26T09:38:55Z</time>
      </trkpt>
      <trkpt lat="44.62405" lon="-0.18605">
        <ele>68.5</ele>
        <time>2022-07-26T09:38:56Z</time>
      </trkpt>
      <trkpt lat="44.62405" lon="-0.18604">
        <ele>68.5</ele>
        <time>2022-07-26T09:38:57Z</time>
      </trkpt>
      <trkpt lat="44.62404" lon="-0.18603">
        <ele>68.3</ele>
        <time>2022-07-26T09:38:58Z</time>
      </trkpt>
      <trkpt lat="44.62403" lon="-0.18602">
        <ele>68.3</ele>
        <time>2022-07-26T09:38:59Z</time>
      </trkpt>
      <trkpt lat="44.62401" lon="-0.186">
        <ele>68.3</ele>
        <time>2022-07-26T09:39:01Z</time>
      </trkpt>
      <trkpt lat="44.624" lon="-0.18599">
        <ele>68.1</ele>
        <time>2022-07-26T09:39:02Z</time>
      </trkpt>
      <trkpt lat="44.624" lon="-0.18597">
        <ele>68.1</ele>
        <time>2022-07-26T09:39:03Z</time>
      </trkpt>
      <trkpt lat="44.624" lon="-0.18595">
        <ele>68.1</ele>
        <time>2022-07-26T09:39:04Z</time>
      </trkpt>
      <trkpt lat="44.624" lon="-0.18594">
        <ele>67.9</ele>
        <time>2022-07-26T09:39:05Z</time>
      </trkpt>
      <trkpt lat="44.62401" lon="-0.18592">
        <ele>67.8</ele>
        <time>2022-07-26T09:39:06Z</time>
      </trkpt>
      <trkpt lat="44.62402" lon="-0.18591">
        <ele>67.6</ele>
        <time>2022-07-26T09:39:07Z</time>
      </trkpt>
      <trkpt lat="44.62403" lon="-0.1859">
        <ele>67.6</ele>
        <time>2022-07-26T09:39:08Z</time>
      </trkpt>
      <trkpt lat="44.62403" lon="-0.18588">
        <ele>67.6</ele>
        <time>2022-07-26T09:39:10Z</time>
      </trkpt>
      <trkpt lat="44.62403" lon="-0.18585">
        <ele>67.4</ele>
        <time>2022-07-26T09:39:11Z</time>
      </trkpt>
      <trkpt lat="44.62402" lon="-0.18584">
        <ele>67.4</ele>
        <time>2022-07-26T09:39:12Z</time>
      </trkpt>
      <trkpt lat="44.62401" lon="-0.18583">
        <ele>67.4</ele>
        <time>2022-07-26T09:39:13Z</time>
      </trkpt>
      <trkpt lat="44.62401" lon="-0.18581">
        <ele>67.2</ele>
        <time>2022-07-26T09:39:14Z</time>
      </trkpt>
      <trkpt lat="44.62399" lon="-0.1858">
        <ele>67.2</ele>
        <time>2022-07-26T09:39:15Z</time>
      </trkpt>
      <trkpt lat="44.62398" lon="-0.1858">
        <ele>67.2</ele>
        <time>2022-07-26T09:39:16Z</time>
      </trkpt>
      <trkpt lat="44.62396" lon="-0.18581">
        <ele>67.2</ele>
        <time>2022-07-26T09:39:17Z</time>
      </trkpt>
      <trkpt lat="44.62394" lon="-0.18581">
        <ele>67.3</ele>
        <time>2022-07-26T09:39:19Z</time>
      </trkpt>
      <trkpt lat="44.62392" lon="-0.18581">
        <ele>67.3</ele>
        <time>2022-07-26T09:39:20Z</time>
      </trkpt>
      <trkpt lat="44.62391" lon="-0.18581">
        <ele>67.3</ele>
        <time>2022-07-26T09:39:21Z</time>
      </trkpt>
      <trkpt lat="44.6239" lon="-0.18581">
        <ele>67.3</ele>
        <time>2022-07-26T09:39:22Z</time>
      </trkpt>
      <trkpt lat="44.62388" lon="-0.18581">
        <ele>67.3</ele>
        <time>2022-07-26T09:39:24Z</time>
      </trkpt>
      <trkpt lat="44.62386" lon="-0.18582">
        <ele>67.3</ele>
        <time>2022-07-26T09:39:25Z</time>
      </trkpt>
      <trkpt lat="44.62384" lon="-0.18582">
        <ele>67.3</ele>
        <time>2022-07-26T09:39:26Z</time>
      </trkpt>
      <trkpt lat="44.62383" lon="-0.18583">
        <ele>67.5</ele>
        <time>2022-07-26T09:39:28Z</time>
      </trkpt>
      <trkpt lat="44.62381" lon="-0.18583">
        <ele>67.5</ele>
        <time>2022-07-26T09:39:29Z</time>
      </trkpt>
      <trkpt lat="44.62379" lon="-0.18584">
        <ele>67.5</ele>
        <time>2022-07-26T09:39:30Z</time>
      </trkpt>
      <trkpt lat="44.62378" lon="-0.18584">
        <ele>67.5</ele>
        <time>2022-07-26T09:39:31Z</time>
      </trkpt>
      <trkpt lat="44.62377" lon="-0.18584">
        <ele>67.5</ele>
        <time>2022-07-26T09:39:32Z</time>
      </trkpt>
      <trkpt lat="44.62376" lon="-0.18584">
        <ele>67.5</ele>
        <time>2022-07-26T09:39:33Z</time>
      </trkpt>
      <trkpt lat="44.62375" lon="-0.18583">
        <ele>67.5</ele>
        <time>2022-07-26T09:39:34Z</time>
      </trkpt>
      <trkpt lat="44.62373" lon="-0.18581">
        <ele>67.3</ele>
        <time>2022-07-26T09:39:35Z</time>
      </trkpt>
      <trkpt lat="44.62372" lon="-0.18579">
        <ele>67.3</ele>
        <time>2022-07-26T09:39:37Z</time>
      </trkpt>
      <trkpt lat="44.62372" lon="-0.18577">
        <ele>67.1</ele>
        <time>2022-07-26T09:39:38Z</time>
      </trkpt>
      <trkpt lat="44.6237" lon="-0.18573">
        <ele>66.9</ele>
        <time>2022-07-26T09:39:41Z</time>
      </trkpt>
      <trkpt lat="44.62369" lon="-0.18571">
        <ele>66.9</ele>
        <time>2022-07-26T09:39:42Z</time>
      </trkpt>
      <trkpt lat="44.62369" lon="-0.18569">
        <ele>66.6</ele>
        <time>2022-07-26T09:39:43Z</time>
      </trkpt>
      <trkpt lat="44.62368" lon="-0.18567">
        <ele>66.6</ele>
        <time>2022-07-26T09:39:44Z</time>
      </trkpt>
      <trkpt lat="44.62367" lon="-0.18564">
        <ele>66.4</ele>
        <time>2022-07-26T09:39:46Z</time>
      </trkpt>
      <trkpt lat="44.62367" lon="-0.18563">
        <ele>66.4</ele>
        <time>2022-07-26T09:39:47Z</time>
      </trkpt>
      <trkpt lat="44.62366" lon="-0.18562">
        <ele>66.4</ele>
        <time>2022-07-26T09:39:48Z</time>
      </trkpt>
      <trkpt lat="44.62365" lon="-0.18561">
        <ele>66.4</ele>
        <time>2022-07-26T09:39:49Z</time>
      </trkpt>
      <trkpt lat="44.62362" lon="-0.18561">
        <ele>66.4</ele>
        <time>2022-07-26T09:39:51Z</time>
      </trkpt>
      <trkpt lat="44.62361" lon="-0.18562">
        <ele>66.4</ele>
        <time>2022-07-26T09:39:52Z</time>
      </trkpt>
      <trkpt lat="44.6236" lon="-0.18563">
        <ele>66.4</ele>
        <time>2022-07-26T09:39:53Z</time>
      </trkpt>
      <trkpt lat="44.62359" lon="-0.18564">
        <ele>66.4</ele>
        <time>2022-07-26T09:39:54Z</time>
      </trkpt>
      <trkpt lat="44.62358" lon="-0.18568">
        <ele>66.6</ele>
        <time>2022-07-26T09:39:56Z</time>
      </trkpt>
      <trkpt lat="44.62357" lon="-0.18571">
        <ele>66.8</ele>
        <time>2022-07-26T09:39:57Z</time>
      </trkpt>
      <trkpt lat="44.62356" lon="-0.18573">
        <ele>66.8</ele>
        <time>2022-07-26T09:39:58Z</time>
      </trkpt>
      <trkpt lat="44.62355" lon="-0.18575">
        <ele>67</ele>
        <time>2022-07-26T09:39:59Z</time>
      </trkpt>
      <trkpt lat="44.62354" lon="-0.18579">
        <ele>67.2</ele>
        <time>2022-07-26T09:40:01Z</time>
      </trkpt>
      <trkpt lat="44.62353" lon="-0.18581">
        <ele>67.2</ele>
        <time>2022-07-26T09:40:02Z</time>
      </trkpt>
      <trkpt lat="44.62353" lon="-0.18582">
        <ele>67.2</ele>
        <time>2022-07-26T09:40:03Z</time>
      </trkpt>
      <trkpt lat="44.62352" lon="-0.18583">
        <ele>67.3</ele>
        <time>2022-07-26T09:40:04Z</time>
      </trkpt>
      <trkpt lat="44.62351" lon="-0.18586">
        <ele>67.3</ele>
        <time>2022-07-26T09:40:05Z</time>
      </trkpt>
      <trkpt lat="44.6235" lon="-0.18587">
        <ele>67.5</ele>
        <time>2022-07-26T09:40:06Z</time>
      </trkpt>
      <trkpt lat="44.6235" lon="-0.18589">
        <ele>67.5</ele>
        <time>2022-07-26T09:40:07Z</time>
      </trkpt>
      <trkpt lat="44.62349" lon="-0.1859">
        <ele>67.5</ele>
        <time>2022-07-26T09:40:08Z</time>
      </trkpt>
      <trkpt lat="44.62348" lon="-0.18592">
        <ele>67.6</ele>
        <time>2022-07-26T09:40:09Z</time>
      </trkpt>
      <trkpt lat="44.62348" lon="-0.18593">
        <ele>67.6</ele>
        <time>2022-07-26T09:40:10Z</time>
      </trkpt>
      <trkpt lat="44.62346" lon="-0.18596">
        <ele>67.8</ele>
        <time>2022-07-26T09:40:11Z</time>
      </trkpt>
      <trkpt lat="44.62345" lon="-0.18598">
        <ele>67.8</ele>
        <time>2022-07-26T09:40:13Z</time>
      </trkpt>
      <trkpt lat="44.62344" lon="-0.18599">
        <ele>67.8</ele>
        <time>2022-07-26T09:40:14Z</time>
      </trkpt>
      <trkpt lat="44.62343" lon="-0.186">
        <ele>67.9</ele>
        <time>2022-07-26T09:40:15Z</time>
      </trkpt>
      <trkpt lat="44.62342" lon="-0.18602">
        <ele>67.9</ele>
        <time>2022-07-26T09:40:16Z</time>
      </trkpt>
      <trkpt lat="44.62342" lon="-0.18603">
        <ele>67.9</ele>
        <time>2022-07-26T09:40:17Z</time>
      </trkpt>
      <trkpt lat="44.62341" lon="-0.18604">
        <ele>68.1</ele>
        <time>2022-07-26T09:40:18Z</time>
      </trkpt>
      <trkpt lat="44.6234" lon="-0.18605">
        <ele>68</ele>
        <time>2022-07-26T09:40:19Z</time>
      </trkpt>
      <trkpt lat="44.62339" lon="-0.18608">
        <ele>68</ele>
        <time>2022-07-26T09:40:21Z</time>
      </trkpt>
      <trkpt lat="44.62338" lon="-0.18608">
        <ele>68</ele>
        <time>2022-07-26T09:40:22Z</time>
      </trkpt>
      <trkpt lat="44.62337" lon="-0.18609">
        <ele>68.1</ele>
        <time>2022-07-26T09:40:23Z</time>
      </trkpt>
      <trkpt lat="44.62336" lon="-0.18609">
        <ele>68.1</ele>
        <time>2022-07-26T09:40:24Z</time>
      </trkpt>
      <trkpt lat="44.62332" lon="-0.18611">
        <ele>68</ele>
        <time>2022-07-26T09:40:26Z</time>
      </trkpt>
      <trkpt lat="44.62331" lon="-0.1861">
        <ele>68</ele>
        <time>2022-07-26T09:40:27Z</time>
      </trkpt>
      <trkpt lat="44.6233" lon="-0.1861">
        <ele>68</ele>
        <time>2022-07-26T09:40:28Z</time>
      </trkpt>
      <trkpt lat="44.62329" lon="-0.1861">
        <ele>68</ele>
        <time>2022-07-26T09:40:29Z</time>
      </trkpt>
      <trkpt lat="44.62325" lon="-0.18608">
        <ele>67.9</ele>
        <time>2022-07-26T09:40:31Z</time>
      </trkpt>
      <trkpt lat="44.62324" lon="-0.18607">
        <ele>67.8</ele>
        <time>2022-07-26T09:40:32Z</time>
      </trkpt>
      <trkpt lat="44.62323" lon="-0.18607">
        <ele>67.8</ele>
        <time>2022-07-26T09:40:33Z</time>
      </trkpt>
      <trkpt lat="44.62322" lon="-0.18606">
        <ele>67.8</ele>
        <time>2022-07-26T09:40:34Z</time>
      </trkpt>
      <trkpt lat="44.62321" lon="-0.18605">
        <ele>67.7</ele>
        <time>2022-07-26T09:40:35Z</time>
      </trkpt>
      <trkpt lat="44.62319" lon="-0.18604">
        <ele>67.6</ele>
        <time>2022-07-26T09:40:36Z</time>
      </trkpt>
      <trkpt lat="44.62318" lon="-0.18603">
        <ele>67.5</ele>
        <time>2022-07-26T09:40:37Z</time>
      </trkpt>
      <trkpt lat="44.62317" lon="-0.18603">
        <ele>67.5</ele>
        <time>2022-07-26T09:40:38Z</time>
      </trkpt>
      <trkpt lat="44.62316" lon="-0.18602">
        <ele>67.5</ele>
        <time>2022-07-26T09:40:40Z</time>
      </trkpt>
      <trkpt lat="44.62314" lon="-0.18602">
        <ele>67.5</ele>
        <time>2022-07-26T09:40:41Z</time>
      </trkpt>
      <trkpt lat="44.62313" lon="-0.18602">
        <ele>67.5</ele>
        <time>2022-07-26T09:40:42Z</time>
      </trkpt>
      <trkpt lat="44.62311" lon="-0.18603">
        <ele>67.4</ele>
        <time>2022-07-26T09:40:43Z</time>
      </trkpt>
      <trkpt lat="44.6231" lon="-0.18603">
        <ele>67.4</ele>
        <time>2022-07-26T09:40:44Z</time>
      </trkpt>
      <trkpt lat="44.6231" lon="-0.18604">
        <ele>67.5</ele>
        <time>2022-07-26T09:40:45Z</time>
      </trkpt>
      <trkpt lat="44.62308" lon="-0.18605">
        <ele>67.5</ele>
        <time>2022-07-26T09:40:46Z</time>
      </trkpt>
      <trkpt lat="44.62307" lon="-0.18607">
        <ele>67.5</ele>
        <time>2022-07-26T09:40:47Z</time>
      </trkpt>
      <trkpt lat="44.62305" lon="-0.18609">
        <ele>67.6</ele>
        <time>2022-07-26T09:40:49Z</time>
      </trkpt>
      <trkpt lat="44.62305" lon="-0.18611">
        <ele>67.6</ele>
        <time>2022-07-26T09:40:50Z</time>
      </trkpt>
      <trkpt lat="44.62304" lon="-0.18612">
        <ele>67.6</ele>
        <time>2022-07-26T09:40:51Z</time>
      </trkpt>
      <trkpt lat="44.62304" lon="-0.18613">
        <ele>67.7</ele>
        <time>2022-07-26T09:40:52Z</time>
      </trkpt>
      <trkpt lat="44.62304" lon="-0.18616">
        <ele>67.7</ele>
        <time>2022-07-26T09:40:53Z</time>
      </trkpt>
      <trkpt lat="44.62304" lon="-0.18618">
        <ele>67.8</ele>
        <time>2022-07-26T09:40:54Z</time>
      </trkpt>
      <trkpt lat="44.62304" lon="-0.18621">
        <ele>67.8</ele>
        <time>2022-07-26T09:40:56Z</time>
      </trkpt>
      <trkpt lat="44.62304" lon="-0.18623">
        <ele>67.8</ele>
        <time>2022-07-26T09:40:57Z</time>
      </trkpt>
      <trkpt lat="44.62304" lon="-0.18625">
        <ele>67.8</ele>
        <time>2022-07-26T09:40:58Z</time>
      </trkpt>
      <trkpt lat="44.62304" lon="-0.18626">
        <ele>67.9</ele>
        <time>2022-07-26T09:40:59Z</time>
      </trkpt>
      <trkpt lat="44.62304" lon="-0.1863">
        <ele>68</ele>
        <time>2022-07-26T09:41:01Z</time>
      </trkpt>
      <trkpt lat="44.62303" lon="-0.18631">
        <ele>68</ele>
        <time>2022-07-26T09:41:02Z</time>
      </trkpt>
      <trkpt lat="44.62302" lon="-0.18632">
        <ele>68</ele>
        <time>2022-07-26T09:41:03Z</time>
      </trkpt>
      <trkpt lat="44.62301" lon="-0.18632">
        <ele>68</ele>
        <time>2022-07-26T09:41:04Z</time>
      </trkpt>
      <trkpt lat="44.62298" lon="-0.18633">
        <ele>67.9</ele>
        <time>2022-07-26T09:41:05Z</time>
      </trkpt>
      <trkpt lat="44.62297" lon="-0.18633">
        <ele>67.8</ele>
        <time>2022-07-26T09:41:06Z</time>
      </trkpt>
      <trkpt lat="44.62296" lon="-0.18633">
        <ele>67.8</ele>
        <time>2022-07-26T09:41:07Z</time>
      </trkpt>
      <trkpt lat="44.62294" lon="-0.18633">
        <ele>67.8</ele>
        <time>2022-07-26T09:41:09Z</time>
      </trkpt>
      <trkpt lat="44.62293" lon="-0.18633">
        <ele>67.8</ele>
        <time>2022-07-26T09:41:10Z</time>
      </trkpt>
      <trkpt lat="44.62291" lon="-0.18633">
        <ele>67.7</ele>
        <time>2022-07-26T09:41:11Z</time>
      </trkpt>
      <trkpt lat="44.62291" lon="-0.18631">
        <ele>67.7</ele>
        <time>2022-07-26T09:41:12Z</time>
      </trkpt>
      <trkpt lat="44.62291" lon="-0.1863">
        <ele>67.7</ele>
        <time>2022-07-26T09:41:13Z</time>
      </trkpt>
      <trkpt lat="44.62291" lon="-0.1863">
        <ele>67.7</ele>
        <time>2022-07-26T09:41:14Z</time>
      </trkpt>
      <trkpt lat="44.6229" lon="-0.18629">
        <ele>67.6</ele>
        <time>2022-07-26T09:41:15Z</time>
      </trkpt>
      <trkpt lat="44.62289" lon="-0.18629">
        <ele>67.6</ele>
        <time>2022-07-26T09:41:16Z</time>
      </trkpt>
      <trkpt lat="44.62288" lon="-0.18629">
        <ele>67.6</ele>
        <time>2022-07-26T09:41:17Z</time>
      </trkpt>
      <trkpt lat="44.62287" lon="-0.18629">
        <ele>67.6</ele>
        <time>2022-07-26T09:41:18Z</time>
      </trkpt>
      <trkpt lat="44.62286" lon="-0.18629">
        <ele>67.6</ele>
        <time>2022-07-26T09:41:19Z</time>
      </trkpt>
      <trkpt lat="44.62285" lon="-0.1863">
        <ele>67.6</ele>
        <time>2022-07-26T09:41:20Z</time>
      </trkpt>
      <trkpt lat="44.62284" lon="-0.18631">
        <ele>67.6</ele>
        <time>2022-07-26T09:41:21Z</time>
      </trkpt>
      <trkpt lat="44.62283" lon="-0.18631">
        <ele>67.6</ele>
        <time>2022-07-26T09:41:22Z</time>
      </trkpt>
      <trkpt lat="44.6228" lon="-0.18634">
        <ele>67.6</ele>
        <time>2022-07-26T09:41:24Z</time>
      </trkpt>
      <trkpt lat="44.62279" lon="-0.18635">
        <ele>67.5</ele>
        <time>2022-07-26T09:41:25Z</time>
      </trkpt>
      <trkpt lat="44.62278" lon="-0.18636">
        <ele>67.5</ele>
        <time>2022-07-26T09:41:26Z</time>
      </trkpt>
      <trkpt lat="44.62276" lon="-0.18637">
        <ele>67.5</ele>
        <time>2022-07-26T09:41:27Z</time>
      </trkpt>
      <trkpt lat="44.62275" lon="-0.18638">
        <ele>67.5</ele>
        <time>2022-07-26T09:41:28Z</time>
      </trkpt>
      <trkpt lat="44.62273" lon="-0.18639">
        <ele>67.5</ele>
        <time>2022-07-26T09:41:30Z</time>
      </trkpt>
      <trkpt lat="44.62271" lon="-0.1864">
        <ele>67.5</ele>
        <time>2022-07-26T09:41:31Z</time>
      </trkpt>
      <trkpt lat="44.6227" lon="-0.18641">
        <ele>67.5</ele>
        <time>2022-07-26T09:41:32Z</time>
      </trkpt>
      <trkpt lat="44.62269" lon="-0.18642">
        <ele>67.4</ele>
        <time>2022-07-26T09:41:33Z</time>
      </trkpt>
      <trkpt lat="44.62266" lon="-0.18643">
        <ele>67.4</ele>
        <time>2022-07-26T09:41:35Z</time>
      </trkpt>
      <trkpt lat="44.62265" lon="-0.18645">
        <ele>67.4</ele>
        <time>2022-07-26T09:41:36Z</time>
      </trkpt>
      <trkpt lat="44.62264" lon="-0.18646">
        <ele>67.4</ele>
        <time>2022-07-26T09:41:37Z</time>
      </trkpt>
      <trkpt lat="44.62264" lon="-0.18646">
        <ele>67.3</ele>
        <time>2022-07-26T09:41:38Z</time>
      </trkpt>
      <trkpt lat="44.62262" lon="-0.18648">
        <ele>67.4</ele>
        <time>2022-07-26T09:41:39Z</time>
      </trkpt>
      <trkpt lat="44.62261" lon="-0.18649">
        <ele>67.4</ele>
        <time>2022-07-26T09:41:40Z</time>
      </trkpt>
      <trkpt lat="44.6226" lon="-0.18652">
        <ele>67.4</ele>
        <time>2022-07-26T09:41:41Z</time>
      </trkpt>
      <trkpt lat="44.62259" lon="-0.18654">
        <ele>67.4</ele>
        <time>2022-07-26T09:41:43Z</time>
      </trkpt>
      <trkpt lat="44.62258" lon="-0.18655">
        <ele>67.4</ele>
        <time>2022-07-26T09:41:44Z</time>
      </trkpt>
      <trkpt lat="44.62257" lon="-0.18657">
        <ele>67.4</ele>
        <time>2022-07-26T09:41:45Z</time>
      </trkpt>
      <trkpt lat="44.62256" lon="-0.18658">
        <ele>67.4</ele>
        <time>2022-07-26T09:41:47Z</time>
      </trkpt>
      <trkpt lat="44.62255" lon="-0.18659">
        <ele>67.3</ele>
        <time>2022-07-26T09:41:48Z</time>
      </trkpt>
      <trkpt lat="44.62252" lon="-0.1866">
        <ele>67.3</ele>
        <time>2022-07-26T09:41:49Z</time>
      </trkpt>
      <trkpt lat="44.62251" lon="-0.18659">
        <ele>67.1</ele>
        <time>2022-07-26T09:41:50Z</time>
      </trkpt>
      <trkpt lat="44.6225" lon="-0.18659">
        <ele>67.1</ele>
        <time>2022-07-26T09:41:51Z</time>
      </trkpt>
      <trkpt lat="44.62249" lon="-0.18659">
        <ele>67.1</ele>
        <time>2022-07-26T09:41:52Z</time>
      </trkpt>
      <trkpt lat="44.62246" lon="-0.18658">
        <ele>67</ele>
        <time>2022-07-26T09:41:54Z</time>
      </trkpt>
      <trkpt lat="44.62244" lon="-0.18656">
        <ele>66.9</ele>
        <time>2022-07-26T09:41:56Z</time>
      </trkpt>
      <trkpt lat="44.62243" lon="-0.18656">
        <ele>66.9</ele>
        <time>2022-07-26T09:41:57Z</time>
      </trkpt>
      <trkpt lat="44.62243" lon="-0.18655">
        <ele>66.8</ele>
        <time>2022-07-26T09:41:58Z</time>
      </trkpt>
      <trkpt lat="44.6224" lon="-0.18655">
        <ele>66.8</ele>
        <time>2022-07-26T09:42:00Z</time>
      </trkpt>
      <trkpt lat="44.62239" lon="-0.18655">
        <ele>66.7</ele>
        <time>2022-07-26T09:42:01Z</time>
      </trkpt>
      <trkpt lat="44.62238" lon="-0.18656">
        <ele>66.7</ele>
        <time>2022-07-26T09:42:02Z</time>
      </trkpt>
      <trkpt lat="44.62237" lon="-0.18657">
        <ele>66.7</ele>
        <time>2022-07-26T09:42:03Z</time>
      </trkpt>
      <trkpt lat="44.62236" lon="-0.18658">
        <ele>66.6</ele>
        <time>2022-07-26T09:42:04Z</time>
      </trkpt>
      <trkpt lat="44.62234" lon="-0.18659">
        <ele>66.6</ele>
        <time>2022-07-26T09:42:05Z</time>
      </trkpt>
      <trkpt lat="44.62234" lon="-0.1866">
        <ele>66.6</ele>
        <time>2022-07-26T09:42:06Z</time>
      </trkpt>
      <trkpt lat="44.62233" lon="-0.1866">
        <ele>66.5</ele>
        <time>2022-07-26T09:42:07Z</time>
      </trkpt>
      <trkpt lat="44.62231" lon="-0.1866">
        <ele>66.5</ele>
        <time>2022-07-26T09:42:08Z</time>
      </trkpt>
      <trkpt lat="44.6223" lon="-0.18659">
        <ele>66.4</ele>
        <time>2022-07-26T09:42:09Z</time>
      </trkpt>
      <trkpt lat="44.62229" lon="-0.18659">
        <ele>66.4</ele>
        <time>2022-07-26T09:42:10Z</time>
      </trkpt>
      <trkpt lat="44.62227" lon="-0.18658">
        <ele>66.4</ele>
        <time>2022-07-26T09:42:11Z</time>
      </trkpt>
      <trkpt lat="44.62227" lon="-0.18658">
        <ele>66.3</ele>
        <time>2022-07-26T09:42:12Z</time>
      </trkpt>
      <trkpt lat="44.62225" lon="-0.18657">
        <ele>66.3</ele>
        <time>2022-07-26T09:42:13Z</time>
      </trkpt>
      <trkpt lat="44.62224" lon="-0.18657">
        <ele>66.1</ele>
        <time>2022-07-26T09:42:14Z</time>
      </trkpt>
      <trkpt lat="44.62222" lon="-0.18657">
        <ele>66.1</ele>
        <time>2022-07-26T09:42:15Z</time>
      </trkpt>
      <trkpt lat="44.62221" lon="-0.18657">
        <ele>66</ele>
        <time>2022-07-26T09:42:16Z</time>
      </trkpt>
      <trkpt lat="44.62219" lon="-0.18656">
        <ele>66</ele>
        <time>2022-07-26T09:42:18Z</time>
      </trkpt>
      <trkpt lat="44.62217" lon="-0.18657">
        <ele>65.8</ele>
        <time>2022-07-26T09:42:20Z</time>
      </trkpt>
      <trkpt lat="44.62215" lon="-0.18657">
        <ele>65.8</ele>
        <time>2022-07-26T09:42:21Z</time>
      </trkpt>
      <trkpt lat="44.62214" lon="-0.18658">
        <ele>65.7</ele>
        <time>2022-07-26T09:42:23Z</time>
      </trkpt>
      <trkpt lat="44.62212" lon="-0.18658">
        <ele>65.7</ele>
        <time>2022-07-26T09:42:24Z</time>
      </trkpt>
      <trkpt lat="44.6221" lon="-0.18658">
        <ele>65.6</ele>
        <time>2022-07-26T09:42:25Z</time>
      </trkpt>
      <trkpt lat="44.6221" lon="-0.18657">
        <ele>65.6</ele>
        <time>2022-07-26T09:42:26Z</time>
      </trkpt>
      <trkpt lat="44.62208" lon="-0.18657">
        <ele>65.4</ele>
        <time>2022-07-26T09:42:27Z</time>
      </trkpt>
      <trkpt lat="44.62207" lon="-0.18656">
        <ele>65.4</ele>
        <time>2022-07-26T09:42:28Z</time>
      </trkpt>
      <trkpt lat="44.62206" lon="-0.18655">
        <ele>65.4</ele>
        <time>2022-07-26T09:42:29Z</time>
      </trkpt>
      <trkpt lat="44.62205" lon="-0.18655">
        <ele>65.2</ele>
        <time>2022-07-26T09:42:30Z</time>
      </trkpt>
      <trkpt lat="44.62204" lon="-0.18654">
        <ele>65.2</ele>
        <time>2022-07-26T09:42:31Z</time>
      </trkpt>
      <trkpt lat="44.62203" lon="-0.18652">
        <ele>65.1</ele>
        <time>2022-07-26T09:42:32Z</time>
      </trkpt>
      <trkpt lat="44.62202" lon="-0.18652">
        <ele>65.1</ele>
        <time>2022-07-26T09:42:33Z</time>
      </trkpt>
      <trkpt lat="44.62201" lon="-0.18651">
        <ele>65</ele>
        <time>2022-07-26T09:42:34Z</time>
      </trkpt>
      <trkpt lat="44.622" lon="-0.1865">
        <ele>65</ele>
        <time>2022-07-26T09:42:35Z</time>
      </trkpt>
      <trkpt lat="44.62199" lon="-0.18649">
        <ele>64.9</ele>
        <time>2022-07-26T09:42:36Z</time>
      </trkpt>
      <trkpt lat="44.62198" lon="-0.18648">
        <ele>64.9</ele>
        <time>2022-07-26T09:42:38Z</time>
      </trkpt>
      <trkpt lat="44.62196" lon="-0.18648">
        <ele>64.7</ele>
        <time>2022-07-26T09:42:39Z</time>
      </trkpt>
      <trkpt lat="44.62195" lon="-0.18648">
        <ele>64.7</ele>
        <time>2022-07-26T09:42:40Z</time>
      </trkpt>
      <trkpt lat="44.62194" lon="-0.18648">
        <ele>64.7</ele>
        <time>2022-07-26T09:42:41Z</time>
      </trkpt>
      <trkpt lat="44.62193" lon="-0.18649">
        <ele>64.5</ele>
        <time>2022-07-26T09:42:42Z</time>
      </trkpt>
      <trkpt lat="44.62192" lon="-0.1865">
        <ele>64.5</ele>
        <time>2022-07-26T09:42:43Z</time>
      </trkpt>
      <trkpt lat="44.6219" lon="-0.18653">
        <ele>64.5</ele>
        <time>2022-07-26T09:42:45Z</time>
      </trkpt>
      <trkpt lat="44.62189" lon="-0.18654">
        <ele>64.5</ele>
        <time>2022-07-26T09:42:46Z</time>
      </trkpt>
      <trkpt lat="44.62188" lon="-0.18656">
        <ele>64.5</ele>
        <time>2022-07-26T09:42:47Z</time>
      </trkpt>
      <trkpt lat="44.62187" lon="-0.18658">
        <ele>64.4</ele>
        <time>2022-07-26T09:42:48Z</time>
      </trkpt>
      <trkpt lat="44.62187" lon="-0.18659">
        <ele>64.4</ele>
        <time>2022-07-26T09:42:49Z</time>
      </trkpt>
      <trkpt lat="44.62186" lon="-0.18661">
        <ele>64.4</ele>
        <time>2022-07-26T09:42:50Z</time>
      </trkpt>
      <trkpt lat="44.62185" lon="-0.18662">
        <ele>64.4</ele>
        <time>2022-07-26T09:42:51Z</time>
      </trkpt>
      <trkpt lat="44.62183" lon="-0.18663">
        <ele>64.3</ele>
        <time>2022-07-26T09:42:52Z</time>
      </trkpt>
      <trkpt lat="44.62182" lon="-0.18664">
        <ele>64.3</ele>
        <time>2022-07-26T09:42:53Z</time>
      </trkpt>
      <trkpt lat="44.6218" lon="-0.18664">
        <ele>64.2</ele>
        <time>2022-07-26T09:42:54Z</time>
      </trkpt>
      <trkpt lat="44.62179" lon="-0.18665">
        <ele>64.2</ele>
        <time>2022-07-26T09:42:55Z</time>
      </trkpt>
      <trkpt lat="44.62178" lon="-0.18665">
        <ele>64.1</ele>
        <time>2022-07-26T09:42:56Z</time>
      </trkpt>
      <trkpt lat="44.62177" lon="-0.18667">
        <ele>64.1</ele>
        <time>2022-07-26T09:42:57Z</time>
      </trkpt>
      <trkpt lat="44.62176" lon="-0.18668">
        <ele>64.1</ele>
        <time>2022-07-26T09:42:58Z</time>
      </trkpt>
      <trkpt lat="44.62175" lon="-0.18668">
        <ele>63.9</ele>
        <time>2022-07-26T09:42:59Z</time>
      </trkpt>
      <trkpt lat="44.62175" lon="-0.1867">
        <ele>63.9</ele>
        <time>2022-07-26T09:43:00Z</time>
      </trkpt>
      <trkpt lat="44.62174" lon="-0.18671">
        <ele>63.9</ele>
        <time>2022-07-26T09:43:01Z</time>
      </trkpt>
      <trkpt lat="44.62172" lon="-0.18673">
        <ele>63.8</ele>
        <time>2022-07-26T09:43:03Z</time>
      </trkpt>
      <trkpt lat="44.6217" lon="-0.18675">
        <ele>63.8</ele>
        <time>2022-07-26T09:43:04Z</time>
      </trkpt>
      <trkpt lat="44.6217" lon="-0.18676">
        <ele>63.8</ele>
        <time>2022-07-26T09:43:05Z</time>
      </trkpt>
      <trkpt lat="44.62169" lon="-0.18677">
        <ele>63.7</ele>
        <time>2022-07-26T09:43:06Z</time>
      </trkpt>
      <trkpt lat="44.62167" lon="-0.18678">
        <ele>63.8</ele>
        <time>2022-07-26T09:43:07Z</time>
      </trkpt>
      <trkpt lat="44.62166" lon="-0.18679">
        <ele>63.8</ele>
        <time>2022-07-26T09:43:08Z</time>
      </trkpt>
      <trkpt lat="44.62166" lon="-0.1868">
        <ele>63.6</ele>
        <time>2022-07-26T09:43:09Z</time>
      </trkpt>
      <trkpt lat="44.62164" lon="-0.18682">
        <ele>63.7</ele>
        <time>2022-07-26T09:43:10Z</time>
      </trkpt>
      <trkpt lat="44.62164" lon="-0.18683">
        <ele>63.7</ele>
        <time>2022-07-26T09:43:11Z</time>
      </trkpt>
      <trkpt lat="44.62163" lon="-0.18683">
        <ele>63.5</ele>
        <time>2022-07-26T09:43:12Z</time>
      </trkpt>
      <trkpt lat="44.62162" lon="-0.18686">
        <ele>63.6</ele>
        <time>2022-07-26T09:43:13Z</time>
      </trkpt>
      <trkpt lat="44.62161" lon="-0.18687">
        <ele>63.6</ele>
        <time>2022-07-26T09:43:14Z</time>
      </trkpt>
      <trkpt lat="44.62161" lon="-0.18688">
        <ele>63.6</ele>
        <time>2022-07-26T09:43:15Z</time>
      </trkpt>
      <trkpt lat="44.6216" lon="-0.1869">
        <ele>63.5</ele>
        <time>2022-07-26T09:43:16Z</time>
      </trkpt>
      <trkpt lat="44.62158" lon="-0.18692">
        <ele>63.5</ele>
        <time>2022-07-26T09:43:18Z</time>
      </trkpt>
      <trkpt lat="44.62157" lon="-0.18693">
        <ele>63.5</ele>
        <time>2022-07-26T09:43:19Z</time>
      </trkpt>
      <trkpt lat="44.62157" lon="-0.18695">
        <ele>63.4</ele>
        <time>2022-07-26T09:43:20Z</time>
      </trkpt>
      <trkpt lat="44.62155" lon="-0.18698">
        <ele>63.4</ele>
        <time>2022-07-26T09:43:21Z</time>
      </trkpt>
      <trkpt lat="44.62154" lon="-0.18699">
        <ele>63.4</ele>
        <time>2022-07-26T09:43:23Z</time>
      </trkpt>
      <trkpt lat="44.62154" lon="-0.18701">
        <ele>63.3</ele>
        <time>2022-07-26T09:43:24Z</time>
      </trkpt>
      <trkpt lat="44.62153" lon="-0.18702">
        <ele>63.3</ele>
        <time>2022-07-26T09:43:25Z</time>
      </trkpt>
      <trkpt lat="44.62152" lon="-0.18703">
        <ele>63.4</ele>
        <time>2022-07-26T09:43:26Z</time>
      </trkpt>
      <trkpt lat="44.62151" lon="-0.18704">
        <ele>63.4</ele>
        <time>2022-07-26T09:43:27Z</time>
      </trkpt>
      <trkpt lat="44.62151" lon="-0.18705">
        <ele>63.2</ele>
        <time>2022-07-26T09:43:28Z</time>
      </trkpt>
      <trkpt lat="44.6215" lon="-0.18706">
        <ele>63.2</ele>
        <time>2022-07-26T09:43:29Z</time>
      </trkpt>
      <trkpt lat="44.62149" lon="-0.18707">
        <ele>63.3</ele>
        <time>2022-07-26T09:43:30Z</time>
      </trkpt>
      <trkpt lat="44.62148" lon="-0.18708">
        <ele>63.3</ele>
        <time>2022-07-26T09:43:31Z</time>
      </trkpt>
      <trkpt lat="44.62148" lon="-0.18709">
        <ele>63.2</ele>
        <time>2022-07-26T09:43:32Z</time>
      </trkpt>
      <trkpt lat="44.62147" lon="-0.18711">
        <ele>63.2</ele>
        <time>2022-07-26T09:43:33Z</time>
      </trkpt>
      <trkpt lat="44.62146" lon="-0.18712">
        <ele>63.2</ele>
        <time>2022-07-26T09:43:34Z</time>
      </trkpt>
      <trkpt lat="44.62146" lon="-0.18714">
        <ele>63.2</ele>
        <time>2022-07-26T09:43:35Z</time>
      </trkpt>
      <trkpt lat="44.62145" lon="-0.18715">
        <ele>63.2</ele>
        <time>2022-07-26T09:43:37Z</time>
      </trkpt>
      <trkpt lat="44.62145" lon="-0.18717">
        <ele>63.2</ele>
        <time>2022-07-26T09:43:38Z</time>
      </trkpt>
      <trkpt lat="44.62145" lon="-0.1872">
        <ele>63.3</ele>
        <time>2022-07-26T09:43:40Z</time>
      </trkpt>
      <trkpt lat="44.62145" lon="-0.18721">
        <ele>63.3</ele>
        <time>2022-07-26T09:43:41Z</time>
      </trkpt>
      <trkpt lat="44.62146" lon="-0.18722">
        <ele>63.3</ele>
        <time>2022-07-26T09:43:42Z</time>
      </trkpt>
      <trkpt lat="44.62146" lon="-0.18722">
        <ele>63.3</ele>
        <time>2022-07-26T09:43:43Z</time>
      </trkpt>
      <trkpt lat="44.62147" lon="-0.18722">
        <ele>63.3</ele>
        <time>2022-07-26T09:43:45Z</time>
      </trkpt>
      <trkpt lat="44.62147" lon="-0.18722">
        <ele>63.3</ele>
        <time>2022-07-26T09:43:46Z</time>
      </trkpt>
      <trkpt lat="44.62147" lon="-0.18722">
        <ele>63.3</ele>
        <time>2022-07-26T09:43:47Z</time>
      </trkpt>
      <trkpt lat="44.62147" lon="-0.18722">
        <ele>63.3</ele>
        <time>2022-07-26T09:43:48Z</time>
      </trkpt>
      <trkpt lat="44.62148" lon="-0.18723">
        <ele>63.4</ele>
        <time>2022-07-26T09:43:49Z</time>
      </trkpt>
      <trkpt lat="44.62148" lon="-0.18724">
        <ele>63.4</ele>
        <time>2022-07-26T09:43:51Z</time>
      </trkpt>
      <trkpt lat="44.62149" lon="-0.18725">
        <ele>63.4</ele>
        <time>2022-07-26T09:43:52Z</time>
      </trkpt>
      <trkpt lat="44.6215" lon="-0.18727">
        <ele>63.4</ele>
        <time>2022-07-26T09:43:53Z</time>
      </trkpt>
      <trkpt lat="44.62151" lon="-0.18728">
        <ele>63.5</ele>
        <time>2022-07-26T09:43:54Z</time>
      </trkpt>
      <trkpt lat="44.62151" lon="-0.18731">
        <ele>63.6</ele>
        <time>2022-07-26T09:43:55Z</time>
      </trkpt>
      <trkpt lat="44.62151" lon="-0.18734">
        <ele>63.6</ele>
        <time>2022-07-26T09:43:56Z</time>
      </trkpt>
      <trkpt lat="44.62151" lon="-0.18735">
        <ele>63.5</ele>
        <time>2022-07-26T09:43:57Z</time>
      </trkpt>
      <trkpt lat="44.62151" lon="-0.18736">
        <ele>63.5</ele>
        <time>2022-07-26T09:43:58Z</time>
      </trkpt>
      <trkpt lat="44.62149" lon="-0.1874">
        <ele>63.6</ele>
        <time>2022-07-26T09:43:59Z</time>
      </trkpt>
      <trkpt lat="44.62148" lon="-0.1874">
        <ele>63.6</ele>
        <time>2022-07-26T09:44:00Z</time>
      </trkpt>
      <trkpt lat="44.62146" lon="-0.18742">
        <ele>63.5</ele>
        <time>2022-07-26T09:44:02Z</time>
      </trkpt>
      <trkpt lat="44.62143" lon="-0.18743">
        <ele>63.3</ele>
        <time>2022-07-26T09:44:04Z</time>
      </trkpt>
      <trkpt lat="44.6214" lon="-0.18744">
        <ele>63.2</ele>
        <time>2022-07-26T09:44:05Z</time>
      </trkpt>
      <trkpt lat="44.62139" lon="-0.18744">
        <ele>63.2</ele>
        <time>2022-07-26T09:44:06Z</time>
      </trkpt>
      <trkpt lat="44.62138" lon="-0.18744">
        <ele>63</ele>
        <time>2022-07-26T09:44:07Z</time>
      </trkpt>
      <trkpt lat="44.62137" lon="-0.18744">
        <ele>63</ele>
        <time>2022-07-26T09:44:08Z</time>
      </trkpt>
      <trkpt lat="44.62133" lon="-0.18745">
        <ele>62.9</ele>
        <time>2022-07-26T09:44:10Z</time>
      </trkpt>
      <trkpt lat="44.62132" lon="-0.18746">
        <ele>62.8</ele>
        <time>2022-07-26T09:44:11Z</time>
      </trkpt>
      <trkpt lat="44.62131" lon="-0.18747">
        <ele>62.8</ele>
        <time>2022-07-26T09:44:12Z</time>
      </trkpt>
      <trkpt lat="44.62131" lon="-0.18747">
        <ele>62.8</ele>
        <time>2022-07-26T09:44:13Z</time>
      </trkpt>
      <trkpt lat="44.62129" lon="-0.1875">
        <ele>62.7</ele>
        <time>2022-07-26T09:44:14Z</time>
      </trkpt>
      <trkpt lat="44.62129" lon="-0.18752">
        <ele>62.7</ele>
        <time>2022-07-26T09:44:16Z</time>
      </trkpt>
      <trkpt lat="44.62129" lon="-0.18753">
        <ele>62.7</ele>
        <time>2022-07-26T09:44:17Z</time>
      </trkpt>
      <trkpt lat="44.62129" lon="-0.18755">
        <ele>62.8</ele>
        <time>2022-07-26T09:44:18Z</time>
      </trkpt>
      <trkpt lat="44.62128" lon="-0.18758">
        <ele>62.8</ele>
        <time>2022-07-26T09:44:20Z</time>
      </trkpt>
      <trkpt lat="44.62126" lon="-0.18758">
        <ele>62.7</ele>
        <time>2022-07-26T09:44:21Z</time>
      </trkpt>
      <trkpt lat="44.62125" lon="-0.18758">
        <ele>62.7</ele>
        <time>2022-07-26T09:44:22Z</time>
      </trkpt>
      <trkpt lat="44.62124" lon="-0.18759">
        <ele>62.7</ele>
        <time>2022-07-26T09:44:23Z</time>
      </trkpt>
      <trkpt lat="44.62122" lon="-0.18759">
        <ele>62.6</ele>
        <time>2022-07-26T09:44:24Z</time>
      </trkpt>
      <trkpt lat="44.6212" lon="-0.18759">
        <ele>62.5</ele>
        <time>2022-07-26T09:44:26Z</time>
      </trkpt>
      <trkpt lat="44.62119" lon="-0.1876">
        <ele>62.5</ele>
        <time>2022-07-26T09:44:27Z</time>
      </trkpt>
      <trkpt lat="44.62118" lon="-0.18761">
        <ele>62.5</ele>
        <time>2022-07-26T09:44:28Z</time>
      </trkpt>
      <trkpt lat="44.62117" lon="-0.18762">
        <ele>62.3</ele>
        <time>2022-07-26T09:44:29Z</time>
      </trkpt>
      <trkpt lat="44.62116" lon="-0.18763">
        <ele>62.4</ele>
        <time>2022-07-26T09:44:30Z</time>
      </trkpt>
      <trkpt lat="44.62116" lon="-0.18765">
        <ele>62.4</ele>
        <time>2022-07-26T09:44:32Z</time>
      </trkpt>
      <trkpt lat="44.62116" lon="-0.18766">
        <ele>62.4</ele>
        <time>2022-07-26T09:44:33Z</time>
      </trkpt>
      <trkpt lat="44.62115" lon="-0.18769">
        <ele>62.4</ele>
        <time>2022-07-26T09:44:35Z</time>
      </trkpt>
      <trkpt lat="44.62114" lon="-0.18771">
        <ele>62.3</ele>
        <time>2022-07-26T09:44:36Z</time>
      </trkpt>
      <trkpt lat="44.62113" lon="-0.18772">
        <ele>62.3</ele>
        <time>2022-07-26T09:44:37Z</time>
      </trkpt>
      <trkpt lat="44.62112" lon="-0.18773">
        <ele>62.3</ele>
        <time>2022-07-26T09:44:38Z</time>
      </trkpt>
      <trkpt lat="44.6211" lon="-0.18776">
        <ele>62.3</ele>
        <time>2022-07-26T09:44:39Z</time>
      </trkpt>
      <trkpt lat="44.6211" lon="-0.18777">
        <ele>62.3</ele>
        <time>2022-07-26T09:44:41Z</time>
      </trkpt>
      <trkpt lat="44.62109" lon="-0.18779">
        <ele>62.3</ele>
        <time>2022-07-26T09:44:42Z</time>
      </trkpt>
      <trkpt lat="44.62108" lon="-0.1878">
        <ele>62.2</ele>
        <time>2022-07-26T09:44:43Z</time>
      </trkpt>
      <trkpt lat="44.62108" lon="-0.18781">
        <ele>62.2</ele>
        <time>2022-07-26T09:44:44Z</time>
      </trkpt>
      <trkpt lat="44.62107" lon="-0.18783">
        <ele>62.2</ele>
        <time>2022-07-26T09:44:46Z</time>
      </trkpt>
      <trkpt lat="44.62106" lon="-0.18784">
        <ele>62.2</ele>
        <time>2022-07-26T09:44:47Z</time>
      </trkpt>
      <trkpt lat="44.62106" lon="-0.18785">
        <ele>62.3</ele>
        <time>2022-07-26T09:44:48Z</time>
      </trkpt>
      <trkpt lat="44.62104" lon="-0.18788">
        <ele>62.2</ele>
        <time>2022-07-26T09:44:50Z</time>
      </trkpt>
      <trkpt lat="44.62103" lon="-0.18789">
        <ele>62.3</ele>
        <time>2022-07-26T09:44:51Z</time>
      </trkpt>
      <trkpt lat="44.62102" lon="-0.1879">
        <ele>62.3</ele>
        <time>2022-07-26T09:44:52Z</time>
      </trkpt>
      <trkpt lat="44.62101" lon="-0.18791">
        <ele>62.2</ele>
        <time>2022-07-26T09:44:53Z</time>
      </trkpt>
      <trkpt lat="44.621" lon="-0.18792">
        <ele>62.2</ele>
        <time>2022-07-26T09:44:54Z</time>
      </trkpt>
      <trkpt lat="44.62098" lon="-0.18794">
        <ele>62.1</ele>
        <time>2022-07-26T09:44:55Z</time>
      </trkpt>
      <trkpt lat="44.62096" lon="-0.18795">
        <ele>62.1</ele>
        <time>2022-07-26T09:44:56Z</time>
      </trkpt>
      <trkpt lat="44.62096" lon="-0.18796">
        <ele>62.1</ele>
        <time>2022-07-26T09:44:58Z</time>
      </trkpt>
      <trkpt lat="44.62095" lon="-0.18797">
        <ele>62.1</ele>
        <time>2022-07-26T09:44:59Z</time>
      </trkpt>
      <trkpt lat="44.62093" lon="-0.18799">
        <ele>62.1</ele>
        <time>2022-07-26T09:45:00Z</time>
      </trkpt>
      <trkpt lat="44.62092" lon="-0.18798">
        <ele>62.1</ele>
        <time>2022-07-26T09:45:02Z</time>
      </trkpt>
      <trkpt lat="44.62092" lon="-0.18797">
        <ele>62</ele>
        <time>2022-07-26T09:45:03Z</time>
      </trkpt>
      <trkpt lat="44.62092" lon="-0.18793">
        <ele>62</ele>
        <time>2022-07-26T09:45:05Z</time>
      </trkpt>
      <trkpt lat="44.62091" lon="-0.18793">
        <ele>62</ele>
        <time>2022-07-26T09:45:06Z</time>
      </trkpt>
      <trkpt lat="44.6209" lon="-0.18793">
        <ele>62</ele>
        <time>2022-07-26T09:45:07Z</time>
      </trkpt>
      <trkpt lat="44.62089" lon="-0.18794">
        <ele>61.9</ele>
        <time>2022-07-26T09:45:08Z</time>
      </trkpt>
      <trkpt lat="44.62089" lon="-0.18794">
        <ele>61.9</ele>
        <time>2022-07-26T09:45:09Z</time>
      </trkpt>
      <trkpt lat="44.62088" lon="-0.18795">
        <ele>61.9</ele>
        <time>2022-07-26T09:45:10Z</time>
      </trkpt>
      <trkpt lat="44.62087" lon="-0.18795">
        <ele>61.9</ele>
        <time>2022-07-26T09:45:11Z</time>
      </trkpt>
      <trkpt lat="44.62086" lon="-0.18796">
        <ele>61.8</ele>
        <time>2022-07-26T09:45:12Z</time>
      </trkpt>
      <trkpt lat="44.62085" lon="-0.18796">
        <ele>61.8</ele>
        <time>2022-07-26T09:45:13Z</time>
      </trkpt>
      <trkpt lat="44.62082" lon="-0.18797">
        <ele>61.7</ele>
        <time>2022-07-26T09:45:14Z</time>
      </trkpt>
      <trkpt lat="44.62082" lon="-0.18797">
        <ele>61.8</ele>
        <time>2022-07-26T09:45:15Z</time>
      </trkpt>
      <trkpt lat="44.6208" lon="-0.18798">
        <ele>61.7</ele>
        <time>2022-07-26T09:45:17Z</time>
      </trkpt>
      <trkpt lat="44.62079" lon="-0.188">
        <ele>61.7</ele>
        <time>2022-07-26T09:45:18Z</time>
      </trkpt>
      <trkpt lat="44.62077" lon="-0.18802">
        <ele>61.7</ele>
        <time>2022-07-26T09:45:19Z</time>
      </trkpt>
      <trkpt lat="44.62076" lon="-0.18803">
        <ele>61.7</ele>
        <time>2022-07-26T09:45:21Z</time>
      </trkpt>
      <trkpt lat="44.62075" lon="-0.18804">
        <ele>61.7</ele>
        <time>2022-07-26T09:45:22Z</time>
      </trkpt>
      <trkpt lat="44.62074" lon="-0.18805">
        <ele>61.6</ele>
        <time>2022-07-26T09:45:23Z</time>
      </trkpt>
      <trkpt lat="44.62073" lon="-0.18806">
        <ele>61.7</ele>
        <time>2022-07-26T09:45:24Z</time>
      </trkpt>
      <trkpt lat="44.62072" lon="-0.18808">
        <ele>61.7</ele>
        <time>2022-07-26T09:45:25Z</time>
      </trkpt>
      <trkpt lat="44.62072" lon="-0.1881">
        <ele>61.7</ele>
        <time>2022-07-26T09:45:26Z</time>
      </trkpt>
      <trkpt lat="44.62072" lon="-0.18812">
        <ele>61.8</ele>
        <time>2022-07-26T09:45:27Z</time>
      </trkpt>
      <trkpt lat="44.62072" lon="-0.18814">
        <ele>61.8</ele>
        <time>2022-07-26T09:45:28Z</time>
      </trkpt>
      <trkpt lat="44.62072" lon="-0.18816">
        <ele>61.9</ele>
        <time>2022-07-26T09:45:30Z</time>
      </trkpt>
      <trkpt lat="44.62072" lon="-0.18818">
        <ele>61.9</ele>
        <time>2022-07-26T09:45:31Z</time>
      </trkpt>
      <trkpt lat="44.62073" lon="-0.18823">
        <ele>62.1</ele>
        <time>2022-07-26T09:45:32Z</time>
      </trkpt>
      <trkpt lat="44.62073" lon="-0.18823">
        <ele>62.2</ele>
        <time>2022-07-26T09:45:33Z</time>
      </trkpt>
      <trkpt lat="44.62075" lon="-0.18826">
        <ele>62.3</ele>
        <time>2022-07-26T09:45:34Z</time>
      </trkpt>
      <trkpt lat="44.62076" lon="-0.18827">
        <ele>62.4</ele>
        <time>2022-07-26T09:45:35Z</time>
      </trkpt>
      <trkpt lat="44.62078" lon="-0.18832">
        <ele>62.6</ele>
        <time>2022-07-26T09:45:37Z</time>
      </trkpt>
      <trkpt lat="44.62079" lon="-0.18834">
        <ele>62.6</ele>
        <time>2022-07-26T09:45:38Z</time>
      </trkpt>
      <trkpt lat="44.6208" lon="-0.18835">
        <ele>62.6</ele>
        <time>2022-07-26T09:45:39Z</time>
      </trkpt>
      <trkpt lat="44.6208" lon="-0.18837">
        <ele>62.8</ele>
        <time>2022-07-26T09:45:40Z</time>
      </trkpt>
      <trkpt lat="44.62082" lon="-0.1884">
        <ele>62.8</ele>
        <time>2022-07-26T09:45:41Z</time>
      </trkpt>
      <trkpt lat="44.62083" lon="-0.18841">
        <ele>63</ele>
        <time>2022-07-26T09:45:42Z</time>
      </trkpt>
      <trkpt lat="44.62084" lon="-0.18842">
        <ele>63</ele>
        <time>2022-07-26T09:45:43Z</time>
      </trkpt>
      <trkpt lat="44.62086" lon="-0.18844">
        <ele>63.2</ele>
        <time>2022-07-26T09:45:45Z</time>
      </trkpt>
      <trkpt lat="44.62088" lon="-0.18846">
        <ele>63.2</ele>
        <time>2022-07-26T09:45:47Z</time>
      </trkpt>
      <trkpt lat="44.62089" lon="-0.18848">
        <ele>63.2</ele>
        <time>2022-07-26T09:45:48Z</time>
      </trkpt>
      <trkpt lat="44.62089" lon="-0.1885">
        <ele>63.4</ele>
        <time>2022-07-26T09:45:49Z</time>
      </trkpt>
      <trkpt lat="44.62089" lon="-0.18851">
        <ele>63.4</ele>
        <time>2022-07-26T09:45:50Z</time>
      </trkpt>
      <trkpt lat="44.6209" lon="-0.18856">
        <ele>63.5</ele>
        <time>2022-07-26T09:45:52Z</time>
      </trkpt>
      <trkpt lat="44.6209" lon="-0.18856">
        <ele>63.5</ele>
        <time>2022-07-26T09:45:53Z</time>
      </trkpt>
      <trkpt lat="44.62089" lon="-0.18859">
        <ele>63.6</ele>
        <time>2022-07-26T09:45:54Z</time>
      </trkpt>
      <trkpt lat="44.62089" lon="-0.1886">
        <ele>63.6</ele>
        <time>2022-07-26T09:45:55Z</time>
      </trkpt>
      <trkpt lat="44.62089" lon="-0.18861">
        <ele>63.8</ele>
        <time>2022-07-26T09:45:56Z</time>
      </trkpt>
      <trkpt lat="44.62088" lon="-0.18864">
        <ele>63.8</ele>
        <time>2022-07-26T09:45:57Z</time>
      </trkpt>
      <trkpt lat="44.62088" lon="-0.18865">
        <ele>63.8</ele>
        <time>2022-07-26T09:45:58Z</time>
      </trkpt>
      <trkpt lat="44.62086" lon="-0.18867">
        <ele>63.9</ele>
        <time>2022-07-26T09:45:59Z</time>
      </trkpt>
      <trkpt lat="44.62085" lon="-0.18868">
        <ele>63.9</ele>
        <time>2022-07-26T09:46:00Z</time>
      </trkpt>
      <trkpt lat="44.62085" lon="-0.1887">
        <ele>63.9</ele>
        <time>2022-07-26T09:46:01Z</time>
      </trkpt>
      <trkpt lat="44.62084" lon="-0.1887">
        <ele>64</ele>
        <time>2022-07-26T09:46:02Z</time>
      </trkpt>
      <trkpt lat="44.62083" lon="-0.18871">
        <ele>64</ele>
        <time>2022-07-26T09:46:04Z</time>
      </trkpt>
      <trkpt lat="44.62082" lon="-0.18872">
        <ele>64</ele>
        <time>2022-07-26T09:46:05Z</time>
      </trkpt>
      <trkpt lat="44.62079" lon="-0.18875">
        <ele>64.1</ele>
        <time>2022-07-26T09:46:07Z</time>
      </trkpt>
      <trkpt lat="44.62079" lon="-0.18876">
        <ele>64.1</ele>
        <time>2022-07-26T09:46:08Z</time>
      </trkpt>
      <trkpt lat="44.62077" lon="-0.18877">
        <ele>64</ele>
        <time>2022-07-26T09:46:09Z</time>
      </trkpt>
      <trkpt lat="44.62076" lon="-0.18878">
        <ele>64</ele>
        <time>2022-07-26T09:46:10Z</time>
      </trkpt>
      <trkpt lat="44.62076" lon="-0.18879">
        <ele>64.2</ele>
        <time>2022-07-26T09:46:11Z</time>
      </trkpt>
      <trkpt lat="44.62075" lon="-0.18879">
        <ele>64.1</ele>
        <time>2022-07-26T09:46:13Z</time>
      </trkpt>
      <trkpt lat="44.62074" lon="-0.1888">
        <ele>64.1</ele>
        <time>2022-07-26T09:46:14Z</time>
      </trkpt>
      <trkpt lat="44.62073" lon="-0.18881">
        <ele>64.1</ele>
        <time>2022-07-26T09:46:15Z</time>
      </trkpt>
      <trkpt lat="44.62072" lon="-0.18882">
        <ele>64.1</ele>
        <time>2022-07-26T09:46:16Z</time>
      </trkpt>
      <trkpt lat="44.6207" lon="-0.18884">
        <ele>64.3</ele>
        <time>2022-07-26T09:46:17Z</time>
      </trkpt>
      <trkpt lat="44.6207" lon="-0.18884">
        <ele>64.3</ele>
        <time>2022-07-26T09:46:18Z</time>
      </trkpt>
      <trkpt lat="44.62069" lon="-0.18885">
        <ele>64.3</ele>
        <time>2022-07-26T09:46:19Z</time>
      </trkpt>
      <trkpt lat="44.62068" lon="-0.18886">
        <ele>64.2</ele>
        <time>2022-07-26T09:46:21Z</time>
      </trkpt>
      <trkpt lat="44.62066" lon="-0.18889">
        <ele>64.4</ele>
        <time>2022-07-26T09:46:22Z</time>
      </trkpt>
      <trkpt lat="44.62066" lon="-0.18889">
        <ele>64.4</ele>
        <time>2022-07-26T09:46:23Z</time>
      </trkpt>
      <trkpt lat="44.62066" lon="-0.1889">
        <ele>64.4</ele>
        <time>2022-07-26T09:46:24Z</time>
      </trkpt>
      <trkpt lat="44.62066" lon="-0.18892">
        <ele>64.6</ele>
        <time>2022-07-26T09:46:25Z</time>
      </trkpt>
      <trkpt lat="44.62065" lon="-0.18893">
        <ele>64.5</ele>
        <time>2022-07-26T09:46:26Z</time>
      </trkpt>
      <trkpt lat="44.62064" lon="-0.18896">
        <ele>64.7</ele>
        <time>2022-07-26T09:46:28Z</time>
      </trkpt>
      <trkpt lat="44.62064" lon="-0.18897">
        <ele>64.7</ele>
        <time>2022-07-26T09:46:29Z</time>
      </trkpt>
      <trkpt lat="44.62064" lon="-0.18899">
        <ele>64.7</ele>
        <time>2022-07-26T09:46:30Z</time>
      </trkpt>
      <trkpt lat="44.62063" lon="-0.18901">
        <ele>64.9</ele>
        <time>2022-07-26T09:46:31Z</time>
      </trkpt>
      <trkpt lat="44.62062" lon="-0.18902">
        <ele>64.9</ele>
        <time>2022-07-26T09:46:33Z</time>
      </trkpt>
      <trkpt lat="44.62062" lon="-0.18903">
        <ele>64.8</ele>
        <time>2022-07-26T09:46:34Z</time>
      </trkpt>
      <trkpt lat="44.62061" lon="-0.18904">
        <ele>64.8</ele>
        <time>2022-07-26T09:46:35Z</time>
      </trkpt>
      <trkpt lat="44.62061" lon="-0.18905">
        <ele>65</ele>
        <time>2022-07-26T09:46:36Z</time>
      </trkpt>
      <trkpt lat="44.6206" lon="-0.18907">
        <ele>65</ele>
        <time>2022-07-26T09:46:37Z</time>
      </trkpt>
      <trkpt lat="44.62059" lon="-0.18908">
        <ele>65</ele>
        <time>2022-07-26T09:46:38Z</time>
      </trkpt>
      <trkpt lat="44.62059" lon="-0.18909">
        <ele>65.1</ele>
        <time>2022-07-26T09:46:39Z</time>
      </trkpt>
      <trkpt lat="44.62058" lon="-0.1891">
        <ele>65.1</ele>
        <time>2022-07-26T09:46:40Z</time>
      </trkpt>
      <trkpt lat="44.62057" lon="-0.18912">
        <ele>65.1</ele>
        <time>2022-07-26T09:46:41Z</time>
      </trkpt>
      <trkpt lat="44.62056" lon="-0.18913">
        <ele>65.3</ele>
        <time>2022-07-26T09:46:43Z</time>
      </trkpt>
      <trkpt lat="44.62056" lon="-0.18914">
        <ele>65.3</ele>
        <time>2022-07-26T09:46:44Z</time>
      </trkpt>
      <trkpt lat="44.62055" lon="-0.18915">
        <ele>65.3</ele>
        <time>2022-07-26T09:46:45Z</time>
      </trkpt>
      <trkpt lat="44.62054" lon="-0.18916">
        <ele>65.3</ele>
        <time>2022-07-26T09:46:46Z</time>
      </trkpt>
      <trkpt lat="44.62052" lon="-0.18917">
        <ele>65.2</ele>
        <time>2022-07-26T09:46:47Z</time>
      </trkpt>
      <trkpt lat="44.6205" lon="-0.18917">
        <ele>65.4</ele>
        <time>2022-07-26T09:46:49Z</time>
      </trkpt>
      <trkpt lat="44.62049" lon="-0.18918">
        <ele>65.3</ele>
        <time>2022-07-26T09:46:50Z</time>
      </trkpt>
      <trkpt lat="44.62048" lon="-0.18918">
        <ele>65.3</ele>
        <time>2022-07-26T09:46:51Z</time>
      </trkpt>
      <trkpt lat="44.62046" lon="-0.18918">
        <ele>65.2</ele>
        <time>2022-07-26T09:46:52Z</time>
      </trkpt>
      <trkpt lat="44.62046" lon="-0.18918">
        <ele>65.2</ele>
        <time>2022-07-26T09:46:53Z</time>
      </trkpt>
      <trkpt lat="44.62044" lon="-0.18919">
        <ele>65.2</ele>
        <time>2022-07-26T09:46:54Z</time>
      </trkpt>
      <trkpt lat="44.62043" lon="-0.18919">
        <ele>65.1</ele>
        <time>2022-07-26T09:46:55Z</time>
      </trkpt>
      <trkpt lat="44.62041" lon="-0.18921">
        <ele>65.1</ele>
        <time>2022-07-26T09:46:57Z</time>
      </trkpt>
      <trkpt lat="44.6204" lon="-0.18921">
        <ele>65.3</ele>
        <time>2022-07-26T09:46:58Z</time>
      </trkpt>
      <trkpt lat="44.6204" lon="-0.18922">
        <ele>65.3</ele>
        <time>2022-07-26T09:46:59Z</time>
      </trkpt>
      <trkpt lat="44.62039" lon="-0.18923">
        <ele>65.3</ele>
        <time>2022-07-26T09:47:00Z</time>
      </trkpt>
      <trkpt lat="44.62038" lon="-0.18924">
        <ele>65.3</ele>
        <time>2022-07-26T09:47:01Z</time>
      </trkpt>
      <trkpt lat="44.62037" lon="-0.18925">
        <ele>65.2</ele>
        <time>2022-07-26T09:47:02Z</time>
      </trkpt>
      <trkpt lat="44.62036" lon="-0.18926">
        <ele>65.4</ele>
        <time>2022-07-26T09:47:03Z</time>
      </trkpt>
      <trkpt lat="44.62036" lon="-0.18928">
        <ele>65.4</ele>
        <time>2022-07-26T09:47:05Z</time>
      </trkpt>
      <trkpt lat="44.62035" lon="-0.18929">
        <ele>65.4</ele>
        <time>2022-07-26T09:47:06Z</time>
      </trkpt>
      <trkpt lat="44.62034" lon="-0.18932">
        <ele>65.4</ele>
        <time>2022-07-26T09:47:07Z</time>
      </trkpt>
      <trkpt lat="44.62033" lon="-0.18933">
        <ele>65.4</ele>
        <time>2022-07-26T09:47:08Z</time>
      </trkpt>
      <trkpt lat="44.62033" lon="-0.18935">
        <ele>65.6</ele>
        <time>2022-07-26T09:47:10Z</time>
      </trkpt>
      <trkpt lat="44.62032" lon="-0.18937">
        <ele>65.6</ele>
        <time>2022-07-26T09:47:11Z</time>
      </trkpt>
      <trkpt lat="44.62031" lon="-0.1894">
        <ele>65.6</ele>
        <time>2022-07-26T09:47:12Z</time>
      </trkpt>
      <trkpt lat="44.62031" lon="-0.1894">
        <ele>65.6</ele>
        <time>2022-07-26T09:47:13Z</time>
      </trkpt>
      <trkpt lat="44.6203" lon="-0.18941">
        <ele>65.6</ele>
        <time>2022-07-26T09:47:14Z</time>
      </trkpt>
      <trkpt lat="44.62029" lon="-0.18942">
        <ele>65.6</ele>
        <time>2022-07-26T09:47:15Z</time>
      </trkpt>
      <trkpt lat="44.62028" lon="-0.18943">
        <ele>65.5</ele>
        <time>2022-07-26T09:47:16Z</time>
      </trkpt>
      <trkpt lat="44.62026" lon="-0.18942">
        <ele>65.5</ele>
        <time>2022-07-26T09:47:18Z</time>
      </trkpt>
      <trkpt lat="44.62025" lon="-0.18942">
        <ele>65.3</ele>
        <time>2022-07-26T09:47:19Z</time>
      </trkpt>
      <trkpt lat="44.62024" lon="-0.18942">
        <ele>65.3</ele>
        <time>2022-07-26T09:47:20Z</time>
      </trkpt>
      <trkpt lat="44.62023" lon="-0.18943">
        <ele>65.5</ele>
        <time>2022-07-26T09:47:21Z</time>
      </trkpt>
      <trkpt lat="44.62021" lon="-0.18945">
        <ele>65.3</ele>
        <time>2022-07-26T09:47:23Z</time>
      </trkpt>
      <trkpt lat="44.62021" lon="-0.18946">
        <ele>65.3</ele>
        <time>2022-07-26T09:47:24Z</time>
      </trkpt>
      <trkpt lat="44.6202" lon="-0.18947">
        <ele>65.3</ele>
        <time>2022-07-26T09:47:25Z</time>
      </trkpt>
      <trkpt lat="44.62021" lon="-0.18948">
        <ele>65.5</ele>
        <time>2022-07-26T09:47:26Z</time>
      </trkpt>
      <trkpt lat="44.62021" lon="-0.1895">
        <ele>65.5</ele>
        <time>2022-07-26T09:47:27Z</time>
      </trkpt>
      <trkpt lat="44.62021" lon="-0.18951">
        <ele>65.5</ele>
        <time>2022-07-26T09:47:28Z</time>
      </trkpt>
      <trkpt lat="44.62021" lon="-0.18951">
        <ele>65.5</ele>
        <time>2022-07-26T09:47:29Z</time>
      </trkpt>
      <trkpt lat="44.62022" lon="-0.18952">
        <ele>65.6</ele>
        <time>2022-07-26T09:47:30Z</time>
      </trkpt>
      <trkpt lat="44.62022" lon="-0.18954">
        <ele>65.6</ele>
        <time>2022-07-26T09:47:31Z</time>
      </trkpt>
      <trkpt lat="44.62022" lon="-0.18956">
        <ele>65.8</ele>
        <time>2022-07-26T09:47:32Z</time>
      </trkpt>
      <trkpt lat="44.62023" lon="-0.18957">
        <ele>65.8</ele>
        <time>2022-07-26T09:47:33Z</time>
      </trkpt>
      <trkpt lat="44.62023" lon="-0.18957">
        <ele>66</ele>
        <time>2022-07-26T09:47:34Z</time>
      </trkpt>
      <trkpt lat="44.62023" lon="-0.18958">
        <ele>66</ele>
        <time>2022-07-26T09:47:35Z</time>
      </trkpt>
      <trkpt lat="44.62023" lon="-0.18958">
        <ele>66</ele>
        <time>2022-07-26T09:47:36Z</time>
      </trkpt>
      <trkpt lat="44.62023" lon="-0.1896">
        <ele>66.2</ele>
        <time>2022-07-26T09:47:37Z</time>
      </trkpt>
      <trkpt lat="44.62023" lon="-0.18961">
        <ele>66.2</ele>
        <time>2022-07-26T09:47:38Z</time>
      </trkpt>
      <trkpt lat="44.62023" lon="-0.18962">
        <ele>66.2</ele>
        <time>2022-07-26T09:47:39Z</time>
      </trkpt>
      <trkpt lat="44.62022" lon="-0.18965">
        <ele>66.2</ele>
        <time>2022-07-26T09:47:40Z</time>
      </trkpt>
      <trkpt lat="44.62022" lon="-0.18966">
        <ele>66.2</ele>
        <time>2022-07-26T09:47:41Z</time>
      </trkpt>
      <trkpt lat="44.62021" lon="-0.18968">
        <ele>66.2</ele>
        <time>2022-07-26T09:47:42Z</time>
      </trkpt>
      <trkpt lat="44.62021" lon="-0.18969">
        <ele>66.4</ele>
        <time>2022-07-26T09:47:43Z</time>
      </trkpt>
      <trkpt lat="44.6202" lon="-0.1897">
        <ele>66.4</ele>
        <time>2022-07-26T09:47:44Z</time>
      </trkpt>
      <trkpt lat="44.6202" lon="-0.18971">
        <ele>66.4</ele>
        <time>2022-07-26T09:47:45Z</time>
      </trkpt>
      <trkpt lat="44.62018" lon="-0.18975">
        <ele>66.4</ele>
        <time>2022-07-26T09:47:46Z</time>
      </trkpt>
      <trkpt lat="44.62018" lon="-0.18976">
        <ele>66.4</ele>
        <time>2022-07-26T09:47:47Z</time>
      </trkpt>
      <trkpt lat="44.62017" lon="-0.18977">
        <ele>66.4</ele>
        <time>2022-07-26T09:47:48Z</time>
      </trkpt>
      <trkpt lat="44.62016" lon="-0.18978">
        <ele>66.4</ele>
        <time>2022-07-26T09:47:49Z</time>
      </trkpt>
      <trkpt lat="44.62016" lon="-0.1898">
        <ele>66.4</ele>
        <time>2022-07-26T09:47:50Z</time>
      </trkpt>
      <trkpt lat="44.62014" lon="-0.18982">
        <ele>66.5</ele>
        <time>2022-07-26T09:47:51Z</time>
      </trkpt>
      <trkpt lat="44.62013" lon="-0.18984">
        <ele>66.3</ele>
        <time>2022-07-26T09:47:52Z</time>
      </trkpt>
      <trkpt lat="44.62012" lon="-0.18984">
        <ele>66.3</ele>
        <time>2022-07-26T09:47:53Z</time>
      </trkpt>
      <trkpt lat="44.62011" lon="-0.18985">
        <ele>66.3</ele>
        <time>2022-07-26T09:47:54Z</time>
      </trkpt>
      <trkpt lat="44.6201" lon="-0.18986">
        <ele>66.1</ele>
        <time>2022-07-26T09:47:55Z</time>
      </trkpt>
      <trkpt lat="44.62009" lon="-0.18986">
        <ele>66.3</ele>
        <time>2022-07-26T09:47:56Z</time>
      </trkpt>
      <trkpt lat="44.62007" lon="-0.18988">
        <ele>66.1</ele>
        <time>2022-07-26T09:47:57Z</time>
      </trkpt>
      <trkpt lat="44.62007" lon="-0.18989">
        <ele>66.1</ele>
        <time>2022-07-26T09:47:58Z</time>
      </trkpt>
      <trkpt lat="44.62006" lon="-0.1899">
        <ele>66.1</ele>
        <time>2022-07-26T09:47:59Z</time>
      </trkpt>
      <trkpt lat="44.62005" lon="-0.18991">
        <ele>66.3</ele>
        <time>2022-07-26T09:48:00Z</time>
      </trkpt>
      <trkpt lat="44.62004" lon="-0.18992">
        <ele>66.1</ele>
        <time>2022-07-26T09:48:01Z</time>
      </trkpt>
      <trkpt lat="44.62003" lon="-0.18994">
        <ele>66.1</ele>
        <time>2022-07-26T09:48:03Z</time>
      </trkpt>
      <trkpt lat="44.62002" lon="-0.18995">
        <ele>66.3</ele>
        <time>2022-07-26T09:48:04Z</time>
      </trkpt>
      <trkpt lat="44.62001" lon="-0.18997">
        <ele>66.3</ele>
        <time>2022-07-26T09:48:05Z</time>
      </trkpt>
      <trkpt lat="44.62001" lon="-0.18998">
        <ele>66.1</ele>
        <time>2022-07-26T09:48:06Z</time>
      </trkpt>
      <trkpt lat="44.61999" lon="-0.19">
        <ele>66.3</ele>
        <time>2022-07-26T09:48:07Z</time>
      </trkpt>
      <trkpt lat="44.61998" lon="-0.19001">
        <ele>66.3</ele>
        <time>2022-07-26T09:48:08Z</time>
      </trkpt>
      <trkpt lat="44.61997" lon="-0.19002">
        <ele>66.1</ele>
        <time>2022-07-26T09:48:10Z</time>
      </trkpt>
      <trkpt lat="44.61996" lon="-0.19003">
        <ele>66.3</ele>
        <time>2022-07-26T09:48:11Z</time>
      </trkpt>
      <trkpt lat="44.61994" lon="-0.19006">
        <ele>66.1</ele>
        <time>2022-07-26T09:48:12Z</time>
      </trkpt>
      <trkpt lat="44.61993" lon="-0.19006">
        <ele>66.1</ele>
        <time>2022-07-26T09:48:13Z</time>
      </trkpt>
      <trkpt lat="44.61992" lon="-0.19007">
        <ele>66</ele>
        <time>2022-07-26T09:48:14Z</time>
      </trkpt>
      <trkpt lat="44.61991" lon="-0.19008">
        <ele>66.2</ele>
        <time>2022-07-26T09:48:15Z</time>
      </trkpt>
      <trkpt lat="44.61989" lon="-0.1901">
        <ele>66</ele>
        <time>2022-07-26T09:48:17Z</time>
      </trkpt>
      <trkpt lat="44.61988" lon="-0.19011">
        <ele>66</ele>
        <time>2022-07-26T09:48:18Z</time>
      </trkpt>
      <trkpt lat="44.61987" lon="-0.19011">
        <ele>66</ele>
        <time>2022-07-26T09:48:19Z</time>
      </trkpt>
      <trkpt lat="44.61986" lon="-0.19012">
        <ele>66.3</ele>
        <time>2022-07-26T09:48:20Z</time>
      </trkpt>
      <trkpt lat="44.61986" lon="-0.19012">
        <ele>66.1</ele>
        <time>2022-07-26T09:48:21Z</time>
      </trkpt>
      <trkpt lat="44.61984" lon="-0.19013">
        <ele>66.1</ele>
        <time>2022-07-26T09:48:22Z</time>
      </trkpt>
      <trkpt lat="44.61983" lon="-0.19013">
        <ele>66.1</ele>
        <time>2022-07-26T09:48:23Z</time>
      </trkpt>
      <trkpt lat="44.61982" lon="-0.19014">
        <ele>65.9</ele>
        <time>2022-07-26T09:48:24Z</time>
      </trkpt>
      <trkpt lat="44.6198" lon="-0.19015">
        <ele>65.7</ele>
        <time>2022-07-26T09:48:26Z</time>
      </trkpt>
      <trkpt lat="44.61979" lon="-0.19016">
        <ele>66</ele>
        <time>2022-07-26T09:48:27Z</time>
      </trkpt>
      <trkpt lat="44.61978" lon="-0.19017">
        <ele>66</ele>
        <time>2022-07-26T09:48:28Z</time>
      </trkpt>
      <trkpt lat="44.61977" lon="-0.19017">
        <ele>66</ele>
        <time>2022-07-26T09:48:29Z</time>
      </trkpt>
      <trkpt lat="44.61976" lon="-0.19019">
        <ele>65.8</ele>
        <time>2022-07-26T09:48:31Z</time>
      </trkpt>
      <trkpt lat="44.61974" lon="-0.19021">
        <ele>66</ele>
        <time>2022-07-26T09:48:32Z</time>
      </trkpt>
      <trkpt lat="44.61974" lon="-0.19023">
        <ele>65.8</ele>
        <time>2022-07-26T09:48:33Z</time>
      </trkpt>
      <trkpt lat="44.61973" lon="-0.19023">
        <ele>65.8</ele>
        <time>2022-07-26T09:48:34Z</time>
      </trkpt>
      <trkpt lat="44.61972" lon="-0.19024">
        <ele>65.8</ele>
        <time>2022-07-26T09:48:35Z</time>
      </trkpt>
      <trkpt lat="44.61971" lon="-0.19025">
        <ele>66.1</ele>
        <time>2022-07-26T09:48:36Z</time>
      </trkpt>
      <trkpt lat="44.61969" lon="-0.19027">
        <ele>65.9</ele>
        <time>2022-07-26T09:48:37Z</time>
      </trkpt>
      <trkpt lat="44.61968" lon="-0.19027">
        <ele>65.9</ele>
        <time>2022-07-26T09:48:38Z</time>
      </trkpt>
      <trkpt lat="44.61968" lon="-0.19028">
        <ele>65.9</ele>
        <time>2022-07-26T09:48:39Z</time>
      </trkpt>
      <trkpt lat="44.61967" lon="-0.19029">
        <ele>65.9</ele>
        <time>2022-07-26T09:48:40Z</time>
      </trkpt>
      <trkpt lat="44.61965" lon="-0.1903">
        <ele>65.9</ele>
        <time>2022-07-26T09:48:41Z</time>
      </trkpt>
      <trkpt lat="44.61964" lon="-0.19032">
        <ele>65.8</ele>
        <time>2022-07-26T09:48:43Z</time>
      </trkpt>
      <trkpt lat="44.61963" lon="-0.19033">
        <ele>65.8</ele>
        <time>2022-07-26T09:48:44Z</time>
      </trkpt>
      <trkpt lat="44.61962" lon="-0.19035">
        <ele>66</ele>
        <time>2022-07-26T09:48:45Z</time>
      </trkpt>
      <trkpt lat="44.61961" lon="-0.19036">
        <ele>65.8</ele>
        <time>2022-07-26T09:48:46Z</time>
      </trkpt>
      <trkpt lat="44.6196" lon="-0.19038">
        <ele>66.1</ele>
        <time>2022-07-26T09:48:47Z</time>
      </trkpt>
      <trkpt lat="44.6196" lon="-0.19038">
        <ele>66.1</ele>
        <time>2022-07-26T09:48:48Z</time>
      </trkpt>
      <trkpt lat="44.6196" lon="-0.19039">
        <ele>66.1</ele>
        <time>2022-07-26T09:48:49Z</time>
      </trkpt>
      <trkpt lat="44.61959" lon="-0.19039">
        <ele>66.1</ele>
        <time>2022-07-26T09:48:50Z</time>
      </trkpt>
      <trkpt lat="44.61959" lon="-0.19039">
        <ele>66.1</ele>
        <time>2022-07-26T09:48:51Z</time>
      </trkpt>
      <trkpt lat="44.61959" lon="-0.19039">
        <ele>66.1</ele>
        <time>2022-07-26T09:48:52Z</time>
      </trkpt>
      <trkpt lat="44.61959" lon="-0.19039">
        <ele>66.1</ele>
        <time>2022-07-26T09:48:53Z</time>
      </trkpt>
      <trkpt lat="44.61959" lon="-0.19038">
        <ele>66.1</ele>
        <time>2022-07-26T09:48:54Z</time>
      </trkpt>
      <trkpt lat="44.61959" lon="-0.19038">
        <ele>66.1</ele>
        <time>2022-07-26T09:48:55Z</time>
      </trkpt>
      <trkpt lat="44.61959" lon="-0.19038">
        <ele>66.1</ele>
        <time>2022-07-26T09:48:56Z</time>
      </trkpt>
      <trkpt lat="44.61959" lon="-0.19038">
        <ele>66.1</ele>
        <time>2022-07-26T09:48:58Z</time>
      </trkpt>
      <trkpt lat="44.61959" lon="-0.19038">
        <ele>66.1</ele>
        <time>2022-07-26T09:48:59Z</time>
      </trkpt>
      <trkpt lat="44.61959" lon="-0.19038">
        <ele>66.1</ele>
        <time>2022-07-26T09:49:00Z</time>
      </trkpt>
      <trkpt lat="44.61959" lon="-0.19038">
        <ele>66.1</ele>
        <time>2022-07-26T09:49:01Z</time>
      </trkpt>
      <trkpt lat="44.61959" lon="-0.19038">
        <ele>66.1</ele>
        <time>2022-07-26T09:49:03Z</time>
      </trkpt>
      <trkpt lat="44.61959" lon="-0.19038">
        <ele>66.1</ele>
        <time>2022-07-26T09:49:04Z</time>
      </trkpt>
      <trkpt lat="44.61959" lon="-0.19038">
        <ele>66.1</ele>
        <time>2022-07-26T09:49:05Z</time>
      </trkpt>
      <trkpt lat="44.61959" lon="-0.19038">
        <ele>66.1</ele>
        <time>2022-07-26T09:49:06Z</time>
      </trkpt>
      <trkpt lat="44.6196" lon="-0.19038">
        <ele>66.1</ele>
        <time>2022-07-26T09:49:08Z</time>
      </trkpt>
      <trkpt lat="44.6196" lon="-0.19038">
        <ele>66.1</ele>
        <time>2022-07-26T09:49:09Z</time>
      </trkpt>
      <trkpt lat="44.61961" lon="-0.19039">
        <ele>66.1</ele>
        <time>2022-07-26T09:49:10Z</time>
      </trkpt>
      <trkpt lat="44.61961" lon="-0.19039">
        <ele>66.1</ele>
        <time>2022-07-26T09:49:11Z</time>
      </trkpt>
      <trkpt lat="44.61961" lon="-0.1904">
        <ele>66.1</ele>
        <time>2022-07-26T09:49:12Z</time>
      </trkpt>
      <trkpt lat="44.6196" lon="-0.1904">
        <ele>66.1</ele>
        <time>2022-07-26T09:49:13Z</time>
      </trkpt>
      <trkpt lat="44.61959" lon="-0.19041">
        <ele>66.1</ele>
        <time>2022-07-26T09:49:15Z</time>
      </trkpt>
      <trkpt lat="44.61959" lon="-0.19042">
        <ele>66.3</ele>
        <time>2022-07-26T09:49:16Z</time>
      </trkpt>
      <trkpt lat="44.61959" lon="-0.19044">
        <ele>66.3</ele>
        <time>2022-07-26T09:49:17Z</time>
      </trkpt>
      <trkpt lat="44.61959" lon="-0.19045">
        <ele>66.3</ele>
        <time>2022-07-26T09:49:18Z</time>
      </trkpt>
      <trkpt lat="44.61959" lon="-0.19047">
        <ele>66.6</ele>
        <time>2022-07-26T09:49:19Z</time>
      </trkpt>
      <trkpt lat="44.61958" lon="-0.1905">
        <ele>66.4</ele>
        <time>2022-07-26T09:49:20Z</time>
      </trkpt>
      <trkpt lat="44.61957" lon="-0.19051">
        <ele>66.7</ele>
        <time>2022-07-26T09:49:21Z</time>
      </trkpt>
      <trkpt lat="44.61957" lon="-0.19053">
        <ele>66.7</ele>
        <time>2022-07-26T09:49:22Z</time>
      </trkpt>
      <trkpt lat="44.61955" lon="-0.19057">
        <ele>66.8</ele>
        <time>2022-07-26T09:49:24Z</time>
      </trkpt>
      <trkpt lat="44.61955" lon="-0.19058">
        <ele>66.8</ele>
        <time>2022-07-26T09:49:25Z</time>
      </trkpt>
      <trkpt lat="44.61954" lon="-0.1906">
        <ele>67.1</ele>
        <time>2022-07-26T09:49:27Z</time>
      </trkpt>
      <trkpt lat="44.61953" lon="-0.19061">
        <ele>67.1</ele>
        <time>2022-07-26T09:49:28Z</time>
      </trkpt>
      <trkpt lat="44.61952" lon="-0.19062">
        <ele>66.9</ele>
        <time>2022-07-26T09:49:29Z</time>
      </trkpt>
      <trkpt lat="44.61951" lon="-0.19063">
        <ele>67.1</ele>
        <time>2022-07-26T09:49:30Z</time>
      </trkpt>
      <trkpt lat="44.61951" lon="-0.19064">
        <ele>67.1</ele>
        <time>2022-07-26T09:49:31Z</time>
      </trkpt>
      <trkpt lat="44.61949" lon="-0.19066">
        <ele>67</ele>
        <time>2022-07-26T09:49:32Z</time>
      </trkpt>
      <trkpt lat="44.61948" lon="-0.19067">
        <ele>67</ele>
        <time>2022-07-26T09:49:33Z</time>
      </trkpt>
      <trkpt lat="44.61947" lon="-0.19068">
        <ele>67.2</ele>
        <time>2022-07-26T09:49:34Z</time>
      </trkpt>
      <trkpt lat="44.61946" lon="-0.1907">
        <ele>67</ele>
        <time>2022-07-26T09:49:35Z</time>
      </trkpt>
      <trkpt lat="44.61944" lon="-0.19071">
        <ele>67</ele>
        <time>2022-07-26T09:49:37Z</time>
      </trkpt>
      <trkpt lat="44.61943" lon="-0.19072">
        <ele>67.1</ele>
        <time>2022-07-26T09:49:38Z</time>
      </trkpt>
      <trkpt lat="44.61942" lon="-0.19072">
        <ele>67.1</ele>
        <time>2022-07-26T09:49:39Z</time>
      </trkpt>
      <trkpt lat="44.61941" lon="-0.19073">
        <ele>67.1</ele>
        <time>2022-07-26T09:49:40Z</time>
      </trkpt>
      <trkpt lat="44.61939" lon="-0.19075">
        <ele>66.9</ele>
        <time>2022-07-26T09:49:41Z</time>
      </trkpt>
      <trkpt lat="44.61938" lon="-0.19076">
        <ele>66.9</ele>
        <time>2022-07-26T09:49:42Z</time>
      </trkpt>
      <trkpt lat="44.61937" lon="-0.19076">
        <ele>66.9</ele>
        <time>2022-07-26T09:49:43Z</time>
      </trkpt>
      <trkpt lat="44.61936" lon="-0.19077">
        <ele>66.9</ele>
        <time>2022-07-26T09:49:44Z</time>
      </trkpt>
      <trkpt lat="44.61934" lon="-0.19078">
        <ele>66.9</ele>
        <time>2022-07-26T09:49:45Z</time>
      </trkpt>
      <trkpt lat="44.61933" lon="-0.19078">
        <ele>66.8</ele>
        <time>2022-07-26T09:49:47Z</time>
      </trkpt>
      <trkpt lat="44.61931" lon="-0.1908">
        <ele>66.8</ele>
        <time>2022-07-26T09:49:48Z</time>
      </trkpt>
      <trkpt lat="44.6193" lon="-0.1908">
        <ele>66.8</ele>
        <time>2022-07-26T09:49:49Z</time>
      </trkpt>
      <trkpt lat="44.61929" lon="-0.19081">
        <ele>66.8</ele>
        <time>2022-07-26T09:49:50Z</time>
      </trkpt>
      <trkpt lat="44.61929" lon="-0.19083">
        <ele>66.8</ele>
        <time>2022-07-26T09:49:51Z</time>
      </trkpt>
      <trkpt lat="44.61928" lon="-0.19084">
        <ele>66.7</ele>
        <time>2022-07-26T09:49:52Z</time>
      </trkpt>
      <trkpt lat="44.61926" lon="-0.19086">
        <ele>66.9</ele>
        <time>2022-07-26T09:49:53Z</time>
      </trkpt>
      <trkpt lat="44.61925" lon="-0.19087">
        <ele>66.9</ele>
        <time>2022-07-26T09:49:54Z</time>
      </trkpt>
      <trkpt lat="44.61925" lon="-0.19089">
        <ele>66.7</ele>
        <time>2022-07-26T09:49:55Z</time>
      </trkpt>
      <trkpt lat="44.61924" lon="-0.1909">
        <ele>67</ele>
        <time>2022-07-26T09:49:56Z</time>
      </trkpt>
      <trkpt lat="44.61923" lon="-0.19091">
        <ele>67</ele>
        <time>2022-07-26T09:49:57Z</time>
      </trkpt>
      <trkpt lat="44.61923" lon="-0.19092">
        <ele>67</ele>
        <time>2022-07-26T09:49:58Z</time>
      </trkpt>
      <trkpt lat="44.61922" lon="-0.19093">
        <ele>67.2</ele>
        <time>2022-07-26T09:49:59Z</time>
      </trkpt>
      <trkpt lat="44.61922" lon="-0.19095">
        <ele>67</ele>
        <time>2022-07-26T09:50:01Z</time>
      </trkpt>
      <trkpt lat="44.6192" lon="-0.19098">
        <ele>67.3</ele>
        <time>2022-07-26T09:50:03Z</time>
      </trkpt>
      <trkpt lat="44.61919" lon="-0.19099">
        <ele>67.3</ele>
        <time>2022-07-26T09:50:04Z</time>
      </trkpt>
      <trkpt lat="44.61919" lon="-0.191">
        <ele>67.1</ele>
        <time>2022-07-26T09:50:05Z</time>
      </trkpt>
      <trkpt lat="44.61918" lon="-0.191">
        <ele>67.1</ele>
        <time>2022-07-26T09:50:06Z</time>
      </trkpt>
      <trkpt lat="44.61917" lon="-0.19101">
        <ele>67</ele>
        <time>2022-07-26T09:50:07Z</time>
      </trkpt>
      <trkpt lat="44.61916" lon="-0.19103">
        <ele>67</ele>
        <time>2022-07-26T09:50:09Z</time>
      </trkpt>
      <trkpt lat="44.61916" lon="-0.19103">
        <ele>67</ele>
        <time>2022-07-26T09:50:10Z</time>
      </trkpt>
      <trkpt lat="44.61915" lon="-0.19103">
        <ele>66.9</ele>
        <time>2022-07-26T09:50:11Z</time>
      </trkpt>
      <trkpt lat="44.61915" lon="-0.19104">
        <ele>66.9</ele>
        <time>2022-07-26T09:50:12Z</time>
      </trkpt>
      <trkpt lat="44.61915" lon="-0.19105">
        <ele>66.9</ele>
        <time>2022-07-26T09:50:13Z</time>
      </trkpt>
      <trkpt lat="44.61915" lon="-0.19106">
        <ele>66.9</ele>
        <time>2022-07-26T09:50:14Z</time>
      </trkpt>
      <trkpt lat="44.61916" lon="-0.19106">
        <ele>66.9</ele>
        <time>2022-07-26T09:50:15Z</time>
      </trkpt>
      <trkpt lat="44.61916" lon="-0.19107">
        <ele>66.8</ele>
        <time>2022-07-26T09:50:16Z</time>
      </trkpt>
      <trkpt lat="44.61916" lon="-0.19107">
        <ele>66.8</ele>
        <time>2022-07-26T09:50:17Z</time>
      </trkpt>
      <trkpt lat="44.61916" lon="-0.19108">
        <ele>66.8</ele>
        <time>2022-07-26T09:50:18Z</time>
      </trkpt>
      <trkpt lat="44.61916" lon="-0.19108">
        <ele>66.8</ele>
        <time>2022-07-26T09:50:19Z</time>
      </trkpt>
      <trkpt lat="44.61916" lon="-0.19108">
        <ele>66.8</ele>
        <time>2022-07-26T09:50:20Z</time>
      </trkpt>
      <trkpt lat="44.61916" lon="-0.19108">
        <ele>66.8</ele>
        <time>2022-07-26T09:50:22Z</time>
      </trkpt>
      <trkpt lat="44.61917" lon="-0.19109">
        <ele>66.8</ele>
        <time>2022-07-26T09:50:23Z</time>
      </trkpt>
      <trkpt lat="44.61917" lon="-0.19109">
        <ele>66.8</ele>
        <time>2022-07-26T09:50:24Z</time>
      </trkpt>
      <trkpt lat="44.61917" lon="-0.1911">
        <ele>66.8</ele>
        <time>2022-07-26T09:50:25Z</time>
      </trkpt>
      <trkpt lat="44.61917" lon="-0.1911">
        <ele>66.7</ele>
        <time>2022-07-26T09:50:26Z</time>
      </trkpt>
      <trkpt lat="44.61916" lon="-0.1911">
        <ele>66.7</ele>
        <time>2022-07-26T09:50:27Z</time>
      </trkpt>
      <trkpt lat="44.61916" lon="-0.19111">
        <ele>66.7</ele>
        <time>2022-07-26T09:50:28Z</time>
      </trkpt>
      <trkpt lat="44.61916" lon="-0.19111">
        <ele>66.7</ele>
        <time>2022-07-26T09:50:29Z</time>
      </trkpt>
      <trkpt lat="44.61915" lon="-0.1911">
        <ele>66.7</ele>
        <time>2022-07-26T09:50:30Z</time>
      </trkpt>
      <trkpt lat="44.61915" lon="-0.19109">
        <ele>66.7</ele>
        <time>2022-07-26T09:50:32Z</time>
      </trkpt>
      <trkpt lat="44.61914" lon="-0.19108">
        <ele>66.6</ele>
        <time>2022-07-26T09:50:33Z</time>
      </trkpt>
      <trkpt lat="44.61914" lon="-0.19107">
        <ele>66.6</ele>
        <time>2022-07-26T09:50:34Z</time>
      </trkpt>
      <trkpt lat="44.61913" lon="-0.19106">
        <ele>66.5</ele>
        <time>2022-07-26T09:50:35Z</time>
      </trkpt>
      <trkpt lat="44.61912" lon="-0.19104">
        <ele>66.5</ele>
        <time>2022-07-26T09:50:36Z</time>
      </trkpt>
      <trkpt lat="44.61911" lon="-0.191">
        <ele>66.4</ele>
        <time>2022-07-26T09:50:37Z</time>
      </trkpt>
      <trkpt lat="44.6191" lon="-0.19098">
        <ele>66.3</ele>
        <time>2022-07-26T09:50:38Z</time>
      </trkpt>
      <trkpt lat="44.61909" lon="-0.19096">
        <ele>66.2</ele>
        <time>2022-07-26T09:50:39Z</time>
      </trkpt>
      <trkpt lat="44.61908" lon="-0.19094">
        <ele>66.2</ele>
        <time>2022-07-26T09:50:40Z</time>
      </trkpt>
      <trkpt lat="44.61908" lon="-0.19093">
        <ele>66.2</ele>
        <time>2022-07-26T09:50:41Z</time>
      </trkpt>
      <trkpt lat="44.61907" lon="-0.19089">
        <ele>66</ele>
        <time>2022-07-26T09:50:43Z</time>
      </trkpt>
      <trkpt lat="44.61907" lon="-0.19087">
        <ele>66</ele>
        <time>2022-07-26T09:50:44Z</time>
      </trkpt>
      <trkpt lat="44.61906" lon="-0.19086">
        <ele>65.9</ele>
        <time>2022-07-26T09:50:45Z</time>
      </trkpt>
      <trkpt lat="44.61906" lon="-0.19084">
        <ele>65.9</ele>
        <time>2022-07-26T09:50:46Z</time>
      </trkpt>
      <trkpt lat="44.61906" lon="-0.19083">
        <ele>65.9</ele>
        <time>2022-07-26T09:50:47Z</time>
      </trkpt>
      <trkpt lat="44.61906" lon="-0.19081">
        <ele>65.8</ele>
        <time>2022-07-26T09:50:48Z</time>
      </trkpt>
      <trkpt lat="44.61905" lon="-0.1908">
        <ele>65.8</ele>
        <time>2022-07-26T09:50:50Z</time>
      </trkpt>
      <trkpt lat="44.61905" lon="-0.19079">
        <ele>65.7</ele>
        <time>2022-07-26T09:50:51Z</time>
      </trkpt>
      <trkpt lat="44.61904" lon="-0.19077">
        <ele>65.7</ele>
        <time>2022-07-26T09:50:52Z</time>
      </trkpt>
      <trkpt lat="44.61903" lon="-0.19076">
        <ele>65.6</ele>
        <time>2022-07-26T09:50:53Z</time>
      </trkpt>
      <trkpt lat="44.61903" lon="-0.19074">
        <ele>65.6</ele>
        <time>2022-07-26T09:50:54Z</time>
      </trkpt>
      <trkpt lat="44.61902" lon="-0.19074">
        <ele>65.6</ele>
        <time>2022-07-26T09:50:55Z</time>
      </trkpt>
      <trkpt lat="44.61901" lon="-0.19074">
        <ele>65.5</ele>
        <time>2022-07-26T09:50:56Z</time>
      </trkpt>
      <trkpt lat="44.61901" lon="-0.19073">
        <ele>65.5</ele>
        <time>2022-07-26T09:50:57Z</time>
      </trkpt>
      <trkpt lat="44.61899" lon="-0.1907">
        <ele>65.4</ele>
        <time>2022-07-26T09:50:58Z</time>
      </trkpt>
      <trkpt lat="44.61898" lon="-0.19069">
        <ele>65.4</ele>
        <time>2022-07-26T09:51:00Z</time>
      </trkpt>
      <trkpt lat="44.61897" lon="-0.19068">
        <ele>65.3</ele>
        <time>2022-07-26T09:51:01Z</time>
      </trkpt>
      <trkpt lat="44.61894" lon="-0.19065">
        <ele>65.2</ele>
        <time>2022-07-26T09:51:02Z</time>
      </trkpt>
      <trkpt lat="44.61892" lon="-0.19062">
        <ele>65.1</ele>
        <time>2022-07-26T09:51:03Z</time>
      </trkpt>
      <trkpt lat="44.61891" lon="-0.19061">
        <ele>65</ele>
        <time>2022-07-26T09:51:04Z</time>
      </trkpt>
      <trkpt lat="44.6189" lon="-0.1906">
        <ele>65</ele>
        <time>2022-07-26T09:51:05Z</time>
      </trkpt>
      <trkpt lat="44.61889" lon="-0.19058">
        <ele>64.9</ele>
        <time>2022-07-26T09:51:06Z</time>
      </trkpt>
      <trkpt lat="44.61886" lon="-0.19055">
        <ele>64.8</ele>
        <time>2022-07-26T09:51:08Z</time>
      </trkpt>
      <trkpt lat="44.61886" lon="-0.19054">
        <ele>64.8</ele>
        <time>2022-07-26T09:51:09Z</time>
      </trkpt>
      <trkpt lat="44.61885" lon="-0.19053">
        <ele>64.7</ele>
        <time>2022-07-26T09:51:10Z</time>
      </trkpt>
      <trkpt lat="44.61884" lon="-0.19052">
        <ele>64.7</ele>
        <time>2022-07-26T09:51:11Z</time>
      </trkpt>
      <trkpt lat="44.61882" lon="-0.19049">
        <ele>64.6</ele>
        <time>2022-07-26T09:51:12Z</time>
      </trkpt>
      <trkpt lat="44.61881" lon="-0.19048">
        <ele>64.5</ele>
        <time>2022-07-26T09:51:13Z</time>
      </trkpt>
      <trkpt lat="44.6188" lon="-0.19047">
        <ele>64.5</ele>
        <time>2022-07-26T09:51:14Z</time>
      </trkpt>
      <trkpt lat="44.61879" lon="-0.19046">
        <ele>64.5</ele>
        <time>2022-07-26T09:51:15Z</time>
      </trkpt>
      <trkpt lat="44.61877" lon="-0.19044">
        <ele>64.4</ele>
        <time>2022-07-26T09:51:17Z</time>
      </trkpt>
      <trkpt lat="44.61875" lon="-0.19043">
        <ele>64.3</ele>
        <time>2022-07-26T09:51:18Z</time>
      </trkpt>
      <trkpt lat="44.61874" lon="-0.19042">
        <ele>64.3</ele>
        <time>2022-07-26T09:51:19Z</time>
      </trkpt>
      <trkpt lat="44.61873" lon="-0.19042">
        <ele>64.3</ele>
        <time>2022-07-26T09:51:20Z</time>
      </trkpt>
      <trkpt lat="44.61872" lon="-0.19041">
        <ele>64.2</ele>
        <time>2022-07-26T09:51:21Z</time>
      </trkpt>
      <trkpt lat="44.61871" lon="-0.19041">
        <ele>64.2</ele>
        <time>2022-07-26T09:51:22Z</time>
      </trkpt>
      <trkpt lat="44.61868" lon="-0.19041">
        <ele>64.1</ele>
        <time>2022-07-26T09:51:24Z</time>
      </trkpt>
      <trkpt lat="44.61867" lon="-0.19041">
        <ele>64.1</ele>
        <time>2022-07-26T09:51:25Z</time>
      </trkpt>
      <trkpt lat="44.61866" lon="-0.19041">
        <ele>64.1</ele>
        <time>2022-07-26T09:51:26Z</time>
      </trkpt>
      <trkpt lat="44.61864" lon="-0.19041">
        <ele>64</ele>
        <time>2022-07-26T09:51:27Z</time>
      </trkpt>
      <trkpt lat="44.61861" lon="-0.19042">
        <ele>63.9</ele>
        <time>2022-07-26T09:51:29Z</time>
      </trkpt>
      <trkpt lat="44.6186" lon="-0.19042">
        <ele>63.9</ele>
        <time>2022-07-26T09:51:30Z</time>
      </trkpt>
      <trkpt lat="44.61859" lon="-0.19043">
        <ele>63.9</ele>
        <time>2022-07-26T09:51:31Z</time>
      </trkpt>
      <trkpt lat="44.61858" lon="-0.19043">
        <ele>63.8</ele>
        <time>2022-07-26T09:51:32Z</time>
      </trkpt>
      <trkpt lat="44.61856" lon="-0.19044">
        <ele>63.8</ele>
        <time>2022-07-26T09:51:33Z</time>
      </trkpt>
      <trkpt lat="44.61855" lon="-0.19045">
        <ele>63.8</ele>
        <time>2022-07-26T09:51:34Z</time>
      </trkpt>
      <trkpt lat="44.61853" lon="-0.19046">
        <ele>63.7</ele>
        <time>2022-07-26T09:51:36Z</time>
      </trkpt>
      <trkpt lat="44.61852" lon="-0.19047">
        <ele>63.7</ele>
        <time>2022-07-26T09:51:37Z</time>
      </trkpt>
      <trkpt lat="44.6185" lon="-0.19047">
        <ele>63.6</ele>
        <time>2022-07-26T09:51:38Z</time>
      </trkpt>
      <trkpt lat="44.61849" lon="-0.19048">
        <ele>63.6</ele>
        <time>2022-07-26T09:51:39Z</time>
      </trkpt>
      <trkpt lat="44.61848" lon="-0.19048">
        <ele>63.5</ele>
        <time>2022-07-26T09:51:40Z</time>
      </trkpt>
      <trkpt lat="44.61846" lon="-0.19049">
        <ele>63.5</ele>
        <time>2022-07-26T09:51:41Z</time>
      </trkpt>
      <trkpt lat="44.61844" lon="-0.1905">
        <ele>63.4</ele>
        <time>2022-07-26T09:51:43Z</time>
      </trkpt>
      <trkpt lat="44.61843" lon="-0.19051">
        <ele>63.3</ele>
        <time>2022-07-26T09:51:44Z</time>
      </trkpt>
      <trkpt lat="44.61842" lon="-0.19052">
        <ele>63.3</ele>
        <time>2022-07-26T09:51:45Z</time>
      </trkpt>
      <trkpt lat="44.61841" lon="-0.19053">
        <ele>63.3</ele>
        <time>2022-07-26T09:51:46Z</time>
      </trkpt>
      <trkpt lat="44.6184" lon="-0.19054">
        <ele>63.3</ele>
        <time>2022-07-26T09:51:47Z</time>
      </trkpt>
      <trkpt lat="44.61838" lon="-0.19056">
        <ele>63.2</ele>
        <time>2022-07-26T09:51:48Z</time>
      </trkpt>
      <trkpt lat="44.61838" lon="-0.19056">
        <ele>63.1</ele>
        <time>2022-07-26T09:51:49Z</time>
      </trkpt>
      <trkpt lat="44.61838" lon="-0.19057">
        <ele>63.1</ele>
        <time>2022-07-26T09:51:50Z</time>
      </trkpt>
      <trkpt lat="44.61837" lon="-0.19057">
        <ele>63.1</ele>
        <time>2022-07-26T09:51:51Z</time>
      </trkpt>
      <trkpt lat="44.61836" lon="-0.19058">
        <ele>63</ele>
        <time>2022-07-26T09:51:52Z</time>
      </trkpt>
      <trkpt lat="44.61834" lon="-0.1906">
        <ele>62.9</ele>
        <time>2022-07-26T09:51:53Z</time>
      </trkpt>
      <trkpt lat="44.61833" lon="-0.1906">
        <ele>62.9</ele>
        <time>2022-07-26T09:51:54Z</time>
      </trkpt>
      <trkpt lat="44.61833" lon="-0.1906">
        <ele>62.9</ele>
        <time>2022-07-26T09:51:55Z</time>
      </trkpt>
      <trkpt lat="44.61832" lon="-0.19061">
        <ele>62.8</ele>
        <time>2022-07-26T09:51:56Z</time>
      </trkpt>
      <trkpt lat="44.61831" lon="-0.19061">
        <ele>62.8</ele>
        <time>2022-07-26T09:51:57Z</time>
      </trkpt>
      <trkpt lat="44.61829" lon="-0.19062">
        <ele>62.7</ele>
        <time>2022-07-26T09:51:58Z</time>
      </trkpt>
      <trkpt lat="44.61828" lon="-0.19061">
        <ele>62.7</ele>
        <time>2022-07-26T09:51:59Z</time>
      </trkpt>
      <trkpt lat="44.61827" lon="-0.19061">
        <ele>62.6</ele>
        <time>2022-07-26T09:52:00Z</time>
      </trkpt>
      <trkpt lat="44.61825" lon="-0.19061">
        <ele>62.5</ele>
        <time>2022-07-26T09:52:01Z</time>
      </trkpt>
      <trkpt lat="44.61824" lon="-0.1906">
        <ele>62.5</ele>
        <time>2022-07-26T09:52:02Z</time>
      </trkpt>
      <trkpt lat="44.61823" lon="-0.1906">
        <ele>62.4</ele>
        <time>2022-07-26T09:52:03Z</time>
      </trkpt>
      <trkpt lat="44.61822" lon="-0.1906">
        <ele>62.4</ele>
        <time>2022-07-26T09:52:04Z</time>
      </trkpt>
      <trkpt lat="44.61821" lon="-0.1906">
        <ele>62.3</ele>
        <time>2022-07-26T09:52:06Z</time>
      </trkpt>
      <trkpt lat="44.6182" lon="-0.1906">
        <ele>62.3</ele>
        <time>2022-07-26T09:52:07Z</time>
      </trkpt>
      <trkpt lat="44.61818" lon="-0.19061">
        <ele>62.2</ele>
        <time>2022-07-26T09:52:08Z</time>
      </trkpt>
      <trkpt lat="44.61817" lon="-0.19061">
        <ele>62.1</ele>
        <time>2022-07-26T09:52:09Z</time>
      </trkpt>
      <trkpt lat="44.61817" lon="-0.19061">
        <ele>62.1</ele>
        <time>2022-07-26T09:52:10Z</time>
      </trkpt>
      <trkpt lat="44.61814" lon="-0.19061">
        <ele>62</ele>
        <time>2022-07-26T09:52:11Z</time>
      </trkpt>
      <trkpt lat="44.61813" lon="-0.19062">
        <ele>61.9</ele>
        <time>2022-07-26T09:52:12Z</time>
      </trkpt>
      <trkpt lat="44.61812" lon="-0.19062">
        <ele>61.9</ele>
        <time>2022-07-26T09:52:13Z</time>
      </trkpt>
      <trkpt lat="44.61811" lon="-0.19062">
        <ele>61.8</ele>
        <time>2022-07-26T09:52:14Z</time>
      </trkpt>
      <trkpt lat="44.6181" lon="-0.19062">
        <ele>61.8</ele>
        <time>2022-07-26T09:52:15Z</time>
      </trkpt>
      <trkpt lat="44.61808" lon="-0.19063">
        <ele>61.7</ele>
        <time>2022-07-26T09:52:17Z</time>
      </trkpt>
      <trkpt lat="44.61806" lon="-0.19064">
        <ele>61.6</ele>
        <time>2022-07-26T09:52:18Z</time>
      </trkpt>
      <trkpt lat="44.61805" lon="-0.19064">
        <ele>61.5</ele>
        <time>2022-07-26T09:52:19Z</time>
      </trkpt>
      <trkpt lat="44.61803" lon="-0.19066">
        <ele>61.4</ele>
        <time>2022-07-26T09:52:21Z</time>
      </trkpt>
      <trkpt lat="44.61802" lon="-0.19066">
        <ele>61.4</ele>
        <time>2022-07-26T09:52:22Z</time>
      </trkpt>
      <trkpt lat="44.61802" lon="-0.19067">
        <ele>61.4</ele>
        <time>2022-07-26T09:52:23Z</time>
      </trkpt>
      <trkpt lat="44.61801" lon="-0.19068">
        <ele>61.3</ele>
        <time>2022-07-26T09:52:24Z</time>
      </trkpt>
      <trkpt lat="44.61799" lon="-0.19069">
        <ele>61.2</ele>
        <time>2022-07-26T09:52:25Z</time>
      </trkpt>
      <trkpt lat="44.61799" lon="-0.1907">
        <ele>61.2</ele>
        <time>2022-07-26T09:52:26Z</time>
      </trkpt>
      <trkpt lat="44.61797" lon="-0.19071">
        <ele>61.1</ele>
        <time>2022-07-26T09:52:28Z</time>
      </trkpt>
      <trkpt lat="44.61796" lon="-0.19071">
        <ele>61.1</ele>
        <time>2022-07-26T09:52:29Z</time>
      </trkpt>
      <trkpt lat="44.61794" lon="-0.19072">
        <ele>61</ele>
        <time>2022-07-26T09:52:30Z</time>
      </trkpt>
      <trkpt lat="44.61794" lon="-0.19073">
        <ele>60.9</ele>
        <time>2022-07-26T09:52:31Z</time>
      </trkpt>
      <trkpt lat="44.61792" lon="-0.19073">
        <ele>60.9</ele>
        <time>2022-07-26T09:52:33Z</time>
      </trkpt>
      <trkpt lat="44.61791" lon="-0.19074">
        <ele>60.8</ele>
        <time>2022-07-26T09:52:34Z</time>
      </trkpt>
      <trkpt lat="44.61789" lon="-0.19075">
        <ele>60.7</ele>
        <time>2022-07-26T09:52:35Z</time>
      </trkpt>
      <trkpt lat="44.61788" lon="-0.19076">
        <ele>60.6</ele>
        <time>2022-07-26T09:52:36Z</time>
      </trkpt>
      <trkpt lat="44.61787" lon="-0.19076">
        <ele>60.6</ele>
        <time>2022-07-26T09:52:38Z</time>
      </trkpt>
      <trkpt lat="44.61785" lon="-0.19076">
        <ele>60.5</ele>
        <time>2022-07-26T09:52:39Z</time>
      </trkpt>
      <trkpt lat="44.61783" lon="-0.19076">
        <ele>60.4</ele>
        <time>2022-07-26T09:52:41Z</time>
      </trkpt>
      <trkpt lat="44.61781" lon="-0.19076">
        <ele>60.3</ele>
        <time>2022-07-26T09:52:42Z</time>
      </trkpt>
      <trkpt lat="44.6178" lon="-0.19076">
        <ele>60.3</ele>
        <time>2022-07-26T09:52:43Z</time>
      </trkpt>
      <trkpt lat="44.61779" lon="-0.19076">
        <ele>60.2</ele>
        <time>2022-07-26T09:52:44Z</time>
      </trkpt>
      <trkpt lat="44.61777" lon="-0.19075">
        <ele>60.1</ele>
        <time>2022-07-26T09:52:45Z</time>
      </trkpt>
      <trkpt lat="44.61776" lon="-0.19075">
        <ele>60.1</ele>
        <time>2022-07-26T09:52:46Z</time>
      </trkpt>
      <trkpt lat="44.61775" lon="-0.19075">
        <ele>60</ele>
        <time>2022-07-26T09:52:47Z</time>
      </trkpt>
      <trkpt lat="44.61773" lon="-0.19074">
        <ele>59.9</ele>
        <time>2022-07-26T09:52:48Z</time>
      </trkpt>
      <trkpt lat="44.61772" lon="-0.19074">
        <ele>59.9</ele>
        <time>2022-07-26T09:52:50Z</time>
      </trkpt>
      <trkpt lat="44.6177" lon="-0.19073">
        <ele>59.8</ele>
        <time>2022-07-26T09:52:51Z</time>
      </trkpt>
      <trkpt lat="44.61769" lon="-0.19073">
        <ele>59.7</ele>
        <time>2022-07-26T09:52:52Z</time>
      </trkpt>
      <trkpt lat="44.61768" lon="-0.19072">
        <ele>59.7</ele>
        <time>2022-07-26T09:52:53Z</time>
      </trkpt>
      <trkpt lat="44.61767" lon="-0.19071">
        <ele>59.6</ele>
        <time>2022-07-26T09:52:54Z</time>
      </trkpt>
      <trkpt lat="44.61767" lon="-0.1907">
        <ele>59.6</ele>
        <time>2022-07-26T09:52:55Z</time>
      </trkpt>
      <trkpt lat="44.61764" lon="-0.19069">
        <ele>59.5</ele>
        <time>2022-07-26T09:52:56Z</time>
      </trkpt>
      <trkpt lat="44.61764" lon="-0.19068">
        <ele>59.4</ele>
        <time>2022-07-26T09:52:57Z</time>
      </trkpt>
      <trkpt lat="44.61763" lon="-0.19067">
        <ele>59.4</ele>
        <time>2022-07-26T09:52:58Z</time>
      </trkpt>
      <trkpt lat="44.6176" lon="-0.19064">
        <ele>59.2</ele>
        <time>2022-07-26T09:53:00Z</time>
      </trkpt>
      <trkpt lat="44.61759" lon="-0.19063">
        <ele>59.2</ele>
        <time>2022-07-26T09:53:01Z</time>
      </trkpt>
      <trkpt lat="44.61759" lon="-0.19063">
        <ele>59.1</ele>
        <time>2022-07-26T09:53:02Z</time>
      </trkpt>
      <trkpt lat="44.61758" lon="-0.19061">
        <ele>59.1</ele>
        <time>2022-07-26T09:53:03Z</time>
      </trkpt>
      <trkpt lat="44.61757" lon="-0.1906">
        <ele>59</ele>
        <time>2022-07-26T09:53:04Z</time>
      </trkpt>
      <trkpt lat="44.61755" lon="-0.19058">
        <ele>58.9</ele>
        <time>2022-07-26T09:53:05Z</time>
      </trkpt>
      <trkpt lat="44.61755" lon="-0.19057">
        <ele>58.9</ele>
        <time>2022-07-26T09:53:06Z</time>
      </trkpt>
      <trkpt lat="44.61754" lon="-0.19056">
        <ele>58.8</ele>
        <time>2022-07-26T09:53:07Z</time>
      </trkpt>
      <trkpt lat="44.61753" lon="-0.19054">
        <ele>58.7</ele>
        <time>2022-07-26T09:53:09Z</time>
      </trkpt>
      <trkpt lat="44.61752" lon="-0.19052">
        <ele>58.7</ele>
        <time>2022-07-26T09:53:10Z</time>
      </trkpt>
      <trkpt lat="44.61751" lon="-0.1905">
        <ele>58.6</ele>
        <time>2022-07-26T09:53:11Z</time>
      </trkpt>
      <trkpt lat="44.6175" lon="-0.19049">
        <ele>58.5</ele>
        <time>2022-07-26T09:53:12Z</time>
      </trkpt>
      <trkpt lat="44.6175" lon="-0.19048">
        <ele>58.5</ele>
        <time>2022-07-26T09:53:13Z</time>
      </trkpt>
      <trkpt lat="44.61749" lon="-0.19046">
        <ele>58.4</ele>
        <time>2022-07-26T09:53:14Z</time>
      </trkpt>
      <trkpt lat="44.61747" lon="-0.19043">
        <ele>58.3</ele>
        <time>2022-07-26T09:53:15Z</time>
      </trkpt>
      <trkpt lat="44.61747" lon="-0.19043">
        <ele>58.3</ele>
        <time>2022-07-26T09:53:16Z</time>
      </trkpt>
      <trkpt lat="44.61747" lon="-0.19042">
        <ele>58.3</ele>
        <time>2022-07-26T09:53:17Z</time>
      </trkpt>
      <trkpt lat="44.61746" lon="-0.19041">
        <ele>58.2</ele>
        <time>2022-07-26T09:53:18Z</time>
      </trkpt>
      <trkpt lat="44.61745" lon="-0.1904">
        <ele>58.2</ele>
        <time>2022-07-26T09:53:19Z</time>
      </trkpt>
      <trkpt lat="44.61745" lon="-0.19038">
        <ele>58.1</ele>
        <time>2022-07-26T09:53:21Z</time>
      </trkpt>
      <trkpt lat="44.61746" lon="-0.19038">
        <ele>58.1</ele>
        <time>2022-07-26T09:53:22Z</time>
      </trkpt>
      <trkpt lat="44.61746" lon="-0.19038">
        <ele>58.1</ele>
        <time>2022-07-26T09:53:23Z</time>
      </trkpt>
      <trkpt lat="44.61747" lon="-0.19039">
        <ele>58.1</ele>
        <time>2022-07-26T09:53:24Z</time>
      </trkpt>
      <trkpt lat="44.61748" lon="-0.19039">
        <ele>58</ele>
        <time>2022-07-26T09:53:26Z</time>
      </trkpt>
      <trkpt lat="44.61748" lon="-0.19039">
        <ele>58</ele>
        <time>2022-07-26T09:53:27Z</time>
      </trkpt>
      <trkpt lat="44.61748" lon="-0.19039">
        <ele>58</ele>
        <time>2022-07-26T09:53:28Z</time>
      </trkpt>
      <trkpt lat="44.61748" lon="-0.19039">
        <ele>58</ele>
        <time>2022-07-26T09:53:29Z</time>
      </trkpt>
      <trkpt lat="44.61748" lon="-0.19039">
        <ele>58</ele>
        <time>2022-07-26T09:53:31Z</time>
      </trkpt>
      <trkpt lat="44.61748" lon="-0.19038">
        <ele>58</ele>
        <time>2022-07-26T09:53:32Z</time>
      </trkpt>
      <trkpt lat="44.61748" lon="-0.19038">
        <ele>57.9</ele>
        <time>2022-07-26T09:53:33Z</time>
      </trkpt>
      <trkpt lat="44.61748" lon="-0.19037">
        <ele>57.9</ele>
        <time>2022-07-26T09:53:34Z</time>
      </trkpt>
      <trkpt lat="44.61748" lon="-0.19037">
        <ele>57.9</ele>
        <time>2022-07-26T09:53:36Z</time>
      </trkpt>
      <trkpt lat="44.61748" lon="-0.19037">
        <ele>57.9</ele>
        <time>2022-07-26T09:53:37Z</time>
      </trkpt>
      <trkpt lat="44.61748" lon="-0.19036">
        <ele>57.9</ele>
        <time>2022-07-26T09:53:39Z</time>
      </trkpt>
      <trkpt lat="44.61747" lon="-0.19036">
        <ele>57.9</ele>
        <time>2022-07-26T09:53:40Z</time>
      </trkpt>
      <trkpt lat="44.61747" lon="-0.19035">
        <ele>57.9</ele>
        <time>2022-07-26T09:53:41Z</time>
      </trkpt>
      <trkpt lat="44.61747" lon="-0.19035">
        <ele>57.8</ele>
        <time>2022-07-26T09:53:42Z</time>
      </trkpt>
      <trkpt lat="44.61747" lon="-0.19034">
        <ele>57.8</ele>
        <time>2022-07-26T09:53:43Z</time>
      </trkpt>
      <trkpt lat="44.61747" lon="-0.19034">
        <ele>57.8</ele>
        <time>2022-07-26T09:53:44Z</time>
      </trkpt>
      <trkpt lat="44.61746" lon="-0.19031">
        <ele>57.7</ele>
        <time>2022-07-26T09:53:46Z</time>
      </trkpt>
      <trkpt lat="44.61745" lon="-0.1903">
        <ele>57.7</ele>
        <time>2022-07-26T09:53:47Z</time>
      </trkpt>
      <trkpt lat="44.61745" lon="-0.19029">
        <ele>57.7</ele>
        <time>2022-07-26T09:53:48Z</time>
      </trkpt>
      <trkpt lat="44.61744" lon="-0.19027">
        <ele>57.6</ele>
        <time>2022-07-26T09:53:49Z</time>
      </trkpt>
      <trkpt lat="44.61743" lon="-0.19025">
        <ele>57.5</ele>
        <time>2022-07-26T09:53:50Z</time>
      </trkpt>
      <trkpt lat="44.61742" lon="-0.19024">
        <ele>57.5</ele>
        <time>2022-07-26T09:53:51Z</time>
      </trkpt>
      <trkpt lat="44.61742" lon="-0.19023">
        <ele>57.4</ele>
        <time>2022-07-26T09:53:52Z</time>
      </trkpt>
      <trkpt lat="44.61741" lon="-0.19021">
        <ele>57.4</ele>
        <time>2022-07-26T09:53:53Z</time>
      </trkpt>
      <trkpt lat="44.61741" lon="-0.1902">
        <ele>57.3</ele>
        <time>2022-07-26T09:53:54Z</time>
      </trkpt>
      <trkpt lat="44.6174" lon="-0.19018">
        <ele>57.3</ele>
        <time>2022-07-26T09:53:55Z</time>
      </trkpt>
      <trkpt lat="44.61738" lon="-0.19016">
        <ele>57.2</ele>
        <time>2022-07-26T09:53:56Z</time>
      </trkpt>
      <trkpt lat="44.61738" lon="-0.19015">
        <ele>57.1</ele>
        <time>2022-07-26T09:53:57Z</time>
      </trkpt>
      <trkpt lat="44.61738" lon="-0.19013">
        <ele>57.1</ele>
        <time>2022-07-26T09:53:58Z</time>
      </trkpt>
      <trkpt lat="44.61737" lon="-0.19011">
        <ele>57</ele>
        <time>2022-07-26T09:54:00Z</time>
      </trkpt>
      <trkpt lat="44.61736" lon="-0.19008">
        <ele>56.9</ele>
        <time>2022-07-26T09:54:01Z</time>
      </trkpt>
      <trkpt lat="44.61736" lon="-0.19007">
        <ele>56.9</ele>
        <time>2022-07-26T09:54:02Z</time>
      </trkpt>
      <trkpt lat="44.61735" lon="-0.19004">
        <ele>56.8</ele>
        <time>2022-07-26T09:54:03Z</time>
      </trkpt>
      <trkpt lat="44.61734" lon="-0.19003">
        <ele>56.7</ele>
        <time>2022-07-26T09:54:04Z</time>
      </trkpt>
      <trkpt lat="44.61733" lon="-0.19002">
        <ele>56.7</ele>
        <time>2022-07-26T09:54:05Z</time>
      </trkpt>
      <trkpt lat="44.61733" lon="-0.19001">
        <ele>56.7</ele>
        <time>2022-07-26T09:54:06Z</time>
      </trkpt>
      <trkpt lat="44.61732" lon="-0.19">
        <ele>56.6</ele>
        <time>2022-07-26T09:54:08Z</time>
      </trkpt>
      <trkpt lat="44.61732" lon="-0.18998">
        <ele>56.6</ele>
        <time>2022-07-26T09:54:09Z</time>
      </trkpt>
      <trkpt lat="44.61731" lon="-0.18997">
        <ele>56.5</ele>
        <time>2022-07-26T09:54:10Z</time>
      </trkpt>
      <trkpt lat="44.6173" lon="-0.18995">
        <ele>56.5</ele>
        <time>2022-07-26T09:54:11Z</time>
      </trkpt>
      <trkpt lat="44.6173" lon="-0.18995">
        <ele>56.4</ele>
        <time>2022-07-26T09:54:12Z</time>
      </trkpt>
      <trkpt lat="44.61729" lon="-0.18994">
        <ele>56.4</ele>
        <time>2022-07-26T09:54:13Z</time>
      </trkpt>
      <trkpt lat="44.61728" lon="-0.18992">
        <ele>56.3</ele>
        <time>2022-07-26T09:54:14Z</time>
      </trkpt>
      <trkpt lat="44.61728" lon="-0.18991">
        <ele>56.3</ele>
        <time>2022-07-26T09:54:15Z</time>
      </trkpt>
      <trkpt lat="44.61729" lon="-0.18991">
        <ele>56.2</ele>
        <time>2022-07-26T09:54:17Z</time>
      </trkpt>
      <trkpt lat="44.6173" lon="-0.18992">
        <ele>56.2</ele>
        <time>2022-07-26T09:54:18Z</time>
      </trkpt>
      <trkpt lat="44.61731" lon="-0.18992">
        <ele>56.1</ele>
        <time>2022-07-26T09:54:20Z</time>
      </trkpt>
      <trkpt lat="44.61732" lon="-0.18993">
        <ele>56.1</ele>
        <time>2022-07-26T09:54:21Z</time>
      </trkpt>
      <trkpt lat="44.61733" lon="-0.18994">
        <ele>56</ele>
        <time>2022-07-26T09:54:22Z</time>
      </trkpt>
      <trkpt lat="44.61734" lon="-0.18995">
        <ele>56</ele>
        <time>2022-07-26T09:54:23Z</time>
      </trkpt>
      <trkpt lat="44.61735" lon="-0.18996">
        <ele>55.9</ele>
        <time>2022-07-26T09:54:24Z</time>
      </trkpt>
      <trkpt lat="44.61736" lon="-0.18998">
        <ele>55.8</ele>
        <time>2022-07-26T09:54:25Z</time>
      </trkpt>
      <trkpt lat="44.61737" lon="-0.18999">
        <ele>55.8</ele>
        <time>2022-07-26T09:54:26Z</time>
      </trkpt>
      <trkpt lat="44.61737" lon="-0.19">
        <ele>55.8</ele>
        <time>2022-07-26T09:54:27Z</time>
      </trkpt>
      <trkpt lat="44.61738" lon="-0.19001">
        <ele>55.7</ele>
        <time>2022-07-26T09:54:28Z</time>
      </trkpt>
      <trkpt lat="44.61739" lon="-0.19002">
        <ele>55.7</ele>
        <time>2022-07-26T09:54:29Z</time>
      </trkpt>
      <trkpt lat="44.61741" lon="-0.19004">
        <ele>55.5</ele>
        <time>2022-07-26T09:54:31Z</time>
      </trkpt>
      <trkpt lat="44.61742" lon="-0.19006">
        <ele>55.4</ele>
        <time>2022-07-26T09:54:32Z</time>
      </trkpt>
      <trkpt lat="44.61743" lon="-0.19008">
        <ele>55.4</ele>
        <time>2022-07-26T09:54:33Z</time>
      </trkpt>
      <trkpt lat="44.61745" lon="-0.19011">
        <ele>55.2</ele>
        <time>2022-07-26T09:54:34Z</time>
      </trkpt>
      <trkpt lat="44.61746" lon="-0.19012">
        <ele>55.2</ele>
        <time>2022-07-26T09:54:35Z</time>
      </trkpt>
      <trkpt lat="44.61747" lon="-0.19015">
        <ele>55</ele>
        <time>2022-07-26T09:54:36Z</time>
      </trkpt>
      <trkpt lat="44.61747" lon="-0.19016">
        <ele>55</ele>
        <time>2022-07-26T09:54:38Z</time>
      </trkpt>
      <trkpt lat="44.61748" lon="-0.19017">
        <ele>54.9</ele>
        <time>2022-07-26T09:54:39Z</time>
      </trkpt>
      <trkpt lat="44.61748" lon="-0.19019">
        <ele>54.9</ele>
        <time>2022-07-26T09:54:40Z</time>
      </trkpt>
      <trkpt lat="44.61749" lon="-0.19021">
        <ele>54.7</ele>
        <time>2022-07-26T09:54:41Z</time>
      </trkpt>
      <trkpt lat="44.6175" lon="-0.19022">
        <ele>54.7</ele>
        <time>2022-07-26T09:54:42Z</time>
      </trkpt>
      <trkpt lat="44.61751" lon="-0.19024">
        <ele>54.6</ele>
        <time>2022-07-26T09:54:43Z</time>
      </trkpt>
      <trkpt lat="44.61751" lon="-0.19026">
        <ele>54.5</ele>
        <time>2022-07-26T09:54:45Z</time>
      </trkpt>
      <trkpt lat="44.61752" lon="-0.19029">
        <ele>54.3</ele>
        <time>2022-07-26T09:54:46Z</time>
      </trkpt>
      <trkpt lat="44.61753" lon="-0.1903">
        <ele>54.3</ele>
        <time>2022-07-26T09:54:47Z</time>
      </trkpt>
      <trkpt lat="44.61753" lon="-0.19031">
        <ele>54.2</ele>
        <time>2022-07-26T09:54:48Z</time>
      </trkpt>
      <trkpt lat="44.61754" lon="-0.19033">
        <ele>54.1</ele>
        <time>2022-07-26T09:54:49Z</time>
      </trkpt>
      <trkpt lat="44.61754" lon="-0.19035">
        <ele>54</ele>
        <time>2022-07-26T09:54:50Z</time>
      </trkpt>
      <trkpt lat="44.61755" lon="-0.19036">
        <ele>53.9</ele>
        <time>2022-07-26T09:54:51Z</time>
      </trkpt>
      <trkpt lat="44.61755" lon="-0.19037">
        <ele>53.9</ele>
        <time>2022-07-26T09:54:52Z</time>
      </trkpt>
      <trkpt lat="44.61755" lon="-0.19038">
        <ele>53.8</ele>
        <time>2022-07-26T09:54:53Z</time>
      </trkpt>
      <trkpt lat="44.61755" lon="-0.19039">
        <ele>53.8</ele>
        <time>2022-07-26T09:54:55Z</time>
      </trkpt>
      <trkpt lat="44.61755" lon="-0.19039">
        <ele>53.7</ele>
        <time>2022-07-26T09:54:56Z</time>
      </trkpt>
      <trkpt lat="44.61755" lon="-0.19038">
        <ele>53.7</ele>
        <time>2022-07-26T09:54:57Z</time>
      </trkpt>
      <trkpt lat="44.61755" lon="-0.19037">
        <ele>53.6</ele>
        <time>2022-07-26T09:54:58Z</time>
      </trkpt>
      <trkpt lat="44.61755" lon="-0.19036">
        <ele>53.6</ele>
        <time>2022-07-26T09:54:59Z</time>
      </trkpt>
      <trkpt lat="44.61754" lon="-0.19036">
        <ele>53.5</ele>
        <time>2022-07-26T09:55:00Z</time>
      </trkpt>
      <trkpt lat="44.61754" lon="-0.19035">
        <ele>53.5</ele>
        <time>2022-07-26T09:55:01Z</time>
      </trkpt>
      <trkpt lat="44.61753" lon="-0.19035">
        <ele>53.5</ele>
        <time>2022-07-26T09:55:02Z</time>
      </trkpt>
      <trkpt lat="44.61753" lon="-0.19034">
        <ele>53.5</ele>
        <time>2022-07-26T09:55:03Z</time>
      </trkpt>
      <trkpt lat="44.61753" lon="-0.19034">
        <ele>53.4</ele>
        <time>2022-07-26T09:55:04Z</time>
      </trkpt>
      <trkpt lat="44.61753" lon="-0.19034">
        <ele>53.4</ele>
        <time>2022-07-26T09:55:05Z</time>
      </trkpt>
      <trkpt lat="44.61753" lon="-0.19034">
        <ele>53.4</ele>
        <time>2022-07-26T09:55:06Z</time>
      </trkpt>
      <trkpt lat="44.61752" lon="-0.19033">
        <ele>53.3</ele>
        <time>2022-07-26T09:55:08Z</time>
      </trkpt>
      <trkpt lat="44.61752" lon="-0.19032">
        <ele>53.2</ele>
        <time>2022-07-26T09:55:09Z</time>
      </trkpt>
      <trkpt lat="44.6175" lon="-0.19029">
        <ele>53.1</ele>
        <time>2022-07-26T09:55:10Z</time>
      </trkpt>
      <trkpt lat="44.6175" lon="-0.19028">
        <ele>53</ele>
        <time>2022-07-26T09:55:11Z</time>
      </trkpt>
      <trkpt lat="44.61749" lon="-0.19027">
        <ele>52.9</ele>
        <time>2022-07-26T09:55:12Z</time>
      </trkpt>
      <trkpt lat="44.61747" lon="-0.19024">
        <ele>52.6</ele>
        <time>2022-07-26T09:55:13Z</time>
      </trkpt>
      <trkpt lat="44.61746" lon="-0.19023">
        <ele>52.6</ele>
        <time>2022-07-26T09:55:14Z</time>
      </trkpt>
      <trkpt lat="44.61744" lon="-0.19021">
        <ele>52.4</ele>
        <time>2022-07-26T09:55:15Z</time>
      </trkpt>
      <trkpt lat="44.61744" lon="-0.1902">
        <ele>52.3</ele>
        <time>2022-07-26T09:55:16Z</time>
      </trkpt>
      <trkpt lat="44.61743" lon="-0.19019">
        <ele>52.3</ele>
        <time>2022-07-26T09:55:17Z</time>
      </trkpt>
      <trkpt lat="44.61741" lon="-0.19017">
        <ele>52</ele>
        <time>2022-07-26T09:55:18Z</time>
      </trkpt>
      <trkpt lat="44.61739" lon="-0.19015">
        <ele>51.9</ele>
        <time>2022-07-26T09:55:20Z</time>
      </trkpt>
      <trkpt lat="44.61739" lon="-0.19014">
        <ele>51.8</ele>
        <time>2022-07-26T09:55:21Z</time>
      </trkpt>
      <trkpt lat="44.61738" lon="-0.19013">
        <ele>51.7</ele>
        <time>2022-07-26T09:55:22Z</time>
      </trkpt>
      <trkpt lat="44.61737" lon="-0.1901">
        <ele>51.6</ele>
        <time>2022-07-26T09:55:23Z</time>
      </trkpt>
      <trkpt lat="44.61736" lon="-0.1901">
        <ele>51.5</ele>
        <time>2022-07-26T09:55:24Z</time>
      </trkpt>
      <trkpt lat="44.61736" lon="-0.19009">
        <ele>51.5</ele>
        <time>2022-07-26T09:55:25Z</time>
      </trkpt>
      <trkpt lat="44.61735" lon="-0.19008">
        <ele>51.4</ele>
        <time>2022-07-26T09:55:26Z</time>
      </trkpt>
      <trkpt lat="44.61735" lon="-0.19007">
        <ele>51.3</ele>
        <time>2022-07-26T09:55:27Z</time>
      </trkpt>
      <trkpt lat="44.61734" lon="-0.19006">
        <ele>51.2</ele>
        <time>2022-07-26T09:55:28Z</time>
      </trkpt>
      <trkpt lat="44.61734" lon="-0.19006">
        <ele>51.2</ele>
        <time>2022-07-26T09:55:29Z</time>
      </trkpt>
      <trkpt lat="44.61734" lon="-0.19006">
        <ele>51.2</ele>
        <time>2022-07-26T09:55:30Z</time>
      </trkpt>
      <trkpt lat="44.61735" lon="-0.19006">
        <ele>51.2</ele>
        <time>2022-07-26T09:55:31Z</time>
      </trkpt>
      <trkpt lat="44.61735" lon="-0.19006">
        <ele>51.2</ele>
        <time>2022-07-26T09:55:32Z</time>
      </trkpt>
      <trkpt lat="44.61736" lon="-0.19006">
        <ele>51.1</ele>
        <time>2022-07-26T09:55:34Z</time>
      </trkpt>
      <trkpt lat="44.61736" lon="-0.19007">
        <ele>51.1</ele>
        <time>2022-07-26T09:55:35Z</time>
      </trkpt>
      <trkpt lat="44.61736" lon="-0.19007">
        <ele>51</ele>
        <time>2022-07-26T09:55:36Z</time>
      </trkpt>
      <trkpt lat="44.61737" lon="-0.19008">
        <ele>51</ele>
        <time>2022-07-26T09:55:37Z</time>
      </trkpt>
      <trkpt lat="44.61738" lon="-0.19009">
        <ele>50.9</ele>
        <time>2022-07-26T09:55:39Z</time>
      </trkpt>
      <trkpt lat="44.61738" lon="-0.19009">
        <ele>50.8</ele>
        <time>2022-07-26T09:55:40Z</time>
      </trkpt>
      <trkpt lat="44.61739" lon="-0.1901">
        <ele>50.7</ele>
        <time>2022-07-26T09:55:41Z</time>
      </trkpt>
      <trkpt lat="44.6174" lon="-0.19011">
        <ele>50.6</ele>
        <time>2022-07-26T09:55:42Z</time>
      </trkpt>
      <trkpt lat="44.61741" lon="-0.19012">
        <ele>50.6</ele>
        <time>2022-07-26T09:55:43Z</time>
      </trkpt>
      <trkpt lat="44.61742" lon="-0.19014">
        <ele>50.4</ele>
        <time>2022-07-26T09:55:45Z</time>
      </trkpt>
      <trkpt lat="44.61743" lon="-0.19017">
        <ele>50.3</ele>
        <time>2022-07-26T09:55:46Z</time>
      </trkpt>
      <trkpt lat="44.61743" lon="-0.19017">
        <ele>50.2</ele>
        <time>2022-07-26T09:55:48Z</time>
      </trkpt>
      <trkpt lat="44.61744" lon="-0.19019">
        <ele>50.2</ele>
        <time>2022-07-26T09:55:49Z</time>
      </trkpt>
      <trkpt lat="44.61745" lon="-0.1902">
        <ele>50.1</ele>
        <time>2022-07-26T09:55:50Z</time>
      </trkpt>
      <trkpt lat="44.61746" lon="-0.19021">
        <ele>49.9</ele>
        <time>2022-07-26T09:55:51Z</time>
      </trkpt>
      <trkpt lat="44.61748" lon="-0.19023">
        <ele>49.8</ele>
        <time>2022-07-26T09:55:52Z</time>
      </trkpt>
      <trkpt lat="44.61748" lon="-0.19024">
        <ele>49.7</ele>
        <time>2022-07-26T09:55:54Z</time>
      </trkpt>
      <trkpt lat="44.61749" lon="-0.19025">
        <ele>49.7</ele>
        <time>2022-07-26T09:55:55Z</time>
      </trkpt>
      <trkpt lat="44.61752" lon="-0.19028">
        <ele>49.4</ele>
        <time>2022-07-26T09:55:57Z</time>
      </trkpt>
      <trkpt lat="44.61753" lon="-0.1903">
        <ele>49.4</ele>
        <time>2022-07-26T09:55:58Z</time>
      </trkpt>
      <trkpt lat="44.61754" lon="-0.19032">
        <ele>49.3</ele>
        <time>2022-07-26T09:55:59Z</time>
      </trkpt>
      <trkpt lat="44.61755" lon="-0.19034">
        <ele>49.2</ele>
        <time>2022-07-26T09:56:00Z</time>
      </trkpt>
      <trkpt lat="44.61756" lon="-0.19036">
        <ele>49.1</ele>
        <time>2022-07-26T09:56:02Z</time>
      </trkpt>
      <trkpt lat="44.61757" lon="-0.19037">
        <ele>49</ele>
        <time>2022-07-26T09:56:03Z</time>
      </trkpt>
      <trkpt lat="44.61758" lon="-0.19039">
        <ele>48.9</ele>
        <time>2022-07-26T09:56:04Z</time>
      </trkpt>
      <trkpt lat="44.6176" lon="-0.19041">
        <ele>48.8</ele>
        <time>2022-07-26T09:56:06Z</time>
      </trkpt>
      <trkpt lat="44.61759" lon="-0.19043">
        <ele>48.8</ele>
        <time>2022-07-26T09:56:07Z</time>
      </trkpt>
      <trkpt lat="44.61758" lon="-0.19042">
        <ele>48.7</ele>
        <time>2022-07-26T09:56:08Z</time>
      </trkpt>
      <trkpt lat="44.61757" lon="-0.19042">
        <ele>48.7</ele>
        <time>2022-07-26T09:56:09Z</time>
      </trkpt>
      <trkpt lat="44.61756" lon="-0.19042">
        <ele>48.7</ele>
        <time>2022-07-26T09:56:11Z</time>
      </trkpt>
      <trkpt lat="44.61755" lon="-0.19042">
        <ele>48.6</ele>
        <time>2022-07-26T09:56:12Z</time>
      </trkpt>
      <trkpt lat="44.61754" lon="-0.19042">
        <ele>48.6</ele>
        <time>2022-07-26T09:56:13Z</time>
      </trkpt>
      <trkpt lat="44.61753" lon="-0.1904">
        <ele>48.5</ele>
        <time>2022-07-26T09:56:14Z</time>
      </trkpt>
      <trkpt lat="44.61752" lon="-0.19038">
        <ele>48.5</ele>
        <time>2022-07-26T09:56:15Z</time>
      </trkpt>
      <trkpt lat="44.6175" lon="-0.19036">
        <ele>48.4</ele>
        <time>2022-07-26T09:56:16Z</time>
      </trkpt>
      <trkpt lat="44.61749" lon="-0.19033">
        <ele>48.3</ele>
        <time>2022-07-26T09:56:18Z</time>
      </trkpt>
      <trkpt lat="44.61748" lon="-0.19032">
        <ele>48.3</ele>
        <time>2022-07-26T09:56:19Z</time>
      </trkpt>
      <trkpt lat="44.61747" lon="-0.1903">
        <ele>48.3</ele>
        <time>2022-07-26T09:56:20Z</time>
      </trkpt>
      <trkpt lat="44.61744" lon="-0.19027">
        <ele>48.2</ele>
        <time>2022-07-26T09:56:21Z</time>
      </trkpt>
      <trkpt lat="44.61744" lon="-0.19026">
        <ele>48.2</ele>
        <time>2022-07-26T09:56:22Z</time>
      </trkpt>
      <trkpt lat="44.61742" lon="-0.19023">
        <ele>48.1</ele>
        <time>2022-07-26T09:56:24Z</time>
      </trkpt>
      <trkpt lat="44.61741" lon="-0.19021">
        <ele>48.1</ele>
        <time>2022-07-26T09:56:25Z</time>
      </trkpt>
      <trkpt lat="44.61739" lon="-0.19019">
        <ele>48</ele>
        <time>2022-07-26T09:56:26Z</time>
      </trkpt>
      <trkpt lat="44.61737" lon="-0.19017">
        <ele>48</ele>
        <time>2022-07-26T09:56:27Z</time>
      </trkpt>
      <trkpt lat="44.61736" lon="-0.19016">
        <ele>48</ele>
        <time>2022-07-26T09:56:29Z</time>
      </trkpt>
      <trkpt lat="44.61735" lon="-0.19015">
        <ele>47.9</ele>
        <time>2022-07-26T09:56:30Z</time>
      </trkpt>
      <trkpt lat="44.61733" lon="-0.19014">
        <ele>47.9</ele>
        <time>2022-07-26T09:56:31Z</time>
      </trkpt>
      <trkpt lat="44.61732" lon="-0.19014">
        <ele>47.6</ele>
        <time>2022-07-26T09:56:33Z</time>
      </trkpt>
      <trkpt lat="44.61731" lon="-0.19015">
        <ele>47.6</ele>
        <time>2022-07-26T09:56:34Z</time>
      </trkpt>
      <trkpt lat="44.6173" lon="-0.19016">
        <ele>47.8</ele>
        <time>2022-07-26T09:56:36Z</time>
      </trkpt>
      <trkpt lat="44.61728" lon="-0.19017">
        <ele>47.5</ele>
        <time>2022-07-26T09:56:37Z</time>
      </trkpt>
      <trkpt lat="44.61727" lon="-0.19018">
        <ele>47.5</ele>
        <time>2022-07-26T09:56:38Z</time>
      </trkpt>
      <trkpt lat="44.61725" lon="-0.1902">
        <ele>47.5</ele>
        <time>2022-07-26T09:56:39Z</time>
      </trkpt>
      <trkpt lat="44.61725" lon="-0.19022">
        <ele>47.5</ele>
        <time>2022-07-26T09:56:40Z</time>
      </trkpt>
      <trkpt lat="44.61724" lon="-0.19023">
        <ele>47.5</ele>
        <time>2022-07-26T09:56:41Z</time>
      </trkpt>
      <trkpt lat="44.61724" lon="-0.19024">
        <ele>47.5</ele>
        <time>2022-07-26T09:56:43Z</time>
      </trkpt>
      <trkpt lat="44.61724" lon="-0.19026">
        <ele>47.7</ele>
        <time>2022-07-26T09:56:44Z</time>
      </trkpt>
      <trkpt lat="44.61724" lon="-0.19027">
        <ele>47.7</ele>
        <time>2022-07-26T09:56:45Z</time>
      </trkpt>
      <trkpt lat="44.61724" lon="-0.19029">
        <ele>48</ele>
        <time>2022-07-26T09:56:47Z</time>
      </trkpt>
      <trkpt lat="44.61724" lon="-0.19031">
        <ele>48</ele>
        <time>2022-07-26T09:56:48Z</time>
      </trkpt>
      <trkpt lat="44.61724" lon="-0.19032">
        <ele>48</ele>
        <time>2022-07-26T09:56:49Z</time>
      </trkpt>
      <trkpt lat="44.61724" lon="-0.19033">
        <ele>48.2</ele>
        <time>2022-07-26T09:56:50Z</time>
      </trkpt>
      <trkpt lat="44.61724" lon="-0.19035">
        <ele>48.2</ele>
        <time>2022-07-26T09:56:51Z</time>
      </trkpt>
      <trkpt lat="44.61724" lon="-0.19037">
        <ele>48.2</ele>
        <time>2022-07-26T09:56:52Z</time>
      </trkpt>
      <trkpt lat="44.61724" lon="-0.19038">
        <ele>48.6</ele>
        <time>2022-07-26T09:56:53Z</time>
      </trkpt>
      <trkpt lat="44.61723" lon="-0.19039">
        <ele>48.2</ele>
        <time>2022-07-26T09:56:54Z</time>
      </trkpt>
      <trkpt lat="44.61723" lon="-0.1904">
        <ele>48.2</ele>
        <time>2022-07-26T09:56:55Z</time>
      </trkpt>
      <trkpt lat="44.61722" lon="-0.19041">
        <ele>48.2</ele>
        <time>2022-07-26T09:56:56Z</time>
      </trkpt>
      <trkpt lat="44.61722" lon="-0.19043">
        <ele>48.5</ele>
        <time>2022-07-26T09:56:57Z</time>
      </trkpt>
      <trkpt lat="44.6172" lon="-0.19045">
        <ele>48.5</ele>
        <time>2022-07-26T09:56:59Z</time>
      </trkpt>
      <trkpt lat="44.6172" lon="-0.19046">
        <ele>48.6</ele>
        <time>2022-07-26T09:57:00Z</time>
      </trkpt>
      <trkpt lat="44.61719" lon="-0.19047">
        <ele>48.6</ele>
        <time>2022-07-26T09:57:01Z</time>
      </trkpt>
      <trkpt lat="44.61719" lon="-0.19047">
        <ele>48.6</ele>
        <time>2022-07-26T09:57:02Z</time>
      </trkpt>
      <trkpt lat="44.61718" lon="-0.19048">
        <ele>48.6</ele>
        <time>2022-07-26T09:57:03Z</time>
      </trkpt>
      <trkpt lat="44.61717" lon="-0.1905">
        <ele>48.2</ele>
        <time>2022-07-26T09:57:05Z</time>
      </trkpt>
      <trkpt lat="44.61716" lon="-0.19052">
        <ele>48.6</ele>
        <time>2022-07-26T09:57:06Z</time>
      </trkpt>
      <trkpt lat="44.61715" lon="-0.19052">
        <ele>48.6</ele>
        <time>2022-07-26T09:57:07Z</time>
      </trkpt>
      <trkpt lat="44.61713" lon="-0.19054">
        <ele>48.3</ele>
        <time>2022-07-26T09:57:08Z</time>
      </trkpt>
      <trkpt lat="44.61713" lon="-0.19055">
        <ele>48.6</ele>
        <time>2022-07-26T09:57:10Z</time>
      </trkpt>
      <trkpt lat="44.61712" lon="-0.19055">
        <ele>48.6</ele>
        <time>2022-07-26T09:57:11Z</time>
      </trkpt>
      <trkpt lat="44.6171" lon="-0.19057">
        <ele>48.3</ele>
        <time>2022-07-26T09:57:12Z</time>
      </trkpt>
      <trkpt lat="44.61709" lon="-0.19058">
        <ele>48.3</ele>
        <time>2022-07-26T09:57:13Z</time>
      </trkpt>
      <trkpt lat="44.61708" lon="-0.19059">
        <ele>48</ele>
        <time>2022-07-26T09:57:14Z</time>
      </trkpt>
      <trkpt lat="44.61707" lon="-0.1906">
        <ele>48.3</ele>
        <time>2022-07-26T09:57:15Z</time>
      </trkpt>
      <trkpt lat="44.61705" lon="-0.19062">
        <ele>48</ele>
        <time>2022-07-26T09:57:17Z</time>
      </trkpt>
      <trkpt lat="44.61704" lon="-0.19062">
        <ele>48</ele>
        <time>2022-07-26T09:57:18Z</time>
      </trkpt>
      <trkpt lat="44.61703" lon="-0.19063">
        <ele>48.4</ele>
        <time>2022-07-26T09:57:19Z</time>
      </trkpt>
      <trkpt lat="44.61702" lon="-0.19064">
        <ele>48.4</ele>
        <time>2022-07-26T09:57:20Z</time>
      </trkpt>
      <trkpt lat="44.61702" lon="-0.19065">
        <ele>48</ele>
        <time>2022-07-26T09:57:21Z</time>
      </trkpt>
      <trkpt lat="44.617" lon="-0.19068">
        <ele>48.4</ele>
        <time>2022-07-26T09:57:22Z</time>
      </trkpt>
      <trkpt lat="44.617" lon="-0.19068">
        <ele>48.4</ele>
        <time>2022-07-26T09:57:23Z</time>
      </trkpt>
      <trkpt lat="44.61699" lon="-0.19069">
        <ele>48.4</ele>
        <time>2022-07-26T09:57:24Z</time>
      </trkpt>
      <trkpt lat="44.61698" lon="-0.19072">
        <ele>48</ele>
        <time>2022-07-26T09:57:26Z</time>
      </trkpt>
      <trkpt lat="44.61698" lon="-0.19074">
        <ele>48.4</ele>
        <time>2022-07-26T09:57:27Z</time>
      </trkpt>
      <trkpt lat="44.61698" lon="-0.19075">
        <ele>48.4</ele>
        <time>2022-07-26T09:57:28Z</time>
      </trkpt>
      <trkpt lat="44.61697" lon="-0.19076">
        <ele>48.8</ele>
        <time>2022-07-26T09:57:29Z</time>
      </trkpt>
      <trkpt lat="44.61697" lon="-0.19078">
        <ele>48.8</ele>
        <time>2022-07-26T09:57:30Z</time>
      </trkpt>
      <trkpt lat="44.61696" lon="-0.19079">
        <ele>48.8</ele>
        <time>2022-07-26T09:57:31Z</time>
      </trkpt>
      <trkpt lat="44.61695" lon="-0.19082">
        <ele>48.8</ele>
        <time>2022-07-26T09:57:33Z</time>
      </trkpt>
      <trkpt lat="44.61695" lon="-0.19083">
        <ele>48.8</ele>
        <time>2022-07-26T09:57:34Z</time>
      </trkpt>
      <trkpt lat="44.61693" lon="-0.19086">
        <ele>49.2</ele>
        <time>2022-07-26T09:57:35Z</time>
      </trkpt>
      <trkpt lat="44.61692" lon="-0.19087">
        <ele>48.8</ele>
        <time>2022-07-26T09:57:36Z</time>
      </trkpt>
      <trkpt lat="44.61692" lon="-0.19088">
        <ele>48.8</ele>
        <time>2022-07-26T09:57:37Z</time>
      </trkpt>
      <trkpt lat="44.61691" lon="-0.19088">
        <ele>48.8</ele>
        <time>2022-07-26T09:57:38Z</time>
      </trkpt>
      <trkpt lat="44.6169" lon="-0.19089">
        <ele>49.1</ele>
        <time>2022-07-26T09:57:39Z</time>
      </trkpt>
      <trkpt lat="44.61689" lon="-0.19089">
        <ele>48.8</ele>
        <time>2022-07-26T09:57:40Z</time>
      </trkpt>
      <trkpt lat="44.61688" lon="-0.19092">
        <ele>48.8</ele>
        <time>2022-07-26T09:57:42Z</time>
      </trkpt>
      <trkpt lat="44.61686" lon="-0.19093">
        <ele>48.4</ele>
        <time>2022-07-26T09:57:43Z</time>
      </trkpt>
      <trkpt lat="44.61686" lon="-0.19093">
        <ele>48.8</ele>
        <time>2022-07-26T09:57:44Z</time>
      </trkpt>
      <trkpt lat="44.61685" lon="-0.19094">
        <ele>48.8</ele>
        <time>2022-07-26T09:57:45Z</time>
      </trkpt>
      <trkpt lat="44.61685" lon="-0.19095">
        <ele>48.8</ele>
        <time>2022-07-26T09:57:46Z</time>
      </trkpt>
      <trkpt lat="44.61684" lon="-0.19096">
        <ele>48.8</ele>
        <time>2022-07-26T09:57:47Z</time>
      </trkpt>
      <trkpt lat="44.61683" lon="-0.19097">
        <ele>48.4</ele>
        <time>2022-07-26T09:57:49Z</time>
      </trkpt>
      <trkpt lat="44.61682" lon="-0.19098">
        <ele>48.7</ele>
        <time>2022-07-26T09:57:50Z</time>
      </trkpt>
      <trkpt lat="44.61681" lon="-0.19099">
        <ele>48.7</ele>
        <time>2022-07-26T09:57:51Z</time>
      </trkpt>
      <trkpt lat="44.6168" lon="-0.191">
        <ele>48.4</ele>
        <time>2022-07-26T09:57:52Z</time>
      </trkpt>
      <trkpt lat="44.6168" lon="-0.19102">
        <ele>48.7</ele>
        <time>2022-07-26T09:57:53Z</time>
      </trkpt>
      <trkpt lat="44.61679" lon="-0.19104">
        <ele>48.7</ele>
        <time>2022-07-26T09:57:54Z</time>
      </trkpt>
      <trkpt lat="44.61678" lon="-0.19105">
        <ele>48.7</ele>
        <time>2022-07-26T09:57:55Z</time>
      </trkpt>
      <trkpt lat="44.61678" lon="-0.19106">
        <ele>48.9</ele>
        <time>2022-07-26T09:57:56Z</time>
      </trkpt>
      <trkpt lat="44.61676" lon="-0.19108">
        <ele>48.6</ele>
        <time>2022-07-26T09:57:57Z</time>
      </trkpt>
      <trkpt lat="44.61676" lon="-0.19109">
        <ele>48.6</ele>
        <time>2022-07-26T09:57:59Z</time>
      </trkpt>
      <trkpt lat="44.61675" lon="-0.1911">
        <ele>48.6</ele>
        <time>2022-07-26T09:58:00Z</time>
      </trkpt>
      <trkpt lat="44.61674" lon="-0.19111">
        <ele>48.4</ele>
        <time>2022-07-26T09:58:01Z</time>
      </trkpt>
      <trkpt lat="44.61673" lon="-0.19112">
        <ele>48.4</ele>
        <time>2022-07-26T09:58:02Z</time>
      </trkpt>
      <trkpt lat="44.61671" lon="-0.19113">
        <ele>48.1</ele>
        <time>2022-07-26T09:58:04Z</time>
      </trkpt>
      <trkpt lat="44.61669" lon="-0.19114">
        <ele>48.1</ele>
        <time>2022-07-26T09:58:05Z</time>
      </trkpt>
      <trkpt lat="44.61668" lon="-0.19115">
        <ele>47.9</ele>
        <time>2022-07-26T09:58:06Z</time>
      </trkpt>
      <trkpt lat="44.61667" lon="-0.19115">
        <ele>47.9</ele>
        <time>2022-07-26T09:58:07Z</time>
      </trkpt>
      <trkpt lat="44.61665" lon="-0.19116">
        <ele>47.6</ele>
        <time>2022-07-26T09:58:08Z</time>
      </trkpt>
      <trkpt lat="44.61664" lon="-0.19116">
        <ele>47.6</ele>
        <time>2022-07-26T09:58:10Z</time>
      </trkpt>
      <trkpt lat="44.61663" lon="-0.19117">
        <ele>47.6</ele>
        <time>2022-07-26T09:58:11Z</time>
      </trkpt>
      <trkpt lat="44.61661" lon="-0.19117">
        <ele>47.3</ele>
        <time>2022-07-26T09:58:12Z</time>
      </trkpt>
      <trkpt lat="44.6166" lon="-0.19117">
        <ele>47.3</ele>
        <time>2022-07-26T09:58:13Z</time>
      </trkpt>
      <trkpt lat="44.61659" lon="-0.19117">
        <ele>46.9</ele>
        <time>2022-07-26T09:58:14Z</time>
      </trkpt>
      <trkpt lat="44.61657" lon="-0.19117">
        <ele>46.9</ele>
        <time>2022-07-26T09:58:15Z</time>
      </trkpt>
      <trkpt lat="44.61656" lon="-0.19117">
        <ele>46.6</ele>
        <time>2022-07-26T09:58:16Z</time>
      </trkpt>
      <trkpt lat="44.61654" lon="-0.19117">
        <ele>46.6</ele>
        <time>2022-07-26T09:58:17Z</time>
      </trkpt>
      <trkpt lat="44.61653" lon="-0.19116">
        <ele>46.3</ele>
        <time>2022-07-26T09:58:18Z</time>
      </trkpt>
      <trkpt lat="44.61652" lon="-0.19116">
        <ele>46.3</ele>
        <time>2022-07-26T09:58:19Z</time>
      </trkpt>
      <trkpt lat="44.6165" lon="-0.19117">
        <ele>46.3</ele>
        <time>2022-07-26T09:58:20Z</time>
      </trkpt>
      <trkpt lat="44.61648" lon="-0.19117">
        <ele>46</ele>
        <time>2022-07-26T09:58:22Z</time>
      </trkpt>
      <trkpt lat="44.61647" lon="-0.19117">
        <ele>46</ele>
        <time>2022-07-26T09:58:23Z</time>
      </trkpt>
      <trkpt lat="44.61646" lon="-0.19117">
        <ele>45.7</ele>
        <time>2022-07-26T09:58:24Z</time>
      </trkpt>
      <trkpt lat="44.61644" lon="-0.19117">
        <ele>45.7</ele>
        <time>2022-07-26T09:58:25Z</time>
      </trkpt>
      <trkpt lat="44.61641" lon="-0.19116">
        <ele>45.4</ele>
        <time>2022-07-26T09:58:27Z</time>
      </trkpt>
      <trkpt lat="44.61641" lon="-0.19116">
        <ele>45.1</ele>
        <time>2022-07-26T09:58:28Z</time>
      </trkpt>
      <trkpt lat="44.6164" lon="-0.19115">
        <ele>45.1</ele>
        <time>2022-07-26T09:58:29Z</time>
      </trkpt>
      <trkpt lat="44.61639" lon="-0.19115">
        <ele>45.1</ele>
        <time>2022-07-26T09:58:30Z</time>
      </trkpt>
      <trkpt lat="44.61635" lon="-0.19114">
        <ele>44.7</ele>
        <time>2022-07-26T09:58:32Z</time>
      </trkpt>
      <trkpt lat="44.61634" lon="-0.19114">
        <ele>44.4</ele>
        <time>2022-07-26T09:58:34Z</time>
      </trkpt>
      <trkpt lat="44.61633" lon="-0.19114">
        <ele>44.4</ele>
        <time>2022-07-26T09:58:35Z</time>
      </trkpt>
      <trkpt lat="44.61632" lon="-0.19114">
        <ele>44.4</ele>
        <time>2022-07-26T09:58:36Z</time>
      </trkpt>
      <trkpt lat="44.61629" lon="-0.19114">
        <ele>44.1</ele>
        <time>2022-07-26T09:58:37Z</time>
      </trkpt>
      <trkpt lat="44.61629" lon="-0.19114">
        <ele>43.9</ele>
        <time>2022-07-26T09:58:38Z</time>
      </trkpt>
      <trkpt lat="44.61628" lon="-0.19114">
        <ele>43.9</ele>
        <time>2022-07-26T09:58:39Z</time>
      </trkpt>
      <trkpt lat="44.61626" lon="-0.19114">
        <ele>43.9</ele>
        <time>2022-07-26T09:58:41Z</time>
      </trkpt>
      <trkpt lat="44.61624" lon="-0.19114">
        <ele>43.7</ele>
        <time>2022-07-26T09:58:42Z</time>
      </trkpt>
      <trkpt lat="44.61623" lon="-0.19114">
        <ele>43.7</ele>
        <time>2022-07-26T09:58:43Z</time>
      </trkpt>
      <trkpt lat="44.61622" lon="-0.19114">
        <ele>43.6</ele>
        <time>2022-07-26T09:58:44Z</time>
      </trkpt>
      <trkpt lat="44.61621" lon="-0.19113">
        <ele>43.6</ele>
        <time>2022-07-26T09:58:45Z</time>
      </trkpt>
      <trkpt lat="44.6162" lon="-0.19113">
        <ele>43.6</ele>
        <time>2022-07-26T09:58:46Z</time>
      </trkpt>
      <trkpt lat="44.61618" lon="-0.19114">
        <ele>43.4</ele>
        <time>2022-07-26T09:58:47Z</time>
      </trkpt>
      <trkpt lat="44.61618" lon="-0.19114">
        <ele>43.4</ele>
        <time>2022-07-26T09:58:48Z</time>
      </trkpt>
      <trkpt lat="44.61617" lon="-0.19115">
        <ele>43.6</ele>
        <time>2022-07-26T09:58:50Z</time>
      </trkpt>
      <trkpt lat="44.61616" lon="-0.19115">
        <ele>43.6</ele>
        <time>2022-07-26T09:58:51Z</time>
      </trkpt>
      <trkpt lat="44.61614" lon="-0.19115">
        <ele>43.4</ele>
        <time>2022-07-26T09:58:52Z</time>
      </trkpt>
      <trkpt lat="44.61614" lon="-0.19115">
        <ele>43.4</ele>
        <time>2022-07-26T09:58:53Z</time>
      </trkpt>
      <trkpt lat="44.61614" lon="-0.19115">
        <ele>43.4</ele>
        <time>2022-07-26T09:58:54Z</time>
      </trkpt>
      <trkpt lat="44.61614" lon="-0.19115">
        <ele>43.4</ele>
        <time>2022-07-26T09:58:55Z</time>
      </trkpt>
      <trkpt lat="44.61614" lon="-0.19115">
        <ele>43.4</ele>
        <time>2022-07-26T09:58:56Z</time>
      </trkpt>
      <trkpt lat="44.61613" lon="-0.19115">
        <ele>43.4</ele>
        <time>2022-07-26T09:58:57Z</time>
      </trkpt>
      <trkpt lat="44.61614" lon="-0.19115">
        <ele>43.4</ele>
        <time>2022-07-26T09:58:58Z</time>
      </trkpt>
      <trkpt lat="44.61613" lon="-0.19115">
        <ele>43.2</ele>
        <time>2022-07-26T09:58:59Z</time>
      </trkpt>
      <trkpt lat="44.61612" lon="-0.19115">
        <ele>43.2</ele>
        <time>2022-07-26T09:59:00Z</time>
      </trkpt>
      <trkpt lat="44.61611" lon="-0.19115">
        <ele>43.2</ele>
        <time>2022-07-26T09:59:02Z</time>
      </trkpt>
      <trkpt lat="44.61609" lon="-0.19114">
        <ele>42.9</ele>
        <time>2022-07-26T09:59:03Z</time>
      </trkpt>
      <trkpt lat="44.61608" lon="-0.19114">
        <ele>42.9</ele>
        <time>2022-07-26T09:59:04Z</time>
      </trkpt>
      <trkpt lat="44.61607" lon="-0.19114">
        <ele>42.8</ele>
        <time>2022-07-26T09:59:05Z</time>
      </trkpt>
      <trkpt lat="44.61605" lon="-0.19113">
        <ele>42.8</ele>
        <time>2022-07-26T09:59:06Z</time>
      </trkpt>
      <trkpt lat="44.61602" lon="-0.19113">
        <ele>42.7</ele>
        <time>2022-07-26T09:59:07Z</time>
      </trkpt>
      <trkpt lat="44.61601" lon="-0.19113">
        <ele>42.7</ele>
        <time>2022-07-26T09:59:08Z</time>
      </trkpt>
      <trkpt lat="44.616" lon="-0.19113">
        <ele>42.6</ele>
        <time>2022-07-26T09:59:10Z</time>
      </trkpt>
      <trkpt lat="44.61598" lon="-0.19114">
        <ele>42.6</ele>
        <time>2022-07-26T09:59:11Z</time>
      </trkpt>
      <trkpt lat="44.61597" lon="-0.19114">
        <ele>42.6</ele>
        <time>2022-07-26T09:59:12Z</time>
      </trkpt>
      <trkpt lat="44.61595" lon="-0.19113">
        <ele>42.6</ele>
        <time>2022-07-26T09:59:13Z</time>
      </trkpt>
      <trkpt lat="44.61593" lon="-0.19113">
        <ele>42.5</ele>
        <time>2022-07-26T09:59:14Z</time>
      </trkpt>
      <trkpt lat="44.61592" lon="-0.19112">
        <ele>42.5</ele>
        <time>2022-07-26T09:59:15Z</time>
      </trkpt>
      <trkpt lat="44.61591" lon="-0.19111">
        <ele>42.4</ele>
        <time>2022-07-26T09:59:17Z</time>
      </trkpt>
      <trkpt lat="44.6159" lon="-0.1911">
        <ele>42.4</ele>
        <time>2022-07-26T09:59:18Z</time>
      </trkpt>
      <trkpt lat="44.61589" lon="-0.19109">
        <ele>42.3</ele>
        <time>2022-07-26T09:59:19Z</time>
      </trkpt>
      <trkpt lat="44.61588" lon="-0.19109">
        <ele>42.3</ele>
        <time>2022-07-26T09:59:21Z</time>
      </trkpt>
      <trkpt lat="44.61587" lon="-0.19108">
        <ele>42.3</ele>
        <time>2022-07-26T09:59:22Z</time>
      </trkpt>
      <trkpt lat="44.61586" lon="-0.19108">
        <ele>42.3</ele>
        <time>2022-07-26T09:59:23Z</time>
      </trkpt>
      <trkpt lat="44.61584" lon="-0.19108">
        <ele>42.3</ele>
        <time>2022-07-26T09:59:24Z</time>
      </trkpt>
      <trkpt lat="44.61582" lon="-0.19107">
        <ele>42.2</ele>
        <time>2022-07-26T09:59:25Z</time>
      </trkpt>
      <trkpt lat="44.61581" lon="-0.19107">
        <ele>42.2</ele>
        <time>2022-07-26T09:59:26Z</time>
      </trkpt>
      <trkpt lat="44.6158" lon="-0.19107">
        <ele>42.2</ele>
        <time>2022-07-26T09:59:27Z</time>
      </trkpt>
      <trkpt lat="44.61579" lon="-0.19107">
        <ele>42.1</ele>
        <time>2022-07-26T09:59:29Z</time>
      </trkpt>
      <trkpt lat="44.61578" lon="-0.19108">
        <ele>42.1</ele>
        <time>2022-07-26T09:59:30Z</time>
      </trkpt>
      <trkpt lat="44.61578" lon="-0.19109">
        <ele>42.1</ele>
        <time>2022-07-26T09:59:31Z</time>
      </trkpt>
      <trkpt lat="44.61577" lon="-0.19109">
        <ele>42.1</ele>
        <time>2022-07-26T09:59:32Z</time>
      </trkpt>
      <trkpt lat="44.61577" lon="-0.19109">
        <ele>42.1</ele>
        <time>2022-07-26T09:59:33Z</time>
      </trkpt>
      <trkpt lat="44.61575" lon="-0.1911">
        <ele>42.1</ele>
        <time>2022-07-26T09:59:35Z</time>
      </trkpt>
      <trkpt lat="44.61574" lon="-0.1911">
        <ele>42.1</ele>
        <time>2022-07-26T09:59:36Z</time>
      </trkpt>
      <trkpt lat="44.61573" lon="-0.1911">
        <ele>42</ele>
        <time>2022-07-26T09:59:37Z</time>
      </trkpt>
      <trkpt lat="44.61572" lon="-0.19109">
        <ele>42</ele>
        <time>2022-07-26T09:59:38Z</time>
      </trkpt>
      <trkpt lat="44.61569" lon="-0.19109">
        <ele>42</ele>
        <time>2022-07-26T09:59:39Z</time>
      </trkpt>
      <trkpt lat="44.61569" lon="-0.19109">
        <ele>42</ele>
        <time>2022-07-26T09:59:40Z</time>
      </trkpt>
      <trkpt lat="44.61566" lon="-0.19109">
        <ele>41.9</ele>
        <time>2022-07-26T09:59:42Z</time>
      </trkpt>
      <trkpt lat="44.61565" lon="-0.19108">
        <ele>41.9</ele>
        <time>2022-07-26T09:59:43Z</time>
      </trkpt>
      <trkpt lat="44.61563" lon="-0.19108">
        <ele>41.9</ele>
        <time>2022-07-26T09:59:44Z</time>
      </trkpt>
      <trkpt lat="44.61562" lon="-0.19107">
        <ele>41.9</ele>
        <time>2022-07-26T09:59:45Z</time>
      </trkpt>
      <trkpt lat="44.6156" lon="-0.19106">
        <ele>41.8</ele>
        <time>2022-07-26T09:59:46Z</time>
      </trkpt>
      <trkpt lat="44.6156" lon="-0.19105">
        <ele>41.8</ele>
        <time>2022-07-26T09:59:47Z</time>
      </trkpt>
      <trkpt lat="44.61559" lon="-0.19104">
        <ele>41.8</ele>
        <time>2022-07-26T09:59:48Z</time>
      </trkpt>
      <trkpt lat="44.61557" lon="-0.19103">
        <ele>41.8</ele>
        <time>2022-07-26T09:59:49Z</time>
      </trkpt>
      <trkpt lat="44.61556" lon="-0.19101">
        <ele>41.8</ele>
        <time>2022-07-26T09:59:51Z</time>
      </trkpt>
      <trkpt lat="44.61554" lon="-0.191">
        <ele>41.7</ele>
        <time>2022-07-26T09:59:52Z</time>
      </trkpt>
      <trkpt lat="44.61554" lon="-0.19099">
        <ele>41.7</ele>
        <time>2022-07-26T09:59:53Z</time>
      </trkpt>
      <trkpt lat="44.61551" lon="-0.19097">
        <ele>41.6</ele>
        <time>2022-07-26T09:59:55Z</time>
      </trkpt>
      <trkpt lat="44.6155" lon="-0.19095">
        <ele>41.6</ele>
        <time>2022-07-26T09:59:56Z</time>
      </trkpt>
      <trkpt lat="44.6155" lon="-0.19094">
        <ele>41.6</ele>
        <time>2022-07-26T09:59:57Z</time>
      </trkpt>
      <trkpt lat="44.61549" lon="-0.19093">
        <ele>41.6</ele>
        <time>2022-07-26T09:59:58Z</time>
      </trkpt>
      <trkpt lat="44.61548" lon="-0.19089">
        <ele>41.5</ele>
        <time>2022-07-26T10:00:00Z</time>
      </trkpt>
      <trkpt lat="44.61547" lon="-0.19088">
        <ele>41.5</ele>
        <time>2022-07-26T10:00:01Z</time>
      </trkpt>
      <trkpt lat="44.61547" lon="-0.19087">
        <ele>41.5</ele>
        <time>2022-07-26T10:00:02Z</time>
      </trkpt>
      <trkpt lat="44.61546" lon="-0.19086">
        <ele>41.4</ele>
        <time>2022-07-26T10:00:03Z</time>
      </trkpt>
      <trkpt lat="44.61544" lon="-0.19084">
        <ele>41.4</ele>
        <time>2022-07-26T10:00:05Z</time>
      </trkpt>
      <trkpt lat="44.61544" lon="-0.19083">
        <ele>41.4</ele>
        <time>2022-07-26T10:00:06Z</time>
      </trkpt>
      <trkpt lat="44.61543" lon="-0.19083">
        <ele>41.4</ele>
        <time>2022-07-26T10:00:07Z</time>
      </trkpt>
      <trkpt lat="44.61543" lon="-0.19082">
        <ele>41.3</ele>
        <time>2022-07-26T10:00:08Z</time>
      </trkpt>
      <trkpt lat="44.61541" lon="-0.1908">
        <ele>41.3</ele>
        <time>2022-07-26T10:00:10Z</time>
      </trkpt>
      <trkpt lat="44.61541" lon="-0.1908">
        <ele>41.3</ele>
        <time>2022-07-26T10:00:11Z</time>
      </trkpt>
      <trkpt lat="44.61541" lon="-0.19079">
        <ele>41.3</ele>
        <time>2022-07-26T10:00:12Z</time>
      </trkpt>
      <trkpt lat="44.6154" lon="-0.19079">
        <ele>41.3</ele>
        <time>2022-07-26T10:00:13Z</time>
      </trkpt>
      <trkpt lat="44.61539" lon="-0.19078">
        <ele>41.2</ele>
        <time>2022-07-26T10:00:15Z</time>
      </trkpt>
      <trkpt lat="44.61538" lon="-0.19077">
        <ele>41.2</ele>
        <time>2022-07-26T10:00:17Z</time>
      </trkpt>
      <trkpt lat="44.61538" lon="-0.19076">
        <ele>41.2</ele>
        <time>2022-07-26T10:00:18Z</time>
      </trkpt>
      <trkpt lat="44.61537" lon="-0.19075">
        <ele>41.2</ele>
        <time>2022-07-26T10:00:19Z</time>
      </trkpt>
      <trkpt lat="44.61536" lon="-0.19074">
        <ele>41.1</ele>
        <time>2022-07-26T10:00:20Z</time>
      </trkpt>
      <trkpt lat="44.61534" lon="-0.19072">
        <ele>41.1</ele>
        <time>2022-07-26T10:00:22Z</time>
      </trkpt>
      <trkpt lat="44.61534" lon="-0.19071">
        <ele>41</ele>
        <time>2022-07-26T10:00:23Z</time>
      </trkpt>
      <trkpt lat="44.61533" lon="-0.19071">
        <ele>41</ele>
        <time>2022-07-26T10:00:24Z</time>
      </trkpt>
      <trkpt lat="44.61533" lon="-0.19071">
        <ele>41</ele>
        <time>2022-07-26T10:00:25Z</time>
      </trkpt>
      <trkpt lat="44.61533" lon="-0.19071">
        <ele>41</ele>
        <time>2022-07-26T10:00:26Z</time>
      </trkpt>
      <trkpt lat="44.61533" lon="-0.19071">
        <ele>41</ele>
        <time>2022-07-26T10:00:27Z</time>
      </trkpt>
      <trkpt lat="44.61533" lon="-0.19071">
        <ele>41</ele>
        <time>2022-07-26T10:00:28Z</time>
      </trkpt>
      <trkpt lat="44.61533" lon="-0.19071">
        <ele>41</ele>
        <time>2022-07-26T10:00:29Z</time>
      </trkpt>
      <trkpt lat="44.61534" lon="-0.19071">
        <ele>41</ele>
        <time>2022-07-26T10:00:30Z</time>
      </trkpt>
      <trkpt lat="44.61534" lon="-0.19072">
        <ele>41</ele>
        <time>2022-07-26T10:00:31Z</time>
      </trkpt>
      <trkpt lat="44.61534" lon="-0.19072">
        <ele>41.1</ele>
        <time>2022-07-26T10:00:32Z</time>
      </trkpt>
      <trkpt lat="44.61534" lon="-0.19072">
        <ele>41.1</ele>
        <time>2022-07-26T10:00:33Z</time>
      </trkpt>
      <trkpt lat="44.61534" lon="-0.19072">
        <ele>41.1</ele>
        <time>2022-07-26T10:00:34Z</time>
      </trkpt>
      <trkpt lat="44.61534" lon="-0.19073">
        <ele>41.1</ele>
        <time>2022-07-26T10:00:35Z</time>
      </trkpt>
      <trkpt lat="44.61534" lon="-0.19073">
        <ele>41.1</ele>
        <time>2022-07-26T10:00:36Z</time>
      </trkpt>
      <trkpt lat="44.61534" lon="-0.19074">
        <ele>41.1</ele>
        <time>2022-07-26T10:00:37Z</time>
      </trkpt>
      <trkpt lat="44.61534" lon="-0.19074">
        <ele>41.1</ele>
        <time>2022-07-26T10:00:38Z</time>
      </trkpt>
      <trkpt lat="44.61534" lon="-0.19074">
        <ele>41.1</ele>
        <time>2022-07-26T10:00:39Z</time>
      </trkpt>
      <trkpt lat="44.61534" lon="-0.19075">
        <ele>41.1</ele>
        <time>2022-07-26T10:00:40Z</time>
      </trkpt>
      <trkpt lat="44.61534" lon="-0.19075">
        <ele>41.1</ele>
        <time>2022-07-26T10:00:41Z</time>
      </trkpt>
      <trkpt lat="44.61534" lon="-0.19076">
        <ele>41.1</ele>
        <time>2022-07-26T10:00:43Z</time>
      </trkpt>
      <trkpt lat="44.61534" lon="-0.19076">
        <ele>41.2</ele>
        <time>2022-07-26T10:00:44Z</time>
      </trkpt>
      <trkpt lat="44.61534" lon="-0.19077">
        <ele>41.2</ele>
        <time>2022-07-26T10:00:45Z</time>
      </trkpt>
      <trkpt lat="44.61534" lon="-0.19077">
        <ele>41.2</ele>
        <time>2022-07-26T10:00:46Z</time>
      </trkpt>
      <trkpt lat="44.61535" lon="-0.19078">
        <ele>41.2</ele>
        <time>2022-07-26T10:00:48Z</time>
      </trkpt>
      <trkpt lat="44.61535" lon="-0.19078">
        <ele>41.2</ele>
        <time>2022-07-26T10:00:49Z</time>
      </trkpt>
      <trkpt lat="44.61536" lon="-0.19078">
        <ele>41.2</ele>
        <time>2022-07-26T10:00:50Z</time>
      </trkpt>
      <trkpt lat="44.61536" lon="-0.19078">
        <ele>41.2</ele>
        <time>2022-07-26T10:00:51Z</time>
      </trkpt>
      <trkpt lat="44.61536" lon="-0.19079">
        <ele>41.2</ele>
        <time>2022-07-26T10:00:52Z</time>
      </trkpt>
      <trkpt lat="44.61537" lon="-0.1908">
        <ele>41.2</ele>
        <time>2022-07-26T10:00:53Z</time>
      </trkpt>
      <trkpt lat="44.61537" lon="-0.1908">
        <ele>41.2</ele>
        <time>2022-07-26T10:00:54Z</time>
      </trkpt>
      <trkpt lat="44.61537" lon="-0.1908">
        <ele>41.3</ele>
        <time>2022-07-26T10:00:55Z</time>
      </trkpt>
      <trkpt lat="44.61538" lon="-0.19081">
        <ele>41.3</ele>
        <time>2022-07-26T10:00:56Z</time>
      </trkpt>
      <trkpt lat="44.61538" lon="-0.19082">
        <ele>41.3</ele>
        <time>2022-07-26T10:00:57Z</time>
      </trkpt>
      <trkpt lat="44.61538" lon="-0.19082">
        <ele>41.3</ele>
        <time>2022-07-26T10:00:58Z</time>
      </trkpt>
      <trkpt lat="44.61537" lon="-0.19082">
        <ele>41.3</ele>
        <time>2022-07-26T10:00:59Z</time>
      </trkpt>
      <trkpt lat="44.61537" lon="-0.19083">
        <ele>41.3</ele>
        <time>2022-07-26T10:01:00Z</time>
      </trkpt>
      <trkpt lat="44.61537" lon="-0.19083">
        <ele>41.2</ele>
        <time>2022-07-26T10:01:01Z</time>
      </trkpt>
      <trkpt lat="44.61537" lon="-0.19083">
        <ele>41.2</ele>
        <time>2022-07-26T10:01:03Z</time>
      </trkpt>
      <trkpt lat="44.61536" lon="-0.19084">
        <ele>41.2</ele>
        <time>2022-07-26T10:01:04Z</time>
      </trkpt>
      <trkpt lat="44.61536" lon="-0.19084">
        <ele>41.2</ele>
        <time>2022-07-26T10:01:05Z</time>
      </trkpt>
      <trkpt lat="44.61536" lon="-0.19084">
        <ele>41.2</ele>
        <time>2022-07-26T10:01:06Z</time>
      </trkpt>
      <trkpt lat="44.61535" lon="-0.19085">
        <ele>41.3</ele>
        <time>2022-07-26T10:01:07Z</time>
      </trkpt>
      <trkpt lat="44.61534" lon="-0.19085">
        <ele>41.2</ele>
        <time>2022-07-26T10:01:08Z</time>
      </trkpt>
      <trkpt lat="44.61532" lon="-0.19085">
        <ele>41.2</ele>
        <time>2022-07-26T10:01:09Z</time>
      </trkpt>
      <trkpt lat="44.61529" lon="-0.19085">
        <ele>41.2</ele>
        <time>2022-07-26T10:01:10Z</time>
      </trkpt>
      <trkpt lat="44.61529" lon="-0.19085">
        <ele>41.2</ele>
        <time>2022-07-26T10:01:11Z</time>
      </trkpt>
      <trkpt lat="44.61526" lon="-0.19085">
        <ele>41.2</ele>
        <time>2022-07-26T10:01:13Z</time>
      </trkpt>
      <trkpt lat="44.61526" lon="-0.19085">
        <ele>41.2</ele>
        <time>2022-07-26T10:01:14Z</time>
      </trkpt>
      <trkpt lat="44.61527" lon="-0.19086">
        <ele>41.2</ele>
        <time>2022-07-26T10:01:15Z</time>
      </trkpt>
      <trkpt lat="44.61527" lon="-0.19086">
        <ele>41.2</ele>
        <time>2022-07-26T10:01:16Z</time>
      </trkpt>
      <trkpt lat="44.6153" lon="-0.19088">
        <ele>41.2</ele>
        <time>2022-07-26T10:01:18Z</time>
      </trkpt>
      <trkpt lat="44.6153" lon="-0.19089">
        <ele>41.2</ele>
        <time>2022-07-26T10:01:19Z</time>
      </trkpt>
      <trkpt lat="44.61531" lon="-0.1909">
        <ele>41.2</ele>
        <time>2022-07-26T10:01:20Z</time>
      </trkpt>
      <trkpt lat="44.61531" lon="-0.19092">
        <ele>41.2</ele>
        <time>2022-07-26T10:01:21Z</time>
      </trkpt>
      <trkpt lat="44.61531" lon="-0.19094">
        <ele>41.3</ele>
        <time>2022-07-26T10:01:23Z</time>
      </trkpt>
      <trkpt lat="44.61532" lon="-0.19095">
        <ele>41.3</ele>
        <time>2022-07-26T10:01:24Z</time>
      </trkpt>
      <trkpt lat="44.61532" lon="-0.19096">
        <ele>41.3</ele>
        <time>2022-07-26T10:01:25Z</time>
      </trkpt>
      <trkpt lat="44.61533" lon="-0.19097">
        <ele>41.3</ele>
        <time>2022-07-26T10:01:26Z</time>
      </trkpt>
      <trkpt lat="44.61535" lon="-0.191">
        <ele>41.3</ele>
        <time>2022-07-26T10:01:27Z</time>
      </trkpt>
      <trkpt lat="44.61536" lon="-0.19101">
        <ele>41.3</ele>
        <time>2022-07-26T10:01:29Z</time>
      </trkpt>
      <trkpt lat="44.61537" lon="-0.19102">
        <ele>41.4</ele>
        <time>2022-07-26T10:01:30Z</time>
      </trkpt>
      <trkpt lat="44.61538" lon="-0.19102">
        <ele>41.4</ele>
        <time>2022-07-26T10:01:31Z</time>
      </trkpt>
      <trkpt lat="44.61541" lon="-0.19104">
        <ele>41.5</ele>
        <time>2022-07-26T10:01:33Z</time>
      </trkpt>
      <trkpt lat="44.61542" lon="-0.19104">
        <ele>41.5</ele>
        <time>2022-07-26T10:01:34Z</time>
      </trkpt>
      <trkpt lat="44.61543" lon="-0.19105">
        <ele>41.5</ele>
        <time>2022-07-26T10:01:35Z</time>
      </trkpt>
      <trkpt lat="44.61544" lon="-0.19106">
        <ele>41.5</ele>
        <time>2022-07-26T10:01:36Z</time>
      </trkpt>
      <trkpt lat="44.61547" lon="-0.19109">
        <ele>41.6</ele>
        <time>2022-07-26T10:01:38Z</time>
      </trkpt>
      <trkpt lat="44.61548" lon="-0.19109">
        <ele>41.6</ele>
        <time>2022-07-26T10:01:39Z</time>
      </trkpt>
      <trkpt lat="44.61549" lon="-0.1911">
        <ele>41.6</ele>
        <time>2022-07-26T10:01:40Z</time>
      </trkpt>
      <trkpt lat="44.6155" lon="-0.19111">
        <ele>41.6</ele>
        <time>2022-07-26T10:01:41Z</time>
      </trkpt>
      <trkpt lat="44.61552" lon="-0.19114">
        <ele>41.7</ele>
        <time>2022-07-26T10:01:43Z</time>
      </trkpt>
      <trkpt lat="44.61552" lon="-0.19115">
        <ele>41.6</ele>
        <time>2022-07-26T10:01:44Z</time>
      </trkpt>
      <trkpt lat="44.61553" lon="-0.19115">
        <ele>41.6</ele>
        <time>2022-07-26T10:01:45Z</time>
      </trkpt>
      <trkpt lat="44.61553" lon="-0.19116">
        <ele>41.6</ele>
        <time>2022-07-26T10:01:46Z</time>
      </trkpt>
      <trkpt lat="44.61554" lon="-0.19117">
        <ele>41.6</ele>
        <time>2022-07-26T10:01:47Z</time>
      </trkpt>
      <trkpt lat="44.61554" lon="-0.19119">
        <ele>41.6</ele>
        <time>2022-07-26T10:01:48Z</time>
      </trkpt>
      <trkpt lat="44.61555" lon="-0.19121">
        <ele>41.7</ele>
        <time>2022-07-26T10:01:50Z</time>
      </trkpt>
      <trkpt lat="44.61557" lon="-0.19122">
        <ele>41.7</ele>
        <time>2022-07-26T10:01:51Z</time>
      </trkpt>
      <trkpt lat="44.61558" lon="-0.19121">
        <ele>41.7</ele>
        <time>2022-07-26T10:01:52Z</time>
      </trkpt>
      <trkpt lat="44.61559" lon="-0.19122">
        <ele>41.7</ele>
        <time>2022-07-26T10:01:53Z</time>
      </trkpt>
      <trkpt lat="44.61561" lon="-0.19125">
        <ele>41.7</ele>
        <time>2022-07-26T10:01:54Z</time>
      </trkpt>
      <trkpt lat="44.61561" lon="-0.19126">
        <ele>41.7</ele>
        <time>2022-07-26T10:01:55Z</time>
      </trkpt>
      <trkpt lat="44.61563" lon="-0.19129">
        <ele>41.6</ele>
        <time>2022-07-26T10:01:56Z</time>
      </trkpt>
      <trkpt lat="44.61564" lon="-0.1913">
        <ele>41.6</ele>
        <time>2022-07-26T10:01:58Z</time>
      </trkpt>
      <trkpt lat="44.61564" lon="-0.19131">
        <ele>41.6</ele>
        <time>2022-07-26T10:01:59Z</time>
      </trkpt>
      <trkpt lat="44.61565" lon="-0.19133">
        <ele>41.6</ele>
        <time>2022-07-26T10:02:00Z</time>
      </trkpt>
      <trkpt lat="44.61566" lon="-0.19134">
        <ele>41.6</ele>
        <time>2022-07-26T10:02:01Z</time>
      </trkpt>
      <trkpt lat="44.61567" lon="-0.19138">
        <ele>41.5</ele>
        <time>2022-07-26T10:02:03Z</time>
      </trkpt>
      <trkpt lat="44.61567" lon="-0.19139">
        <ele>41.5</ele>
        <time>2022-07-26T10:02:04Z</time>
      </trkpt>
      <trkpt lat="44.61568" lon="-0.19141">
        <ele>41.5</ele>
        <time>2022-07-26T10:02:05Z</time>
      </trkpt>
      <trkpt lat="44.61568" lon="-0.19144">
        <ele>41.5</ele>
        <time>2022-07-26T10:02:07Z</time>
      </trkpt>
      <trkpt lat="44.61569" lon="-0.19145">
        <ele>41.3</ele>
        <time>2022-07-26T10:02:08Z</time>
      </trkpt>
      <trkpt lat="44.61569" lon="-0.19146">
        <ele>41.3</ele>
        <time>2022-07-26T10:02:09Z</time>
      </trkpt>
      <trkpt lat="44.6157" lon="-0.19148">
        <ele>41.3</ele>
        <time>2022-07-26T10:02:10Z</time>
      </trkpt>
      <trkpt lat="44.61571" lon="-0.19149">
        <ele>41.4</ele>
        <time>2022-07-26T10:02:11Z</time>
      </trkpt>
      <trkpt lat="44.61572" lon="-0.1915">
        <ele>41.3</ele>
        <time>2022-07-26T10:02:12Z</time>
      </trkpt>
      <trkpt lat="44.61573" lon="-0.19152">
        <ele>41.3</ele>
        <time>2022-07-26T10:02:13Z</time>
      </trkpt>
      <trkpt lat="44.61574" lon="-0.19153">
        <ele>41.2</ele>
        <time>2022-07-26T10:02:14Z</time>
      </trkpt>
      <trkpt lat="44.61574" lon="-0.19154">
        <ele>41.2</ele>
        <time>2022-07-26T10:02:15Z</time>
      </trkpt>
      <trkpt lat="44.61575" lon="-0.19155">
        <ele>41.2</ele>
        <time>2022-07-26T10:02:16Z</time>
      </trkpt>
      <trkpt lat="44.61577" lon="-0.19156">
        <ele>41.2</ele>
        <time>2022-07-26T10:02:17Z</time>
      </trkpt>
      <trkpt lat="44.61578" lon="-0.19158">
        <ele>41.1</ele>
        <time>2022-07-26T10:02:18Z</time>
      </trkpt>
      <trkpt lat="44.6158" lon="-0.19158">
        <ele>41.1</ele>
        <time>2022-07-26T10:02:19Z</time>
      </trkpt>
      <trkpt lat="44.61581" lon="-0.19159">
        <ele>41.1</ele>
        <time>2022-07-26T10:02:21Z</time>
      </trkpt>
      <trkpt lat="44.61583" lon="-0.1916">
        <ele>41.2</ele>
        <time>2022-07-26T10:02:22Z</time>
      </trkpt>
      <trkpt lat="44.61585" lon="-0.19161">
        <ele>41.2</ele>
        <time>2022-07-26T10:02:23Z</time>
      </trkpt>
      <trkpt lat="44.61586" lon="-0.19162">
        <ele>41</ele>
        <time>2022-07-26T10:02:24Z</time>
      </trkpt>
      <trkpt lat="44.61587" lon="-0.19163">
        <ele>41.1</ele>
        <time>2022-07-26T10:02:25Z</time>
      </trkpt>
      <trkpt lat="44.61587" lon="-0.19163">
        <ele>41.1</ele>
        <time>2022-07-26T10:02:26Z</time>
      </trkpt>
      <trkpt lat="44.61588" lon="-0.19164">
        <ele>41.1</ele>
        <time>2022-07-26T10:02:27Z</time>
      </trkpt>
      <trkpt lat="44.61589" lon="-0.19165">
        <ele>41.1</ele>
        <time>2022-07-26T10:02:28Z</time>
      </trkpt>
      <trkpt lat="44.61591" lon="-0.19167">
        <ele>40.9</ele>
        <time>2022-07-26T10:02:30Z</time>
      </trkpt>
      <trkpt lat="44.61592" lon="-0.19168">
        <ele>40.9</ele>
        <time>2022-07-26T10:02:31Z</time>
      </trkpt>
      <trkpt lat="44.61593" lon="-0.19169">
        <ele>41</ele>
        <time>2022-07-26T10:02:32Z</time>
      </trkpt>
      <trkpt lat="44.61594" lon="-0.19171">
        <ele>40.7</ele>
        <time>2022-07-26T10:02:33Z</time>
      </trkpt>
      <trkpt lat="44.61596" lon="-0.19172">
        <ele>40.8</ele>
        <time>2022-07-26T10:02:34Z</time>
      </trkpt>
      <trkpt lat="44.61597" lon="-0.19173">
        <ele>40.8</ele>
        <time>2022-07-26T10:02:35Z</time>
      </trkpt>
      <trkpt lat="44.61598" lon="-0.19174">
        <ele>40.8</ele>
        <time>2022-07-26T10:02:36Z</time>
      </trkpt>
      <trkpt lat="44.61599" lon="-0.19175">
        <ele>40.6</ele>
        <time>2022-07-26T10:02:37Z</time>
      </trkpt>
      <trkpt lat="44.616" lon="-0.19176">
        <ele>40.6</ele>
        <time>2022-07-26T10:02:38Z</time>
      </trkpt>
      <trkpt lat="44.61601" lon="-0.19177">
        <ele>40.6</ele>
        <time>2022-07-26T10:02:40Z</time>
      </trkpt>
      <trkpt lat="44.61602" lon="-0.19178">
        <ele>40.7</ele>
        <time>2022-07-26T10:02:41Z</time>
      </trkpt>
      <trkpt lat="44.61602" lon="-0.19179">
        <ele>40.5</ele>
        <time>2022-07-26T10:02:42Z</time>
      </trkpt>
      <trkpt lat="44.61604" lon="-0.19181">
        <ele>40.5</ele>
        <time>2022-07-26T10:02:43Z</time>
      </trkpt>
      <trkpt lat="44.61604" lon="-0.19182">
        <ele>40.5</ele>
        <time>2022-07-26T10:02:44Z</time>
      </trkpt>
      <trkpt lat="44.61604" lon="-0.19184">
        <ele>40.4</ele>
        <time>2022-07-26T10:02:45Z</time>
      </trkpt>
      <trkpt lat="44.61605" lon="-0.19186">
        <ele>40.4</ele>
        <time>2022-07-26T10:02:47Z</time>
      </trkpt>
      <trkpt lat="44.61606" lon="-0.19189">
        <ele>40.2</ele>
        <time>2022-07-26T10:02:48Z</time>
      </trkpt>
      <trkpt lat="44.61607" lon="-0.19191">
        <ele>40.3</ele>
        <time>2022-07-26T10:02:50Z</time>
      </trkpt>
      <trkpt lat="44.61608" lon="-0.19193">
        <ele>40.2</ele>
        <time>2022-07-26T10:02:51Z</time>
      </trkpt>
      <trkpt lat="44.61609" lon="-0.19194">
        <ele>40.2</ele>
        <time>2022-07-26T10:02:52Z</time>
      </trkpt>
      <trkpt lat="44.61611" lon="-0.19197">
        <ele>40.2</ele>
        <time>2022-07-26T10:02:53Z</time>
      </trkpt>
      <trkpt lat="44.61611" lon="-0.19198">
        <ele>40.2</ele>
        <time>2022-07-26T10:02:54Z</time>
      </trkpt>
      <trkpt lat="44.61611" lon="-0.19199">
        <ele>40.2</ele>
        <time>2022-07-26T10:02:55Z</time>
      </trkpt>
      <trkpt lat="44.61613" lon="-0.19202">
        <ele>40.1</ele>
        <time>2022-07-26T10:02:57Z</time>
      </trkpt>
      <trkpt lat="44.61614" lon="-0.19203">
        <ele>40.3</ele>
        <time>2022-07-26T10:02:58Z</time>
      </trkpt>
      <trkpt lat="44.61614" lon="-0.19204">
        <ele>40.3</ele>
        <time>2022-07-26T10:02:59Z</time>
      </trkpt>
      <trkpt lat="44.61615" lon="-0.19205">
        <ele>40.2</ele>
        <time>2022-07-26T10:03:00Z</time>
      </trkpt>
      <trkpt lat="44.61616" lon="-0.19207">
        <ele>40.2</ele>
        <time>2022-07-26T10:03:01Z</time>
      </trkpt>
      <trkpt lat="44.61617" lon="-0.19208">
        <ele>40.5</ele>
        <time>2022-07-26T10:03:02Z</time>
      </trkpt>
      <trkpt lat="44.61618" lon="-0.1921">
        <ele>40.4</ele>
        <time>2022-07-26T10:03:03Z</time>
      </trkpt>
      <trkpt lat="44.61618" lon="-0.19212">
        <ele>40.4</ele>
        <time>2022-07-26T10:03:04Z</time>
      </trkpt>
      <trkpt lat="44.61619" lon="-0.19214">
        <ele>40.3</ele>
        <time>2022-07-26T10:03:05Z</time>
      </trkpt>
      <trkpt lat="44.6162" lon="-0.19215">
        <ele>40.5</ele>
        <time>2022-07-26T10:03:07Z</time>
      </trkpt>
      <trkpt lat="44.61621" lon="-0.19217">
        <ele>40.5</ele>
        <time>2022-07-26T10:03:08Z</time>
      </trkpt>
      <trkpt lat="44.61622" lon="-0.19219">
        <ele>40.5</ele>
        <time>2022-07-26T10:03:10Z</time>
      </trkpt>
      <trkpt lat="44.61623" lon="-0.19221">
        <ele>40.7</ele>
        <time>2022-07-26T10:03:11Z</time>
      </trkpt>
      <trkpt lat="44.61625" lon="-0.19224">
        <ele>40.7</ele>
        <time>2022-07-26T10:03:12Z</time>
      </trkpt>
      <trkpt lat="44.61625" lon="-0.19226">
        <ele>40.7</ele>
        <time>2022-07-26T10:03:13Z</time>
      </trkpt>
      <trkpt lat="44.61626" lon="-0.19228">
        <ele>40.9</ele>
        <time>2022-07-26T10:03:14Z</time>
      </trkpt>
      <trkpt lat="44.61626" lon="-0.1923">
        <ele>40.9</ele>
        <time>2022-07-26T10:03:15Z</time>
      </trkpt>
      <trkpt lat="44.61626" lon="-0.19234">
        <ele>40.9</ele>
        <time>2022-07-26T10:03:17Z</time>
      </trkpt>
      <trkpt lat="44.61626" lon="-0.19236">
        <ele>40.9</ele>
        <time>2022-07-26T10:03:18Z</time>
      </trkpt>
      <trkpt lat="44.61626" lon="-0.19239">
        <ele>40.9</ele>
        <time>2022-07-26T10:03:20Z</time>
      </trkpt>
      <trkpt lat="44.61627" lon="-0.1924">
        <ele>40.9</ele>
        <time>2022-07-26T10:03:21Z</time>
      </trkpt>
      <trkpt lat="44.61627" lon="-0.19241">
        <ele>40.9</ele>
        <time>2022-07-26T10:03:22Z</time>
      </trkpt>
      <trkpt lat="44.61628" lon="-0.19244">
        <ele>40.9</ele>
        <time>2022-07-26T10:03:23Z</time>
      </trkpt>
      <trkpt lat="44.61629" lon="-0.19245">
        <ele>40.9</ele>
        <time>2022-07-26T10:03:24Z</time>
      </trkpt>
      <trkpt lat="44.61629" lon="-0.19247">
        <ele>41.2</ele>
        <time>2022-07-26T10:03:25Z</time>
      </trkpt>
      <trkpt lat="44.6163" lon="-0.1925">
        <ele>41.2</ele>
        <time>2022-07-26T10:03:27Z</time>
      </trkpt>
      <trkpt lat="44.61632" lon="-0.19252">
        <ele>41.5</ele>
        <time>2022-07-26T10:03:28Z</time>
      </trkpt>
      <trkpt lat="44.61633" lon="-0.19253">
        <ele>41.5</ele>
        <time>2022-07-26T10:03:29Z</time>
      </trkpt>
      <trkpt lat="44.61634" lon="-0.19254">
        <ele>41.5</ele>
        <time>2022-07-26T10:03:30Z</time>
      </trkpt>
      <trkpt lat="44.61635" lon="-0.19256">
        <ele>41.9</ele>
        <time>2022-07-26T10:03:32Z</time>
      </trkpt>
      <trkpt lat="44.61636" lon="-0.19258">
        <ele>41.9</ele>
        <time>2022-07-26T10:03:33Z</time>
      </trkpt>
      <trkpt lat="44.61637" lon="-0.1926">
        <ele>41.9</ele>
        <time>2022-07-26T10:03:34Z</time>
      </trkpt>
      <trkpt lat="44.61638" lon="-0.1926">
        <ele>41.9</ele>
        <time>2022-07-26T10:03:35Z</time>
      </trkpt>
      <trkpt lat="44.61639" lon="-0.19261">
        <ele>42.3</ele>
        <time>2022-07-26T10:03:36Z</time>
      </trkpt>
      <trkpt lat="44.6164" lon="-0.19261">
        <ele>42.3</ele>
        <time>2022-07-26T10:03:37Z</time>
      </trkpt>
      <trkpt lat="44.61643" lon="-0.19261">
        <ele>42.6</ele>
        <time>2022-07-26T10:03:39Z</time>
      </trkpt>
      <trkpt lat="44.61644" lon="-0.19261">
        <ele>43</ele>
        <time>2022-07-26T10:03:40Z</time>
      </trkpt>
      <trkpt lat="44.61645" lon="-0.1926">
        <ele>42.9</ele>
        <time>2022-07-26T10:03:41Z</time>
      </trkpt>
      <trkpt lat="44.61646" lon="-0.1926">
        <ele>42.9</ele>
        <time>2022-07-26T10:03:42Z</time>
      </trkpt>
      <trkpt lat="44.61649" lon="-0.19259">
        <ele>43.2</ele>
        <time>2022-07-26T10:03:43Z</time>
      </trkpt>
      <trkpt lat="44.61649" lon="-0.19258">
        <ele>43.2</ele>
        <time>2022-07-26T10:03:44Z</time>
      </trkpt>
      <trkpt lat="44.61651" lon="-0.19257">
        <ele>43.6</ele>
        <time>2022-07-26T10:03:46Z</time>
      </trkpt>
      <trkpt lat="44.61652" lon="-0.19257">
        <ele>43.6</ele>
        <time>2022-07-26T10:03:47Z</time>
      </trkpt>
      <trkpt lat="44.61652" lon="-0.19258">
        <ele>43.6</ele>
        <time>2022-07-26T10:03:48Z</time>
      </trkpt>
      <trkpt lat="44.61652" lon="-0.19259">
        <ele>43.6</ele>
        <time>2022-07-26T10:03:49Z</time>
      </trkpt>
      <trkpt lat="44.61651" lon="-0.19261">
        <ele>43.7</ele>
        <time>2022-07-26T10:03:50Z</time>
      </trkpt>
      <trkpt lat="44.6165" lon="-0.19262">
        <ele>43.7</ele>
        <time>2022-07-26T10:03:51Z</time>
      </trkpt>
      <trkpt lat="44.6165" lon="-0.19263">
        <ele>43.3</ele>
        <time>2022-07-26T10:03:52Z</time>
      </trkpt>
      <trkpt lat="44.61649" lon="-0.19267">
        <ele>43.5</ele>
        <time>2022-07-26T10:03:53Z</time>
      </trkpt>
      <trkpt lat="44.61648" lon="-0.19268">
        <ele>43.5</ele>
        <time>2022-07-26T10:03:55Z</time>
      </trkpt>
      <trkpt lat="44.61647" lon="-0.1927">
        <ele>43.6</ele>
        <time>2022-07-26T10:03:56Z</time>
      </trkpt>
      <trkpt lat="44.61647" lon="-0.19273">
        <ele>43.3</ele>
        <time>2022-07-26T10:03:57Z</time>
      </trkpt>
      <trkpt lat="44.61646" lon="-0.19276">
        <ele>43.5</ele>
        <time>2022-07-26T10:03:58Z</time>
      </trkpt>
      <trkpt lat="44.61645" lon="-0.19278">
        <ele>43.7</ele>
        <time>2022-07-26T10:03:59Z</time>
      </trkpt>
      <trkpt lat="44.61644" lon="-0.19279">
        <ele>43.7</ele>
        <time>2022-07-26T10:04:00Z</time>
      </trkpt>
      <trkpt lat="44.61643" lon="-0.19281">
        <ele>43.3</ele>
        <time>2022-07-26T10:04:01Z</time>
      </trkpt>
      <trkpt lat="44.61642" lon="-0.19283">
        <ele>43.6</ele>
        <time>2022-07-26T10:04:02Z</time>
      </trkpt>
      <trkpt lat="44.61641" lon="-0.19284">
        <ele>43.6</ele>
        <time>2022-07-26T10:04:03Z</time>
      </trkpt>
      <trkpt lat="44.6164" lon="-0.19287">
        <ele>43.5</ele>
        <time>2022-07-26T10:04:04Z</time>
      </trkpt>
      <trkpt lat="44.6164" lon="-0.19288">
        <ele>43.5</ele>
        <time>2022-07-26T10:04:05Z</time>
      </trkpt>
      <trkpt lat="44.61638" lon="-0.19291">
        <ele>43.8</ele>
        <time>2022-07-26T10:04:07Z</time>
      </trkpt>
      <trkpt lat="44.61638" lon="-0.19292">
        <ele>43.5</ele>
        <time>2022-07-26T10:04:08Z</time>
      </trkpt>
      <trkpt lat="44.61637" lon="-0.19295">
        <ele>43.9</ele>
        <time>2022-07-26T10:04:09Z</time>
      </trkpt>
      <trkpt lat="44.61636" lon="-0.19296">
        <ele>43.9</ele>
        <time>2022-07-26T10:04:10Z</time>
      </trkpt>
      <trkpt lat="44.61636" lon="-0.19297">
        <ele>43.9</ele>
        <time>2022-07-26T10:04:11Z</time>
      </trkpt>
      <trkpt lat="44.61634" lon="-0.193">
        <ele>44</ele>
        <time>2022-07-26T10:04:13Z</time>
      </trkpt>
      <trkpt lat="44.61633" lon="-0.19303">
        <ele>44</ele>
        <time>2022-07-26T10:04:14Z</time>
      </trkpt>
      <trkpt lat="44.61632" lon="-0.19303">
        <ele>44.5</ele>
        <time>2022-07-26T10:04:15Z</time>
      </trkpt>
      <trkpt lat="44.61632" lon="-0.19305">
        <ele>44.5</ele>
        <time>2022-07-26T10:04:16Z</time>
      </trkpt>
      <trkpt lat="44.6163" lon="-0.19307">
        <ele>44.2</ele>
        <time>2022-07-26T10:04:18Z</time>
      </trkpt>
      <trkpt lat="44.61628" lon="-0.1931">
        <ele>44.6</ele>
        <time>2022-07-26T10:04:19Z</time>
      </trkpt>
      <trkpt lat="44.61627" lon="-0.19312">
        <ele>44.6</ele>
        <time>2022-07-26T10:04:20Z</time>
      </trkpt>
      <trkpt lat="44.61626" lon="-0.19313">
        <ele>45.1</ele>
        <time>2022-07-26T10:04:21Z</time>
      </trkpt>
      <trkpt lat="44.61625" lon="-0.19317">
        <ele>45.6</ele>
        <time>2022-07-26T10:04:23Z</time>
      </trkpt>
      <trkpt lat="44.61624" lon="-0.1932">
        <ele>45.6</ele>
        <time>2022-07-26T10:04:24Z</time>
      </trkpt>
      <trkpt lat="44.61624" lon="-0.19322">
        <ele>46.1</ele>
        <time>2022-07-26T10:04:25Z</time>
      </trkpt>
      <trkpt lat="44.61623" lon="-0.19323">
        <ele>46.1</ele>
        <time>2022-07-26T10:04:27Z</time>
      </trkpt>
      <trkpt lat="44.61623" lon="-0.19325">
        <ele>46.7</ele>
        <time>2022-07-26T10:04:28Z</time>
      </trkpt>
      <trkpt lat="44.61622" lon="-0.19329">
        <ele>46.6</ele>
        <time>2022-07-26T10:04:29Z</time>
      </trkpt>
      <trkpt lat="44.61622" lon="-0.1933">
        <ele>47.2</ele>
        <time>2022-07-26T10:04:30Z</time>
      </trkpt>
      <trkpt lat="44.61622" lon="-0.19331">
        <ele>47.2</ele>
        <time>2022-07-26T10:04:31Z</time>
      </trkpt>
      <trkpt lat="44.61622" lon="-0.19333">
        <ele>47.2</ele>
        <time>2022-07-26T10:04:32Z</time>
      </trkpt>
      <trkpt lat="44.61622" lon="-0.19334">
        <ele>47.7</ele>
        <time>2022-07-26T10:04:33Z</time>
      </trkpt>
      <trkpt lat="44.61623" lon="-0.19336">
        <ele>47.8</ele>
        <time>2022-07-26T10:04:34Z</time>
      </trkpt>
      <trkpt lat="44.61624" lon="-0.19336">
        <ele>47.8</ele>
        <time>2022-07-26T10:04:35Z</time>
      </trkpt>
      <trkpt lat="44.61626" lon="-0.19337">
        <ele>47.9</ele>
        <time>2022-07-26T10:04:36Z</time>
      </trkpt>
      <trkpt lat="44.61627" lon="-0.19337">
        <ele>47.9</ele>
        <time>2022-07-26T10:04:37Z</time>
      </trkpt>
      <trkpt lat="44.61628" lon="-0.19338">
        <ele>47.9</ele>
        <time>2022-07-26T10:04:38Z</time>
      </trkpt>
      <trkpt lat="44.61629" lon="-0.19339">
        <ele>48.5</ele>
        <time>2022-07-26T10:04:40Z</time>
      </trkpt>
      <trkpt lat="44.6163" lon="-0.1934">
        <ele>48.5</ele>
        <time>2022-07-26T10:04:41Z</time>
      </trkpt>
      <trkpt lat="44.61631" lon="-0.19341">
        <ele>48.5</ele>
        <time>2022-07-26T10:04:43Z</time>
      </trkpt>
      <trkpt lat="44.61632" lon="-0.19342">
        <ele>49.2</ele>
        <time>2022-07-26T10:04:44Z</time>
      </trkpt>
      <trkpt lat="44.61632" lon="-0.19342">
        <ele>49.2</ele>
        <time>2022-07-26T10:04:45Z</time>
      </trkpt>
      <trkpt lat="44.61632" lon="-0.19342">
        <ele>49</ele>
        <time>2022-07-26T10:04:46Z</time>
      </trkpt>
      <trkpt lat="44.61632" lon="-0.19342">
        <ele>49</ele>
        <time>2022-07-26T10:04:47Z</time>
      </trkpt>
      <trkpt lat="44.61632" lon="-0.19342">
        <ele>49</ele>
        <time>2022-07-26T10:04:48Z</time>
      </trkpt>
      <trkpt lat="44.61632" lon="-0.19342">
        <ele>49.2</ele>
        <time>2022-07-26T10:04:49Z</time>
      </trkpt>
      <trkpt lat="44.61632" lon="-0.19342">
        <ele>49.2</ele>
        <time>2022-07-26T10:04:50Z</time>
      </trkpt>
      <trkpt lat="44.61632" lon="-0.19342">
        <ele>49.2</ele>
        <time>2022-07-26T10:04:51Z</time>
      </trkpt>
      <trkpt lat="44.61632" lon="-0.19342">
        <ele>49.2</ele>
        <time>2022-07-26T10:04:52Z</time>
      </trkpt>
      <trkpt lat="44.61632" lon="-0.19342">
        <ele>49.2</ele>
        <time>2022-07-26T10:04:53Z</time>
      </trkpt>
      <trkpt lat="44.61632" lon="-0.19342">
        <ele>49.2</ele>
        <time>2022-07-26T10:04:54Z</time>
      </trkpt>
      <trkpt lat="44.61632" lon="-0.19342">
        <ele>49.2</ele>
        <time>2022-07-26T10:04:55Z</time>
      </trkpt>
      <trkpt lat="44.61632" lon="-0.19342">
        <ele>49.2</ele>
        <time>2022-07-26T10:04:56Z</time>
      </trkpt>
      <trkpt lat="44.61632" lon="-0.19343">
        <ele>49.2</ele>
        <time>2022-07-26T10:04:57Z</time>
      </trkpt>
      <trkpt lat="44.61633" lon="-0.19343">
        <ele>49.2</ele>
        <time>2022-07-26T10:04:58Z</time>
      </trkpt>
      <trkpt lat="44.61633" lon="-0.19344">
        <ele>49.2</ele>
        <time>2022-07-26T10:04:59Z</time>
      </trkpt>
      <trkpt lat="44.61633" lon="-0.19344">
        <ele>49.2</ele>
        <time>2022-07-26T10:05:00Z</time>
      </trkpt>
      <trkpt lat="44.61633" lon="-0.19345">
        <ele>49.2</ele>
        <time>2022-07-26T10:05:01Z</time>
      </trkpt>
      <trkpt lat="44.61634" lon="-0.19345">
        <ele>49.2</ele>
        <time>2022-07-26T10:05:02Z</time>
      </trkpt>
      <trkpt lat="44.61634" lon="-0.19345">
        <ele>49.2</ele>
        <time>2022-07-26T10:05:03Z</time>
      </trkpt>
      <trkpt lat="44.61634" lon="-0.19346">
        <ele>49.2</ele>
        <time>2022-07-26T10:05:04Z</time>
      </trkpt>
      <trkpt lat="44.61634" lon="-0.19346">
        <ele>49.2</ele>
        <time>2022-07-26T10:05:05Z</time>
      </trkpt>
      <trkpt lat="44.61634" lon="-0.19346">
        <ele>49.2</ele>
        <time>2022-07-26T10:05:06Z</time>
      </trkpt>
      <trkpt lat="44.61634" lon="-0.19346">
        <ele>49.2</ele>
        <time>2022-07-26T10:05:07Z</time>
      </trkpt>
      <trkpt lat="44.61634" lon="-0.19346">
        <ele>49.6</ele>
        <time>2022-07-26T10:05:08Z</time>
      </trkpt>
      <trkpt lat="44.61634" lon="-0.19346">
        <ele>49.6</ele>
        <time>2022-07-26T10:05:09Z</time>
      </trkpt>
      <trkpt lat="44.61635" lon="-0.19346">
        <ele>49.6</ele>
        <time>2022-07-26T10:05:10Z</time>
      </trkpt>
      <trkpt lat="44.61635" lon="-0.19346">
        <ele>49.8</ele>
        <time>2022-07-26T10:05:11Z</time>
      </trkpt>
      <trkpt lat="44.61635" lon="-0.19347">
        <ele>49.8</ele>
        <time>2022-07-26T10:05:12Z</time>
      </trkpt>
      <trkpt lat="44.61636" lon="-0.19347">
        <ele>49.8</ele>
        <time>2022-07-26T10:05:13Z</time>
      </trkpt>
      <trkpt lat="44.61636" lon="-0.19347">
        <ele>49.8</ele>
        <time>2022-07-26T10:05:14Z</time>
      </trkpt>
      <trkpt lat="44.61638" lon="-0.19347">
        <ele>49.9</ele>
        <time>2022-07-26T10:05:16Z</time>
      </trkpt>
      <trkpt lat="44.61639" lon="-0.19348">
        <ele>49.9</ele>
        <time>2022-07-26T10:05:17Z</time>
      </trkpt>
      <trkpt lat="44.6164" lon="-0.19348">
        <ele>49.9</ele>
        <time>2022-07-26T10:05:18Z</time>
      </trkpt>
      <trkpt lat="44.61641" lon="-0.19348">
        <ele>49.9</ele>
        <time>2022-07-26T10:05:19Z</time>
      </trkpt>
      <trkpt lat="44.61642" lon="-0.19348">
        <ele>50.1</ele>
        <time>2022-07-26T10:05:20Z</time>
      </trkpt>
      <trkpt lat="44.61643" lon="-0.19349">
        <ele>50.1</ele>
        <time>2022-07-26T10:05:21Z</time>
      </trkpt>
      <trkpt lat="44.61645" lon="-0.1935">
        <ele>50.2</ele>
        <time>2022-07-26T10:05:23Z</time>
      </trkpt>
      <trkpt lat="44.61647" lon="-0.19352">
        <ele>50.8</ele>
        <time>2022-07-26T10:05:24Z</time>
      </trkpt>
      <trkpt lat="44.61648" lon="-0.19352">
        <ele>50.8</ele>
        <time>2022-07-26T10:05:25Z</time>
      </trkpt>
      <trkpt lat="44.61649" lon="-0.19354">
        <ele>50.8</ele>
        <time>2022-07-26T10:05:26Z</time>
      </trkpt>
      <trkpt lat="44.6165" lon="-0.19355">
        <ele>50.9</ele>
        <time>2022-07-26T10:05:27Z</time>
      </trkpt>
      <trkpt lat="44.61653" lon="-0.19357">
        <ele>51.4</ele>
        <time>2022-07-26T10:05:29Z</time>
      </trkpt>
      <trkpt lat="44.61653" lon="-0.19358">
        <ele>51.5</ele>
        <time>2022-07-26T10:05:30Z</time>
      </trkpt>
      <trkpt lat="44.61655" lon="-0.19359">
        <ele>51.5</ele>
        <time>2022-07-26T10:05:31Z</time>
      </trkpt>
      <trkpt lat="44.61656" lon="-0.19359">
        <ele>52</ele>
        <time>2022-07-26T10:05:33Z</time>
      </trkpt>
      <trkpt lat="44.61658" lon="-0.19361">
        <ele>52.1</ele>
        <time>2022-07-26T10:05:34Z</time>
      </trkpt>
      <trkpt lat="44.61658" lon="-0.19362">
        <ele>52.1</ele>
        <time>2022-07-26T10:05:35Z</time>
      </trkpt>
      <trkpt lat="44.61659" lon="-0.19362">
        <ele>52.1</ele>
        <time>2022-07-26T10:05:36Z</time>
      </trkpt>
      <trkpt lat="44.61659" lon="-0.19363">
        <ele>52.2</ele>
        <time>2022-07-26T10:05:37Z</time>
      </trkpt>
      <trkpt lat="44.6166" lon="-0.19364">
        <ele>52.7</ele>
        <time>2022-07-26T10:05:38Z</time>
      </trkpt>
      <trkpt lat="44.61662" lon="-0.19366">
        <ele>52.7</ele>
        <time>2022-07-26T10:05:40Z</time>
      </trkpt>
      <trkpt lat="44.61662" lon="-0.19367">
        <ele>52.8</ele>
        <time>2022-07-26T10:05:41Z</time>
      </trkpt>
      <trkpt lat="44.61663" lon="-0.19368">
        <ele>53.3</ele>
        <time>2022-07-26T10:05:42Z</time>
      </trkpt>
      <trkpt lat="44.61664" lon="-0.19369">
        <ele>53.3</ele>
        <time>2022-07-26T10:05:44Z</time>
      </trkpt>
      <trkpt lat="44.61665" lon="-0.1937">
        <ele>53.3</ele>
        <time>2022-07-26T10:05:45Z</time>
      </trkpt>
      <trkpt lat="44.61666" lon="-0.19371">
        <ele>53.4</ele>
        <time>2022-07-26T10:05:46Z</time>
      </trkpt>
      <trkpt lat="44.61667" lon="-0.19373">
        <ele>53.9</ele>
        <time>2022-07-26T10:05:47Z</time>
      </trkpt>
      <trkpt lat="44.61668" lon="-0.19374">
        <ele>53.9</ele>
        <time>2022-07-26T10:05:48Z</time>
      </trkpt>
      <trkpt lat="44.61669" lon="-0.19375">
        <ele>54</ele>
        <time>2022-07-26T10:05:49Z</time>
      </trkpt>
      <trkpt lat="44.61669" lon="-0.19376">
        <ele>54</ele>
        <time>2022-07-26T10:05:50Z</time>
      </trkpt>
      <trkpt lat="44.61669" lon="-0.19377">
        <ele>54.4</ele>
        <time>2022-07-26T10:05:51Z</time>
      </trkpt>
      <trkpt lat="44.6167" lon="-0.19378">
        <ele>54.4</ele>
        <time>2022-07-26T10:05:52Z</time>
      </trkpt>
      <trkpt lat="44.61671" lon="-0.1938">
        <ele>54.4</ele>
        <time>2022-07-26T10:05:54Z</time>
      </trkpt>
      <trkpt lat="44.61672" lon="-0.19382">
        <ele>55</ele>
        <time>2022-07-26T10:05:55Z</time>
      </trkpt>
      <trkpt lat="44.61672" lon="-0.19383">
        <ele>55</ele>
        <time>2022-07-26T10:05:56Z</time>
      </trkpt>
      <trkpt lat="44.61673" lon="-0.19384">
        <ele>55</ele>
        <time>2022-07-26T10:05:57Z</time>
      </trkpt>
      <trkpt lat="44.61673" lon="-0.19385">
        <ele>55</ele>
        <time>2022-07-26T10:05:58Z</time>
      </trkpt>
      <trkpt lat="44.61675" lon="-0.19387">
        <ele>55.5</ele>
        <time>2022-07-26T10:05:59Z</time>
      </trkpt>
      <trkpt lat="44.61675" lon="-0.19387">
        <ele>55.5</ele>
        <time>2022-07-26T10:06:00Z</time>
      </trkpt>
      <trkpt lat="44.61675" lon="-0.19388">
        <ele>55.5</ele>
        <time>2022-07-26T10:06:01Z</time>
      </trkpt>
      <trkpt lat="44.61676" lon="-0.19389">
        <ele>55.9</ele>
        <time>2022-07-26T10:06:02Z</time>
      </trkpt>
      <trkpt lat="44.61677" lon="-0.19391">
        <ele>55.9</ele>
        <time>2022-07-26T10:06:03Z</time>
      </trkpt>
      <trkpt lat="44.61678" lon="-0.19393">
        <ele>56.1</ele>
        <time>2022-07-26T10:06:05Z</time>
      </trkpt>
      <trkpt lat="44.61678" lon="-0.19394">
        <ele>56.4</ele>
        <time>2022-07-26T10:06:06Z</time>
      </trkpt>
      <trkpt lat="44.61679" lon="-0.19395">
        <ele>56.4</ele>
        <time>2022-07-26T10:06:07Z</time>
      </trkpt>
      <trkpt lat="44.6168" lon="-0.19396">
        <ele>56.4</ele>
        <time>2022-07-26T10:06:08Z</time>
      </trkpt>
      <trkpt lat="44.61681" lon="-0.19397">
        <ele>56.6</ele>
        <time>2022-07-26T10:06:10Z</time>
      </trkpt>
      <trkpt lat="44.61682" lon="-0.19396">
        <ele>56.6</ele>
        <time>2022-07-26T10:06:11Z</time>
      </trkpt>
      <trkpt lat="44.61682" lon="-0.19396">
        <ele>56.6</ele>
        <time>2022-07-26T10:06:12Z</time>
      </trkpt>
      <trkpt lat="44.61683" lon="-0.19396">
        <ele>56.6</ele>
        <time>2022-07-26T10:06:14Z</time>
      </trkpt>
      <trkpt lat="44.61684" lon="-0.19397">
        <ele>56.7</ele>
        <time>2022-07-26T10:06:15Z</time>
      </trkpt>
      <trkpt lat="44.61685" lon="-0.19398">
        <ele>57</ele>
        <time>2022-07-26T10:06:16Z</time>
      </trkpt>
      <trkpt lat="44.61686" lon="-0.19399">
        <ele>57</ele>
        <time>2022-07-26T10:06:17Z</time>
      </trkpt>
      <trkpt lat="44.61687" lon="-0.194">
        <ele>57</ele>
        <time>2022-07-26T10:06:18Z</time>
      </trkpt>
      <trkpt lat="44.61688" lon="-0.19402">
        <ele>57.5</ele>
        <time>2022-07-26T10:06:19Z</time>
      </trkpt>
      <trkpt lat="44.61689" lon="-0.19404">
        <ele>57.5</ele>
        <time>2022-07-26T10:06:20Z</time>
      </trkpt>
      <trkpt lat="44.6169" lon="-0.19405">
        <ele>57.6</ele>
        <time>2022-07-26T10:06:22Z</time>
      </trkpt>
      <trkpt lat="44.61691" lon="-0.19407">
        <ele>57.9</ele>
        <time>2022-07-26T10:06:23Z</time>
      </trkpt>
      <trkpt lat="44.61692" lon="-0.19409">
        <ele>57.9</ele>
        <time>2022-07-26T10:06:25Z</time>
      </trkpt>
      <trkpt lat="44.61693" lon="-0.19412">
        <ele>58.3</ele>
        <time>2022-07-26T10:06:26Z</time>
      </trkpt>
      <trkpt lat="44.61693" lon="-0.19413">
        <ele>58.3</ele>
        <time>2022-07-26T10:06:27Z</time>
      </trkpt>
      <trkpt lat="44.61694" lon="-0.19414">
        <ele>58.3</ele>
        <time>2022-07-26T10:06:29Z</time>
      </trkpt>
      <trkpt lat="44.61694" lon="-0.19415">
        <ele>58.6</ele>
        <time>2022-07-26T10:06:30Z</time>
      </trkpt>
      <trkpt lat="44.61695" lon="-0.19416">
        <ele>58.6</ele>
        <time>2022-07-26T10:06:31Z</time>
      </trkpt>
      <trkpt lat="44.61695" lon="-0.19418">
        <ele>58.6</ele>
        <time>2022-07-26T10:06:32Z</time>
      </trkpt>
      <trkpt lat="44.61696" lon="-0.19419">
        <ele>58.6</ele>
        <time>2022-07-26T10:06:34Z</time>
      </trkpt>
      <trkpt lat="44.61696" lon="-0.19421">
        <ele>58.8</ele>
        <time>2022-07-26T10:06:35Z</time>
      </trkpt>
      <trkpt lat="44.61695" lon="-0.19422">
        <ele>58.8</ele>
        <time>2022-07-26T10:06:36Z</time>
      </trkpt>
      <trkpt lat="44.61695" lon="-0.19423">
        <ele>58.8</ele>
        <time>2022-07-26T10:06:37Z</time>
      </trkpt>
      <trkpt lat="44.61692" lon="-0.19427">
        <ele>59</ele>
        <time>2022-07-26T10:06:39Z</time>
      </trkpt>
      <trkpt lat="44.61691" lon="-0.19428">
        <ele>59.2</ele>
        <time>2022-07-26T10:06:40Z</time>
      </trkpt>
      <trkpt lat="44.61689" lon="-0.1943">
        <ele>59.2</ele>
        <time>2022-07-26T10:06:41Z</time>
      </trkpt>
      <trkpt lat="44.61688" lon="-0.19431">
        <ele>59.2</ele>
        <time>2022-07-26T10:06:42Z</time>
      </trkpt>
      <trkpt lat="44.61687" lon="-0.19433">
        <ele>59.4</ele>
        <time>2022-07-26T10:06:44Z</time>
      </trkpt>
      <trkpt lat="44.61685" lon="-0.19435">
        <ele>59.3</ele>
        <time>2022-07-26T10:06:45Z</time>
      </trkpt>
      <trkpt lat="44.61684" lon="-0.19436">
        <ele>59.3</ele>
        <time>2022-07-26T10:06:46Z</time>
      </trkpt>
      <trkpt lat="44.61683" lon="-0.19437">
        <ele>59.5</ele>
        <time>2022-07-26T10:06:47Z</time>
      </trkpt>
      <trkpt lat="44.61682" lon="-0.19438">
        <ele>59.5</ele>
        <time>2022-07-26T10:06:48Z</time>
      </trkpt>
      <trkpt lat="44.61679" lon="-0.1944">
        <ele>59.4</ele>
        <time>2022-07-26T10:06:49Z</time>
      </trkpt>
      <trkpt lat="44.61678" lon="-0.19441">
        <ele>59.4</ele>
        <time>2022-07-26T10:06:50Z</time>
      </trkpt>
      <trkpt lat="44.61677" lon="-0.19441">
        <ele>59.5</ele>
        <time>2022-07-26T10:06:51Z</time>
      </trkpt>
      <trkpt lat="44.61675" lon="-0.19442">
        <ele>59.5</ele>
        <time>2022-07-26T10:06:52Z</time>
      </trkpt>
      <trkpt lat="44.61673" lon="-0.19443">
        <ele>59.4</ele>
        <time>2022-07-26T10:06:54Z</time>
      </trkpt>
      <trkpt lat="44.61672" lon="-0.19443">
        <ele>59.4</ele>
        <time>2022-07-26T10:06:55Z</time>
      </trkpt>
      <trkpt lat="44.6167" lon="-0.19444">
        <ele>59.3</ele>
        <time>2022-07-26T10:06:56Z</time>
      </trkpt>
      <trkpt lat="44.61669" lon="-0.19444">
        <ele>59.3</ele>
        <time>2022-07-26T10:06:57Z</time>
      </trkpt>
      <trkpt lat="44.61668" lon="-0.19444">
        <ele>59.1</ele>
        <time>2022-07-26T10:06:58Z</time>
      </trkpt>
      <trkpt lat="44.61666" lon="-0.19446">
        <ele>59.4</ele>
        <time>2022-07-26T10:06:59Z</time>
      </trkpt>
      <trkpt lat="44.61666" lon="-0.19446">
        <ele>59.4</ele>
        <time>2022-07-26T10:07:00Z</time>
      </trkpt>
      <trkpt lat="44.61664" lon="-0.19447">
        <ele>59.2</ele>
        <time>2022-07-26T10:07:01Z</time>
      </trkpt>
      <trkpt lat="44.61663" lon="-0.19448">
        <ele>59.2</ele>
        <time>2022-07-26T10:07:02Z</time>
      </trkpt>
      <trkpt lat="44.61662" lon="-0.19449">
        <ele>59.2</ele>
        <time>2022-07-26T10:07:03Z</time>
      </trkpt>
      <trkpt lat="44.6166" lon="-0.1945">
        <ele>59.3</ele>
        <time>2022-07-26T10:07:05Z</time>
      </trkpt>
      <trkpt lat="44.61659" lon="-0.19451">
        <ele>59.3</ele>
        <time>2022-07-26T10:07:06Z</time>
      </trkpt>
      <trkpt lat="44.61657" lon="-0.19453">
        <ele>59.2</ele>
        <time>2022-07-26T10:07:07Z</time>
      </trkpt>
      <trkpt lat="44.61657" lon="-0.19453">
        <ele>59.2</ele>
        <time>2022-07-26T10:07:08Z</time>
      </trkpt>
      <trkpt lat="44.61656" lon="-0.19454">
        <ele>59.3</ele>
        <time>2022-07-26T10:07:09Z</time>
      </trkpt>
      <trkpt lat="44.61654" lon="-0.19455">
        <ele>59.3</ele>
        <time>2022-07-26T10:07:10Z</time>
      </trkpt>
      <trkpt lat="44.61653" lon="-0.19456">
        <ele>59.3</ele>
        <time>2022-07-26T10:07:11Z</time>
      </trkpt>
      <trkpt lat="44.61653" lon="-0.19458">
        <ele>59.1</ele>
        <time>2022-07-26T10:07:12Z</time>
      </trkpt>
      <trkpt lat="44.61652" lon="-0.19458">
        <ele>59.4</ele>
        <time>2022-07-26T10:07:13Z</time>
      </trkpt>
      <trkpt lat="44.6165" lon="-0.19461">
        <ele>59.4</ele>
        <time>2022-07-26T10:07:15Z</time>
      </trkpt>
      <trkpt lat="44.6165" lon="-0.19462">
        <ele>59.4</ele>
        <time>2022-07-26T10:07:16Z</time>
      </trkpt>
      <trkpt lat="44.61649" lon="-0.19464">
        <ele>59.4</ele>
        <time>2022-07-26T10:07:17Z</time>
      </trkpt>
      <trkpt lat="44.61648" lon="-0.19466">
        <ele>59.4</ele>
        <time>2022-07-26T10:07:19Z</time>
      </trkpt>
      <trkpt lat="44.61647" lon="-0.19469">
        <ele>59.6</ele>
        <time>2022-07-26T10:07:20Z</time>
      </trkpt>
      <trkpt lat="44.61647" lon="-0.19469">
        <ele>59.4</ele>
        <time>2022-07-26T10:07:21Z</time>
      </trkpt>
      <trkpt lat="44.61645" lon="-0.19472">
        <ele>59.6</ele>
        <time>2022-07-26T10:07:22Z</time>
      </trkpt>
      <trkpt lat="44.61644" lon="-0.19473">
        <ele>59.6</ele>
        <time>2022-07-26T10:07:23Z</time>
      </trkpt>
      <trkpt lat="44.61643" lon="-0.19474">
        <ele>59.2</ele>
        <time>2022-07-26T10:07:24Z</time>
      </trkpt>
      <trkpt lat="44.61643" lon="-0.19475">
        <ele>59.4</ele>
        <time>2022-07-26T10:07:25Z</time>
      </trkpt>
      <trkpt lat="44.61642" lon="-0.19476">
        <ele>59.4</ele>
        <time>2022-07-26T10:07:26Z</time>
      </trkpt>
      <trkpt lat="44.61641" lon="-0.19478">
        <ele>59.4</ele>
        <time>2022-07-26T10:07:27Z</time>
      </trkpt>
      <trkpt lat="44.61639" lon="-0.1948">
        <ele>59.1</ele>
        <time>2022-07-26T10:07:28Z</time>
      </trkpt>
      <trkpt lat="44.61639" lon="-0.19481">
        <ele>59.1</ele>
        <time>2022-07-26T10:07:29Z</time>
      </trkpt>
      <trkpt lat="44.61637" lon="-0.19483">
        <ele>58.7</ele>
        <time>2022-07-26T10:07:31Z</time>
      </trkpt>
      <trkpt lat="44.61636" lon="-0.19483">
        <ele>58.7</ele>
        <time>2022-07-26T10:07:32Z</time>
      </trkpt>
      <trkpt lat="44.61635" lon="-0.19484">
        <ele>58.8</ele>
        <time>2022-07-26T10:07:33Z</time>
      </trkpt>
      <trkpt lat="44.61633" lon="-0.19483">
        <ele>58.3</ele>
        <time>2022-07-26T10:07:34Z</time>
      </trkpt>
      <trkpt lat="44.61632" lon="-0.19483">
        <ele>57.9</ele>
        <time>2022-07-26T10:07:35Z</time>
      </trkpt>
      <trkpt lat="44.6163" lon="-0.19482">
        <ele>57.9</ele>
        <time>2022-07-26T10:07:36Z</time>
      </trkpt>
      <trkpt lat="44.61629" lon="-0.19481">
        <ele>57.9</ele>
        <time>2022-07-26T10:07:37Z</time>
      </trkpt>
      <trkpt lat="44.61626" lon="-0.19479">
        <ele>57.5</ele>
        <time>2022-07-26T10:07:39Z</time>
      </trkpt>
      <trkpt lat="44.61625" lon="-0.19479">
        <ele>57.2</ele>
        <time>2022-07-26T10:07:40Z</time>
      </trkpt>
      <trkpt lat="44.61623" lon="-0.19477">
        <ele>57.2</ele>
        <time>2022-07-26T10:07:41Z</time>
      </trkpt>
      <trkpt lat="44.61622" lon="-0.19477">
        <ele>56.9</ele>
        <time>2022-07-26T10:07:42Z</time>
      </trkpt>
      <trkpt lat="44.61621" lon="-0.19477">
        <ele>56.9</ele>
        <time>2022-07-26T10:07:43Z</time>
      </trkpt>
      <trkpt lat="44.61618" lon="-0.19477">
        <ele>56.5</ele>
        <time>2022-07-26T10:07:44Z</time>
      </trkpt>
      <trkpt lat="44.61617" lon="-0.19477">
        <ele>56.5</ele>
        <time>2022-07-26T10:07:45Z</time>
      </trkpt>
      <trkpt lat="44.61615" lon="-0.19476">
        <ele>56.2</ele>
        <time>2022-07-26T10:07:46Z</time>
      </trkpt>
      <trkpt lat="44.61614" lon="-0.19476">
        <ele>56.2</ele>
        <time>2022-07-26T10:07:47Z</time>
      </trkpt>
      <trkpt lat="44.61613" lon="-0.19476">
        <ele>55.9</ele>
        <time>2022-07-26T10:07:48Z</time>
      </trkpt>
      <trkpt lat="44.6161" lon="-0.19476">
        <ele>55.5</ele>
        <time>2022-07-26T10:07:50Z</time>
      </trkpt>
      <trkpt lat="44.61609" lon="-0.19477">
        <ele>55.5</ele>
        <time>2022-07-26T10:07:51Z</time>
      </trkpt>
      <trkpt lat="44.61608" lon="-0.19477">
        <ele>55.5</ele>
        <time>2022-07-26T10:07:52Z</time>
      </trkpt>
      <trkpt lat="44.61606" lon="-0.19479">
        <ele>55.2</ele>
        <time>2022-07-26T10:07:54Z</time>
      </trkpt>
      <trkpt lat="44.61603" lon="-0.19481">
        <ele>54.8</ele>
        <time>2022-07-26T10:07:55Z</time>
      </trkpt>
      <trkpt lat="44.61603" lon="-0.19482">
        <ele>54.8</ele>
        <time>2022-07-26T10:07:56Z</time>
      </trkpt>
      <trkpt lat="44.61602" lon="-0.19483">
        <ele>54.8</ele>
        <time>2022-07-26T10:07:57Z</time>
      </trkpt>
      <trkpt lat="44.616" lon="-0.19484">
        <ele>54.3</ele>
        <time>2022-07-26T10:07:58Z</time>
      </trkpt>
      <trkpt lat="44.61597" lon="-0.19487">
        <ele>53.9</ele>
        <time>2022-07-26T10:08:00Z</time>
      </trkpt>
      <trkpt lat="44.61596" lon="-0.19487">
        <ele>53.9</ele>
        <time>2022-07-26T10:08:01Z</time>
      </trkpt>
      <trkpt lat="44.61595" lon="-0.19487">
        <ele>53.5</ele>
        <time>2022-07-26T10:08:02Z</time>
      </trkpt>
      <trkpt lat="44.61594" lon="-0.19488">
        <ele>53.5</ele>
        <time>2022-07-26T10:08:03Z</time>
      </trkpt>
      <trkpt lat="44.61593" lon="-0.19488">
        <ele>53.3</ele>
        <time>2022-07-26T10:08:04Z</time>
      </trkpt>
      <trkpt lat="44.61591" lon="-0.19489">
        <ele>52.9</ele>
        <time>2022-07-26T10:08:05Z</time>
      </trkpt>
      <trkpt lat="44.6159" lon="-0.1949">
        <ele>52.9</ele>
        <time>2022-07-26T10:08:06Z</time>
      </trkpt>
      <trkpt lat="44.61589" lon="-0.1949">
        <ele>52.4</ele>
        <time>2022-07-26T10:08:07Z</time>
      </trkpt>
      <trkpt lat="44.61587" lon="-0.19491">
        <ele>52.4</ele>
        <time>2022-07-26T10:08:08Z</time>
      </trkpt>
      <trkpt lat="44.61585" lon="-0.19493">
        <ele>51.7</ele>
        <time>2022-07-26T10:08:09Z</time>
      </trkpt>
      <trkpt lat="44.61584" lon="-0.19493">
        <ele>51.7</ele>
        <time>2022-07-26T10:08:10Z</time>
      </trkpt>
      <trkpt lat="44.61584" lon="-0.19496">
        <ele>51.7</ele>
        <time>2022-07-26T10:08:11Z</time>
      </trkpt>
      <trkpt lat="44.61584" lon="-0.19497">
        <ele>51.5</ele>
        <time>2022-07-26T10:08:12Z</time>
      </trkpt>
      <trkpt lat="44.61584" lon="-0.19498">
        <ele>51.5</ele>
        <time>2022-07-26T10:08:14Z</time>
      </trkpt>
      <trkpt lat="44.61584" lon="-0.195">
        <ele>51.5</ele>
        <time>2022-07-26T10:08:15Z</time>
      </trkpt>
      <trkpt lat="44.61585" lon="-0.19501">
        <ele>51.3</ele>
        <time>2022-07-26T10:08:16Z</time>
      </trkpt>
      <trkpt lat="44.61585" lon="-0.19503">
        <ele>51.3</ele>
        <time>2022-07-26T10:08:17Z</time>
      </trkpt>
      <trkpt lat="44.61586" lon="-0.19504">
        <ele>51.8</ele>
        <time>2022-07-26T10:08:18Z</time>
      </trkpt>
      <trkpt lat="44.61589" lon="-0.19507">
        <ele>51.6</ele>
        <time>2022-07-26T10:08:20Z</time>
      </trkpt>
      <trkpt lat="44.6159" lon="-0.19509">
        <ele>52.1</ele>
        <time>2022-07-26T10:08:21Z</time>
      </trkpt>
      <trkpt lat="44.61591" lon="-0.1951">
        <ele>51.9</ele>
        <time>2022-07-26T10:08:22Z</time>
      </trkpt>
      <trkpt lat="44.61591" lon="-0.19511">
        <ele>51.9</ele>
        <time>2022-07-26T10:08:23Z</time>
      </trkpt>
      <trkpt lat="44.61592" lon="-0.19513">
        <ele>51.9</ele>
        <time>2022-07-26T10:08:24Z</time>
      </trkpt>
      <trkpt lat="44.61593" lon="-0.19516">
        <ele>52.3</ele>
        <time>2022-07-26T10:08:26Z</time>
      </trkpt>
      <trkpt lat="44.61593" lon="-0.19518">
        <ele>52.2</ele>
        <time>2022-07-26T10:08:27Z</time>
      </trkpt>
      <trkpt lat="44.61594" lon="-0.1952">
        <ele>52.2</ele>
        <time>2022-07-26T10:08:28Z</time>
      </trkpt>
      <trkpt lat="44.61594" lon="-0.19526">
        <ele>52.1</ele>
        <time>2022-07-26T10:08:30Z</time>
      </trkpt>
      <trkpt lat="44.61594" lon="-0.19528">
        <ele>51.9</ele>
        <time>2022-07-26T10:08:31Z</time>
      </trkpt>
      <trkpt lat="44.61593" lon="-0.19529">
        <ele>51.9</ele>
        <time>2022-07-26T10:08:32Z</time>
      </trkpt>
      <trkpt lat="44.61593" lon="-0.1953">
        <ele>51.9</ele>
        <time>2022-07-26T10:08:33Z</time>
      </trkpt>
      <trkpt lat="44.61593" lon="-0.19532">
        <ele>51.8</ele>
        <time>2022-07-26T10:08:34Z</time>
      </trkpt>
      <trkpt lat="44.61592" lon="-0.19535">
        <ele>51.2</ele>
        <time>2022-07-26T10:08:35Z</time>
      </trkpt>
      <trkpt lat="44.61591" lon="-0.19536">
        <ele>51.1</ele>
        <time>2022-07-26T10:08:37Z</time>
      </trkpt>
      <trkpt lat="44.61588" lon="-0.19539">
        <ele>50.5</ele>
        <time>2022-07-26T10:08:38Z</time>
      </trkpt>
      <trkpt lat="44.61586" lon="-0.19542">
        <ele>50.3</ele>
        <time>2022-07-26T10:08:40Z</time>
      </trkpt>
      <trkpt lat="44.61585" lon="-0.19542">
        <ele>49.7</ele>
        <time>2022-07-26T10:08:41Z</time>
      </trkpt>
      <trkpt lat="44.61584" lon="-0.19543">
        <ele>49.7</ele>
        <time>2022-07-26T10:08:42Z</time>
      </trkpt>
      <trkpt lat="44.61583" lon="-0.19544">
        <ele>49</ele>
        <time>2022-07-26T10:08:43Z</time>
      </trkpt>
      <trkpt lat="44.61581" lon="-0.19544">
        <ele>49</ele>
        <time>2022-07-26T10:08:44Z</time>
      </trkpt>
      <trkpt lat="44.61579" lon="-0.19545">
        <ele>48.5</ele>
        <time>2022-07-26T10:08:45Z</time>
      </trkpt>
      <trkpt lat="44.61577" lon="-0.19546">
        <ele>48.5</ele>
        <time>2022-07-26T10:08:47Z</time>
      </trkpt>
      <trkpt lat="44.61575" lon="-0.19547">
        <ele>48</ele>
        <time>2022-07-26T10:08:48Z</time>
      </trkpt>
      <trkpt lat="44.61574" lon="-0.19548">
        <ele>48</ele>
        <time>2022-07-26T10:08:49Z</time>
      </trkpt>
      <trkpt lat="44.61573" lon="-0.19548">
        <ele>47.3</ele>
        <time>2022-07-26T10:08:50Z</time>
      </trkpt>
      <trkpt lat="44.61572" lon="-0.19548">
        <ele>47.3</ele>
        <time>2022-07-26T10:08:51Z</time>
      </trkpt>
      <trkpt lat="44.61571" lon="-0.19549">
        <ele>47.3</ele>
        <time>2022-07-26T10:08:52Z</time>
      </trkpt>
      <trkpt lat="44.6157" lon="-0.19549">
        <ele>46.9</ele>
        <time>2022-07-26T10:08:54Z</time>
      </trkpt>
      <trkpt lat="44.61567" lon="-0.1955">
        <ele>46.5</ele>
        <time>2022-07-26T10:08:55Z</time>
      </trkpt>
      <trkpt lat="44.61566" lon="-0.1955">
        <ele>46.5</ele>
        <time>2022-07-26T10:08:57Z</time>
      </trkpt>
      <trkpt lat="44.61565" lon="-0.19552">
        <ele>46.3</ele>
        <time>2022-07-26T10:08:58Z</time>
      </trkpt>
      <trkpt lat="44.61564" lon="-0.19553">
        <ele>46</ele>
        <time>2022-07-26T10:08:59Z</time>
      </trkpt>
      <trkpt lat="44.61563" lon="-0.19555">
        <ele>46</ele>
        <time>2022-07-26T10:09:00Z</time>
      </trkpt>
      <trkpt lat="44.61562" lon="-0.19556">
        <ele>46</ele>
        <time>2022-07-26T10:09:02Z</time>
      </trkpt>
      <trkpt lat="44.61561" lon="-0.19557">
        <ele>45.5</ele>
        <time>2022-07-26T10:09:03Z</time>
      </trkpt>
      <trkpt lat="44.6156" lon="-0.19558">
        <ele>45.5</ele>
        <time>2022-07-26T10:09:04Z</time>
      </trkpt>
      <trkpt lat="44.61559" lon="-0.1956">
        <ele>45.5</ele>
        <time>2022-07-26T10:09:05Z</time>
      </trkpt>
      <trkpt lat="44.61558" lon="-0.19562">
        <ele>45.1</ele>
        <time>2022-07-26T10:09:06Z</time>
      </trkpt>
      <trkpt lat="44.61557" lon="-0.19563">
        <ele>45.1</ele>
        <time>2022-07-26T10:09:07Z</time>
      </trkpt>
      <trkpt lat="44.61557" lon="-0.19565">
        <ele>45.1</ele>
        <time>2022-07-26T10:09:08Z</time>
      </trkpt>
      <trkpt lat="44.61556" lon="-0.19567">
        <ele>44.9</ele>
        <time>2022-07-26T10:09:09Z</time>
      </trkpt>
      <trkpt lat="44.61554" lon="-0.1957">
        <ele>44.5</ele>
        <time>2022-07-26T10:09:11Z</time>
      </trkpt>
      <trkpt lat="44.61554" lon="-0.19571">
        <ele>44.5</ele>
        <time>2022-07-26T10:09:12Z</time>
      </trkpt>
      <trkpt lat="44.61553" lon="-0.19572">
        <ele>44.5</ele>
        <time>2022-07-26T10:09:13Z</time>
      </trkpt>
      <trkpt lat="44.61552" lon="-0.19573">
        <ele>44.3</ele>
        <time>2022-07-26T10:09:14Z</time>
      </trkpt>
      <trkpt lat="44.61551" lon="-0.19576">
        <ele>44.2</ele>
        <time>2022-07-26T10:09:15Z</time>
      </trkpt>
      <trkpt lat="44.6155" lon="-0.19576">
        <ele>44.2</ele>
        <time>2022-07-26T10:09:16Z</time>
      </trkpt>
      <trkpt lat="44.61549" lon="-0.19578">
        <ele>44</ele>
        <time>2022-07-26T10:09:18Z</time>
      </trkpt>
      <trkpt lat="44.61548" lon="-0.19579">
        <ele>43.9</ele>
        <time>2022-07-26T10:09:19Z</time>
      </trkpt>
      <trkpt lat="44.61546" lon="-0.19581">
        <ele>43.9</ele>
        <time>2022-07-26T10:09:20Z</time>
      </trkpt>
      <trkpt lat="44.61546" lon="-0.19582">
        <ele>43.7</ele>
        <time>2022-07-26T10:09:21Z</time>
      </trkpt>
      <trkpt lat="44.61545" lon="-0.19583">
        <ele>43.7</ele>
        <time>2022-07-26T10:09:22Z</time>
      </trkpt>
      <trkpt lat="44.61544" lon="-0.19585">
        <ele>43.7</ele>
        <time>2022-07-26T10:09:24Z</time>
      </trkpt>
      <trkpt lat="44.61542" lon="-0.19587">
        <ele>43.6</ele>
        <time>2022-07-26T10:09:25Z</time>
      </trkpt>
      <trkpt lat="44.61541" lon="-0.19588">
        <ele>43.6</ele>
        <time>2022-07-26T10:09:26Z</time>
      </trkpt>
      <trkpt lat="44.61541" lon="-0.19589">
        <ele>43.6</ele>
        <time>2022-07-26T10:09:27Z</time>
      </trkpt>
      <trkpt lat="44.6154" lon="-0.1959">
        <ele>43.5</ele>
        <time>2022-07-26T10:09:28Z</time>
      </trkpt>
      <trkpt lat="44.61539" lon="-0.19591">
        <ele>43.5</ele>
        <time>2022-07-26T10:09:29Z</time>
      </trkpt>
      <trkpt lat="44.61538" lon="-0.19593">
        <ele>43.5</ele>
        <time>2022-07-26T10:09:30Z</time>
      </trkpt>
      <trkpt lat="44.61537" lon="-0.19593">
        <ele>43.5</ele>
        <time>2022-07-26T10:09:31Z</time>
      </trkpt>
      <trkpt lat="44.61536" lon="-0.19594">
        <ele>43.5</ele>
        <time>2022-07-26T10:09:32Z</time>
      </trkpt>
      <trkpt lat="44.61536" lon="-0.19595">
        <ele>43.5</ele>
        <time>2022-07-26T10:09:33Z</time>
      </trkpt>
      <trkpt lat="44.61535" lon="-0.19596">
        <ele>43.5</ele>
        <time>2022-07-26T10:09:34Z</time>
      </trkpt>
      <trkpt lat="44.61533" lon="-0.19599">
        <ele>43.5</ele>
        <time>2022-07-26T10:09:35Z</time>
      </trkpt>
      <trkpt lat="44.61533" lon="-0.196">
        <ele>43.6</ele>
        <time>2022-07-26T10:09:37Z</time>
      </trkpt>
      <trkpt lat="44.61532" lon="-0.19601">
        <ele>43.6</ele>
        <time>2022-07-26T10:09:38Z</time>
      </trkpt>
      <trkpt lat="44.61532" lon="-0.19603">
        <ele>43.6</ele>
        <time>2022-07-26T10:09:39Z</time>
      </trkpt>
      <trkpt lat="44.61531" lon="-0.19604">
        <ele>43.8</ele>
        <time>2022-07-26T10:09:40Z</time>
      </trkpt>
      <trkpt lat="44.61532" lon="-0.19606">
        <ele>43.8</ele>
        <time>2022-07-26T10:09:41Z</time>
      </trkpt>
      <trkpt lat="44.61532" lon="-0.19607">
        <ele>43.8</ele>
        <time>2022-07-26T10:09:42Z</time>
      </trkpt>
      <trkpt lat="44.61533" lon="-0.19608">
        <ele>43.8</ele>
        <time>2022-07-26T10:09:43Z</time>
      </trkpt>
      <trkpt lat="44.61533" lon="-0.19609">
        <ele>44</ele>
        <time>2022-07-26T10:09:44Z</time>
      </trkpt>
      <trkpt lat="44.61534" lon="-0.19611">
        <ele>44</ele>
        <time>2022-07-26T10:09:45Z</time>
      </trkpt>
      <trkpt lat="44.61534" lon="-0.19612">
        <ele>44</ele>
        <time>2022-07-26T10:09:46Z</time>
      </trkpt>
      <trkpt lat="44.61535" lon="-0.19613">
        <ele>44.3</ele>
        <time>2022-07-26T10:09:47Z</time>
      </trkpt>
      <trkpt lat="44.61535" lon="-0.19615">
        <ele>44.3</ele>
        <time>2022-07-26T10:09:48Z</time>
      </trkpt>
      <trkpt lat="44.61536" lon="-0.19616">
        <ele>44.3</ele>
        <time>2022-07-26T10:09:50Z</time>
      </trkpt>
      <trkpt lat="44.61537" lon="-0.19618">
        <ele>44.6</ele>
        <time>2022-07-26T10:09:51Z</time>
      </trkpt>
      <trkpt lat="44.61538" lon="-0.19619">
        <ele>44.6</ele>
        <time>2022-07-26T10:09:52Z</time>
      </trkpt>
      <trkpt lat="44.61538" lon="-0.1962">
        <ele>44.6</ele>
        <time>2022-07-26T10:09:53Z</time>
      </trkpt>
      <trkpt lat="44.61538" lon="-0.19621">
        <ele>44.9</ele>
        <time>2022-07-26T10:09:54Z</time>
      </trkpt>
      <trkpt lat="44.61538" lon="-0.19624">
        <ele>44.9</ele>
        <time>2022-07-26T10:09:55Z</time>
      </trkpt>
      <trkpt lat="44.61538" lon="-0.19625">
        <ele>44.9</ele>
        <time>2022-07-26T10:09:56Z</time>
      </trkpt>
      <trkpt lat="44.61538" lon="-0.19627">
        <ele>45.3</ele>
        <time>2022-07-26T10:09:57Z</time>
      </trkpt>
      <trkpt lat="44.61539" lon="-0.19628">
        <ele>45.3</ele>
        <time>2022-07-26T10:09:58Z</time>
      </trkpt>
      <trkpt lat="44.61539" lon="-0.19629">
        <ele>45.3</ele>
        <time>2022-07-26T10:09:59Z</time>
      </trkpt>
      <trkpt lat="44.61539" lon="-0.1963">
        <ele>45.7</ele>
        <time>2022-07-26T10:10:00Z</time>
      </trkpt>
      <trkpt lat="44.61539" lon="-0.19632">
        <ele>45.7</ele>
        <time>2022-07-26T10:10:01Z</time>
      </trkpt>
      <trkpt lat="44.61539" lon="-0.19634">
        <ele>46</ele>
        <time>2022-07-26T10:10:03Z</time>
      </trkpt>
      <trkpt lat="44.61539" lon="-0.19635">
        <ele>46</ele>
        <time>2022-07-26T10:10:04Z</time>
      </trkpt>
      <trkpt lat="44.6154" lon="-0.19636">
        <ele>46</ele>
        <time>2022-07-26T10:10:05Z</time>
      </trkpt>
      <trkpt lat="44.6154" lon="-0.19637">
        <ele>46</ele>
        <time>2022-07-26T10:10:06Z</time>
      </trkpt>
      <trkpt lat="44.6154" lon="-0.19638">
        <ele>46.6</ele>
        <time>2022-07-26T10:10:07Z</time>
      </trkpt>
      <trkpt lat="44.61541" lon="-0.19639">
        <ele>46.6</ele>
        <time>2022-07-26T10:10:08Z</time>
      </trkpt>
      <trkpt lat="44.61541" lon="-0.1964">
        <ele>46.6</ele>
        <time>2022-07-26T10:10:09Z</time>
      </trkpt>
      <trkpt lat="44.61543" lon="-0.19642">
        <ele>46.6</ele>
        <time>2022-07-26T10:10:11Z</time>
      </trkpt>
      <trkpt lat="44.61543" lon="-0.19643">
        <ele>47.1</ele>
        <time>2022-07-26T10:10:12Z</time>
      </trkpt>
      <trkpt lat="44.61544" lon="-0.19643">
        <ele>47.1</ele>
        <time>2022-07-26T10:10:13Z</time>
      </trkpt>
      <trkpt lat="44.61544" lon="-0.19644">
        <ele>47.2</ele>
        <time>2022-07-26T10:10:14Z</time>
      </trkpt>
      <trkpt lat="44.61545" lon="-0.19646">
        <ele>47.2</ele>
        <time>2022-07-26T10:10:15Z</time>
      </trkpt>
      <trkpt lat="44.61546" lon="-0.19646">
        <ele>47.3</ele>
        <time>2022-07-26T10:10:16Z</time>
      </trkpt>
      <trkpt lat="44.61546" lon="-0.19647">
        <ele>47.7</ele>
        <time>2022-07-26T10:10:17Z</time>
      </trkpt>
      <trkpt lat="44.61547" lon="-0.19648">
        <ele>47.9</ele>
        <time>2022-07-26T10:10:18Z</time>
      </trkpt>
      <trkpt lat="44.61547" lon="-0.19648">
        <ele>47.9</ele>
        <time>2022-07-26T10:10:19Z</time>
      </trkpt>
      <trkpt lat="44.61548" lon="-0.1965">
        <ele>48</ele>
        <time>2022-07-26T10:10:20Z</time>
      </trkpt>
      <trkpt lat="44.61549" lon="-0.1965">
        <ele>48</ele>
        <time>2022-07-26T10:10:21Z</time>
      </trkpt>
      <trkpt lat="44.61549" lon="-0.19651">
        <ele>48.6</ele>
        <time>2022-07-26T10:10:23Z</time>
      </trkpt>
      <trkpt lat="44.6155" lon="-0.19653">
        <ele>48.6</ele>
        <time>2022-07-26T10:10:24Z</time>
      </trkpt>
      <trkpt lat="44.61551" lon="-0.19655">
        <ele>48.7</ele>
        <time>2022-07-26T10:10:25Z</time>
      </trkpt>
      <trkpt lat="44.61551" lon="-0.19656">
        <ele>49.1</ele>
        <time>2022-07-26T10:10:26Z</time>
      </trkpt>
      <trkpt lat="44.61552" lon="-0.19657">
        <ele>49.2</ele>
        <time>2022-07-26T10:10:27Z</time>
      </trkpt>
      <trkpt lat="44.61552" lon="-0.19658">
        <ele>49.2</ele>
        <time>2022-07-26T10:10:28Z</time>
      </trkpt>
      <trkpt lat="44.61553" lon="-0.19661">
        <ele>49.8</ele>
        <time>2022-07-26T10:10:30Z</time>
      </trkpt>
      <trkpt lat="44.61554" lon="-0.19663">
        <ele>49.8</ele>
        <time>2022-07-26T10:10:31Z</time>
      </trkpt>
      <trkpt lat="44.61554" lon="-0.19664">
        <ele>50.2</ele>
        <time>2022-07-26T10:10:33Z</time>
      </trkpt>
      <trkpt lat="44.61555" lon="-0.19665">
        <ele>50.2</ele>
        <time>2022-07-26T10:10:34Z</time>
      </trkpt>
      <trkpt lat="44.61556" lon="-0.19666">
        <ele>50.3</ele>
        <time>2022-07-26T10:10:35Z</time>
      </trkpt>
      <trkpt lat="44.61558" lon="-0.19667">
        <ele>50.4</ele>
        <time>2022-07-26T10:10:36Z</time>
      </trkpt>
      <trkpt lat="44.61558" lon="-0.19667">
        <ele>50.4</ele>
        <time>2022-07-26T10:10:37Z</time>
      </trkpt>
      <trkpt lat="44.61559" lon="-0.19667">
        <ele>50.5</ele>
        <time>2022-07-26T10:10:38Z</time>
      </trkpt>
      <trkpt lat="44.6156" lon="-0.19668">
        <ele>50.6</ele>
        <time>2022-07-26T10:10:39Z</time>
      </trkpt>
      <trkpt lat="44.61561" lon="-0.19668">
        <ele>50.6</ele>
        <time>2022-07-26T10:10:40Z</time>
      </trkpt>
      <trkpt lat="44.61562" lon="-0.19668">
        <ele>50.7</ele>
        <time>2022-07-26T10:10:41Z</time>
      </trkpt>
      <trkpt lat="44.61563" lon="-0.19668">
        <ele>51</ele>
        <time>2022-07-26T10:10:42Z</time>
      </trkpt>
      <trkpt lat="44.61565" lon="-0.19668">
        <ele>51.1</ele>
        <time>2022-07-26T10:10:44Z</time>
      </trkpt>
      <trkpt lat="44.61567" lon="-0.19668">
        <ele>50.8</ele>
        <time>2022-07-26T10:10:45Z</time>
      </trkpt>
      <trkpt lat="44.61567" lon="-0.19668">
        <ele>50.8</ele>
        <time>2022-07-26T10:10:46Z</time>
      </trkpt>
      <trkpt lat="44.61568" lon="-0.19667">
        <ele>51</ele>
        <time>2022-07-26T10:10:47Z</time>
      </trkpt>
      <trkpt lat="44.61571" lon="-0.19667">
        <ele>51.1</ele>
        <time>2022-07-26T10:10:49Z</time>
      </trkpt>
      <trkpt lat="44.61572" lon="-0.19667">
        <ele>51.1</ele>
        <time>2022-07-26T10:10:50Z</time>
      </trkpt>
      <trkpt lat="44.61573" lon="-0.19667">
        <ele>51.2</ele>
        <time>2022-07-26T10:10:51Z</time>
      </trkpt>
      <trkpt lat="44.61574" lon="-0.19667">
        <ele>51.2</ele>
        <time>2022-07-26T10:10:53Z</time>
      </trkpt>
      <trkpt lat="44.61575" lon="-0.19667">
        <ele>51.3</ele>
        <time>2022-07-26T10:10:54Z</time>
      </trkpt>
      <trkpt lat="44.61576" lon="-0.19666">
        <ele>51.3</ele>
        <time>2022-07-26T10:10:55Z</time>
      </trkpt>
      <trkpt lat="44.61578" lon="-0.19666">
        <ele>51.5</ele>
        <time>2022-07-26T10:10:56Z</time>
      </trkpt>
      <trkpt lat="44.61578" lon="-0.19666">
        <ele>51.5</ele>
        <time>2022-07-26T10:10:57Z</time>
      </trkpt>
      <trkpt lat="44.61579" lon="-0.19665">
        <ele>51.6</ele>
        <time>2022-07-26T10:10:58Z</time>
      </trkpt>
      <trkpt lat="44.6158" lon="-0.19665">
        <ele>51.6</ele>
        <time>2022-07-26T10:10:59Z</time>
      </trkpt>
      <trkpt lat="44.61581" lon="-0.19665">
        <ele>51.7</ele>
        <time>2022-07-26T10:11:00Z</time>
      </trkpt>
      <trkpt lat="44.61583" lon="-0.19664">
        <ele>51.7</ele>
        <time>2022-07-26T10:11:02Z</time>
      </trkpt>
      <trkpt lat="44.61584" lon="-0.19664">
        <ele>51.9</ele>
        <time>2022-07-26T10:11:03Z</time>
      </trkpt>
      <trkpt lat="44.61585" lon="-0.19664">
        <ele>51.9</ele>
        <time>2022-07-26T10:11:04Z</time>
      </trkpt>
      <trkpt lat="44.61586" lon="-0.19664">
        <ele>52</ele>
        <time>2022-07-26T10:11:05Z</time>
      </trkpt>
      <trkpt lat="44.61587" lon="-0.19664">
        <ele>52</ele>
        <time>2022-07-26T10:11:06Z</time>
      </trkpt>
      <trkpt lat="44.61588" lon="-0.19663">
        <ele>52.1</ele>
        <time>2022-07-26T10:11:07Z</time>
      </trkpt>
      <trkpt lat="44.61589" lon="-0.19663">
        <ele>52.1</ele>
        <time>2022-07-26T10:11:08Z</time>
      </trkpt>
      <trkpt lat="44.6159" lon="-0.19662">
        <ele>52.4</ele>
        <time>2022-07-26T10:11:10Z</time>
      </trkpt>
      <trkpt lat="44.6159" lon="-0.19662">
        <ele>52.4</ele>
        <time>2022-07-26T10:11:11Z</time>
      </trkpt>
      <trkpt lat="44.61591" lon="-0.19662">
        <ele>52.5</ele>
        <time>2022-07-26T10:11:12Z</time>
      </trkpt>
      <trkpt lat="44.61592" lon="-0.19661">
        <ele>52.5</ele>
        <time>2022-07-26T10:11:13Z</time>
      </trkpt>
      <trkpt lat="44.61593" lon="-0.19661">
        <ele>52.9</ele>
        <time>2022-07-26T10:11:14Z</time>
      </trkpt>
      <trkpt lat="44.61596" lon="-0.19661">
        <ele>53.1</ele>
        <time>2022-07-26T10:11:16Z</time>
      </trkpt>
      <trkpt lat="44.61597" lon="-0.19661">
        <ele>53.2</ele>
        <time>2022-07-26T10:11:18Z</time>
      </trkpt>
      <trkpt lat="44.61598" lon="-0.19661">
        <ele>53.5</ele>
        <time>2022-07-26T10:11:19Z</time>
      </trkpt>
      <trkpt lat="44.61599" lon="-0.1966">
        <ele>53.6</ele>
        <time>2022-07-26T10:11:20Z</time>
      </trkpt>
      <trkpt lat="44.616" lon="-0.1966">
        <ele>53.6</ele>
        <time>2022-07-26T10:11:21Z</time>
      </trkpt>
      <trkpt lat="44.61602" lon="-0.19661">
        <ele>54.1</ele>
        <time>2022-07-26T10:11:22Z</time>
      </trkpt>
      <trkpt lat="44.61602" lon="-0.19661">
        <ele>54.1</ele>
        <time>2022-07-26T10:11:23Z</time>
      </trkpt>
      <trkpt lat="44.61603" lon="-0.19662">
        <ele>54.2</ele>
        <time>2022-07-26T10:11:24Z</time>
      </trkpt>
      <trkpt lat="44.61604" lon="-0.19662">
        <ele>54.2</ele>
        <time>2022-07-26T10:11:25Z</time>
      </trkpt>
      <trkpt lat="44.61605" lon="-0.19663">
        <ele>54.7</ele>
        <time>2022-07-26T10:11:26Z</time>
      </trkpt>
      <trkpt lat="44.61606" lon="-0.19663">
        <ele>54.7</ele>
        <time>2022-07-26T10:11:27Z</time>
      </trkpt>
      <trkpt lat="44.61608" lon="-0.19663">
        <ele>55.2</ele>
        <time>2022-07-26T10:11:29Z</time>
      </trkpt>
      <trkpt lat="44.61609" lon="-0.19664">
        <ele>55.2</ele>
        <time>2022-07-26T10:11:30Z</time>
      </trkpt>
      <trkpt lat="44.6161" lon="-0.19664">
        <ele>55.8</ele>
        <time>2022-07-26T10:11:31Z</time>
      </trkpt>
      <trkpt lat="44.61611" lon="-0.19664">
        <ele>55.8</ele>
        <time>2022-07-26T10:11:32Z</time>
      </trkpt>
      <trkpt lat="44.61612" lon="-0.19664">
        <ele>55.9</ele>
        <time>2022-07-26T10:11:33Z</time>
      </trkpt>
      <trkpt lat="44.61612" lon="-0.19664">
        <ele>55.9</ele>
        <time>2022-07-26T10:11:34Z</time>
      </trkpt>
      <trkpt lat="44.61613" lon="-0.19664">
        <ele>56</ele>
        <time>2022-07-26T10:11:35Z</time>
      </trkpt>
      <trkpt lat="44.61614" lon="-0.19664">
        <ele>56.5</ele>
        <time>2022-07-26T10:11:36Z</time>
      </trkpt>
      <trkpt lat="44.61614" lon="-0.19664">
        <ele>56.6</ele>
        <time>2022-07-26T10:11:37Z</time>
      </trkpt>
      <trkpt lat="44.61614" lon="-0.19664">
        <ele>56.6</ele>
        <time>2022-07-26T10:11:38Z</time>
      </trkpt>
      <trkpt lat="44.61615" lon="-0.19664">
        <ele>56.7</ele>
        <time>2022-07-26T10:11:40Z</time>
      </trkpt>
      <trkpt lat="44.61616" lon="-0.19663">
        <ele>56.7</ele>
        <time>2022-07-26T10:11:41Z</time>
      </trkpt>
      <trkpt lat="44.61617" lon="-0.19663">
        <ele>57.3</ele>
        <time>2022-07-26T10:11:42Z</time>
      </trkpt>
      <trkpt lat="44.61616" lon="-0.19663">
        <ele>56.8</ele>
        <time>2022-07-26T10:11:43Z</time>
      </trkpt>
      <trkpt lat="44.61616" lon="-0.19664">
        <ele>56.9</ele>
        <time>2022-07-26T10:11:44Z</time>
      </trkpt>
      <trkpt lat="44.61616" lon="-0.19664">
        <ele>56.9</ele>
        <time>2022-07-26T10:11:45Z</time>
      </trkpt>
      <trkpt lat="44.61616" lon="-0.19665">
        <ele>57</ele>
        <time>2022-07-26T10:11:46Z</time>
      </trkpt>
      <trkpt lat="44.61616" lon="-0.19665">
        <ele>57</ele>
        <time>2022-07-26T10:11:47Z</time>
      </trkpt>
      <trkpt lat="44.61616" lon="-0.19666">
        <ele>57.1</ele>
        <time>2022-07-26T10:11:49Z</time>
      </trkpt>
      <trkpt lat="44.61616" lon="-0.19667">
        <ele>57.1</ele>
        <time>2022-07-26T10:11:50Z</time>
      </trkpt>
      <trkpt lat="44.61616" lon="-0.19667">
        <ele>57.2</ele>
        <time>2022-07-26T10:11:51Z</time>
      </trkpt>
      <trkpt lat="44.61615" lon="-0.19669">
        <ele>57.1</ele>
        <time>2022-07-26T10:11:52Z</time>
      </trkpt>
      <trkpt lat="44.61615" lon="-0.1967">
        <ele>57.1</ele>
        <time>2022-07-26T10:11:53Z</time>
      </trkpt>
      <trkpt lat="44.61614" lon="-0.19671">
        <ele>57.2</ele>
        <time>2022-07-26T10:11:54Z</time>
      </trkpt>
      <trkpt lat="44.61613" lon="-0.19675">
        <ele>57.3</ele>
        <time>2022-07-26T10:11:55Z</time>
      </trkpt>
      <trkpt lat="44.61613" lon="-0.19676">
        <ele>56.8</ele>
        <time>2022-07-26T10:11:56Z</time>
      </trkpt>
      <trkpt lat="44.61612" lon="-0.19678">
        <ele>56.9</ele>
        <time>2022-07-26T10:11:58Z</time>
      </trkpt>
      <trkpt lat="44.61611" lon="-0.1968">
        <ele>56.9</ele>
        <time>2022-07-26T10:11:59Z</time>
      </trkpt>
      <trkpt lat="44.6161" lon="-0.19681">
        <ele>56.6</ele>
        <time>2022-07-26T10:12:00Z</time>
      </trkpt>
      <trkpt lat="44.61609" lon="-0.19683">
        <ele>56.6</ele>
        <time>2022-07-26T10:12:01Z</time>
      </trkpt>
      <trkpt lat="44.61607" lon="-0.19686">
        <ele>56.6</ele>
        <time>2022-07-26T10:12:02Z</time>
      </trkpt>
      <trkpt lat="44.61606" lon="-0.19687">
        <ele>56.4</ele>
        <time>2022-07-26T10:12:03Z</time>
      </trkpt>
      <trkpt lat="44.61606" lon="-0.19688">
        <ele>56.5</ele>
        <time>2022-07-26T10:12:04Z</time>
      </trkpt>
      <trkpt lat="44.61604" lon="-0.1969">
        <ele>56.6</ele>
        <time>2022-07-26T10:12:05Z</time>
      </trkpt>
      <trkpt lat="44.61603" lon="-0.19692">
        <ele>56.5</ele>
        <time>2022-07-26T10:12:06Z</time>
      </trkpt>
      <trkpt lat="44.61602" lon="-0.19693">
        <ele>56.5</ele>
        <time>2022-07-26T10:12:07Z</time>
      </trkpt>
      <trkpt lat="44.61601" lon="-0.19693">
        <ele>56.3</ele>
        <time>2022-07-26T10:12:09Z</time>
      </trkpt>
      <trkpt lat="44.616" lon="-0.19693">
        <ele>56.3</ele>
        <time>2022-07-26T10:12:10Z</time>
      </trkpt>
      <trkpt lat="44.61599" lon="-0.19693">
        <ele>56.3</ele>
        <time>2022-07-26T10:12:11Z</time>
      </trkpt>
      <trkpt lat="44.61597" lon="-0.19692">
        <ele>56.1</ele>
        <time>2022-07-26T10:12:12Z</time>
      </trkpt>
      <trkpt lat="44.61596" lon="-0.19692">
        <ele>56.1</ele>
        <time>2022-07-26T10:12:13Z</time>
      </trkpt>
      <trkpt lat="44.61595" lon="-0.19691">
        <ele>56</ele>
        <time>2022-07-26T10:12:14Z</time>
      </trkpt>
      <trkpt lat="44.61594" lon="-0.19691">
        <ele>56</ele>
        <time>2022-07-26T10:12:15Z</time>
      </trkpt>
      <trkpt lat="44.61592" lon="-0.1969">
        <ele>56</ele>
        <time>2022-07-26T10:12:17Z</time>
      </trkpt>
      <trkpt lat="44.61593" lon="-0.19689">
        <ele>55.9</ele>
        <time>2022-07-26T10:12:18Z</time>
      </trkpt>
      <trkpt lat="44.61592" lon="-0.19689">
        <ele>55.9</ele>
        <time>2022-07-26T10:12:19Z</time>
      </trkpt>
      <trkpt lat="44.61597" lon="-0.19688">
        <ele>56</ele>
        <time>2022-07-26T10:12:22Z</time>
      </trkpt>
      <trkpt lat="44.61597" lon="-0.19688">
        <ele>56</ele>
        <time>2022-07-26T10:12:23Z</time>
      </trkpt>
      <trkpt lat="44.61597" lon="-0.19688">
        <ele>56</ele>
        <time>2022-07-26T10:12:24Z</time>
      </trkpt>
      <trkpt lat="44.61597" lon="-0.19688">
        <ele>56</ele>
        <time>2022-07-26T10:12:25Z</time>
      </trkpt>
      <trkpt lat="44.61597" lon="-0.19688">
        <ele>56</ele>
        <time>2022-07-26T10:12:26Z</time>
      </trkpt>
      <trkpt lat="44.61597" lon="-0.19688">
        <ele>56</ele>
        <time>2022-07-26T10:12:27Z</time>
      </trkpt>
      <trkpt lat="44.61597" lon="-0.19688">
        <ele>56</ele>
        <time>2022-07-26T10:12:28Z</time>
      </trkpt>
      <trkpt lat="44.61597" lon="-0.19688">
        <ele>56</ele>
        <time>2022-07-26T10:12:29Z</time>
      </trkpt>
      <trkpt lat="44.61597" lon="-0.19688">
        <ele>56</ele>
        <time>2022-07-26T10:12:30Z</time>
      </trkpt>
      <trkpt lat="44.61597" lon="-0.19687">
        <ele>56</ele>
        <time>2022-07-26T10:12:31Z</time>
      </trkpt>
      <trkpt lat="44.61597" lon="-0.19687">
        <ele>56</ele>
        <time>2022-07-26T10:12:32Z</time>
      </trkpt>
      <trkpt lat="44.61597" lon="-0.19687">
        <ele>56</ele>
        <time>2022-07-26T10:12:33Z</time>
      </trkpt>
      <trkpt lat="44.61597" lon="-0.19687">
        <ele>56</ele>
        <time>2022-07-26T10:12:34Z</time>
      </trkpt>
      <trkpt lat="44.61597" lon="-0.19688">
        <ele>56</ele>
        <time>2022-07-26T10:12:35Z</time>
      </trkpt>
      <trkpt lat="44.61597" lon="-0.19687">
        <ele>56</ele>
        <time>2022-07-26T10:12:36Z</time>
      </trkpt>
      <trkpt lat="44.61597" lon="-0.19688">
        <ele>56</ele>
        <time>2022-07-26T10:12:37Z</time>
      </trkpt>
      <trkpt lat="44.61597" lon="-0.19688">
        <ele>56</ele>
        <time>2022-07-26T10:12:38Z</time>
      </trkpt>
      <trkpt lat="44.61597" lon="-0.19688">
        <ele>56</ele>
        <time>2022-07-26T10:12:39Z</time>
      </trkpt>
      <trkpt lat="44.61597" lon="-0.19688">
        <ele>56</ele>
        <time>2022-07-26T10:12:40Z</time>
      </trkpt>
      <trkpt lat="44.61598" lon="-0.19688">
        <ele>56</ele>
        <time>2022-07-26T10:12:41Z</time>
      </trkpt>
      <trkpt lat="44.61598" lon="-0.19688">
        <ele>56</ele>
        <time>2022-07-26T10:12:42Z</time>
      </trkpt>
      <trkpt lat="44.61598" lon="-0.19688">
        <ele>56</ele>
        <time>2022-07-26T10:12:43Z</time>
      </trkpt>
      <trkpt lat="44.61598" lon="-0.19688">
        <ele>56</ele>
        <time>2022-07-26T10:12:44Z</time>
      </trkpt>
      <trkpt lat="44.61598" lon="-0.19688">
        <ele>56</ele>
        <time>2022-07-26T10:12:45Z</time>
      </trkpt>
      <trkpt lat="44.61598" lon="-0.19688">
        <ele>56</ele>
        <time>2022-07-26T10:12:46Z</time>
      </trkpt>
      <trkpt lat="44.61598" lon="-0.19688">
        <ele>56</ele>
        <time>2022-07-26T10:12:47Z</time>
      </trkpt>
      <trkpt lat="44.61598" lon="-0.19688">
        <ele>56</ele>
        <time>2022-07-26T10:12:48Z</time>
      </trkpt>
      <trkpt lat="44.61598" lon="-0.19688">
        <ele>56</ele>
        <time>2022-07-26T10:12:49Z</time>
      </trkpt>
      <trkpt lat="44.61598" lon="-0.19688">
        <ele>56</ele>
        <time>2022-07-26T10:12:50Z</time>
      </trkpt>
      <trkpt lat="44.61598" lon="-0.19688">
        <ele>56</ele>
        <time>2022-07-26T10:12:51Z</time>
      </trkpt>
      <trkpt lat="44.61598" lon="-0.19688">
        <ele>56</ele>
        <time>2022-07-26T10:12:52Z</time>
      </trkpt>
      <trkpt lat="44.61597" lon="-0.19688">
        <ele>56</ele>
        <time>2022-07-26T10:12:53Z</time>
      </trkpt>
      <trkpt lat="44.61597" lon="-0.19688">
        <ele>56</ele>
        <time>2022-07-26T10:12:54Z</time>
      </trkpt>
      <trkpt lat="44.61597" lon="-0.19688">
        <ele>56</ele>
        <time>2022-07-26T10:12:55Z</time>
      </trkpt>
      <trkpt lat="44.61597" lon="-0.19688">
        <ele>56</ele>
        <time>2022-07-26T10:12:56Z</time>
      </trkpt>
      <trkpt lat="44.61598" lon="-0.19687">
        <ele>56</ele>
        <time>2022-07-26T10:12:57Z</time>
      </trkpt>
      <trkpt lat="44.61598" lon="-0.19687">
        <ele>56</ele>
        <time>2022-07-26T10:12:58Z</time>
      </trkpt>
      <trkpt lat="44.61598" lon="-0.19687">
        <ele>56</ele>
        <time>2022-07-26T10:12:59Z</time>
      </trkpt>
      <trkpt lat="44.61598" lon="-0.19687">
        <ele>56</ele>
        <time>2022-07-26T10:13:00Z</time>
      </trkpt>
      <trkpt lat="44.61598" lon="-0.19688">
        <ele>56</ele>
        <time>2022-07-26T10:13:01Z</time>
      </trkpt>
      <trkpt lat="44.61598" lon="-0.19688">
        <ele>56</ele>
        <time>2022-07-26T10:13:02Z</time>
      </trkpt>
      <trkpt lat="44.61598" lon="-0.19688">
        <ele>56.2</ele>
        <time>2022-07-26T10:13:03Z</time>
      </trkpt>
      <trkpt lat="44.61598" lon="-0.19688">
        <ele>56</ele>
        <time>2022-07-26T10:13:04Z</time>
      </trkpt>
      <trkpt lat="44.61598" lon="-0.19688">
        <ele>56</ele>
        <time>2022-07-26T10:13:05Z</time>
      </trkpt>
      <trkpt lat="44.61598" lon="-0.19688">
        <ele>56</ele>
        <time>2022-07-26T10:13:06Z</time>
      </trkpt>
      <trkpt lat="44.61598" lon="-0.19688">
        <ele>56</ele>
        <time>2022-07-26T10:13:07Z</time>
      </trkpt>
      <trkpt lat="44.61598" lon="-0.19688">
        <ele>56</ele>
        <time>2022-07-26T10:13:08Z</time>
      </trkpt>
      <trkpt lat="44.61598" lon="-0.19688">
        <ele>56</ele>
        <time>2022-07-26T10:13:09Z</time>
      </trkpt>
      <trkpt lat="44.61597" lon="-0.19688">
        <ele>56</ele>
        <time>2022-07-26T10:13:10Z</time>
      </trkpt>
      <trkpt lat="44.61597" lon="-0.19688">
        <ele>56</ele>
        <time>2022-07-26T10:13:11Z</time>
      </trkpt>
      <trkpt lat="44.61597" lon="-0.19689">
        <ele>56</ele>
        <time>2022-07-26T10:13:13Z</time>
      </trkpt>
      <trkpt lat="44.61597" lon="-0.19691">
        <ele>56.1</ele>
        <time>2022-07-26T10:13:14Z</time>
      </trkpt>
      <trkpt lat="44.61598" lon="-0.19692">
        <ele>56.1</ele>
        <time>2022-07-26T10:13:15Z</time>
      </trkpt>
      <trkpt lat="44.61598" lon="-0.19694">
        <ele>56.3</ele>
        <time>2022-07-26T10:13:16Z</time>
      </trkpt>
      <trkpt lat="44.616" lon="-0.19694">
        <ele>56.3</ele>
        <time>2022-07-26T10:13:17Z</time>
      </trkpt>
      <trkpt lat="44.61602" lon="-0.19692">
        <ele>56.5</ele>
        <time>2022-07-26T10:13:19Z</time>
      </trkpt>
      <trkpt lat="44.61601" lon="-0.1969">
        <ele>56.5</ele>
        <time>2022-07-26T10:13:20Z</time>
      </trkpt>
      <trkpt lat="44.61602" lon="-0.19689">
        <ele>56.4</ele>
        <time>2022-07-26T10:13:21Z</time>
      </trkpt>
      <trkpt lat="44.61602" lon="-0.19688">
        <ele>56.4</ele>
        <time>2022-07-26T10:13:22Z</time>
      </trkpt>
      <trkpt lat="44.61603" lon="-0.19687">
        <ele>56.4</ele>
        <time>2022-07-26T10:13:23Z</time>
      </trkpt>
      <trkpt lat="44.61604" lon="-0.19687">
        <ele>56.4</ele>
        <time>2022-07-26T10:13:24Z</time>
      </trkpt>
      <trkpt lat="44.61605" lon="-0.19686">
        <ele>56.6</ele>
        <time>2022-07-26T10:13:25Z</time>
      </trkpt>
      <trkpt lat="44.61606" lon="-0.19685">
        <ele>56.6</ele>
        <time>2022-07-26T10:13:26Z</time>
      </trkpt>
      <trkpt lat="44.61607" lon="-0.19684">
        <ele>56.6</ele>
        <time>2022-07-26T10:13:27Z</time>
      </trkpt>
      <trkpt lat="44.61607" lon="-0.19683">
        <ele>56.6</ele>
        <time>2022-07-26T10:13:28Z</time>
      </trkpt>
      <trkpt lat="44.61607" lon="-0.19682">
        <ele>56.9</ele>
        <time>2022-07-26T10:13:29Z</time>
      </trkpt>
      <trkpt lat="44.61607" lon="-0.19681">
        <ele>56.9</ele>
        <time>2022-07-26T10:13:30Z</time>
      </trkpt>
      <trkpt lat="44.61608" lon="-0.1968">
        <ele>56.9</ele>
        <time>2022-07-26T10:13:31Z</time>
      </trkpt>
      <trkpt lat="44.61608" lon="-0.19678">
        <ele>56.9</ele>
        <time>2022-07-26T10:13:32Z</time>
      </trkpt>
      <trkpt lat="44.61608" lon="-0.19677">
        <ele>56.9</ele>
        <time>2022-07-26T10:13:34Z</time>
      </trkpt>
      <trkpt lat="44.61609" lon="-0.19675">
        <ele>56.9</ele>
        <time>2022-07-26T10:13:35Z</time>
      </trkpt>
      <trkpt lat="44.61609" lon="-0.19674">
        <ele>56.9</ele>
        <time>2022-07-26T10:13:36Z</time>
      </trkpt>
      <trkpt lat="44.61609" lon="-0.19673">
        <ele>56.9</ele>
        <time>2022-07-26T10:13:37Z</time>
      </trkpt>
      <trkpt lat="44.61609" lon="-0.19671">
        <ele>56.9</ele>
        <time>2022-07-26T10:13:38Z</time>
      </trkpt>
      <trkpt lat="44.61609" lon="-0.1967">
        <ele>56.9</ele>
        <time>2022-07-26T10:13:39Z</time>
      </trkpt>
      <trkpt lat="44.61609" lon="-0.1967">
        <ele>56.9</ele>
        <time>2022-07-26T10:13:40Z</time>
      </trkpt>
      <trkpt lat="44.6161" lon="-0.19668">
        <ele>57.4</ele>
        <time>2022-07-26T10:13:42Z</time>
      </trkpt>
      <trkpt lat="44.61611" lon="-0.19667">
        <ele>57.4</ele>
        <time>2022-07-26T10:13:43Z</time>
      </trkpt>
      <trkpt lat="44.61612" lon="-0.19667">
        <ele>57.4</ele>
        <time>2022-07-26T10:13:44Z</time>
      </trkpt>
      <trkpt lat="44.61613" lon="-0.19666">
        <ele>57.4</ele>
        <time>2022-07-26T10:13:46Z</time>
      </trkpt>
      <trkpt lat="44.61614" lon="-0.19665">
        <ele>57.9</ele>
        <time>2022-07-26T10:13:47Z</time>
      </trkpt>
      <trkpt lat="44.61614" lon="-0.19665">
        <ele>57.9</ele>
        <time>2022-07-26T10:13:48Z</time>
      </trkpt>
      <trkpt lat="44.61614" lon="-0.19665">
        <ele>57.9</ele>
        <time>2022-07-26T10:13:49Z</time>
      </trkpt>
      <trkpt lat="44.61614" lon="-0.19665">
        <ele>57.9</ele>
        <time>2022-07-26T10:13:50Z</time>
      </trkpt>
      <trkpt lat="44.61613" lon="-0.19664">
        <ele>57.9</ele>
        <time>2022-07-26T10:13:52Z</time>
      </trkpt>
      <trkpt lat="44.61613" lon="-0.19664">
        <ele>57.4</ele>
        <time>2022-07-26T10:13:53Z</time>
      </trkpt>
      <trkpt lat="44.61613" lon="-0.19664">
        <ele>57.4</ele>
        <time>2022-07-26T10:13:54Z</time>
      </trkpt>
      <trkpt lat="44.61613" lon="-0.19664">
        <ele>57.4</ele>
        <time>2022-07-26T10:13:55Z</time>
      </trkpt>
      <trkpt lat="44.61612" lon="-0.19664">
        <ele>57.4</ele>
        <time>2022-07-26T10:13:56Z</time>
      </trkpt>
      <trkpt lat="44.61612" lon="-0.19664">
        <ele>57.4</ele>
        <time>2022-07-26T10:13:58Z</time>
      </trkpt>
      <trkpt lat="44.61611" lon="-0.19664">
        <ele>57.4</ele>
        <time>2022-07-26T10:13:59Z</time>
      </trkpt>
      <trkpt lat="44.61611" lon="-0.19664">
        <ele>57.4</ele>
        <time>2022-07-26T10:14:01Z</time>
      </trkpt>
      <trkpt lat="44.61611" lon="-0.19664">
        <ele>57.4</ele>
        <time>2022-07-26T10:14:02Z</time>
      </trkpt>
      <trkpt lat="44.6161" lon="-0.19664">
        <ele>56.9</ele>
        <time>2022-07-26T10:14:03Z</time>
      </trkpt>
      <trkpt lat="44.61609" lon="-0.19664">
        <ele>56.9</ele>
        <time>2022-07-26T10:14:04Z</time>
      </trkpt>
      <trkpt lat="44.61608" lon="-0.19664">
        <ele>56.9</ele>
        <time>2022-07-26T10:14:05Z</time>
      </trkpt>
      <trkpt lat="44.61608" lon="-0.19665">
        <ele>56.9</ele>
        <time>2022-07-26T10:14:06Z</time>
      </trkpt>
      <trkpt lat="44.61608" lon="-0.19665">
        <ele>56.9</ele>
        <time>2022-07-26T10:14:07Z</time>
      </trkpt>
      <trkpt lat="44.61608" lon="-0.19665">
        <ele>56.9</ele>
        <time>2022-07-26T10:14:08Z</time>
      </trkpt>
      <trkpt lat="44.61608" lon="-0.19665">
        <ele>56.9</ele>
        <time>2022-07-26T10:14:09Z</time>
      </trkpt>
      <trkpt lat="44.61607" lon="-0.19665">
        <ele>56.9</ele>
        <time>2022-07-26T10:14:10Z</time>
      </trkpt>
      <trkpt lat="44.61607" lon="-0.19665">
        <ele>56.9</ele>
        <time>2022-07-26T10:14:11Z</time>
      </trkpt>
      <trkpt lat="44.61607" lon="-0.19665">
        <ele>56.9</ele>
        <time>2022-07-26T10:14:12Z</time>
      </trkpt>
      <trkpt lat="44.61607" lon="-0.19665">
        <ele>56.9</ele>
        <time>2022-07-26T10:14:13Z</time>
      </trkpt>
      <trkpt lat="44.61607" lon="-0.19665">
        <ele>56.9</ele>
        <time>2022-07-26T10:14:14Z</time>
      </trkpt>
      <trkpt lat="44.61607" lon="-0.19665">
        <ele>56.5</ele>
        <time>2022-07-26T10:14:15Z</time>
      </trkpt>
      <trkpt lat="44.61607" lon="-0.19665">
        <ele>56.5</ele>
        <time>2022-07-26T10:14:16Z</time>
      </trkpt>
      <trkpt lat="44.61607" lon="-0.19666">
        <ele>56.5</ele>
        <time>2022-07-26T10:14:17Z</time>
      </trkpt>
      <trkpt lat="44.61607" lon="-0.19666">
        <ele>56.5</ele>
        <time>2022-07-26T10:14:18Z</time>
      </trkpt>
      <trkpt lat="44.61607" lon="-0.19666">
        <ele>56.5</ele>
        <time>2022-07-26T10:14:19Z</time>
      </trkpt>
      <trkpt lat="44.61607" lon="-0.19666">
        <ele>56.5</ele>
        <time>2022-07-26T10:14:20Z</time>
      </trkpt>
      <trkpt lat="44.61607" lon="-0.19666">
        <ele>56.5</ele>
        <time>2022-07-26T10:14:21Z</time>
      </trkpt>
      <trkpt lat="44.61607" lon="-0.19666">
        <ele>56.5</ele>
        <time>2022-07-26T10:14:22Z</time>
      </trkpt>
      <trkpt lat="44.61607" lon="-0.19666">
        <ele>56.5</ele>
        <time>2022-07-26T10:14:23Z</time>
      </trkpt>
      <trkpt lat="44.61607" lon="-0.19666">
        <ele>56.5</ele>
        <time>2022-07-26T10:14:24Z</time>
      </trkpt>
      <trkpt lat="44.61607" lon="-0.19666">
        <ele>56.5</ele>
        <time>2022-07-26T10:14:25Z</time>
      </trkpt>
      <trkpt lat="44.61607" lon="-0.19667">
        <ele>56.9</ele>
        <time>2022-07-26T10:14:26Z</time>
      </trkpt>
      <trkpt lat="44.61608" lon="-0.19668">
        <ele>56.9</ele>
        <time>2022-07-26T10:14:27Z</time>
      </trkpt>
      <trkpt lat="44.61608" lon="-0.19668">
        <ele>56.9</ele>
        <time>2022-07-26T10:14:28Z</time>
      </trkpt>
      <trkpt lat="44.61607" lon="-0.19668">
        <ele>56.9</ele>
        <time>2022-07-26T10:14:29Z</time>
      </trkpt>
      <trkpt lat="44.61608" lon="-0.19668">
        <ele>56.9</ele>
        <time>2022-07-26T10:14:31Z</time>
      </trkpt>
      <trkpt lat="44.6161" lon="-0.19667">
        <ele>56.9</ele>
        <time>2022-07-26T10:14:32Z</time>
      </trkpt>
      <trkpt lat="44.61612" lon="-0.19666">
        <ele>57.4</ele>
        <time>2022-07-26T10:14:33Z</time>
      </trkpt>
      <trkpt lat="44.61613" lon="-0.19666">
        <ele>57.4</ele>
        <time>2022-07-26T10:14:34Z</time>
      </trkpt>
      <trkpt lat="44.61613" lon="-0.19665">
        <ele>57.9</ele>
        <time>2022-07-26T10:14:35Z</time>
      </trkpt>
      <trkpt lat="44.61615" lon="-0.19664">
        <ele>57.9</ele>
        <time>2022-07-26T10:14:36Z</time>
      </trkpt>
      <trkpt lat="44.61616" lon="-0.19664">
        <ele>57.9</ele>
        <time>2022-07-26T10:14:37Z</time>
      </trkpt>
      <trkpt lat="44.61616" lon="-0.19664">
        <ele>57.9</ele>
        <time>2022-07-26T10:14:38Z</time>
      </trkpt>
      <trkpt lat="44.61616" lon="-0.19664">
        <ele>57.9</ele>
        <time>2022-07-26T10:14:39Z</time>
      </trkpt>
      <trkpt lat="44.61616" lon="-0.19664">
        <ele>57.9</ele>
        <time>2022-07-26T10:14:40Z</time>
      </trkpt>
      <trkpt lat="44.61616" lon="-0.19664">
        <ele>57.9</ele>
        <time>2022-07-26T10:14:41Z</time>
      </trkpt>
      <trkpt lat="44.61616" lon="-0.19664">
        <ele>57.9</ele>
        <time>2022-07-26T10:14:42Z</time>
      </trkpt>
      <trkpt lat="44.61616" lon="-0.19664">
        <ele>57.9</ele>
        <time>2022-07-26T10:14:43Z</time>
      </trkpt>
      <trkpt lat="44.61616" lon="-0.19664">
        <ele>57.9</ele>
        <time>2022-07-26T10:14:44Z</time>
      </trkpt>
      <trkpt lat="44.61616" lon="-0.19664">
        <ele>57.9</ele>
        <time>2022-07-26T10:14:46Z</time>
      </trkpt>
      <trkpt lat="44.61616" lon="-0.19664">
        <ele>57.9</ele>
        <time>2022-07-26T10:14:47Z</time>
      </trkpt>
      <trkpt lat="44.61616" lon="-0.19664">
        <ele>57.9</ele>
        <time>2022-07-26T10:14:48Z</time>
      </trkpt>
      <trkpt lat="44.61616" lon="-0.19664">
        <ele>57.9</ele>
        <time>2022-07-26T10:14:49Z</time>
      </trkpt>
      <trkpt lat="44.61616" lon="-0.19664">
        <ele>57.9</ele>
        <time>2022-07-26T10:14:50Z</time>
      </trkpt>
      <trkpt lat="44.61616" lon="-0.19664">
        <ele>57.9</ele>
        <time>2022-07-26T10:14:51Z</time>
      </trkpt>
      <trkpt lat="44.61616" lon="-0.19664">
        <ele>57.9</ele>
        <time>2022-07-26T10:14:52Z</time>
      </trkpt>
      <trkpt lat="44.61616" lon="-0.19664">
        <ele>57.9</ele>
        <time>2022-07-26T10:14:53Z</time>
      </trkpt>
      <trkpt lat="44.61616" lon="-0.19663">
        <ele>57.9</ele>
        <time>2022-07-26T10:14:54Z</time>
      </trkpt>
      <trkpt lat="44.61616" lon="-0.19663">
        <ele>57.9</ele>
        <time>2022-07-26T10:14:55Z</time>
      </trkpt>
      <trkpt lat="44.61616" lon="-0.19663">
        <ele>57.9</ele>
        <time>2022-07-26T10:14:56Z</time>
      </trkpt>
      <trkpt lat="44.61616" lon="-0.19663">
        <ele>58.4</ele>
        <time>2022-07-26T10:14:57Z</time>
      </trkpt>
      <trkpt lat="44.61617" lon="-0.19663">
        <ele>58.4</ele>
        <time>2022-07-26T10:14:58Z</time>
      </trkpt>
      <trkpt lat="44.61617" lon="-0.19663">
        <ele>58.4</ele>
        <time>2022-07-26T10:14:59Z</time>
      </trkpt>
      <trkpt lat="44.61617" lon="-0.19663">
        <ele>58.4</ele>
        <time>2022-07-26T10:15:00Z</time>
      </trkpt>
      <trkpt lat="44.61617" lon="-0.19662">
        <ele>58.4</ele>
        <time>2022-07-26T10:15:01Z</time>
      </trkpt>
      <trkpt lat="44.61617" lon="-0.19662">
        <ele>58.4</ele>
        <time>2022-07-26T10:15:02Z</time>
      </trkpt>
      <trkpt lat="44.61617" lon="-0.19661">
        <ele>58.4</ele>
        <time>2022-07-26T10:15:03Z</time>
      </trkpt>
      <trkpt lat="44.61617" lon="-0.19661">
        <ele>58.4</ele>
        <time>2022-07-26T10:15:04Z</time>
      </trkpt>
      <trkpt lat="44.61617" lon="-0.19661">
        <ele>58.4</ele>
        <time>2022-07-26T10:15:05Z</time>
      </trkpt>
      <trkpt lat="44.61617" lon="-0.19661">
        <ele>58.4</ele>
        <time>2022-07-26T10:15:06Z</time>
      </trkpt>
      <trkpt lat="44.61617" lon="-0.19661">
        <ele>58.4</ele>
        <time>2022-07-26T10:15:07Z</time>
      </trkpt>
      <trkpt lat="44.61617" lon="-0.19661">
        <ele>58.4</ele>
        <time>2022-07-26T10:15:08Z</time>
      </trkpt>
      <trkpt lat="44.61617" lon="-0.19661">
        <ele>58.4</ele>
        <time>2022-07-26T10:15:09Z</time>
      </trkpt>
      <trkpt lat="44.61617" lon="-0.19661">
        <ele>58.4</ele>
        <time>2022-07-26T10:15:10Z</time>
      </trkpt>
      <trkpt lat="44.61617" lon="-0.19661">
        <ele>58.4</ele>
        <time>2022-07-26T10:15:11Z</time>
      </trkpt>
      <trkpt lat="44.61617" lon="-0.19661">
        <ele>58.4</ele>
        <time>2022-07-26T10:15:12Z</time>
      </trkpt>
      <trkpt lat="44.61617" lon="-0.19661">
        <ele>58.4</ele>
        <time>2022-07-26T10:15:13Z</time>
      </trkpt>
      <trkpt lat="44.61617" lon="-0.19661">
        <ele>58.4</ele>
        <time>2022-07-26T10:15:14Z</time>
      </trkpt>
      <trkpt lat="44.61617" lon="-0.19661">
        <ele>58.4</ele>
        <time>2022-07-26T10:15:15Z</time>
      </trkpt>
      <trkpt lat="44.61617" lon="-0.19661">
        <ele>58.4</ele>
        <time>2022-07-26T10:15:16Z</time>
      </trkpt>
      <trkpt lat="44.61617" lon="-0.19661">
        <ele>58.4</ele>
        <time>2022-07-26T10:15:17Z</time>
      </trkpt>
      <trkpt lat="44.61617" lon="-0.19661">
        <ele>58.4</ele>
        <time>2022-07-26T10:15:18Z</time>
      </trkpt>
      <trkpt lat="44.61617" lon="-0.19661">
        <ele>58.4</ele>
        <time>2022-07-26T10:15:19Z</time>
      </trkpt>
      <trkpt lat="44.61617" lon="-0.19661">
        <ele>58.4</ele>
        <time>2022-07-26T10:15:20Z</time>
      </trkpt>
      <trkpt lat="44.61618" lon="-0.19662">
        <ele>58.4</ele>
        <time>2022-07-26T10:15:21Z</time>
      </trkpt>
      <trkpt lat="44.61618" lon="-0.19662">
        <ele>58.4</ele>
        <time>2022-07-26T10:15:22Z</time>
      </trkpt>
      <trkpt lat="44.61618" lon="-0.19662">
        <ele>58.4</ele>
        <time>2022-07-26T10:15:23Z</time>
      </trkpt>
      <trkpt lat="44.61618" lon="-0.19662">
        <ele>58.4</ele>
        <time>2022-07-26T10:15:24Z</time>
      </trkpt>
      <trkpt lat="44.61618" lon="-0.19662">
        <ele>58.4</ele>
        <time>2022-07-26T10:15:25Z</time>
      </trkpt>
      <trkpt lat="44.61618" lon="-0.19662">
        <ele>58.4</ele>
        <time>2022-07-26T10:15:26Z</time>
      </trkpt>
      <trkpt lat="44.61618" lon="-0.19662">
        <ele>58.4</ele>
        <time>2022-07-26T10:15:27Z</time>
      </trkpt>
      <trkpt lat="44.61618" lon="-0.19662">
        <ele>58.4</ele>
        <time>2022-07-26T10:15:28Z</time>
      </trkpt>
      <trkpt lat="44.61618" lon="-0.19662">
        <ele>58.4</ele>
        <time>2022-07-26T10:15:29Z</time>
      </trkpt>
      <trkpt lat="44.61618" lon="-0.19662">
        <ele>58.4</ele>
        <time>2022-07-26T10:15:30Z</time>
      </trkpt>
      <trkpt lat="44.61618" lon="-0.19662">
        <ele>58.4</ele>
        <time>2022-07-26T10:15:31Z</time>
      </trkpt>
      <trkpt lat="44.61618" lon="-0.19662">
        <ele>58.4</ele>
        <time>2022-07-26T10:15:32Z</time>
      </trkpt>
      <trkpt lat="44.61618" lon="-0.19662">
        <ele>58.4</ele>
        <time>2022-07-26T10:15:33Z</time>
      </trkpt>
      <trkpt lat="44.61618" lon="-0.19662">
        <ele>58.4</ele>
        <time>2022-07-26T10:15:34Z</time>
      </trkpt>
      <trkpt lat="44.61618" lon="-0.19662">
        <ele>58.4</ele>
        <time>2022-07-26T10:15:35Z</time>
      </trkpt>
      <trkpt lat="44.61618" lon="-0.19662">
        <ele>58.4</ele>
        <time>2022-07-26T10:15:36Z</time>
      </trkpt>
      <trkpt lat="44.61618" lon="-0.19662">
        <ele>58.4</ele>
        <time>2022-07-26T10:15:37Z</time>
      </trkpt>
      <trkpt lat="44.61619" lon="-0.19661">
        <ele>58.4</ele>
        <time>2022-07-26T10:15:38Z</time>
      </trkpt>
      <trkpt lat="44.61619" lon="-0.19661">
        <ele>58.4</ele>
        <time>2022-07-26T10:15:39Z</time>
      </trkpt>
      <trkpt lat="44.61619" lon="-0.19661">
        <ele>58.4</ele>
        <time>2022-07-26T10:15:40Z</time>
      </trkpt>
      <trkpt lat="44.61619" lon="-0.19661">
        <ele>58.4</ele>
        <time>2022-07-26T10:15:41Z</time>
      </trkpt>
      <trkpt lat="44.61619" lon="-0.19661">
        <ele>58.4</ele>
        <time>2022-07-26T10:15:42Z</time>
      </trkpt>
      <trkpt lat="44.61619" lon="-0.19661">
        <ele>58.4</ele>
        <time>2022-07-26T10:15:43Z</time>
      </trkpt>
      <trkpt lat="44.61619" lon="-0.19661">
        <ele>58.4</ele>
        <time>2022-07-26T10:15:44Z</time>
      </trkpt>
      <trkpt lat="44.61619" lon="-0.19661">
        <ele>58.4</ele>
        <time>2022-07-26T10:15:45Z</time>
      </trkpt>
      <trkpt lat="44.61619" lon="-0.19661">
        <ele>58.4</ele>
        <time>2022-07-26T10:15:46Z</time>
      </trkpt>
      <trkpt lat="44.61619" lon="-0.19661">
        <ele>58.4</ele>
        <time>2022-07-26T10:15:47Z</time>
      </trkpt>
      <trkpt lat="44.6162" lon="-0.19662">
        <ele>59</ele>
        <time>2022-07-26T10:15:49Z</time>
      </trkpt>
      <trkpt lat="44.6162" lon="-0.19662">
        <ele>59</ele>
        <time>2022-07-26T10:15:50Z</time>
      </trkpt>
      <trkpt lat="44.61621" lon="-0.19662">
        <ele>59</ele>
        <time>2022-07-26T10:15:51Z</time>
      </trkpt>
      <trkpt lat="44.61622" lon="-0.19661">
        <ele>59</ele>
        <time>2022-07-26T10:15:52Z</time>
      </trkpt>
      <trkpt lat="44.61623" lon="-0.19661">
        <ele>59.4</ele>
        <time>2022-07-26T10:15:53Z</time>
      </trkpt>
      <trkpt lat="44.61625" lon="-0.1966">
        <ele>59.4</ele>
        <time>2022-07-26T10:15:54Z</time>
      </trkpt>
      <trkpt lat="44.61626" lon="-0.1966">
        <ele>60</ele>
        <time>2022-07-26T10:15:55Z</time>
      </trkpt>
      <trkpt lat="44.61628" lon="-0.19659">
        <ele>60</ele>
        <time>2022-07-26T10:15:56Z</time>
      </trkpt>
      <trkpt lat="44.61629" lon="-0.19659">
        <ele>60.5</ele>
        <time>2022-07-26T10:15:58Z</time>
      </trkpt>
      <trkpt lat="44.6163" lon="-0.19659">
        <ele>60.5</ele>
        <time>2022-07-26T10:15:59Z</time>
      </trkpt>
      <trkpt lat="44.61632" lon="-0.19659">
        <ele>61</ele>
        <time>2022-07-26T10:16:00Z</time>
      </trkpt>
      <trkpt lat="44.61633" lon="-0.19659">
        <ele>61</ele>
        <time>2022-07-26T10:16:01Z</time>
      </trkpt>
      <trkpt lat="44.61635" lon="-0.19659">
        <ele>61.5</ele>
        <time>2022-07-26T10:16:02Z</time>
      </trkpt>
      <trkpt lat="44.61636" lon="-0.19659">
        <ele>61.5</ele>
        <time>2022-07-26T10:16:03Z</time>
      </trkpt>
      <trkpt lat="44.61638" lon="-0.19659">
        <ele>62</ele>
        <time>2022-07-26T10:16:04Z</time>
      </trkpt>
      <trkpt lat="44.61639" lon="-0.1966">
        <ele>62</ele>
        <time>2022-07-26T10:16:06Z</time>
      </trkpt>
      <trkpt lat="44.6164" lon="-0.1966">
        <ele>62</ele>
        <time>2022-07-26T10:16:07Z</time>
      </trkpt>
      <trkpt lat="44.61641" lon="-0.1966">
        <ele>62.5</ele>
        <time>2022-07-26T10:16:09Z</time>
      </trkpt>
      <trkpt lat="44.61642" lon="-0.1966">
        <ele>62.5</ele>
        <time>2022-07-26T10:16:10Z</time>
      </trkpt>
      <trkpt lat="44.61643" lon="-0.1966">
        <ele>62.5</ele>
        <time>2022-07-26T10:16:11Z</time>
      </trkpt>
      <trkpt lat="44.61646" lon="-0.19659">
        <ele>62.9</ele>
        <time>2022-07-26T10:16:12Z</time>
      </trkpt>
      <trkpt lat="44.61647" lon="-0.19659">
        <ele>62.9</ele>
        <time>2022-07-26T10:16:13Z</time>
      </trkpt>
      <trkpt lat="44.61647" lon="-0.19659">
        <ele>63.3</ele>
        <time>2022-07-26T10:16:14Z</time>
      </trkpt>
      <trkpt lat="44.61649" lon="-0.1966">
        <ele>63.3</ele>
        <time>2022-07-26T10:16:15Z</time>
      </trkpt>
      <trkpt lat="44.61651" lon="-0.1966">
        <ele>63.4</ele>
        <time>2022-07-26T10:16:16Z</time>
      </trkpt>
      <trkpt lat="44.61652" lon="-0.19661">
        <ele>63.4</ele>
        <time>2022-07-26T10:16:17Z</time>
      </trkpt>
      <trkpt lat="44.61654" lon="-0.19662">
        <ele>63.8</ele>
        <time>2022-07-26T10:16:18Z</time>
      </trkpt>
      <trkpt lat="44.61656" lon="-0.19663">
        <ele>63.8</ele>
        <time>2022-07-26T10:16:19Z</time>
      </trkpt>
      <trkpt lat="44.61658" lon="-0.19664">
        <ele>63.9</ele>
        <time>2022-07-26T10:16:21Z</time>
      </trkpt>
      <trkpt lat="44.61659" lon="-0.19665">
        <ele>63.9</ele>
        <time>2022-07-26T10:16:22Z</time>
      </trkpt>
      <trkpt lat="44.6166" lon="-0.19666">
        <ele>64.3</ele>
        <time>2022-07-26T10:16:23Z</time>
      </trkpt>
      <trkpt lat="44.61661" lon="-0.19667">
        <ele>64.3</ele>
        <time>2022-07-26T10:16:24Z</time>
      </trkpt>
      <trkpt lat="44.61664" lon="-0.19668">
        <ele>64.4</ele>
        <time>2022-07-26T10:16:26Z</time>
      </trkpt>
      <trkpt lat="44.61665" lon="-0.19669">
        <ele>64.4</ele>
        <time>2022-07-26T10:16:27Z</time>
      </trkpt>
      <trkpt lat="44.61666" lon="-0.1967">
        <ele>64.8</ele>
        <time>2022-07-26T10:16:28Z</time>
      </trkpt>
      <trkpt lat="44.61667" lon="-0.19671">
        <ele>64.8</ele>
        <time>2022-07-26T10:16:29Z</time>
      </trkpt>
      <trkpt lat="44.61668" lon="-0.19672">
        <ele>65.1</ele>
        <time>2022-07-26T10:16:30Z</time>
      </trkpt>
      <trkpt lat="44.61669" lon="-0.19673">
        <ele>64.9</ele>
        <time>2022-07-26T10:16:31Z</time>
      </trkpt>
      <trkpt lat="44.6167" lon="-0.19675">
        <ele>64.9</ele>
        <time>2022-07-26T10:16:32Z</time>
      </trkpt>
      <trkpt lat="44.61672" lon="-0.19677">
        <ele>64.9</ele>
        <time>2022-07-26T10:16:34Z</time>
      </trkpt>
      <trkpt lat="44.61672" lon="-0.19679">
        <ele>64.9</ele>
        <time>2022-07-26T10:16:35Z</time>
      </trkpt>
      <trkpt lat="44.61673" lon="-0.1968">
        <ele>64.9</ele>
        <time>2022-07-26T10:16:36Z</time>
      </trkpt>
      <trkpt lat="44.61673" lon="-0.19681">
        <ele>64.7</ele>
        <time>2022-07-26T10:16:37Z</time>
      </trkpt>
      <trkpt lat="44.61674" lon="-0.19683">
        <ele>64.7</ele>
        <time>2022-07-26T10:16:38Z</time>
      </trkpt>
      <trkpt lat="44.61675" lon="-0.19685">
        <ele>65</ele>
        <time>2022-07-26T10:16:39Z</time>
      </trkpt>
      <trkpt lat="44.61676" lon="-0.19687">
        <ele>64.7</ele>
        <time>2022-07-26T10:16:40Z</time>
      </trkpt>
      <trkpt lat="44.61677" lon="-0.19688">
        <ele>64.7</ele>
        <time>2022-07-26T10:16:41Z</time>
      </trkpt>
      <trkpt lat="44.61678" lon="-0.19691">
        <ele>64.7</ele>
        <time>2022-07-26T10:16:42Z</time>
      </trkpt>
      <trkpt lat="44.61678" lon="-0.19692">
        <ele>64.7</ele>
        <time>2022-07-26T10:16:44Z</time>
      </trkpt>
      <trkpt lat="44.61678" lon="-0.19694">
        <ele>64.5</ele>
        <time>2022-07-26T10:16:45Z</time>
      </trkpt>
      <trkpt lat="44.61679" lon="-0.19695">
        <ele>64.5</ele>
        <time>2022-07-26T10:16:46Z</time>
      </trkpt>
      <trkpt lat="44.61679" lon="-0.19697">
        <ele>64.5</ele>
        <time>2022-07-26T10:16:47Z</time>
      </trkpt>
      <trkpt lat="44.61679" lon="-0.19698">
        <ele>64.3</ele>
        <time>2022-07-26T10:16:48Z</time>
      </trkpt>
      <trkpt lat="44.61679" lon="-0.197">
        <ele>64.3</ele>
        <time>2022-07-26T10:16:49Z</time>
      </trkpt>
      <trkpt lat="44.61679" lon="-0.19702">
        <ele>64.3</ele>
        <time>2022-07-26T10:16:50Z</time>
      </trkpt>
      <trkpt lat="44.61679" lon="-0.19703">
        <ele>64</ele>
        <time>2022-07-26T10:16:51Z</time>
      </trkpt>
      <trkpt lat="44.61679" lon="-0.19705">
        <ele>64</ele>
        <time>2022-07-26T10:16:52Z</time>
      </trkpt>
      <trkpt lat="44.61678" lon="-0.19709">
        <ele>63.8</ele>
        <time>2022-07-26T10:16:54Z</time>
      </trkpt>
      <trkpt lat="44.61677" lon="-0.19711">
        <ele>63.5</ele>
        <time>2022-07-26T10:16:55Z</time>
      </trkpt>
      <trkpt lat="44.61677" lon="-0.19713">
        <ele>63.3</ele>
        <time>2022-07-26T10:16:56Z</time>
      </trkpt>
      <trkpt lat="44.61676" lon="-0.19714">
        <ele>63.3</ele>
        <time>2022-07-26T10:16:57Z</time>
      </trkpt>
      <trkpt lat="44.61676" lon="-0.19716">
        <ele>63.1</ele>
        <time>2022-07-26T10:16:58Z</time>
      </trkpt>
      <trkpt lat="44.61675" lon="-0.19718">
        <ele>63.1</ele>
        <time>2022-07-26T10:16:59Z</time>
      </trkpt>
      <trkpt lat="44.61675" lon="-0.1972">
        <ele>62.8</ele>
        <time>2022-07-26T10:17:00Z</time>
      </trkpt>
      <trkpt lat="44.61675" lon="-0.19722">
        <ele>62.8</ele>
        <time>2022-07-26T10:17:02Z</time>
      </trkpt>
      <trkpt lat="44.61676" lon="-0.19725">
        <ele>62.6</ele>
        <time>2022-07-26T10:17:03Z</time>
      </trkpt>
      <trkpt lat="44.61676" lon="-0.19726">
        <ele>62.6</ele>
        <time>2022-07-26T10:17:04Z</time>
      </trkpt>
      <trkpt lat="44.61677" lon="-0.19729">
        <ele>62.3</ele>
        <time>2022-07-26T10:17:05Z</time>
      </trkpt>
      <trkpt lat="44.61678" lon="-0.19729">
        <ele>62.5</ele>
        <time>2022-07-26T10:17:06Z</time>
      </trkpt>
      <trkpt lat="44.61678" lon="-0.1973">
        <ele>62.5</ele>
        <time>2022-07-26T10:17:07Z</time>
      </trkpt>
      <trkpt lat="44.61679" lon="-0.19732">
        <ele>62.5</ele>
        <time>2022-07-26T10:17:08Z</time>
      </trkpt>
      <trkpt lat="44.61679" lon="-0.19733">
        <ele>62.3</ele>
        <time>2022-07-26T10:17:09Z</time>
      </trkpt>
      <trkpt lat="44.6168" lon="-0.19734">
        <ele>62.3</ele>
        <time>2022-07-26T10:17:10Z</time>
      </trkpt>
      <trkpt lat="44.61681" lon="-0.19735">
        <ele>62.6</ele>
        <time>2022-07-26T10:17:11Z</time>
      </trkpt>
      <trkpt lat="44.61682" lon="-0.19736">
        <ele>62.6</ele>
        <time>2022-07-26T10:17:12Z</time>
      </trkpt>
      <trkpt lat="44.61683" lon="-0.19737">
        <ele>62.4</ele>
        <time>2022-07-26T10:17:13Z</time>
      </trkpt>
      <trkpt lat="44.61684" lon="-0.19738">
        <ele>62.6</ele>
        <time>2022-07-26T10:17:14Z</time>
      </trkpt>
      <trkpt lat="44.61686" lon="-0.19739">
        <ele>62.6</ele>
        <time>2022-07-26T10:17:16Z</time>
      </trkpt>
      <trkpt lat="44.61687" lon="-0.1974">
        <ele>62.9</ele>
        <time>2022-07-26T10:17:18Z</time>
      </trkpt>
      <trkpt lat="44.61688" lon="-0.1974">
        <ele>62.9</ele>
        <time>2022-07-26T10:17:19Z</time>
      </trkpt>
      <trkpt lat="44.61689" lon="-0.19741">
        <ele>62.9</ele>
        <time>2022-07-26T10:17:20Z</time>
      </trkpt>
      <trkpt lat="44.6169" lon="-0.19741">
        <ele>63</ele>
        <time>2022-07-26T10:17:21Z</time>
      </trkpt>
      <trkpt lat="44.6169" lon="-0.19742">
        <ele>63</ele>
        <time>2022-07-26T10:17:22Z</time>
      </trkpt>
      <trkpt lat="44.6169" lon="-0.19742">
        <ele>63</ele>
        <time>2022-07-26T10:17:23Z</time>
      </trkpt>
      <trkpt lat="44.6169" lon="-0.19742">
        <ele>63</ele>
        <time>2022-07-26T10:17:24Z</time>
      </trkpt>
      <trkpt lat="44.6169" lon="-0.19742">
        <ele>63</ele>
        <time>2022-07-26T10:17:25Z</time>
      </trkpt>
      <trkpt lat="44.6169" lon="-0.19742">
        <ele>62.7</ele>
        <time>2022-07-26T10:17:26Z</time>
      </trkpt>
      <trkpt lat="44.61689" lon="-0.19741">
        <ele>62.7</ele>
        <time>2022-07-26T10:17:27Z</time>
      </trkpt>
      <trkpt lat="44.61689" lon="-0.19741">
        <ele>62.9</ele>
        <time>2022-07-26T10:17:28Z</time>
      </trkpt>
      <trkpt lat="44.61689" lon="-0.1974">
        <ele>62.9</ele>
        <time>2022-07-26T10:17:29Z</time>
      </trkpt>
      <trkpt lat="44.61688" lon="-0.1974">
        <ele>62.9</ele>
        <time>2022-07-26T10:17:30Z</time>
      </trkpt>
      <trkpt lat="44.61688" lon="-0.1974">
        <ele>62.9</ele>
        <time>2022-07-26T10:17:32Z</time>
      </trkpt>
      <trkpt lat="44.61688" lon="-0.1974">
        <ele>62.9</ele>
        <time>2022-07-26T10:17:33Z</time>
      </trkpt>
      <trkpt lat="44.61689" lon="-0.19739">
        <ele>62.9</ele>
        <time>2022-07-26T10:17:34Z</time>
      </trkpt>
      <trkpt lat="44.61689" lon="-0.19738">
        <ele>62.9</ele>
        <time>2022-07-26T10:17:35Z</time>
      </trkpt>
      <trkpt lat="44.61689" lon="-0.19736">
        <ele>63</ele>
        <time>2022-07-26T10:17:36Z</time>
      </trkpt>
      <trkpt lat="44.6169" lon="-0.19734">
        <ele>63.3</ele>
        <time>2022-07-26T10:17:37Z</time>
      </trkpt>
      <trkpt lat="44.61691" lon="-0.19733">
        <ele>63.3</ele>
        <time>2022-07-26T10:17:38Z</time>
      </trkpt>
      <trkpt lat="44.61691" lon="-0.19731">
        <ele>63.5</ele>
        <time>2022-07-26T10:17:39Z</time>
      </trkpt>
      <trkpt lat="44.61692" lon="-0.19726">
        <ele>63.7</ele>
        <time>2022-07-26T10:17:40Z</time>
      </trkpt>
      <trkpt lat="44.61692" lon="-0.19725">
        <ele>63.7</ele>
        <time>2022-07-26T10:17:41Z</time>
      </trkpt>
      <trkpt lat="44.61693" lon="-0.19723">
        <ele>64.2</ele>
        <time>2022-07-26T10:17:42Z</time>
      </trkpt>
      <trkpt lat="44.61694" lon="-0.1972">
        <ele>64.5</ele>
        <time>2022-07-26T10:17:44Z</time>
      </trkpt>
      <trkpt lat="44.61695" lon="-0.19717">
        <ele>64.5</ele>
        <time>2022-07-26T10:17:45Z</time>
      </trkpt>
      <trkpt lat="44.61695" lon="-0.19715">
        <ele>64.5</ele>
        <time>2022-07-26T10:17:46Z</time>
      </trkpt>
      <trkpt lat="44.61696" lon="-0.19713">
        <ele>64.9</ele>
        <time>2022-07-26T10:17:47Z</time>
      </trkpt>
      <trkpt lat="44.61697" lon="-0.19711">
        <ele>64.9</ele>
        <time>2022-07-26T10:17:48Z</time>
      </trkpt>
      <trkpt lat="44.61699" lon="-0.19708">
        <ele>65.4</ele>
        <time>2022-07-26T10:17:50Z</time>
      </trkpt>
      <trkpt lat="44.61699" lon="-0.19707">
        <ele>65.4</ele>
        <time>2022-07-26T10:17:51Z</time>
      </trkpt>
      <trkpt lat="44.617" lon="-0.19705">
        <ele>65.6</ele>
        <time>2022-07-26T10:17:52Z</time>
      </trkpt>
      <trkpt lat="44.61701" lon="-0.19703">
        <ele>65.6</ele>
        <time>2022-07-26T10:17:53Z</time>
      </trkpt>
      <trkpt lat="44.61702" lon="-0.19701">
        <ele>65.8</ele>
        <time>2022-07-26T10:17:54Z</time>
      </trkpt>
      <trkpt lat="44.61702" lon="-0.197">
        <ele>66</ele>
        <time>2022-07-26T10:17:55Z</time>
      </trkpt>
      <trkpt lat="44.61703" lon="-0.19698">
        <ele>66.2</ele>
        <time>2022-07-26T10:17:56Z</time>
      </trkpt>
      <trkpt lat="44.61704" lon="-0.19696">
        <ele>66.2</ele>
        <time>2022-07-26T10:17:57Z</time>
      </trkpt>
      <trkpt lat="44.61704" lon="-0.19694">
        <ele>66.2</ele>
        <time>2022-07-26T10:17:59Z</time>
      </trkpt>
      <trkpt lat="44.61705" lon="-0.19692">
        <ele>66.4</ele>
        <time>2022-07-26T10:18:00Z</time>
      </trkpt>
      <trkpt lat="44.61705" lon="-0.1969">
        <ele>66.7</ele>
        <time>2022-07-26T10:18:01Z</time>
      </trkpt>
      <trkpt lat="44.61706" lon="-0.19689">
        <ele>66.9</ele>
        <time>2022-07-26T10:18:02Z</time>
      </trkpt>
      <trkpt lat="44.61707" lon="-0.19687">
        <ele>66.9</ele>
        <time>2022-07-26T10:18:03Z</time>
      </trkpt>
      <trkpt lat="44.61707" lon="-0.19685">
        <ele>67</ele>
        <time>2022-07-26T10:18:04Z</time>
      </trkpt>
      <trkpt lat="44.61708" lon="-0.19682">
        <ele>67.3</ele>
        <time>2022-07-26T10:18:05Z</time>
      </trkpt>
      <trkpt lat="44.61708" lon="-0.19681">
        <ele>67.3</ele>
        <time>2022-07-26T10:18:06Z</time>
      </trkpt>
      <trkpt lat="44.61709" lon="-0.1968">
        <ele>67.4</ele>
        <time>2022-07-26T10:18:07Z</time>
      </trkpt>
      <trkpt lat="44.61709" lon="-0.19678">
        <ele>67.4</ele>
        <time>2022-07-26T10:18:08Z</time>
      </trkpt>
      <trkpt lat="44.61709" lon="-0.19677">
        <ele>67.4</ele>
        <time>2022-07-26T10:18:10Z</time>
      </trkpt>
      <trkpt lat="44.6171" lon="-0.19675">
        <ele>67.6</ele>
        <time>2022-07-26T10:18:11Z</time>
      </trkpt>
      <trkpt lat="44.6171" lon="-0.19674">
        <ele>67.6</ele>
        <time>2022-07-26T10:18:12Z</time>
      </trkpt>
      <trkpt lat="44.61711" lon="-0.19672">
        <ele>67.7</ele>
        <time>2022-07-26T10:18:13Z</time>
      </trkpt>
      <trkpt lat="44.61711" lon="-0.1967">
        <ele>67.9</ele>
        <time>2022-07-26T10:18:14Z</time>
      </trkpt>
      <trkpt lat="44.61712" lon="-0.19669">
        <ele>67.9</ele>
        <time>2022-07-26T10:18:15Z</time>
      </trkpt>
      <trkpt lat="44.61712" lon="-0.19667">
        <ele>68.1</ele>
        <time>2022-07-26T10:18:16Z</time>
      </trkpt>
      <trkpt lat="44.61713" lon="-0.19665">
        <ele>68.1</ele>
        <time>2022-07-26T10:18:17Z</time>
      </trkpt>
      <trkpt lat="44.61714" lon="-0.19663">
        <ele>68.2</ele>
        <time>2022-07-26T10:18:18Z</time>
      </trkpt>
      <trkpt lat="44.61715" lon="-0.19661">
        <ele>68.4</ele>
        <time>2022-07-26T10:18:19Z</time>
      </trkpt>
      <trkpt lat="44.61715" lon="-0.19659">
        <ele>68.6</ele>
        <time>2022-07-26T10:18:20Z</time>
      </trkpt>
      <trkpt lat="44.61715" lon="-0.19658">
        <ele>68.6</ele>
        <time>2022-07-26T10:18:21Z</time>
      </trkpt>
      <trkpt lat="44.61716" lon="-0.19657">
        <ele>68.6</ele>
        <time>2022-07-26T10:18:22Z</time>
      </trkpt>
      <trkpt lat="44.61717" lon="-0.19654">
        <ele>68.7</ele>
        <time>2022-07-26T10:18:24Z</time>
      </trkpt>
      <trkpt lat="44.61717" lon="-0.19652">
        <ele>68.7</ele>
        <time>2022-07-26T10:18:25Z</time>
      </trkpt>
      <trkpt lat="44.61718" lon="-0.19651">
        <ele>69.1</ele>
        <time>2022-07-26T10:18:26Z</time>
      </trkpt>
      <trkpt lat="44.61719" lon="-0.19649">
        <ele>69.1</ele>
        <time>2022-07-26T10:18:27Z</time>
      </trkpt>
      <trkpt lat="44.6172" lon="-0.19648">
        <ele>69.1</ele>
        <time>2022-07-26T10:18:28Z</time>
      </trkpt>
      <trkpt lat="44.6172" lon="-0.19646">
        <ele>69.4</ele>
        <time>2022-07-26T10:18:29Z</time>
      </trkpt>
      <trkpt lat="44.61721" lon="-0.19644">
        <ele>69.4</ele>
        <time>2022-07-26T10:18:30Z</time>
      </trkpt>
      <trkpt lat="44.61722" lon="-0.19643">
        <ele>69.4</ele>
        <time>2022-07-26T10:18:31Z</time>
      </trkpt>
      <trkpt lat="44.61722" lon="-0.19641">
        <ele>69.5</ele>
        <time>2022-07-26T10:18:32Z</time>
      </trkpt>
      <trkpt lat="44.61723" lon="-0.1964">
        <ele>69.5</ele>
        <time>2022-07-26T10:18:33Z</time>
      </trkpt>
      <trkpt lat="44.61724" lon="-0.19637">
        <ele>69.8</ele>
        <time>2022-07-26T10:18:34Z</time>
      </trkpt>
      <trkpt lat="44.61724" lon="-0.19636">
        <ele>69.8</ele>
        <time>2022-07-26T10:18:35Z</time>
      </trkpt>
      <trkpt lat="44.61724" lon="-0.19635">
        <ele>69.8</ele>
        <time>2022-07-26T10:18:36Z</time>
      </trkpt>
      <trkpt lat="44.61725" lon="-0.19632">
        <ele>69.9</ele>
        <time>2022-07-26T10:18:37Z</time>
      </trkpt>
      <trkpt lat="44.61725" lon="-0.19631">
        <ele>69.9</ele>
        <time>2022-07-26T10:18:38Z</time>
      </trkpt>
      <trkpt lat="44.61726" lon="-0.1963">
        <ele>69.9</ele>
        <time>2022-07-26T10:18:39Z</time>
      </trkpt>
      <trkpt lat="44.61726" lon="-0.19628">
        <ele>70</ele>
        <time>2022-07-26T10:18:40Z</time>
      </trkpt>
      <trkpt lat="44.61727" lon="-0.19627">
        <ele>70.1</ele>
        <time>2022-07-26T10:18:41Z</time>
      </trkpt>
      <trkpt lat="44.61728" lon="-0.19624">
        <ele>70.2</ele>
        <time>2022-07-26T10:18:43Z</time>
      </trkpt>
      <trkpt lat="44.61729" lon="-0.19622">
        <ele>70.2</ele>
        <time>2022-07-26T10:18:44Z</time>
      </trkpt>
      <trkpt lat="44.61729" lon="-0.1962">
        <ele>70.2</ele>
        <time>2022-07-26T10:18:45Z</time>
      </trkpt>
      <trkpt lat="44.6173" lon="-0.19618">
        <ele>70.3</ele>
        <time>2022-07-26T10:18:46Z</time>
      </trkpt>
      <trkpt lat="44.61731" lon="-0.19617">
        <ele>70.3</ele>
        <time>2022-07-26T10:18:47Z</time>
      </trkpt>
      <trkpt lat="44.61733" lon="-0.19616">
        <ele>70.4</ele>
        <time>2022-07-26T10:18:48Z</time>
      </trkpt>
      <trkpt lat="44.61734" lon="-0.19616">
        <ele>70.4</ele>
        <time>2022-07-26T10:18:50Z</time>
      </trkpt>
      <trkpt lat="44.61734" lon="-0.19616">
        <ele>70.4</ele>
        <time>2022-07-26T10:18:51Z</time>
      </trkpt>
      <trkpt lat="44.61737" lon="-0.19617">
        <ele>70.4</ele>
        <time>2022-07-26T10:18:52Z</time>
      </trkpt>
      <trkpt lat="44.61738" lon="-0.19617">
        <ele>70.4</ele>
        <time>2022-07-26T10:18:53Z</time>
      </trkpt>
      <trkpt lat="44.61739" lon="-0.19618">
        <ele>70.5</ele>
        <time>2022-07-26T10:18:54Z</time>
      </trkpt>
      <trkpt lat="44.6174" lon="-0.19618">
        <ele>70.5</ele>
        <time>2022-07-26T10:18:55Z</time>
      </trkpt>
      <trkpt lat="44.61741" lon="-0.19619">
        <ele>70.5</ele>
        <time>2022-07-26T10:18:56Z</time>
      </trkpt>
      <trkpt lat="44.61744" lon="-0.19621">
        <ele>70.6</ele>
        <time>2022-07-26T10:18:58Z</time>
      </trkpt>
      <trkpt lat="44.61745" lon="-0.19621">
        <ele>70.6</ele>
        <time>2022-07-26T10:18:59Z</time>
      </trkpt>
      <trkpt lat="44.61747" lon="-0.19622">
        <ele>70.7</ele>
        <time>2022-07-26T10:19:00Z</time>
      </trkpt>
      <trkpt lat="44.61748" lon="-0.19622">
        <ele>70.8</ele>
        <time>2022-07-26T10:19:01Z</time>
      </trkpt>
      <trkpt lat="44.61749" lon="-0.19622">
        <ele>70.8</ele>
        <time>2022-07-26T10:19:02Z</time>
      </trkpt>
      <trkpt lat="44.61751" lon="-0.19623">
        <ele>70.8</ele>
        <time>2022-07-26T10:19:04Z</time>
      </trkpt>
      <trkpt lat="44.61752" lon="-0.19623">
        <ele>70.8</ele>
        <time>2022-07-26T10:19:05Z</time>
      </trkpt>
      <trkpt lat="44.61753" lon="-0.19624">
        <ele>70.8</ele>
        <time>2022-07-26T10:19:06Z</time>
      </trkpt>
      <trkpt lat="44.61754" lon="-0.19624">
        <ele>70.9</ele>
        <time>2022-07-26T10:19:07Z</time>
      </trkpt>
      <trkpt lat="44.61755" lon="-0.19624">
        <ele>70.9</ele>
        <time>2022-07-26T10:19:08Z</time>
      </trkpt>
      <trkpt lat="44.61757" lon="-0.19624">
        <ele>70.9</ele>
        <time>2022-07-26T10:19:09Z</time>
      </trkpt>
      <trkpt lat="44.61758" lon="-0.19624">
        <ele>70.9</ele>
        <time>2022-07-26T10:19:10Z</time>
      </trkpt>
      <trkpt lat="44.6176" lon="-0.19624">
        <ele>70.9</ele>
        <time>2022-07-26T10:19:12Z</time>
      </trkpt>
      <trkpt lat="44.61762" lon="-0.19625">
        <ele>71</ele>
        <time>2022-07-26T10:19:13Z</time>
      </trkpt>
      <trkpt lat="44.61763" lon="-0.19625">
        <ele>71</ele>
        <time>2022-07-26T10:19:15Z</time>
      </trkpt>
      <trkpt lat="44.61764" lon="-0.19625">
        <ele>71</ele>
        <time>2022-07-26T10:19:16Z</time>
      </trkpt>
      <trkpt lat="44.61765" lon="-0.19625">
        <ele>71</ele>
        <time>2022-07-26T10:19:17Z</time>
      </trkpt>
      <trkpt lat="44.61766" lon="-0.19626">
        <ele>71</ele>
        <time>2022-07-26T10:19:18Z</time>
      </trkpt>
      <trkpt lat="44.61767" lon="-0.19626">
        <ele>71</ele>
        <time>2022-07-26T10:19:19Z</time>
      </trkpt>
      <trkpt lat="44.61768" lon="-0.19626">
        <ele>71</ele>
        <time>2022-07-26T10:19:20Z</time>
      </trkpt>
      <trkpt lat="44.6177" lon="-0.19626">
        <ele>71</ele>
        <time>2022-07-26T10:19:21Z</time>
      </trkpt>
      <trkpt lat="44.61772" lon="-0.19626">
        <ele>71</ele>
        <time>2022-07-26T10:19:22Z</time>
      </trkpt>
      <trkpt lat="44.61773" lon="-0.19626">
        <ele>71</ele>
        <time>2022-07-26T10:19:23Z</time>
      </trkpt>
      <trkpt lat="44.61773" lon="-0.19626">
        <ele>71</ele>
        <time>2022-07-26T10:19:24Z</time>
      </trkpt>
      <trkpt lat="44.61775" lon="-0.19626">
        <ele>71.1</ele>
        <time>2022-07-26T10:19:26Z</time>
      </trkpt>
      <trkpt lat="44.61777" lon="-0.19626">
        <ele>71.1</ele>
        <time>2022-07-26T10:19:27Z</time>
      </trkpt>
      <trkpt lat="44.61779" lon="-0.19627">
        <ele>71.1</ele>
        <time>2022-07-26T10:19:28Z</time>
      </trkpt>
      <trkpt lat="44.6178" lon="-0.19627">
        <ele>71.1</ele>
        <time>2022-07-26T10:19:29Z</time>
      </trkpt>
      <trkpt lat="44.6178" lon="-0.19627">
        <ele>71.1</ele>
        <time>2022-07-26T10:19:30Z</time>
      </trkpt>
      <trkpt lat="44.61783" lon="-0.19627">
        <ele>71.2</ele>
        <time>2022-07-26T10:19:31Z</time>
      </trkpt>
      <trkpt lat="44.61784" lon="-0.19627">
        <ele>71.2</ele>
        <time>2022-07-26T10:19:32Z</time>
      </trkpt>
      <trkpt lat="44.61785" lon="-0.19627">
        <ele>71.2</ele>
        <time>2022-07-26T10:19:33Z</time>
      </trkpt>
      <trkpt lat="44.61787" lon="-0.19628">
        <ele>71.2</ele>
        <time>2022-07-26T10:19:34Z</time>
      </trkpt>
      <trkpt lat="44.61789" lon="-0.19628">
        <ele>71.3</ele>
        <time>2022-07-26T10:19:35Z</time>
      </trkpt>
      <trkpt lat="44.6179" lon="-0.19628">
        <ele>71.3</ele>
        <time>2022-07-26T10:19:37Z</time>
      </trkpt>
      <trkpt lat="44.61792" lon="-0.19628">
        <ele>71.4</ele>
        <time>2022-07-26T10:19:39Z</time>
      </trkpt>
      <trkpt lat="44.61793" lon="-0.19628">
        <ele>71.4</ele>
        <time>2022-07-26T10:19:40Z</time>
      </trkpt>
      <trkpt lat="44.61794" lon="-0.19628">
        <ele>71.6</ele>
        <time>2022-07-26T10:19:41Z</time>
      </trkpt>
      <trkpt lat="44.61796" lon="-0.19628">
        <ele>71.6</ele>
        <time>2022-07-26T10:19:42Z</time>
      </trkpt>
      <trkpt lat="44.61798" lon="-0.19628">
        <ele>71.7</ele>
        <time>2022-07-26T10:19:43Z</time>
      </trkpt>
      <trkpt lat="44.61799" lon="-0.19628">
        <ele>71.7</ele>
        <time>2022-07-26T10:19:44Z</time>
      </trkpt>
      <trkpt lat="44.618" lon="-0.19629">
        <ele>71.9</ele>
        <time>2022-07-26T10:19:46Z</time>
      </trkpt>
      <trkpt lat="44.61802" lon="-0.19629">
        <ele>71.9</ele>
        <time>2022-07-26T10:19:47Z</time>
      </trkpt>
      <trkpt lat="44.61805" lon="-0.1963">
        <ele>72</ele>
        <time>2022-07-26T10:19:49Z</time>
      </trkpt>
      <trkpt lat="44.61805" lon="-0.1963">
        <ele>72</ele>
        <time>2022-07-26T10:19:50Z</time>
      </trkpt>
      <trkpt lat="44.61807" lon="-0.19631">
        <ele>72.2</ele>
        <time>2022-07-26T10:19:51Z</time>
      </trkpt>
      <trkpt lat="44.61808" lon="-0.19631">
        <ele>72.2</ele>
        <time>2022-07-26T10:19:52Z</time>
      </trkpt>
      <trkpt lat="44.61809" lon="-0.19632">
        <ele>72.2</ele>
        <time>2022-07-26T10:19:53Z</time>
      </trkpt>
      <trkpt lat="44.6181" lon="-0.19633">
        <ele>72.5</ele>
        <time>2022-07-26T10:19:54Z</time>
      </trkpt>
      <trkpt lat="44.61811" lon="-0.19633">
        <ele>72.5</ele>
        <time>2022-07-26T10:19:55Z</time>
      </trkpt>
      <trkpt lat="44.61813" lon="-0.19634">
        <ele>72.7</ele>
        <time>2022-07-26T10:19:56Z</time>
      </trkpt>
      <trkpt lat="44.61814" lon="-0.19634">
        <ele>72.7</ele>
        <time>2022-07-26T10:19:57Z</time>
      </trkpt>
      <trkpt lat="44.61815" lon="-0.19635">
        <ele>72.9</ele>
        <time>2022-07-26T10:19:59Z</time>
      </trkpt>
      <trkpt lat="44.61817" lon="-0.19635">
        <ele>72.9</ele>
        <time>2022-07-26T10:20:00Z</time>
      </trkpt>
      <trkpt lat="44.61818" lon="-0.19635">
        <ele>72.9</ele>
        <time>2022-07-26T10:20:01Z</time>
      </trkpt>
      <trkpt lat="44.61819" lon="-0.19636">
        <ele>73.1</ele>
        <time>2022-07-26T10:20:02Z</time>
      </trkpt>
      <trkpt lat="44.61821" lon="-0.19637">
        <ele>73.1</ele>
        <time>2022-07-26T10:20:03Z</time>
      </trkpt>
      <trkpt lat="44.61822" lon="-0.19637">
        <ele>73.4</ele>
        <time>2022-07-26T10:20:04Z</time>
      </trkpt>
      <trkpt lat="44.61823" lon="-0.19637">
        <ele>73.4</ele>
        <time>2022-07-26T10:20:05Z</time>
      </trkpt>
      <trkpt lat="44.61824" lon="-0.19637">
        <ele>73.4</ele>
        <time>2022-07-26T10:20:06Z</time>
      </trkpt>
      <trkpt lat="44.61826" lon="-0.19638">
        <ele>73.6</ele>
        <time>2022-07-26T10:20:08Z</time>
      </trkpt>
      <trkpt lat="44.61827" lon="-0.19638">
        <ele>73.6</ele>
        <time>2022-07-26T10:20:09Z</time>
      </trkpt>
      <trkpt lat="44.61828" lon="-0.19638">
        <ele>73.8</ele>
        <time>2022-07-26T10:20:10Z</time>
      </trkpt>
      <trkpt lat="44.61829" lon="-0.19637">
        <ele>73.8</ele>
        <time>2022-07-26T10:20:11Z</time>
      </trkpt>
      <trkpt lat="44.6183" lon="-0.19638">
        <ele>74.1</ele>
        <time>2022-07-26T10:20:13Z</time>
      </trkpt>
      <trkpt lat="44.61832" lon="-0.19638">
        <ele>74.1</ele>
        <time>2022-07-26T10:20:14Z</time>
      </trkpt>
      <trkpt lat="44.61833" lon="-0.19638">
        <ele>74.3</ele>
        <time>2022-07-26T10:20:15Z</time>
      </trkpt>
      <trkpt lat="44.61834" lon="-0.19638">
        <ele>74.3</ele>
        <time>2022-07-26T10:20:16Z</time>
      </trkpt>
      <trkpt lat="44.61835" lon="-0.19638">
        <ele>74.3</ele>
        <time>2022-07-26T10:20:17Z</time>
      </trkpt>
      <trkpt lat="44.61838" lon="-0.19639">
        <ele>74.5</ele>
        <time>2022-07-26T10:20:18Z</time>
      </trkpt>
      <trkpt lat="44.61838" lon="-0.19639">
        <ele>74.5</ele>
        <time>2022-07-26T10:20:19Z</time>
      </trkpt>
      <trkpt lat="44.61839" lon="-0.19639">
        <ele>74.5</ele>
        <time>2022-07-26T10:20:20Z</time>
      </trkpt>
      <trkpt lat="44.6184" lon="-0.19639">
        <ele>74.7</ele>
        <time>2022-07-26T10:20:21Z</time>
      </trkpt>
      <trkpt lat="44.61842" lon="-0.19639">
        <ele>74.7</ele>
        <time>2022-07-26T10:20:22Z</time>
      </trkpt>
      <trkpt lat="44.61843" lon="-0.19641">
        <ele>74.9</ele>
        <time>2022-07-26T10:20:23Z</time>
      </trkpt>
      <trkpt lat="44.61843" lon="-0.19642">
        <ele>74.9</ele>
        <time>2022-07-26T10:20:25Z</time>
      </trkpt>
      <trkpt lat="44.61843" lon="-0.19644">
        <ele>74.9</ele>
        <time>2022-07-26T10:20:26Z</time>
      </trkpt>
      <trkpt lat="44.61844" lon="-0.19645">
        <ele>74.9</ele>
        <time>2022-07-26T10:20:27Z</time>
      </trkpt>
      <trkpt lat="44.61844" lon="-0.19646">
        <ele>74.9</ele>
        <time>2022-07-26T10:20:28Z</time>
      </trkpt>
      <trkpt lat="44.61844" lon="-0.19649">
        <ele>74.9</ele>
        <time>2022-07-26T10:20:30Z</time>
      </trkpt>
      <trkpt lat="44.61844" lon="-0.19651">
        <ele>74.9</ele>
        <time>2022-07-26T10:20:31Z</time>
      </trkpt>
      <trkpt lat="44.61844" lon="-0.19653">
        <ele>74.9</ele>
        <time>2022-07-26T10:20:32Z</time>
      </trkpt>
      <trkpt lat="44.61843" lon="-0.19656">
        <ele>74.8</ele>
        <time>2022-07-26T10:20:34Z</time>
      </trkpt>
      <trkpt lat="44.61843" lon="-0.19658">
        <ele>74.8</ele>
        <time>2022-07-26T10:20:35Z</time>
      </trkpt>
      <trkpt lat="44.61842" lon="-0.1966">
        <ele>74.5</ele>
        <time>2022-07-26T10:20:36Z</time>
      </trkpt>
      <trkpt lat="44.61842" lon="-0.19662">
        <ele>74.5</ele>
        <time>2022-07-26T10:20:37Z</time>
      </trkpt>
      <trkpt lat="44.61842" lon="-0.19664">
        <ele>74.5</ele>
        <time>2022-07-26T10:20:38Z</time>
      </trkpt>
      <trkpt lat="44.61841" lon="-0.19667">
        <ele>74.4</ele>
        <time>2022-07-26T10:20:39Z</time>
      </trkpt>
      <trkpt lat="44.61841" lon="-0.19668">
        <ele>74.3</ele>
        <time>2022-07-26T10:20:40Z</time>
      </trkpt>
      <trkpt lat="44.6184" lon="-0.1967">
        <ele>74.3</ele>
        <time>2022-07-26T10:20:41Z</time>
      </trkpt>
      <trkpt lat="44.6184" lon="-0.19672">
        <ele>74.2</ele>
        <time>2022-07-26T10:20:42Z</time>
      </trkpt>
      <trkpt lat="44.6184" lon="-0.19676">
        <ele>74.2</ele>
        <time>2022-07-26T10:20:43Z</time>
      </trkpt>
      <trkpt lat="44.61839" lon="-0.19677">
        <ele>73.8</ele>
        <time>2022-07-26T10:20:45Z</time>
      </trkpt>
      <trkpt lat="44.61839" lon="-0.19679">
        <ele>73.8</ele>
        <time>2022-07-26T10:20:46Z</time>
      </trkpt>
      <trkpt lat="44.61839" lon="-0.1968">
        <ele>73.8</ele>
        <time>2022-07-26T10:20:47Z</time>
      </trkpt>
      <trkpt lat="44.61838" lon="-0.19684">
        <ele>73.7</ele>
        <time>2022-07-26T10:20:49Z</time>
      </trkpt>
      <trkpt lat="44.61838" lon="-0.19686">
        <ele>73.6</ele>
        <time>2022-07-26T10:20:50Z</time>
      </trkpt>
      <trkpt lat="44.61838" lon="-0.19687">
        <ele>73.6</ele>
        <time>2022-07-26T10:20:51Z</time>
      </trkpt>
      <trkpt lat="44.61838" lon="-0.19689">
        <ele>73.6</ele>
        <time>2022-07-26T10:20:52Z</time>
      </trkpt>
      <trkpt lat="44.61837" lon="-0.19694">
        <ele>73.4</ele>
        <time>2022-07-26T10:20:54Z</time>
      </trkpt>
      <trkpt lat="44.61837" lon="-0.19696">
        <ele>73.4</ele>
        <time>2022-07-26T10:20:55Z</time>
      </trkpt>
      <trkpt lat="44.61837" lon="-0.19698">
        <ele>73.3</ele>
        <time>2022-07-26T10:20:57Z</time>
      </trkpt>
      <trkpt lat="44.61837" lon="-0.197">
        <ele>73.3</ele>
        <time>2022-07-26T10:20:58Z</time>
      </trkpt>
      <trkpt lat="44.61837" lon="-0.19703">
        <ele>73.2</ele>
        <time>2022-07-26T10:20:59Z</time>
      </trkpt>
      <trkpt lat="44.61836" lon="-0.19704">
        <ele>73.2</ele>
        <time>2022-07-26T10:21:00Z</time>
      </trkpt>
      <trkpt lat="44.61836" lon="-0.19706">
        <ele>73</ele>
        <time>2022-07-26T10:21:01Z</time>
      </trkpt>
      <trkpt lat="44.61836" lon="-0.19708">
        <ele>72.9</ele>
        <time>2022-07-26T10:21:02Z</time>
      </trkpt>
      <trkpt lat="44.61836" lon="-0.19711">
        <ele>72.8</ele>
        <time>2022-07-26T10:21:03Z</time>
      </trkpt>
      <trkpt lat="44.61836" lon="-0.19712">
        <ele>72.8</ele>
        <time>2022-07-26T10:21:04Z</time>
      </trkpt>
      <trkpt lat="44.61837" lon="-0.19715">
        <ele>72.9</ele>
        <time>2022-07-26T10:21:06Z</time>
      </trkpt>
      <trkpt lat="44.61837" lon="-0.19716">
        <ele>72.9</ele>
        <time>2022-07-26T10:21:07Z</time>
      </trkpt>
      <trkpt lat="44.61837" lon="-0.19718">
        <ele>72.9</ele>
        <time>2022-07-26T10:21:08Z</time>
      </trkpt>
      <trkpt lat="44.61837" lon="-0.19721">
        <ele>72.8</ele>
        <time>2022-07-26T10:21:09Z</time>
      </trkpt>
      <trkpt lat="44.61838" lon="-0.19722">
        <ele>72.8</ele>
        <time>2022-07-26T10:21:10Z</time>
      </trkpt>
      <trkpt lat="44.61838" lon="-0.19723">
        <ele>72.8</ele>
        <time>2022-07-26T10:21:11Z</time>
      </trkpt>
      <trkpt lat="44.61839" lon="-0.19724">
        <ele>72.7</ele>
        <time>2022-07-26T10:21:12Z</time>
      </trkpt>
      <trkpt lat="44.61839" lon="-0.19726">
        <ele>72.7</ele>
        <time>2022-07-26T10:21:13Z</time>
      </trkpt>
      <trkpt lat="44.61839" lon="-0.19728">
        <ele>72.7</ele>
        <time>2022-07-26T10:21:14Z</time>
      </trkpt>
      <trkpt lat="44.61839" lon="-0.19729">
        <ele>72.6</ele>
        <time>2022-07-26T10:21:16Z</time>
      </trkpt>
      <trkpt lat="44.61839" lon="-0.19731">
        <ele>72.6</ele>
        <time>2022-07-26T10:21:17Z</time>
      </trkpt>
      <trkpt lat="44.61839" lon="-0.19733">
        <ele>72.5</ele>
        <time>2022-07-26T10:21:18Z</time>
      </trkpt>
      <trkpt lat="44.61839" lon="-0.19734">
        <ele>72.5</ele>
        <time>2022-07-26T10:21:19Z</time>
      </trkpt>
      <trkpt lat="44.61839" lon="-0.19736">
        <ele>72.5</ele>
        <time>2022-07-26T10:21:20Z</time>
      </trkpt>
      <trkpt lat="44.61838" lon="-0.19738">
        <ele>72.4</ele>
        <time>2022-07-26T10:21:21Z</time>
      </trkpt>
      <trkpt lat="44.61838" lon="-0.19739">
        <ele>72.4</ele>
        <time>2022-07-26T10:21:22Z</time>
      </trkpt>
      <trkpt lat="44.61837" lon="-0.19741">
        <ele>72.3</ele>
        <time>2022-07-26T10:21:24Z</time>
      </trkpt>
      <trkpt lat="44.61836" lon="-0.19744">
        <ele>72.3</ele>
        <time>2022-07-26T10:21:25Z</time>
      </trkpt>
      <trkpt lat="44.61836" lon="-0.19745">
        <ele>72.1</ele>
        <time>2022-07-26T10:21:26Z</time>
      </trkpt>
      <trkpt lat="44.61836" lon="-0.19747">
        <ele>72</ele>
        <time>2022-07-26T10:21:27Z</time>
      </trkpt>
      <trkpt lat="44.61835" lon="-0.19748">
        <ele>72</ele>
        <time>2022-07-26T10:21:28Z</time>
      </trkpt>
      <trkpt lat="44.61835" lon="-0.1975">
        <ele>71.9</ele>
        <time>2022-07-26T10:21:30Z</time>
      </trkpt>
      <trkpt lat="44.61835" lon="-0.19752">
        <ele>71.9</ele>
        <time>2022-07-26T10:21:31Z</time>
      </trkpt>
      <trkpt lat="44.61834" lon="-0.19753">
        <ele>71.9</ele>
        <time>2022-07-26T10:21:32Z</time>
      </trkpt>
      <trkpt lat="44.61834" lon="-0.19755">
        <ele>71.8</ele>
        <time>2022-07-26T10:21:33Z</time>
      </trkpt>
      <trkpt lat="44.61833" lon="-0.19756">
        <ele>71.8</ele>
        <time>2022-07-26T10:21:34Z</time>
      </trkpt>
      <trkpt lat="44.61833" lon="-0.19756">
        <ele>71.6</ele>
        <time>2022-07-26T10:21:35Z</time>
      </trkpt>
      <trkpt lat="44.61833" lon="-0.19756">
        <ele>71.6</ele>
        <time>2022-07-26T10:21:36Z</time>
      </trkpt>
      <trkpt lat="44.61832" lon="-0.19756">
        <ele>71.6</ele>
        <time>2022-07-26T10:21:37Z</time>
      </trkpt>
      <trkpt lat="44.61832" lon="-0.19756">
        <ele>71.6</ele>
        <time>2022-07-26T10:21:38Z</time>
      </trkpt>
      <trkpt lat="44.61832" lon="-0.19757">
        <ele>71.6</ele>
        <time>2022-07-26T10:21:39Z</time>
      </trkpt>
      <trkpt lat="44.61832" lon="-0.19759">
        <ele>71.5</ele>
        <time>2022-07-26T10:21:40Z</time>
      </trkpt>
      <trkpt lat="44.61832" lon="-0.19762">
        <ele>71.5</ele>
        <time>2022-07-26T10:21:42Z</time>
      </trkpt>
      <trkpt lat="44.61831" lon="-0.19763">
        <ele>71.4</ele>
        <time>2022-07-26T10:21:43Z</time>
      </trkpt>
      <trkpt lat="44.61831" lon="-0.19766">
        <ele>71.4</ele>
        <time>2022-07-26T10:21:44Z</time>
      </trkpt>
      <trkpt lat="44.61832" lon="-0.19768">
        <ele>71.3</ele>
        <time>2022-07-26T10:21:45Z</time>
      </trkpt>
      <trkpt lat="44.61832" lon="-0.1977">
        <ele>71.3</ele>
        <time>2022-07-26T10:21:46Z</time>
      </trkpt>
      <trkpt lat="44.61832" lon="-0.19772">
        <ele>71.1</ele>
        <time>2022-07-26T10:21:47Z</time>
      </trkpt>
      <trkpt lat="44.61832" lon="-0.19774">
        <ele>71.1</ele>
        <time>2022-07-26T10:21:48Z</time>
      </trkpt>
      <trkpt lat="44.61832" lon="-0.19776">
        <ele>70.9</ele>
        <time>2022-07-26T10:21:49Z</time>
      </trkpt>
      <trkpt lat="44.61832" lon="-0.19778">
        <ele>70.9</ele>
        <time>2022-07-26T10:21:50Z</time>
      </trkpt>
      <trkpt lat="44.61832" lon="-0.19781">
        <ele>70.8</ele>
        <time>2022-07-26T10:21:51Z</time>
      </trkpt>
      <trkpt lat="44.61832" lon="-0.19782">
        <ele>70.8</ele>
        <time>2022-07-26T10:21:52Z</time>
      </trkpt>
      <trkpt lat="44.61832" lon="-0.19784">
        <ele>70.8</ele>
        <time>2022-07-26T10:21:53Z</time>
      </trkpt>
      <trkpt lat="44.61831" lon="-0.19787">
        <ele>70.6</ele>
        <time>2022-07-26T10:21:54Z</time>
      </trkpt>
      <trkpt lat="44.61831" lon="-0.19788">
        <ele>70.6</ele>
        <time>2022-07-26T10:21:55Z</time>
      </trkpt>
      <trkpt lat="44.61831" lon="-0.19789">
        <ele>70.5</ele>
        <time>2022-07-26T10:21:56Z</time>
      </trkpt>
      <trkpt lat="44.6183" lon="-0.19792">
        <ele>70.5</ele>
        <time>2022-07-26T10:21:57Z</time>
      </trkpt>
      <trkpt lat="44.6183" lon="-0.19794">
        <ele>70.1</ele>
        <time>2022-07-26T10:21:58Z</time>
      </trkpt>
      <trkpt lat="44.6183" lon="-0.19795">
        <ele>70.1</ele>
        <time>2022-07-26T10:21:59Z</time>
      </trkpt>
      <trkpt lat="44.6183" lon="-0.19797">
        <ele>70</ele>
        <time>2022-07-26T10:22:01Z</time>
      </trkpt>
      <trkpt lat="44.61829" lon="-0.198">
        <ele>70</ele>
        <time>2022-07-26T10:22:02Z</time>
      </trkpt>
      <trkpt lat="44.61829" lon="-0.19802">
        <ele>69.8</ele>
        <time>2022-07-26T10:22:03Z</time>
      </trkpt>
      <trkpt lat="44.61829" lon="-0.19804">
        <ele>69.8</ele>
        <time>2022-07-26T10:22:04Z</time>
      </trkpt>
      <trkpt lat="44.61828" lon="-0.19808">
        <ele>69.6</ele>
        <time>2022-07-26T10:22:05Z</time>
      </trkpt>
      <trkpt lat="44.61828" lon="-0.19809">
        <ele>69.6</ele>
        <time>2022-07-26T10:22:07Z</time>
      </trkpt>
      <trkpt lat="44.61828" lon="-0.19811">
        <ele>69.4</ele>
        <time>2022-07-26T10:22:08Z</time>
      </trkpt>
      <trkpt lat="44.61827" lon="-0.19812">
        <ele>69.4</ele>
        <time>2022-07-26T10:22:09Z</time>
      </trkpt>
      <trkpt lat="44.61827" lon="-0.19814">
        <ele>69.1</ele>
        <time>2022-07-26T10:22:10Z</time>
      </trkpt>
      <trkpt lat="44.61827" lon="-0.19816">
        <ele>68.9</ele>
        <time>2022-07-26T10:22:12Z</time>
      </trkpt>
      <trkpt lat="44.61827" lon="-0.19818">
        <ele>68.9</ele>
        <time>2022-07-26T10:22:13Z</time>
      </trkpt>
      <trkpt lat="44.61826" lon="-0.1982">
        <ele>68.7</ele>
        <time>2022-07-26T10:22:14Z</time>
      </trkpt>
      <trkpt lat="44.61826" lon="-0.19822">
        <ele>68.7</ele>
        <time>2022-07-26T10:22:15Z</time>
      </trkpt>
      <trkpt lat="44.61826" lon="-0.19825">
        <ele>68.4</ele>
        <time>2022-07-26T10:22:16Z</time>
      </trkpt>
      <trkpt lat="44.61826" lon="-0.19827">
        <ele>68.4</ele>
        <time>2022-07-26T10:22:17Z</time>
      </trkpt>
      <trkpt lat="44.61826" lon="-0.19828">
        <ele>68.2</ele>
        <time>2022-07-26T10:22:18Z</time>
      </trkpt>
      <trkpt lat="44.61825" lon="-0.1983">
        <ele>68.2</ele>
        <time>2022-07-26T10:22:19Z</time>
      </trkpt>
      <trkpt lat="44.61825" lon="-0.19831">
        <ele>67.9</ele>
        <time>2022-07-26T10:22:20Z</time>
      </trkpt>
      <trkpt lat="44.61824" lon="-0.19835">
        <ele>67.6</ele>
        <time>2022-07-26T10:22:22Z</time>
      </trkpt>
      <trkpt lat="44.61824" lon="-0.19837">
        <ele>67.4</ele>
        <time>2022-07-26T10:22:23Z</time>
      </trkpt>
      <trkpt lat="44.61823" lon="-0.19839">
        <ele>67.4</ele>
        <time>2022-07-26T10:22:24Z</time>
      </trkpt>
      <trkpt lat="44.61823" lon="-0.19841">
        <ele>67.1</ele>
        <time>2022-07-26T10:22:25Z</time>
      </trkpt>
      <trkpt lat="44.61823" lon="-0.19844">
        <ele>67.1</ele>
        <time>2022-07-26T10:22:27Z</time>
      </trkpt>
      <trkpt lat="44.61822" lon="-0.19846">
        <ele>66.9</ele>
        <time>2022-07-26T10:22:28Z</time>
      </trkpt>
      <trkpt lat="44.61822" lon="-0.19847">
        <ele>66.9</ele>
        <time>2022-07-26T10:22:29Z</time>
      </trkpt>
      <trkpt lat="44.61822" lon="-0.19849">
        <ele>66.7</ele>
        <time>2022-07-26T10:22:30Z</time>
      </trkpt>
      <trkpt lat="44.61822" lon="-0.19851">
        <ele>66.7</ele>
        <time>2022-07-26T10:22:31Z</time>
      </trkpt>
      <trkpt lat="44.61822" lon="-0.19854">
        <ele>66.5</ele>
        <time>2022-07-26T10:22:33Z</time>
      </trkpt>
      <trkpt lat="44.61822" lon="-0.19857">
        <ele>66.5</ele>
        <time>2022-07-26T10:22:34Z</time>
      </trkpt>
      <trkpt lat="44.61822" lon="-0.19858">
        <ele>66.3</ele>
        <time>2022-07-26T10:22:35Z</time>
      </trkpt>
      <trkpt lat="44.61822" lon="-0.1986">
        <ele>66.3</ele>
        <time>2022-07-26T10:22:36Z</time>
      </trkpt>
      <trkpt lat="44.61822" lon="-0.19863">
        <ele>66.1</ele>
        <time>2022-07-26T10:22:37Z</time>
      </trkpt>
      <trkpt lat="44.61821" lon="-0.19865">
        <ele>66.1</ele>
        <time>2022-07-26T10:22:39Z</time>
      </trkpt>
      <trkpt lat="44.61821" lon="-0.19867">
        <ele>65.9</ele>
        <time>2022-07-26T10:22:40Z</time>
      </trkpt>
      <trkpt lat="44.61821" lon="-0.1987">
        <ele>65.8</ele>
        <time>2022-07-26T10:22:41Z</time>
      </trkpt>
      <trkpt lat="44.61821" lon="-0.19871">
        <ele>65.8</ele>
        <time>2022-07-26T10:22:42Z</time>
      </trkpt>
      <trkpt lat="44.61821" lon="-0.19872">
        <ele>65.6</ele>
        <time>2022-07-26T10:22:43Z</time>
      </trkpt>
      <trkpt lat="44.61821" lon="-0.19875">
        <ele>65.5</ele>
        <time>2022-07-26T10:22:44Z</time>
      </trkpt>
      <trkpt lat="44.6182" lon="-0.19876">
        <ele>65.5</ele>
        <time>2022-07-26T10:22:45Z</time>
      </trkpt>
      <trkpt lat="44.6182" lon="-0.19877">
        <ele>65.5</ele>
        <time>2022-07-26T10:22:46Z</time>
      </trkpt>
      <trkpt lat="44.6182" lon="-0.19879">
        <ele>65.3</ele>
        <time>2022-07-26T10:22:47Z</time>
      </trkpt>
      <trkpt lat="44.6182" lon="-0.1988">
        <ele>65.3</ele>
        <time>2022-07-26T10:22:48Z</time>
      </trkpt>
      <trkpt lat="44.61819" lon="-0.19882">
        <ele>65.3</ele>
        <time>2022-07-26T10:22:49Z</time>
      </trkpt>
      <trkpt lat="44.61819" lon="-0.19881">
        <ele>65.3</ele>
        <time>2022-07-26T10:22:50Z</time>
      </trkpt>
      <trkpt lat="44.61819" lon="-0.19882">
        <ele>65.3</ele>
        <time>2022-07-26T10:22:51Z</time>
      </trkpt>
      <trkpt lat="44.61819" lon="-0.19883">
        <ele>65.3</ele>
        <time>2022-07-26T10:22:52Z</time>
      </trkpt>
      <trkpt lat="44.61819" lon="-0.19884">
        <ele>65.2</ele>
        <time>2022-07-26T10:22:53Z</time>
      </trkpt>
      <trkpt lat="44.61818" lon="-0.19884">
        <ele>65.2</ele>
        <time>2022-07-26T10:22:54Z</time>
      </trkpt>
      <trkpt lat="44.61818" lon="-0.19886">
        <ele>65</ele>
        <time>2022-07-26T10:22:55Z</time>
      </trkpt>
      <trkpt lat="44.61818" lon="-0.19889">
        <ele>64.9</ele>
        <time>2022-07-26T10:22:56Z</time>
      </trkpt>
      <trkpt lat="44.61818" lon="-0.1989">
        <ele>64.9</ele>
        <time>2022-07-26T10:22:57Z</time>
      </trkpt>
      <trkpt lat="44.61818" lon="-0.19891">
        <ele>64.8</ele>
        <time>2022-07-26T10:22:58Z</time>
      </trkpt>
      <trkpt lat="44.61818" lon="-0.19893">
        <ele>64.8</ele>
        <time>2022-07-26T10:23:00Z</time>
      </trkpt>
      <trkpt lat="44.61818" lon="-0.19895">
        <ele>64.8</ele>
        <time>2022-07-26T10:23:01Z</time>
      </trkpt>
      <trkpt lat="44.61817" lon="-0.19897">
        <ele>64.7</ele>
        <time>2022-07-26T10:23:02Z</time>
      </trkpt>
      <trkpt lat="44.61817" lon="-0.19899">
        <ele>64.7</ele>
        <time>2022-07-26T10:23:03Z</time>
      </trkpt>
      <trkpt lat="44.61816" lon="-0.199">
        <ele>64.6</ele>
        <time>2022-07-26T10:23:04Z</time>
      </trkpt>
      <trkpt lat="44.61816" lon="-0.19902">
        <ele>64.6</ele>
        <time>2022-07-26T10:23:06Z</time>
      </trkpt>
      <trkpt lat="44.61816" lon="-0.19904">
        <ele>64.6</ele>
        <time>2022-07-26T10:23:07Z</time>
      </trkpt>
      <trkpt lat="44.61816" lon="-0.19906">
        <ele>64.5</ele>
        <time>2022-07-26T10:23:08Z</time>
      </trkpt>
      <trkpt lat="44.61816" lon="-0.19907">
        <ele>64.5</ele>
        <time>2022-07-26T10:23:09Z</time>
      </trkpt>
      <trkpt lat="44.61816" lon="-0.19909">
        <ele>64.3</ele>
        <time>2022-07-26T10:23:11Z</time>
      </trkpt>
      <trkpt lat="44.61815" lon="-0.19912">
        <ele>64.3</ele>
        <time>2022-07-26T10:23:12Z</time>
      </trkpt>
      <trkpt lat="44.61815" lon="-0.19913">
        <ele>64.2</ele>
        <time>2022-07-26T10:23:13Z</time>
      </trkpt>
      <trkpt lat="44.61815" lon="-0.19915">
        <ele>64</ele>
        <time>2022-07-26T10:23:14Z</time>
      </trkpt>
      <trkpt lat="44.61814" lon="-0.19916">
        <ele>64</ele>
        <time>2022-07-26T10:23:15Z</time>
      </trkpt>
      <trkpt lat="44.61814" lon="-0.19918">
        <ele>63.9</ele>
        <time>2022-07-26T10:23:16Z</time>
      </trkpt>
      <trkpt lat="44.61814" lon="-0.19919">
        <ele>63.9</ele>
        <time>2022-07-26T10:23:17Z</time>
      </trkpt>
      <trkpt lat="44.61813" lon="-0.19922">
        <ele>63.9</ele>
        <time>2022-07-26T10:23:18Z</time>
      </trkpt>
      <trkpt lat="44.61813" lon="-0.19923">
        <ele>63.9</ele>
        <time>2022-07-26T10:23:19Z</time>
      </trkpt>
      <trkpt lat="44.61813" lon="-0.19925">
        <ele>63.9</ele>
        <time>2022-07-26T10:23:20Z</time>
      </trkpt>
      <trkpt lat="44.61813" lon="-0.19926">
        <ele>63.8</ele>
        <time>2022-07-26T10:23:21Z</time>
      </trkpt>
      <trkpt lat="44.61813" lon="-0.19927">
        <ele>63.8</ele>
        <time>2022-07-26T10:23:22Z</time>
      </trkpt>
      <trkpt lat="44.61813" lon="-0.19929">
        <ele>63.8</ele>
        <time>2022-07-26T10:23:23Z</time>
      </trkpt>
      <trkpt lat="44.61813" lon="-0.19932">
        <ele>63.7</ele>
        <time>2022-07-26T10:23:25Z</time>
      </trkpt>
      <trkpt lat="44.61813" lon="-0.19934">
        <ele>63.7</ele>
        <time>2022-07-26T10:23:26Z</time>
      </trkpt>
      <trkpt lat="44.61813" lon="-0.19935">
        <ele>63.7</ele>
        <time>2022-07-26T10:23:27Z</time>
      </trkpt>
      <trkpt lat="44.61813" lon="-0.19937">
        <ele>63.7</ele>
        <time>2022-07-26T10:23:28Z</time>
      </trkpt>
      <trkpt lat="44.61813" lon="-0.19939">
        <ele>63.6</ele>
        <time>2022-07-26T10:23:29Z</time>
      </trkpt>
      <trkpt lat="44.61813" lon="-0.19941">
        <ele>63.6</ele>
        <time>2022-07-26T10:23:30Z</time>
      </trkpt>
      <trkpt lat="44.61813" lon="-0.19944">
        <ele>63.6</ele>
        <time>2022-07-26T10:23:32Z</time>
      </trkpt>
      <trkpt lat="44.61812" lon="-0.19945">
        <ele>63.6</ele>
        <time>2022-07-26T10:23:33Z</time>
      </trkpt>
      <trkpt lat="44.61812" lon="-0.19947">
        <ele>63.6</ele>
        <time>2022-07-26T10:23:34Z</time>
      </trkpt>
      <trkpt lat="44.61812" lon="-0.19949">
        <ele>63.5</ele>
        <time>2022-07-26T10:23:35Z</time>
      </trkpt>
      <trkpt lat="44.61812" lon="-0.19952">
        <ele>63.3</ele>
        <time>2022-07-26T10:23:36Z</time>
      </trkpt>
      <trkpt lat="44.61812" lon="-0.19953">
        <ele>63.3</ele>
        <time>2022-07-26T10:23:37Z</time>
      </trkpt>
      <trkpt lat="44.61811" lon="-0.19954">
        <ele>63.3</ele>
        <time>2022-07-26T10:23:38Z</time>
      </trkpt>
      <trkpt lat="44.61811" lon="-0.19956">
        <ele>63.3</ele>
        <time>2022-07-26T10:23:39Z</time>
      </trkpt>
      <trkpt lat="44.61811" lon="-0.19957">
        <ele>63.2</ele>
        <time>2022-07-26T10:23:40Z</time>
      </trkpt>
      <trkpt lat="44.61811" lon="-0.19959">
        <ele>63.2</ele>
        <time>2022-07-26T10:23:41Z</time>
      </trkpt>
      <trkpt lat="44.6181" lon="-0.1996">
        <ele>63.2</ele>
        <time>2022-07-26T10:23:42Z</time>
      </trkpt>
      <trkpt lat="44.6181" lon="-0.19962">
        <ele>63.2</ele>
        <time>2022-07-26T10:23:43Z</time>
      </trkpt>
      <trkpt lat="44.61809" lon="-0.19963">
        <ele>63.2</ele>
        <time>2022-07-26T10:23:44Z</time>
      </trkpt>
      <trkpt lat="44.61809" lon="-0.19966">
        <ele>62.9</ele>
        <time>2022-07-26T10:23:45Z</time>
      </trkpt>
      <trkpt lat="44.61808" lon="-0.19967">
        <ele>62.9</ele>
        <time>2022-07-26T10:23:46Z</time>
      </trkpt>
      <trkpt lat="44.61808" lon="-0.19968">
        <ele>62.9</ele>
        <time>2022-07-26T10:23:47Z</time>
      </trkpt>
      <trkpt lat="44.61808" lon="-0.19971">
        <ele>62.9</ele>
        <time>2022-07-26T10:23:49Z</time>
      </trkpt>
      <trkpt lat="44.61808" lon="-0.19973">
        <ele>62.8</ele>
        <time>2022-07-26T10:23:50Z</time>
      </trkpt>
      <trkpt lat="44.61809" lon="-0.19975">
        <ele>63.1</ele>
        <time>2022-07-26T10:23:51Z</time>
      </trkpt>
      <trkpt lat="44.61809" lon="-0.19975">
        <ele>63.1</ele>
        <time>2022-07-26T10:23:52Z</time>
      </trkpt>
      <trkpt lat="44.61809" lon="-0.19976">
        <ele>63.1</ele>
        <time>2022-07-26T10:23:53Z</time>
      </trkpt>
      <trkpt lat="44.6181" lon="-0.19976">
        <ele>63.1</ele>
        <time>2022-07-26T10:23:54Z</time>
      </trkpt>
      <trkpt lat="44.6181" lon="-0.19976">
        <ele>63.1</ele>
        <time>2022-07-26T10:23:55Z</time>
      </trkpt>
      <trkpt lat="44.61812" lon="-0.19977">
        <ele>63.1</ele>
        <time>2022-07-26T10:23:57Z</time>
      </trkpt>
      <trkpt lat="44.61813" lon="-0.19977">
        <ele>63.3</ele>
        <time>2022-07-26T10:23:58Z</time>
      </trkpt>
      <trkpt lat="44.61815" lon="-0.19977">
        <ele>63.3</ele>
        <time>2022-07-26T10:23:59Z</time>
      </trkpt>
      <trkpt lat="44.61816" lon="-0.19977">
        <ele>63.5</ele>
        <time>2022-07-26T10:24:00Z</time>
      </trkpt>
      <trkpt lat="44.61818" lon="-0.19977">
        <ele>63.7</ele>
        <time>2022-07-26T10:24:01Z</time>
      </trkpt>
      <trkpt lat="44.61819" lon="-0.19978">
        <ele>63.7</ele>
        <time>2022-07-26T10:24:02Z</time>
      </trkpt>
      <trkpt lat="44.61821" lon="-0.19978">
        <ele>64</ele>
        <time>2022-07-26T10:24:04Z</time>
      </trkpt>
      <trkpt lat="44.61823" lon="-0.19979">
        <ele>64</ele>
        <time>2022-07-26T10:24:05Z</time>
      </trkpt>
      <trkpt lat="44.61825" lon="-0.19979">
        <ele>64.2</ele>
        <time>2022-07-26T10:24:07Z</time>
      </trkpt>
      <trkpt lat="44.61826" lon="-0.19979">
        <ele>64.2</ele>
        <time>2022-07-26T10:24:08Z</time>
      </trkpt>
      <trkpt lat="44.61827" lon="-0.19979">
        <ele>64.2</ele>
        <time>2022-07-26T10:24:09Z</time>
      </trkpt>
      <trkpt lat="44.61828" lon="-0.19979">
        <ele>64.5</ele>
        <time>2022-07-26T10:24:10Z</time>
      </trkpt>
      <trkpt lat="44.61829" lon="-0.19979">
        <ele>64.5</ele>
        <time>2022-07-26T10:24:11Z</time>
      </trkpt>
      <trkpt lat="44.6183" lon="-0.19979">
        <ele>64.5</ele>
        <time>2022-07-26T10:24:12Z</time>
      </trkpt>
      <trkpt lat="44.6183" lon="-0.1998">
        <ele>64.8</ele>
        <time>2022-07-26T10:24:13Z</time>
      </trkpt>
      <trkpt lat="44.6183" lon="-0.19979">
        <ele>64.8</ele>
        <time>2022-07-26T10:24:14Z</time>
      </trkpt>
      <trkpt lat="44.6183" lon="-0.19979">
        <ele>64.8</ele>
        <time>2022-07-26T10:24:15Z</time>
      </trkpt>
      <trkpt lat="44.6183" lon="-0.19979">
        <ele>64.5</ele>
        <time>2022-07-26T10:24:16Z</time>
      </trkpt>
      <trkpt lat="44.6183" lon="-0.19979">
        <ele>64.5</ele>
        <time>2022-07-26T10:24:17Z</time>
      </trkpt>
      <trkpt lat="44.6183" lon="-0.19979">
        <ele>64.5</ele>
        <time>2022-07-26T10:24:18Z</time>
      </trkpt>
      <trkpt lat="44.6183" lon="-0.19979">
        <ele>64.5</ele>
        <time>2022-07-26T10:24:20Z</time>
      </trkpt>
      <trkpt lat="44.6183" lon="-0.19979">
        <ele>64.5</ele>
        <time>2022-07-26T10:24:21Z</time>
      </trkpt>
      <trkpt lat="44.6183" lon="-0.19979">
        <ele>64.8</ele>
        <time>2022-07-26T10:24:22Z</time>
      </trkpt>
      <trkpt lat="44.61831" lon="-0.19978">
        <ele>64.8</ele>
        <time>2022-07-26T10:24:23Z</time>
      </trkpt>
      <trkpt lat="44.61833" lon="-0.19978">
        <ele>65.1</ele>
        <time>2022-07-26T10:24:24Z</time>
      </trkpt>
      <trkpt lat="44.61834" lon="-0.19978">
        <ele>65.1</ele>
        <time>2022-07-26T10:24:25Z</time>
      </trkpt>
      <trkpt lat="44.61835" lon="-0.19978">
        <ele>65.1</ele>
        <time>2022-07-26T10:24:26Z</time>
      </trkpt>
      <trkpt lat="44.61837" lon="-0.19979">
        <ele>65.5</ele>
        <time>2022-07-26T10:24:28Z</time>
      </trkpt>
      <trkpt lat="44.61838" lon="-0.19979">
        <ele>65.5</ele>
        <time>2022-07-26T10:24:29Z</time>
      </trkpt>
      <trkpt lat="44.61839" lon="-0.19979">
        <ele>65.5</ele>
        <time>2022-07-26T10:24:30Z</time>
      </trkpt>
      <trkpt lat="44.6184" lon="-0.19979">
        <ele>65.8</ele>
        <time>2022-07-26T10:24:31Z</time>
      </trkpt>
      <trkpt lat="44.61841" lon="-0.19979">
        <ele>65.8</ele>
        <time>2022-07-26T10:24:32Z</time>
      </trkpt>
      <trkpt lat="44.61842" lon="-0.19979">
        <ele>65.8</ele>
        <time>2022-07-26T10:24:33Z</time>
      </trkpt>
      <trkpt lat="44.61843" lon="-0.19979">
        <ele>66.1</ele>
        <time>2022-07-26T10:24:34Z</time>
      </trkpt>
      <trkpt lat="44.61844" lon="-0.1998">
        <ele>66.1</ele>
        <time>2022-07-26T10:24:35Z</time>
      </trkpt>
      <trkpt lat="44.61846" lon="-0.1998">
        <ele>66.1</ele>
        <time>2022-07-26T10:24:36Z</time>
      </trkpt>
      <trkpt lat="44.61847" lon="-0.19981">
        <ele>66.5</ele>
        <time>2022-07-26T10:24:37Z</time>
      </trkpt>
      <trkpt lat="44.61848" lon="-0.19982">
        <ele>66.4</ele>
        <time>2022-07-26T10:24:39Z</time>
      </trkpt>
      <trkpt lat="44.61849" lon="-0.19982">
        <ele>66.8</ele>
        <time>2022-07-26T10:24:40Z</time>
      </trkpt>
      <trkpt lat="44.6185" lon="-0.19982">
        <ele>66.8</ele>
        <time>2022-07-26T10:24:41Z</time>
      </trkpt>
      <trkpt lat="44.61851" lon="-0.19982">
        <ele>66.8</ele>
        <time>2022-07-26T10:24:42Z</time>
      </trkpt>
      <trkpt lat="44.61852" lon="-0.19982">
        <ele>67.1</ele>
        <time>2022-07-26T10:24:43Z</time>
      </trkpt>
      <trkpt lat="44.61854" lon="-0.19982">
        <ele>67.1</ele>
        <time>2022-07-26T10:24:44Z</time>
      </trkpt>
      <trkpt lat="44.61855" lon="-0.19982">
        <ele>67.5</ele>
        <time>2022-07-26T10:24:45Z</time>
      </trkpt>
      <trkpt lat="44.61856" lon="-0.19982">
        <ele>67.5</ele>
        <time>2022-07-26T10:24:46Z</time>
      </trkpt>
      <trkpt lat="44.61857" lon="-0.19982">
        <ele>67.5</ele>
        <time>2022-07-26T10:24:47Z</time>
      </trkpt>
      <trkpt lat="44.61859" lon="-0.19983">
        <ele>67.9</ele>
        <time>2022-07-26T10:24:48Z</time>
      </trkpt>
      <trkpt lat="44.61861" lon="-0.19983">
        <ele>68.2</ele>
        <time>2022-07-26T10:24:49Z</time>
      </trkpt>
      <trkpt lat="44.61862" lon="-0.19982">
        <ele>68.2</ele>
        <time>2022-07-26T10:24:50Z</time>
      </trkpt>
      <trkpt lat="44.61862" lon="-0.19982">
        <ele>68.2</ele>
        <time>2022-07-26T10:24:51Z</time>
      </trkpt>
      <trkpt lat="44.61865" lon="-0.19982">
        <ele>68.6</ele>
        <time>2022-07-26T10:24:52Z</time>
      </trkpt>
      <trkpt lat="44.61865" lon="-0.19983">
        <ele>68.6</ele>
        <time>2022-07-26T10:24:53Z</time>
      </trkpt>
      <trkpt lat="44.61866" lon="-0.19983">
        <ele>68.6</ele>
        <time>2022-07-26T10:24:54Z</time>
      </trkpt>
      <trkpt lat="44.61868" lon="-0.19984">
        <ele>69</ele>
        <time>2022-07-26T10:24:55Z</time>
      </trkpt>
      <trkpt lat="44.61869" lon="-0.19985">
        <ele>69</ele>
        <time>2022-07-26T10:24:57Z</time>
      </trkpt>
      <trkpt lat="44.6187" lon="-0.19985">
        <ele>69.3</ele>
        <time>2022-07-26T10:24:58Z</time>
      </trkpt>
      <trkpt lat="44.61871" lon="-0.19985">
        <ele>69.3</ele>
        <time>2022-07-26T10:24:59Z</time>
      </trkpt>
      <trkpt lat="44.61872" lon="-0.19985">
        <ele>69.3</ele>
        <time>2022-07-26T10:25:00Z</time>
      </trkpt>
      <trkpt lat="44.61875" lon="-0.19985">
        <ele>69.6</ele>
        <time>2022-07-26T10:25:01Z</time>
      </trkpt>
      <trkpt lat="44.61876" lon="-0.19985">
        <ele>69.6</ele>
        <time>2022-07-26T10:25:02Z</time>
      </trkpt>
      <trkpt lat="44.61877" lon="-0.19985">
        <ele>70</ele>
        <time>2022-07-26T10:25:03Z</time>
      </trkpt>
      <trkpt lat="44.61878" lon="-0.19985">
        <ele>70</ele>
        <time>2022-07-26T10:25:04Z</time>
      </trkpt>
      <trkpt lat="44.61879" lon="-0.19985">
        <ele>70.3</ele>
        <time>2022-07-26T10:25:05Z</time>
      </trkpt>
      <trkpt lat="44.61882" lon="-0.19985">
        <ele>70.3</ele>
        <time>2022-07-26T10:25:06Z</time>
      </trkpt>
      <trkpt lat="44.61883" lon="-0.19986">
        <ele>70.5</ele>
        <time>2022-07-26T10:25:07Z</time>
      </trkpt>
      <trkpt lat="44.61884" lon="-0.19986">
        <ele>70.5</ele>
        <time>2022-07-26T10:25:08Z</time>
      </trkpt>
      <trkpt lat="44.61886" lon="-0.19987">
        <ele>70.8</ele>
        <time>2022-07-26T10:25:10Z</time>
      </trkpt>
      <trkpt lat="44.61887" lon="-0.19987">
        <ele>70.8</ele>
        <time>2022-07-26T10:25:11Z</time>
      </trkpt>
      <trkpt lat="44.61888" lon="-0.19988">
        <ele>71.1</ele>
        <time>2022-07-26T10:25:12Z</time>
      </trkpt>
      <trkpt lat="44.6189" lon="-0.19989">
        <ele>71.1</ele>
        <time>2022-07-26T10:25:13Z</time>
      </trkpt>
      <trkpt lat="44.61892" lon="-0.19989">
        <ele>71.4</ele>
        <time>2022-07-26T10:25:14Z</time>
      </trkpt>
      <trkpt lat="44.61893" lon="-0.1999">
        <ele>71.4</ele>
        <time>2022-07-26T10:25:15Z</time>
      </trkpt>
      <trkpt lat="44.61894" lon="-0.1999">
        <ele>71.4</ele>
        <time>2022-07-26T10:25:16Z</time>
      </trkpt>
      <trkpt lat="44.61896" lon="-0.19989">
        <ele>71.7</ele>
        <time>2022-07-26T10:25:18Z</time>
      </trkpt>
      <trkpt lat="44.61897" lon="-0.19989">
        <ele>71.7</ele>
        <time>2022-07-26T10:25:19Z</time>
      </trkpt>
      <trkpt lat="44.61899" lon="-0.19989">
        <ele>71.9</ele>
        <time>2022-07-26T10:25:20Z</time>
      </trkpt>
      <trkpt lat="44.619" lon="-0.1999">
        <ele>71.9</ele>
        <time>2022-07-26T10:25:21Z</time>
      </trkpt>
      <trkpt lat="44.61901" lon="-0.1999">
        <ele>72.1</ele>
        <time>2022-07-26T10:25:22Z</time>
      </trkpt>
      <trkpt lat="44.61903" lon="-0.1999">
        <ele>71.9</ele>
        <time>2022-07-26T10:25:23Z</time>
      </trkpt>
      <trkpt lat="44.61904" lon="-0.19991">
        <ele>72.1</ele>
        <time>2022-07-26T10:25:24Z</time>
      </trkpt>
      <trkpt lat="44.61905" lon="-0.19991">
        <ele>72.1</ele>
        <time>2022-07-26T10:25:25Z</time>
      </trkpt>
      <trkpt lat="44.61907" lon="-0.19991">
        <ele>72.3</ele>
        <time>2022-07-26T10:25:27Z</time>
      </trkpt>
      <trkpt lat="44.61909" lon="-0.19992">
        <ele>72.3</ele>
        <time>2022-07-26T10:25:28Z</time>
      </trkpt>
      <trkpt lat="44.6191" lon="-0.19991">
        <ele>72.5</ele>
        <time>2022-07-26T10:25:29Z</time>
      </trkpt>
      <trkpt lat="44.61911" lon="-0.19991">
        <ele>72.5</ele>
        <time>2022-07-26T10:25:30Z</time>
      </trkpt>
      <trkpt lat="44.61912" lon="-0.19992">
        <ele>72.5</ele>
        <time>2022-07-26T10:25:31Z</time>
      </trkpt>
      <trkpt lat="44.61914" lon="-0.19992">
        <ele>72.7</ele>
        <time>2022-07-26T10:25:32Z</time>
      </trkpt>
      <trkpt lat="44.61916" lon="-0.19992">
        <ele>72.7</ele>
        <time>2022-07-26T10:25:33Z</time>
      </trkpt>
      <trkpt lat="44.61916" lon="-0.19992">
        <ele>72.9</ele>
        <time>2022-07-26T10:25:34Z</time>
      </trkpt>
      <trkpt lat="44.61917" lon="-0.19992">
        <ele>72.8</ele>
        <time>2022-07-26T10:25:35Z</time>
      </trkpt>
      <trkpt lat="44.61919" lon="-0.19994">
        <ele>72.7</ele>
        <time>2022-07-26T10:25:36Z</time>
      </trkpt>
      <trkpt lat="44.61919" lon="-0.19995">
        <ele>72.6</ele>
        <time>2022-07-26T10:25:37Z</time>
      </trkpt>
      <trkpt lat="44.61919" lon="-0.19997">
        <ele>72.5</ele>
        <time>2022-07-26T10:25:38Z</time>
      </trkpt>
      <trkpt lat="44.61919" lon="-0.19999">
        <ele>72.4</ele>
        <time>2022-07-26T10:25:39Z</time>
      </trkpt>
      <trkpt lat="44.61919" lon="-0.20002">
        <ele>72.3</ele>
        <time>2022-07-26T10:25:41Z</time>
      </trkpt>
      <trkpt lat="44.61918" lon="-0.20004">
        <ele>72.2</ele>
        <time>2022-07-26T10:25:42Z</time>
      </trkpt>
      <trkpt lat="44.61918" lon="-0.20006">
        <ele>72.1</ele>
        <time>2022-07-26T10:25:43Z</time>
      </trkpt>
      <trkpt lat="44.61917" lon="-0.20008">
        <ele>72</ele>
        <time>2022-07-26T10:25:44Z</time>
      </trkpt>
      <trkpt lat="44.61917" lon="-0.2001">
        <ele>71.9</ele>
        <time>2022-07-26T10:25:45Z</time>
      </trkpt>
      <trkpt lat="44.61916" lon="-0.20012">
        <ele>71.8</ele>
        <time>2022-07-26T10:25:46Z</time>
      </trkpt>
      <trkpt lat="44.61916" lon="-0.20015">
        <ele>71.7</ele>
        <time>2022-07-26T10:25:48Z</time>
      </trkpt>
      <trkpt lat="44.61916" lon="-0.20017">
        <ele>71.6</ele>
        <time>2022-07-26T10:25:49Z</time>
      </trkpt>
      <trkpt lat="44.61915" lon="-0.20019">
        <ele>71.5</ele>
        <time>2022-07-26T10:25:50Z</time>
      </trkpt>
      <trkpt lat="44.61915" lon="-0.20022">
        <ele>71.3</ele>
        <time>2022-07-26T10:25:51Z</time>
      </trkpt>
      <trkpt lat="44.61915" lon="-0.20024">
        <ele>71.3</ele>
        <time>2022-07-26T10:25:53Z</time>
      </trkpt>
      <trkpt lat="44.61915" lon="-0.20026">
        <ele>71.2</ele>
        <time>2022-07-26T10:25:54Z</time>
      </trkpt>
      <trkpt lat="44.61915" lon="-0.20027">
        <ele>71.1</ele>
        <time>2022-07-26T10:25:55Z</time>
      </trkpt>
      <trkpt lat="44.61914" lon="-0.20029">
        <ele>71</ele>
        <time>2022-07-26T10:25:56Z</time>
      </trkpt>
      <trkpt lat="44.61914" lon="-0.20031">
        <ele>70.9</ele>
        <time>2022-07-26T10:25:57Z</time>
      </trkpt>
      <trkpt lat="44.61914" lon="-0.20033">
        <ele>70.9</ele>
        <time>2022-07-26T10:25:58Z</time>
      </trkpt>
      <trkpt lat="44.61913" lon="-0.20034">
        <ele>70.8</ele>
        <time>2022-07-26T10:25:59Z</time>
      </trkpt>
      <trkpt lat="44.61913" lon="-0.20036">
        <ele>70.7</ele>
        <time>2022-07-26T10:26:00Z</time>
      </trkpt>
      <trkpt lat="44.61913" lon="-0.2004">
        <ele>70.6</ele>
        <time>2022-07-26T10:26:02Z</time>
      </trkpt>
      <trkpt lat="44.61912" lon="-0.20041">
        <ele>70.5</ele>
        <time>2022-07-26T10:26:03Z</time>
      </trkpt>
      <trkpt lat="44.61912" lon="-0.20044">
        <ele>70.4</ele>
        <time>2022-07-26T10:26:04Z</time>
      </trkpt>
      <trkpt lat="44.61911" lon="-0.20045">
        <ele>70.4</ele>
        <time>2022-07-26T10:26:05Z</time>
      </trkpt>
      <trkpt lat="44.61911" lon="-0.20047">
        <ele>70.3</ele>
        <time>2022-07-26T10:26:06Z</time>
      </trkpt>
      <trkpt lat="44.6191" lon="-0.2005">
        <ele>70.2</ele>
        <time>2022-07-26T10:26:08Z</time>
      </trkpt>
      <trkpt lat="44.6191" lon="-0.20052">
        <ele>70.1</ele>
        <time>2022-07-26T10:26:09Z</time>
      </trkpt>
      <trkpt lat="44.61909" lon="-0.20055">
        <ele>70</ele>
        <time>2022-07-26T10:26:10Z</time>
      </trkpt>
      <trkpt lat="44.61909" lon="-0.20056">
        <ele>69.9</ele>
        <time>2022-07-26T10:26:11Z</time>
      </trkpt>
      <trkpt lat="44.61909" lon="-0.20058">
        <ele>69.9</ele>
        <time>2022-07-26T10:26:12Z</time>
      </trkpt>
      <trkpt lat="44.61908" lon="-0.20061">
        <ele>69.7</ele>
        <time>2022-07-26T10:26:13Z</time>
      </trkpt>
      <trkpt lat="44.61908" lon="-0.20061">
        <ele>69.7</ele>
        <time>2022-07-26T10:26:14Z</time>
      </trkpt>
      <trkpt lat="44.61908" lon="-0.20063">
        <ele>69.7</ele>
        <time>2022-07-26T10:26:15Z</time>
      </trkpt>
      <trkpt lat="44.61907" lon="-0.20065">
        <ele>69.5</ele>
        <time>2022-07-26T10:26:16Z</time>
      </trkpt>
      <trkpt lat="44.61907" lon="-0.20067">
        <ele>69.5</ele>
        <time>2022-07-26T10:26:17Z</time>
      </trkpt>
      <trkpt lat="44.61906" lon="-0.20068">
        <ele>69.5</ele>
        <time>2022-07-26T10:26:18Z</time>
      </trkpt>
      <trkpt lat="44.61906" lon="-0.20069">
        <ele>69.4</ele>
        <time>2022-07-26T10:26:19Z</time>
      </trkpt>
      <trkpt lat="44.61905" lon="-0.20071">
        <ele>69.3</ele>
        <time>2022-07-26T10:26:20Z</time>
      </trkpt>
      <trkpt lat="44.61905" lon="-0.20073">
        <ele>69.3</ele>
        <time>2022-07-26T10:26:22Z</time>
      </trkpt>
      <trkpt lat="44.61904" lon="-0.20074">
        <ele>69.2</ele>
        <time>2022-07-26T10:26:23Z</time>
      </trkpt>
      <trkpt lat="44.61904" lon="-0.20076">
        <ele>69.1</ele>
        <time>2022-07-26T10:26:24Z</time>
      </trkpt>
      <trkpt lat="44.61903" lon="-0.20078">
        <ele>69.1</ele>
        <time>2022-07-26T10:26:25Z</time>
      </trkpt>
      <trkpt lat="44.61903" lon="-0.2008">
        <ele>69</ele>
        <time>2022-07-26T10:26:26Z</time>
      </trkpt>
      <trkpt lat="44.61902" lon="-0.20081">
        <ele>68.9</ele>
        <time>2022-07-26T10:26:27Z</time>
      </trkpt>
      <trkpt lat="44.61902" lon="-0.20083">
        <ele>68.9</ele>
        <time>2022-07-26T10:26:28Z</time>
      </trkpt>
      <trkpt lat="44.61901" lon="-0.20085">
        <ele>68.8</ele>
        <time>2022-07-26T10:26:29Z</time>
      </trkpt>
      <trkpt lat="44.61901" lon="-0.20087">
        <ele>68.8</ele>
        <time>2022-07-26T10:26:30Z</time>
      </trkpt>
      <trkpt lat="44.619" lon="-0.20088">
        <ele>68.7</ele>
        <time>2022-07-26T10:26:32Z</time>
      </trkpt>
      <trkpt lat="44.619" lon="-0.2009">
        <ele>68.6</ele>
        <time>2022-07-26T10:26:33Z</time>
      </trkpt>
      <trkpt lat="44.619" lon="-0.20092">
        <ele>68.6</ele>
        <time>2022-07-26T10:26:34Z</time>
      </trkpt>
      <trkpt lat="44.61899" lon="-0.20095">
        <ele>68.5</ele>
        <time>2022-07-26T10:26:35Z</time>
      </trkpt>
      <trkpt lat="44.61899" lon="-0.20096">
        <ele>68.5</ele>
        <time>2022-07-26T10:26:36Z</time>
      </trkpt>
      <trkpt lat="44.61899" lon="-0.20097">
        <ele>68.4</ele>
        <time>2022-07-26T10:26:37Z</time>
      </trkpt>
      <trkpt lat="44.619" lon="-0.20099">
        <ele>68.4</ele>
        <time>2022-07-26T10:26:38Z</time>
      </trkpt>
      <trkpt lat="44.619" lon="-0.20101">
        <ele>67.9</ele>
        <time>2022-07-26T10:26:39Z</time>
      </trkpt>
      <trkpt lat="44.61901" lon="-0.20103">
        <ele>67.9</ele>
        <time>2022-07-26T10:26:41Z</time>
      </trkpt>
      <trkpt lat="44.61902" lon="-0.20105">
        <ele>67.9</ele>
        <time>2022-07-26T10:26:42Z</time>
      </trkpt>
      <trkpt lat="44.61904" lon="-0.20106">
        <ele>67.8</ele>
        <time>2022-07-26T10:26:43Z</time>
      </trkpt>
      <trkpt lat="44.61905" lon="-0.20107">
        <ele>67.8</ele>
        <time>2022-07-26T10:26:44Z</time>
      </trkpt>
      <trkpt lat="44.61906" lon="-0.20107">
        <ele>67.8</ele>
        <time>2022-07-26T10:26:45Z</time>
      </trkpt>
      <trkpt lat="44.61908" lon="-0.20106">
        <ele>67.8</ele>
        <time>2022-07-26T10:26:47Z</time>
      </trkpt>
      <trkpt lat="44.6191" lon="-0.20105">
        <ele>67.8</ele>
        <time>2022-07-26T10:26:48Z</time>
      </trkpt>
      <trkpt lat="44.61911" lon="-0.20104">
        <ele>67.8</ele>
        <time>2022-07-26T10:26:49Z</time>
      </trkpt>
      <trkpt lat="44.61912" lon="-0.20104">
        <ele>67.8</ele>
        <time>2022-07-26T10:26:50Z</time>
      </trkpt>
      <trkpt lat="44.61914" lon="-0.20103">
        <ele>67.7</ele>
        <time>2022-07-26T10:26:51Z</time>
      </trkpt>
      <trkpt lat="44.61917" lon="-0.20102">
        <ele>67.7</ele>
        <time>2022-07-26T10:26:53Z</time>
      </trkpt>
      <trkpt lat="44.61918" lon="-0.20102">
        <ele>67.7</ele>
        <time>2022-07-26T10:26:54Z</time>
      </trkpt>
      <trkpt lat="44.61919" lon="-0.20101">
        <ele>67.7</ele>
        <time>2022-07-26T10:26:55Z</time>
      </trkpt>
      <trkpt lat="44.6192" lon="-0.20101">
        <ele>67.7</ele>
        <time>2022-07-26T10:26:56Z</time>
      </trkpt>
      <trkpt lat="44.61921" lon="-0.20101">
        <ele>67.7</ele>
        <time>2022-07-26T10:26:57Z</time>
      </trkpt>
      <trkpt lat="44.61922" lon="-0.201">
        <ele>67.7</ele>
        <time>2022-07-26T10:26:58Z</time>
      </trkpt>
      <trkpt lat="44.61923" lon="-0.20099">
        <ele>67.7</ele>
        <time>2022-07-26T10:26:59Z</time>
      </trkpt>
      <trkpt lat="44.61924" lon="-0.20098">
        <ele>67.7</ele>
        <time>2022-07-26T10:27:00Z</time>
      </trkpt>
      <trkpt lat="44.61925" lon="-0.20097">
        <ele>67.7</ele>
        <time>2022-07-26T10:27:01Z</time>
      </trkpt>
      <trkpt lat="44.61926" lon="-0.20097">
        <ele>67.7</ele>
        <time>2022-07-26T10:27:03Z</time>
      </trkpt>
      <trkpt lat="44.61928" lon="-0.20098">
        <ele>67.7</ele>
        <time>2022-07-26T10:27:04Z</time>
      </trkpt>
      <trkpt lat="44.61929" lon="-0.20099">
        <ele>67.7</ele>
        <time>2022-07-26T10:27:05Z</time>
      </trkpt>
      <trkpt lat="44.61931" lon="-0.201">
        <ele>67.7</ele>
        <time>2022-07-26T10:27:06Z</time>
      </trkpt>
      <trkpt lat="44.61932" lon="-0.201">
        <ele>67.7</ele>
        <time>2022-07-26T10:27:07Z</time>
      </trkpt>
      <trkpt lat="44.61935" lon="-0.201">
        <ele>67.8</ele>
        <time>2022-07-26T10:27:09Z</time>
      </trkpt>
      <trkpt lat="44.61935" lon="-0.201">
        <ele>67.8</ele>
        <time>2022-07-26T10:27:10Z</time>
      </trkpt>
      <trkpt lat="44.61936" lon="-0.201">
        <ele>67.8</ele>
        <time>2022-07-26T10:27:11Z</time>
      </trkpt>
      <trkpt lat="44.61937" lon="-0.201">
        <ele>67.8</ele>
        <time>2022-07-26T10:27:12Z</time>
      </trkpt>
      <trkpt lat="44.61938" lon="-0.20101">
        <ele>67.8</ele>
        <time>2022-07-26T10:27:13Z</time>
      </trkpt>
      <trkpt lat="44.6194" lon="-0.20101">
        <ele>67.8</ele>
        <time>2022-07-26T10:27:14Z</time>
      </trkpt>
      <trkpt lat="44.61941" lon="-0.20101">
        <ele>67.8</ele>
        <time>2022-07-26T10:27:15Z</time>
      </trkpt>
      <trkpt lat="44.61942" lon="-0.20102">
        <ele>67.8</ele>
        <time>2022-07-26T10:27:16Z</time>
      </trkpt>
      <trkpt lat="44.61943" lon="-0.20102">
        <ele>67.8</ele>
        <time>2022-07-26T10:27:17Z</time>
      </trkpt>
      <trkpt lat="44.61945" lon="-0.20102">
        <ele>67.8</ele>
        <time>2022-07-26T10:27:18Z</time>
      </trkpt>
      <trkpt lat="44.61946" lon="-0.20103">
        <ele>67.8</ele>
        <time>2022-07-26T10:27:19Z</time>
      </trkpt>
      <trkpt lat="44.61947" lon="-0.20103">
        <ele>67.8</ele>
        <time>2022-07-26T10:27:20Z</time>
      </trkpt>
      <trkpt lat="44.61948" lon="-0.20103">
        <ele>67.9</ele>
        <time>2022-07-26T10:27:21Z</time>
      </trkpt>
      <trkpt lat="44.6195" lon="-0.20103">
        <ele>67.9</ele>
        <time>2022-07-26T10:27:22Z</time>
      </trkpt>
      <trkpt lat="44.61952" lon="-0.20103">
        <ele>67.9</ele>
        <time>2022-07-26T10:27:23Z</time>
      </trkpt>
      <trkpt lat="44.61953" lon="-0.20103">
        <ele>67.9</ele>
        <time>2022-07-26T10:27:24Z</time>
      </trkpt>
      <trkpt lat="44.61955" lon="-0.20103">
        <ele>67.9</ele>
        <time>2022-07-26T10:27:26Z</time>
      </trkpt>
      <trkpt lat="44.61956" lon="-0.20104">
        <ele>67.9</ele>
        <time>2022-07-26T10:27:27Z</time>
      </trkpt>
      <trkpt lat="44.61958" lon="-0.20104">
        <ele>67.9</ele>
        <time>2022-07-26T10:27:28Z</time>
      </trkpt>
      <trkpt lat="44.61959" lon="-0.20105">
        <ele>67.9</ele>
        <time>2022-07-26T10:27:29Z</time>
      </trkpt>
      <trkpt lat="44.61961" lon="-0.20106">
        <ele>67.9</ele>
        <time>2022-07-26T10:27:30Z</time>
      </trkpt>
      <trkpt lat="44.61962" lon="-0.20106">
        <ele>67.9</ele>
        <time>2022-07-26T10:27:31Z</time>
      </trkpt>
      <trkpt lat="44.61964" lon="-0.20106">
        <ele>67.9</ele>
        <time>2022-07-26T10:27:33Z</time>
      </trkpt>
      <trkpt lat="44.61965" lon="-0.20106">
        <ele>67.9</ele>
        <time>2022-07-26T10:27:34Z</time>
      </trkpt>
      <trkpt lat="44.61966" lon="-0.20106">
        <ele>67.9</ele>
        <time>2022-07-26T10:27:35Z</time>
      </trkpt>
      <trkpt lat="44.61968" lon="-0.20105">
        <ele>67.9</ele>
        <time>2022-07-26T10:27:36Z</time>
      </trkpt>
      <trkpt lat="44.61969" lon="-0.20104">
        <ele>67.9</ele>
        <time>2022-07-26T10:27:37Z</time>
      </trkpt>
      <trkpt lat="44.61971" lon="-0.20104">
        <ele>67.9</ele>
        <time>2022-07-26T10:27:38Z</time>
      </trkpt>
      <trkpt lat="44.61972" lon="-0.20104">
        <ele>67.9</ele>
        <time>2022-07-26T10:27:39Z</time>
      </trkpt>
      <trkpt lat="44.61973" lon="-0.20104">
        <ele>67.9</ele>
        <time>2022-07-26T10:27:40Z</time>
      </trkpt>
      <trkpt lat="44.61974" lon="-0.20104">
        <ele>67.9</ele>
        <time>2022-07-26T10:27:41Z</time>
      </trkpt>
      <trkpt lat="44.61976" lon="-0.20105">
        <ele>67.9</ele>
        <time>2022-07-26T10:27:42Z</time>
      </trkpt>
      <trkpt lat="44.61977" lon="-0.20105">
        <ele>67.9</ele>
        <time>2022-07-26T10:27:43Z</time>
      </trkpt>
      <trkpt lat="44.61977" lon="-0.20105">
        <ele>67.9</ele>
        <time>2022-07-26T10:27:44Z</time>
      </trkpt>
      <trkpt lat="44.61979" lon="-0.20106">
        <ele>67.9</ele>
        <time>2022-07-26T10:27:45Z</time>
      </trkpt>
      <trkpt lat="44.61981" lon="-0.20106">
        <ele>67.9</ele>
        <time>2022-07-26T10:27:47Z</time>
      </trkpt>
      <trkpt lat="44.61982" lon="-0.20107">
        <ele>67.9</ele>
        <time>2022-07-26T10:27:48Z</time>
      </trkpt>
      <trkpt lat="44.61984" lon="-0.20107">
        <ele>67.9</ele>
        <time>2022-07-26T10:27:49Z</time>
      </trkpt>
      <trkpt lat="44.61985" lon="-0.20107">
        <ele>67.9</ele>
        <time>2022-07-26T10:27:50Z</time>
      </trkpt>
      <trkpt lat="44.61984" lon="-0.20107">
        <ele>67.9</ele>
        <time>2022-07-26T10:27:51Z</time>
      </trkpt>
      <trkpt lat="44.61983" lon="-0.20107">
        <ele>67.9</ele>
        <time>2022-07-26T10:27:52Z</time>
      </trkpt>
      <trkpt lat="44.61982" lon="-0.20107">
        <ele>67.9</ele>
        <time>2022-07-26T10:27:53Z</time>
      </trkpt>
      <trkpt lat="44.61981" lon="-0.20107">
        <ele>67.8</ele>
        <time>2022-07-26T10:27:54Z</time>
      </trkpt>
      <trkpt lat="44.61981" lon="-0.20107">
        <ele>67.8</ele>
        <time>2022-07-26T10:27:55Z</time>
      </trkpt>
      <trkpt lat="44.61981" lon="-0.20107">
        <ele>67.8</ele>
        <time>2022-07-26T10:27:56Z</time>
      </trkpt>
      <trkpt lat="44.61981" lon="-0.20107">
        <ele>67.8</ele>
        <time>2022-07-26T10:27:57Z</time>
      </trkpt>
      <trkpt lat="44.61982" lon="-0.20107">
        <ele>67.8</ele>
        <time>2022-07-26T10:27:58Z</time>
      </trkpt>
      <trkpt lat="44.61982" lon="-0.20107">
        <ele>67.8</ele>
        <time>2022-07-26T10:27:59Z</time>
      </trkpt>
      <trkpt lat="44.61982" lon="-0.20107">
        <ele>67.8</ele>
        <time>2022-07-26T10:28:00Z</time>
      </trkpt>
      <trkpt lat="44.61983" lon="-0.20107">
        <ele>67.8</ele>
        <time>2022-07-26T10:28:01Z</time>
      </trkpt>
      <trkpt lat="44.61983" lon="-0.20107">
        <ele>67.8</ele>
        <time>2022-07-26T10:28:02Z</time>
      </trkpt>
      <trkpt lat="44.61983" lon="-0.20107">
        <ele>67.8</ele>
        <time>2022-07-26T10:28:03Z</time>
      </trkpt>
      <trkpt lat="44.61984" lon="-0.20107">
        <ele>67.8</ele>
        <time>2022-07-26T10:28:04Z</time>
      </trkpt>
      <trkpt lat="44.61984" lon="-0.20107">
        <ele>67.8</ele>
        <time>2022-07-26T10:28:05Z</time>
      </trkpt>
      <trkpt lat="44.61984" lon="-0.20108">
        <ele>67.8</ele>
        <time>2022-07-26T10:28:06Z</time>
      </trkpt>
      <trkpt lat="44.61985" lon="-0.20108">
        <ele>67.8</ele>
        <time>2022-07-26T10:28:07Z</time>
      </trkpt>
      <trkpt lat="44.61985" lon="-0.20108">
        <ele>67.8</ele>
        <time>2022-07-26T10:28:08Z</time>
      </trkpt>
      <trkpt lat="44.61987" lon="-0.20108">
        <ele>67.8</ele>
        <time>2022-07-26T10:28:09Z</time>
      </trkpt>
      <trkpt lat="44.61989" lon="-0.20109">
        <ele>67.7</ele>
        <time>2022-07-26T10:28:11Z</time>
      </trkpt>
      <trkpt lat="44.61991" lon="-0.2011">
        <ele>67.7</ele>
        <time>2022-07-26T10:28:12Z</time>
      </trkpt>
      <trkpt lat="44.61993" lon="-0.2011">
        <ele>67.7</ele>
        <time>2022-07-26T10:28:13Z</time>
      </trkpt>
      <trkpt lat="44.61994" lon="-0.20111">
        <ele>67.6</ele>
        <time>2022-07-26T10:28:14Z</time>
      </trkpt>
      <trkpt lat="44.61996" lon="-0.20112">
        <ele>67.6</ele>
        <time>2022-07-26T10:28:15Z</time>
      </trkpt>
      <trkpt lat="44.62" lon="-0.20114">
        <ele>67.5</ele>
        <time>2022-07-26T10:28:17Z</time>
      </trkpt>
      <trkpt lat="44.62001" lon="-0.20115">
        <ele>67.5</ele>
        <time>2022-07-26T10:28:18Z</time>
      </trkpt>
      <trkpt lat="44.62002" lon="-0.20116">
        <ele>67.5</ele>
        <time>2022-07-26T10:28:19Z</time>
      </trkpt>
      <trkpt lat="44.62004" lon="-0.20117">
        <ele>67.4</ele>
        <time>2022-07-26T10:28:20Z</time>
      </trkpt>
      <trkpt lat="44.62005" lon="-0.20118">
        <ele>67.4</ele>
        <time>2022-07-26T10:28:21Z</time>
      </trkpt>
      <trkpt lat="44.62008" lon="-0.2012">
        <ele>67.3</ele>
        <time>2022-07-26T10:28:23Z</time>
      </trkpt>
      <trkpt lat="44.62009" lon="-0.20121">
        <ele>67.3</ele>
        <time>2022-07-26T10:28:24Z</time>
      </trkpt>
      <trkpt lat="44.6201" lon="-0.20122">
        <ele>67.3</ele>
        <time>2022-07-26T10:28:25Z</time>
      </trkpt>
      <trkpt lat="44.62012" lon="-0.20123">
        <ele>67.2</ele>
        <time>2022-07-26T10:28:26Z</time>
      </trkpt>
      <trkpt lat="44.62014" lon="-0.20124">
        <ele>67.2</ele>
        <time>2022-07-26T10:28:27Z</time>
      </trkpt>
      <trkpt lat="44.62015" lon="-0.20124">
        <ele>67.1</ele>
        <time>2022-07-26T10:28:28Z</time>
      </trkpt>
      <trkpt lat="44.62016" lon="-0.20125">
        <ele>67.1</ele>
        <time>2022-07-26T10:28:29Z</time>
      </trkpt>
      <trkpt lat="44.62018" lon="-0.20126">
        <ele>67.1</ele>
        <time>2022-07-26T10:28:30Z</time>
      </trkpt>
      <trkpt lat="44.62019" lon="-0.20127">
        <ele>67</ele>
        <time>2022-07-26T10:28:31Z</time>
      </trkpt>
      <trkpt lat="44.62021" lon="-0.20129">
        <ele>67</ele>
        <time>2022-07-26T10:28:33Z</time>
      </trkpt>
      <trkpt lat="44.62023" lon="-0.2013">
        <ele>66.9</ele>
        <time>2022-07-26T10:28:34Z</time>
      </trkpt>
      <trkpt lat="44.62024" lon="-0.2013">
        <ele>66.9</ele>
        <time>2022-07-26T10:28:35Z</time>
      </trkpt>
      <trkpt lat="44.62026" lon="-0.20132">
        <ele>66.8</ele>
        <time>2022-07-26T10:28:36Z</time>
      </trkpt>
      <trkpt lat="44.62027" lon="-0.20132">
        <ele>66.8</ele>
        <time>2022-07-26T10:28:37Z</time>
      </trkpt>
      <trkpt lat="44.62029" lon="-0.20133">
        <ele>66.7</ele>
        <time>2022-07-26T10:28:38Z</time>
      </trkpt>
      <trkpt lat="44.6203" lon="-0.20134">
        <ele>66.7</ele>
        <time>2022-07-26T10:28:39Z</time>
      </trkpt>
      <trkpt lat="44.62032" lon="-0.20134">
        <ele>66.6</ele>
        <time>2022-07-26T10:28:40Z</time>
      </trkpt>
      <trkpt lat="44.62033" lon="-0.20135">
        <ele>66.6</ele>
        <time>2022-07-26T10:28:41Z</time>
      </trkpt>
      <trkpt lat="44.62035" lon="-0.20136">
        <ele>66.6</ele>
        <time>2022-07-26T10:28:42Z</time>
      </trkpt>
      <trkpt lat="44.62036" lon="-0.20136">
        <ele>66.5</ele>
        <time>2022-07-26T10:28:43Z</time>
      </trkpt>
      <trkpt lat="44.62037" lon="-0.20137">
        <ele>66.5</ele>
        <time>2022-07-26T10:28:44Z</time>
      </trkpt>
      <trkpt lat="44.62039" lon="-0.20138">
        <ele>66.4</ele>
        <time>2022-07-26T10:28:45Z</time>
      </trkpt>
      <trkpt lat="44.6204" lon="-0.20138">
        <ele>66.4</ele>
        <time>2022-07-26T10:28:46Z</time>
      </trkpt>
      <trkpt lat="44.62041" lon="-0.20139">
        <ele>66.4</ele>
        <time>2022-07-26T10:28:47Z</time>
      </trkpt>
      <trkpt lat="44.62042" lon="-0.2014">
        <ele>66.3</ele>
        <time>2022-07-26T10:28:48Z</time>
      </trkpt>
      <trkpt lat="44.62043" lon="-0.2014">
        <ele>66.3</ele>
        <time>2022-07-26T10:28:49Z</time>
      </trkpt>
      <trkpt lat="44.62044" lon="-0.20141">
        <ele>66.3</ele>
        <time>2022-07-26T10:28:50Z</time>
      </trkpt>
      <trkpt lat="44.62045" lon="-0.20142">
        <ele>66.3</ele>
        <time>2022-07-26T10:28:51Z</time>
      </trkpt>
      <trkpt lat="44.62046" lon="-0.20142">
        <ele>66.2</ele>
        <time>2022-07-26T10:28:52Z</time>
      </trkpt>
      <trkpt lat="44.62047" lon="-0.20143">
        <ele>66.2</ele>
        <time>2022-07-26T10:28:53Z</time>
      </trkpt>
      <trkpt lat="44.62047" lon="-0.20144">
        <ele>66.2</ele>
        <time>2022-07-26T10:28:54Z</time>
      </trkpt>
      <trkpt lat="44.62048" lon="-0.20145">
        <ele>66.2</ele>
        <time>2022-07-26T10:28:55Z</time>
      </trkpt>
      <trkpt lat="44.6205" lon="-0.20146">
        <ele>66.1</ele>
        <time>2022-07-26T10:28:57Z</time>
      </trkpt>
      <trkpt lat="44.62051" lon="-0.20147">
        <ele>66.1</ele>
        <time>2022-07-26T10:28:58Z</time>
      </trkpt>
      <trkpt lat="44.62052" lon="-0.20148">
        <ele>66.1</ele>
        <time>2022-07-26T10:28:59Z</time>
      </trkpt>
      <trkpt lat="44.62053" lon="-0.20149">
        <ele>66.1</ele>
        <time>2022-07-26T10:29:00Z</time>
      </trkpt>
      <trkpt lat="44.62055" lon="-0.20149">
        <ele>66</ele>
        <time>2022-07-26T10:29:01Z</time>
      </trkpt>
      <trkpt lat="44.62056" lon="-0.2015">
        <ele>66</ele>
        <time>2022-07-26T10:29:02Z</time>
      </trkpt>
      <trkpt lat="44.62057" lon="-0.20151">
        <ele>66</ele>
        <time>2022-07-26T10:29:03Z</time>
      </trkpt>
      <trkpt lat="44.62059" lon="-0.20152">
        <ele>65.9</ele>
        <time>2022-07-26T10:29:05Z</time>
      </trkpt>
      <trkpt lat="44.6206" lon="-0.20153">
        <ele>65.9</ele>
        <time>2022-07-26T10:29:06Z</time>
      </trkpt>
      <trkpt lat="44.62062" lon="-0.20154">
        <ele>65.9</ele>
        <time>2022-07-26T10:29:07Z</time>
      </trkpt>
      <trkpt lat="44.62063" lon="-0.20155">
        <ele>65.8</ele>
        <time>2022-07-26T10:29:08Z</time>
      </trkpt>
      <trkpt lat="44.62064" lon="-0.20156">
        <ele>65.8</ele>
        <time>2022-07-26T10:29:09Z</time>
      </trkpt>
      <trkpt lat="44.62066" lon="-0.20157">
        <ele>65.8</ele>
        <time>2022-07-26T10:29:10Z</time>
      </trkpt>
      <trkpt lat="44.62067" lon="-0.20158">
        <ele>65.8</ele>
        <time>2022-07-26T10:29:11Z</time>
      </trkpt>
      <trkpt lat="44.62068" lon="-0.20159">
        <ele>65.7</ele>
        <time>2022-07-26T10:29:12Z</time>
      </trkpt>
      <trkpt lat="44.62069" lon="-0.2016">
        <ele>65.7</ele>
        <time>2022-07-26T10:29:13Z</time>
      </trkpt>
      <trkpt lat="44.6207" lon="-0.20161">
        <ele>65.7</ele>
        <time>2022-07-26T10:29:14Z</time>
      </trkpt>
      <trkpt lat="44.62071" lon="-0.20162">
        <ele>65.7</ele>
        <time>2022-07-26T10:29:15Z</time>
      </trkpt>
      <trkpt lat="44.62073" lon="-0.20164">
        <ele>65.6</ele>
        <time>2022-07-26T10:29:17Z</time>
      </trkpt>
      <trkpt lat="44.62074" lon="-0.20164">
        <ele>65.6</ele>
        <time>2022-07-26T10:29:18Z</time>
      </trkpt>
      <trkpt lat="44.62075" lon="-0.20164">
        <ele>65.6</ele>
        <time>2022-07-26T10:29:19Z</time>
      </trkpt>
      <trkpt lat="44.62076" lon="-0.20164">
        <ele>65.6</ele>
        <time>2022-07-26T10:29:20Z</time>
      </trkpt>
      <trkpt lat="44.62077" lon="-0.20164">
        <ele>65.5</ele>
        <time>2022-07-26T10:29:21Z</time>
      </trkpt>
      <trkpt lat="44.62078" lon="-0.20163">
        <ele>65.5</ele>
        <time>2022-07-26T10:29:22Z</time>
      </trkpt>
      <trkpt lat="44.62078" lon="-0.20162">
        <ele>65.5</ele>
        <time>2022-07-26T10:29:23Z</time>
      </trkpt>
      <trkpt lat="44.62079" lon="-0.2016">
        <ele>65.9</ele>
        <time>2022-07-26T10:29:24Z</time>
      </trkpt>
      <trkpt lat="44.62079" lon="-0.20158">
        <ele>65.9</ele>
        <time>2022-07-26T10:29:26Z</time>
      </trkpt>
      <trkpt lat="44.62079" lon="-0.20157">
        <ele>66.2</ele>
        <time>2022-07-26T10:29:27Z</time>
      </trkpt>
      <trkpt lat="44.62079" lon="-0.20155">
        <ele>66.2</ele>
        <time>2022-07-26T10:29:28Z</time>
      </trkpt>
      <trkpt lat="44.62079" lon="-0.20154">
        <ele>66.2</ele>
        <time>2022-07-26T10:29:29Z</time>
      </trkpt>
      <trkpt lat="44.6208" lon="-0.20153">
        <ele>66.6</ele>
        <time>2022-07-26T10:29:31Z</time>
      </trkpt>
      <trkpt lat="44.6208" lon="-0.20151">
        <ele>66.6</ele>
        <time>2022-07-26T10:29:32Z</time>
      </trkpt>
      <trkpt lat="44.6208" lon="-0.2015">
        <ele>66.6</ele>
        <time>2022-07-26T10:29:33Z</time>
      </trkpt>
      <trkpt lat="44.6208" lon="-0.20148">
        <ele>66.9</ele>
        <time>2022-07-26T10:29:35Z</time>
      </trkpt>
      <trkpt lat="44.6208" lon="-0.20146">
        <ele>66.9</ele>
        <time>2022-07-26T10:29:36Z</time>
      </trkpt>
      <trkpt lat="44.62079" lon="-0.20143">
        <ele>67.3</ele>
        <time>2022-07-26T10:29:38Z</time>
      </trkpt>
      <trkpt lat="44.62079" lon="-0.20141">
        <ele>67.3</ele>
        <time>2022-07-26T10:29:39Z</time>
      </trkpt>
      <trkpt lat="44.62078" lon="-0.20139">
        <ele>67.6</ele>
        <time>2022-07-26T10:29:40Z</time>
      </trkpt>
      <trkpt lat="44.62077" lon="-0.20137">
        <ele>67.7</ele>
        <time>2022-07-26T10:29:41Z</time>
      </trkpt>
      <trkpt lat="44.62077" lon="-0.20135">
        <ele>68</ele>
        <time>2022-07-26T10:29:42Z</time>
      </trkpt>
      <trkpt lat="44.62076" lon="-0.20133">
        <ele>68</ele>
        <time>2022-07-26T10:29:43Z</time>
      </trkpt>
      <trkpt lat="44.62076" lon="-0.20132">
        <ele>68</ele>
        <time>2022-07-26T10:29:45Z</time>
      </trkpt>
      <trkpt lat="44.62075" lon="-0.2013">
        <ele>68.3</ele>
        <time>2022-07-26T10:29:46Z</time>
      </trkpt>
      <trkpt lat="44.62074" lon="-0.20127">
        <ele>68.7</ele>
        <time>2022-07-26T10:29:47Z</time>
      </trkpt>
      <trkpt lat="44.62074" lon="-0.20126">
        <ele>68.7</ele>
        <time>2022-07-26T10:29:48Z</time>
      </trkpt>
      <trkpt lat="44.62074" lon="-0.20125">
        <ele>68.7</ele>
        <time>2022-07-26T10:29:49Z</time>
      </trkpt>
      <trkpt lat="44.62073" lon="-0.20122">
        <ele>69</ele>
        <time>2022-07-26T10:29:50Z</time>
      </trkpt>
      <trkpt lat="44.62073" lon="-0.20121">
        <ele>69</ele>
        <time>2022-07-26T10:29:51Z</time>
      </trkpt>
      <trkpt lat="44.62073" lon="-0.20119">
        <ele>69</ele>
        <time>2022-07-26T10:29:52Z</time>
      </trkpt>
      <trkpt lat="44.62073" lon="-0.20115">
        <ele>69.2</ele>
        <time>2022-07-26T10:29:53Z</time>
      </trkpt>
      <trkpt lat="44.62073" lon="-0.20113">
        <ele>69.4</ele>
        <time>2022-07-26T10:29:55Z</time>
      </trkpt>
      <trkpt lat="44.62073" lon="-0.20111">
        <ele>69.4</ele>
        <time>2022-07-26T10:29:57Z</time>
      </trkpt>
      <trkpt lat="44.62072" lon="-0.20109">
        <ele>69.7</ele>
        <time>2022-07-26T10:29:58Z</time>
      </trkpt>
      <trkpt lat="44.62072" lon="-0.20107">
        <ele>69.7</ele>
        <time>2022-07-26T10:29:59Z</time>
      </trkpt>
      <trkpt lat="44.62072" lon="-0.20105">
        <ele>69.9</ele>
        <time>2022-07-26T10:30:01Z</time>
      </trkpt>
      <trkpt lat="44.62071" lon="-0.20103">
        <ele>70</ele>
        <time>2022-07-26T10:30:02Z</time>
      </trkpt>
      <trkpt lat="44.62071" lon="-0.20101">
        <ele>70.2</ele>
        <time>2022-07-26T10:30:03Z</time>
      </trkpt>
      <trkpt lat="44.6207" lon="-0.201">
        <ele>70.2</ele>
        <time>2022-07-26T10:30:04Z</time>
      </trkpt>
      <trkpt lat="44.6207" lon="-0.20098">
        <ele>70.2</ele>
        <time>2022-07-26T10:30:05Z</time>
      </trkpt>
      <trkpt lat="44.62069" lon="-0.20096">
        <ele>70.4</ele>
        <time>2022-07-26T10:30:07Z</time>
      </trkpt>
      <trkpt lat="44.62069" lon="-0.20094">
        <ele>70.4</ele>
        <time>2022-07-26T10:30:08Z</time>
      </trkpt>
      <trkpt lat="44.62068" lon="-0.20094">
        <ele>70.6</ele>
        <time>2022-07-26T10:30:09Z</time>
      </trkpt>
      <trkpt lat="44.62068" lon="-0.20094">
        <ele>70.6</ele>
        <time>2022-07-26T10:30:10Z</time>
      </trkpt>
      <trkpt lat="44.62067" lon="-0.20095">
        <ele>70.6</ele>
        <time>2022-07-26T10:30:12Z</time>
      </trkpt>
      <trkpt lat="44.62067" lon="-0.20096">
        <ele>70.6</ele>
        <time>2022-07-26T10:30:13Z</time>
      </trkpt>
      <trkpt lat="44.62067" lon="-0.20097">
        <ele>70.6</ele>
        <time>2022-07-26T10:30:14Z</time>
      </trkpt>
      <trkpt lat="44.62067" lon="-0.20097">
        <ele>70.4</ele>
        <time>2022-07-26T10:30:15Z</time>
      </trkpt>
      <trkpt lat="44.62067" lon="-0.20098">
        <ele>70.4</ele>
        <time>2022-07-26T10:30:16Z</time>
      </trkpt>
      <trkpt lat="44.62067" lon="-0.20098">
        <ele>70.4</ele>
        <time>2022-07-26T10:30:17Z</time>
      </trkpt>
      <trkpt lat="44.62067" lon="-0.20098">
        <ele>70.4</ele>
        <time>2022-07-26T10:30:18Z</time>
      </trkpt>
      <trkpt lat="44.62067" lon="-0.20099">
        <ele>70.4</ele>
        <time>2022-07-26T10:30:19Z</time>
      </trkpt>
      <trkpt lat="44.62067" lon="-0.20099">
        <ele>70.4</ele>
        <time>2022-07-26T10:30:20Z</time>
      </trkpt>
      <trkpt lat="44.62067" lon="-0.20099">
        <ele>70.4</ele>
        <time>2022-07-26T10:30:21Z</time>
      </trkpt>
      <trkpt lat="44.62067" lon="-0.20099">
        <ele>70.4</ele>
        <time>2022-07-26T10:30:22Z</time>
      </trkpt>
      <trkpt lat="44.62067" lon="-0.20099">
        <ele>70.4</ele>
        <time>2022-07-26T10:30:23Z</time>
      </trkpt>
      <trkpt lat="44.62068" lon="-0.20099">
        <ele>70.4</ele>
        <time>2022-07-26T10:30:24Z</time>
      </trkpt>
      <trkpt lat="44.62067" lon="-0.20098">
        <ele>70.4</ele>
        <time>2022-07-26T10:30:25Z</time>
      </trkpt>
      <trkpt lat="44.62068" lon="-0.20097">
        <ele>70.4</ele>
        <time>2022-07-26T10:30:26Z</time>
      </trkpt>
      <trkpt lat="44.62067" lon="-0.20097">
        <ele>70.6</ele>
        <time>2022-07-26T10:30:27Z</time>
      </trkpt>
      <trkpt lat="44.62067" lon="-0.20096">
        <ele>70.6</ele>
        <time>2022-07-26T10:30:28Z</time>
      </trkpt>
      <trkpt lat="44.62067" lon="-0.20094">
        <ele>70.6</ele>
        <time>2022-07-26T10:30:29Z</time>
      </trkpt>
      <trkpt lat="44.62067" lon="-0.20093">
        <ele>70.9</ele>
        <time>2022-07-26T10:30:30Z</time>
      </trkpt>
      <trkpt lat="44.62067" lon="-0.2009">
        <ele>70.9</ele>
        <time>2022-07-26T10:30:32Z</time>
      </trkpt>
      <trkpt lat="44.62067" lon="-0.20088">
        <ele>71.1</ele>
        <time>2022-07-26T10:30:33Z</time>
      </trkpt>
      <trkpt lat="44.62067" lon="-0.20085">
        <ele>71.1</ele>
        <time>2022-07-26T10:30:34Z</time>
      </trkpt>
      <trkpt lat="44.62066" lon="-0.20081">
        <ele>71.3</ele>
        <time>2022-07-26T10:30:35Z</time>
      </trkpt>
      <trkpt lat="44.62066" lon="-0.2008">
        <ele>71.6</ele>
        <time>2022-07-26T10:30:36Z</time>
      </trkpt>
      <trkpt lat="44.62066" lon="-0.20078">
        <ele>71.6</ele>
        <time>2022-07-26T10:30:38Z</time>
      </trkpt>
      <trkpt lat="44.62066" lon="-0.20076">
        <ele>71.6</ele>
        <time>2022-07-26T10:30:39Z</time>
      </trkpt>
      <trkpt lat="44.62066" lon="-0.20074">
        <ele>71.8</ele>
        <time>2022-07-26T10:30:40Z</time>
      </trkpt>
      <trkpt lat="44.62065" lon="-0.20072">
        <ele>72</ele>
        <time>2022-07-26T10:30:41Z</time>
      </trkpt>
      <trkpt lat="44.62065" lon="-0.20068">
        <ele>72.2</ele>
        <time>2022-07-26T10:30:43Z</time>
      </trkpt>
      <trkpt lat="44.62065" lon="-0.20066">
        <ele>72.4</ele>
        <time>2022-07-26T10:30:44Z</time>
      </trkpt>
      <trkpt lat="44.62065" lon="-0.20064">
        <ele>72.4</ele>
        <time>2022-07-26T10:30:45Z</time>
      </trkpt>
      <trkpt lat="44.62064" lon="-0.20062">
        <ele>72.6</ele>
        <time>2022-07-26T10:30:46Z</time>
      </trkpt>
      <trkpt lat="44.62064" lon="-0.2006">
        <ele>72.6</ele>
        <time>2022-07-26T10:30:47Z</time>
      </trkpt>
      <trkpt lat="44.62064" lon="-0.20058">
        <ele>72.7</ele>
        <time>2022-07-26T10:30:48Z</time>
      </trkpt>
      <trkpt lat="44.62064" lon="-0.20056">
        <ele>72.7</ele>
        <time>2022-07-26T10:30:49Z</time>
      </trkpt>
      <trkpt lat="44.62064" lon="-0.20054">
        <ele>72.9</ele>
        <time>2022-07-26T10:30:50Z</time>
      </trkpt>
      <trkpt lat="44.62064" lon="-0.20052">
        <ele>72.9</ele>
        <time>2022-07-26T10:30:51Z</time>
      </trkpt>
      <trkpt lat="44.62064" lon="-0.2005">
        <ele>73</ele>
        <time>2022-07-26T10:30:53Z</time>
      </trkpt>
      <trkpt lat="44.62064" lon="-0.20048">
        <ele>73</ele>
        <time>2022-07-26T10:30:54Z</time>
      </trkpt>
      <trkpt lat="44.62064" lon="-0.20045">
        <ele>73.2</ele>
        <time>2022-07-26T10:30:55Z</time>
      </trkpt>
      <trkpt lat="44.62064" lon="-0.20044">
        <ele>73.2</ele>
        <time>2022-07-26T10:30:56Z</time>
      </trkpt>
      <trkpt lat="44.62064" lon="-0.20043">
        <ele>73.2</ele>
        <time>2022-07-26T10:30:57Z</time>
      </trkpt>
      <trkpt lat="44.62064" lon="-0.2004">
        <ele>73.3</ele>
        <time>2022-07-26T10:30:58Z</time>
      </trkpt>
      <trkpt lat="44.62064" lon="-0.20039">
        <ele>73.3</ele>
        <time>2022-07-26T10:30:59Z</time>
      </trkpt>
      <trkpt lat="44.62063" lon="-0.20038">
        <ele>73.3</ele>
        <time>2022-07-26T10:31:00Z</time>
      </trkpt>
      <trkpt lat="44.62063" lon="-0.20036">
        <ele>73.5</ele>
        <time>2022-07-26T10:31:02Z</time>
      </trkpt>
      <trkpt lat="44.62063" lon="-0.20034">
        <ele>73.5</ele>
        <time>2022-07-26T10:31:03Z</time>
      </trkpt>
      <trkpt lat="44.62063" lon="-0.20033">
        <ele>73.6</ele>
        <time>2022-07-26T10:31:04Z</time>
      </trkpt>
      <trkpt lat="44.62062" lon="-0.2003">
        <ele>73.9</ele>
        <time>2022-07-26T10:31:05Z</time>
      </trkpt>
      <trkpt lat="44.62062" lon="-0.20029">
        <ele>73.9</ele>
        <time>2022-07-26T10:31:06Z</time>
      </trkpt>
      <trkpt lat="44.62062" lon="-0.20028">
        <ele>74.1</ele>
        <time>2022-07-26T10:31:07Z</time>
      </trkpt>
      <trkpt lat="44.62062" lon="-0.20026">
        <ele>74.1</ele>
        <time>2022-07-26T10:31:08Z</time>
      </trkpt>
      <trkpt lat="44.62061" lon="-0.20024">
        <ele>74.2</ele>
        <time>2022-07-26T10:31:09Z</time>
      </trkpt>
      <trkpt lat="44.6206" lon="-0.20021">
        <ele>74.2</ele>
        <time>2022-07-26T10:31:10Z</time>
      </trkpt>
      <trkpt lat="44.6206" lon="-0.20019">
        <ele>74.3</ele>
        <time>2022-07-26T10:31:12Z</time>
      </trkpt>
      <trkpt lat="44.6206" lon="-0.20017">
        <ele>74.3</ele>
        <time>2022-07-26T10:31:13Z</time>
      </trkpt>
      <trkpt lat="44.6206" lon="-0.20015">
        <ele>74.4</ele>
        <time>2022-07-26T10:31:15Z</time>
      </trkpt>
      <trkpt lat="44.62059" lon="-0.20014">
        <ele>74.4</ele>
        <time>2022-07-26T10:31:16Z</time>
      </trkpt>
      <trkpt lat="44.62059" lon="-0.20012">
        <ele>74.7</ele>
        <time>2022-07-26T10:31:17Z</time>
      </trkpt>
      <trkpt lat="44.62059" lon="-0.2001">
        <ele>74.8</ele>
        <time>2022-07-26T10:31:18Z</time>
      </trkpt>
      <trkpt lat="44.62059" lon="-0.20008">
        <ele>74.8</ele>
        <time>2022-07-26T10:31:19Z</time>
      </trkpt>
      <trkpt lat="44.62059" lon="-0.20006">
        <ele>74.6</ele>
        <time>2022-07-26T10:31:20Z</time>
      </trkpt>
      <trkpt lat="44.6206" lon="-0.20005">
        <ele>74.6</ele>
        <time>2022-07-26T10:31:21Z</time>
      </trkpt>
      <trkpt lat="44.6206" lon="-0.20003">
        <ele>74.6</ele>
        <time>2022-07-26T10:31:23Z</time>
      </trkpt>
      <trkpt lat="44.6206" lon="-0.20002">
        <ele>74.7</ele>
        <time>2022-07-26T10:31:24Z</time>
      </trkpt>
      <trkpt lat="44.6206" lon="-0.2">
        <ele>74.7</ele>
        <time>2022-07-26T10:31:25Z</time>
      </trkpt>
      <trkpt lat="44.6206" lon="-0.19999">
        <ele>74.7</ele>
        <time>2022-07-26T10:31:26Z</time>
      </trkpt>
      <trkpt lat="44.6206" lon="-0.19997">
        <ele>74.8</ele>
        <time>2022-07-26T10:31:27Z</time>
      </trkpt>
      <trkpt lat="44.6206" lon="-0.19996">
        <ele>74.8</ele>
        <time>2022-07-26T10:31:28Z</time>
      </trkpt>
      <trkpt lat="44.6206" lon="-0.19995">
        <ele>74.8</ele>
        <time>2022-07-26T10:31:29Z</time>
      </trkpt>
      <trkpt lat="44.6206" lon="-0.19992">
        <ele>74.8</ele>
        <time>2022-07-26T10:31:31Z</time>
      </trkpt>
      <trkpt lat="44.6206" lon="-0.19991">
        <ele>74.8</ele>
        <time>2022-07-26T10:31:32Z</time>
      </trkpt>
      <trkpt lat="44.6206" lon="-0.19989">
        <ele>74.9</ele>
        <time>2022-07-26T10:31:33Z</time>
      </trkpt>
      <trkpt lat="44.6206" lon="-0.19988">
        <ele>74.9</ele>
        <time>2022-07-26T10:31:34Z</time>
      </trkpt>
      <trkpt lat="44.6206" lon="-0.19985">
        <ele>74.9</ele>
        <time>2022-07-26T10:31:35Z</time>
      </trkpt>
      <trkpt lat="44.6206" lon="-0.19984">
        <ele>74.9</ele>
        <time>2022-07-26T10:31:36Z</time>
      </trkpt>
      <trkpt lat="44.6206" lon="-0.19982">
        <ele>74.9</ele>
        <time>2022-07-26T10:31:37Z</time>
      </trkpt>
      <trkpt lat="44.6206" lon="-0.1998">
        <ele>74.9</ele>
        <time>2022-07-26T10:31:38Z</time>
      </trkpt>
      <trkpt lat="44.62059" lon="-0.19979">
        <ele>74.9</ele>
        <time>2022-07-26T10:31:39Z</time>
      </trkpt>
      <trkpt lat="44.62059" lon="-0.19975">
        <ele>75.2</ele>
        <time>2022-07-26T10:31:40Z</time>
      </trkpt>
      <trkpt lat="44.62059" lon="-0.19974">
        <ele>75.2</ele>
        <time>2022-07-26T10:31:42Z</time>
      </trkpt>
      <trkpt lat="44.62058" lon="-0.19972">
        <ele>75.2</ele>
        <time>2022-07-26T10:31:43Z</time>
      </trkpt>
      <trkpt lat="44.62058" lon="-0.19971">
        <ele>75.2</ele>
        <time>2022-07-26T10:31:44Z</time>
      </trkpt>
      <trkpt lat="44.62058" lon="-0.19969">
        <ele>75.2</ele>
        <time>2022-07-26T10:31:45Z</time>
      </trkpt>
      <trkpt lat="44.62057" lon="-0.19967">
        <ele>75.2</ele>
        <time>2022-07-26T10:31:47Z</time>
      </trkpt>
      <trkpt lat="44.62057" lon="-0.19965">
        <ele>75.2</ele>
        <time>2022-07-26T10:31:48Z</time>
      </trkpt>
      <trkpt lat="44.62056" lon="-0.19963">
        <ele>75.4</ele>
        <time>2022-07-26T10:31:49Z</time>
      </trkpt>
      <trkpt lat="44.62056" lon="-0.1996">
        <ele>75.4</ele>
        <time>2022-07-26T10:31:50Z</time>
      </trkpt>
      <trkpt lat="44.62055" lon="-0.19959">
        <ele>75.4</ele>
        <time>2022-07-26T10:31:51Z</time>
      </trkpt>
      <trkpt lat="44.62055" lon="-0.19958">
        <ele>75.4</ele>
        <time>2022-07-26T10:31:52Z</time>
      </trkpt>
      <trkpt lat="44.62055" lon="-0.19956">
        <ele>75.4</ele>
        <time>2022-07-26T10:31:53Z</time>
      </trkpt>
      <trkpt lat="44.62055" lon="-0.19955">
        <ele>75.4</ele>
        <time>2022-07-26T10:31:54Z</time>
      </trkpt>
      <trkpt lat="44.62055" lon="-0.19953">
        <ele>75.4</ele>
        <time>2022-07-26T10:31:55Z</time>
      </trkpt>
      <trkpt lat="44.62055" lon="-0.1995">
        <ele>75.3</ele>
        <time>2022-07-26T10:31:56Z</time>
      </trkpt>
      <trkpt lat="44.62055" lon="-0.19949">
        <ele>75.3</ele>
        <time>2022-07-26T10:31:57Z</time>
      </trkpt>
      <trkpt lat="44.62056" lon="-0.19948">
        <ele>75.4</ele>
        <time>2022-07-26T10:31:58Z</time>
      </trkpt>
      <trkpt lat="44.62056" lon="-0.19946">
        <ele>75.3</ele>
        <time>2022-07-26T10:31:59Z</time>
      </trkpt>
      <trkpt lat="44.62056" lon="-0.19944">
        <ele>75.1</ele>
        <time>2022-07-26T10:32:00Z</time>
      </trkpt>
      <trkpt lat="44.62057" lon="-0.19943">
        <ele>75.1</ele>
        <time>2022-07-26T10:32:02Z</time>
      </trkpt>
      <trkpt lat="44.62057" lon="-0.1994">
        <ele>75.1</ele>
        <time>2022-07-26T10:32:03Z</time>
      </trkpt>
      <trkpt lat="44.62057" lon="-0.19939">
        <ele>75.1</ele>
        <time>2022-07-26T10:32:04Z</time>
      </trkpt>
      <trkpt lat="44.62057" lon="-0.19936">
        <ele>75</ele>
        <time>2022-07-26T10:32:05Z</time>
      </trkpt>
      <trkpt lat="44.62058" lon="-0.19934">
        <ele>75</ele>
        <time>2022-07-26T10:32:06Z</time>
      </trkpt>
      <trkpt lat="44.62058" lon="-0.19933">
        <ele>75</ele>
        <time>2022-07-26T10:32:07Z</time>
      </trkpt>
      <trkpt lat="44.62058" lon="-0.1993">
        <ele>75</ele>
        <time>2022-07-26T10:32:09Z</time>
      </trkpt>
      <trkpt lat="44.62058" lon="-0.19929">
        <ele>74.9</ele>
        <time>2022-07-26T10:32:10Z</time>
      </trkpt>
      <trkpt lat="44.62058" lon="-0.19925">
        <ele>74.9</ele>
        <time>2022-07-26T10:32:11Z</time>
      </trkpt>
      <trkpt lat="44.62058" lon="-0.19924">
        <ele>74.9</ele>
        <time>2022-07-26T10:32:12Z</time>
      </trkpt>
      <trkpt lat="44.62058" lon="-0.19923">
        <ele>74.9</ele>
        <time>2022-07-26T10:32:13Z</time>
      </trkpt>
      <trkpt lat="44.62058" lon="-0.1992">
        <ele>74.8</ele>
        <time>2022-07-26T10:32:14Z</time>
      </trkpt>
      <trkpt lat="44.62058" lon="-0.19919">
        <ele>74.8</ele>
        <time>2022-07-26T10:32:15Z</time>
      </trkpt>
      <trkpt lat="44.62057" lon="-0.19918">
        <ele>74.8</ele>
        <time>2022-07-26T10:32:16Z</time>
      </trkpt>
      <trkpt lat="44.62057" lon="-0.19916">
        <ele>74.8</ele>
        <time>2022-07-26T10:32:17Z</time>
      </trkpt>
      <trkpt lat="44.62057" lon="-0.19913">
        <ele>74.8</ele>
        <time>2022-07-26T10:32:19Z</time>
      </trkpt>
      <trkpt lat="44.62057" lon="-0.19911">
        <ele>74.7</ele>
        <time>2022-07-26T10:32:20Z</time>
      </trkpt>
      <trkpt lat="44.62058" lon="-0.1991">
        <ele>74.8</ele>
        <time>2022-07-26T10:32:21Z</time>
      </trkpt>
      <trkpt lat="44.62058" lon="-0.1991">
        <ele>74.8</ele>
        <time>2022-07-26T10:32:22Z</time>
      </trkpt>
      <trkpt lat="44.62058" lon="-0.1991">
        <ele>74.8</ele>
        <time>2022-07-26T10:32:23Z</time>
      </trkpt>
      <trkpt lat="44.62058" lon="-0.1991">
        <ele>74.8</ele>
        <time>2022-07-26T10:32:24Z</time>
      </trkpt>
      <trkpt lat="44.62058" lon="-0.1991">
        <ele>74.8</ele>
        <time>2022-07-26T10:32:25Z</time>
      </trkpt>
      <trkpt lat="44.62058" lon="-0.1991">
        <ele>74.8</ele>
        <time>2022-07-26T10:32:26Z</time>
      </trkpt>
      <trkpt lat="44.62058" lon="-0.1991">
        <ele>74.8</ele>
        <time>2022-07-26T10:32:27Z</time>
      </trkpt>
      <trkpt lat="44.62058" lon="-0.19911">
        <ele>74.8</ele>
        <time>2022-07-26T10:32:28Z</time>
      </trkpt>
      <trkpt lat="44.62058" lon="-0.19911">
        <ele>74.8</ele>
        <time>2022-07-26T10:32:29Z</time>
      </trkpt>
      <trkpt lat="44.62058" lon="-0.19911">
        <ele>74.8</ele>
        <time>2022-07-26T10:32:30Z</time>
      </trkpt>
      <trkpt lat="44.62058" lon="-0.19911">
        <ele>74.8</ele>
        <time>2022-07-26T10:32:32Z</time>
      </trkpt>
      <trkpt lat="44.62058" lon="-0.1991">
        <ele>74.8</ele>
        <time>2022-07-26T10:32:33Z</time>
      </trkpt>
      <trkpt lat="44.62058" lon="-0.1991">
        <ele>74.8</ele>
        <time>2022-07-26T10:32:34Z</time>
      </trkpt>
      <trkpt lat="44.62059" lon="-0.19909">
        <ele>74.8</ele>
        <time>2022-07-26T10:32:35Z</time>
      </trkpt>
      <trkpt lat="44.6206" lon="-0.19909">
        <ele>74.6</ele>
        <time>2022-07-26T10:32:36Z</time>
      </trkpt>
      <trkpt lat="44.62061" lon="-0.19908">
        <ele>74.6</ele>
        <time>2022-07-26T10:32:37Z</time>
      </trkpt>
      <trkpt lat="44.62062" lon="-0.19908">
        <ele>74.6</ele>
        <time>2022-07-26T10:32:38Z</time>
      </trkpt>
      <trkpt lat="44.62063" lon="-0.19908">
        <ele>74.4</ele>
        <time>2022-07-26T10:32:39Z</time>
      </trkpt>
      <trkpt lat="44.62065" lon="-0.19908">
        <ele>74.4</ele>
        <time>2022-07-26T10:32:40Z</time>
      </trkpt>
      <trkpt lat="44.62066" lon="-0.19908">
        <ele>74.3</ele>
        <time>2022-07-26T10:32:41Z</time>
      </trkpt>
      <trkpt lat="44.62067" lon="-0.19908">
        <ele>74.3</ele>
        <time>2022-07-26T10:32:42Z</time>
      </trkpt>
      <trkpt lat="44.6207" lon="-0.19907">
        <ele>74.2</ele>
        <time>2022-07-26T10:32:44Z</time>
      </trkpt>
      <trkpt lat="44.62071" lon="-0.19907">
        <ele>74.2</ele>
        <time>2022-07-26T10:32:45Z</time>
      </trkpt>
      <trkpt lat="44.62072" lon="-0.19906">
        <ele>74.1</ele>
        <time>2022-07-26T10:32:46Z</time>
      </trkpt>
      <trkpt lat="44.62073" lon="-0.19905">
        <ele>74.1</ele>
        <time>2022-07-26T10:32:47Z</time>
      </trkpt>
      <trkpt lat="44.62073" lon="-0.19904">
        <ele>74.2</ele>
        <time>2022-07-26T10:32:48Z</time>
      </trkpt>
      <trkpt lat="44.62076" lon="-0.19904">
        <ele>74</ele>
        <time>2022-07-26T10:32:50Z</time>
      </trkpt>
      <trkpt lat="44.62077" lon="-0.19904">
        <ele>74</ele>
        <time>2022-07-26T10:32:51Z</time>
      </trkpt>
      <trkpt lat="44.62078" lon="-0.19904">
        <ele>73.9</ele>
        <time>2022-07-26T10:32:52Z</time>
      </trkpt>
      <trkpt lat="44.62081" lon="-0.19905">
        <ele>74</ele>
        <time>2022-07-26T10:32:54Z</time>
      </trkpt>
      <trkpt lat="44.62082" lon="-0.19905">
        <ele>73.9</ele>
        <time>2022-07-26T10:32:55Z</time>
      </trkpt>
      <trkpt lat="44.62085" lon="-0.19906">
        <ele>73.8</ele>
        <time>2022-07-26T10:32:57Z</time>
      </trkpt>
      <trkpt lat="44.62085" lon="-0.19906">
        <ele>73.8</ele>
        <time>2022-07-26T10:32:58Z</time>
      </trkpt>
      <trkpt lat="44.62087" lon="-0.19906">
        <ele>73.8</ele>
        <time>2022-07-26T10:32:59Z</time>
      </trkpt>
      <trkpt lat="44.62088" lon="-0.19906">
        <ele>73.7</ele>
        <time>2022-07-26T10:33:00Z</time>
      </trkpt>
      <trkpt lat="44.6209" lon="-0.19905">
        <ele>73.7</ele>
        <time>2022-07-26T10:33:02Z</time>
      </trkpt>
      <trkpt lat="44.62091" lon="-0.19905">
        <ele>73.7</ele>
        <time>2022-07-26T10:33:03Z</time>
      </trkpt>
      <trkpt lat="44.62092" lon="-0.19905">
        <ele>73.7</ele>
        <time>2022-07-26T10:33:04Z</time>
      </trkpt>
      <trkpt lat="44.62095" lon="-0.19905">
        <ele>73.6</ele>
        <time>2022-07-26T10:33:05Z</time>
      </trkpt>
      <trkpt lat="44.62095" lon="-0.19905">
        <ele>73.6</ele>
        <time>2022-07-26T10:33:06Z</time>
      </trkpt>
      <trkpt lat="44.62096" lon="-0.19905">
        <ele>73.6</ele>
        <time>2022-07-26T10:33:07Z</time>
      </trkpt>
      <trkpt lat="44.62097" lon="-0.19905">
        <ele>73.6</ele>
        <time>2022-07-26T10:33:08Z</time>
      </trkpt>
      <trkpt lat="44.62098" lon="-0.19905">
        <ele>73.6</ele>
        <time>2022-07-26T10:33:09Z</time>
      </trkpt>
      <trkpt lat="44.62101" lon="-0.19905">
        <ele>73.6</ele>
        <time>2022-07-26T10:33:11Z</time>
      </trkpt>
      <trkpt lat="44.62102" lon="-0.19905">
        <ele>73.6</ele>
        <time>2022-07-26T10:33:12Z</time>
      </trkpt>
      <trkpt lat="44.62103" lon="-0.19905">
        <ele>73.5</ele>
        <time>2022-07-26T10:33:13Z</time>
      </trkpt>
      <trkpt lat="44.62104" lon="-0.19905">
        <ele>73.5</ele>
        <time>2022-07-26T10:33:14Z</time>
      </trkpt>
      <trkpt lat="44.62105" lon="-0.19904">
        <ele>73.5</ele>
        <time>2022-07-26T10:33:15Z</time>
      </trkpt>
      <trkpt lat="44.62106" lon="-0.19904">
        <ele>73.4</ele>
        <time>2022-07-26T10:33:16Z</time>
      </trkpt>
      <trkpt lat="44.62107" lon="-0.19904">
        <ele>73.4</ele>
        <time>2022-07-26T10:33:17Z</time>
      </trkpt>
      <trkpt lat="44.62109" lon="-0.19904">
        <ele>73.4</ele>
        <time>2022-07-26T10:33:18Z</time>
      </trkpt>
      <trkpt lat="44.6211" lon="-0.19904">
        <ele>73.4</ele>
        <time>2022-07-26T10:33:20Z</time>
      </trkpt>
      <trkpt lat="44.62111" lon="-0.19904">
        <ele>73.4</ele>
        <time>2022-07-26T10:33:21Z</time>
      </trkpt>
      <trkpt lat="44.62112" lon="-0.19904">
        <ele>73.3</ele>
        <time>2022-07-26T10:33:22Z</time>
      </trkpt>
      <trkpt lat="44.62113" lon="-0.19904">
        <ele>73.3</ele>
        <time>2022-07-26T10:33:23Z</time>
      </trkpt>
      <trkpt lat="44.62114" lon="-0.19904">
        <ele>73.3</ele>
        <time>2022-07-26T10:33:24Z</time>
      </trkpt>
      <trkpt lat="44.62116" lon="-0.19903">
        <ele>73.2</ele>
        <time>2022-07-26T10:33:25Z</time>
      </trkpt>
      <trkpt lat="44.62117" lon="-0.19903">
        <ele>73.2</ele>
        <time>2022-07-26T10:33:26Z</time>
      </trkpt>
      <trkpt lat="44.62118" lon="-0.19903">
        <ele>73.1</ele>
        <time>2022-07-26T10:33:27Z</time>
      </trkpt>
      <trkpt lat="44.62119" lon="-0.19903">
        <ele>73.1</ele>
        <time>2022-07-26T10:33:29Z</time>
      </trkpt>
      <trkpt lat="44.6212" lon="-0.19903">
        <ele>73.1</ele>
        <time>2022-07-26T10:33:30Z</time>
      </trkpt>
      <trkpt lat="44.62121" lon="-0.19902">
        <ele>73</ele>
        <time>2022-07-26T10:33:31Z</time>
      </trkpt>
      <trkpt lat="44.62122" lon="-0.19901">
        <ele>73</ele>
        <time>2022-07-26T10:33:32Z</time>
      </trkpt>
      <trkpt lat="44.62122" lon="-0.19901">
        <ele>73</ele>
        <time>2022-07-26T10:33:33Z</time>
      </trkpt>
      <trkpt lat="44.62123" lon="-0.199">
        <ele>72.9</ele>
        <time>2022-07-26T10:33:34Z</time>
      </trkpt>
      <trkpt lat="44.62124" lon="-0.19899">
        <ele>72.8</ele>
        <time>2022-07-26T10:33:35Z</time>
      </trkpt>
      <trkpt lat="44.62124" lon="-0.19898">
        <ele>72.8</ele>
        <time>2022-07-26T10:33:36Z</time>
      </trkpt>
      <trkpt lat="44.62125" lon="-0.19898">
        <ele>72.8</ele>
        <time>2022-07-26T10:33:37Z</time>
      </trkpt>
      <trkpt lat="44.62125" lon="-0.19898">
        <ele>72.8</ele>
        <time>2022-07-26T10:33:38Z</time>
      </trkpt>
      <trkpt lat="44.62126" lon="-0.19898">
        <ele>72.8</ele>
        <time>2022-07-26T10:33:39Z</time>
      </trkpt>
      <trkpt lat="44.62126" lon="-0.19898">
        <ele>72.8</ele>
        <time>2022-07-26T10:33:40Z</time>
      </trkpt>
      <trkpt lat="44.62126" lon="-0.19898">
        <ele>72.8</ele>
        <time>2022-07-26T10:33:41Z</time>
      </trkpt>
      <trkpt lat="44.62126" lon="-0.19898">
        <ele>72.8</ele>
        <time>2022-07-26T10:33:42Z</time>
      </trkpt>
      <trkpt lat="44.62125" lon="-0.19898">
        <ele>72.8</ele>
        <time>2022-07-26T10:33:43Z</time>
      </trkpt>
      <trkpt lat="44.62125" lon="-0.19898">
        <ele>72.8</ele>
        <time>2022-07-26T10:33:45Z</time>
      </trkpt>
      <trkpt lat="44.62125" lon="-0.19898">
        <ele>72.8</ele>
        <time>2022-07-26T10:33:46Z</time>
      </trkpt>
      <trkpt lat="44.62125" lon="-0.19898">
        <ele>72.8</ele>
        <time>2022-07-26T10:33:47Z</time>
      </trkpt>
      <trkpt lat="44.62126" lon="-0.19897">
        <ele>72.8</ele>
        <time>2022-07-26T10:33:48Z</time>
      </trkpt>
      <trkpt lat="44.62126" lon="-0.19896">
        <ele>72.8</ele>
        <time>2022-07-26T10:33:50Z</time>
      </trkpt>
      <trkpt lat="44.62125" lon="-0.19896">
        <ele>72.8</ele>
        <time>2022-07-26T10:33:51Z</time>
      </trkpt>
      <trkpt lat="44.62125" lon="-0.19896">
        <ele>72.7</ele>
        <time>2022-07-26T10:33:52Z</time>
      </trkpt>
      <trkpt lat="44.62125" lon="-0.19895">
        <ele>72.7</ele>
        <time>2022-07-26T10:33:53Z</time>
      </trkpt>
      <trkpt lat="44.62125" lon="-0.19895">
        <ele>72.7</ele>
        <time>2022-07-26T10:33:54Z</time>
      </trkpt>
      <trkpt lat="44.62125" lon="-0.19895">
        <ele>72.7</ele>
        <time>2022-07-26T10:33:55Z</time>
      </trkpt>
      <trkpt lat="44.62125" lon="-0.19895">
        <ele>72.7</ele>
        <time>2022-07-26T10:33:56Z</time>
      </trkpt>
      <trkpt lat="44.62125" lon="-0.19895">
        <ele>72.7</ele>
        <time>2022-07-26T10:33:57Z</time>
      </trkpt>
      <trkpt lat="44.62125" lon="-0.19895">
        <ele>72.7</ele>
        <time>2022-07-26T10:33:58Z</time>
      </trkpt>
      <trkpt lat="44.62125" lon="-0.19895">
        <ele>72.7</ele>
        <time>2022-07-26T10:33:59Z</time>
      </trkpt>
      <trkpt lat="44.62125" lon="-0.19895">
        <ele>72.7</ele>
        <time>2022-07-26T10:34:00Z</time>
      </trkpt>
      <trkpt lat="44.62125" lon="-0.19895">
        <ele>72.7</ele>
        <time>2022-07-26T10:34:01Z</time>
      </trkpt>
      <trkpt lat="44.62125" lon="-0.19895">
        <ele>72.7</ele>
        <time>2022-07-26T10:34:02Z</time>
      </trkpt>
      <trkpt lat="44.62125" lon="-0.19895">
        <ele>72.7</ele>
        <time>2022-07-26T10:34:03Z</time>
      </trkpt>
      <trkpt lat="44.62125" lon="-0.19894">
        <ele>72.7</ele>
        <time>2022-07-26T10:34:04Z</time>
      </trkpt>
      <trkpt lat="44.62125" lon="-0.19894">
        <ele>72.7</ele>
        <time>2022-07-26T10:34:05Z</time>
      </trkpt>
      <trkpt lat="44.62125" lon="-0.19894">
        <ele>72.7</ele>
        <time>2022-07-26T10:34:06Z</time>
      </trkpt>
      <trkpt lat="44.62125" lon="-0.19894">
        <ele>72.7</ele>
        <time>2022-07-26T10:34:07Z</time>
      </trkpt>
      <trkpt lat="44.62125" lon="-0.19894">
        <ele>72.7</ele>
        <time>2022-07-26T10:34:08Z</time>
      </trkpt>
      <trkpt lat="44.62125" lon="-0.19894">
        <ele>72.7</ele>
        <time>2022-07-26T10:34:09Z</time>
      </trkpt>
      <trkpt lat="44.62125" lon="-0.19894">
        <ele>72.7</ele>
        <time>2022-07-26T10:34:10Z</time>
      </trkpt>
      <trkpt lat="44.62124" lon="-0.19894">
        <ele>72.7</ele>
        <time>2022-07-26T10:34:11Z</time>
      </trkpt>
      <trkpt lat="44.62124" lon="-0.19892">
        <ele>72.7</ele>
        <time>2022-07-26T10:34:12Z</time>
      </trkpt>
      <trkpt lat="44.62123" lon="-0.19891">
        <ele>72.7</ele>
        <time>2022-07-26T10:34:13Z</time>
      </trkpt>
      <trkpt lat="44.62123" lon="-0.19889">
        <ele>72.7</ele>
        <time>2022-07-26T10:34:14Z</time>
      </trkpt>
      <trkpt lat="44.62123" lon="-0.19888">
        <ele>72.7</ele>
        <time>2022-07-26T10:34:15Z</time>
      </trkpt>
      <trkpt lat="44.62123" lon="-0.19888">
        <ele>72.7</ele>
        <time>2022-07-26T10:34:16Z</time>
      </trkpt>
      <trkpt lat="44.62124" lon="-0.19889">
        <ele>72.5</ele>
        <time>2022-07-26T10:34:17Z</time>
      </trkpt>
      <trkpt lat="44.62125" lon="-0.19889">
        <ele>72.5</ele>
        <time>2022-07-26T10:34:18Z</time>
      </trkpt>
      <trkpt lat="44.62125" lon="-0.19889">
        <ele>72.5</ele>
        <time>2022-07-26T10:34:19Z</time>
      </trkpt>
      <trkpt lat="44.62125" lon="-0.19889">
        <ele>72.5</ele>
        <time>2022-07-26T10:34:20Z</time>
      </trkpt>
      <trkpt lat="44.62125" lon="-0.19888">
        <ele>72.5</ele>
        <time>2022-07-26T10:34:21Z</time>
      </trkpt>
      <trkpt lat="44.62125" lon="-0.19888">
        <ele>72.6</ele>
        <time>2022-07-26T10:34:22Z</time>
      </trkpt>
      <trkpt lat="44.62124" lon="-0.19888">
        <ele>72.6</ele>
        <time>2022-07-26T10:34:23Z</time>
      </trkpt>
      <trkpt lat="44.62124" lon="-0.19888">
        <ele>72.6</ele>
        <time>2022-07-26T10:34:24Z</time>
      </trkpt>
      <trkpt lat="44.62124" lon="-0.19888">
        <ele>72.6</ele>
        <time>2022-07-26T10:34:25Z</time>
      </trkpt>
      <trkpt lat="44.62124" lon="-0.19887">
        <ele>72.6</ele>
        <time>2022-07-26T10:34:26Z</time>
      </trkpt>
      <trkpt lat="44.62124" lon="-0.19887">
        <ele>72.4</ele>
        <time>2022-07-26T10:34:27Z</time>
      </trkpt>
      <trkpt lat="44.62123" lon="-0.19887">
        <ele>72.5</ele>
        <time>2022-07-26T10:34:28Z</time>
      </trkpt>
      <trkpt lat="44.62123" lon="-0.19886">
        <ele>72.5</ele>
        <time>2022-07-26T10:34:29Z</time>
      </trkpt>
      <trkpt lat="44.62123" lon="-0.19886">
        <ele>72.5</ele>
        <time>2022-07-26T10:34:30Z</time>
      </trkpt>
      <trkpt lat="44.62123" lon="-0.19886">
        <ele>72.6</ele>
        <time>2022-07-26T10:34:31Z</time>
      </trkpt>
      <trkpt lat="44.62123" lon="-0.19886">
        <ele>72.6</ele>
        <time>2022-07-26T10:34:32Z</time>
      </trkpt>
      <trkpt lat="44.62123" lon="-0.19885">
        <ele>72.6</ele>
        <time>2022-07-26T10:34:34Z</time>
      </trkpt>
      <trkpt lat="44.62123" lon="-0.19885">
        <ele>72.6</ele>
        <time>2022-07-26T10:34:35Z</time>
      </trkpt>
      <trkpt lat="44.62122" lon="-0.19883">
        <ele>72.6</ele>
        <time>2022-07-26T10:34:37Z</time>
      </trkpt>
      <trkpt lat="44.62122" lon="-0.19883">
        <ele>72.6</ele>
        <time>2022-07-26T10:34:38Z</time>
      </trkpt>
      <trkpt lat="44.62122" lon="-0.19882">
        <ele>72.4</ele>
        <time>2022-07-26T10:34:39Z</time>
      </trkpt>
      <trkpt lat="44.62122" lon="-0.19882">
        <ele>72.4</ele>
        <time>2022-07-26T10:34:40Z</time>
      </trkpt>
      <trkpt lat="44.62123" lon="-0.19881">
        <ele>72.4</ele>
        <time>2022-07-26T10:34:41Z</time>
      </trkpt>
      <trkpt lat="44.62124" lon="-0.19881">
        <ele>72.3</ele>
        <time>2022-07-26T10:34:42Z</time>
      </trkpt>
      <trkpt lat="44.62124" lon="-0.1988">
        <ele>72.3</ele>
        <time>2022-07-26T10:34:44Z</time>
      </trkpt>
      <trkpt lat="44.62125" lon="-0.19879">
        <ele>72.3</ele>
        <time>2022-07-26T10:34:45Z</time>
      </trkpt>
      <trkpt lat="44.62125" lon="-0.19878">
        <ele>72.1</ele>
        <time>2022-07-26T10:34:46Z</time>
      </trkpt>
      <trkpt lat="44.62126" lon="-0.19878">
        <ele>72.1</ele>
        <time>2022-07-26T10:34:47Z</time>
      </trkpt>
      <trkpt lat="44.62127" lon="-0.19878">
        <ele>71.9</ele>
        <time>2022-07-26T10:34:48Z</time>
      </trkpt>
      <trkpt lat="44.62128" lon="-0.19878">
        <ele>72.1</ele>
        <time>2022-07-26T10:34:49Z</time>
      </trkpt>
      <trkpt lat="44.62128" lon="-0.19878">
        <ele>71.9</ele>
        <time>2022-07-26T10:34:50Z</time>
      </trkpt>
      <trkpt lat="44.62129" lon="-0.19878">
        <ele>71.9</ele>
        <time>2022-07-26T10:34:52Z</time>
      </trkpt>
      <trkpt lat="44.6213" lon="-0.19877">
        <ele>71.7</ele>
        <time>2022-07-26T10:34:53Z</time>
      </trkpt>
      <trkpt lat="44.62131" lon="-0.19878">
        <ele>71.7</ele>
        <time>2022-07-26T10:34:54Z</time>
      </trkpt>
      <trkpt lat="44.62132" lon="-0.19877">
        <ele>71.7</ele>
        <time>2022-07-26T10:34:56Z</time>
      </trkpt>
      <trkpt lat="44.62132" lon="-0.19877">
        <ele>71.7</ele>
        <time>2022-07-26T10:34:58Z</time>
      </trkpt>
      <trkpt lat="44.62133" lon="-0.19877">
        <ele>71.5</ele>
        <time>2022-07-26T10:34:59Z</time>
      </trkpt>
      <trkpt lat="44.62134" lon="-0.19877">
        <ele>71.5</ele>
        <time>2022-07-26T10:35:00Z</time>
      </trkpt>
      <trkpt lat="44.62135" lon="-0.19877">
        <ele>71.5</ele>
        <time>2022-07-26T10:35:01Z</time>
      </trkpt>
      <trkpt lat="44.62136" lon="-0.19877">
        <ele>71.5</ele>
        <time>2022-07-26T10:35:02Z</time>
      </trkpt>
      <trkpt lat="44.62136" lon="-0.19877">
        <ele>71.2</ele>
        <time>2022-07-26T10:35:03Z</time>
      </trkpt>
      <trkpt lat="44.62137" lon="-0.19876">
        <ele>71.2</ele>
        <time>2022-07-26T10:35:05Z</time>
      </trkpt>
      <trkpt lat="44.62138" lon="-0.19875">
        <ele>71.2</ele>
        <time>2022-07-26T10:35:06Z</time>
      </trkpt>
      <trkpt lat="44.62138" lon="-0.19874">
        <ele>71.2</ele>
        <time>2022-07-26T10:35:07Z</time>
      </trkpt>
      <trkpt lat="44.62138" lon="-0.19871">
        <ele>70.9</ele>
        <time>2022-07-26T10:35:09Z</time>
      </trkpt>
      <trkpt lat="44.62137" lon="-0.19871">
        <ele>70.9</ele>
        <time>2022-07-26T10:35:10Z</time>
      </trkpt>
      <trkpt lat="44.62137" lon="-0.1987">
        <ele>70.9</ele>
        <time>2022-07-26T10:35:11Z</time>
      </trkpt>
      <trkpt lat="44.62137" lon="-0.19869">
        <ele>70.6</ele>
        <time>2022-07-26T10:35:12Z</time>
      </trkpt>
      <trkpt lat="44.62137" lon="-0.19869">
        <ele>70.6</ele>
        <time>2022-07-26T10:35:13Z</time>
      </trkpt>
      <trkpt lat="44.62137" lon="-0.19868">
        <ele>70.6</ele>
        <time>2022-07-26T10:35:14Z</time>
      </trkpt>
      <trkpt lat="44.62137" lon="-0.19867">
        <ele>70.6</ele>
        <time>2022-07-26T10:35:15Z</time>
      </trkpt>
      <trkpt lat="44.62137" lon="-0.19867">
        <ele>70.6</ele>
        <time>2022-07-26T10:35:16Z</time>
      </trkpt>
      <trkpt lat="44.62136" lon="-0.19866">
        <ele>70.6</ele>
        <time>2022-07-26T10:35:18Z</time>
      </trkpt>
      <trkpt lat="44.62136" lon="-0.19865">
        <ele>70.3</ele>
        <time>2022-07-26T10:35:19Z</time>
      </trkpt>
      <trkpt lat="44.62136" lon="-0.19865">
        <ele>70.3</ele>
        <time>2022-07-26T10:35:20Z</time>
      </trkpt>
      <trkpt lat="44.62136" lon="-0.19864">
        <ele>70.3</ele>
        <time>2022-07-26T10:35:21Z</time>
      </trkpt>
      <trkpt lat="44.62136" lon="-0.19864">
        <ele>70.3</ele>
        <time>2022-07-26T10:35:22Z</time>
      </trkpt>
      <trkpt lat="44.62136" lon="-0.19864">
        <ele>70.3</ele>
        <time>2022-07-26T10:35:23Z</time>
      </trkpt>
      <trkpt lat="44.62136" lon="-0.19863">
        <ele>70.3</ele>
        <time>2022-07-26T10:35:24Z</time>
      </trkpt>
      <trkpt lat="44.62136" lon="-0.19863">
        <ele>70.3</ele>
        <time>2022-07-26T10:35:25Z</time>
      </trkpt>
      <trkpt lat="44.62136" lon="-0.19863">
        <ele>70.3</ele>
        <time>2022-07-26T10:35:26Z</time>
      </trkpt>
      <trkpt lat="44.62136" lon="-0.19863">
        <ele>70.3</ele>
        <time>2022-07-26T10:35:27Z</time>
      </trkpt>
      <trkpt lat="44.62136" lon="-0.19863">
        <ele>70.3</ele>
        <time>2022-07-26T10:35:28Z</time>
      </trkpt>
      <trkpt lat="44.62137" lon="-0.19862">
        <ele>70.3</ele>
        <time>2022-07-26T10:35:29Z</time>
      </trkpt>
      <trkpt lat="44.62137" lon="-0.19862">
        <ele>70.3</ele>
        <time>2022-07-26T10:35:30Z</time>
      </trkpt>
      <trkpt lat="44.62137" lon="-0.19861">
        <ele>70.3</ele>
        <time>2022-07-26T10:35:31Z</time>
      </trkpt>
      <trkpt lat="44.62137" lon="-0.19861">
        <ele>70</ele>
        <time>2022-07-26T10:35:33Z</time>
      </trkpt>
      <trkpt lat="44.62137" lon="-0.1986">
        <ele>70</ele>
        <time>2022-07-26T10:35:34Z</time>
      </trkpt>
      <trkpt lat="44.62136" lon="-0.19859">
        <ele>70</ele>
        <time>2022-07-26T10:35:35Z</time>
      </trkpt>
      <trkpt lat="44.62136" lon="-0.19859">
        <ele>70</ele>
        <time>2022-07-26T10:35:36Z</time>
      </trkpt>
      <trkpt lat="44.62136" lon="-0.19858">
        <ele>70</ele>
        <time>2022-07-26T10:35:37Z</time>
      </trkpt>
      <trkpt lat="44.62135" lon="-0.19858">
        <ele>70.4</ele>
        <time>2022-07-26T10:35:38Z</time>
      </trkpt>
      <trkpt lat="44.62135" lon="-0.19857">
        <ele>70.4</ele>
        <time>2022-07-26T10:35:39Z</time>
      </trkpt>
      <trkpt lat="44.62134" lon="-0.19857">
        <ele>70.4</ele>
        <time>2022-07-26T10:35:40Z</time>
      </trkpt>
      <trkpt lat="44.62134" lon="-0.19857">
        <ele>70.1</ele>
        <time>2022-07-26T10:35:41Z</time>
      </trkpt>
      <trkpt lat="44.62134" lon="-0.19856">
        <ele>70.1</ele>
        <time>2022-07-26T10:35:42Z</time>
      </trkpt>
      <trkpt lat="44.62134" lon="-0.19855">
        <ele>70.1</ele>
        <time>2022-07-26T10:35:43Z</time>
      </trkpt>
      <trkpt lat="44.62134" lon="-0.19854">
        <ele>70.1</ele>
        <time>2022-07-26T10:35:45Z</time>
      </trkpt>
      <trkpt lat="44.62134" lon="-0.19853">
        <ele>70.1</ele>
        <time>2022-07-26T10:35:46Z</time>
      </trkpt>
      <trkpt lat="44.62135" lon="-0.19852">
        <ele>69.7</ele>
        <time>2022-07-26T10:35:47Z</time>
      </trkpt>
      <trkpt lat="44.62135" lon="-0.19852">
        <ele>69.7</ele>
        <time>2022-07-26T10:35:48Z</time>
      </trkpt>
      <trkpt lat="44.62136" lon="-0.19852">
        <ele>69.7</ele>
        <time>2022-07-26T10:35:49Z</time>
      </trkpt>
      <trkpt lat="44.62136" lon="-0.19852">
        <ele>69.3</ele>
        <time>2022-07-26T10:35:50Z</time>
      </trkpt>
      <trkpt lat="44.62137" lon="-0.19852">
        <ele>69.3</ele>
        <time>2022-07-26T10:35:51Z</time>
      </trkpt>
      <trkpt lat="44.62137" lon="-0.19852">
        <ele>69.3</ele>
        <time>2022-07-26T10:35:52Z</time>
      </trkpt>
      <trkpt lat="44.62138" lon="-0.19853">
        <ele>69.3</ele>
        <time>2022-07-26T10:35:53Z</time>
      </trkpt>
      <trkpt lat="44.62138" lon="-0.19853">
        <ele>69.7</ele>
        <time>2022-07-26T10:35:54Z</time>
      </trkpt>
      <trkpt lat="44.62138" lon="-0.19853">
        <ele>69.7</ele>
        <time>2022-07-26T10:35:55Z</time>
      </trkpt>
      <trkpt lat="44.62138" lon="-0.19854">
        <ele>69.7</ele>
        <time>2022-07-26T10:35:56Z</time>
      </trkpt>
      <trkpt lat="44.62138" lon="-0.19854">
        <ele>69.7</ele>
        <time>2022-07-26T10:35:58Z</time>
      </trkpt>
      <trkpt lat="44.62138" lon="-0.19854">
        <ele>69.7</ele>
        <time>2022-07-26T10:35:59Z</time>
      </trkpt>
      <trkpt lat="44.62138" lon="-0.19854">
        <ele>69.7</ele>
        <time>2022-07-26T10:36:00Z</time>
      </trkpt>
      <trkpt lat="44.62138" lon="-0.19854">
        <ele>69.7</ele>
        <time>2022-07-26T10:36:01Z</time>
      </trkpt>
      <trkpt lat="44.62138" lon="-0.19854">
        <ele>69.7</ele>
        <time>2022-07-26T10:36:02Z</time>
      </trkpt>
      <trkpt lat="44.62138" lon="-0.19854">
        <ele>69.7</ele>
        <time>2022-07-26T10:36:03Z</time>
      </trkpt>
      <trkpt lat="44.62138" lon="-0.19854">
        <ele>69.7</ele>
        <time>2022-07-26T10:36:04Z</time>
      </trkpt>
      <trkpt lat="44.62138" lon="-0.19854">
        <ele>69.7</ele>
        <time>2022-07-26T10:36:05Z</time>
      </trkpt>
      <trkpt lat="44.62138" lon="-0.19855">
        <ele>69.7</ele>
        <time>2022-07-26T10:36:06Z</time>
      </trkpt>
      <trkpt lat="44.62138" lon="-0.19855">
        <ele>69.7</ele>
        <time>2022-07-26T10:36:07Z</time>
      </trkpt>
      <trkpt lat="44.62138" lon="-0.19855">
        <ele>69.7</ele>
        <time>2022-07-26T10:36:08Z</time>
      </trkpt>
      <trkpt lat="44.62139" lon="-0.19855">
        <ele>69.7</ele>
        <time>2022-07-26T10:36:09Z</time>
      </trkpt>
      <trkpt lat="44.62139" lon="-0.19855">
        <ele>69.7</ele>
        <time>2022-07-26T10:36:10Z</time>
      </trkpt>
      <trkpt lat="44.62139" lon="-0.19855">
        <ele>69.7</ele>
        <time>2022-07-26T10:36:11Z</time>
      </trkpt>
      <trkpt lat="44.62139" lon="-0.19854">
        <ele>69.7</ele>
        <time>2022-07-26T10:36:12Z</time>
      </trkpt>
      <trkpt lat="44.62139" lon="-0.19854">
        <ele>69.7</ele>
        <time>2022-07-26T10:36:13Z</time>
      </trkpt>
      <trkpt lat="44.62139" lon="-0.19854">
        <ele>69.7</ele>
        <time>2022-07-26T10:36:14Z</time>
      </trkpt>
      <trkpt lat="44.62139" lon="-0.19854">
        <ele>69.7</ele>
        <time>2022-07-26T10:36:15Z</time>
      </trkpt>
      <trkpt lat="44.62139" lon="-0.19854">
        <ele>69.3</ele>
        <time>2022-07-26T10:36:16Z</time>
      </trkpt>
      <trkpt lat="44.62139" lon="-0.19854">
        <ele>69.3</ele>
        <time>2022-07-26T10:36:17Z</time>
      </trkpt>
      <trkpt lat="44.62139" lon="-0.19854">
        <ele>69.3</ele>
        <time>2022-07-26T10:36:18Z</time>
      </trkpt>
      <trkpt lat="44.62139" lon="-0.19854">
        <ele>69.3</ele>
        <time>2022-07-26T10:36:19Z</time>
      </trkpt>
      <trkpt lat="44.62139" lon="-0.19854">
        <ele>69.3</ele>
        <time>2022-07-26T10:36:20Z</time>
      </trkpt>
      <trkpt lat="44.62139" lon="-0.19854">
        <ele>69.3</ele>
        <time>2022-07-26T10:36:21Z</time>
      </trkpt>
      <trkpt lat="44.62139" lon="-0.19854">
        <ele>69.3</ele>
        <time>2022-07-26T10:36:22Z</time>
      </trkpt>
      <trkpt lat="44.62139" lon="-0.19854">
        <ele>69.3</ele>
        <time>2022-07-26T10:36:23Z</time>
      </trkpt>
      <trkpt lat="44.62139" lon="-0.19854">
        <ele>69.3</ele>
        <time>2022-07-26T10:36:24Z</time>
      </trkpt>
      <trkpt lat="44.62139" lon="-0.19854">
        <ele>69.3</ele>
        <time>2022-07-26T10:36:25Z</time>
      </trkpt>
      <trkpt lat="44.62139" lon="-0.19854">
        <ele>69.3</ele>
        <time>2022-07-26T10:36:26Z</time>
      </trkpt>
      <trkpt lat="44.62139" lon="-0.19854">
        <ele>69.3</ele>
        <time>2022-07-26T10:36:27Z</time>
      </trkpt>
      <trkpt lat="44.62139" lon="-0.19854">
        <ele>69.3</ele>
        <time>2022-07-26T10:36:28Z</time>
      </trkpt>
      <trkpt lat="44.62139" lon="-0.19854">
        <ele>69.3</ele>
        <time>2022-07-26T10:36:29Z</time>
      </trkpt>
      <trkpt lat="44.62139" lon="-0.19854">
        <ele>69.3</ele>
        <time>2022-07-26T10:36:30Z</time>
      </trkpt>
      <trkpt lat="44.6214" lon="-0.19855">
        <ele>69.3</ele>
        <time>2022-07-26T10:36:31Z</time>
      </trkpt>
      <trkpt lat="44.6214" lon="-0.19854">
        <ele>69.3</ele>
        <time>2022-07-26T10:36:32Z</time>
      </trkpt>
      <trkpt lat="44.6214" lon="-0.19854">
        <ele>69.3</ele>
        <time>2022-07-26T10:36:33Z</time>
      </trkpt>
      <trkpt lat="44.6214" lon="-0.19855">
        <ele>69.3</ele>
        <time>2022-07-26T10:36:34Z</time>
      </trkpt>
      <trkpt lat="44.62141" lon="-0.19855">
        <ele>69.3</ele>
        <time>2022-07-26T10:36:35Z</time>
      </trkpt>
      <trkpt lat="44.62141" lon="-0.19855">
        <ele>69.3</ele>
        <time>2022-07-26T10:36:36Z</time>
      </trkpt>
      <trkpt lat="44.62141" lon="-0.19854">
        <ele>69.3</ele>
        <time>2022-07-26T10:36:37Z</time>
      </trkpt>
      <trkpt lat="44.6214" lon="-0.19854">
        <ele>69.3</ele>
        <time>2022-07-26T10:36:38Z</time>
      </trkpt>
      <trkpt lat="44.6214" lon="-0.19854">
        <ele>69.3</ele>
        <time>2022-07-26T10:36:39Z</time>
      </trkpt>
      <trkpt lat="44.6214" lon="-0.19854">
        <ele>69.3</ele>
        <time>2022-07-26T10:36:40Z</time>
      </trkpt>
      <trkpt lat="44.6214" lon="-0.19854">
        <ele>69.3</ele>
        <time>2022-07-26T10:36:41Z</time>
      </trkpt>
      <trkpt lat="44.6214" lon="-0.19854">
        <ele>69.3</ele>
        <time>2022-07-26T10:36:42Z</time>
      </trkpt>
      <trkpt lat="44.6214" lon="-0.19854">
        <ele>69.3</ele>
        <time>2022-07-26T10:36:43Z</time>
      </trkpt>
      <trkpt lat="44.6214" lon="-0.19854">
        <ele>69.3</ele>
        <time>2022-07-26T10:36:44Z</time>
      </trkpt>
      <trkpt lat="44.6214" lon="-0.19854">
        <ele>69.3</ele>
        <time>2022-07-26T10:36:45Z</time>
      </trkpt>
      <trkpt lat="44.6214" lon="-0.19854">
        <ele>69.3</ele>
        <time>2022-07-26T10:36:46Z</time>
      </trkpt>
      <trkpt lat="44.6214" lon="-0.19854">
        <ele>69.3</ele>
        <time>2022-07-26T10:36:47Z</time>
      </trkpt>
      <trkpt lat="44.6214" lon="-0.19854">
        <ele>69.3</ele>
        <time>2022-07-26T10:36:48Z</time>
      </trkpt>
      <trkpt lat="44.6214" lon="-0.19854">
        <ele>69.3</ele>
        <time>2022-07-26T10:36:49Z</time>
      </trkpt>
      <trkpt lat="44.6214" lon="-0.19854">
        <ele>69.3</ele>
        <time>2022-07-26T10:36:50Z</time>
      </trkpt>
      <trkpt lat="44.6214" lon="-0.19854">
        <ele>69.3</ele>
        <time>2022-07-26T10:36:51Z</time>
      </trkpt>
      <trkpt lat="44.6214" lon="-0.19854">
        <ele>69.3</ele>
        <time>2022-07-26T10:36:52Z</time>
      </trkpt>
      <trkpt lat="44.6214" lon="-0.19854">
        <ele>69.3</ele>
        <time>2022-07-26T10:36:53Z</time>
      </trkpt>
      <trkpt lat="44.6214" lon="-0.19854">
        <ele>69.3</ele>
        <time>2022-07-26T10:36:54Z</time>
      </trkpt>
      <trkpt lat="44.6214" lon="-0.19854">
        <ele>69.3</ele>
        <time>2022-07-26T10:36:55Z</time>
      </trkpt>
      <trkpt lat="44.6214" lon="-0.19854">
        <ele>69.3</ele>
        <time>2022-07-26T10:36:56Z</time>
      </trkpt>
      <trkpt lat="44.6214" lon="-0.19854">
        <ele>69.3</ele>
        <time>2022-07-26T10:36:57Z</time>
      </trkpt>
      <trkpt lat="44.6214" lon="-0.19854">
        <ele>69.3</ele>
        <time>2022-07-26T10:36:58Z</time>
      </trkpt>
      <trkpt lat="44.6214" lon="-0.19854">
        <ele>69.3</ele>
        <time>2022-07-26T10:36:59Z</time>
      </trkpt>
      <trkpt lat="44.6214" lon="-0.19854">
        <ele>69.3</ele>
        <time>2022-07-26T10:37:00Z</time>
      </trkpt>
      <trkpt lat="44.6214" lon="-0.19854">
        <ele>69.3</ele>
        <time>2022-07-26T10:37:01Z</time>
      </trkpt>
      <trkpt lat="44.6214" lon="-0.19854">
        <ele>69.3</ele>
        <time>2022-07-26T10:37:02Z</time>
      </trkpt>
      <trkpt lat="44.6214" lon="-0.19854">
        <ele>69.3</ele>
        <time>2022-07-26T10:37:03Z</time>
      </trkpt>
      <trkpt lat="44.62141" lon="-0.19854">
        <ele>69.3</ele>
        <time>2022-07-26T10:37:04Z</time>
      </trkpt>
      <trkpt lat="44.62141" lon="-0.19854">
        <ele>69.3</ele>
        <time>2022-07-26T10:37:05Z</time>
      </trkpt>
      <trkpt lat="44.62141" lon="-0.19853">
        <ele>69.3</ele>
        <time>2022-07-26T10:37:06Z</time>
      </trkpt>
      <trkpt lat="44.62141" lon="-0.19853">
        <ele>69.3</ele>
        <time>2022-07-26T10:37:07Z</time>
      </trkpt>
      <trkpt lat="44.62141" lon="-0.19854">
        <ele>69.3</ele>
        <time>2022-07-26T10:37:08Z</time>
      </trkpt>
      <trkpt lat="44.62141" lon="-0.19855">
        <ele>69.3</ele>
        <time>2022-07-26T10:37:09Z</time>
      </trkpt>
      <trkpt lat="44.62141" lon="-0.19855">
        <ele>69.3</ele>
        <time>2022-07-26T10:37:10Z</time>
      </trkpt>
      <trkpt lat="44.62141" lon="-0.19855">
        <ele>69.3</ele>
        <time>2022-07-26T10:37:11Z</time>
      </trkpt>
      <trkpt lat="44.62141" lon="-0.19854">
        <ele>69.3</ele>
        <time>2022-07-26T10:37:12Z</time>
      </trkpt>
      <trkpt lat="44.62141" lon="-0.19854">
        <ele>69.3</ele>
        <time>2022-07-26T10:37:13Z</time>
      </trkpt>
      <trkpt lat="44.62142" lon="-0.19854">
        <ele>68.9</ele>
        <time>2022-07-26T10:37:14Z</time>
      </trkpt>
      <trkpt lat="44.62142" lon="-0.19854">
        <ele>68.9</ele>
        <time>2022-07-26T10:37:15Z</time>
      </trkpt>
      <trkpt lat="44.62142" lon="-0.19854">
        <ele>68.9</ele>
        <time>2022-07-26T10:37:16Z</time>
      </trkpt>
      <trkpt lat="44.62142" lon="-0.19854">
        <ele>68.9</ele>
        <time>2022-07-26T10:37:17Z</time>
      </trkpt>
      <trkpt lat="44.62142" lon="-0.19854">
        <ele>68.9</ele>
        <time>2022-07-26T10:37:18Z</time>
      </trkpt>
      <trkpt lat="44.62142" lon="-0.19854">
        <ele>68.9</ele>
        <time>2022-07-26T10:37:19Z</time>
      </trkpt>
      <trkpt lat="44.62142" lon="-0.19854">
        <ele>68.9</ele>
        <time>2022-07-26T10:37:20Z</time>
      </trkpt>
      <trkpt lat="44.62142" lon="-0.19854">
        <ele>68.9</ele>
        <time>2022-07-26T10:37:21Z</time>
      </trkpt>
      <trkpt lat="44.62142" lon="-0.19854">
        <ele>68.9</ele>
        <time>2022-07-26T10:37:22Z</time>
      </trkpt>
      <trkpt lat="44.62142" lon="-0.19854">
        <ele>68.9</ele>
        <time>2022-07-26T10:37:23Z</time>
      </trkpt>
      <trkpt lat="44.62142" lon="-0.19854">
        <ele>68.9</ele>
        <time>2022-07-26T10:37:24Z</time>
      </trkpt>
      <trkpt lat="44.62142" lon="-0.19854">
        <ele>68.9</ele>
        <time>2022-07-26T10:37:25Z</time>
      </trkpt>
      <trkpt lat="44.62142" lon="-0.19854">
        <ele>68.9</ele>
        <time>2022-07-26T10:37:26Z</time>
      </trkpt>
      <trkpt lat="44.62142" lon="-0.19854">
        <ele>68.9</ele>
        <time>2022-07-26T10:37:27Z</time>
      </trkpt>
      <trkpt lat="44.62142" lon="-0.19854">
        <ele>68.9</ele>
        <time>2022-07-26T10:37:28Z</time>
      </trkpt>
      <trkpt lat="44.62142" lon="-0.19854">
        <ele>68.9</ele>
        <time>2022-07-26T10:37:29Z</time>
      </trkpt>
      <trkpt lat="44.62142" lon="-0.19854">
        <ele>68.9</ele>
        <time>2022-07-26T10:37:30Z</time>
      </trkpt>
      <trkpt lat="44.62142" lon="-0.19854">
        <ele>68.9</ele>
        <time>2022-07-26T10:37:31Z</time>
      </trkpt>
      <trkpt lat="44.62142" lon="-0.19854">
        <ele>68.9</ele>
        <time>2022-07-26T10:37:32Z</time>
      </trkpt>
      <trkpt lat="44.62142" lon="-0.19854">
        <ele>68.9</ele>
        <time>2022-07-26T10:37:33Z</time>
      </trkpt>
      <trkpt lat="44.62142" lon="-0.19854">
        <ele>68.9</ele>
        <time>2022-07-26T10:37:34Z</time>
      </trkpt>
      <trkpt lat="44.62142" lon="-0.19854">
        <ele>68.9</ele>
        <time>2022-07-26T10:37:35Z</time>
      </trkpt>
      <trkpt lat="44.62142" lon="-0.19854">
        <ele>68.9</ele>
        <time>2022-07-26T10:37:36Z</time>
      </trkpt>
      <trkpt lat="44.62142" lon="-0.19854">
        <ele>68.9</ele>
        <time>2022-07-26T10:37:37Z</time>
      </trkpt>
      <trkpt lat="44.62142" lon="-0.19854">
        <ele>68.9</ele>
        <time>2022-07-26T10:37:38Z</time>
      </trkpt>
      <trkpt lat="44.62142" lon="-0.19854">
        <ele>68.9</ele>
        <time>2022-07-26T10:37:39Z</time>
      </trkpt>
      <trkpt lat="44.62142" lon="-0.19854">
        <ele>68.9</ele>
        <time>2022-07-26T10:37:40Z</time>
      </trkpt>
      <trkpt lat="44.62142" lon="-0.19854">
        <ele>68.9</ele>
        <time>2022-07-26T10:37:41Z</time>
      </trkpt>
      <trkpt lat="44.62142" lon="-0.19854">
        <ele>68.9</ele>
        <time>2022-07-26T10:37:42Z</time>
      </trkpt>
      <trkpt lat="44.62142" lon="-0.19854">
        <ele>68.9</ele>
        <time>2022-07-26T10:37:43Z</time>
      </trkpt>
      <trkpt lat="44.62142" lon="-0.19854">
        <ele>68.9</ele>
        <time>2022-07-26T10:37:44Z</time>
      </trkpt>
      <trkpt lat="44.62142" lon="-0.19854">
        <ele>68.9</ele>
        <time>2022-07-26T10:37:45Z</time>
      </trkpt>
      <trkpt lat="44.62142" lon="-0.19854">
        <ele>68.9</ele>
        <time>2022-07-26T10:37:46Z</time>
      </trkpt>
      <trkpt lat="44.62142" lon="-0.19854">
        <ele>68.9</ele>
        <time>2022-07-26T10:37:47Z</time>
      </trkpt>
      <trkpt lat="44.62142" lon="-0.19854">
        <ele>68.9</ele>
        <time>2022-07-26T10:37:48Z</time>
      </trkpt>
      <trkpt lat="44.62142" lon="-0.19854">
        <ele>68.9</ele>
        <time>2022-07-26T10:37:49Z</time>
      </trkpt>
      <trkpt lat="44.62142" lon="-0.19854">
        <ele>68.9</ele>
        <time>2022-07-26T10:37:50Z</time>
      </trkpt>
      <trkpt lat="44.62142" lon="-0.19854">
        <ele>68.9</ele>
        <time>2022-07-26T10:37:51Z</time>
      </trkpt>
      <trkpt lat="44.62142" lon="-0.19854">
        <ele>68.9</ele>
        <time>2022-07-26T10:37:52Z</time>
      </trkpt>
      <trkpt lat="44.62142" lon="-0.19854">
        <ele>68.9</ele>
        <time>2022-07-26T10:37:53Z</time>
      </trkpt>
      <trkpt lat="44.62142" lon="-0.19854">
        <ele>68.9</ele>
        <time>2022-07-26T10:37:54Z</time>
      </trkpt>
      <trkpt lat="44.62142" lon="-0.19854">
        <ele>68.9</ele>
        <time>2022-07-26T10:37:55Z</time>
      </trkpt>
      <trkpt lat="44.62142" lon="-0.19854">
        <ele>68.9</ele>
        <time>2022-07-26T10:37:56Z</time>
      </trkpt>
      <trkpt lat="44.62142" lon="-0.19854">
        <ele>68.9</ele>
        <time>2022-07-26T10:37:57Z</time>
      </trkpt>
      <trkpt lat="44.62142" lon="-0.19854">
        <ele>68.9</ele>
        <time>2022-07-26T10:37:58Z</time>
      </trkpt>
      <trkpt lat="44.62142" lon="-0.19854">
        <ele>68.9</ele>
        <time>2022-07-26T10:37:59Z</time>
      </trkpt>
      <trkpt lat="44.62142" lon="-0.19854">
        <ele>68.9</ele>
        <time>2022-07-26T10:38:00Z</time>
      </trkpt>
      <trkpt lat="44.62142" lon="-0.19854">
        <ele>68.9</ele>
        <time>2022-07-26T10:38:01Z</time>
      </trkpt>
      <trkpt lat="44.62142" lon="-0.19854">
        <ele>68.9</ele>
        <time>2022-07-26T10:38:02Z</time>
      </trkpt>
      <trkpt lat="44.62142" lon="-0.19854">
        <ele>68.9</ele>
        <time>2022-07-26T10:38:03Z</time>
      </trkpt>
      <trkpt lat="44.62142" lon="-0.19854">
        <ele>68.9</ele>
        <time>2022-07-26T10:38:04Z</time>
      </trkpt>
      <trkpt lat="44.62142" lon="-0.19854">
        <ele>68.9</ele>
        <time>2022-07-26T10:38:05Z</time>
      </trkpt>
      <trkpt lat="44.62142" lon="-0.19854">
        <ele>68.9</ele>
        <time>2022-07-26T10:38:06Z</time>
      </trkpt>
      <trkpt lat="44.62142" lon="-0.19854">
        <ele>68.9</ele>
        <time>2022-07-26T10:38:07Z</time>
      </trkpt>
      <trkpt lat="44.62142" lon="-0.19853">
        <ele>68.9</ele>
        <time>2022-07-26T10:38:08Z</time>
      </trkpt>
      <trkpt lat="44.62142" lon="-0.19853">
        <ele>68.9</ele>
        <time>2022-07-26T10:38:09Z</time>
      </trkpt>
      <trkpt lat="44.62142" lon="-0.19853">
        <ele>68.9</ele>
        <time>2022-07-26T10:38:10Z</time>
      </trkpt>
      <trkpt lat="44.62142" lon="-0.19853">
        <ele>68.9</ele>
        <time>2022-07-26T10:38:11Z</time>
      </trkpt>
      <trkpt lat="44.62142" lon="-0.19853">
        <ele>68.9</ele>
        <time>2022-07-26T10:38:12Z</time>
      </trkpt>
      <trkpt lat="44.62142" lon="-0.19853">
        <ele>68.9</ele>
        <time>2022-07-26T10:38:13Z</time>
      </trkpt>
      <trkpt lat="44.62142" lon="-0.19853">
        <ele>68.9</ele>
        <time>2022-07-26T10:38:14Z</time>
      </trkpt>
      <trkpt lat="44.62142" lon="-0.19853">
        <ele>68.9</ele>
        <time>2022-07-26T10:38:15Z</time>
      </trkpt>
      <trkpt lat="44.62142" lon="-0.19853">
        <ele>68.9</ele>
        <time>2022-07-26T10:38:16Z</time>
      </trkpt>
      <trkpt lat="44.62142" lon="-0.19853">
        <ele>68.9</ele>
        <time>2022-07-26T10:38:17Z</time>
      </trkpt>
      <trkpt lat="44.62142" lon="-0.19853">
        <ele>68.9</ele>
        <time>2022-07-26T10:38:18Z</time>
      </trkpt>
      <trkpt lat="44.62142" lon="-0.19853">
        <ele>68.9</ele>
        <time>2022-07-26T10:38:19Z</time>
      </trkpt>
      <trkpt lat="44.62142" lon="-0.19853">
        <ele>68.9</ele>
        <time>2022-07-26T10:38:20Z</time>
      </trkpt>
      <trkpt lat="44.62142" lon="-0.19853">
        <ele>68.9</ele>
        <time>2022-07-26T10:38:21Z</time>
      </trkpt>
      <trkpt lat="44.62142" lon="-0.19853">
        <ele>68.9</ele>
        <time>2022-07-26T10:38:22Z</time>
      </trkpt>
      <trkpt lat="44.62142" lon="-0.19853">
        <ele>68.9</ele>
        <time>2022-07-26T10:38:23Z</time>
      </trkpt>
      <trkpt lat="44.62142" lon="-0.19853">
        <ele>68.9</ele>
        <time>2022-07-26T10:38:24Z</time>
      </trkpt>
      <trkpt lat="44.62142" lon="-0.19853">
        <ele>68.9</ele>
        <time>2022-07-26T10:38:25Z</time>
      </trkpt>
      <trkpt lat="44.62142" lon="-0.19853">
        <ele>68.9</ele>
        <time>2022-07-26T10:38:26Z</time>
      </trkpt>
      <trkpt lat="44.62142" lon="-0.19853">
        <ele>68.9</ele>
        <time>2022-07-26T10:38:27Z</time>
      </trkpt>
      <trkpt lat="44.62142" lon="-0.19853">
        <ele>68.9</ele>
        <time>2022-07-26T10:38:28Z</time>
      </trkpt>
      <trkpt lat="44.62142" lon="-0.19853">
        <ele>68.9</ele>
        <time>2022-07-26T10:38:29Z</time>
      </trkpt>
      <trkpt lat="44.62142" lon="-0.19853">
        <ele>68.9</ele>
        <time>2022-07-26T10:38:30Z</time>
      </trkpt>
      <trkpt lat="44.62142" lon="-0.19853">
        <ele>68.9</ele>
        <time>2022-07-26T10:38:31Z</time>
      </trkpt>
      <trkpt lat="44.62142" lon="-0.19853">
        <ele>68.9</ele>
        <time>2022-07-26T10:38:32Z</time>
      </trkpt>
      <trkpt lat="44.62142" lon="-0.19853">
        <ele>68.9</ele>
        <time>2022-07-26T10:38:33Z</time>
      </trkpt>
      <trkpt lat="44.62142" lon="-0.19853">
        <ele>68.9</ele>
        <time>2022-07-26T10:38:34Z</time>
      </trkpt>
      <trkpt lat="44.62142" lon="-0.19853">
        <ele>68.9</ele>
        <time>2022-07-26T10:38:35Z</time>
      </trkpt>
      <trkpt lat="44.62142" lon="-0.19853">
        <ele>68.9</ele>
        <time>2022-07-26T10:38:36Z</time>
      </trkpt>
      <trkpt lat="44.62142" lon="-0.19853">
        <ele>68.9</ele>
        <time>2022-07-26T10:38:37Z</time>
      </trkpt>
      <trkpt lat="44.62142" lon="-0.19853">
        <ele>68.9</ele>
        <time>2022-07-26T10:38:38Z</time>
      </trkpt>
      <trkpt lat="44.62142" lon="-0.19853">
        <ele>68.9</ele>
        <time>2022-07-26T10:38:39Z</time>
      </trkpt>
      <trkpt lat="44.62142" lon="-0.19853">
        <ele>68.9</ele>
        <time>2022-07-26T10:38:40Z</time>
      </trkpt>
      <trkpt lat="44.62142" lon="-0.19853">
        <ele>68.9</ele>
        <time>2022-07-26T10:38:41Z</time>
      </trkpt>
      <trkpt lat="44.62142" lon="-0.19853">
        <ele>68.9</ele>
        <time>2022-07-26T10:38:42Z</time>
      </trkpt>
      <trkpt lat="44.62142" lon="-0.19853">
        <ele>68.9</ele>
        <time>2022-07-26T10:38:43Z</time>
      </trkpt>
      <trkpt lat="44.62142" lon="-0.19853">
        <ele>68.9</ele>
        <time>2022-07-26T10:38:44Z</time>
      </trkpt>
      <trkpt lat="44.62142" lon="-0.19853">
        <ele>68.9</ele>
        <time>2022-07-26T10:38:45Z</time>
      </trkpt>
      <trkpt lat="44.62142" lon="-0.19853">
        <ele>68.9</ele>
        <time>2022-07-26T10:38:46Z</time>
      </trkpt>
      <trkpt lat="44.62142" lon="-0.19853">
        <ele>68.9</ele>
        <time>2022-07-26T10:38:47Z</time>
      </trkpt>
      <trkpt lat="44.62142" lon="-0.19853">
        <ele>68.9</ele>
        <time>2022-07-26T10:38:48Z</time>
      </trkpt>
      <trkpt lat="44.62142" lon="-0.19853">
        <ele>68.9</ele>
        <time>2022-07-26T10:38:49Z</time>
      </trkpt>
      <trkpt lat="44.62142" lon="-0.19853">
        <ele>68.9</ele>
        <time>2022-07-26T10:38:50Z</time>
      </trkpt>
      <trkpt lat="44.62142" lon="-0.19853">
        <ele>68.9</ele>
        <time>2022-07-26T10:38:51Z</time>
      </trkpt>
      <trkpt lat="44.62142" lon="-0.19853">
        <ele>68.9</ele>
        <time>2022-07-26T10:38:52Z</time>
      </trkpt>
      <trkpt lat="44.62142" lon="-0.19853">
        <ele>68.9</ele>
        <time>2022-07-26T10:38:53Z</time>
      </trkpt>
      <trkpt lat="44.62142" lon="-0.19853">
        <ele>68.9</ele>
        <time>2022-07-26T10:38:54Z</time>
      </trkpt>
      <trkpt lat="44.62142" lon="-0.19853">
        <ele>68.9</ele>
        <time>2022-07-26T10:38:55Z</time>
      </trkpt>
      <trkpt lat="44.62142" lon="-0.19853">
        <ele>68.9</ele>
        <time>2022-07-26T10:38:56Z</time>
      </trkpt>
      <trkpt lat="44.62142" lon="-0.19853">
        <ele>68.9</ele>
        <time>2022-07-26T10:38:57Z</time>
      </trkpt>
      <trkpt lat="44.62142" lon="-0.19853">
        <ele>68.9</ele>
        <time>2022-07-26T10:38:58Z</time>
      </trkpt>
      <trkpt lat="44.62142" lon="-0.19853">
        <ele>68.9</ele>
        <time>2022-07-26T10:38:59Z</time>
      </trkpt>
      <trkpt lat="44.62142" lon="-0.19853">
        <ele>68.9</ele>
        <time>2022-07-26T10:39:00Z</time>
      </trkpt>
      <trkpt lat="44.62142" lon="-0.19854">
        <ele>68.9</ele>
        <time>2022-07-26T10:39:01Z</time>
      </trkpt>
      <trkpt lat="44.62142" lon="-0.19854">
        <ele>68.9</ele>
        <time>2022-07-26T10:39:02Z</time>
      </trkpt>
      <trkpt lat="44.62142" lon="-0.19854">
        <ele>68.9</ele>
        <time>2022-07-26T10:39:03Z</time>
      </trkpt>
      <trkpt lat="44.62142" lon="-0.19854">
        <ele>68.9</ele>
        <time>2022-07-26T10:39:04Z</time>
      </trkpt>
      <trkpt lat="44.62142" lon="-0.19854">
        <ele>68.9</ele>
        <time>2022-07-26T10:39:05Z</time>
      </trkpt>
      <trkpt lat="44.62142" lon="-0.19854">
        <ele>68.9</ele>
        <time>2022-07-26T10:39:06Z</time>
      </trkpt>
      <trkpt lat="44.62142" lon="-0.19854">
        <ele>68.9</ele>
        <time>2022-07-26T10:39:07Z</time>
      </trkpt>
      <trkpt lat="44.62142" lon="-0.19854">
        <ele>68.9</ele>
        <time>2022-07-26T10:39:08Z</time>
      </trkpt>
      <trkpt lat="44.62142" lon="-0.19854">
        <ele>68.9</ele>
        <time>2022-07-26T10:39:09Z</time>
      </trkpt>
      <trkpt lat="44.62142" lon="-0.19854">
        <ele>69</ele>
        <time>2022-07-26T10:39:10Z</time>
      </trkpt>
      <trkpt lat="44.62142" lon="-0.19854">
        <ele>69</ele>
        <time>2022-07-26T10:39:11Z</time>
      </trkpt>
      <trkpt lat="44.62142" lon="-0.19854">
        <ele>69</ele>
        <time>2022-07-26T10:39:12Z</time>
      </trkpt>
      <trkpt lat="44.62142" lon="-0.19854">
        <ele>69</ele>
        <time>2022-07-26T10:39:13Z</time>
      </trkpt>
      <trkpt lat="44.62142" lon="-0.19854">
        <ele>69</ele>
        <time>2022-07-26T10:39:14Z</time>
      </trkpt>
      <trkpt lat="44.62142" lon="-0.19854">
        <ele>69</ele>
        <time>2022-07-26T10:39:15Z</time>
      </trkpt>
      <trkpt lat="44.62142" lon="-0.19854">
        <ele>69</ele>
        <time>2022-07-26T10:39:16Z</time>
      </trkpt>
      <trkpt lat="44.62142" lon="-0.19854">
        <ele>69</ele>
        <time>2022-07-26T10:39:17Z</time>
      </trkpt>
      <trkpt lat="44.62142" lon="-0.19854">
        <ele>69</ele>
        <time>2022-07-26T10:39:18Z</time>
      </trkpt>
      <trkpt lat="44.62142" lon="-0.19854">
        <ele>69</ele>
        <time>2022-07-26T10:39:19Z</time>
      </trkpt>
      <trkpt lat="44.62142" lon="-0.19854">
        <ele>69</ele>
        <time>2022-07-26T10:39:20Z</time>
      </trkpt>
      <trkpt lat="44.62142" lon="-0.19854">
        <ele>69</ele>
        <time>2022-07-26T10:39:21Z</time>
      </trkpt>
      <trkpt lat="44.62142" lon="-0.19854">
        <ele>69</ele>
        <time>2022-07-26T10:39:22Z</time>
      </trkpt>
      <trkpt lat="44.62142" lon="-0.19854">
        <ele>69</ele>
        <time>2022-07-26T10:39:23Z</time>
      </trkpt>
      <trkpt lat="44.62142" lon="-0.19854">
        <ele>69</ele>
        <time>2022-07-26T10:39:24Z</time>
      </trkpt>
      <trkpt lat="44.62142" lon="-0.19854">
        <ele>69</ele>
        <time>2022-07-26T10:39:25Z</time>
      </trkpt>
      <trkpt lat="44.62142" lon="-0.19854">
        <ele>69</ele>
        <time>2022-07-26T10:39:26Z</time>
      </trkpt>
      <trkpt lat="44.62142" lon="-0.19854">
        <ele>69</ele>
        <time>2022-07-26T10:39:27Z</time>
      </trkpt>
      <trkpt lat="44.62142" lon="-0.19854">
        <ele>69</ele>
        <time>2022-07-26T10:39:28Z</time>
      </trkpt>
      <trkpt lat="44.62142" lon="-0.19854">
        <ele>69</ele>
        <time>2022-07-26T10:39:29Z</time>
      </trkpt>
      <trkpt lat="44.62142" lon="-0.19854">
        <ele>69</ele>
        <time>2022-07-26T10:39:30Z</time>
      </trkpt>
      <trkpt lat="44.62142" lon="-0.19854">
        <ele>69</ele>
        <time>2022-07-26T10:39:31Z</time>
      </trkpt>
      <trkpt lat="44.62142" lon="-0.19854">
        <ele>69</ele>
        <time>2022-07-26T10:39:32Z</time>
      </trkpt>
      <trkpt lat="44.62142" lon="-0.19854">
        <ele>69</ele>
        <time>2022-07-26T10:39:33Z</time>
      </trkpt>
      <trkpt lat="44.62142" lon="-0.19854">
        <ele>69</ele>
        <time>2022-07-26T10:39:34Z</time>
      </trkpt>
      <trkpt lat="44.62142" lon="-0.19854">
        <ele>69</ele>
        <time>2022-07-26T10:39:35Z</time>
      </trkpt>
      <trkpt lat="44.62142" lon="-0.19854">
        <ele>69</ele>
        <time>2022-07-26T10:39:36Z</time>
      </trkpt>
      <trkpt lat="44.62142" lon="-0.19854">
        <ele>69</ele>
        <time>2022-07-26T10:39:37Z</time>
      </trkpt>
      <trkpt lat="44.62142" lon="-0.19854">
        <ele>69</ele>
        <time>2022-07-26T10:39:38Z</time>
      </trkpt>
      <trkpt lat="44.62142" lon="-0.19854">
        <ele>69</ele>
        <time>2022-07-26T10:39:39Z</time>
      </trkpt>
      <trkpt lat="44.62142" lon="-0.19854">
        <ele>69</ele>
        <time>2022-07-26T10:39:40Z</time>
      </trkpt>
      <trkpt lat="44.62142" lon="-0.19854">
        <ele>69</ele>
        <time>2022-07-26T10:39:41Z</time>
      </trkpt>
      <trkpt lat="44.62142" lon="-0.19854">
        <ele>69</ele>
        <time>2022-07-26T10:39:42Z</time>
      </trkpt>
      <trkpt lat="44.62142" lon="-0.19854">
        <ele>69</ele>
        <time>2022-07-26T10:39:43Z</time>
      </trkpt>
      <trkpt lat="44.62142" lon="-0.19854">
        <ele>69</ele>
        <time>2022-07-26T10:39:44Z</time>
      </trkpt>
      <trkpt lat="44.62142" lon="-0.19854">
        <ele>69</ele>
        <time>2022-07-26T10:39:45Z</time>
      </trkpt>
      <trkpt lat="44.62142" lon="-0.19854">
        <ele>69</ele>
        <time>2022-07-26T10:39:46Z</time>
      </trkpt>
      <trkpt lat="44.62142" lon="-0.19854">
        <ele>69</ele>
        <time>2022-07-26T10:39:47Z</time>
      </trkpt>
      <trkpt lat="44.62142" lon="-0.19854">
        <ele>69</ele>
        <time>2022-07-26T10:39:48Z</time>
      </trkpt>
      <trkpt lat="44.62142" lon="-0.19854">
        <ele>69</ele>
        <time>2022-07-26T10:39:49Z</time>
      </trkpt>
      <trkpt lat="44.62142" lon="-0.19854">
        <ele>69</ele>
        <time>2022-07-26T10:39:50Z</time>
      </trkpt>
      <trkpt lat="44.62142" lon="-0.19854">
        <ele>69</ele>
        <time>2022-07-26T10:39:51Z</time>
      </trkpt>
      <trkpt lat="44.62142" lon="-0.19854">
        <ele>69</ele>
        <time>2022-07-26T10:39:52Z</time>
      </trkpt>
      <trkpt lat="44.62142" lon="-0.19854">
        <ele>69</ele>
        <time>2022-07-26T10:39:53Z</time>
      </trkpt>
      <trkpt lat="44.62142" lon="-0.19854">
        <ele>69</ele>
        <time>2022-07-26T10:39:54Z</time>
      </trkpt>
      <trkpt lat="44.62142" lon="-0.19854">
        <ele>69</ele>
        <time>2022-07-26T10:39:55Z</time>
      </trkpt>
      <trkpt lat="44.62142" lon="-0.19854">
        <ele>69</ele>
        <time>2022-07-26T10:39:56Z</time>
      </trkpt>
      <trkpt lat="44.62142" lon="-0.19854">
        <ele>69</ele>
        <time>2022-07-26T10:39:57Z</time>
      </trkpt>
      <trkpt lat="44.62142" lon="-0.19855">
        <ele>69</ele>
        <time>2022-07-26T10:39:58Z</time>
      </trkpt>
      <trkpt lat="44.62142" lon="-0.19855">
        <ele>69</ele>
        <time>2022-07-26T10:39:59Z</time>
      </trkpt>
      <trkpt lat="44.62142" lon="-0.19855">
        <ele>69</ele>
        <time>2022-07-26T10:40:00Z</time>
      </trkpt>
      <trkpt lat="44.62142" lon="-0.19855">
        <ele>69</ele>
        <time>2022-07-26T10:40:01Z</time>
      </trkpt>
      <trkpt lat="44.62142" lon="-0.19855">
        <ele>69</ele>
        <time>2022-07-26T10:40:02Z</time>
      </trkpt>
      <trkpt lat="44.62142" lon="-0.19855">
        <ele>69</ele>
        <time>2022-07-26T10:40:03Z</time>
      </trkpt>
      <trkpt lat="44.62142" lon="-0.19855">
        <ele>69</ele>
        <time>2022-07-26T10:40:04Z</time>
      </trkpt>
      <trkpt lat="44.62142" lon="-0.19855">
        <ele>69</ele>
        <time>2022-07-26T10:40:05Z</time>
      </trkpt>
      <trkpt lat="44.62142" lon="-0.19855">
        <ele>69</ele>
        <time>2022-07-26T10:40:06Z</time>
      </trkpt>
      <trkpt lat="44.62142" lon="-0.19855">
        <ele>69</ele>
        <time>2022-07-26T10:40:07Z</time>
      </trkpt>
      <trkpt lat="44.62142" lon="-0.19855">
        <ele>69</ele>
        <time>2022-07-26T10:40:08Z</time>
      </trkpt>
      <trkpt lat="44.62142" lon="-0.19855">
        <ele>69</ele>
        <time>2022-07-26T10:40:09Z</time>
      </trkpt>
      <trkpt lat="44.62142" lon="-0.19855">
        <ele>69</ele>
        <time>2022-07-26T10:40:10Z</time>
      </trkpt>
      <trkpt lat="44.62142" lon="-0.19855">
        <ele>69</ele>
        <time>2022-07-26T10:40:11Z</time>
      </trkpt>
      <trkpt lat="44.62142" lon="-0.19855">
        <ele>69</ele>
        <time>2022-07-26T10:40:12Z</time>
      </trkpt>
      <trkpt lat="44.62142" lon="-0.19855">
        <ele>69</ele>
        <time>2022-07-26T10:40:13Z</time>
      </trkpt>
      <trkpt lat="44.62142" lon="-0.19855">
        <ele>69</ele>
        <time>2022-07-26T10:40:14Z</time>
      </trkpt>
      <trkpt lat="44.62142" lon="-0.19855">
        <ele>69</ele>
        <time>2022-07-26T10:40:15Z</time>
      </trkpt>
      <trkpt lat="44.62142" lon="-0.19855">
        <ele>69</ele>
        <time>2022-07-26T10:40:16Z</time>
      </trkpt>
      <trkpt lat="44.62142" lon="-0.19855">
        <ele>69</ele>
        <time>2022-07-26T10:40:17Z</time>
      </trkpt>
      <trkpt lat="44.62142" lon="-0.19855">
        <ele>69</ele>
        <time>2022-07-26T10:40:18Z</time>
      </trkpt>
      <trkpt lat="44.62142" lon="-0.19855">
        <ele>69</ele>
        <time>2022-07-26T10:40:19Z</time>
      </trkpt>
      <trkpt lat="44.62142" lon="-0.19855">
        <ele>69</ele>
        <time>2022-07-26T10:40:20Z</time>
      </trkpt>
      <trkpt lat="44.62142" lon="-0.19855">
        <ele>69</ele>
        <time>2022-07-26T10:40:21Z</time>
      </trkpt>
      <trkpt lat="44.62142" lon="-0.19855">
        <ele>69</ele>
        <time>2022-07-26T10:40:22Z</time>
      </trkpt>
      <trkpt lat="44.62142" lon="-0.19855">
        <ele>69</ele>
        <time>2022-07-26T10:40:23Z</time>
      </trkpt>
      <trkpt lat="44.62142" lon="-0.19855">
        <ele>69</ele>
        <time>2022-07-26T10:40:24Z</time>
      </trkpt>
      <trkpt lat="44.62142" lon="-0.19855">
        <ele>69</ele>
        <time>2022-07-26T10:40:25Z</time>
      </trkpt>
      <trkpt lat="44.62142" lon="-0.19855">
        <ele>69</ele>
        <time>2022-07-26T10:40:26Z</time>
      </trkpt>
      <trkpt lat="44.62142" lon="-0.19855">
        <ele>69</ele>
        <time>2022-07-26T10:40:27Z</time>
      </trkpt>
      <trkpt lat="44.62142" lon="-0.19855">
        <ele>69</ele>
        <time>2022-07-26T10:40:28Z</time>
      </trkpt>
      <trkpt lat="44.62142" lon="-0.19855">
        <ele>69</ele>
        <time>2022-07-26T10:40:29Z</time>
      </trkpt>
      <trkpt lat="44.62142" lon="-0.19855">
        <ele>69</ele>
        <time>2022-07-26T10:40:30Z</time>
      </trkpt>
      <trkpt lat="44.62142" lon="-0.19855">
        <ele>69</ele>
        <time>2022-07-26T10:40:31Z</time>
      </trkpt>
      <trkpt lat="44.62142" lon="-0.19855">
        <ele>69</ele>
        <time>2022-07-26T10:40:32Z</time>
      </trkpt>
      <trkpt lat="44.62142" lon="-0.19855">
        <ele>69</ele>
        <time>2022-07-26T10:40:33Z</time>
      </trkpt>
      <trkpt lat="44.62142" lon="-0.19855">
        <ele>69</ele>
        <time>2022-07-26T10:40:34Z</time>
      </trkpt>
      <trkpt lat="44.62142" lon="-0.19855">
        <ele>69</ele>
        <time>2022-07-26T10:40:35Z</time>
      </trkpt>
      <trkpt lat="44.62142" lon="-0.19855">
        <ele>69</ele>
        <time>2022-07-26T10:40:36Z</time>
      </trkpt>
      <trkpt lat="44.62142" lon="-0.19855">
        <ele>69</ele>
        <time>2022-07-26T10:40:37Z</time>
      </trkpt>
      <trkpt lat="44.62142" lon="-0.19855">
        <ele>69</ele>
        <time>2022-07-26T10:40:38Z</time>
      </trkpt>
      <trkpt lat="44.62142" lon="-0.19855">
        <ele>69</ele>
        <time>2022-07-26T10:40:39Z</time>
      </trkpt>
      <trkpt lat="44.62142" lon="-0.19855">
        <ele>69</ele>
        <time>2022-07-26T10:40:40Z</time>
      </trkpt>
      <trkpt lat="44.62142" lon="-0.19855">
        <ele>69</ele>
        <time>2022-07-26T10:40:41Z</time>
      </trkpt>
      <trkpt lat="44.62142" lon="-0.19855">
        <ele>69</ele>
        <time>2022-07-26T10:40:42Z</time>
      </trkpt>
      <trkpt lat="44.62142" lon="-0.19855">
        <ele>69</ele>
        <time>2022-07-26T10:40:43Z</time>
      </trkpt>
      <trkpt lat="44.62142" lon="-0.19855">
        <ele>69</ele>
        <time>2022-07-26T10:40:44Z</time>
      </trkpt>
      <trkpt lat="44.62142" lon="-0.19855">
        <ele>69</ele>
        <time>2022-07-26T10:40:45Z</time>
      </trkpt>
      <trkpt lat="44.62142" lon="-0.19855">
        <ele>69</ele>
        <time>2022-07-26T10:40:46Z</time>
      </trkpt>
      <trkpt lat="44.62142" lon="-0.19855">
        <ele>69</ele>
        <time>2022-07-26T10:40:47Z</time>
      </trkpt>
      <trkpt lat="44.62142" lon="-0.19855">
        <ele>69</ele>
        <time>2022-07-26T10:40:48Z</time>
      </trkpt>
      <trkpt lat="44.62142" lon="-0.19855">
        <ele>69</ele>
        <time>2022-07-26T10:40:49Z</time>
      </trkpt>
      <trkpt lat="44.62142" lon="-0.19855">
        <ele>69</ele>
        <time>2022-07-26T10:40:50Z</time>
      </trkpt>
      <trkpt lat="44.62142" lon="-0.19855">
        <ele>69</ele>
        <time>2022-07-26T10:40:51Z</time>
      </trkpt>
      <trkpt lat="44.62142" lon="-0.19855">
        <ele>69</ele>
        <time>2022-07-26T10:40:52Z</time>
      </trkpt>
      <trkpt lat="44.62142" lon="-0.19855">
        <ele>69</ele>
        <time>2022-07-26T10:40:53Z</time>
      </trkpt>
      <trkpt lat="44.62142" lon="-0.19855">
        <ele>69</ele>
        <time>2022-07-26T10:40:54Z</time>
      </trkpt>
      <trkpt lat="44.62142" lon="-0.19855">
        <ele>69</ele>
        <time>2022-07-26T10:40:55Z</time>
      </trkpt>
      <trkpt lat="44.62142" lon="-0.19855">
        <ele>69</ele>
        <time>2022-07-26T10:40:56Z</time>
      </trkpt>
      <trkpt lat="44.62143" lon="-0.19855">
        <ele>69</ele>
        <time>2022-07-26T10:40:57Z</time>
      </trkpt>
      <trkpt lat="44.62143" lon="-0.19855">
        <ele>69</ele>
        <time>2022-07-26T10:40:58Z</time>
      </trkpt>
      <trkpt lat="44.62143" lon="-0.19855">
        <ele>69</ele>
        <time>2022-07-26T10:40:59Z</time>
      </trkpt>
      <trkpt lat="44.62143" lon="-0.19856">
        <ele>69</ele>
        <time>2022-07-26T10:41:00Z</time>
      </trkpt>
      <trkpt lat="44.62143" lon="-0.19857">
        <ele>69.4</ele>
        <time>2022-07-26T10:41:01Z</time>
      </trkpt>
      <trkpt lat="44.62143" lon="-0.19859">
        <ele>69.4</ele>
        <time>2022-07-26T10:41:02Z</time>
      </trkpt>
      <trkpt lat="44.62143" lon="-0.19859">
        <ele>69.4</ele>
        <time>2022-07-26T10:41:03Z</time>
      </trkpt>
      <trkpt lat="44.62143" lon="-0.19859">
        <ele>69.4</ele>
        <time>2022-07-26T10:41:04Z</time>
      </trkpt>
      <trkpt lat="44.62143" lon="-0.19859">
        <ele>69.4</ele>
        <time>2022-07-26T10:41:05Z</time>
      </trkpt>
      <trkpt lat="44.62143" lon="-0.19859">
        <ele>69.4</ele>
        <time>2022-07-26T10:41:06Z</time>
      </trkpt>
      <trkpt lat="44.62143" lon="-0.19859">
        <ele>69.4</ele>
        <time>2022-07-26T10:41:07Z</time>
      </trkpt>
      <trkpt lat="44.62143" lon="-0.19859">
        <ele>69.4</ele>
        <time>2022-07-26T10:41:08Z</time>
      </trkpt>
      <trkpt lat="44.62143" lon="-0.19859">
        <ele>69.4</ele>
        <time>2022-07-26T10:41:09Z</time>
      </trkpt>
      <trkpt lat="44.62143" lon="-0.19859">
        <ele>69.4</ele>
        <time>2022-07-26T10:41:10Z</time>
      </trkpt>
      <trkpt lat="44.62143" lon="-0.19859">
        <ele>69.4</ele>
        <time>2022-07-26T10:41:11Z</time>
      </trkpt>
      <trkpt lat="44.62143" lon="-0.19859">
        <ele>69.4</ele>
        <time>2022-07-26T10:41:12Z</time>
      </trkpt>
      <trkpt lat="44.62143" lon="-0.19859">
        <ele>69.4</ele>
        <time>2022-07-26T10:41:13Z</time>
      </trkpt>
      <trkpt lat="44.62143" lon="-0.19858">
        <ele>69.4</ele>
        <time>2022-07-26T10:41:14Z</time>
      </trkpt>
      <trkpt lat="44.62143" lon="-0.19858">
        <ele>69.4</ele>
        <time>2022-07-26T10:41:15Z</time>
      </trkpt>
      <trkpt lat="44.62143" lon="-0.19858">
        <ele>69.4</ele>
        <time>2022-07-26T10:41:16Z</time>
      </trkpt>
      <trkpt lat="44.62143" lon="-0.19858">
        <ele>69.4</ele>
        <time>2022-07-26T10:41:17Z</time>
      </trkpt>
      <trkpt lat="44.62143" lon="-0.19858">
        <ele>69.4</ele>
        <time>2022-07-26T10:41:18Z</time>
      </trkpt>
      <trkpt lat="44.62143" lon="-0.19858">
        <ele>69.4</ele>
        <time>2022-07-26T10:41:19Z</time>
      </trkpt>
      <trkpt lat="44.62143" lon="-0.19858">
        <ele>69.4</ele>
        <time>2022-07-26T10:41:20Z</time>
      </trkpt>
      <trkpt lat="44.62143" lon="-0.19858">
        <ele>69.4</ele>
        <time>2022-07-26T10:41:21Z</time>
      </trkpt>
      <trkpt lat="44.62143" lon="-0.19858">
        <ele>69.4</ele>
        <time>2022-07-26T10:41:22Z</time>
      </trkpt>
      <trkpt lat="44.62144" lon="-0.19858">
        <ele>69.4</ele>
        <time>2022-07-26T10:41:23Z</time>
      </trkpt>
      <trkpt lat="44.62144" lon="-0.19858">
        <ele>69.4</ele>
        <time>2022-07-26T10:41:24Z</time>
      </trkpt>
      <trkpt lat="44.62144" lon="-0.19858">
        <ele>69.4</ele>
        <time>2022-07-26T10:41:25Z</time>
      </trkpt>
      <trkpt lat="44.62144" lon="-0.19858">
        <ele>69.4</ele>
        <time>2022-07-26T10:41:26Z</time>
      </trkpt>
      <trkpt lat="44.62144" lon="-0.19858">
        <ele>69.4</ele>
        <time>2022-07-26T10:41:27Z</time>
      </trkpt>
      <trkpt lat="44.62144" lon="-0.19858">
        <ele>69.4</ele>
        <time>2022-07-26T10:41:28Z</time>
      </trkpt>
      <trkpt lat="44.62144" lon="-0.19858">
        <ele>69.4</ele>
        <time>2022-07-26T10:41:29Z</time>
      </trkpt>
      <trkpt lat="44.62144" lon="-0.19858">
        <ele>69.4</ele>
        <time>2022-07-26T10:41:30Z</time>
      </trkpt>
      <trkpt lat="44.62144" lon="-0.19857">
        <ele>69.4</ele>
        <time>2022-07-26T10:41:31Z</time>
      </trkpt>
      <trkpt lat="44.62144" lon="-0.19857">
        <ele>69.4</ele>
        <time>2022-07-26T10:41:32Z</time>
      </trkpt>
      <trkpt lat="44.62144" lon="-0.19857">
        <ele>69.4</ele>
        <time>2022-07-26T10:41:33Z</time>
      </trkpt>
      <trkpt lat="44.62144" lon="-0.19857">
        <ele>69.4</ele>
        <time>2022-07-26T10:41:34Z</time>
      </trkpt>
      <trkpt lat="44.62144" lon="-0.19857">
        <ele>69.4</ele>
        <time>2022-07-26T10:41:35Z</time>
      </trkpt>
      <trkpt lat="44.62144" lon="-0.19857">
        <ele>69.4</ele>
        <time>2022-07-26T10:41:36Z</time>
      </trkpt>
      <trkpt lat="44.62144" lon="-0.19857">
        <ele>69.4</ele>
        <time>2022-07-26T10:41:37Z</time>
      </trkpt>
      <trkpt lat="44.62144" lon="-0.19857">
        <ele>69.4</ele>
        <time>2022-07-26T10:41:38Z</time>
      </trkpt>
      <trkpt lat="44.62144" lon="-0.19857">
        <ele>69.4</ele>
        <time>2022-07-26T10:41:39Z</time>
      </trkpt>
      <trkpt lat="44.62144" lon="-0.19857">
        <ele>69.5</ele>
        <time>2022-07-26T10:41:40Z</time>
      </trkpt>
      <trkpt lat="44.62144" lon="-0.19857">
        <ele>69.1</ele>
        <time>2022-07-26T10:41:41Z</time>
      </trkpt>
      <trkpt lat="44.62144" lon="-0.19857">
        <ele>69.1</ele>
        <time>2022-07-26T10:41:42Z</time>
      </trkpt>
      <trkpt lat="44.62144" lon="-0.19857">
        <ele>69.1</ele>
        <time>2022-07-26T10:41:43Z</time>
      </trkpt>
      <trkpt lat="44.62144" lon="-0.19857">
        <ele>69.1</ele>
        <time>2022-07-26T10:41:44Z</time>
      </trkpt>
      <trkpt lat="44.62144" lon="-0.19857">
        <ele>69.1</ele>
        <time>2022-07-26T10:41:45Z</time>
      </trkpt>
      <trkpt lat="44.62144" lon="-0.19857">
        <ele>69.1</ele>
        <time>2022-07-26T10:41:46Z</time>
      </trkpt>
      <trkpt lat="44.62144" lon="-0.19857">
        <ele>69.1</ele>
        <time>2022-07-26T10:41:47Z</time>
      </trkpt>
      <trkpt lat="44.62144" lon="-0.19857">
        <ele>69.1</ele>
        <time>2022-07-26T10:41:48Z</time>
      </trkpt>
      <trkpt lat="44.62145" lon="-0.19857">
        <ele>69.1</ele>
        <time>2022-07-26T10:41:49Z</time>
      </trkpt>
      <trkpt lat="44.62145" lon="-0.19856">
        <ele>69.1</ele>
        <time>2022-07-26T10:41:50Z</time>
      </trkpt>
      <trkpt lat="44.62145" lon="-0.19856">
        <ele>69.1</ele>
        <time>2022-07-26T10:41:51Z</time>
      </trkpt>
      <trkpt lat="44.62145" lon="-0.19856">
        <ele>69.1</ele>
        <time>2022-07-26T10:41:52Z</time>
      </trkpt>
      <trkpt lat="44.62145" lon="-0.19856">
        <ele>69.1</ele>
        <time>2022-07-26T10:41:53Z</time>
      </trkpt>
      <trkpt lat="44.62145" lon="-0.19856">
        <ele>69.1</ele>
        <time>2022-07-26T10:41:54Z</time>
      </trkpt>
      <trkpt lat="44.62145" lon="-0.19856">
        <ele>69.1</ele>
        <time>2022-07-26T10:41:55Z</time>
      </trkpt>
      <trkpt lat="44.62145" lon="-0.19856">
        <ele>69.1</ele>
        <time>2022-07-26T10:41:56Z</time>
      </trkpt>
      <trkpt lat="44.62145" lon="-0.19856">
        <ele>69.1</ele>
        <time>2022-07-26T10:41:57Z</time>
      </trkpt>
      <trkpt lat="44.62145" lon="-0.19856">
        <ele>69.1</ele>
        <time>2022-07-26T10:41:58Z</time>
      </trkpt>
      <trkpt lat="44.62145" lon="-0.19856">
        <ele>68.7</ele>
        <time>2022-07-26T10:41:59Z</time>
      </trkpt>
      <trkpt lat="44.62145" lon="-0.19856">
        <ele>68.7</ele>
        <time>2022-07-26T10:42:00Z</time>
      </trkpt>
      <trkpt lat="44.62145" lon="-0.19856">
        <ele>68.7</ele>
        <time>2022-07-26T10:42:01Z</time>
      </trkpt>
      <trkpt lat="44.62145" lon="-0.19856">
        <ele>68.7</ele>
        <time>2022-07-26T10:42:02Z</time>
      </trkpt>
      <trkpt lat="44.62145" lon="-0.19856">
        <ele>68.7</ele>
        <time>2022-07-26T10:42:03Z</time>
      </trkpt>
      <trkpt lat="44.62145" lon="-0.19856">
        <ele>68.7</ele>
        <time>2022-07-26T10:42:04Z</time>
      </trkpt>
      <trkpt lat="44.62145" lon="-0.19855">
        <ele>68.7</ele>
        <time>2022-07-26T10:42:05Z</time>
      </trkpt>
      <trkpt lat="44.62145" lon="-0.19855">
        <ele>68.7</ele>
        <time>2022-07-26T10:42:06Z</time>
      </trkpt>
      <trkpt lat="44.62145" lon="-0.19855">
        <ele>68.7</ele>
        <time>2022-07-26T10:42:07Z</time>
      </trkpt>
      <trkpt lat="44.62145" lon="-0.19855">
        <ele>68.7</ele>
        <time>2022-07-26T10:42:08Z</time>
      </trkpt>
      <trkpt lat="44.62145" lon="-0.19855">
        <ele>68.7</ele>
        <time>2022-07-26T10:42:09Z</time>
      </trkpt>
      <trkpt lat="44.62145" lon="-0.19855">
        <ele>68.7</ele>
        <time>2022-07-26T10:42:10Z</time>
      </trkpt>
      <trkpt lat="44.62145" lon="-0.19855">
        <ele>68.7</ele>
        <time>2022-07-26T10:42:11Z</time>
      </trkpt>
      <trkpt lat="44.62145" lon="-0.19855">
        <ele>68.7</ele>
        <time>2022-07-26T10:42:12Z</time>
      </trkpt>
      <trkpt lat="44.62145" lon="-0.19855">
        <ele>68.7</ele>
        <time>2022-07-26T10:42:13Z</time>
      </trkpt>
      <trkpt lat="44.62145" lon="-0.19855">
        <ele>68.7</ele>
        <time>2022-07-26T10:42:14Z</time>
      </trkpt>
      <trkpt lat="44.62145" lon="-0.19855">
        <ele>68.7</ele>
        <time>2022-07-26T10:42:15Z</time>
      </trkpt>
      <trkpt lat="44.62145" lon="-0.19855">
        <ele>68.7</ele>
        <time>2022-07-26T10:42:16Z</time>
      </trkpt>
      <trkpt lat="44.62146" lon="-0.19855">
        <ele>68.7</ele>
        <time>2022-07-26T10:42:17Z</time>
      </trkpt>
      <trkpt lat="44.62146" lon="-0.19855">
        <ele>68.7</ele>
        <time>2022-07-26T10:42:18Z</time>
      </trkpt>
      <trkpt lat="44.62146" lon="-0.19855">
        <ele>68.7</ele>
        <time>2022-07-26T10:42:19Z</time>
      </trkpt>
      <trkpt lat="44.62146" lon="-0.19855">
        <ele>68.7</ele>
        <time>2022-07-26T10:42:20Z</time>
      </trkpt>
      <trkpt lat="44.62146" lon="-0.19855">
        <ele>68.7</ele>
        <time>2022-07-26T10:42:21Z</time>
      </trkpt>
      <trkpt lat="44.62146" lon="-0.19854">
        <ele>68.7</ele>
        <time>2022-07-26T10:42:22Z</time>
      </trkpt>
      <trkpt lat="44.62146" lon="-0.19854">
        <ele>68.7</ele>
        <time>2022-07-26T10:42:23Z</time>
      </trkpt>
      <trkpt lat="44.62146" lon="-0.19854">
        <ele>68.7</ele>
        <time>2022-07-26T10:42:24Z</time>
      </trkpt>
      <trkpt lat="44.62146" lon="-0.19854">
        <ele>68.7</ele>
        <time>2022-07-26T10:42:25Z</time>
      </trkpt>
      <trkpt lat="44.62146" lon="-0.19854">
        <ele>68.7</ele>
        <time>2022-07-26T10:42:26Z</time>
      </trkpt>
      <trkpt lat="44.62146" lon="-0.19854">
        <ele>68.7</ele>
        <time>2022-07-26T10:42:27Z</time>
      </trkpt>
      <trkpt lat="44.62146" lon="-0.19854">
        <ele>68.7</ele>
        <time>2022-07-26T10:42:28Z</time>
      </trkpt>
      <trkpt lat="44.62146" lon="-0.19854">
        <ele>68.7</ele>
        <time>2022-07-26T10:42:30Z</time>
      </trkpt>
      <trkpt lat="44.62146" lon="-0.19854">
        <ele>68.7</ele>
        <time>2022-07-26T10:42:31Z</time>
      </trkpt>
      <trkpt lat="44.62146" lon="-0.19854">
        <ele>68.7</ele>
        <time>2022-07-26T10:42:32Z</time>
      </trkpt>
      <trkpt lat="44.62146" lon="-0.19854">
        <ele>68.7</ele>
        <time>2022-07-26T10:42:33Z</time>
      </trkpt>
      <trkpt lat="44.62146" lon="-0.19854">
        <ele>68.7</ele>
        <time>2022-07-26T10:42:34Z</time>
      </trkpt>
      <trkpt lat="44.62149" lon="-0.19852">
        <ele>67.9</ele>
        <time>2022-07-26T10:42:35Z</time>
      </trkpt>
      <trkpt lat="44.6215" lon="-0.19851">
        <ele>67.9</ele>
        <time>2022-07-26T10:42:36Z</time>
      </trkpt>
      <trkpt lat="44.62151" lon="-0.1985">
        <ele>67.5</ele>
        <time>2022-07-26T10:42:38Z</time>
      </trkpt>
      <trkpt lat="44.62152" lon="-0.1985">
        <ele>67.5</ele>
        <time>2022-07-26T10:42:39Z</time>
      </trkpt>
      <trkpt lat="44.62154" lon="-0.1985">
        <ele>67.5</ele>
        <time>2022-07-26T10:42:40Z</time>
      </trkpt>
      <trkpt lat="44.62155" lon="-0.19849">
        <ele>67</ele>
        <time>2022-07-26T10:42:41Z</time>
      </trkpt>
      <trkpt lat="44.62156" lon="-0.19849">
        <ele>67</ele>
        <time>2022-07-26T10:42:42Z</time>
      </trkpt>
      <trkpt lat="44.62157" lon="-0.19849">
        <ele>66.6</ele>
        <time>2022-07-26T10:42:44Z</time>
      </trkpt>
      <trkpt lat="44.62159" lon="-0.19848">
        <ele>66.6</ele>
        <time>2022-07-26T10:42:45Z</time>
      </trkpt>
      <trkpt lat="44.6216" lon="-0.19848">
        <ele>66.2</ele>
        <time>2022-07-26T10:42:46Z</time>
      </trkpt>
      <trkpt lat="44.62162" lon="-0.19849">
        <ele>66.2</ele>
        <time>2022-07-26T10:42:47Z</time>
      </trkpt>
      <trkpt lat="44.62163" lon="-0.19849">
        <ele>65.7</ele>
        <time>2022-07-26T10:42:48Z</time>
      </trkpt>
      <trkpt lat="44.62164" lon="-0.19849">
        <ele>65.7</ele>
        <time>2022-07-26T10:42:49Z</time>
      </trkpt>
      <trkpt lat="44.62165" lon="-0.19849">
        <ele>65.7</ele>
        <time>2022-07-26T10:42:51Z</time>
      </trkpt>
      <trkpt lat="44.62165" lon="-0.19849">
        <ele>65.8</ele>
        <time>2022-07-26T10:42:52Z</time>
      </trkpt>
      <trkpt lat="44.62167" lon="-0.1985">
        <ele>65.3</ele>
        <time>2022-07-26T10:42:53Z</time>
      </trkpt>
      <trkpt lat="44.62167" lon="-0.1985">
        <ele>65.3</ele>
        <time>2022-07-26T10:42:54Z</time>
      </trkpt>
      <trkpt lat="44.62168" lon="-0.19849">
        <ele>65.3</ele>
        <time>2022-07-26T10:42:55Z</time>
      </trkpt>
      <trkpt lat="44.62169" lon="-0.19849">
        <ele>65.3</ele>
        <time>2022-07-26T10:42:56Z</time>
      </trkpt>
      <trkpt lat="44.6217" lon="-0.19849">
        <ele>65</ele>
        <time>2022-07-26T10:42:57Z</time>
      </trkpt>
      <trkpt lat="44.62171" lon="-0.19848">
        <ele>64.7</ele>
        <time>2022-07-26T10:42:59Z</time>
      </trkpt>
      <trkpt lat="44.62172" lon="-0.19848">
        <ele>64.7</ele>
        <time>2022-07-26T10:43:00Z</time>
      </trkpt>
      <trkpt lat="44.62173" lon="-0.19847">
        <ele>64.3</ele>
        <time>2022-07-26T10:43:01Z</time>
      </trkpt>
      <trkpt lat="44.62174" lon="-0.19847">
        <ele>64.3</ele>
        <time>2022-07-26T10:43:02Z</time>
      </trkpt>
      <trkpt lat="44.62175" lon="-0.19847">
        <ele>64.3</ele>
        <time>2022-07-26T10:43:03Z</time>
      </trkpt>
      <trkpt lat="44.62177" lon="-0.19848">
        <ele>63.9</ele>
        <time>2022-07-26T10:43:04Z</time>
      </trkpt>
      <trkpt lat="44.62178" lon="-0.19848">
        <ele>63.9</ele>
        <time>2022-07-26T10:43:06Z</time>
      </trkpt>
      <trkpt lat="44.62179" lon="-0.19848">
        <ele>63.6</ele>
        <time>2022-07-26T10:43:07Z</time>
      </trkpt>
      <trkpt lat="44.6218" lon="-0.19848">
        <ele>63.6</ele>
        <time>2022-07-26T10:43:08Z</time>
      </trkpt>
      <trkpt lat="44.6218" lon="-0.19847">
        <ele>63.6</ele>
        <time>2022-07-26T10:43:09Z</time>
      </trkpt>
      <trkpt lat="44.62182" lon="-0.19847">
        <ele>63.4</ele>
        <time>2022-07-26T10:43:10Z</time>
      </trkpt>
      <trkpt lat="44.62183" lon="-0.19847">
        <ele>63.4</ele>
        <time>2022-07-26T10:43:11Z</time>
      </trkpt>
      <trkpt lat="44.62184" lon="-0.19847">
        <ele>63.4</ele>
        <time>2022-07-26T10:43:12Z</time>
      </trkpt>
      <trkpt lat="44.62185" lon="-0.19846">
        <ele>63.2</ele>
        <time>2022-07-26T10:43:13Z</time>
      </trkpt>
      <trkpt lat="44.62186" lon="-0.19846">
        <ele>63.2</ele>
        <time>2022-07-26T10:43:14Z</time>
      </trkpt>
      <trkpt lat="44.62187" lon="-0.19846">
        <ele>63.2</ele>
        <time>2022-07-26T10:43:15Z</time>
      </trkpt>
      <trkpt lat="44.62188" lon="-0.19846">
        <ele>63</ele>
        <time>2022-07-26T10:43:17Z</time>
      </trkpt>
      <trkpt lat="44.62189" lon="-0.19846">
        <ele>63</ele>
        <time>2022-07-26T10:43:18Z</time>
      </trkpt>
      <trkpt lat="44.62191" lon="-0.19846">
        <ele>63</ele>
        <time>2022-07-26T10:43:19Z</time>
      </trkpt>
      <trkpt lat="44.62192" lon="-0.19845">
        <ele>62.8</ele>
        <time>2022-07-26T10:43:20Z</time>
      </trkpt>
      <trkpt lat="44.62193" lon="-0.19845">
        <ele>62.8</ele>
        <time>2022-07-26T10:43:21Z</time>
      </trkpt>
      <trkpt lat="44.62194" lon="-0.19845">
        <ele>62.7</ele>
        <time>2022-07-26T10:43:23Z</time>
      </trkpt>
      <trkpt lat="44.62195" lon="-0.19845">
        <ele>62.7</ele>
        <time>2022-07-26T10:43:24Z</time>
      </trkpt>
      <trkpt lat="44.62197" lon="-0.19845">
        <ele>62.7</ele>
        <time>2022-07-26T10:43:25Z</time>
      </trkpt>
      <trkpt lat="44.62197" lon="-0.19846">
        <ele>62.5</ele>
        <time>2022-07-26T10:43:26Z</time>
      </trkpt>
      <trkpt lat="44.62198" lon="-0.19846">
        <ele>62.5</ele>
        <time>2022-07-26T10:43:27Z</time>
      </trkpt>
      <trkpt lat="44.62199" lon="-0.19846">
        <ele>62.5</ele>
        <time>2022-07-26T10:43:28Z</time>
      </trkpt>
      <trkpt lat="44.622" lon="-0.19846">
        <ele>62.5</ele>
        <time>2022-07-26T10:43:29Z</time>
      </trkpt>
      <trkpt lat="44.62201" lon="-0.19845">
        <ele>62.5</ele>
        <time>2022-07-26T10:43:30Z</time>
      </trkpt>
      <trkpt lat="44.62203" lon="-0.19845">
        <ele>62.5</ele>
        <time>2022-07-26T10:43:31Z</time>
      </trkpt>
      <trkpt lat="44.62204" lon="-0.19845">
        <ele>62.4</ele>
        <time>2022-07-26T10:43:32Z</time>
      </trkpt>
      <trkpt lat="44.62205" lon="-0.19846">
        <ele>62.4</ele>
        <time>2022-07-26T10:43:34Z</time>
      </trkpt>
      <trkpt lat="44.62206" lon="-0.19848">
        <ele>62.4</ele>
        <time>2022-07-26T10:43:35Z</time>
      </trkpt>
      <trkpt lat="44.62205" lon="-0.19849">
        <ele>62.5</ele>
        <time>2022-07-26T10:43:36Z</time>
      </trkpt>
      <trkpt lat="44.62204" lon="-0.1985">
        <ele>62.5</ele>
        <time>2022-07-26T10:43:37Z</time>
      </trkpt>
      <trkpt lat="44.62204" lon="-0.1985">
        <ele>62.5</ele>
        <time>2022-07-26T10:43:38Z</time>
      </trkpt>
      <trkpt lat="44.62204" lon="-0.1985">
        <ele>62.5</ele>
        <time>2022-07-26T10:43:39Z</time>
      </trkpt>
      <trkpt lat="44.62204" lon="-0.1985">
        <ele>62.5</ele>
        <time>2022-07-26T10:43:41Z</time>
      </trkpt>
      <trkpt lat="44.62205" lon="-0.1985">
        <ele>62.5</ele>
        <time>2022-07-26T10:43:42Z</time>
      </trkpt>
      <trkpt lat="44.62206" lon="-0.19851">
        <ele>62.5</ele>
        <time>2022-07-26T10:43:43Z</time>
      </trkpt>
      <trkpt lat="44.62207" lon="-0.19851">
        <ele>62.4</ele>
        <time>2022-07-26T10:43:44Z</time>
      </trkpt>
      <trkpt lat="44.62209" lon="-0.19852">
        <ele>62.4</ele>
        <time>2022-07-26T10:43:45Z</time>
      </trkpt>
      <trkpt lat="44.6221" lon="-0.19852">
        <ele>62.3</ele>
        <time>2022-07-26T10:43:46Z</time>
      </trkpt>
      <trkpt lat="44.62212" lon="-0.19851">
        <ele>62.3</ele>
        <time>2022-07-26T10:43:47Z</time>
      </trkpt>
      <trkpt lat="44.62213" lon="-0.19851">
        <ele>62.3</ele>
        <time>2022-07-26T10:43:48Z</time>
      </trkpt>
      <trkpt lat="44.62214" lon="-0.19851">
        <ele>62.3</ele>
        <time>2022-07-26T10:43:49Z</time>
      </trkpt>
      <trkpt lat="44.62216" lon="-0.1985">
        <ele>62.2</ele>
        <time>2022-07-26T10:43:51Z</time>
      </trkpt>
      <trkpt lat="44.62217" lon="-0.1985">
        <ele>62.2</ele>
        <time>2022-07-26T10:43:52Z</time>
      </trkpt>
      <trkpt lat="44.62217" lon="-0.19849">
        <ele>62.2</ele>
        <time>2022-07-26T10:43:53Z</time>
      </trkpt>
      <trkpt lat="44.62218" lon="-0.19849">
        <ele>62.2</ele>
        <time>2022-07-26T10:43:54Z</time>
      </trkpt>
      <trkpt lat="44.62219" lon="-0.19849">
        <ele>62.2</ele>
        <time>2022-07-26T10:43:55Z</time>
      </trkpt>
      <trkpt lat="44.6222" lon="-0.19849">
        <ele>62.2</ele>
        <time>2022-07-26T10:43:56Z</time>
      </trkpt>
      <trkpt lat="44.62223" lon="-0.19849">
        <ele>62.1</ele>
        <time>2022-07-26T10:43:57Z</time>
      </trkpt>
      <trkpt lat="44.62223" lon="-0.19849">
        <ele>62.1</ele>
        <time>2022-07-26T10:43:59Z</time>
      </trkpt>
      <trkpt lat="44.62224" lon="-0.19849">
        <ele>62.1</ele>
        <time>2022-07-26T10:44:00Z</time>
      </trkpt>
      <trkpt lat="44.62227" lon="-0.19849">
        <ele>62.1</ele>
        <time>2022-07-26T10:44:01Z</time>
      </trkpt>
      <trkpt lat="44.62227" lon="-0.19848">
        <ele>62.1</ele>
        <time>2022-07-26T10:44:02Z</time>
      </trkpt>
      <trkpt lat="44.62228" lon="-0.19848">
        <ele>62.1</ele>
        <time>2022-07-26T10:44:03Z</time>
      </trkpt>
      <trkpt lat="44.6223" lon="-0.19848">
        <ele>62.1</ele>
        <time>2022-07-26T10:44:04Z</time>
      </trkpt>
      <trkpt lat="44.62231" lon="-0.19847">
        <ele>62.1</ele>
        <time>2022-07-26T10:44:05Z</time>
      </trkpt>
      <trkpt lat="44.62232" lon="-0.19846">
        <ele>62.1</ele>
        <time>2022-07-26T10:44:06Z</time>
      </trkpt>
      <trkpt lat="44.62233" lon="-0.19844">
        <ele>62.2</ele>
        <time>2022-07-26T10:44:08Z</time>
      </trkpt>
      <trkpt lat="44.62233" lon="-0.19841">
        <ele>62.2</ele>
        <time>2022-07-26T10:44:09Z</time>
      </trkpt>
      <trkpt lat="44.62233" lon="-0.19839">
        <ele>62.2</ele>
        <time>2022-07-26T10:44:10Z</time>
      </trkpt>
      <trkpt lat="44.62232" lon="-0.19837">
        <ele>62.2</ele>
        <time>2022-07-26T10:44:11Z</time>
      </trkpt>
      <trkpt lat="44.62231" lon="-0.19833">
        <ele>62.3</ele>
        <time>2022-07-26T10:44:13Z</time>
      </trkpt>
      <trkpt lat="44.6223" lon="-0.19832">
        <ele>62.3</ele>
        <time>2022-07-26T10:44:14Z</time>
      </trkpt>
      <trkpt lat="44.62229" lon="-0.1983">
        <ele>62.3</ele>
        <time>2022-07-26T10:44:15Z</time>
      </trkpt>
      <trkpt lat="44.62228" lon="-0.19827">
        <ele>62.3</ele>
        <time>2022-07-26T10:44:16Z</time>
      </trkpt>
      <trkpt lat="44.62228" lon="-0.19825">
        <ele>62.4</ele>
        <time>2022-07-26T10:44:18Z</time>
      </trkpt>
      <trkpt lat="44.62227" lon="-0.19824">
        <ele>62.4</ele>
        <time>2022-07-26T10:44:19Z</time>
      </trkpt>
      <trkpt lat="44.62227" lon="-0.19822">
        <ele>62.5</ele>
        <time>2022-07-26T10:44:20Z</time>
      </trkpt>
      <trkpt lat="44.62227" lon="-0.19821">
        <ele>62.5</ele>
        <time>2022-07-26T10:44:21Z</time>
      </trkpt>
      <trkpt lat="44.62226" lon="-0.19819">
        <ele>62.5</ele>
        <time>2022-07-26T10:44:22Z</time>
      </trkpt>
      <trkpt lat="44.62226" lon="-0.19817">
        <ele>62.5</ele>
        <time>2022-07-26T10:44:23Z</time>
      </trkpt>
      <trkpt lat="44.62225" lon="-0.19813">
        <ele>62.6</ele>
        <time>2022-07-26T10:44:24Z</time>
      </trkpt>
      <trkpt lat="44.62225" lon="-0.19811">
        <ele>62.6</ele>
        <time>2022-07-26T10:44:26Z</time>
      </trkpt>
      <trkpt lat="44.62224" lon="-0.1981">
        <ele>62.6</ele>
        <time>2022-07-26T10:44:27Z</time>
      </trkpt>
      <trkpt lat="44.62224" lon="-0.19808">
        <ele>62.6</ele>
        <time>2022-07-26T10:44:28Z</time>
      </trkpt>
      <trkpt lat="44.62224" lon="-0.19806">
        <ele>62.6</ele>
        <time>2022-07-26T10:44:29Z</time>
      </trkpt>
      <trkpt lat="44.62224" lon="-0.19805">
        <ele>62.7</ele>
        <time>2022-07-26T10:44:31Z</time>
      </trkpt>
      <trkpt lat="44.62224" lon="-0.19803">
        <ele>62.7</ele>
        <time>2022-07-26T10:44:32Z</time>
      </trkpt>
      <trkpt lat="44.62223" lon="-0.19802">
        <ele>62.7</ele>
        <time>2022-07-26T10:44:33Z</time>
      </trkpt>
      <trkpt lat="44.62223" lon="-0.198">
        <ele>62.7</ele>
        <time>2022-07-26T10:44:34Z</time>
      </trkpt>
      <trkpt lat="44.62223" lon="-0.19798">
        <ele>62.7</ele>
        <time>2022-07-26T10:44:35Z</time>
      </trkpt>
      <trkpt lat="44.62222" lon="-0.19796">
        <ele>62.8</ele>
        <time>2022-07-26T10:44:36Z</time>
      </trkpt>
      <trkpt lat="44.62222" lon="-0.19795">
        <ele>62.8</ele>
        <time>2022-07-26T10:44:37Z</time>
      </trkpt>
      <trkpt lat="44.62222" lon="-0.19794">
        <ele>62.8</ele>
        <time>2022-07-26T10:44:38Z</time>
      </trkpt>
      <trkpt lat="44.62222" lon="-0.19791">
        <ele>62.8</ele>
        <time>2022-07-26T10:44:39Z</time>
      </trkpt>
      <trkpt lat="44.62222" lon="-0.1979">
        <ele>62.8</ele>
        <time>2022-07-26T10:44:40Z</time>
      </trkpt>
      <trkpt lat="44.62222" lon="-0.19789">
        <ele>62.8</ele>
        <time>2022-07-26T10:44:41Z</time>
      </trkpt>
      <trkpt lat="44.62222" lon="-0.19788">
        <ele>62.9</ele>
        <time>2022-07-26T10:44:42Z</time>
      </trkpt>
      <trkpt lat="44.62221" lon="-0.19786">
        <ele>62.9</ele>
        <time>2022-07-26T10:44:43Z</time>
      </trkpt>
      <trkpt lat="44.62221" lon="-0.19783">
        <ele>62.9</ele>
        <time>2022-07-26T10:44:45Z</time>
      </trkpt>
      <trkpt lat="44.6222" lon="-0.19783">
        <ele>62.9</ele>
        <time>2022-07-26T10:44:46Z</time>
      </trkpt>
      <trkpt lat="44.6222" lon="-0.19782">
        <ele>62.9</ele>
        <time>2022-07-26T10:44:47Z</time>
      </trkpt>
      <trkpt lat="44.6222" lon="-0.1978">
        <ele>62.9</ele>
        <time>2022-07-26T10:44:48Z</time>
      </trkpt>
      <trkpt lat="44.62219" lon="-0.19779">
        <ele>63</ele>
        <time>2022-07-26T10:44:49Z</time>
      </trkpt>
      <trkpt lat="44.62219" lon="-0.19777">
        <ele>63</ele>
        <time>2022-07-26T10:44:50Z</time>
      </trkpt>
      <trkpt lat="44.62218" lon="-0.19775">
        <ele>63</ele>
        <time>2022-07-26T10:44:51Z</time>
      </trkpt>
      <trkpt lat="44.62218" lon="-0.19774">
        <ele>63.1</ele>
        <time>2022-07-26T10:44:52Z</time>
      </trkpt>
      <trkpt lat="44.62218" lon="-0.19773">
        <ele>63.1</ele>
        <time>2022-07-26T10:44:53Z</time>
      </trkpt>
      <trkpt lat="44.62218" lon="-0.19768">
        <ele>63.1</ele>
        <time>2022-07-26T10:44:55Z</time>
      </trkpt>
      <trkpt lat="44.62219" lon="-0.19767">
        <ele>63.2</ele>
        <time>2022-07-26T10:44:56Z</time>
      </trkpt>
      <trkpt lat="44.62219" lon="-0.19765">
        <ele>63.2</ele>
        <time>2022-07-26T10:44:57Z</time>
      </trkpt>
      <trkpt lat="44.6222" lon="-0.19764">
        <ele>63.2</ele>
        <time>2022-07-26T10:44:58Z</time>
      </trkpt>
      <trkpt lat="44.6222" lon="-0.19762">
        <ele>63.2</ele>
        <time>2022-07-26T10:44:59Z</time>
      </trkpt>
      <trkpt lat="44.62221" lon="-0.19759">
        <ele>63.2</ele>
        <time>2022-07-26T10:45:00Z</time>
      </trkpt>
      <trkpt lat="44.62222" lon="-0.19757">
        <ele>63.2</ele>
        <time>2022-07-26T10:45:02Z</time>
      </trkpt>
      <trkpt lat="44.62223" lon="-0.19756">
        <ele>63.2</ele>
        <time>2022-07-26T10:45:03Z</time>
      </trkpt>
      <trkpt lat="44.62223" lon="-0.19755">
        <ele>63.2</ele>
        <time>2022-07-26T10:45:04Z</time>
      </trkpt>
      <trkpt lat="44.62224" lon="-0.19752">
        <ele>63.3</ele>
        <time>2022-07-26T10:45:05Z</time>
      </trkpt>
      <trkpt lat="44.62225" lon="-0.19751">
        <ele>63.3</ele>
        <time>2022-07-26T10:45:06Z</time>
      </trkpt>
      <trkpt lat="44.62227" lon="-0.19749">
        <ele>63.3</ele>
        <time>2022-07-26T10:45:07Z</time>
      </trkpt>
      <trkpt lat="44.62227" lon="-0.19748">
        <ele>63.3</ele>
        <time>2022-07-26T10:45:08Z</time>
      </trkpt>
      <trkpt lat="44.62227" lon="-0.19747">
        <ele>63.3</ele>
        <time>2022-07-26T10:45:09Z</time>
      </trkpt>
      <trkpt lat="44.62228" lon="-0.19744">
        <ele>63.4</ele>
        <time>2022-07-26T10:45:10Z</time>
      </trkpt>
      <trkpt lat="44.62229" lon="-0.19742">
        <ele>63.4</ele>
        <time>2022-07-26T10:45:12Z</time>
      </trkpt>
      <trkpt lat="44.62229" lon="-0.19741">
        <ele>63.4</ele>
        <time>2022-07-26T10:45:13Z</time>
      </trkpt>
      <trkpt lat="44.62229" lon="-0.19737">
        <ele>63.4</ele>
        <time>2022-07-26T10:45:14Z</time>
      </trkpt>
      <trkpt lat="44.62229" lon="-0.19736">
        <ele>63.5</ele>
        <time>2022-07-26T10:45:15Z</time>
      </trkpt>
      <trkpt lat="44.62229" lon="-0.19735">
        <ele>63.5</ele>
        <time>2022-07-26T10:45:16Z</time>
      </trkpt>
      <trkpt lat="44.62229" lon="-0.19732">
        <ele>63.6</ele>
        <time>2022-07-26T10:45:18Z</time>
      </trkpt>
      <trkpt lat="44.62229" lon="-0.1973">
        <ele>63.6</ele>
        <time>2022-07-26T10:45:19Z</time>
      </trkpt>
      <trkpt lat="44.6223" lon="-0.19728">
        <ele>63.7</ele>
        <time>2022-07-26T10:45:20Z</time>
      </trkpt>
      <trkpt lat="44.6223" lon="-0.19726">
        <ele>63.7</ele>
        <time>2022-07-26T10:45:21Z</time>
      </trkpt>
      <trkpt lat="44.6223" lon="-0.19725">
        <ele>63.7</ele>
        <time>2022-07-26T10:45:22Z</time>
      </trkpt>
      <trkpt lat="44.6223" lon="-0.19723">
        <ele>63.9</ele>
        <time>2022-07-26T10:45:23Z</time>
      </trkpt>
      <trkpt lat="44.6223" lon="-0.19721">
        <ele>63.9</ele>
        <time>2022-07-26T10:45:24Z</time>
      </trkpt>
      <trkpt lat="44.6223" lon="-0.19718">
        <ele>64</ele>
        <time>2022-07-26T10:45:25Z</time>
      </trkpt>
      <trkpt lat="44.6223" lon="-0.19717">
        <ele>64</ele>
        <time>2022-07-26T10:45:26Z</time>
      </trkpt>
      <trkpt lat="44.62231" lon="-0.19715">
        <ele>64.2</ele>
        <time>2022-07-26T10:45:27Z</time>
      </trkpt>
      <trkpt lat="44.62231" lon="-0.19713">
        <ele>64.2</ele>
        <time>2022-07-26T10:45:28Z</time>
      </trkpt>
      <trkpt lat="44.62232" lon="-0.1971">
        <ele>64.3</ele>
        <time>2022-07-26T10:45:30Z</time>
      </trkpt>
      <trkpt lat="44.62232" lon="-0.19709">
        <ele>64.3</ele>
        <time>2022-07-26T10:45:31Z</time>
      </trkpt>
      <trkpt lat="44.62232" lon="-0.19708">
        <ele>64.3</ele>
        <time>2022-07-26T10:45:32Z</time>
      </trkpt>
      <trkpt lat="44.62232" lon="-0.19705">
        <ele>64.4</ele>
        <time>2022-07-26T10:45:33Z</time>
      </trkpt>
      <trkpt lat="44.62232" lon="-0.19704">
        <ele>64.4</ele>
        <time>2022-07-26T10:45:34Z</time>
      </trkpt>
      <trkpt lat="44.62232" lon="-0.19703">
        <ele>64.4</ele>
        <time>2022-07-26T10:45:35Z</time>
      </trkpt>
      <trkpt lat="44.62233" lon="-0.19701">
        <ele>64.6</ele>
        <time>2022-07-26T10:45:36Z</time>
      </trkpt>
      <trkpt lat="44.62233" lon="-0.19697">
        <ele>64.7</ele>
        <time>2022-07-26T10:45:38Z</time>
      </trkpt>
      <trkpt lat="44.62233" lon="-0.19695">
        <ele>64.7</ele>
        <time>2022-07-26T10:45:39Z</time>
      </trkpt>
      <trkpt lat="44.62233" lon="-0.19693">
        <ele>64.9</ele>
        <time>2022-07-26T10:45:40Z</time>
      </trkpt>
      <trkpt lat="44.62234" lon="-0.1969">
        <ele>65.1</ele>
        <time>2022-07-26T10:45:42Z</time>
      </trkpt>
      <trkpt lat="44.62234" lon="-0.19688">
        <ele>65.1</ele>
        <time>2022-07-26T10:45:43Z</time>
      </trkpt>
      <trkpt lat="44.62234" lon="-0.19685">
        <ele>65.3</ele>
        <time>2022-07-26T10:45:44Z</time>
      </trkpt>
      <trkpt lat="44.62234" lon="-0.19683">
        <ele>65.3</ele>
        <time>2022-07-26T10:45:45Z</time>
      </trkpt>
      <trkpt lat="44.62234" lon="-0.19682">
        <ele>65.3</ele>
        <time>2022-07-26T10:45:46Z</time>
      </trkpt>
      <trkpt lat="44.62234" lon="-0.19679">
        <ele>65.4</ele>
        <time>2022-07-26T10:45:48Z</time>
      </trkpt>
      <trkpt lat="44.62234" lon="-0.19677">
        <ele>65.4</ele>
        <time>2022-07-26T10:45:49Z</time>
      </trkpt>
      <trkpt lat="44.62234" lon="-0.19674">
        <ele>65.6</ele>
        <time>2022-07-26T10:45:50Z</time>
      </trkpt>
      <trkpt lat="44.62234" lon="-0.19673">
        <ele>65.6</ele>
        <time>2022-07-26T10:45:51Z</time>
      </trkpt>
      <trkpt lat="44.62234" lon="-0.19672">
        <ele>65.7</ele>
        <time>2022-07-26T10:45:52Z</time>
      </trkpt>
      <trkpt lat="44.62234" lon="-0.1967">
        <ele>65.7</ele>
        <time>2022-07-26T10:45:53Z</time>
      </trkpt>
      <trkpt lat="44.62235" lon="-0.19668">
        <ele>65.9</ele>
        <time>2022-07-26T10:45:54Z</time>
      </trkpt>
      <trkpt lat="44.62235" lon="-0.19665">
        <ele>65.9</ele>
        <time>2022-07-26T10:45:56Z</time>
      </trkpt>
      <trkpt lat="44.62235" lon="-0.19663">
        <ele>66</ele>
        <time>2022-07-26T10:45:57Z</time>
      </trkpt>
      <trkpt lat="44.62235" lon="-0.19659">
        <ele>66.2</ele>
        <time>2022-07-26T10:45:59Z</time>
      </trkpt>
      <trkpt lat="44.62235" lon="-0.19658">
        <ele>66.2</ele>
        <time>2022-07-26T10:46:00Z</time>
      </trkpt>
      <trkpt lat="44.62235" lon="-0.19656">
        <ele>66.2</ele>
        <time>2022-07-26T10:46:01Z</time>
      </trkpt>
      <trkpt lat="44.62236" lon="-0.19654">
        <ele>66.3</ele>
        <time>2022-07-26T10:46:02Z</time>
      </trkpt>
      <trkpt lat="44.62236" lon="-0.19652">
        <ele>66.4</ele>
        <time>2022-07-26T10:46:03Z</time>
      </trkpt>
      <trkpt lat="44.62236" lon="-0.1965">
        <ele>66.5</ele>
        <time>2022-07-26T10:46:04Z</time>
      </trkpt>
      <trkpt lat="44.62236" lon="-0.19647">
        <ele>66.5</ele>
        <time>2022-07-26T10:46:06Z</time>
      </trkpt>
      <trkpt lat="44.62236" lon="-0.19646">
        <ele>66.7</ele>
        <time>2022-07-26T10:46:07Z</time>
      </trkpt>
      <trkpt lat="44.62236" lon="-0.19644">
        <ele>66.7</ele>
        <time>2022-07-26T10:46:08Z</time>
      </trkpt>
      <trkpt lat="44.62236" lon="-0.19643">
        <ele>66.7</ele>
        <time>2022-07-26T10:46:09Z</time>
      </trkpt>
      <trkpt lat="44.62236" lon="-0.19641">
        <ele>66.9</ele>
        <time>2022-07-26T10:46:10Z</time>
      </trkpt>
      <trkpt lat="44.62237" lon="-0.1964">
        <ele>67</ele>
        <time>2022-07-26T10:46:11Z</time>
      </trkpt>
      <trkpt lat="44.62237" lon="-0.19638">
        <ele>67</ele>
        <time>2022-07-26T10:46:12Z</time>
      </trkpt>
      <trkpt lat="44.62237" lon="-0.19635">
        <ele>67.2</ele>
        <time>2022-07-26T10:46:14Z</time>
      </trkpt>
      <trkpt lat="44.62237" lon="-0.19632">
        <ele>67.5</ele>
        <time>2022-07-26T10:46:15Z</time>
      </trkpt>
      <trkpt lat="44.62237" lon="-0.19631">
        <ele>67.5</ele>
        <time>2022-07-26T10:46:16Z</time>
      </trkpt>
      <trkpt lat="44.62237" lon="-0.19628">
        <ele>67.6</ele>
        <time>2022-07-26T10:46:17Z</time>
      </trkpt>
      <trkpt lat="44.62236" lon="-0.19627">
        <ele>67.6</ele>
        <time>2022-07-26T10:46:18Z</time>
      </trkpt>
      <trkpt lat="44.62236" lon="-0.19626">
        <ele>67.6</ele>
        <time>2022-07-26T10:46:19Z</time>
      </trkpt>
      <trkpt lat="44.62236" lon="-0.19624">
        <ele>67.8</ele>
        <time>2022-07-26T10:46:20Z</time>
      </trkpt>
      <trkpt lat="44.62236" lon="-0.19622">
        <ele>67.8</ele>
        <time>2022-07-26T10:46:21Z</time>
      </trkpt>
      <trkpt lat="44.62236" lon="-0.1962">
        <ele>68</ele>
        <time>2022-07-26T10:46:23Z</time>
      </trkpt>
      <trkpt lat="44.62236" lon="-0.19618">
        <ele>68</ele>
        <time>2022-07-26T10:46:24Z</time>
      </trkpt>
      <trkpt lat="44.62236" lon="-0.19617">
        <ele>68</ele>
        <time>2022-07-26T10:46:25Z</time>
      </trkpt>
      <trkpt lat="44.62237" lon="-0.19614">
        <ele>68.2</ele>
        <time>2022-07-26T10:46:27Z</time>
      </trkpt>
      <trkpt lat="44.62238" lon="-0.19613">
        <ele>68.2</ele>
        <time>2022-07-26T10:46:28Z</time>
      </trkpt>
      <trkpt lat="44.62239" lon="-0.19613">
        <ele>68.2</ele>
        <time>2022-07-26T10:46:29Z</time>
      </trkpt>
      <trkpt lat="44.62241" lon="-0.19613">
        <ele>68.3</ele>
        <time>2022-07-26T10:46:31Z</time>
      </trkpt>
      <trkpt lat="44.62243" lon="-0.19612">
        <ele>68.6</ele>
        <time>2022-07-26T10:46:32Z</time>
      </trkpt>
      <trkpt lat="44.62244" lon="-0.19612">
        <ele>68.6</ele>
        <time>2022-07-26T10:46:33Z</time>
      </trkpt>
      <trkpt lat="44.62245" lon="-0.19612">
        <ele>68.6</ele>
        <time>2022-07-26T10:46:34Z</time>
      </trkpt>
      <trkpt lat="44.62246" lon="-0.19612">
        <ele>68.7</ele>
        <time>2022-07-26T10:46:35Z</time>
      </trkpt>
      <trkpt lat="44.62247" lon="-0.19612">
        <ele>68.7</ele>
        <time>2022-07-26T10:46:36Z</time>
      </trkpt>
      <trkpt lat="44.62248" lon="-0.19612">
        <ele>68.7</ele>
        <time>2022-07-26T10:46:37Z</time>
      </trkpt>
      <trkpt lat="44.62249" lon="-0.19612">
        <ele>68.6</ele>
        <time>2022-07-26T10:46:38Z</time>
      </trkpt>
      <trkpt lat="44.62251" lon="-0.19613">
        <ele>68.6</ele>
        <time>2022-07-26T10:46:40Z</time>
      </trkpt>
      <trkpt lat="44.62252" lon="-0.19613">
        <ele>68.6</ele>
        <time>2022-07-26T10:46:41Z</time>
      </trkpt>
      <trkpt lat="44.62253" lon="-0.19612">
        <ele>68.9</ele>
        <time>2022-07-26T10:46:42Z</time>
      </trkpt>
      <trkpt lat="44.62254" lon="-0.19611">
        <ele>68.9</ele>
        <time>2022-07-26T10:46:43Z</time>
      </trkpt>
      <trkpt lat="44.62254" lon="-0.19609">
        <ele>68.9</ele>
        <time>2022-07-26T10:46:44Z</time>
      </trkpt>
      <trkpt lat="44.62255" lon="-0.19607">
        <ele>69.1</ele>
        <time>2022-07-26T10:46:45Z</time>
      </trkpt>
      <trkpt lat="44.62256" lon="-0.19605">
        <ele>69.1</ele>
        <time>2022-07-26T10:46:47Z</time>
      </trkpt>
      <trkpt lat="44.62257" lon="-0.19604">
        <ele>69.3</ele>
        <time>2022-07-26T10:46:48Z</time>
      </trkpt>
      <trkpt lat="44.62257" lon="-0.19602">
        <ele>69.3</ele>
        <time>2022-07-26T10:46:49Z</time>
      </trkpt>
      <trkpt lat="44.62258" lon="-0.196">
        <ele>69.4</ele>
        <time>2022-07-26T10:46:51Z</time>
      </trkpt>
      <trkpt lat="44.62259" lon="-0.19599">
        <ele>69.5</ele>
        <time>2022-07-26T10:46:52Z</time>
      </trkpt>
      <trkpt lat="44.6226" lon="-0.19597">
        <ele>69.5</ele>
        <time>2022-07-26T10:46:53Z</time>
      </trkpt>
      <trkpt lat="44.62262" lon="-0.19595">
        <ele>69.7</ele>
        <time>2022-07-26T10:46:54Z</time>
      </trkpt>
      <trkpt lat="44.62262" lon="-0.19594">
        <ele>69.7</ele>
        <time>2022-07-26T10:46:55Z</time>
      </trkpt>
      <trkpt lat="44.62263" lon="-0.19593">
        <ele>69.7</ele>
        <time>2022-07-26T10:46:56Z</time>
      </trkpt>
      <trkpt lat="44.62263" lon="-0.19592">
        <ele>69.7</ele>
        <time>2022-07-26T10:46:57Z</time>
      </trkpt>
      <trkpt lat="44.62264" lon="-0.19591">
        <ele>69.8</ele>
        <time>2022-07-26T10:46:58Z</time>
      </trkpt>
      <trkpt lat="44.62265" lon="-0.19591">
        <ele>69.9</ele>
        <time>2022-07-26T10:46:59Z</time>
      </trkpt>
      <trkpt lat="44.62266" lon="-0.1959">
        <ele>69.9</ele>
        <time>2022-07-26T10:47:00Z</time>
      </trkpt>
      <trkpt lat="44.62267" lon="-0.19589">
        <ele>69.9</ele>
        <time>2022-07-26T10:47:01Z</time>
      </trkpt>
      <trkpt lat="44.62268" lon="-0.19589">
        <ele>70</ele>
        <time>2022-07-26T10:47:02Z</time>
      </trkpt>
      <trkpt lat="44.62269" lon="-0.19588">
        <ele>70</ele>
        <time>2022-07-26T10:47:03Z</time>
      </trkpt>
      <trkpt lat="44.62269" lon="-0.19587">
        <ele>70</ele>
        <time>2022-07-26T10:47:04Z</time>
      </trkpt>
      <trkpt lat="44.6227" lon="-0.19586">
        <ele>70.1</ele>
        <time>2022-07-26T10:47:05Z</time>
      </trkpt>
      <trkpt lat="44.6227" lon="-0.19585">
        <ele>70.2</ele>
        <time>2022-07-26T10:47:06Z</time>
      </trkpt>
      <trkpt lat="44.62271" lon="-0.19583">
        <ele>70.2</ele>
        <time>2022-07-26T10:47:07Z</time>
      </trkpt>
      <trkpt lat="44.62272" lon="-0.19582">
        <ele>70.3</ele>
        <time>2022-07-26T10:47:08Z</time>
      </trkpt>
      <trkpt lat="44.62274" lon="-0.19581">
        <ele>70.3</ele>
        <time>2022-07-26T10:47:10Z</time>
      </trkpt>
      <trkpt lat="44.62274" lon="-0.19581">
        <ele>70.3</ele>
        <time>2022-07-26T10:47:11Z</time>
      </trkpt>
      <trkpt lat="44.62275" lon="-0.19582">
        <ele>70.3</ele>
        <time>2022-07-26T10:47:12Z</time>
      </trkpt>
      <trkpt lat="44.62276" lon="-0.19582">
        <ele>70.3</ele>
        <time>2022-07-26T10:47:13Z</time>
      </trkpt>
      <trkpt lat="44.62278" lon="-0.19583">
        <ele>70.3</ele>
        <time>2022-07-26T10:47:14Z</time>
      </trkpt>
      <trkpt lat="44.6228" lon="-0.19585">
        <ele>70.3</ele>
        <time>2022-07-26T10:47:16Z</time>
      </trkpt>
      <trkpt lat="44.62281" lon="-0.19586">
        <ele>70.3</ele>
        <time>2022-07-26T10:47:17Z</time>
      </trkpt>
      <trkpt lat="44.62282" lon="-0.19587">
        <ele>70.2</ele>
        <time>2022-07-26T10:47:18Z</time>
      </trkpt>
      <trkpt lat="44.62283" lon="-0.19588">
        <ele>70.3</ele>
        <time>2022-07-26T10:47:19Z</time>
      </trkpt>
      <trkpt lat="44.62284" lon="-0.19588">
        <ele>70.3</ele>
        <time>2022-07-26T10:47:20Z</time>
      </trkpt>
      <trkpt lat="44.62285" lon="-0.19589">
        <ele>70.3</ele>
        <time>2022-07-26T10:47:21Z</time>
      </trkpt>
      <trkpt lat="44.62286" lon="-0.19589">
        <ele>70.3</ele>
        <time>2022-07-26T10:47:22Z</time>
      </trkpt>
      <trkpt lat="44.62288" lon="-0.1959">
        <ele>70.3</ele>
        <time>2022-07-26T10:47:24Z</time>
      </trkpt>
      <trkpt lat="44.6229" lon="-0.19591">
        <ele>70.3</ele>
        <time>2022-07-26T10:47:25Z</time>
      </trkpt>
      <trkpt lat="44.62291" lon="-0.19591">
        <ele>70.3</ele>
        <time>2022-07-26T10:47:26Z</time>
      </trkpt>
      <trkpt lat="44.62293" lon="-0.19592">
        <ele>70.3</ele>
        <time>2022-07-26T10:47:27Z</time>
      </trkpt>
      <trkpt lat="44.62294" lon="-0.19592">
        <ele>70.3</ele>
        <time>2022-07-26T10:47:28Z</time>
      </trkpt>
      <trkpt lat="44.62295" lon="-0.19592">
        <ele>70.3</ele>
        <time>2022-07-26T10:47:29Z</time>
      </trkpt>
      <trkpt lat="44.62297" lon="-0.19593">
        <ele>70.3</ele>
        <time>2022-07-26T10:47:31Z</time>
      </trkpt>
      <trkpt lat="44.62298" lon="-0.19593">
        <ele>70.4</ele>
        <time>2022-07-26T10:47:32Z</time>
      </trkpt>
      <trkpt lat="44.623" lon="-0.19594">
        <ele>70.4</ele>
        <time>2022-07-26T10:47:34Z</time>
      </trkpt>
      <trkpt lat="44.62301" lon="-0.19595">
        <ele>70.4</ele>
        <time>2022-07-26T10:47:35Z</time>
      </trkpt>
      <trkpt lat="44.62302" lon="-0.19595">
        <ele>70.3</ele>
        <time>2022-07-26T10:47:36Z</time>
      </trkpt>
      <trkpt lat="44.62304" lon="-0.19596">
        <ele>70.4</ele>
        <time>2022-07-26T10:47:37Z</time>
      </trkpt>
      <trkpt lat="44.62306" lon="-0.19598">
        <ele>70.4</ele>
        <time>2022-07-26T10:47:38Z</time>
      </trkpt>
      <trkpt lat="44.62306" lon="-0.19598">
        <ele>70.4</ele>
        <time>2022-07-26T10:47:39Z</time>
      </trkpt>
      <trkpt lat="44.62307" lon="-0.19599">
        <ele>70.4</ele>
        <time>2022-07-26T10:47:40Z</time>
      </trkpt>
      <trkpt lat="44.62308" lon="-0.19599">
        <ele>70.4</ele>
        <time>2022-07-26T10:47:42Z</time>
      </trkpt>
      <trkpt lat="44.62309" lon="-0.19598">
        <ele>70.4</ele>
        <time>2022-07-26T10:47:43Z</time>
      </trkpt>
      <trkpt lat="44.62309" lon="-0.19597">
        <ele>70.4</ele>
        <time>2022-07-26T10:47:44Z</time>
      </trkpt>
      <trkpt lat="44.62309" lon="-0.19596">
        <ele>70.4</ele>
        <time>2022-07-26T10:47:45Z</time>
      </trkpt>
      <trkpt lat="44.6231" lon="-0.19595">
        <ele>70.4</ele>
        <time>2022-07-26T10:47:46Z</time>
      </trkpt>
      <trkpt lat="44.6231" lon="-0.19595">
        <ele>70.4</ele>
        <time>2022-07-26T10:47:47Z</time>
      </trkpt>
      <trkpt lat="44.62311" lon="-0.19595">
        <ele>70.4</ele>
        <time>2022-07-26T10:47:48Z</time>
      </trkpt>
      <trkpt lat="44.62312" lon="-0.19595">
        <ele>70.4</ele>
        <time>2022-07-26T10:47:49Z</time>
      </trkpt>
      <trkpt lat="44.62314" lon="-0.19595">
        <ele>70.4</ele>
        <time>2022-07-26T10:47:50Z</time>
      </trkpt>
      <trkpt lat="44.62315" lon="-0.19595">
        <ele>70.4</ele>
        <time>2022-07-26T10:47:51Z</time>
      </trkpt>
      <trkpt lat="44.62317" lon="-0.19596">
        <ele>70.3</ele>
        <time>2022-07-26T10:47:52Z</time>
      </trkpt>
      <trkpt lat="44.62318" lon="-0.19596">
        <ele>70.3</ele>
        <time>2022-07-26T10:47:53Z</time>
      </trkpt>
      <trkpt lat="44.6232" lon="-0.19597">
        <ele>70.3</ele>
        <time>2022-07-26T10:47:55Z</time>
      </trkpt>
      <trkpt lat="44.62321" lon="-0.19598">
        <ele>70.3</ele>
        <time>2022-07-26T10:47:56Z</time>
      </trkpt>
      <trkpt lat="44.62323" lon="-0.19599">
        <ele>70.3</ele>
        <time>2022-07-26T10:47:57Z</time>
      </trkpt>
      <trkpt lat="44.62323" lon="-0.19599">
        <ele>70.3</ele>
        <time>2022-07-26T10:47:58Z</time>
      </trkpt>
      <trkpt lat="44.62324" lon="-0.196">
        <ele>70.2</ele>
        <time>2022-07-26T10:47:59Z</time>
      </trkpt>
      <trkpt lat="44.62325" lon="-0.196">
        <ele>70.2</ele>
        <time>2022-07-26T10:48:00Z</time>
      </trkpt>
      <trkpt lat="44.62326" lon="-0.196">
        <ele>70.2</ele>
        <time>2022-07-26T10:48:01Z</time>
      </trkpt>
      <trkpt lat="44.62327" lon="-0.196">
        <ele>70.2</ele>
        <time>2022-07-26T10:48:02Z</time>
      </trkpt>
      <trkpt lat="44.62328" lon="-0.196">
        <ele>70.1</ele>
        <time>2022-07-26T10:48:03Z</time>
      </trkpt>
      <trkpt lat="44.62329" lon="-0.196">
        <ele>70.1</ele>
        <time>2022-07-26T10:48:04Z</time>
      </trkpt>
      <trkpt lat="44.62331" lon="-0.196">
        <ele>70.1</ele>
        <time>2022-07-26T10:48:05Z</time>
      </trkpt>
      <trkpt lat="44.62332" lon="-0.19601">
        <ele>70</ele>
        <time>2022-07-26T10:48:07Z</time>
      </trkpt>
      <trkpt lat="44.62333" lon="-0.19601">
        <ele>70</ele>
        <time>2022-07-26T10:48:08Z</time>
      </trkpt>
      <trkpt lat="44.62334" lon="-0.19601">
        <ele>70</ele>
        <time>2022-07-26T10:48:09Z</time>
      </trkpt>
      <trkpt lat="44.62336" lon="-0.19602">
        <ele>69.9</ele>
        <time>2022-07-26T10:48:10Z</time>
      </trkpt>
      <trkpt lat="44.62337" lon="-0.19602">
        <ele>69.9</ele>
        <time>2022-07-26T10:48:11Z</time>
      </trkpt>
      <trkpt lat="44.62338" lon="-0.19602">
        <ele>69.8</ele>
        <time>2022-07-26T10:48:12Z</time>
      </trkpt>
      <trkpt lat="44.62339" lon="-0.19602">
        <ele>69.8</ele>
        <time>2022-07-26T10:48:14Z</time>
      </trkpt>
      <trkpt lat="44.62341" lon="-0.19602">
        <ele>69.7</ele>
        <time>2022-07-26T10:48:15Z</time>
      </trkpt>
      <trkpt lat="44.62343" lon="-0.19602">
        <ele>69.7</ele>
        <time>2022-07-26T10:48:16Z</time>
      </trkpt>
      <trkpt lat="44.62344" lon="-0.19603">
        <ele>69.6</ele>
        <time>2022-07-26T10:48:17Z</time>
      </trkpt>
      <trkpt lat="44.62345" lon="-0.19603">
        <ele>69.6</ele>
        <time>2022-07-26T10:48:18Z</time>
      </trkpt>
      <trkpt lat="44.62346" lon="-0.19603">
        <ele>69.6</ele>
        <time>2022-07-26T10:48:19Z</time>
      </trkpt>
      <trkpt lat="44.62347" lon="-0.19603">
        <ele>69.5</ele>
        <time>2022-07-26T10:48:20Z</time>
      </trkpt>
      <trkpt lat="44.62348" lon="-0.19603">
        <ele>69.5</ele>
        <time>2022-07-26T10:48:21Z</time>
      </trkpt>
      <trkpt lat="44.6235" lon="-0.19604">
        <ele>69.4</ele>
        <time>2022-07-26T10:48:22Z</time>
      </trkpt>
      <trkpt lat="44.62351" lon="-0.19604">
        <ele>69.4</ele>
        <time>2022-07-26T10:48:23Z</time>
      </trkpt>
      <trkpt lat="44.62352" lon="-0.19604">
        <ele>69.4</ele>
        <time>2022-07-26T10:48:24Z</time>
      </trkpt>
      <trkpt lat="44.62353" lon="-0.19604">
        <ele>69.2</ele>
        <time>2022-07-26T10:48:25Z</time>
      </trkpt>
      <trkpt lat="44.62354" lon="-0.19603">
        <ele>69.2</ele>
        <time>2022-07-26T10:48:27Z</time>
      </trkpt>
      <trkpt lat="44.62355" lon="-0.19603">
        <ele>69.2</ele>
        <time>2022-07-26T10:48:28Z</time>
      </trkpt>
      <trkpt lat="44.62356" lon="-0.19603">
        <ele>69.1</ele>
        <time>2022-07-26T10:48:29Z</time>
      </trkpt>
      <trkpt lat="44.62357" lon="-0.19603">
        <ele>69.1</ele>
        <time>2022-07-26T10:48:30Z</time>
      </trkpt>
      <trkpt lat="44.62358" lon="-0.19603">
        <ele>69.1</ele>
        <time>2022-07-26T10:48:31Z</time>
      </trkpt>
      <trkpt lat="44.62359" lon="-0.19603">
        <ele>68.9</ele>
        <time>2022-07-26T10:48:32Z</time>
      </trkpt>
      <trkpt lat="44.6236" lon="-0.19603">
        <ele>68.9</ele>
        <time>2022-07-26T10:48:33Z</time>
      </trkpt>
      <trkpt lat="44.62361" lon="-0.19603">
        <ele>68.9</ele>
        <time>2022-07-26T10:48:34Z</time>
      </trkpt>
      <trkpt lat="44.62362" lon="-0.19603">
        <ele>68.8</ele>
        <time>2022-07-26T10:48:35Z</time>
      </trkpt>
      <trkpt lat="44.62363" lon="-0.19603">
        <ele>68.8</ele>
        <time>2022-07-26T10:48:36Z</time>
      </trkpt>
      <trkpt lat="44.62365" lon="-0.19603">
        <ele>68.6</ele>
        <time>2022-07-26T10:48:38Z</time>
      </trkpt>
      <trkpt lat="44.62366" lon="-0.19603">
        <ele>68.6</ele>
        <time>2022-07-26T10:48:39Z</time>
      </trkpt>
      <trkpt lat="44.62367" lon="-0.19603">
        <ele>68.6</ele>
        <time>2022-07-26T10:48:40Z</time>
      </trkpt>
      <trkpt lat="44.62369" lon="-0.19602">
        <ele>68.5</ele>
        <time>2022-07-26T10:48:42Z</time>
      </trkpt>
      <trkpt lat="44.62371" lon="-0.19602">
        <ele>68.3</ele>
        <time>2022-07-26T10:48:43Z</time>
      </trkpt>
      <trkpt lat="44.62372" lon="-0.19602">
        <ele>68.3</ele>
        <time>2022-07-26T10:48:44Z</time>
      </trkpt>
      <trkpt lat="44.62374" lon="-0.19602">
        <ele>68.2</ele>
        <time>2022-07-26T10:48:45Z</time>
      </trkpt>
      <trkpt lat="44.62375" lon="-0.19602">
        <ele>68.2</ele>
        <time>2022-07-26T10:48:46Z</time>
      </trkpt>
      <trkpt lat="44.62376" lon="-0.19602">
        <ele>68.2</ele>
        <time>2022-07-26T10:48:47Z</time>
      </trkpt>
      <trkpt lat="44.62377" lon="-0.19602">
        <ele>68.2</ele>
        <time>2022-07-26T10:48:48Z</time>
      </trkpt>
      <trkpt lat="44.62378" lon="-0.19602">
        <ele>68</ele>
        <time>2022-07-26T10:48:49Z</time>
      </trkpt>
      <trkpt lat="44.62379" lon="-0.19602">
        <ele>68</ele>
        <time>2022-07-26T10:48:50Z</time>
      </trkpt>
      <trkpt lat="44.62381" lon="-0.19602">
        <ele>67.9</ele>
        <time>2022-07-26T10:48:51Z</time>
      </trkpt>
      <trkpt lat="44.62382" lon="-0.19602">
        <ele>67.9</ele>
        <time>2022-07-26T10:48:52Z</time>
      </trkpt>
      <trkpt lat="44.62383" lon="-0.19602">
        <ele>67.7</ele>
        <time>2022-07-26T10:48:53Z</time>
      </trkpt>
      <trkpt lat="44.62385" lon="-0.19602">
        <ele>67.7</ele>
        <time>2022-07-26T10:48:55Z</time>
      </trkpt>
      <trkpt lat="44.62387" lon="-0.19601">
        <ele>67.6</ele>
        <time>2022-07-26T10:48:56Z</time>
      </trkpt>
      <trkpt lat="44.62389" lon="-0.19601">
        <ele>67.6</ele>
        <time>2022-07-26T10:48:57Z</time>
      </trkpt>
      <trkpt lat="44.6239" lon="-0.19601">
        <ele>67.4</ele>
        <time>2022-07-26T10:48:58Z</time>
      </trkpt>
      <trkpt lat="44.62391" lon="-0.19601">
        <ele>67.4</ele>
        <time>2022-07-26T10:48:59Z</time>
      </trkpt>
      <trkpt lat="44.62392" lon="-0.19601">
        <ele>67.4</ele>
        <time>2022-07-26T10:49:00Z</time>
      </trkpt>
      <trkpt lat="44.62394" lon="-0.19601">
        <ele>67.3</ele>
        <time>2022-07-26T10:49:02Z</time>
      </trkpt>
      <trkpt lat="44.62396" lon="-0.19601">
        <ele>67.2</ele>
        <time>2022-07-26T10:49:03Z</time>
      </trkpt>
      <trkpt lat="44.62397" lon="-0.19601">
        <ele>67.2</ele>
        <time>2022-07-26T10:49:04Z</time>
      </trkpt>
      <trkpt lat="44.62399" lon="-0.196">
        <ele>67.1</ele>
        <time>2022-07-26T10:49:05Z</time>
      </trkpt>
      <trkpt lat="44.624" lon="-0.196">
        <ele>67.1</ele>
        <time>2022-07-26T10:49:06Z</time>
      </trkpt>
      <trkpt lat="44.62401" lon="-0.196">
        <ele>67.1</ele>
        <time>2022-07-26T10:49:07Z</time>
      </trkpt>
      <trkpt lat="44.62402" lon="-0.196">
        <ele>67.1</ele>
        <time>2022-07-26T10:49:08Z</time>
      </trkpt>
      <trkpt lat="44.62403" lon="-0.196">
        <ele>67.1</ele>
        <time>2022-07-26T10:49:09Z</time>
      </trkpt>
      <trkpt lat="44.62404" lon="-0.196">
        <ele>67.1</ele>
        <time>2022-07-26T10:49:10Z</time>
      </trkpt>
      <trkpt lat="44.62405" lon="-0.196">
        <ele>67</ele>
        <time>2022-07-26T10:49:11Z</time>
      </trkpt>
      <trkpt lat="44.62407" lon="-0.19599">
        <ele>67.1</ele>
        <time>2022-07-26T10:49:12Z</time>
      </trkpt>
      <trkpt lat="44.62409" lon="-0.19599">
        <ele>67.1</ele>
        <time>2022-07-26T10:49:14Z</time>
      </trkpt>
      <trkpt lat="44.6241" lon="-0.19599">
        <ele>67.1</ele>
        <time>2022-07-26T10:49:15Z</time>
      </trkpt>
      <trkpt lat="44.62412" lon="-0.19598">
        <ele>67.1</ele>
        <time>2022-07-26T10:49:16Z</time>
      </trkpt>
      <trkpt lat="44.62413" lon="-0.19598">
        <ele>67.1</ele>
        <time>2022-07-26T10:49:17Z</time>
      </trkpt>
      <trkpt lat="44.62414" lon="-0.19598">
        <ele>67.1</ele>
        <time>2022-07-26T10:49:18Z</time>
      </trkpt>
      <trkpt lat="44.62415" lon="-0.19597">
        <ele>67.1</ele>
        <time>2022-07-26T10:49:19Z</time>
      </trkpt>
      <trkpt lat="44.62417" lon="-0.19597">
        <ele>67.1</ele>
        <time>2022-07-26T10:49:21Z</time>
      </trkpt>
      <trkpt lat="44.62419" lon="-0.19597">
        <ele>67.1</ele>
        <time>2022-07-26T10:49:22Z</time>
      </trkpt>
      <trkpt lat="44.6242" lon="-0.19598">
        <ele>67.1</ele>
        <time>2022-07-26T10:49:23Z</time>
      </trkpt>
      <trkpt lat="44.62421" lon="-0.19599">
        <ele>67.1</ele>
        <time>2022-07-26T10:49:25Z</time>
      </trkpt>
      <trkpt lat="44.62422" lon="-0.196">
        <ele>67</ele>
        <time>2022-07-26T10:49:26Z</time>
      </trkpt>
      <trkpt lat="44.62424" lon="-0.19606">
        <ele>66.9</ele>
        <time>2022-07-26T10:49:28Z</time>
      </trkpt>
      <trkpt lat="44.62424" lon="-0.19607">
        <ele>66.9</ele>
        <time>2022-07-26T10:49:29Z</time>
      </trkpt>
      <trkpt lat="44.62424" lon="-0.19608">
        <ele>66.9</ele>
        <time>2022-07-26T10:49:30Z</time>
      </trkpt>
      <trkpt lat="44.62425" lon="-0.19609">
        <ele>66.9</ele>
        <time>2022-07-26T10:49:31Z</time>
      </trkpt>
      <trkpt lat="44.62426" lon="-0.19613">
        <ele>66.8</ele>
        <time>2022-07-26T10:49:33Z</time>
      </trkpt>
      <trkpt lat="44.62426" lon="-0.19614">
        <ele>66.8</ele>
        <time>2022-07-26T10:49:34Z</time>
      </trkpt>
      <trkpt lat="44.62427" lon="-0.19614">
        <ele>66.8</ele>
        <time>2022-07-26T10:49:35Z</time>
      </trkpt>
      <trkpt lat="44.62428" lon="-0.19615">
        <ele>66.8</ele>
        <time>2022-07-26T10:49:36Z</time>
      </trkpt>
      <trkpt lat="44.62431" lon="-0.19615">
        <ele>66.9</ele>
        <time>2022-07-26T10:49:37Z</time>
      </trkpt>
      <trkpt lat="44.62432" lon="-0.19614">
        <ele>66.9</ele>
        <time>2022-07-26T10:49:38Z</time>
      </trkpt>
      <trkpt lat="44.62434" lon="-0.19613">
        <ele>66.9</ele>
        <time>2022-07-26T10:49:39Z</time>
      </trkpt>
      <trkpt lat="44.62434" lon="-0.19612">
        <ele>67</ele>
        <time>2022-07-26T10:49:40Z</time>
      </trkpt>
      <trkpt lat="44.62435" lon="-0.19611">
        <ele>67</ele>
        <time>2022-07-26T10:49:41Z</time>
      </trkpt>
      <trkpt lat="44.62439" lon="-0.19608">
        <ele>67</ele>
        <time>2022-07-26T10:49:43Z</time>
      </trkpt>
      <trkpt lat="44.6244" lon="-0.19607">
        <ele>67.1</ele>
        <time>2022-07-26T10:49:44Z</time>
      </trkpt>
      <trkpt lat="44.6244" lon="-0.19606">
        <ele>67.1</ele>
        <time>2022-07-26T10:49:45Z</time>
      </trkpt>
      <trkpt lat="44.62441" lon="-0.19605">
        <ele>67.1</ele>
        <time>2022-07-26T10:49:46Z</time>
      </trkpt>
      <trkpt lat="44.62443" lon="-0.19604">
        <ele>67.1</ele>
        <time>2022-07-26T10:49:47Z</time>
      </trkpt>
      <trkpt lat="44.62444" lon="-0.19604">
        <ele>67.2</ele>
        <time>2022-07-26T10:49:49Z</time>
      </trkpt>
      <trkpt lat="44.62445" lon="-0.19604">
        <ele>67.2</ele>
        <time>2022-07-26T10:49:50Z</time>
      </trkpt>
      <trkpt lat="44.62446" lon="-0.19604">
        <ele>67.2</ele>
        <time>2022-07-26T10:49:51Z</time>
      </trkpt>
      <trkpt lat="44.62447" lon="-0.19604">
        <ele>67.3</ele>
        <time>2022-07-26T10:49:52Z</time>
      </trkpt>
      <trkpt lat="44.62449" lon="-0.19604">
        <ele>67.3</ele>
        <time>2022-07-26T10:49:53Z</time>
      </trkpt>
      <trkpt lat="44.6245" lon="-0.19603">
        <ele>67.3</ele>
        <time>2022-07-26T10:49:54Z</time>
      </trkpt>
      <trkpt lat="44.62453" lon="-0.19602">
        <ele>67.3</ele>
        <time>2022-07-26T10:49:55Z</time>
      </trkpt>
      <trkpt lat="44.62453" lon="-0.19601">
        <ele>67.3</ele>
        <time>2022-07-26T10:49:56Z</time>
      </trkpt>
      <trkpt lat="44.62455" lon="-0.196">
        <ele>67.3</ele>
        <time>2022-07-26T10:49:57Z</time>
      </trkpt>
      <trkpt lat="44.62456" lon="-0.196">
        <ele>67.3</ele>
        <time>2022-07-26T10:49:58Z</time>
      </trkpt>
      <trkpt lat="44.62457" lon="-0.19599">
        <ele>67.4</ele>
        <time>2022-07-26T10:50:00Z</time>
      </trkpt>
      <trkpt lat="44.62459" lon="-0.19599">
        <ele>67.5</ele>
        <time>2022-07-26T10:50:01Z</time>
      </trkpt>
      <trkpt lat="44.62461" lon="-0.19598">
        <ele>67.5</ele>
        <time>2022-07-26T10:50:02Z</time>
      </trkpt>
      <trkpt lat="44.62462" lon="-0.19598">
        <ele>67.5</ele>
        <time>2022-07-26T10:50:04Z</time>
      </trkpt>
      <trkpt lat="44.62463" lon="-0.19597">
        <ele>67.6</ele>
        <time>2022-07-26T10:50:05Z</time>
      </trkpt>
      <trkpt lat="44.62465" lon="-0.19596">
        <ele>67.6</ele>
        <time>2022-07-26T10:50:07Z</time>
      </trkpt>
      <trkpt lat="44.62466" lon="-0.19596">
        <ele>67.6</ele>
        <time>2022-07-26T10:50:08Z</time>
      </trkpt>
      <trkpt lat="44.62468" lon="-0.19596">
        <ele>67.6</ele>
        <time>2022-07-26T10:50:09Z</time>
      </trkpt>
      <trkpt lat="44.62469" lon="-0.19596">
        <ele>67.7</ele>
        <time>2022-07-26T10:50:10Z</time>
      </trkpt>
      <trkpt lat="44.6247" lon="-0.19595">
        <ele>67.7</ele>
        <time>2022-07-26T10:50:11Z</time>
      </trkpt>
      <trkpt lat="44.62471" lon="-0.19595">
        <ele>67.7</ele>
        <time>2022-07-26T10:50:12Z</time>
      </trkpt>
      <trkpt lat="44.62473" lon="-0.19595">
        <ele>67.9</ele>
        <time>2022-07-26T10:50:13Z</time>
      </trkpt>
      <trkpt lat="44.62474" lon="-0.19594">
        <ele>67.9</ele>
        <time>2022-07-26T10:50:14Z</time>
      </trkpt>
      <trkpt lat="44.62475" lon="-0.19594">
        <ele>68</ele>
        <time>2022-07-26T10:50:15Z</time>
      </trkpt>
      <trkpt lat="44.62476" lon="-0.19593">
        <ele>68</ele>
        <time>2022-07-26T10:50:16Z</time>
      </trkpt>
      <trkpt lat="44.62477" lon="-0.19593">
        <ele>68</ele>
        <time>2022-07-26T10:50:17Z</time>
      </trkpt>
      <trkpt lat="44.6248" lon="-0.19591">
        <ele>68.1</ele>
        <time>2022-07-26T10:50:18Z</time>
      </trkpt>
      <trkpt lat="44.62481" lon="-0.19591">
        <ele>68.2</ele>
        <time>2022-07-26T10:50:20Z</time>
      </trkpt>
      <trkpt lat="44.62482" lon="-0.1959">
        <ele>68.2</ele>
        <time>2022-07-26T10:50:21Z</time>
      </trkpt>
      <trkpt lat="44.62483" lon="-0.1959">
        <ele>68.2</ele>
        <time>2022-07-26T10:50:22Z</time>
      </trkpt>
      <trkpt lat="44.62484" lon="-0.19589">
        <ele>68.3</ele>
        <time>2022-07-26T10:50:23Z</time>
      </trkpt>
      <trkpt lat="44.62486" lon="-0.19588">
        <ele>68.3</ele>
        <time>2022-07-26T10:50:24Z</time>
      </trkpt>
      <trkpt lat="44.62487" lon="-0.19588">
        <ele>68.4</ele>
        <time>2022-07-26T10:50:26Z</time>
      </trkpt>
      <trkpt lat="44.62489" lon="-0.19587">
        <ele>68.4</ele>
        <time>2022-07-26T10:50:27Z</time>
      </trkpt>
      <trkpt lat="44.6249" lon="-0.19587">
        <ele>68.5</ele>
        <time>2022-07-26T10:50:28Z</time>
      </trkpt>
      <trkpt lat="44.62491" lon="-0.19586">
        <ele>68.6</ele>
        <time>2022-07-26T10:50:29Z</time>
      </trkpt>
      <trkpt lat="44.62493" lon="-0.19586">
        <ele>68.6</ele>
        <time>2022-07-26T10:50:30Z</time>
      </trkpt>
      <trkpt lat="44.62494" lon="-0.19585">
        <ele>68.7</ele>
        <time>2022-07-26T10:50:31Z</time>
      </trkpt>
      <trkpt lat="44.62496" lon="-0.19584">
        <ele>68.7</ele>
        <time>2022-07-26T10:50:33Z</time>
      </trkpt>
      <trkpt lat="44.62497" lon="-0.19584">
        <ele>68.8</ele>
        <time>2022-07-26T10:50:34Z</time>
      </trkpt>
      <trkpt lat="44.62498" lon="-0.19583">
        <ele>68.8</ele>
        <time>2022-07-26T10:50:35Z</time>
      </trkpt>
      <trkpt lat="44.62499" lon="-0.19583">
        <ele>68.9</ele>
        <time>2022-07-26T10:50:36Z</time>
      </trkpt>
      <trkpt lat="44.625" lon="-0.19582">
        <ele>69</ele>
        <time>2022-07-26T10:50:37Z</time>
      </trkpt>
      <trkpt lat="44.62502" lon="-0.19582">
        <ele>69</ele>
        <time>2022-07-26T10:50:38Z</time>
      </trkpt>
      <trkpt lat="44.62503" lon="-0.19581">
        <ele>69.2</ele>
        <time>2022-07-26T10:50:39Z</time>
      </trkpt>
      <trkpt lat="44.62504" lon="-0.19581">
        <ele>69.2</ele>
        <time>2022-07-26T10:50:40Z</time>
      </trkpt>
      <trkpt lat="44.62506" lon="-0.1958">
        <ele>69.3</ele>
        <time>2022-07-26T10:50:42Z</time>
      </trkpt>
      <trkpt lat="44.62507" lon="-0.19579">
        <ele>69.3</ele>
        <time>2022-07-26T10:50:43Z</time>
      </trkpt>
      <trkpt lat="44.62508" lon="-0.19578">
        <ele>69.3</ele>
        <time>2022-07-26T10:50:44Z</time>
      </trkpt>
      <trkpt lat="44.6251" lon="-0.19577">
        <ele>69.7</ele>
        <time>2022-07-26T10:50:46Z</time>
      </trkpt>
      <trkpt lat="44.62511" lon="-0.19577">
        <ele>69.7</ele>
        <time>2022-07-26T10:50:47Z</time>
      </trkpt>
      <trkpt lat="44.62513" lon="-0.19576">
        <ele>69.9</ele>
        <time>2022-07-26T10:50:48Z</time>
      </trkpt>
      <trkpt lat="44.62514" lon="-0.19576">
        <ele>69.9</ele>
        <time>2022-07-26T10:50:49Z</time>
      </trkpt>
      <trkpt lat="44.62515" lon="-0.19575">
        <ele>70</ele>
        <time>2022-07-26T10:50:50Z</time>
      </trkpt>
      <trkpt lat="44.62516" lon="-0.19575">
        <ele>70.1</ele>
        <time>2022-07-26T10:50:51Z</time>
      </trkpt>
      <trkpt lat="44.6252" lon="-0.19574">
        <ele>70.3</ele>
        <time>2022-07-26T10:50:53Z</time>
      </trkpt>
      <trkpt lat="44.6252" lon="-0.19574">
        <ele>70.3</ele>
        <time>2022-07-26T10:50:54Z</time>
      </trkpt>
      <trkpt lat="44.62522" lon="-0.19573">
        <ele>70.7</ele>
        <time>2022-07-26T10:50:55Z</time>
      </trkpt>
      <trkpt lat="44.62523" lon="-0.19572">
        <ele>70.7</ele>
        <time>2022-07-26T10:50:56Z</time>
      </trkpt>
      <trkpt lat="44.62524" lon="-0.19572">
        <ele>70.9</ele>
        <time>2022-07-26T10:50:57Z</time>
      </trkpt>
      <trkpt lat="44.62526" lon="-0.1957">
        <ele>70.9</ele>
        <time>2022-07-26T10:50:58Z</time>
      </trkpt>
      <trkpt lat="44.62527" lon="-0.19569">
        <ele>71.2</ele>
        <time>2022-07-26T10:50:59Z</time>
      </trkpt>
      <trkpt lat="44.62528" lon="-0.19569">
        <ele>71.3</ele>
        <time>2022-07-26T10:51:00Z</time>
      </trkpt>
      <trkpt lat="44.6253" lon="-0.19568">
        <ele>71.3</ele>
        <time>2022-07-26T10:51:02Z</time>
      </trkpt>
      <trkpt lat="44.62532" lon="-0.19566">
        <ele>71.6</ele>
        <time>2022-07-26T10:51:03Z</time>
      </trkpt>
      <trkpt lat="44.62532" lon="-0.19566">
        <ele>71.6</ele>
        <time>2022-07-26T10:51:04Z</time>
      </trkpt>
      <trkpt lat="44.62533" lon="-0.19565">
        <ele>71.9</ele>
        <time>2022-07-26T10:51:05Z</time>
      </trkpt>
      <trkpt lat="44.62534" lon="-0.19565">
        <ele>72</ele>
        <time>2022-07-26T10:51:06Z</time>
      </trkpt>
      <trkpt lat="44.62535" lon="-0.19564">
        <ele>72</ele>
        <time>2022-07-26T10:51:07Z</time>
      </trkpt>
      <trkpt lat="44.62537" lon="-0.19563">
        <ele>72.3</ele>
        <time>2022-07-26T10:51:09Z</time>
      </trkpt>
      <trkpt lat="44.62538" lon="-0.19563">
        <ele>72.3</ele>
        <time>2022-07-26T10:51:10Z</time>
      </trkpt>
      <trkpt lat="44.62539" lon="-0.19563">
        <ele>72.5</ele>
        <time>2022-07-26T10:51:11Z</time>
      </trkpt>
      <trkpt lat="44.6254" lon="-0.19562">
        <ele>72.5</ele>
        <time>2022-07-26T10:51:12Z</time>
      </trkpt>
      <trkpt lat="44.62542" lon="-0.19562">
        <ele>72.7</ele>
        <time>2022-07-26T10:51:13Z</time>
      </trkpt>
      <trkpt lat="44.62543" lon="-0.19562">
        <ele>72.7</ele>
        <time>2022-07-26T10:51:14Z</time>
      </trkpt>
      <trkpt lat="44.62544" lon="-0.19562">
        <ele>72.7</ele>
        <time>2022-07-26T10:51:15Z</time>
      </trkpt>
      <trkpt lat="44.62545" lon="-0.19562">
        <ele>72.9</ele>
        <time>2022-07-26T10:51:16Z</time>
      </trkpt>
      <trkpt lat="44.62546" lon="-0.19562">
        <ele>72.9</ele>
        <time>2022-07-26T10:51:17Z</time>
      </trkpt>
      <trkpt lat="44.62549" lon="-0.19561">
        <ele>73.3</ele>
        <time>2022-07-26T10:51:18Z</time>
      </trkpt>
      <trkpt lat="44.62549" lon="-0.1956">
        <ele>73.3</ele>
        <time>2022-07-26T10:51:20Z</time>
      </trkpt>
      <trkpt lat="44.6255" lon="-0.19559">
        <ele>73.3</ele>
        <time>2022-07-26T10:51:21Z</time>
      </trkpt>
      <trkpt lat="44.62551" lon="-0.19558">
        <ele>73.3</ele>
        <time>2022-07-26T10:51:22Z</time>
      </trkpt>
      <trkpt lat="44.62552" lon="-0.19557">
        <ele>73.5</ele>
        <time>2022-07-26T10:51:23Z</time>
      </trkpt>
      <trkpt lat="44.62553" lon="-0.19556">
        <ele>73.6</ele>
        <time>2022-07-26T10:51:24Z</time>
      </trkpt>
      <trkpt lat="44.62554" lon="-0.19555">
        <ele>73.6</ele>
        <time>2022-07-26T10:51:25Z</time>
      </trkpt>
      <trkpt lat="44.62555" lon="-0.19554">
        <ele>73.8</ele>
        <time>2022-07-26T10:51:27Z</time>
      </trkpt>
      <trkpt lat="44.62557" lon="-0.19552">
        <ele>74</ele>
        <time>2022-07-26T10:51:28Z</time>
      </trkpt>
      <trkpt lat="44.62558" lon="-0.19552">
        <ele>74.2</ele>
        <time>2022-07-26T10:51:29Z</time>
      </trkpt>
      <trkpt lat="44.62558" lon="-0.19551">
        <ele>74.2</ele>
        <time>2022-07-26T10:51:30Z</time>
      </trkpt>
      <trkpt lat="44.62559" lon="-0.19551">
        <ele>74.2</ele>
        <time>2022-07-26T10:51:31Z</time>
      </trkpt>
      <trkpt lat="44.62561" lon="-0.1955">
        <ele>74.4</ele>
        <time>2022-07-26T10:51:32Z</time>
      </trkpt>
      <trkpt lat="44.62562" lon="-0.1955">
        <ele>74.4</ele>
        <time>2022-07-26T10:51:33Z</time>
      </trkpt>
      <trkpt lat="44.62563" lon="-0.1955">
        <ele>74.4</ele>
        <time>2022-07-26T10:51:34Z</time>
      </trkpt>
      <trkpt lat="44.62564" lon="-0.19549">
        <ele>74.5</ele>
        <time>2022-07-26T10:51:35Z</time>
      </trkpt>
      <trkpt lat="44.62565" lon="-0.19549">
        <ele>74.5</ele>
        <time>2022-07-26T10:51:36Z</time>
      </trkpt>
      <trkpt lat="44.62566" lon="-0.19548">
        <ele>74.5</ele>
        <time>2022-07-26T10:51:37Z</time>
      </trkpt>
      <trkpt lat="44.62567" lon="-0.19547">
        <ele>74.8</ele>
        <time>2022-07-26T10:51:39Z</time>
      </trkpt>
      <trkpt lat="44.62568" lon="-0.19547">
        <ele>74.8</ele>
        <time>2022-07-26T10:51:40Z</time>
      </trkpt>
      <trkpt lat="44.62569" lon="-0.19546">
        <ele>74.9</ele>
        <time>2022-07-26T10:51:41Z</time>
      </trkpt>
      <trkpt lat="44.6257" lon="-0.19546">
        <ele>74.9</ele>
        <time>2022-07-26T10:51:42Z</time>
      </trkpt>
      <trkpt lat="44.62572" lon="-0.19544">
        <ele>74.9</ele>
        <time>2022-07-26T10:51:43Z</time>
      </trkpt>
      <trkpt lat="44.62573" lon="-0.19543">
        <ele>74.9</ele>
        <time>2022-07-26T10:51:45Z</time>
      </trkpt>
      <trkpt lat="44.62573" lon="-0.19542">
        <ele>74.9</ele>
        <time>2022-07-26T10:51:46Z</time>
      </trkpt>
      <trkpt lat="44.62574" lon="-0.19542">
        <ele>74.9</ele>
        <time>2022-07-26T10:51:47Z</time>
      </trkpt>
      <trkpt lat="44.62575" lon="-0.1954">
        <ele>75</ele>
        <time>2022-07-26T10:51:48Z</time>
      </trkpt>
      <trkpt lat="44.62576" lon="-0.19538">
        <ele>75</ele>
        <time>2022-07-26T10:51:49Z</time>
      </trkpt>
      <trkpt lat="44.62576" lon="-0.19536">
        <ele>75</ele>
        <time>2022-07-26T10:51:51Z</time>
      </trkpt>
      <trkpt lat="44.62575" lon="-0.19534">
        <ele>75</ele>
        <time>2022-07-26T10:51:52Z</time>
      </trkpt>
      <trkpt lat="44.62575" lon="-0.19531">
        <ele>75.1</ele>
        <time>2022-07-26T10:51:53Z</time>
      </trkpt>
      <trkpt lat="44.62577" lon="-0.19528">
        <ele>75.1</ele>
        <time>2022-07-26T10:51:54Z</time>
      </trkpt>
      <trkpt lat="44.62577" lon="-0.19526">
        <ele>75.2</ele>
        <time>2022-07-26T10:51:56Z</time>
      </trkpt>
      <trkpt lat="44.62578" lon="-0.19524">
        <ele>75.2</ele>
        <time>2022-07-26T10:51:57Z</time>
      </trkpt>
      <trkpt lat="44.62578" lon="-0.19522">
        <ele>75.2</ele>
        <time>2022-07-26T10:51:58Z</time>
      </trkpt>
      <trkpt lat="44.62579" lon="-0.19522">
        <ele>75.2</ele>
        <time>2022-07-26T10:51:59Z</time>
      </trkpt>
      <trkpt lat="44.6258" lon="-0.19521">
        <ele>75.3</ele>
        <time>2022-07-26T10:52:00Z</time>
      </trkpt>
      <trkpt lat="44.62581" lon="-0.1952">
        <ele>75.3</ele>
        <time>2022-07-26T10:52:01Z</time>
      </trkpt>
      <trkpt lat="44.62582" lon="-0.19519">
        <ele>75.4</ele>
        <time>2022-07-26T10:52:02Z</time>
      </trkpt>
      <trkpt lat="44.62584" lon="-0.19517">
        <ele>75.4</ele>
        <time>2022-07-26T10:52:03Z</time>
      </trkpt>
      <trkpt lat="44.62585" lon="-0.19516">
        <ele>75.4</ele>
        <time>2022-07-26T10:52:04Z</time>
      </trkpt>
      <trkpt lat="44.62586" lon="-0.19515">
        <ele>75.5</ele>
        <time>2022-07-26T10:52:05Z</time>
      </trkpt>
      <trkpt lat="44.62587" lon="-0.19514">
        <ele>75.5</ele>
        <time>2022-07-26T10:52:06Z</time>
      </trkpt>
      <trkpt lat="44.62588" lon="-0.19513">
        <ele>75.6</ele>
        <time>2022-07-26T10:52:07Z</time>
      </trkpt>
      <trkpt lat="44.62589" lon="-0.19511">
        <ele>75.6</ele>
        <time>2022-07-26T10:52:08Z</time>
      </trkpt>
      <trkpt lat="44.6259" lon="-0.1951">
        <ele>75.7</ele>
        <time>2022-07-26T10:52:09Z</time>
      </trkpt>
      <trkpt lat="44.62591" lon="-0.1951">
        <ele>75.7</ele>
        <time>2022-07-26T10:52:10Z</time>
      </trkpt>
      <trkpt lat="44.62592" lon="-0.19509">
        <ele>75.8</ele>
        <time>2022-07-26T10:52:11Z</time>
      </trkpt>
      <trkpt lat="44.62593" lon="-0.19507">
        <ele>75.8</ele>
        <time>2022-07-26T10:52:12Z</time>
      </trkpt>
      <trkpt lat="44.62594" lon="-0.19505">
        <ele>75.9</ele>
        <time>2022-07-26T10:52:13Z</time>
      </trkpt>
      <trkpt lat="44.62594" lon="-0.19504">
        <ele>75.9</ele>
        <time>2022-07-26T10:52:14Z</time>
      </trkpt>
      <trkpt lat="44.62595" lon="-0.19503">
        <ele>76</ele>
        <time>2022-07-26T10:52:15Z</time>
      </trkpt>
      <trkpt lat="44.62596" lon="-0.19501">
        <ele>76.1</ele>
        <time>2022-07-26T10:52:17Z</time>
      </trkpt>
      <trkpt lat="44.62598" lon="-0.19499">
        <ele>76.2</ele>
        <time>2022-07-26T10:52:18Z</time>
      </trkpt>
      <trkpt lat="44.62599" lon="-0.19497">
        <ele>76.2</ele>
        <time>2022-07-26T10:52:20Z</time>
      </trkpt>
      <trkpt lat="44.626" lon="-0.19496">
        <ele>76.3</ele>
        <time>2022-07-26T10:52:21Z</time>
      </trkpt>
      <trkpt lat="44.62601" lon="-0.19495">
        <ele>76.4</ele>
        <time>2022-07-26T10:52:22Z</time>
      </trkpt>
      <trkpt lat="44.62603" lon="-0.19494">
        <ele>76.5</ele>
        <time>2022-07-26T10:52:23Z</time>
      </trkpt>
      <trkpt lat="44.62603" lon="-0.19493">
        <ele>76.5</ele>
        <time>2022-07-26T10:52:24Z</time>
      </trkpt>
      <trkpt lat="44.62604" lon="-0.19492">
        <ele>76.5</ele>
        <time>2022-07-26T10:52:25Z</time>
      </trkpt>
      <trkpt lat="44.62605" lon="-0.1949">
        <ele>76.6</ele>
        <time>2022-07-26T10:52:26Z</time>
      </trkpt>
      <trkpt lat="44.62606" lon="-0.19489">
        <ele>76.7</ele>
        <time>2022-07-26T10:52:27Z</time>
      </trkpt>
      <trkpt lat="44.62607" lon="-0.19488">
        <ele>76.8</ele>
        <time>2022-07-26T10:52:28Z</time>
      </trkpt>
      <trkpt lat="44.62608" lon="-0.19487">
        <ele>76.8</ele>
        <time>2022-07-26T10:52:29Z</time>
      </trkpt>
      <trkpt lat="44.62609" lon="-0.19485">
        <ele>76.9</ele>
        <time>2022-07-26T10:52:31Z</time>
      </trkpt>
      <trkpt lat="44.6261" lon="-0.19483">
        <ele>77</ele>
        <time>2022-07-26T10:52:32Z</time>
      </trkpt>
      <trkpt lat="44.62611" lon="-0.19482">
        <ele>77.1</ele>
        <time>2022-07-26T10:52:33Z</time>
      </trkpt>
      <trkpt lat="44.62611" lon="-0.19481">
        <ele>77.1</ele>
        <time>2022-07-26T10:52:34Z</time>
      </trkpt>
      <trkpt lat="44.62613" lon="-0.1948">
        <ele>77.2</ele>
        <time>2022-07-26T10:52:35Z</time>
      </trkpt>
      <trkpt lat="44.62614" lon="-0.19478">
        <ele>77.3</ele>
        <time>2022-07-26T10:52:36Z</time>
      </trkpt>
      <trkpt lat="44.62615" lon="-0.19477">
        <ele>77.5</ele>
        <time>2022-07-26T10:52:37Z</time>
      </trkpt>
      <trkpt lat="44.62616" lon="-0.19476">
        <ele>77.5</ele>
        <time>2022-07-26T10:52:38Z</time>
      </trkpt>
      <trkpt lat="44.62617" lon="-0.19475">
        <ele>77.6</ele>
        <time>2022-07-26T10:52:39Z</time>
      </trkpt>
      <trkpt lat="44.62618" lon="-0.19473">
        <ele>77.7</ele>
        <time>2022-07-26T10:52:40Z</time>
      </trkpt>
      <trkpt lat="44.62618" lon="-0.19472">
        <ele>77.8</ele>
        <time>2022-07-26T10:52:41Z</time>
      </trkpt>
      <trkpt lat="44.6262" lon="-0.19469">
        <ele>77.9</ele>
        <time>2022-07-26T10:52:42Z</time>
      </trkpt>
      <trkpt lat="44.62621" lon="-0.19467">
        <ele>78</ele>
        <time>2022-07-26T10:52:44Z</time>
      </trkpt>
      <trkpt lat="44.62622" lon="-0.19466">
        <ele>78.2</ele>
        <time>2022-07-26T10:52:46Z</time>
      </trkpt>
      <trkpt lat="44.62623" lon="-0.19464">
        <ele>78.3</ele>
        <time>2022-07-26T10:52:47Z</time>
      </trkpt>
      <trkpt lat="44.62626" lon="-0.19462">
        <ele>78.5</ele>
        <time>2022-07-26T10:52:48Z</time>
      </trkpt>
      <trkpt lat="44.62627" lon="-0.19461">
        <ele>78.6</ele>
        <time>2022-07-26T10:52:51Z</time>
      </trkpt>
      <trkpt lat="44.62628" lon="-0.1946">
        <ele>78.7</ele>
        <time>2022-07-26T10:52:52Z</time>
      </trkpt>
      <trkpt lat="44.62629" lon="-0.19459">
        <ele>78.8</ele>
        <time>2022-07-26T10:52:53Z</time>
      </trkpt>
      <trkpt lat="44.62631" lon="-0.19458">
        <ele>78.9</ele>
        <time>2022-07-26T10:52:54Z</time>
      </trkpt>
      <trkpt lat="44.62632" lon="-0.19457">
        <ele>79</ele>
        <time>2022-07-26T10:52:55Z</time>
      </trkpt>
      <trkpt lat="44.62633" lon="-0.19456">
        <ele>79.1</ele>
        <time>2022-07-26T10:52:56Z</time>
      </trkpt>
      <trkpt lat="44.62634" lon="-0.19454">
        <ele>79.3</ele>
        <time>2022-07-26T10:52:57Z</time>
      </trkpt>
      <trkpt lat="44.62635" lon="-0.19452">
        <ele>79.4</ele>
        <time>2022-07-26T10:52:59Z</time>
      </trkpt>
      <trkpt lat="44.62636" lon="-0.19451">
        <ele>79.5</ele>
        <time>2022-07-26T10:53:00Z</time>
      </trkpt>
      <trkpt lat="44.62637" lon="-0.19449">
        <ele>79.7</ele>
        <time>2022-07-26T10:53:01Z</time>
      </trkpt>
      <trkpt lat="44.62638" lon="-0.19447">
        <ele>79.9</ele>
        <time>2022-07-26T10:53:02Z</time>
      </trkpt>
      <trkpt lat="44.62639" lon="-0.19446">
        <ele>80</ele>
        <time>2022-07-26T10:53:03Z</time>
      </trkpt>
      <trkpt lat="44.6264" lon="-0.19445">
        <ele>80.1</ele>
        <time>2022-07-26T10:53:04Z</time>
      </trkpt>
      <trkpt lat="44.62641" lon="-0.19443">
        <ele>80.3</ele>
        <time>2022-07-26T10:53:05Z</time>
      </trkpt>
      <trkpt lat="44.62642" lon="-0.19442">
        <ele>80.3</ele>
        <time>2022-07-26T10:53:06Z</time>
      </trkpt>
      <trkpt lat="44.62642" lon="-0.19441">
        <ele>80.4</ele>
        <time>2022-07-26T10:53:07Z</time>
      </trkpt>
      <trkpt lat="44.62643" lon="-0.19439">
        <ele>80.6</ele>
        <time>2022-07-26T10:53:09Z</time>
      </trkpt>
      <trkpt lat="44.62644" lon="-0.19438">
        <ele>80.7</ele>
        <time>2022-07-26T10:53:10Z</time>
      </trkpt>
      <trkpt lat="44.62645" lon="-0.19437">
        <ele>80.8</ele>
        <time>2022-07-26T10:53:11Z</time>
      </trkpt>
      <trkpt lat="44.62645" lon="-0.19436">
        <ele>80.9</ele>
        <time>2022-07-26T10:53:12Z</time>
      </trkpt>
      <trkpt lat="44.62646" lon="-0.19434">
        <ele>81</ele>
        <time>2022-07-26T10:53:13Z</time>
      </trkpt>
      <trkpt lat="44.62647" lon="-0.19432">
        <ele>81.2</ele>
        <time>2022-07-26T10:53:15Z</time>
      </trkpt>
      <trkpt lat="44.62647" lon="-0.19431">
        <ele>81.3</ele>
        <time>2022-07-26T10:53:16Z</time>
      </trkpt>
      <trkpt lat="44.62648" lon="-0.1943">
        <ele>81.3</ele>
        <time>2022-07-26T10:53:17Z</time>
      </trkpt>
      <trkpt lat="44.62648" lon="-0.19428">
        <ele>81.5</ele>
        <time>2022-07-26T10:53:18Z</time>
      </trkpt>
      <trkpt lat="44.62649" lon="-0.19427">
        <ele>81.6</ele>
        <time>2022-07-26T10:53:19Z</time>
      </trkpt>
      <trkpt lat="44.6265" lon="-0.19426">
        <ele>81.7</ele>
        <time>2022-07-26T10:53:20Z</time>
      </trkpt>
      <trkpt lat="44.6265" lon="-0.19424">
        <ele>81.8</ele>
        <time>2022-07-26T10:53:21Z</time>
      </trkpt>
      <trkpt lat="44.62651" lon="-0.19422">
        <ele>81.9</ele>
        <time>2022-07-26T10:53:22Z</time>
      </trkpt>
      <trkpt lat="44.62651" lon="-0.1942">
        <ele>82.1</ele>
        <time>2022-07-26T10:53:24Z</time>
      </trkpt>
      <trkpt lat="44.62652" lon="-0.19418">
        <ele>82.2</ele>
        <time>2022-07-26T10:53:25Z</time>
      </trkpt>
      <trkpt lat="44.62652" lon="-0.19416">
        <ele>82.4</ele>
        <time>2022-07-26T10:53:26Z</time>
      </trkpt>
      <trkpt lat="44.62653" lon="-0.19415">
        <ele>82.5</ele>
        <time>2022-07-26T10:53:27Z</time>
      </trkpt>
      <trkpt lat="44.62654" lon="-0.19412">
        <ele>82.8</ele>
        <time>2022-07-26T10:53:28Z</time>
      </trkpt>
      <trkpt lat="44.62655" lon="-0.1941">
        <ele>82.9</ele>
        <time>2022-07-26T10:53:29Z</time>
      </trkpt>
      <trkpt lat="44.62655" lon="-0.19409">
        <ele>83</ele>
        <time>2022-07-26T10:53:30Z</time>
      </trkpt>
      <trkpt lat="44.62656" lon="-0.19408">
        <ele>83</ele>
        <time>2022-07-26T10:53:31Z</time>
      </trkpt>
      <trkpt lat="44.62657" lon="-0.19407">
        <ele>82.9</ele>
        <time>2022-07-26T10:53:32Z</time>
      </trkpt>
      <trkpt lat="44.62658" lon="-0.19407">
        <ele>82.9</ele>
        <time>2022-07-26T10:53:33Z</time>
      </trkpt>
      <trkpt lat="44.62659" lon="-0.19406">
        <ele>82.8</ele>
        <time>2022-07-26T10:53:34Z</time>
      </trkpt>
      <trkpt lat="44.62661" lon="-0.19405">
        <ele>82.8</ele>
        <time>2022-07-26T10:53:35Z</time>
      </trkpt>
      <trkpt lat="44.62662" lon="-0.19405">
        <ele>82.7</ele>
        <time>2022-07-26T10:53:37Z</time>
      </trkpt>
      <trkpt lat="44.62663" lon="-0.19405">
        <ele>82.7</ele>
        <time>2022-07-26T10:53:38Z</time>
      </trkpt>
      <trkpt lat="44.62664" lon="-0.19406">
        <ele>82.7</ele>
        <time>2022-07-26T10:53:39Z</time>
      </trkpt>
      <trkpt lat="44.62665" lon="-0.19406">
        <ele>82.6</ele>
        <time>2022-07-26T10:53:40Z</time>
      </trkpt>
      <trkpt lat="44.62667" lon="-0.19406">
        <ele>82.6</ele>
        <time>2022-07-26T10:53:41Z</time>
      </trkpt>
      <trkpt lat="44.62668" lon="-0.19406">
        <ele>82.5</ele>
        <time>2022-07-26T10:53:42Z</time>
      </trkpt>
      <trkpt lat="44.62669" lon="-0.19406">
        <ele>82.5</ele>
        <time>2022-07-26T10:53:43Z</time>
      </trkpt>
      <trkpt lat="44.6267" lon="-0.19406">
        <ele>82.5</ele>
        <time>2022-07-26T10:53:44Z</time>
      </trkpt>
      <trkpt lat="44.62672" lon="-0.19406">
        <ele>82.4</ele>
        <time>2022-07-26T10:53:45Z</time>
      </trkpt>
      <trkpt lat="44.62673" lon="-0.19407">
        <ele>82.4</ele>
        <time>2022-07-26T10:53:46Z</time>
      </trkpt>
      <trkpt lat="44.62674" lon="-0.19407">
        <ele>82.4</ele>
        <time>2022-07-26T10:53:47Z</time>
      </trkpt>
      <trkpt lat="44.62676" lon="-0.19408">
        <ele>82.3</ele>
        <time>2022-07-26T10:53:49Z</time>
      </trkpt>
      <trkpt lat="44.62677" lon="-0.19408">
        <ele>82.3</ele>
        <time>2022-07-26T10:53:50Z</time>
      </trkpt>
      <trkpt lat="44.62678" lon="-0.19408">
        <ele>82.2</ele>
        <time>2022-07-26T10:53:51Z</time>
      </trkpt>
      <trkpt lat="44.62679" lon="-0.19408">
        <ele>82.2</ele>
        <time>2022-07-26T10:53:52Z</time>
      </trkpt>
      <trkpt lat="44.6268" lon="-0.19408">
        <ele>82.2</ele>
        <time>2022-07-26T10:53:53Z</time>
      </trkpt>
      <trkpt lat="44.62682" lon="-0.19408">
        <ele>82.1</ele>
        <time>2022-07-26T10:53:54Z</time>
      </trkpt>
      <trkpt lat="44.62683" lon="-0.19408">
        <ele>82.1</ele>
        <time>2022-07-26T10:53:55Z</time>
      </trkpt>
      <trkpt lat="44.62683" lon="-0.19407">
        <ele>82.1</ele>
        <time>2022-07-26T10:53:56Z</time>
      </trkpt>
      <trkpt lat="44.62684" lon="-0.19407">
        <ele>82</ele>
        <time>2022-07-26T10:53:57Z</time>
      </trkpt>
      <trkpt lat="44.62686" lon="-0.19407">
        <ele>82</ele>
        <time>2022-07-26T10:53:58Z</time>
      </trkpt>
      <trkpt lat="44.62687" lon="-0.19407">
        <ele>81.9</ele>
        <time>2022-07-26T10:53:59Z</time>
      </trkpt>
      <trkpt lat="44.62689" lon="-0.19407">
        <ele>81.9</ele>
        <time>2022-07-26T10:54:01Z</time>
      </trkpt>
      <trkpt lat="44.6269" lon="-0.19407">
        <ele>81.8</ele>
        <time>2022-07-26T10:54:02Z</time>
      </trkpt>
      <trkpt lat="44.62691" lon="-0.19407">
        <ele>81.8</ele>
        <time>2022-07-26T10:54:03Z</time>
      </trkpt>
      <trkpt lat="44.62692" lon="-0.19407">
        <ele>81.8</ele>
        <time>2022-07-26T10:54:04Z</time>
      </trkpt>
      <trkpt lat="44.62693" lon="-0.19407">
        <ele>81.7</ele>
        <time>2022-07-26T10:54:05Z</time>
      </trkpt>
      <trkpt lat="44.62695" lon="-0.19407">
        <ele>81.7</ele>
        <time>2022-07-26T10:54:06Z</time>
      </trkpt>
      <trkpt lat="44.62696" lon="-0.19407">
        <ele>81.7</ele>
        <time>2022-07-26T10:54:07Z</time>
      </trkpt>
      <trkpt lat="44.62697" lon="-0.19407">
        <ele>81.6</ele>
        <time>2022-07-26T10:54:08Z</time>
      </trkpt>
      <trkpt lat="44.62698" lon="-0.19408">
        <ele>81.6</ele>
        <time>2022-07-26T10:54:09Z</time>
      </trkpt>
      <trkpt lat="44.627" lon="-0.19408">
        <ele>81.5</ele>
        <time>2022-07-26T10:54:11Z</time>
      </trkpt>
      <trkpt lat="44.62701" lon="-0.19408">
        <ele>81.5</ele>
        <time>2022-07-26T10:54:12Z</time>
      </trkpt>
      <trkpt lat="44.62703" lon="-0.19409">
        <ele>81.4</ele>
        <time>2022-07-26T10:54:13Z</time>
      </trkpt>
      <trkpt lat="44.62704" lon="-0.19409">
        <ele>81.4</ele>
        <time>2022-07-26T10:54:14Z</time>
      </trkpt>
      <trkpt lat="44.62705" lon="-0.19409">
        <ele>81.4</ele>
        <time>2022-07-26T10:54:15Z</time>
      </trkpt>
      <trkpt lat="44.62707" lon="-0.1941">
        <ele>81.3</ele>
        <time>2022-07-26T10:54:16Z</time>
      </trkpt>
      <trkpt lat="44.62708" lon="-0.1941">
        <ele>81.3</ele>
        <time>2022-07-26T10:54:17Z</time>
      </trkpt>
      <trkpt lat="44.62709" lon="-0.1941">
        <ele>81.3</ele>
        <time>2022-07-26T10:54:18Z</time>
      </trkpt>
      <trkpt lat="44.6271" lon="-0.19409">
        <ele>81.2</ele>
        <time>2022-07-26T10:54:19Z</time>
      </trkpt>
      <trkpt lat="44.62713" lon="-0.19409">
        <ele>81.1</ele>
        <time>2022-07-26T10:54:20Z</time>
      </trkpt>
      <trkpt lat="44.62714" lon="-0.1941">
        <ele>81.1</ele>
        <time>2022-07-26T10:54:21Z</time>
      </trkpt>
      <trkpt lat="44.62716" lon="-0.19409">
        <ele>81</ele>
        <time>2022-07-26T10:54:23Z</time>
      </trkpt>
      <trkpt lat="44.62717" lon="-0.19409">
        <ele>81</ele>
        <time>2022-07-26T10:54:24Z</time>
      </trkpt>
      <trkpt lat="44.62718" lon="-0.19409">
        <ele>81</ele>
        <time>2022-07-26T10:54:25Z</time>
      </trkpt>
      <trkpt lat="44.6272" lon="-0.19409">
        <ele>80.9</ele>
        <time>2022-07-26T10:54:26Z</time>
      </trkpt>
      <trkpt lat="44.62721" lon="-0.19409">
        <ele>80.9</ele>
        <time>2022-07-26T10:54:27Z</time>
      </trkpt>
      <trkpt lat="44.62722" lon="-0.1941">
        <ele>80.8</ele>
        <time>2022-07-26T10:54:28Z</time>
      </trkpt>
      <trkpt lat="44.62723" lon="-0.1941">
        <ele>80.8</ele>
        <time>2022-07-26T10:54:29Z</time>
      </trkpt>
      <trkpt lat="44.62724" lon="-0.1941">
        <ele>80.8</ele>
        <time>2022-07-26T10:54:30Z</time>
      </trkpt>
      <trkpt lat="44.62726" lon="-0.19411">
        <ele>80.7</ele>
        <time>2022-07-26T10:54:31Z</time>
      </trkpt>
      <trkpt lat="44.62727" lon="-0.19411">
        <ele>80.7</ele>
        <time>2022-07-26T10:54:32Z</time>
      </trkpt>
      <trkpt lat="44.62728" lon="-0.19412">
        <ele>80.6</ele>
        <time>2022-07-26T10:54:34Z</time>
      </trkpt>
      <trkpt lat="44.62729" lon="-0.19413">
        <ele>80.6</ele>
        <time>2022-07-26T10:54:35Z</time>
      </trkpt>
      <trkpt lat="44.62731" lon="-0.19415">
        <ele>80.5</ele>
        <time>2022-07-26T10:54:36Z</time>
      </trkpt>
      <trkpt lat="44.62731" lon="-0.19415">
        <ele>80.5</ele>
        <time>2022-07-26T10:54:37Z</time>
      </trkpt>
      <trkpt lat="44.62732" lon="-0.19417">
        <ele>80.5</ele>
        <time>2022-07-26T10:54:38Z</time>
      </trkpt>
      <trkpt lat="44.62732" lon="-0.19418">
        <ele>80.4</ele>
        <time>2022-07-26T10:54:39Z</time>
      </trkpt>
      <trkpt lat="44.62733" lon="-0.19419">
        <ele>80.4</ele>
        <time>2022-07-26T10:54:40Z</time>
      </trkpt>
      <trkpt lat="44.62734" lon="-0.19422">
        <ele>80.4</ele>
        <time>2022-07-26T10:54:41Z</time>
      </trkpt>
      <trkpt lat="44.62734" lon="-0.19424">
        <ele>80.3</ele>
        <time>2022-07-26T10:54:43Z</time>
      </trkpt>
      <trkpt lat="44.62734" lon="-0.19425">
        <ele>80.3</ele>
        <time>2022-07-26T10:54:44Z</time>
      </trkpt>
      <trkpt lat="44.62735" lon="-0.19427">
        <ele>80.2</ele>
        <time>2022-07-26T10:54:45Z</time>
      </trkpt>
      <trkpt lat="44.62735" lon="-0.19429">
        <ele>80.2</ele>
        <time>2022-07-26T10:54:46Z</time>
      </trkpt>
      <trkpt lat="44.62735" lon="-0.19431">
        <ele>80.1</ele>
        <time>2022-07-26T10:54:47Z</time>
      </trkpt>
      <trkpt lat="44.62735" lon="-0.19433">
        <ele>80.1</ele>
        <time>2022-07-26T10:54:48Z</time>
      </trkpt>
      <trkpt lat="44.62735" lon="-0.19436">
        <ele>80</ele>
        <time>2022-07-26T10:54:49Z</time>
      </trkpt>
      <trkpt lat="44.62735" lon="-0.19438">
        <ele>80</ele>
        <time>2022-07-26T10:54:51Z</time>
      </trkpt>
      <trkpt lat="44.62735" lon="-0.19439">
        <ele>80</ele>
        <time>2022-07-26T10:54:52Z</time>
      </trkpt>
      <trkpt lat="44.62735" lon="-0.19441">
        <ele>79.9</ele>
        <time>2022-07-26T10:54:53Z</time>
      </trkpt>
      <trkpt lat="44.62735" lon="-0.19442">
        <ele>79.9</ele>
        <time>2022-07-26T10:54:54Z</time>
      </trkpt>
      <trkpt lat="44.62735" lon="-0.19445">
        <ele>79.8</ele>
        <time>2022-07-26T10:54:55Z</time>
      </trkpt>
      <trkpt lat="44.62736" lon="-0.19446">
        <ele>79.8</ele>
        <time>2022-07-26T10:54:56Z</time>
      </trkpt>
      <trkpt lat="44.62736" lon="-0.19448">
        <ele>79.8</ele>
        <time>2022-07-26T10:54:57Z</time>
      </trkpt>
      <trkpt lat="44.62736" lon="-0.19449">
        <ele>79.7</ele>
        <time>2022-07-26T10:54:58Z</time>
      </trkpt>
      <trkpt lat="44.62737" lon="-0.19451">
        <ele>79.7</ele>
        <time>2022-07-26T10:54:59Z</time>
      </trkpt>
      <trkpt lat="44.62737" lon="-0.19453">
        <ele>79.6</ele>
        <time>2022-07-26T10:55:00Z</time>
      </trkpt>
      <trkpt lat="44.62737" lon="-0.19454">
        <ele>79.6</ele>
        <time>2022-07-26T10:55:01Z</time>
      </trkpt>
      <trkpt lat="44.62738" lon="-0.19458">
        <ele>79.5</ele>
        <time>2022-07-26T10:55:02Z</time>
      </trkpt>
      <trkpt lat="44.62739" lon="-0.1946">
        <ele>79.5</ele>
        <time>2022-07-26T10:55:03Z</time>
      </trkpt>
      <trkpt lat="44.62739" lon="-0.19461">
        <ele>79.4</ele>
        <time>2022-07-26T10:55:04Z</time>
      </trkpt>
      <trkpt lat="44.62739" lon="-0.19463">
        <ele>79.4</ele>
        <time>2022-07-26T10:55:06Z</time>
      </trkpt>
      <trkpt lat="44.62739" lon="-0.19464">
        <ele>79.4</ele>
        <time>2022-07-26T10:55:07Z</time>
      </trkpt>
      <trkpt lat="44.62739" lon="-0.19466">
        <ele>79.4</ele>
        <time>2022-07-26T10:55:08Z</time>
      </trkpt>
      <trkpt lat="44.6274" lon="-0.19467">
        <ele>79.3</ele>
        <time>2022-07-26T10:55:09Z</time>
      </trkpt>
      <trkpt lat="44.6274" lon="-0.19469">
        <ele>79.3</ele>
        <time>2022-07-26T10:55:10Z</time>
      </trkpt>
      <trkpt lat="44.6274" lon="-0.19472">
        <ele>79.2</ele>
        <time>2022-07-26T10:55:12Z</time>
      </trkpt>
      <trkpt lat="44.6274" lon="-0.19474">
        <ele>79.2</ele>
        <time>2022-07-26T10:55:13Z</time>
      </trkpt>
      <trkpt lat="44.6274" lon="-0.19476">
        <ele>79.1</ele>
        <time>2022-07-26T10:55:14Z</time>
      </trkpt>
      <trkpt lat="44.62741" lon="-0.19478">
        <ele>79.1</ele>
        <time>2022-07-26T10:55:15Z</time>
      </trkpt>
      <trkpt lat="44.62741" lon="-0.19481">
        <ele>79</ele>
        <time>2022-07-26T10:55:16Z</time>
      </trkpt>
      <trkpt lat="44.62741" lon="-0.19483">
        <ele>79</ele>
        <time>2022-07-26T10:55:17Z</time>
      </trkpt>
      <trkpt lat="44.62741" lon="-0.19484">
        <ele>78.9</ele>
        <time>2022-07-26T10:55:18Z</time>
      </trkpt>
      <trkpt lat="44.62741" lon="-0.19486">
        <ele>78.9</ele>
        <time>2022-07-26T10:55:19Z</time>
      </trkpt>
      <trkpt lat="44.62741" lon="-0.19489">
        <ele>78.8</ele>
        <time>2022-07-26T10:55:21Z</time>
      </trkpt>
      <trkpt lat="44.62741" lon="-0.1949">
        <ele>78.8</ele>
        <time>2022-07-26T10:55:22Z</time>
      </trkpt>
      <trkpt lat="44.62741" lon="-0.19492">
        <ele>78.8</ele>
        <time>2022-07-26T10:55:23Z</time>
      </trkpt>
      <trkpt lat="44.62741" lon="-0.19496">
        <ele>78.7</ele>
        <time>2022-07-26T10:55:24Z</time>
      </trkpt>
      <trkpt lat="44.62741" lon="-0.19496">
        <ele>78.7</ele>
        <time>2022-07-26T10:55:25Z</time>
      </trkpt>
      <trkpt lat="44.62741" lon="-0.19497">
        <ele>78.6</ele>
        <time>2022-07-26T10:55:26Z</time>
      </trkpt>
      <trkpt lat="44.62741" lon="-0.19501">
        <ele>78.6</ele>
        <time>2022-07-26T10:55:27Z</time>
      </trkpt>
      <trkpt lat="44.62741" lon="-0.19502">
        <ele>78.5</ele>
        <time>2022-07-26T10:55:28Z</time>
      </trkpt>
      <trkpt lat="44.62741" lon="-0.19503">
        <ele>78.5</ele>
        <time>2022-07-26T10:55:29Z</time>
      </trkpt>
      <trkpt lat="44.62741" lon="-0.19505">
        <ele>78.5</ele>
        <time>2022-07-26T10:55:30Z</time>
      </trkpt>
      <trkpt lat="44.62741" lon="-0.19507">
        <ele>78.4</ele>
        <time>2022-07-26T10:55:31Z</time>
      </trkpt>
      <trkpt lat="44.62741" lon="-0.19509">
        <ele>78.4</ele>
        <time>2022-07-26T10:55:32Z</time>
      </trkpt>
      <trkpt lat="44.62741" lon="-0.1951">
        <ele>78.4</ele>
        <time>2022-07-26T10:55:33Z</time>
      </trkpt>
      <trkpt lat="44.62741" lon="-0.19513">
        <ele>78.3</ele>
        <time>2022-07-26T10:55:34Z</time>
      </trkpt>
      <trkpt lat="44.62741" lon="-0.19514">
        <ele>78.3</ele>
        <time>2022-07-26T10:55:35Z</time>
      </trkpt>
      <trkpt lat="44.62742" lon="-0.19516">
        <ele>78.2</ele>
        <time>2022-07-26T10:55:36Z</time>
      </trkpt>
      <trkpt lat="44.62742" lon="-0.19518">
        <ele>78.2</ele>
        <time>2022-07-26T10:55:38Z</time>
      </trkpt>
      <trkpt lat="44.62742" lon="-0.19521">
        <ele>78.1</ele>
        <time>2022-07-26T10:55:39Z</time>
      </trkpt>
      <trkpt lat="44.62742" lon="-0.19522">
        <ele>78.1</ele>
        <time>2022-07-26T10:55:40Z</time>
      </trkpt>
      <trkpt lat="44.62742" lon="-0.19524">
        <ele>78</ele>
        <time>2022-07-26T10:55:41Z</time>
      </trkpt>
      <trkpt lat="44.62742" lon="-0.19526">
        <ele>78</ele>
        <time>2022-07-26T10:55:42Z</time>
      </trkpt>
      <trkpt lat="44.62742" lon="-0.19527">
        <ele>78</ele>
        <time>2022-07-26T10:55:43Z</time>
      </trkpt>
      <trkpt lat="44.62743" lon="-0.19529">
        <ele>77.9</ele>
        <time>2022-07-26T10:55:44Z</time>
      </trkpt>
      <trkpt lat="44.62743" lon="-0.19531">
        <ele>77.9</ele>
        <time>2022-07-26T10:55:45Z</time>
      </trkpt>
      <trkpt lat="44.62743" lon="-0.19536">
        <ele>77.8</ele>
        <time>2022-07-26T10:55:47Z</time>
      </trkpt>
      <trkpt lat="44.62743" lon="-0.19536">
        <ele>77.8</ele>
        <time>2022-07-26T10:55:48Z</time>
      </trkpt>
      <trkpt lat="44.62743" lon="-0.19538">
        <ele>77.7</ele>
        <time>2022-07-26T10:55:49Z</time>
      </trkpt>
      <trkpt lat="44.62743" lon="-0.19541">
        <ele>77.7</ele>
        <time>2022-07-26T10:55:50Z</time>
      </trkpt>
      <trkpt lat="44.62743" lon="-0.19544">
        <ele>77.6</ele>
        <time>2022-07-26T10:55:52Z</time>
      </trkpt>
      <trkpt lat="44.62743" lon="-0.19546">
        <ele>77.6</ele>
        <time>2022-07-26T10:55:53Z</time>
      </trkpt>
      <trkpt lat="44.62744" lon="-0.1955">
        <ele>77.5</ele>
        <time>2022-07-26T10:55:54Z</time>
      </trkpt>
      <trkpt lat="44.62744" lon="-0.19551">
        <ele>77.4</ele>
        <time>2022-07-26T10:55:55Z</time>
      </trkpt>
      <trkpt lat="44.62744" lon="-0.19553">
        <ele>77.4</ele>
        <time>2022-07-26T10:55:56Z</time>
      </trkpt>
      <trkpt lat="44.62744" lon="-0.19554">
        <ele>77.4</ele>
        <time>2022-07-26T10:55:57Z</time>
      </trkpt>
      <trkpt lat="44.62744" lon="-0.19555">
        <ele>77.3</ele>
        <time>2022-07-26T10:55:58Z</time>
      </trkpt>
      <trkpt lat="44.62745" lon="-0.19556">
        <ele>77.3</ele>
        <time>2022-07-26T10:55:59Z</time>
      </trkpt>
      <trkpt lat="44.62745" lon="-0.1956">
        <ele>77.2</ele>
        <time>2022-07-26T10:56:01Z</time>
      </trkpt>
      <trkpt lat="44.62745" lon="-0.19561">
        <ele>77.2</ele>
        <time>2022-07-26T10:56:02Z</time>
      </trkpt>
      <trkpt lat="44.62745" lon="-0.19563">
        <ele>77.2</ele>
        <time>2022-07-26T10:56:03Z</time>
      </trkpt>
      <trkpt lat="44.62745" lon="-0.19565">
        <ele>77.1</ele>
        <time>2022-07-26T10:56:04Z</time>
      </trkpt>
      <trkpt lat="44.62745" lon="-0.19568">
        <ele>77.1</ele>
        <time>2022-07-26T10:56:05Z</time>
      </trkpt>
      <trkpt lat="44.62745" lon="-0.1957">
        <ele>77</ele>
        <time>2022-07-26T10:56:06Z</time>
      </trkpt>
      <trkpt lat="44.62745" lon="-0.19571">
        <ele>77</ele>
        <time>2022-07-26T10:56:07Z</time>
      </trkpt>
      <trkpt lat="44.62745" lon="-0.19572">
        <ele>77</ele>
        <time>2022-07-26T10:56:08Z</time>
      </trkpt>
      <trkpt lat="44.62745" lon="-0.19575">
        <ele>77</ele>
        <time>2022-07-26T10:56:10Z</time>
      </trkpt>
      <trkpt lat="44.62746" lon="-0.19576">
        <ele>77</ele>
        <time>2022-07-26T10:56:11Z</time>
      </trkpt>
      <trkpt lat="44.62747" lon="-0.19579">
        <ele>76.8</ele>
        <time>2022-07-26T10:56:12Z</time>
      </trkpt>
      <trkpt lat="44.62748" lon="-0.19579">
        <ele>76.8</ele>
        <time>2022-07-26T10:56:13Z</time>
      </trkpt>
      <trkpt lat="44.6275" lon="-0.1958">
        <ele>76.7</ele>
        <time>2022-07-26T10:56:14Z</time>
      </trkpt>
      <trkpt lat="44.62751" lon="-0.1958">
        <ele>76.7</ele>
        <time>2022-07-26T10:56:15Z</time>
      </trkpt>
      <trkpt lat="44.62752" lon="-0.1958">
        <ele>76.7</ele>
        <time>2022-07-26T10:56:16Z</time>
      </trkpt>
      <trkpt lat="44.62755" lon="-0.1958">
        <ele>76.6</ele>
        <time>2022-07-26T10:56:17Z</time>
      </trkpt>
      <trkpt lat="44.62755" lon="-0.19579">
        <ele>76.6</ele>
        <time>2022-07-26T10:56:18Z</time>
      </trkpt>
      <trkpt lat="44.62757" lon="-0.19578">
        <ele>76.4</ele>
        <time>2022-07-26T10:56:20Z</time>
      </trkpt>
      <trkpt lat="44.62758" lon="-0.19578">
        <ele>76.4</ele>
        <time>2022-07-26T10:56:21Z</time>
      </trkpt>
      <trkpt lat="44.6276" lon="-0.19577">
        <ele>76.3</ele>
        <time>2022-07-26T10:56:22Z</time>
      </trkpt>
      <trkpt lat="44.62762" lon="-0.19577">
        <ele>76.3</ele>
        <time>2022-07-26T10:56:23Z</time>
      </trkpt>
      <trkpt lat="44.62764" lon="-0.19575">
        <ele>76.2</ele>
        <time>2022-07-26T10:56:24Z</time>
      </trkpt>
      <trkpt lat="44.62765" lon="-0.19575">
        <ele>76.2</ele>
        <time>2022-07-26T10:56:25Z</time>
      </trkpt>
      <trkpt lat="44.62766" lon="-0.19574">
        <ele>76.1</ele>
        <time>2022-07-26T10:56:26Z</time>
      </trkpt>
      <trkpt lat="44.62768" lon="-0.19573">
        <ele>76.1</ele>
        <time>2022-07-26T10:56:27Z</time>
      </trkpt>
      <trkpt lat="44.62768" lon="-0.19572">
        <ele>76</ele>
        <time>2022-07-26T10:56:29Z</time>
      </trkpt>
      <trkpt lat="44.62769" lon="-0.19571">
        <ele>76</ele>
        <time>2022-07-26T10:56:30Z</time>
      </trkpt>
      <trkpt lat="44.62772" lon="-0.1957">
        <ele>75.9</ele>
        <time>2022-07-26T10:56:32Z</time>
      </trkpt>
      <trkpt lat="44.62772" lon="-0.1957">
        <ele>75.9</ele>
        <time>2022-07-26T10:56:33Z</time>
      </trkpt>
      <trkpt lat="44.62773" lon="-0.1957">
        <ele>75.9</ele>
        <time>2022-07-26T10:56:34Z</time>
      </trkpt>
      <trkpt lat="44.62775" lon="-0.1957">
        <ele>75.9</ele>
        <time>2022-07-26T10:56:35Z</time>
      </trkpt>
      <trkpt lat="44.62776" lon="-0.1957">
        <ele>75.9</ele>
        <time>2022-07-26T10:56:36Z</time>
      </trkpt>
      <trkpt lat="44.62777" lon="-0.1957">
        <ele>75.8</ele>
        <time>2022-07-26T10:56:37Z</time>
      </trkpt>
      <trkpt lat="44.62778" lon="-0.1957">
        <ele>75.8</ele>
        <time>2022-07-26T10:56:38Z</time>
      </trkpt>
      <trkpt lat="44.62779" lon="-0.1957">
        <ele>75.8</ele>
        <time>2022-07-26T10:56:39Z</time>
      </trkpt>
      <trkpt lat="44.62781" lon="-0.19571">
        <ele>75.8</ele>
        <time>2022-07-26T10:56:41Z</time>
      </trkpt>
      <trkpt lat="44.62784" lon="-0.19571">
        <ele>75.7</ele>
        <time>2022-07-26T10:56:42Z</time>
      </trkpt>
      <trkpt lat="44.62785" lon="-0.19571">
        <ele>75.7</ele>
        <time>2022-07-26T10:56:44Z</time>
      </trkpt>
      <trkpt lat="44.62785" lon="-0.19572">
        <ele>75.7</ele>
        <time>2022-07-26T10:56:45Z</time>
      </trkpt>
      <trkpt lat="44.62787" lon="-0.19572">
        <ele>75.7</ele>
        <time>2022-07-26T10:56:46Z</time>
      </trkpt>
      <trkpt lat="44.62789" lon="-0.19573">
        <ele>75.7</ele>
        <time>2022-07-26T10:56:47Z</time>
      </trkpt>
      <trkpt lat="44.62789" lon="-0.19573">
        <ele>75.6</ele>
        <time>2022-07-26T10:56:48Z</time>
      </trkpt>
      <trkpt lat="44.6279" lon="-0.19573">
        <ele>75.6</ele>
        <time>2022-07-26T10:56:49Z</time>
      </trkpt>
      <trkpt lat="44.62791" lon="-0.19574">
        <ele>75.6</ele>
        <time>2022-07-26T10:56:50Z</time>
      </trkpt>
      <trkpt lat="44.62793" lon="-0.19574">
        <ele>75.6</ele>
        <time>2022-07-26T10:56:51Z</time>
      </trkpt>
      <trkpt lat="44.62795" lon="-0.19574">
        <ele>75.6</ele>
        <time>2022-07-26T10:56:52Z</time>
      </trkpt>
      <trkpt lat="44.62796" lon="-0.19573">
        <ele>75.5</ele>
        <time>2022-07-26T10:56:53Z</time>
      </trkpt>
      <trkpt lat="44.62796" lon="-0.19573">
        <ele>75.5</ele>
        <time>2022-07-26T10:56:54Z</time>
      </trkpt>
      <trkpt lat="44.62798" lon="-0.19573">
        <ele>75.5</ele>
        <time>2022-07-26T10:56:55Z</time>
      </trkpt>
      <trkpt lat="44.628" lon="-0.19573">
        <ele>75.4</ele>
        <time>2022-07-26T10:56:56Z</time>
      </trkpt>
      <trkpt lat="44.62801" lon="-0.19574">
        <ele>75.4</ele>
        <time>2022-07-26T10:56:57Z</time>
      </trkpt>
      <trkpt lat="44.62801" lon="-0.19574">
        <ele>75.4</ele>
        <time>2022-07-26T10:56:58Z</time>
      </trkpt>
      <trkpt lat="44.62802" lon="-0.19574">
        <ele>75.3</ele>
        <time>2022-07-26T10:56:59Z</time>
      </trkpt>
      <trkpt lat="44.62804" lon="-0.19575">
        <ele>75.3</ele>
        <time>2022-07-26T10:57:00Z</time>
      </trkpt>
      <trkpt lat="44.62805" lon="-0.19575">
        <ele>75.3</ele>
        <time>2022-07-26T10:57:01Z</time>
      </trkpt>
      <trkpt lat="44.62807" lon="-0.19575">
        <ele>75.2</ele>
        <time>2022-07-26T10:57:02Z</time>
      </trkpt>
      <trkpt lat="44.62809" lon="-0.19575">
        <ele>75.1</ele>
        <time>2022-07-26T10:57:04Z</time>
      </trkpt>
      <trkpt lat="44.6281" lon="-0.19576">
        <ele>75.1</ele>
        <time>2022-07-26T10:57:05Z</time>
      </trkpt>
      <trkpt lat="44.6281" lon="-0.19576">
        <ele>75.1</ele>
        <time>2022-07-26T10:57:06Z</time>
      </trkpt>
      <trkpt lat="44.62812" lon="-0.19576">
        <ele>75</ele>
        <time>2022-07-26T10:57:07Z</time>
      </trkpt>
      <trkpt lat="44.62813" lon="-0.19575">
        <ele>75</ele>
        <time>2022-07-26T10:57:08Z</time>
      </trkpt>
      <trkpt lat="44.62814" lon="-0.19575">
        <ele>74.8</ele>
        <time>2022-07-26T10:57:09Z</time>
      </trkpt>
      <trkpt lat="44.62816" lon="-0.19575">
        <ele>74.8</ele>
        <time>2022-07-26T10:57:10Z</time>
      </trkpt>
      <trkpt lat="44.62817" lon="-0.19576">
        <ele>74.7</ele>
        <time>2022-07-26T10:57:11Z</time>
      </trkpt>
      <trkpt lat="44.62818" lon="-0.19576">
        <ele>74.7</ele>
        <time>2022-07-26T10:57:12Z</time>
      </trkpt>
      <trkpt lat="44.62819" lon="-0.19576">
        <ele>74.7</ele>
        <time>2022-07-26T10:57:13Z</time>
      </trkpt>
      <trkpt lat="44.6282" lon="-0.19576">
        <ele>74.5</ele>
        <time>2022-07-26T10:57:14Z</time>
      </trkpt>
      <trkpt lat="44.62821" lon="-0.19576">
        <ele>74.5</ele>
        <time>2022-07-26T10:57:15Z</time>
      </trkpt>
      <trkpt lat="44.62824" lon="-0.19576">
        <ele>74.4</ele>
        <time>2022-07-26T10:57:17Z</time>
      </trkpt>
      <trkpt lat="44.62825" lon="-0.19576">
        <ele>74.4</ele>
        <time>2022-07-26T10:57:18Z</time>
      </trkpt>
      <trkpt lat="44.62826" lon="-0.19576">
        <ele>74.4</ele>
        <time>2022-07-26T10:57:19Z</time>
      </trkpt>
      <trkpt lat="44.62827" lon="-0.19576">
        <ele>74.2</ele>
        <time>2022-07-26T10:57:20Z</time>
      </trkpt>
      <trkpt lat="44.62828" lon="-0.19576">
        <ele>74.2</ele>
        <time>2022-07-26T10:57:21Z</time>
      </trkpt>
      <trkpt lat="44.6283" lon="-0.19576">
        <ele>74</ele>
        <time>2022-07-26T10:57:22Z</time>
      </trkpt>
      <trkpt lat="44.62831" lon="-0.19576">
        <ele>74</ele>
        <time>2022-07-26T10:57:23Z</time>
      </trkpt>
      <trkpt lat="44.62831" lon="-0.19576">
        <ele>74</ele>
        <time>2022-07-26T10:57:24Z</time>
      </trkpt>
      <trkpt lat="44.62833" lon="-0.19576">
        <ele>73.8</ele>
        <time>2022-07-26T10:57:25Z</time>
      </trkpt>
      <trkpt lat="44.62834" lon="-0.19576">
        <ele>73.8</ele>
        <time>2022-07-26T10:57:26Z</time>
      </trkpt>
      <trkpt lat="44.62836" lon="-0.19576">
        <ele>73.7</ele>
        <time>2022-07-26T10:57:27Z</time>
      </trkpt>
      <trkpt lat="44.62837" lon="-0.19576">
        <ele>73.7</ele>
        <time>2022-07-26T10:57:28Z</time>
      </trkpt>
      <trkpt lat="44.62838" lon="-0.19577">
        <ele>73.5</ele>
        <time>2022-07-26T10:57:29Z</time>
      </trkpt>
      <trkpt lat="44.62839" lon="-0.19577">
        <ele>73.5</ele>
        <time>2022-07-26T10:57:30Z</time>
      </trkpt>
      <trkpt lat="44.6284" lon="-0.19577">
        <ele>73.5</ele>
        <time>2022-07-26T10:57:31Z</time>
      </trkpt>
      <trkpt lat="44.62843" lon="-0.19578">
        <ele>73.3</ele>
        <time>2022-07-26T10:57:32Z</time>
      </trkpt>
      <trkpt lat="44.62843" lon="-0.19578">
        <ele>73.3</ele>
        <time>2022-07-26T10:57:33Z</time>
      </trkpt>
      <trkpt lat="44.62844" lon="-0.19578">
        <ele>73.2</ele>
        <time>2022-07-26T10:57:34Z</time>
      </trkpt>
      <trkpt lat="44.62846" lon="-0.19578">
        <ele>73.3</ele>
        <time>2022-07-26T10:57:35Z</time>
      </trkpt>
      <trkpt lat="44.62849" lon="-0.19578">
        <ele>73.1</ele>
        <time>2022-07-26T10:57:36Z</time>
      </trkpt>
      <trkpt lat="44.6285" lon="-0.19579">
        <ele>73.1</ele>
        <time>2022-07-26T10:57:37Z</time>
      </trkpt>
      <trkpt lat="44.62851" lon="-0.19579">
        <ele>73</ele>
        <time>2022-07-26T10:57:38Z</time>
      </trkpt>
      <trkpt lat="44.62852" lon="-0.19579">
        <ele>73</ele>
        <time>2022-07-26T10:57:39Z</time>
      </trkpt>
      <trkpt lat="44.62854" lon="-0.19579">
        <ele>72.8</ele>
        <time>2022-07-26T10:57:41Z</time>
      </trkpt>
      <trkpt lat="44.62856" lon="-0.19579">
        <ele>72.8</ele>
        <time>2022-07-26T10:57:42Z</time>
      </trkpt>
      <trkpt lat="44.62857" lon="-0.19579">
        <ele>72.7</ele>
        <time>2022-07-26T10:57:43Z</time>
      </trkpt>
      <trkpt lat="44.62858" lon="-0.19579">
        <ele>72.7</ele>
        <time>2022-07-26T10:57:44Z</time>
      </trkpt>
      <trkpt lat="44.62859" lon="-0.19579">
        <ele>72.7</ele>
        <time>2022-07-26T10:57:45Z</time>
      </trkpt>
      <trkpt lat="44.62861" lon="-0.19579">
        <ele>72.6</ele>
        <time>2022-07-26T10:57:46Z</time>
      </trkpt>
      <trkpt lat="44.62864" lon="-0.1958">
        <ele>72.4</ele>
        <time>2022-07-26T10:57:48Z</time>
      </trkpt>
      <trkpt lat="44.62865" lon="-0.1958">
        <ele>72.4</ele>
        <time>2022-07-26T10:57:49Z</time>
      </trkpt>
      <trkpt lat="44.62866" lon="-0.1958">
        <ele>72.3</ele>
        <time>2022-07-26T10:57:50Z</time>
      </trkpt>
      <trkpt lat="44.62867" lon="-0.1958">
        <ele>72.3</ele>
        <time>2022-07-26T10:57:51Z</time>
      </trkpt>
      <trkpt lat="44.62868" lon="-0.1958">
        <ele>72.3</ele>
        <time>2022-07-26T10:57:52Z</time>
      </trkpt>
      <trkpt lat="44.6287" lon="-0.1958">
        <ele>72.2</ele>
        <time>2022-07-26T10:57:53Z</time>
      </trkpt>
      <trkpt lat="44.6287" lon="-0.1958">
        <ele>72.2</ele>
        <time>2022-07-26T10:57:54Z</time>
      </trkpt>
      <trkpt lat="44.62871" lon="-0.1958">
        <ele>72.2</ele>
        <time>2022-07-26T10:57:55Z</time>
      </trkpt>
      <trkpt lat="44.62872" lon="-0.1958">
        <ele>72.2</ele>
        <time>2022-07-26T10:57:56Z</time>
      </trkpt>
      <trkpt lat="44.62874" lon="-0.1958">
        <ele>72.1</ele>
        <time>2022-07-26T10:57:57Z</time>
      </trkpt>
      <trkpt lat="44.62875" lon="-0.1958">
        <ele>72.1</ele>
        <time>2022-07-26T10:57:58Z</time>
      </trkpt>
      <trkpt lat="44.62877" lon="-0.1958">
        <ele>72</ele>
        <time>2022-07-26T10:57:59Z</time>
      </trkpt>
      <trkpt lat="44.62879" lon="-0.1958">
        <ele>72</ele>
        <time>2022-07-26T10:58:01Z</time>
      </trkpt>
      <trkpt lat="44.6288" lon="-0.19579">
        <ele>72</ele>
        <time>2022-07-26T10:58:02Z</time>
      </trkpt>
      <trkpt lat="44.6288" lon="-0.19579">
        <ele>71.9</ele>
        <time>2022-07-26T10:58:03Z</time>
      </trkpt>
      <trkpt lat="44.62882" lon="-0.19579">
        <ele>71.9</ele>
        <time>2022-07-26T10:58:04Z</time>
      </trkpt>
      <trkpt lat="44.62883" lon="-0.19579">
        <ele>71.9</ele>
        <time>2022-07-26T10:58:05Z</time>
      </trkpt>
      <trkpt lat="44.62884" lon="-0.19579">
        <ele>71.9</ele>
        <time>2022-07-26T10:58:06Z</time>
      </trkpt>
      <trkpt lat="44.62887" lon="-0.19579">
        <ele>71.8</ele>
        <time>2022-07-26T10:58:08Z</time>
      </trkpt>
      <trkpt lat="44.62888" lon="-0.19579">
        <ele>71.7</ele>
        <time>2022-07-26T10:58:09Z</time>
      </trkpt>
      <trkpt lat="44.62889" lon="-0.19579">
        <ele>71.7</ele>
        <time>2022-07-26T10:58:10Z</time>
      </trkpt>
      <trkpt lat="44.6289" lon="-0.19579">
        <ele>71.6</ele>
        <time>2022-07-26T10:58:11Z</time>
      </trkpt>
      <trkpt lat="44.62892" lon="-0.1958">
        <ele>71.6</ele>
        <time>2022-07-26T10:58:12Z</time>
      </trkpt>
      <trkpt lat="44.62893" lon="-0.1958">
        <ele>71.6</ele>
        <time>2022-07-26T10:58:13Z</time>
      </trkpt>
      <trkpt lat="44.62894" lon="-0.1958">
        <ele>71.5</ele>
        <time>2022-07-26T10:58:14Z</time>
      </trkpt>
      <trkpt lat="44.62895" lon="-0.1958">
        <ele>71.5</ele>
        <time>2022-07-26T10:58:15Z</time>
      </trkpt>
      <trkpt lat="44.62896" lon="-0.1958">
        <ele>71.4</ele>
        <time>2022-07-26T10:58:16Z</time>
      </trkpt>
      <trkpt lat="44.62898" lon="-0.1958">
        <ele>71.4</ele>
        <time>2022-07-26T10:58:17Z</time>
      </trkpt>
      <trkpt lat="44.62899" lon="-0.1958">
        <ele>71.4</ele>
        <time>2022-07-26T10:58:18Z</time>
      </trkpt>
      <trkpt lat="44.62901" lon="-0.1958">
        <ele>71.4</ele>
        <time>2022-07-26T10:58:20Z</time>
      </trkpt>
      <trkpt lat="44.62902" lon="-0.1958">
        <ele>71.4</ele>
        <time>2022-07-26T10:58:21Z</time>
      </trkpt>
      <trkpt lat="44.62904" lon="-0.19579">
        <ele>71.3</ele>
        <time>2022-07-26T10:58:22Z</time>
      </trkpt>
      <trkpt lat="44.62905" lon="-0.19579">
        <ele>71.3</ele>
        <time>2022-07-26T10:58:23Z</time>
      </trkpt>
      <trkpt lat="44.62906" lon="-0.19579">
        <ele>71.2</ele>
        <time>2022-07-26T10:58:24Z</time>
      </trkpt>
      <trkpt lat="44.62908" lon="-0.19578">
        <ele>71.2</ele>
        <time>2022-07-26T10:58:25Z</time>
      </trkpt>
      <trkpt lat="44.6291" lon="-0.19577">
        <ele>71.1</ele>
        <time>2022-07-26T10:58:26Z</time>
      </trkpt>
      <trkpt lat="44.62911" lon="-0.19577">
        <ele>71.1</ele>
        <time>2022-07-26T10:58:27Z</time>
      </trkpt>
      <trkpt lat="44.62912" lon="-0.19576">
        <ele>71.1</ele>
        <time>2022-07-26T10:58:28Z</time>
      </trkpt>
      <trkpt lat="44.62914" lon="-0.19575">
        <ele>71.1</ele>
        <time>2022-07-26T10:58:30Z</time>
      </trkpt>
      <trkpt lat="44.62915" lon="-0.19574">
        <ele>71</ele>
        <time>2022-07-26T10:58:31Z</time>
      </trkpt>
      <trkpt lat="44.62917" lon="-0.19573">
        <ele>71</ele>
        <time>2022-07-26T10:58:32Z</time>
      </trkpt>
      <trkpt lat="44.62919" lon="-0.19573">
        <ele>70.9</ele>
        <time>2022-07-26T10:58:34Z</time>
      </trkpt>
      <trkpt lat="44.6292" lon="-0.19572">
        <ele>70.9</ele>
        <time>2022-07-26T10:58:35Z</time>
      </trkpt>
      <trkpt lat="44.62921" lon="-0.19572">
        <ele>70.9</ele>
        <time>2022-07-26T10:58:36Z</time>
      </trkpt>
      <trkpt lat="44.62923" lon="-0.19571">
        <ele>70.9</ele>
        <time>2022-07-26T10:58:37Z</time>
      </trkpt>
      <trkpt lat="44.62924" lon="-0.19571">
        <ele>70.9</ele>
        <time>2022-07-26T10:58:38Z</time>
      </trkpt>
      <trkpt lat="44.62925" lon="-0.1957">
        <ele>70.8</ele>
        <time>2022-07-26T10:58:39Z</time>
      </trkpt>
      <trkpt lat="44.62926" lon="-0.1957">
        <ele>70.8</ele>
        <time>2022-07-26T10:58:40Z</time>
      </trkpt>
      <trkpt lat="44.62927" lon="-0.19569">
        <ele>70.8</ele>
        <time>2022-07-26T10:58:41Z</time>
      </trkpt>
      <trkpt lat="44.62929" lon="-0.19569">
        <ele>70.7</ele>
        <time>2022-07-26T10:58:43Z</time>
      </trkpt>
      <trkpt lat="44.6293" lon="-0.19569">
        <ele>70.7</ele>
        <time>2022-07-26T10:58:44Z</time>
      </trkpt>
      <trkpt lat="44.62933" lon="-0.19568">
        <ele>70.7</ele>
        <time>2022-07-26T10:58:45Z</time>
      </trkpt>
      <trkpt lat="44.62934" lon="-0.19568">
        <ele>70.6</ele>
        <time>2022-07-26T10:58:46Z</time>
      </trkpt>
      <trkpt lat="44.62935" lon="-0.19568">
        <ele>70.6</ele>
        <time>2022-07-26T10:58:47Z</time>
      </trkpt>
      <trkpt lat="44.62936" lon="-0.19568">
        <ele>70.6</ele>
        <time>2022-07-26T10:58:48Z</time>
      </trkpt>
      <trkpt lat="44.62937" lon="-0.19568">
        <ele>70.6</ele>
        <time>2022-07-26T10:58:49Z</time>
      </trkpt>
      <trkpt lat="44.62938" lon="-0.19568">
        <ele>70.6</ele>
        <time>2022-07-26T10:58:50Z</time>
      </trkpt>
      <trkpt lat="44.6294" lon="-0.19568">
        <ele>70.6</ele>
        <time>2022-07-26T10:58:51Z</time>
      </trkpt>
      <trkpt lat="44.62941" lon="-0.19568">
        <ele>70.6</ele>
        <time>2022-07-26T10:58:52Z</time>
      </trkpt>
      <trkpt lat="44.62943" lon="-0.19568">
        <ele>70.5</ele>
        <time>2022-07-26T10:58:53Z</time>
      </trkpt>
      <trkpt lat="44.62943" lon="-0.19567">
        <ele>70.5</ele>
        <time>2022-07-26T10:58:54Z</time>
      </trkpt>
      <trkpt lat="44.62944" lon="-0.19567">
        <ele>70.5</ele>
        <time>2022-07-26T10:58:55Z</time>
      </trkpt>
      <trkpt lat="44.62945" lon="-0.19567">
        <ele>70.5</ele>
        <time>2022-07-26T10:58:56Z</time>
      </trkpt>
      <trkpt lat="44.62947" lon="-0.19567">
        <ele>70.5</ele>
        <time>2022-07-26T10:58:57Z</time>
      </trkpt>
      <trkpt lat="44.62948" lon="-0.19566">
        <ele>70.5</ele>
        <time>2022-07-26T10:58:58Z</time>
      </trkpt>
      <trkpt lat="44.6295" lon="-0.19566">
        <ele>70.4</ele>
        <time>2022-07-26T10:58:59Z</time>
      </trkpt>
      <trkpt lat="44.62951" lon="-0.19566">
        <ele>70.4</ele>
        <time>2022-07-26T10:59:00Z</time>
      </trkpt>
      <trkpt lat="44.62952" lon="-0.19566">
        <ele>70.4</ele>
        <time>2022-07-26T10:59:01Z</time>
      </trkpt>
      <trkpt lat="44.62954" lon="-0.19565">
        <ele>70.4</ele>
        <time>2022-07-26T10:59:02Z</time>
      </trkpt>
      <trkpt lat="44.62955" lon="-0.19565">
        <ele>70.3</ele>
        <time>2022-07-26T10:59:03Z</time>
      </trkpt>
      <trkpt lat="44.62956" lon="-0.19565">
        <ele>70.3</ele>
        <time>2022-07-26T10:59:05Z</time>
      </trkpt>
      <trkpt lat="44.62958" lon="-0.19565">
        <ele>70.3</ele>
        <time>2022-07-26T10:59:06Z</time>
      </trkpt>
      <trkpt lat="44.6296" lon="-0.19564">
        <ele>70.3</ele>
        <time>2022-07-26T10:59:07Z</time>
      </trkpt>
      <trkpt lat="44.62961" lon="-0.19563">
        <ele>70.2</ele>
        <time>2022-07-26T10:59:08Z</time>
      </trkpt>
      <trkpt lat="44.62964" lon="-0.19563">
        <ele>70.2</ele>
        <time>2022-07-26T10:59:10Z</time>
      </trkpt>
      <trkpt lat="44.62965" lon="-0.19562">
        <ele>70.2</ele>
        <time>2022-07-26T10:59:11Z</time>
      </trkpt>
      <trkpt lat="44.62966" lon="-0.19562">
        <ele>70.2</ele>
        <time>2022-07-26T10:59:12Z</time>
      </trkpt>
      <trkpt lat="44.62966" lon="-0.19562">
        <ele>70.2</ele>
        <time>2022-07-26T10:59:13Z</time>
      </trkpt>
      <trkpt lat="44.62968" lon="-0.19562">
        <ele>70.2</ele>
        <time>2022-07-26T10:59:14Z</time>
      </trkpt>
      <trkpt lat="44.62969" lon="-0.19562">
        <ele>70.2</ele>
        <time>2022-07-26T10:59:15Z</time>
      </trkpt>
      <trkpt lat="44.62971" lon="-0.19561">
        <ele>70.2</ele>
        <time>2022-07-26T10:59:16Z</time>
      </trkpt>
      <trkpt lat="44.62972" lon="-0.19561">
        <ele>70.2</ele>
        <time>2022-07-26T10:59:17Z</time>
      </trkpt>
      <trkpt lat="44.62974" lon="-0.19561">
        <ele>70.1</ele>
        <time>2022-07-26T10:59:19Z</time>
      </trkpt>
      <trkpt lat="44.62975" lon="-0.19561">
        <ele>70.1</ele>
        <time>2022-07-26T10:59:20Z</time>
      </trkpt>
      <trkpt lat="44.62976" lon="-0.1956">
        <ele>70.1</ele>
        <time>2022-07-26T10:59:21Z</time>
      </trkpt>
      <trkpt lat="44.62977" lon="-0.1956">
        <ele>70.1</ele>
        <time>2022-07-26T10:59:22Z</time>
      </trkpt>
      <trkpt lat="44.62979" lon="-0.1956">
        <ele>70.1</ele>
        <time>2022-07-26T10:59:23Z</time>
      </trkpt>
      <trkpt lat="44.62979" lon="-0.19561">
        <ele>70.1</ele>
        <time>2022-07-26T10:59:24Z</time>
      </trkpt>
      <trkpt lat="44.6298" lon="-0.1956">
        <ele>70.1</ele>
        <time>2022-07-26T10:59:25Z</time>
      </trkpt>
      <trkpt lat="44.62982" lon="-0.1956">
        <ele>70.1</ele>
        <time>2022-07-26T10:59:26Z</time>
      </trkpt>
      <trkpt lat="44.62983" lon="-0.1956">
        <ele>70.1</ele>
        <time>2022-07-26T10:59:27Z</time>
      </trkpt>
      <trkpt lat="44.62986" lon="-0.1956">
        <ele>70.1</ele>
        <time>2022-07-26T10:59:29Z</time>
      </trkpt>
      <trkpt lat="44.62987" lon="-0.1956">
        <ele>70.1</ele>
        <time>2022-07-26T10:59:30Z</time>
      </trkpt>
      <trkpt lat="44.62988" lon="-0.1956">
        <ele>70.1</ele>
        <time>2022-07-26T10:59:31Z</time>
      </trkpt>
      <trkpt lat="44.62989" lon="-0.19559">
        <ele>70.1</ele>
        <time>2022-07-26T10:59:32Z</time>
      </trkpt>
      <trkpt lat="44.62991" lon="-0.19559">
        <ele>70.1</ele>
        <time>2022-07-26T10:59:33Z</time>
      </trkpt>
      <trkpt lat="44.62993" lon="-0.19558">
        <ele>70.1</ele>
        <time>2022-07-26T10:59:34Z</time>
      </trkpt>
      <trkpt lat="44.62994" lon="-0.19557">
        <ele>70.1</ele>
        <time>2022-07-26T10:59:35Z</time>
      </trkpt>
      <trkpt lat="44.62995" lon="-0.19556">
        <ele>70.1</ele>
        <time>2022-07-26T10:59:36Z</time>
      </trkpt>
      <trkpt lat="44.62996" lon="-0.19555">
        <ele>70.1</ele>
        <time>2022-07-26T10:59:37Z</time>
      </trkpt>
      <trkpt lat="44.62997" lon="-0.19551">
        <ele>70</ele>
        <time>2022-07-26T10:59:38Z</time>
      </trkpt>
      <trkpt lat="44.62997" lon="-0.1955">
        <ele>70</ele>
        <time>2022-07-26T10:59:39Z</time>
      </trkpt>
      <trkpt lat="44.62996" lon="-0.19545">
        <ele>70</ele>
        <time>2022-07-26T10:59:41Z</time>
      </trkpt>
      <trkpt lat="44.62995" lon="-0.19543">
        <ele>69.9</ele>
        <time>2022-07-26T10:59:42Z</time>
      </trkpt>
      <trkpt lat="44.62994" lon="-0.19539">
        <ele>69.8</ele>
        <time>2022-07-26T10:59:43Z</time>
      </trkpt>
      <trkpt lat="44.62993" lon="-0.19538">
        <ele>69.8</ele>
        <time>2022-07-26T10:59:44Z</time>
      </trkpt>
      <trkpt lat="44.62991" lon="-0.19535">
        <ele>69.8</ele>
        <time>2022-07-26T10:59:46Z</time>
      </trkpt>
      <trkpt lat="44.62989" lon="-0.19531">
        <ele>69.7</ele>
        <time>2022-07-26T10:59:47Z</time>
      </trkpt>
      <trkpt lat="44.62988" lon="-0.1953">
        <ele>69.7</ele>
        <time>2022-07-26T10:59:48Z</time>
      </trkpt>
      <trkpt lat="44.62987" lon="-0.19527">
        <ele>69.7</ele>
        <time>2022-07-26T10:59:49Z</time>
      </trkpt>
      <trkpt lat="44.62987" lon="-0.19526">
        <ele>69.6</ele>
        <time>2022-07-26T10:59:50Z</time>
      </trkpt>
      <trkpt lat="44.62987" lon="-0.19525">
        <ele>69.6</ele>
        <time>2022-07-26T10:59:51Z</time>
      </trkpt>
      <trkpt lat="44.62986" lon="-0.19521">
        <ele>69.5</ele>
        <time>2022-07-26T10:59:53Z</time>
      </trkpt>
      <trkpt lat="44.62986" lon="-0.1952">
        <ele>69.5</ele>
        <time>2022-07-26T10:59:54Z</time>
      </trkpt>
      <trkpt lat="44.62985" lon="-0.19517">
        <ele>69.5</ele>
        <time>2022-07-26T10:59:55Z</time>
      </trkpt>
      <trkpt lat="44.62985" lon="-0.19516">
        <ele>69.5</ele>
        <time>2022-07-26T10:59:56Z</time>
      </trkpt>
      <trkpt lat="44.62985" lon="-0.19514">
        <ele>69.5</ele>
        <time>2022-07-26T10:59:57Z</time>
      </trkpt>
      <trkpt lat="44.62984" lon="-0.19512">
        <ele>69.4</ele>
        <time>2022-07-26T10:59:58Z</time>
      </trkpt>
      <trkpt lat="44.62984" lon="-0.1951">
        <ele>69.4</ele>
        <time>2022-07-26T10:59:59Z</time>
      </trkpt>
      <trkpt lat="44.62983" lon="-0.19509">
        <ele>69.4</ele>
        <time>2022-07-26T11:00:00Z</time>
      </trkpt>
      <trkpt lat="44.62982" lon="-0.19506">
        <ele>69.4</ele>
        <time>2022-07-26T11:00:02Z</time>
      </trkpt>
      <trkpt lat="44.62982" lon="-0.19505">
        <ele>69.3</ele>
        <time>2022-07-26T11:00:03Z</time>
      </trkpt>
      <trkpt lat="44.62981" lon="-0.19502">
        <ele>69.3</ele>
        <time>2022-07-26T11:00:04Z</time>
      </trkpt>
      <trkpt lat="44.62981" lon="-0.195">
        <ele>69.3</ele>
        <time>2022-07-26T11:00:05Z</time>
      </trkpt>
      <trkpt lat="44.62981" lon="-0.19498">
        <ele>69.3</ele>
        <time>2022-07-26T11:00:06Z</time>
      </trkpt>
      <trkpt lat="44.6298" lon="-0.19497">
        <ele>69.3</ele>
        <time>2022-07-26T11:00:07Z</time>
      </trkpt>
      <trkpt lat="44.6298" lon="-0.19495">
        <ele>69.3</ele>
        <time>2022-07-26T11:00:09Z</time>
      </trkpt>
      <trkpt lat="44.62979" lon="-0.19493">
        <ele>69.3</ele>
        <time>2022-07-26T11:00:10Z</time>
      </trkpt>
      <trkpt lat="44.62979" lon="-0.1949">
        <ele>69.3</ele>
        <time>2022-07-26T11:00:11Z</time>
      </trkpt>
      <trkpt lat="44.62978" lon="-0.19488">
        <ele>69.3</ele>
        <time>2022-07-26T11:00:12Z</time>
      </trkpt>
      <trkpt lat="44.62978" lon="-0.19487">
        <ele>69.3</ele>
        <time>2022-07-26T11:00:13Z</time>
      </trkpt>
      <trkpt lat="44.62978" lon="-0.19486">
        <ele>69.3</ele>
        <time>2022-07-26T11:00:14Z</time>
      </trkpt>
      <trkpt lat="44.62978" lon="-0.19484">
        <ele>69.3</ele>
        <time>2022-07-26T11:00:15Z</time>
      </trkpt>
      <trkpt lat="44.62977" lon="-0.19483">
        <ele>69.3</ele>
        <time>2022-07-26T11:00:16Z</time>
      </trkpt>
      <trkpt lat="44.62977" lon="-0.19481">
        <ele>69.3</ele>
        <time>2022-07-26T11:00:17Z</time>
      </trkpt>
      <trkpt lat="44.62976" lon="-0.19478">
        <ele>69.3</ele>
        <time>2022-07-26T11:00:19Z</time>
      </trkpt>
      <trkpt lat="44.62976" lon="-0.19477">
        <ele>69.3</ele>
        <time>2022-07-26T11:00:20Z</time>
      </trkpt>
      <trkpt lat="44.62975" lon="-0.19474">
        <ele>69.3</ele>
        <time>2022-07-26T11:00:21Z</time>
      </trkpt>
      <trkpt lat="44.62975" lon="-0.19472">
        <ele>69.3</ele>
        <time>2022-07-26T11:00:22Z</time>
      </trkpt>
      <trkpt lat="44.62975" lon="-0.1947">
        <ele>69.3</ele>
        <time>2022-07-26T11:00:23Z</time>
      </trkpt>
      <trkpt lat="44.62974" lon="-0.19467">
        <ele>69.3</ele>
        <time>2022-07-26T11:00:25Z</time>
      </trkpt>
      <trkpt lat="44.62974" lon="-0.19465">
        <ele>69.4</ele>
        <time>2022-07-26T11:00:26Z</time>
      </trkpt>
      <trkpt lat="44.62973" lon="-0.19463">
        <ele>69.4</ele>
        <time>2022-07-26T11:00:27Z</time>
      </trkpt>
      <trkpt lat="44.62972" lon="-0.1946">
        <ele>69.4</ele>
        <time>2022-07-26T11:00:29Z</time>
      </trkpt>
      <trkpt lat="44.62972" lon="-0.19457">
        <ele>69.5</ele>
        <time>2022-07-26T11:00:30Z</time>
      </trkpt>
      <trkpt lat="44.62972" lon="-0.19455">
        <ele>69.5</ele>
        <time>2022-07-26T11:00:31Z</time>
      </trkpt>
      <trkpt lat="44.62972" lon="-0.19454">
        <ele>69.5</ele>
        <time>2022-07-26T11:00:32Z</time>
      </trkpt>
      <trkpt lat="44.62971" lon="-0.1945">
        <ele>69.5</ele>
        <time>2022-07-26T11:00:33Z</time>
      </trkpt>
      <trkpt lat="44.6297" lon="-0.1945">
        <ele>69.5</ele>
        <time>2022-07-26T11:00:34Z</time>
      </trkpt>
      <trkpt lat="44.6297" lon="-0.19449">
        <ele>69.6</ele>
        <time>2022-07-26T11:00:35Z</time>
      </trkpt>
      <trkpt lat="44.62969" lon="-0.19446">
        <ele>69.6</ele>
        <time>2022-07-26T11:00:36Z</time>
      </trkpt>
      <trkpt lat="44.62969" lon="-0.19444">
        <ele>69.7</ele>
        <time>2022-07-26T11:00:37Z</time>
      </trkpt>
      <trkpt lat="44.62969" lon="-0.19443">
        <ele>69.7</ele>
        <time>2022-07-26T11:00:38Z</time>
      </trkpt>
      <trkpt lat="44.62969" lon="-0.19442">
        <ele>69.7</ele>
        <time>2022-07-26T11:00:39Z</time>
      </trkpt>
      <trkpt lat="44.62968" lon="-0.19439">
        <ele>69.7</ele>
        <time>2022-07-26T11:00:41Z</time>
      </trkpt>
      <trkpt lat="44.62967" lon="-0.19437">
        <ele>69.7</ele>
        <time>2022-07-26T11:00:42Z</time>
      </trkpt>
      <trkpt lat="44.62966" lon="-0.19435">
        <ele>69.8</ele>
        <time>2022-07-26T11:00:43Z</time>
      </trkpt>
      <trkpt lat="44.62965" lon="-0.19433">
        <ele>69.8</ele>
        <time>2022-07-26T11:00:44Z</time>
      </trkpt>
      <trkpt lat="44.62965" lon="-0.19431">
        <ele>69.9</ele>
        <time>2022-07-26T11:00:45Z</time>
      </trkpt>
      <trkpt lat="44.62965" lon="-0.1943">
        <ele>69.9</ele>
        <time>2022-07-26T11:00:46Z</time>
      </trkpt>
      <trkpt lat="44.62964" lon="-0.19428">
        <ele>69.9</ele>
        <time>2022-07-26T11:00:47Z</time>
      </trkpt>
      <trkpt lat="44.62963" lon="-0.19425">
        <ele>69.9</ele>
        <time>2022-07-26T11:00:49Z</time>
      </trkpt>
      <trkpt lat="44.62962" lon="-0.19423">
        <ele>70</ele>
        <time>2022-07-26T11:00:50Z</time>
      </trkpt>
      <trkpt lat="44.62962" lon="-0.19421">
        <ele>70</ele>
        <time>2022-07-26T11:00:51Z</time>
      </trkpt>
      <trkpt lat="44.6296" lon="-0.19415">
        <ele>70.1</ele>
        <time>2022-07-26T11:00:54Z</time>
      </trkpt>
      <trkpt lat="44.6296" lon="-0.19413">
        <ele>70.1</ele>
        <time>2022-07-26T11:00:55Z</time>
      </trkpt>
      <trkpt lat="44.6296" lon="-0.19412">
        <ele>70.1</ele>
        <time>2022-07-26T11:00:56Z</time>
      </trkpt>
      <trkpt lat="44.62959" lon="-0.19411">
        <ele>70.1</ele>
        <time>2022-07-26T11:00:57Z</time>
      </trkpt>
      <trkpt lat="44.62959" lon="-0.19409">
        <ele>70.1</ele>
        <time>2022-07-26T11:00:58Z</time>
      </trkpt>
      <trkpt lat="44.62959" lon="-0.19406">
        <ele>70.1</ele>
        <time>2022-07-26T11:00:59Z</time>
      </trkpt>
      <trkpt lat="44.62958" lon="-0.19405">
        <ele>70.1</ele>
        <time>2022-07-26T11:01:00Z</time>
      </trkpt>
      <trkpt lat="44.62958" lon="-0.19403">
        <ele>70.1</ele>
        <time>2022-07-26T11:01:01Z</time>
      </trkpt>
      <trkpt lat="44.62958" lon="-0.19401">
        <ele>70.2</ele>
        <time>2022-07-26T11:01:02Z</time>
      </trkpt>
      <trkpt lat="44.62957" lon="-0.194">
        <ele>70.2</ele>
        <time>2022-07-26T11:01:03Z</time>
      </trkpt>
      <trkpt lat="44.62957" lon="-0.19397">
        <ele>70.2</ele>
        <time>2022-07-26T11:01:04Z</time>
      </trkpt>
      <trkpt lat="44.62956" lon="-0.19395">
        <ele>70.2</ele>
        <time>2022-07-26T11:01:05Z</time>
      </trkpt>
      <trkpt lat="44.62956" lon="-0.19394">
        <ele>70.2</ele>
        <time>2022-07-26T11:01:06Z</time>
      </trkpt>
      <trkpt lat="44.62956" lon="-0.19392">
        <ele>70.2</ele>
        <time>2022-07-26T11:01:07Z</time>
      </trkpt>
      <trkpt lat="44.62955" lon="-0.19391">
        <ele>70.2</ele>
        <time>2022-07-26T11:01:08Z</time>
      </trkpt>
      <trkpt lat="44.62955" lon="-0.19389">
        <ele>70.2</ele>
        <time>2022-07-26T11:01:09Z</time>
      </trkpt>
      <trkpt lat="44.62955" lon="-0.19388">
        <ele>70.3</ele>
        <time>2022-07-26T11:01:10Z</time>
      </trkpt>
      <trkpt lat="44.62954" lon="-0.19385">
        <ele>70.2</ele>
        <time>2022-07-26T11:01:11Z</time>
      </trkpt>
      <trkpt lat="44.62954" lon="-0.19384">
        <ele>70.3</ele>
        <time>2022-07-26T11:01:12Z</time>
      </trkpt>
      <trkpt lat="44.62954" lon="-0.19382">
        <ele>70.3</ele>
        <time>2022-07-26T11:01:13Z</time>
      </trkpt>
      <trkpt lat="44.62953" lon="-0.19379">
        <ele>70.3</ele>
        <time>2022-07-26T11:01:14Z</time>
      </trkpt>
      <trkpt lat="44.62953" lon="-0.19378">
        <ele>70.3</ele>
        <time>2022-07-26T11:01:15Z</time>
      </trkpt>
      <trkpt lat="44.62953" lon="-0.19377">
        <ele>70.3</ele>
        <time>2022-07-26T11:01:16Z</time>
      </trkpt>
      <trkpt lat="44.62952" lon="-0.19375">
        <ele>70.3</ele>
        <time>2022-07-26T11:01:17Z</time>
      </trkpt>
      <trkpt lat="44.62951" lon="-0.19372">
        <ele>70.3</ele>
        <time>2022-07-26T11:01:19Z</time>
      </trkpt>
      <trkpt lat="44.6295" lon="-0.19369">
        <ele>70.3</ele>
        <time>2022-07-26T11:01:20Z</time>
      </trkpt>
      <trkpt lat="44.6295" lon="-0.19368">
        <ele>70.3</ele>
        <time>2022-07-26T11:01:21Z</time>
      </trkpt>
      <trkpt lat="44.6295" lon="-0.19367">
        <ele>70.3</ele>
        <time>2022-07-26T11:01:22Z</time>
      </trkpt>
      <trkpt lat="44.62949" lon="-0.19363">
        <ele>70.3</ele>
        <time>2022-07-26T11:01:23Z</time>
      </trkpt>
      <trkpt lat="44.62948" lon="-0.1936">
        <ele>70.3</ele>
        <time>2022-07-26T11:01:25Z</time>
      </trkpt>
      <trkpt lat="44.62948" lon="-0.19359">
        <ele>70.4</ele>
        <time>2022-07-26T11:01:26Z</time>
      </trkpt>
      <trkpt lat="44.62948" lon="-0.19358">
        <ele>70.4</ele>
        <time>2022-07-26T11:01:27Z</time>
      </trkpt>
      <trkpt lat="44.62947" lon="-0.19355">
        <ele>70.4</ele>
        <time>2022-07-26T11:01:28Z</time>
      </trkpt>
      <trkpt lat="44.62946" lon="-0.19353">
        <ele>70.4</ele>
        <time>2022-07-26T11:01:29Z</time>
      </trkpt>
      <trkpt lat="44.62946" lon="-0.19351">
        <ele>70.4</ele>
        <time>2022-07-26T11:01:30Z</time>
      </trkpt>
      <trkpt lat="44.62945" lon="-0.1935">
        <ele>70.5</ele>
        <time>2022-07-26T11:01:31Z</time>
      </trkpt>
      <trkpt lat="44.62945" lon="-0.19349">
        <ele>70.5</ele>
        <time>2022-07-26T11:01:32Z</time>
      </trkpt>
      <trkpt lat="44.62943" lon="-0.19345">
        <ele>70.5</ele>
        <time>2022-07-26T11:01:33Z</time>
      </trkpt>
      <trkpt lat="44.62943" lon="-0.19344">
        <ele>70.5</ele>
        <time>2022-07-26T11:01:34Z</time>
      </trkpt>
      <trkpt lat="44.62942" lon="-0.19343">
        <ele>70.5</ele>
        <time>2022-07-26T11:01:35Z</time>
      </trkpt>
      <trkpt lat="44.62942" lon="-0.19342">
        <ele>70.6</ele>
        <time>2022-07-26T11:01:36Z</time>
      </trkpt>
      <trkpt lat="44.62941" lon="-0.1934">
        <ele>70.6</ele>
        <time>2022-07-26T11:01:37Z</time>
      </trkpt>
      <trkpt lat="44.6294" lon="-0.19337">
        <ele>70.6</ele>
        <time>2022-07-26T11:01:38Z</time>
      </trkpt>
      <trkpt lat="44.62939" lon="-0.19335">
        <ele>70.6</ele>
        <time>2022-07-26T11:01:39Z</time>
      </trkpt>
      <trkpt lat="44.62938" lon="-0.19333">
        <ele>70.7</ele>
        <time>2022-07-26T11:01:40Z</time>
      </trkpt>
      <trkpt lat="44.62937" lon="-0.19331">
        <ele>70.7</ele>
        <time>2022-07-26T11:01:42Z</time>
      </trkpt>
      <trkpt lat="44.62937" lon="-0.19329">
        <ele>70.7</ele>
        <time>2022-07-26T11:01:43Z</time>
      </trkpt>
      <trkpt lat="44.62936" lon="-0.19327">
        <ele>70.9</ele>
        <time>2022-07-26T11:01:44Z</time>
      </trkpt>
      <trkpt lat="44.62935" lon="-0.19326">
        <ele>70.9</ele>
        <time>2022-07-26T11:01:45Z</time>
      </trkpt>
      <trkpt lat="44.62935" lon="-0.19325">
        <ele>70.9</ele>
        <time>2022-07-26T11:01:46Z</time>
      </trkpt>
      <trkpt lat="44.62934" lon="-0.19323">
        <ele>71</ele>
        <time>2022-07-26T11:01:47Z</time>
      </trkpt>
      <trkpt lat="44.62933" lon="-0.1932">
        <ele>71.1</ele>
        <time>2022-07-26T11:01:48Z</time>
      </trkpt>
      <trkpt lat="44.62933" lon="-0.19319">
        <ele>71.2</ele>
        <time>2022-07-26T11:01:49Z</time>
      </trkpt>
      <trkpt lat="44.62932" lon="-0.19316">
        <ele>71.2</ele>
        <time>2022-07-26T11:01:51Z</time>
      </trkpt>
      <trkpt lat="44.62931" lon="-0.19315">
        <ele>71.3</ele>
        <time>2022-07-26T11:01:52Z</time>
      </trkpt>
      <trkpt lat="44.6293" lon="-0.19313">
        <ele>71.3</ele>
        <time>2022-07-26T11:01:53Z</time>
      </trkpt>
      <trkpt lat="44.62929" lon="-0.1931">
        <ele>71.5</ele>
        <time>2022-07-26T11:01:54Z</time>
      </trkpt>
      <trkpt lat="44.62929" lon="-0.19309">
        <ele>71.5</ele>
        <time>2022-07-26T11:01:55Z</time>
      </trkpt>
      <trkpt lat="44.62929" lon="-0.19308">
        <ele>71.5</ele>
        <time>2022-07-26T11:01:56Z</time>
      </trkpt>
      <trkpt lat="44.62928" lon="-0.19306">
        <ele>71.6</ele>
        <time>2022-07-26T11:01:57Z</time>
      </trkpt>
      <trkpt lat="44.62927" lon="-0.19302">
        <ele>71.8</ele>
        <time>2022-07-26T11:01:59Z</time>
      </trkpt>
      <trkpt lat="44.62927" lon="-0.19301">
        <ele>71.8</ele>
        <time>2022-07-26T11:02:00Z</time>
      </trkpt>
      <trkpt lat="44.62927" lon="-0.193">
        <ele>71.9</ele>
        <time>2022-07-26T11:02:01Z</time>
      </trkpt>
      <trkpt lat="44.62926" lon="-0.19297">
        <ele>72</ele>
        <time>2022-07-26T11:02:03Z</time>
      </trkpt>
      <trkpt lat="44.62925" lon="-0.19293">
        <ele>72.2</ele>
        <time>2022-07-26T11:02:04Z</time>
      </trkpt>
      <trkpt lat="44.62925" lon="-0.19292">
        <ele>72.2</ele>
        <time>2022-07-26T11:02:05Z</time>
      </trkpt>
      <trkpt lat="44.62924" lon="-0.19291">
        <ele>72.2</ele>
        <time>2022-07-26T11:02:06Z</time>
      </trkpt>
      <trkpt lat="44.62923" lon="-0.19289">
        <ele>72.4</ele>
        <time>2022-07-26T11:02:07Z</time>
      </trkpt>
      <trkpt lat="44.62923" lon="-0.19288">
        <ele>72.4</ele>
        <time>2022-07-26T11:02:08Z</time>
      </trkpt>
      <trkpt lat="44.62921" lon="-0.19284">
        <ele>72.6</ele>
        <time>2022-07-26T11:02:09Z</time>
      </trkpt>
      <trkpt lat="44.62921" lon="-0.19282">
        <ele>72.6</ele>
        <time>2022-07-26T11:02:11Z</time>
      </trkpt>
      <trkpt lat="44.6292" lon="-0.1928">
        <ele>72.9</ele>
        <time>2022-07-26T11:02:12Z</time>
      </trkpt>
      <trkpt lat="44.6292" lon="-0.19279">
        <ele>72.9</ele>
        <time>2022-07-26T11:02:13Z</time>
      </trkpt>
      <trkpt lat="44.62919" lon="-0.19277">
        <ele>73</ele>
        <time>2022-07-26T11:02:14Z</time>
      </trkpt>
      <trkpt lat="44.62919" lon="-0.19276">
        <ele>73</ele>
        <time>2022-07-26T11:02:15Z</time>
      </trkpt>
      <trkpt lat="44.62919" lon="-0.19275">
        <ele>73</ele>
        <time>2022-07-26T11:02:16Z</time>
      </trkpt>
      <trkpt lat="44.62919" lon="-0.19274">
        <ele>73</ele>
        <time>2022-07-26T11:02:17Z</time>
      </trkpt>
      <trkpt lat="44.62918" lon="-0.19272">
        <ele>73.1</ele>
        <time>2022-07-26T11:02:18Z</time>
      </trkpt>
      <trkpt lat="44.62917" lon="-0.19269">
        <ele>73.3</ele>
        <time>2022-07-26T11:02:19Z</time>
      </trkpt>
      <trkpt lat="44.62917" lon="-0.19267">
        <ele>73.4</ele>
        <time>2022-07-26T11:02:21Z</time>
      </trkpt>
      <trkpt lat="44.62916" lon="-0.19265">
        <ele>73.4</ele>
        <time>2022-07-26T11:02:22Z</time>
      </trkpt>
      <trkpt lat="44.62916" lon="-0.19262">
        <ele>73.5</ele>
        <time>2022-07-26T11:02:23Z</time>
      </trkpt>
      <trkpt lat="44.62915" lon="-0.1926">
        <ele>73.5</ele>
        <time>2022-07-26T11:02:24Z</time>
      </trkpt>
      <trkpt lat="44.62915" lon="-0.19259">
        <ele>73.5</ele>
        <time>2022-07-26T11:02:25Z</time>
      </trkpt>
      <trkpt lat="44.62915" lon="-0.19257">
        <ele>73.5</ele>
        <time>2022-07-26T11:02:26Z</time>
      </trkpt>
      <trkpt lat="44.62914" lon="-0.19256">
        <ele>73.8</ele>
        <time>2022-07-26T11:02:27Z</time>
      </trkpt>
      <trkpt lat="44.62913" lon="-0.19252">
        <ele>73.8</ele>
        <time>2022-07-26T11:02:28Z</time>
      </trkpt>
      <trkpt lat="44.62913" lon="-0.19251">
        <ele>73.8</ele>
        <time>2022-07-26T11:02:29Z</time>
      </trkpt>
      <trkpt lat="44.62912" lon="-0.19248">
        <ele>73.8</ele>
        <time>2022-07-26T11:02:30Z</time>
      </trkpt>
      <trkpt lat="44.62911" lon="-0.19246">
        <ele>74.1</ele>
        <time>2022-07-26T11:02:32Z</time>
      </trkpt>
      <trkpt lat="44.6291" lon="-0.19245">
        <ele>74.1</ele>
        <time>2022-07-26T11:02:33Z</time>
      </trkpt>
      <trkpt lat="44.62909" lon="-0.19243">
        <ele>74.1</ele>
        <time>2022-07-26T11:02:34Z</time>
      </trkpt>
      <trkpt lat="44.62909" lon="-0.19242">
        <ele>74.1</ele>
        <time>2022-07-26T11:02:35Z</time>
      </trkpt>
      <trkpt lat="44.62908" lon="-0.19241">
        <ele>74.3</ele>
        <time>2022-07-26T11:02:36Z</time>
      </trkpt>
      <trkpt lat="44.62907" lon="-0.1924">
        <ele>74.3</ele>
        <time>2022-07-26T11:02:37Z</time>
      </trkpt>
      <trkpt lat="44.62906" lon="-0.19237">
        <ele>74.3</ele>
        <time>2022-07-26T11:02:38Z</time>
      </trkpt>
      <trkpt lat="44.62905" lon="-0.19235">
        <ele>74.5</ele>
        <time>2022-07-26T11:02:39Z</time>
      </trkpt>
      <trkpt lat="44.62905" lon="-0.19234">
        <ele>74.6</ele>
        <time>2022-07-26T11:02:40Z</time>
      </trkpt>
      <trkpt lat="44.62905" lon="-0.19233">
        <ele>74.6</ele>
        <time>2022-07-26T11:02:41Z</time>
      </trkpt>
      <trkpt lat="44.62904" lon="-0.19231">
        <ele>74.6</ele>
        <time>2022-07-26T11:02:42Z</time>
      </trkpt>
      <trkpt lat="44.62903" lon="-0.19228">
        <ele>74.6</ele>
        <time>2022-07-26T11:02:43Z</time>
      </trkpt>
      <trkpt lat="44.62903" lon="-0.19226">
        <ele>74.7</ele>
        <time>2022-07-26T11:02:44Z</time>
      </trkpt>
      <trkpt lat="44.62903" lon="-0.19225">
        <ele>74.7</ele>
        <time>2022-07-26T11:02:45Z</time>
      </trkpt>
      <trkpt lat="44.62902" lon="-0.19224">
        <ele>74.9</ele>
        <time>2022-07-26T11:02:46Z</time>
      </trkpt>
      <trkpt lat="44.62902" lon="-0.19222">
        <ele>74.9</ele>
        <time>2022-07-26T11:02:47Z</time>
      </trkpt>
      <trkpt lat="44.62901" lon="-0.1922">
        <ele>74.9</ele>
        <time>2022-07-26T11:02:48Z</time>
      </trkpt>
      <trkpt lat="44.62901" lon="-0.19219">
        <ele>74.9</ele>
        <time>2022-07-26T11:02:49Z</time>
      </trkpt>
      <trkpt lat="44.62901" lon="-0.19217">
        <ele>75</ele>
        <time>2022-07-26T11:02:50Z</time>
      </trkpt>
      <trkpt lat="44.629" lon="-0.19216">
        <ele>75</ele>
        <time>2022-07-26T11:02:51Z</time>
      </trkpt>
      <trkpt lat="44.629" lon="-0.19215">
        <ele>75</ele>
        <time>2022-07-26T11:02:52Z</time>
      </trkpt>
      <trkpt lat="44.629" lon="-0.19214">
        <ele>75</ele>
        <time>2022-07-26T11:02:53Z</time>
      </trkpt>
      <trkpt lat="44.62901" lon="-0.19213">
        <ele>75</ele>
        <time>2022-07-26T11:02:54Z</time>
      </trkpt>
      <trkpt lat="44.62902" lon="-0.19213">
        <ele>75</ele>
        <time>2022-07-26T11:02:55Z</time>
      </trkpt>
      <trkpt lat="44.62902" lon="-0.19213">
        <ele>75</ele>
        <time>2022-07-26T11:02:56Z</time>
      </trkpt>
      <trkpt lat="44.62902" lon="-0.19213">
        <ele>75</ele>
        <time>2022-07-26T11:02:57Z</time>
      </trkpt>
      <trkpt lat="44.62902" lon="-0.19213">
        <ele>75</ele>
        <time>2022-07-26T11:02:59Z</time>
      </trkpt>
      <trkpt lat="44.62902" lon="-0.19213">
        <ele>75</ele>
        <time>2022-07-26T11:03:00Z</time>
      </trkpt>
      <trkpt lat="44.62902" lon="-0.19213">
        <ele>75</ele>
        <time>2022-07-26T11:03:01Z</time>
      </trkpt>
      <trkpt lat="44.62902" lon="-0.19213">
        <ele>75</ele>
        <time>2022-07-26T11:03:02Z</time>
      </trkpt>
      <trkpt lat="44.62902" lon="-0.19213">
        <ele>75</ele>
        <time>2022-07-26T11:03:03Z</time>
      </trkpt>
      <trkpt lat="44.62902" lon="-0.19213">
        <ele>75</ele>
        <time>2022-07-26T11:03:04Z</time>
      </trkpt>
      <trkpt lat="44.62902" lon="-0.19213">
        <ele>75</ele>
        <time>2022-07-26T11:03:05Z</time>
      </trkpt>
      <trkpt lat="44.62901" lon="-0.19212">
        <ele>75</ele>
        <time>2022-07-26T11:03:06Z</time>
      </trkpt>
      <trkpt lat="44.629" lon="-0.1921">
        <ele>75</ele>
        <time>2022-07-26T11:03:07Z</time>
      </trkpt>
      <trkpt lat="44.62899" lon="-0.19207">
        <ele>75</ele>
        <time>2022-07-26T11:03:09Z</time>
      </trkpt>
      <trkpt lat="44.62899" lon="-0.19206">
        <ele>75.2</ele>
        <time>2022-07-26T11:03:10Z</time>
      </trkpt>
      <trkpt lat="44.62898" lon="-0.19204">
        <ele>75.2</ele>
        <time>2022-07-26T11:03:11Z</time>
      </trkpt>
      <trkpt lat="44.62897" lon="-0.19202">
        <ele>75.2</ele>
        <time>2022-07-26T11:03:12Z</time>
      </trkpt>
      <trkpt lat="44.62896" lon="-0.192">
        <ele>75.4</ele>
        <time>2022-07-26T11:03:13Z</time>
      </trkpt>
      <trkpt lat="44.62896" lon="-0.19198">
        <ele>75.4</ele>
        <time>2022-07-26T11:03:14Z</time>
      </trkpt>
      <trkpt lat="44.62895" lon="-0.19197">
        <ele>75.4</ele>
        <time>2022-07-26T11:03:15Z</time>
      </trkpt>
      <trkpt lat="44.62895" lon="-0.19195">
        <ele>75.5</ele>
        <time>2022-07-26T11:03:17Z</time>
      </trkpt>
      <trkpt lat="44.62894" lon="-0.19193">
        <ele>75.5</ele>
        <time>2022-07-26T11:03:18Z</time>
      </trkpt>
      <trkpt lat="44.62893" lon="-0.19191">
        <ele>75.5</ele>
        <time>2022-07-26T11:03:19Z</time>
      </trkpt>
      <trkpt lat="44.62893" lon="-0.19189">
        <ele>75.7</ele>
        <time>2022-07-26T11:03:20Z</time>
      </trkpt>
      <trkpt lat="44.62892" lon="-0.19188">
        <ele>75.7</ele>
        <time>2022-07-26T11:03:21Z</time>
      </trkpt>
      <trkpt lat="44.62892" lon="-0.19186">
        <ele>75.7</ele>
        <time>2022-07-26T11:03:22Z</time>
      </trkpt>
      <trkpt lat="44.62891" lon="-0.19184">
        <ele>75.7</ele>
        <time>2022-07-26T11:03:23Z</time>
      </trkpt>
      <trkpt lat="44.6289" lon="-0.19182">
        <ele>75.7</ele>
        <time>2022-07-26T11:03:24Z</time>
      </trkpt>
      <trkpt lat="44.6289" lon="-0.1918">
        <ele>75.9</ele>
        <time>2022-07-26T11:03:25Z</time>
      </trkpt>
      <trkpt lat="44.62889" lon="-0.19179">
        <ele>76</ele>
        <time>2022-07-26T11:03:26Z</time>
      </trkpt>
      <trkpt lat="44.62889" lon="-0.19178">
        <ele>76</ele>
        <time>2022-07-26T11:03:27Z</time>
      </trkpt>
      <trkpt lat="44.62887" lon="-0.19175">
        <ele>76</ele>
        <time>2022-07-26T11:03:28Z</time>
      </trkpt>
      <trkpt lat="44.62887" lon="-0.19174">
        <ele>76.2</ele>
        <time>2022-07-26T11:03:29Z</time>
      </trkpt>
      <trkpt lat="44.62886" lon="-0.19172">
        <ele>76.2</ele>
        <time>2022-07-26T11:03:30Z</time>
      </trkpt>
      <trkpt lat="44.62886" lon="-0.19171">
        <ele>76.2</ele>
        <time>2022-07-26T11:03:32Z</time>
      </trkpt>
      <trkpt lat="44.62885" lon="-0.19169">
        <ele>76.2</ele>
        <time>2022-07-26T11:03:33Z</time>
      </trkpt>
      <trkpt lat="44.62884" lon="-0.19166">
        <ele>76.4</ele>
        <time>2022-07-26T11:03:34Z</time>
      </trkpt>
      <trkpt lat="44.62883" lon="-0.19164">
        <ele>76.5</ele>
        <time>2022-07-26T11:03:35Z</time>
      </trkpt>
      <trkpt lat="44.62883" lon="-0.19163">
        <ele>76.5</ele>
        <time>2022-07-26T11:03:36Z</time>
      </trkpt>
      <trkpt lat="44.62883" lon="-0.19161">
        <ele>76.5</ele>
        <time>2022-07-26T11:03:37Z</time>
      </trkpt>
      <trkpt lat="44.62882" lon="-0.19159">
        <ele>76.5</ele>
        <time>2022-07-26T11:03:38Z</time>
      </trkpt>
      <trkpt lat="44.62881" lon="-0.19158">
        <ele>76.5</ele>
        <time>2022-07-26T11:03:39Z</time>
      </trkpt>
      <trkpt lat="44.62881" lon="-0.19156">
        <ele>76.5</ele>
        <time>2022-07-26T11:03:40Z</time>
      </trkpt>
      <trkpt lat="44.62881" lon="-0.19155">
        <ele>76.7</ele>
        <time>2022-07-26T11:03:41Z</time>
      </trkpt>
      <trkpt lat="44.62879" lon="-0.19152">
        <ele>76.8</ele>
        <time>2022-07-26T11:03:44Z</time>
      </trkpt>
      <trkpt lat="44.62879" lon="-0.1915">
        <ele>76.8</ele>
        <time>2022-07-26T11:03:45Z</time>
      </trkpt>
      <trkpt lat="44.62878" lon="-0.19149">
        <ele>76.9</ele>
        <time>2022-07-26T11:03:46Z</time>
      </trkpt>
      <trkpt lat="44.62878" lon="-0.19148">
        <ele>77.1</ele>
        <time>2022-07-26T11:03:47Z</time>
      </trkpt>
      <trkpt lat="44.62877" lon="-0.19146">
        <ele>77.1</ele>
        <time>2022-07-26T11:03:48Z</time>
      </trkpt>
      <trkpt lat="44.62877" lon="-0.19144">
        <ele>77.1</ele>
        <time>2022-07-26T11:03:49Z</time>
      </trkpt>
      <trkpt lat="44.62877" lon="-0.19143">
        <ele>77.1</ele>
        <time>2022-07-26T11:03:50Z</time>
      </trkpt>
      <trkpt lat="44.62876" lon="-0.19141">
        <ele>77.1</ele>
        <time>2022-07-26T11:03:52Z</time>
      </trkpt>
      <trkpt lat="44.62875" lon="-0.1914">
        <ele>77.2</ele>
        <time>2022-07-26T11:03:53Z</time>
      </trkpt>
      <trkpt lat="44.62874" lon="-0.19137">
        <ele>77.4</ele>
        <time>2022-07-26T11:03:54Z</time>
      </trkpt>
      <trkpt lat="44.62874" lon="-0.19136">
        <ele>77.5</ele>
        <time>2022-07-26T11:03:55Z</time>
      </trkpt>
      <trkpt lat="44.62874" lon="-0.19135">
        <ele>77.5</ele>
        <time>2022-07-26T11:03:56Z</time>
      </trkpt>
      <trkpt lat="44.62873" lon="-0.19133">
        <ele>77.5</ele>
        <time>2022-07-26T11:03:57Z</time>
      </trkpt>
      <trkpt lat="44.62873" lon="-0.19131">
        <ele>77.6</ele>
        <time>2022-07-26T11:03:58Z</time>
      </trkpt>
      <trkpt lat="44.62873" lon="-0.1913">
        <ele>77.6</ele>
        <time>2022-07-26T11:03:59Z</time>
      </trkpt>
      <trkpt lat="44.62871" lon="-0.19129">
        <ele>77.8</ele>
        <time>2022-07-26T11:04:00Z</time>
      </trkpt>
      <trkpt lat="44.62871" lon="-0.19128">
        <ele>77.8</ele>
        <time>2022-07-26T11:04:01Z</time>
      </trkpt>
      <trkpt lat="44.62871" lon="-0.19126">
        <ele>77.9</ele>
        <time>2022-07-26T11:04:03Z</time>
      </trkpt>
      <trkpt lat="44.6287" lon="-0.19125">
        <ele>77.9</ele>
        <time>2022-07-26T11:04:04Z</time>
      </trkpt>
      <trkpt lat="44.6287" lon="-0.19123">
        <ele>77.9</ele>
        <time>2022-07-26T11:04:05Z</time>
      </trkpt>
      <trkpt lat="44.6287" lon="-0.19122">
        <ele>78</ele>
        <time>2022-07-26T11:04:06Z</time>
      </trkpt>
      <trkpt lat="44.62869" lon="-0.19118">
        <ele>78.1</ele>
        <time>2022-07-26T11:04:07Z</time>
      </trkpt>
      <trkpt lat="44.62869" lon="-0.19117">
        <ele>78.1</ele>
        <time>2022-07-26T11:04:08Z</time>
      </trkpt>
      <trkpt lat="44.62869" lon="-0.19115">
        <ele>78.3</ele>
        <time>2022-07-26T11:04:09Z</time>
      </trkpt>
      <trkpt lat="44.62868" lon="-0.19113">
        <ele>78.4</ele>
        <time>2022-07-26T11:04:10Z</time>
      </trkpt>
      <trkpt lat="44.62867" lon="-0.19112">
        <ele>78.4</ele>
        <time>2022-07-26T11:04:12Z</time>
      </trkpt>
      <trkpt lat="44.62866" lon="-0.1911">
        <ele>78.5</ele>
        <time>2022-07-26T11:04:13Z</time>
      </trkpt>
      <trkpt lat="44.62865" lon="-0.19109">
        <ele>78.7</ele>
        <time>2022-07-26T11:04:14Z</time>
      </trkpt>
      <trkpt lat="44.62864" lon="-0.19107">
        <ele>78.7</ele>
        <time>2022-07-26T11:04:15Z</time>
      </trkpt>
      <trkpt lat="44.62863" lon="-0.19105">
        <ele>78.8</ele>
        <time>2022-07-26T11:04:17Z</time>
      </trkpt>
      <trkpt lat="44.62863" lon="-0.19103">
        <ele>78.9</ele>
        <time>2022-07-26T11:04:18Z</time>
      </trkpt>
      <trkpt lat="44.62862" lon="-0.19102">
        <ele>78.9</ele>
        <time>2022-07-26T11:04:19Z</time>
      </trkpt>
      <trkpt lat="44.62862" lon="-0.191">
        <ele>79</ele>
        <time>2022-07-26T11:04:20Z</time>
      </trkpt>
      <trkpt lat="44.62861" lon="-0.19099">
        <ele>79</ele>
        <time>2022-07-26T11:04:21Z</time>
      </trkpt>
      <trkpt lat="44.62861" lon="-0.19096">
        <ele>79.2</ele>
        <time>2022-07-26T11:04:22Z</time>
      </trkpt>
      <trkpt lat="44.6286" lon="-0.19095">
        <ele>79.2</ele>
        <time>2022-07-26T11:04:23Z</time>
      </trkpt>
      <trkpt lat="44.6286" lon="-0.19094">
        <ele>79.2</ele>
        <time>2022-07-26T11:04:24Z</time>
      </trkpt>
      <trkpt lat="44.6286" lon="-0.19092">
        <ele>79.4</ele>
        <time>2022-07-26T11:04:25Z</time>
      </trkpt>
      <trkpt lat="44.62859" lon="-0.1909">
        <ele>79.4</ele>
        <time>2022-07-26T11:04:27Z</time>
      </trkpt>
      <trkpt lat="44.62858" lon="-0.19088">
        <ele>79.5</ele>
        <time>2022-07-26T11:04:28Z</time>
      </trkpt>
      <trkpt lat="44.62858" lon="-0.19087">
        <ele>79.5</ele>
        <time>2022-07-26T11:04:29Z</time>
      </trkpt>
      <trkpt lat="44.62857" lon="-0.19084">
        <ele>79.6</ele>
        <time>2022-07-26T11:04:30Z</time>
      </trkpt>
      <trkpt lat="44.62856" lon="-0.19083">
        <ele>79.7</ele>
        <time>2022-07-26T11:04:31Z</time>
      </trkpt>
      <trkpt lat="44.62856" lon="-0.19082">
        <ele>79.7</ele>
        <time>2022-07-26T11:04:32Z</time>
      </trkpt>
      <trkpt lat="44.62855" lon="-0.19079">
        <ele>79.8</ele>
        <time>2022-07-26T11:04:33Z</time>
      </trkpt>
      <trkpt lat="44.62855" lon="-0.19078">
        <ele>79.8</ele>
        <time>2022-07-26T11:04:34Z</time>
      </trkpt>
      <trkpt lat="44.62854" lon="-0.19077">
        <ele>79.8</ele>
        <time>2022-07-26T11:04:35Z</time>
      </trkpt>
      <trkpt lat="44.62854" lon="-0.19075">
        <ele>79.9</ele>
        <time>2022-07-26T11:04:37Z</time>
      </trkpt>
      <trkpt lat="44.62853" lon="-0.19073">
        <ele>80</ele>
        <time>2022-07-26T11:04:38Z</time>
      </trkpt>
      <trkpt lat="44.62853" lon="-0.19072">
        <ele>80</ele>
        <time>2022-07-26T11:04:39Z</time>
      </trkpt>
      <trkpt lat="44.62854" lon="-0.19069">
        <ele>80</ele>
        <time>2022-07-26T11:04:41Z</time>
      </trkpt>
      <trkpt lat="44.62856" lon="-0.19068">
        <ele>80</ele>
        <time>2022-07-26T11:04:42Z</time>
      </trkpt>
      <trkpt lat="44.62857" lon="-0.19066">
        <ele>80</ele>
        <time>2022-07-26T11:04:43Z</time>
      </trkpt>
      <trkpt lat="44.62858" lon="-0.19066">
        <ele>80</ele>
        <time>2022-07-26T11:04:44Z</time>
      </trkpt>
      <trkpt lat="44.62859" lon="-0.19064">
        <ele>80</ele>
        <time>2022-07-26T11:04:45Z</time>
      </trkpt>
      <trkpt lat="44.6286" lon="-0.19063">
        <ele>79.9</ele>
        <time>2022-07-26T11:04:46Z</time>
      </trkpt>
      <trkpt lat="44.62861" lon="-0.19061">
        <ele>80</ele>
        <time>2022-07-26T11:04:47Z</time>
      </trkpt>
      <trkpt lat="44.62862" lon="-0.1906">
        <ele>80</ele>
        <time>2022-07-26T11:04:48Z</time>
      </trkpt>
      <trkpt lat="44.62863" lon="-0.1906">
        <ele>79.9</ele>
        <time>2022-07-26T11:04:50Z</time>
      </trkpt>
      <trkpt lat="44.62864" lon="-0.19059">
        <ele>80</ele>
        <time>2022-07-26T11:04:51Z</time>
      </trkpt>
      <trkpt lat="44.62864" lon="-0.19058">
        <ele>80</ele>
        <time>2022-07-26T11:04:52Z</time>
      </trkpt>
      <trkpt lat="44.62865" lon="-0.19057">
        <ele>80</ele>
        <time>2022-07-26T11:04:53Z</time>
      </trkpt>
      <trkpt lat="44.62866" lon="-0.19056">
        <ele>79.9</ele>
        <time>2022-07-26T11:04:54Z</time>
      </trkpt>
      <trkpt lat="44.62867" lon="-0.19056">
        <ele>79.9</ele>
        <time>2022-07-26T11:04:56Z</time>
      </trkpt>
      <trkpt lat="44.62869" lon="-0.19055">
        <ele>79.9</ele>
        <time>2022-07-26T11:04:57Z</time>
      </trkpt>
      <trkpt lat="44.6287" lon="-0.19055">
        <ele>79.8</ele>
        <time>2022-07-26T11:04:58Z</time>
      </trkpt>
      <trkpt lat="44.62871" lon="-0.19054">
        <ele>79.9</ele>
        <time>2022-07-26T11:04:59Z</time>
      </trkpt>
      <trkpt lat="44.62872" lon="-0.19054">
        <ele>79.8</ele>
        <time>2022-07-26T11:05:00Z</time>
      </trkpt>
      <trkpt lat="44.62873" lon="-0.19053">
        <ele>79.8</ele>
        <time>2022-07-26T11:05:01Z</time>
      </trkpt>
      <trkpt lat="44.62873" lon="-0.19053">
        <ele>79.8</ele>
        <time>2022-07-26T11:05:02Z</time>
      </trkpt>
      <trkpt lat="44.62874" lon="-0.19053">
        <ele>79.8</ele>
        <time>2022-07-26T11:05:03Z</time>
      </trkpt>
      <trkpt lat="44.62875" lon="-0.19053">
        <ele>79.7</ele>
        <time>2022-07-26T11:05:04Z</time>
      </trkpt>
      <trkpt lat="44.62877" lon="-0.19053">
        <ele>79.7</ele>
        <time>2022-07-26T11:05:05Z</time>
      </trkpt>
      <trkpt lat="44.62878" lon="-0.19052">
        <ele>79.6</ele>
        <time>2022-07-26T11:05:07Z</time>
      </trkpt>
      <trkpt lat="44.6288" lon="-0.19051">
        <ele>79.6</ele>
        <time>2022-07-26T11:05:08Z</time>
      </trkpt>
      <trkpt lat="44.6288" lon="-0.1905">
        <ele>79.6</ele>
        <time>2022-07-26T11:05:09Z</time>
      </trkpt>
      <trkpt lat="44.62882" lon="-0.19049">
        <ele>79.6</ele>
        <time>2022-07-26T11:05:11Z</time>
      </trkpt>
      <trkpt lat="44.62883" lon="-0.19048">
        <ele>79.6</ele>
        <time>2022-07-26T11:05:12Z</time>
      </trkpt>
      <trkpt lat="44.62885" lon="-0.19047">
        <ele>79.4</ele>
        <time>2022-07-26T11:05:13Z</time>
      </trkpt>
      <trkpt lat="44.62886" lon="-0.19046">
        <ele>79.4</ele>
        <time>2022-07-26T11:05:14Z</time>
      </trkpt>
      <trkpt lat="44.62887" lon="-0.19045">
        <ele>79.5</ele>
        <time>2022-07-26T11:05:15Z</time>
      </trkpt>
      <trkpt lat="44.62888" lon="-0.19044">
        <ele>79.3</ele>
        <time>2022-07-26T11:05:16Z</time>
      </trkpt>
      <trkpt lat="44.62891" lon="-0.19043">
        <ele>79.1</ele>
        <time>2022-07-26T11:05:18Z</time>
      </trkpt>
      <trkpt lat="44.62891" lon="-0.19042">
        <ele>79.1</ele>
        <time>2022-07-26T11:05:19Z</time>
      </trkpt>
      <trkpt lat="44.62892" lon="-0.19041">
        <ele>79.3</ele>
        <time>2022-07-26T11:05:20Z</time>
      </trkpt>
      <trkpt lat="44.62893" lon="-0.1904">
        <ele>79.1</ele>
        <time>2022-07-26T11:05:21Z</time>
      </trkpt>
      <trkpt lat="44.62895" lon="-0.19039">
        <ele>79.1</ele>
        <time>2022-07-26T11:05:23Z</time>
      </trkpt>
      <trkpt lat="44.62896" lon="-0.19038">
        <ele>79.1</ele>
        <time>2022-07-26T11:05:24Z</time>
      </trkpt>
      <trkpt lat="44.62898" lon="-0.19037">
        <ele>78.9</ele>
        <time>2022-07-26T11:05:26Z</time>
      </trkpt>
      <trkpt lat="44.62899" lon="-0.19036">
        <ele>78.9</ele>
        <time>2022-07-26T11:05:27Z</time>
      </trkpt>
      <trkpt lat="44.629" lon="-0.19035">
        <ele>78.7</ele>
        <time>2022-07-26T11:05:28Z</time>
      </trkpt>
      <trkpt lat="44.62901" lon="-0.19035">
        <ele>78.7</ele>
        <time>2022-07-26T11:05:29Z</time>
      </trkpt>
      <trkpt lat="44.62902" lon="-0.19034">
        <ele>78.7</ele>
        <time>2022-07-26T11:05:30Z</time>
      </trkpt>
      <trkpt lat="44.62903" lon="-0.19033">
        <ele>78.5</ele>
        <time>2022-07-26T11:05:31Z</time>
      </trkpt>
      <trkpt lat="44.62904" lon="-0.19032">
        <ele>78.6</ele>
        <time>2022-07-26T11:05:32Z</time>
      </trkpt>
      <trkpt lat="44.62905" lon="-0.19031">
        <ele>78.6</ele>
        <time>2022-07-26T11:05:34Z</time>
      </trkpt>
      <trkpt lat="44.62906" lon="-0.1903">
        <ele>78.4</ele>
        <time>2022-07-26T11:05:35Z</time>
      </trkpt>
      <trkpt lat="44.62907" lon="-0.19029">
        <ele>78.4</ele>
        <time>2022-07-26T11:05:36Z</time>
      </trkpt>
      <trkpt lat="44.62908" lon="-0.19028">
        <ele>78.5</ele>
        <time>2022-07-26T11:05:37Z</time>
      </trkpt>
      <trkpt lat="44.62909" lon="-0.19027">
        <ele>78.4</ele>
        <time>2022-07-26T11:05:38Z</time>
      </trkpt>
      <trkpt lat="44.6291" lon="-0.19026">
        <ele>78.4</ele>
        <time>2022-07-26T11:05:39Z</time>
      </trkpt>
      <trkpt lat="44.62911" lon="-0.19026">
        <ele>78.4</ele>
        <time>2022-07-26T11:05:40Z</time>
      </trkpt>
      <trkpt lat="44.62913" lon="-0.19024">
        <ele>78.3</ele>
        <time>2022-07-26T11:05:41Z</time>
      </trkpt>
      <trkpt lat="44.62914" lon="-0.19023">
        <ele>78.3</ele>
        <time>2022-07-26T11:05:42Z</time>
      </trkpt>
      <trkpt lat="44.62915" lon="-0.19023">
        <ele>78.1</ele>
        <time>2022-07-26T11:05:43Z</time>
      </trkpt>
      <trkpt lat="44.62916" lon="-0.19022">
        <ele>78.1</ele>
        <time>2022-07-26T11:05:44Z</time>
      </trkpt>
      <trkpt lat="44.62917" lon="-0.19021">
        <ele>78</ele>
        <time>2022-07-26T11:05:45Z</time>
      </trkpt>
      <trkpt lat="44.62919" lon="-0.19021">
        <ele>77.8</ele>
        <time>2022-07-26T11:05:47Z</time>
      </trkpt>
      <trkpt lat="44.62921" lon="-0.1902">
        <ele>77.6</ele>
        <time>2022-07-26T11:05:48Z</time>
      </trkpt>
      <trkpt lat="44.62922" lon="-0.1902">
        <ele>77.7</ele>
        <time>2022-07-26T11:05:49Z</time>
      </trkpt>
      <trkpt lat="44.62924" lon="-0.19018">
        <ele>77.5</ele>
        <time>2022-07-26T11:05:50Z</time>
      </trkpt>
      <trkpt lat="44.62925" lon="-0.19017">
        <ele>77.5</ele>
        <time>2022-07-26T11:05:52Z</time>
      </trkpt>
      <trkpt lat="44.62926" lon="-0.19016">
        <ele>77.5</ele>
        <time>2022-07-26T11:05:53Z</time>
      </trkpt>
      <trkpt lat="44.62927" lon="-0.19016">
        <ele>77.4</ele>
        <time>2022-07-26T11:05:54Z</time>
      </trkpt>
      <trkpt lat="44.62928" lon="-0.19015">
        <ele>77.4</ele>
        <time>2022-07-26T11:05:55Z</time>
      </trkpt>
      <trkpt lat="44.62931" lon="-0.19012">
        <ele>77.2</ele>
        <time>2022-07-26T11:05:57Z</time>
      </trkpt>
      <trkpt lat="44.62932" lon="-0.19012">
        <ele>77.2</ele>
        <time>2022-07-26T11:05:58Z</time>
      </trkpt>
      <trkpt lat="44.62932" lon="-0.19011">
        <ele>77.2</ele>
        <time>2022-07-26T11:05:59Z</time>
      </trkpt>
      <trkpt lat="44.62933" lon="-0.19009">
        <ele>77.1</ele>
        <time>2022-07-26T11:06:00Z</time>
      </trkpt>
      <trkpt lat="44.62935" lon="-0.19007">
        <ele>77.1</ele>
        <time>2022-07-26T11:06:02Z</time>
      </trkpt>
      <trkpt lat="44.62936" lon="-0.19005">
        <ele>77.1</ele>
        <time>2022-07-26T11:06:03Z</time>
      </trkpt>
      <trkpt lat="44.62936" lon="-0.19004">
        <ele>77.1</ele>
        <time>2022-07-26T11:06:04Z</time>
      </trkpt>
      <trkpt lat="44.62936" lon="-0.19001">
        <ele>77</ele>
        <time>2022-07-26T11:06:05Z</time>
      </trkpt>
      <trkpt lat="44.62936" lon="-0.19">
        <ele>77</ele>
        <time>2022-07-26T11:06:06Z</time>
      </trkpt>
      <trkpt lat="44.62936" lon="-0.18998">
        <ele>77.1</ele>
        <time>2022-07-26T11:06:07Z</time>
      </trkpt>
      <trkpt lat="44.62936" lon="-0.18996">
        <ele>77.1</ele>
        <time>2022-07-26T11:06:09Z</time>
      </trkpt>
      <trkpt lat="44.62936" lon="-0.18994">
        <ele>77.1</ele>
        <time>2022-07-26T11:06:10Z</time>
      </trkpt>
      <trkpt lat="44.62936" lon="-0.18992">
        <ele>77.3</ele>
        <time>2022-07-26T11:06:11Z</time>
      </trkpt>
      <trkpt lat="44.62935" lon="-0.18991">
        <ele>77.3</ele>
        <time>2022-07-26T11:06:12Z</time>
      </trkpt>
      <trkpt lat="44.62935" lon="-0.18988">
        <ele>77.3</ele>
        <time>2022-07-26T11:06:13Z</time>
      </trkpt>
      <trkpt lat="44.62934" lon="-0.18987">
        <ele>77.3</ele>
        <time>2022-07-26T11:06:14Z</time>
      </trkpt>
      <trkpt lat="44.62934" lon="-0.18986">
        <ele>77.4</ele>
        <time>2022-07-26T11:06:15Z</time>
      </trkpt>
      <trkpt lat="44.62933" lon="-0.18983">
        <ele>77.4</ele>
        <time>2022-07-26T11:06:16Z</time>
      </trkpt>
      <trkpt lat="44.62933" lon="-0.18981">
        <ele>77.6</ele>
        <time>2022-07-26T11:06:17Z</time>
      </trkpt>
      <trkpt lat="44.62932" lon="-0.1898">
        <ele>77.6</ele>
        <time>2022-07-26T11:06:18Z</time>
      </trkpt>
      <trkpt lat="44.62932" lon="-0.18979">
        <ele>77.6</ele>
        <time>2022-07-26T11:06:19Z</time>
      </trkpt>
      <trkpt lat="44.62932" lon="-0.18977">
        <ele>77.6</ele>
        <time>2022-07-26T11:06:21Z</time>
      </trkpt>
      <trkpt lat="44.62932" lon="-0.18976">
        <ele>77.7</ele>
        <time>2022-07-26T11:06:22Z</time>
      </trkpt>
      <trkpt lat="44.62932" lon="-0.18974">
        <ele>77.7</ele>
        <time>2022-07-26T11:06:23Z</time>
      </trkpt>
      <trkpt lat="44.62932" lon="-0.18974">
        <ele>77.7</ele>
        <time>2022-07-26T11:06:24Z</time>
      </trkpt>
      <trkpt lat="44.62931" lon="-0.18972">
        <ele>77.7</ele>
        <time>2022-07-26T11:06:26Z</time>
      </trkpt>
      <trkpt lat="44.62931" lon="-0.1897">
        <ele>77.7</ele>
        <time>2022-07-26T11:06:27Z</time>
      </trkpt>
      <trkpt lat="44.6293" lon="-0.18968">
        <ele>77.8</ele>
        <time>2022-07-26T11:06:28Z</time>
      </trkpt>
      <trkpt lat="44.6293" lon="-0.18966">
        <ele>77.8</ele>
        <time>2022-07-26T11:06:29Z</time>
      </trkpt>
      <trkpt lat="44.6293" lon="-0.18965">
        <ele>78</ele>
        <time>2022-07-26T11:06:30Z</time>
      </trkpt>
      <trkpt lat="44.62929" lon="-0.18963">
        <ele>78</ele>
        <time>2022-07-26T11:06:32Z</time>
      </trkpt>
      <trkpt lat="44.62929" lon="-0.18961">
        <ele>78</ele>
        <time>2022-07-26T11:06:33Z</time>
      </trkpt>
      <trkpt lat="44.62929" lon="-0.1896">
        <ele>78.1</ele>
        <time>2022-07-26T11:06:34Z</time>
      </trkpt>
      <trkpt lat="44.62928" lon="-0.18958">
        <ele>78.1</ele>
        <time>2022-07-26T11:06:35Z</time>
      </trkpt>
      <trkpt lat="44.62928" lon="-0.18955">
        <ele>78.1</ele>
        <time>2022-07-26T11:06:36Z</time>
      </trkpt>
      <trkpt lat="44.62927" lon="-0.18954">
        <ele>78.1</ele>
        <time>2022-07-26T11:06:37Z</time>
      </trkpt>
      <trkpt lat="44.62927" lon="-0.18953">
        <ele>78.1</ele>
        <time>2022-07-26T11:06:38Z</time>
      </trkpt>
      <trkpt lat="44.62927" lon="-0.18952">
        <ele>78.1</ele>
        <time>2022-07-26T11:06:39Z</time>
      </trkpt>
      <trkpt lat="44.62927" lon="-0.1895">
        <ele>78.2</ele>
        <time>2022-07-26T11:06:41Z</time>
      </trkpt>
      <trkpt lat="44.62927" lon="-0.18948">
        <ele>78.2</ele>
        <time>2022-07-26T11:06:42Z</time>
      </trkpt>
      <trkpt lat="44.62928" lon="-0.18945">
        <ele>78.2</ele>
        <time>2022-07-26T11:06:43Z</time>
      </trkpt>
      <trkpt lat="44.62929" lon="-0.18944">
        <ele>78.2</ele>
        <time>2022-07-26T11:06:45Z</time>
      </trkpt>
      <trkpt lat="44.6293" lon="-0.18944">
        <ele>78.2</ele>
        <time>2022-07-26T11:06:46Z</time>
      </trkpt>
      <trkpt lat="44.62931" lon="-0.18943">
        <ele>78.1</ele>
        <time>2022-07-26T11:06:47Z</time>
      </trkpt>
      <trkpt lat="44.62934" lon="-0.18943">
        <ele>77.9</ele>
        <time>2022-07-26T11:06:48Z</time>
      </trkpt>
      <trkpt lat="44.62935" lon="-0.18944">
        <ele>77.9</ele>
        <time>2022-07-26T11:06:49Z</time>
      </trkpt>
      <trkpt lat="44.62938" lon="-0.18944">
        <ele>77.7</ele>
        <time>2022-07-26T11:06:51Z</time>
      </trkpt>
      <trkpt lat="44.62939" lon="-0.18944">
        <ele>77.7</ele>
        <time>2022-07-26T11:06:52Z</time>
      </trkpt>
      <trkpt lat="44.62941" lon="-0.18943">
        <ele>77.5</ele>
        <time>2022-07-26T11:06:53Z</time>
      </trkpt>
      <trkpt lat="44.62941" lon="-0.18943">
        <ele>77.5</ele>
        <time>2022-07-26T11:06:54Z</time>
      </trkpt>
      <trkpt lat="44.62943" lon="-0.18942">
        <ele>77.4</ele>
        <time>2022-07-26T11:06:56Z</time>
      </trkpt>
      <trkpt lat="44.62945" lon="-0.18941">
        <ele>77.4</ele>
        <time>2022-07-26T11:06:57Z</time>
      </trkpt>
      <trkpt lat="44.62946" lon="-0.18941">
        <ele>77.2</ele>
        <time>2022-07-26T11:06:58Z</time>
      </trkpt>
      <trkpt lat="44.62947" lon="-0.1894">
        <ele>77.2</ele>
        <time>2022-07-26T11:06:59Z</time>
      </trkpt>
      <trkpt lat="44.62948" lon="-0.18939">
        <ele>77</ele>
        <time>2022-07-26T11:07:00Z</time>
      </trkpt>
      <trkpt lat="44.6295" lon="-0.18938">
        <ele>77</ele>
        <time>2022-07-26T11:07:02Z</time>
      </trkpt>
      <trkpt lat="44.62952" lon="-0.18937">
        <ele>76.9</ele>
        <time>2022-07-26T11:07:04Z</time>
      </trkpt>
      <trkpt lat="44.62953" lon="-0.18936">
        <ele>76.9</ele>
        <time>2022-07-26T11:07:05Z</time>
      </trkpt>
      <trkpt lat="44.62954" lon="-0.18935">
        <ele>76.9</ele>
        <time>2022-07-26T11:07:06Z</time>
      </trkpt>
      <trkpt lat="44.62955" lon="-0.18935">
        <ele>76.7</ele>
        <time>2022-07-26T11:07:07Z</time>
      </trkpt>
      <trkpt lat="44.62958" lon="-0.18934">
        <ele>76.5</ele>
        <time>2022-07-26T11:07:09Z</time>
      </trkpt>
      <trkpt lat="44.62958" lon="-0.18934">
        <ele>76.5</ele>
        <time>2022-07-26T11:07:10Z</time>
      </trkpt>
      <trkpt lat="44.6296" lon="-0.18933">
        <ele>76.5</ele>
        <time>2022-07-26T11:07:11Z</time>
      </trkpt>
      <trkpt lat="44.62961" lon="-0.18932">
        <ele>76.4</ele>
        <time>2022-07-26T11:07:12Z</time>
      </trkpt>
      <trkpt lat="44.62964" lon="-0.18931">
        <ele>76.2</ele>
        <time>2022-07-26T11:07:14Z</time>
      </trkpt>
      <trkpt lat="44.62965" lon="-0.1893">
        <ele>76.2</ele>
        <time>2022-07-26T11:07:15Z</time>
      </trkpt>
      <trkpt lat="44.62966" lon="-0.18929">
        <ele>76.3</ele>
        <time>2022-07-26T11:07:16Z</time>
      </trkpt>
      <trkpt lat="44.62968" lon="-0.18928">
        <ele>76.2</ele>
        <time>2022-07-26T11:07:17Z</time>
      </trkpt>
      <trkpt lat="44.6297" lon="-0.18928">
        <ele>76</ele>
        <time>2022-07-26T11:07:19Z</time>
      </trkpt>
      <trkpt lat="44.62971" lon="-0.18928">
        <ele>76</ele>
        <time>2022-07-26T11:07:20Z</time>
      </trkpt>
      <trkpt lat="44.62972" lon="-0.18927">
        <ele>76</ele>
        <time>2022-07-26T11:07:21Z</time>
      </trkpt>
      <trkpt lat="44.62974" lon="-0.18927">
        <ele>75.9</ele>
        <time>2022-07-26T11:07:22Z</time>
      </trkpt>
      <trkpt lat="44.62975" lon="-0.18927">
        <ele>75.9</ele>
        <time>2022-07-26T11:07:23Z</time>
      </trkpt>
      <trkpt lat="44.62977" lon="-0.18926">
        <ele>75.8</ele>
        <time>2022-07-26T11:07:24Z</time>
      </trkpt>
      <trkpt lat="44.62978" lon="-0.18926">
        <ele>75.8</ele>
        <time>2022-07-26T11:07:25Z</time>
      </trkpt>
      <trkpt lat="44.62978" lon="-0.18925">
        <ele>75.9</ele>
        <time>2022-07-26T11:07:26Z</time>
      </trkpt>
      <trkpt lat="44.6298" lon="-0.18925">
        <ele>75.8</ele>
        <time>2022-07-26T11:07:27Z</time>
      </trkpt>
      <trkpt lat="44.62981" lon="-0.18924">
        <ele>75.8</ele>
        <time>2022-07-26T11:07:28Z</time>
      </trkpt>
      <trkpt lat="44.62983" lon="-0.18923">
        <ele>75.7</ele>
        <time>2022-07-26T11:07:29Z</time>
      </trkpt>
      <trkpt lat="44.62984" lon="-0.18922">
        <ele>75.7</ele>
        <time>2022-07-26T11:07:30Z</time>
      </trkpt>
      <trkpt lat="44.62985" lon="-0.18922">
        <ele>75.6</ele>
        <time>2022-07-26T11:07:31Z</time>
      </trkpt>
      <trkpt lat="44.62986" lon="-0.18921">
        <ele>75.6</ele>
        <time>2022-07-26T11:07:32Z</time>
      </trkpt>
      <trkpt lat="44.62987" lon="-0.18921">
        <ele>75.8</ele>
        <time>2022-07-26T11:07:33Z</time>
      </trkpt>
      <trkpt lat="44.62989" lon="-0.1892">
        <ele>75.7</ele>
        <time>2022-07-26T11:07:34Z</time>
      </trkpt>
      <trkpt lat="44.6299" lon="-0.18919">
        <ele>75.7</ele>
        <time>2022-07-26T11:07:36Z</time>
      </trkpt>
      <trkpt lat="44.62992" lon="-0.18919">
        <ele>75.6</ele>
        <time>2022-07-26T11:07:37Z</time>
      </trkpt>
      <trkpt lat="44.62993" lon="-0.18918">
        <ele>75.6</ele>
        <time>2022-07-26T11:07:38Z</time>
      </trkpt>
      <trkpt lat="44.62995" lon="-0.18917">
        <ele>75.7</ele>
        <time>2022-07-26T11:07:39Z</time>
      </trkpt>
      <trkpt lat="44.62996" lon="-0.18916">
        <ele>75.7</ele>
        <time>2022-07-26T11:07:40Z</time>
      </trkpt>
      <trkpt lat="44.62997" lon="-0.18916">
        <ele>75.7</ele>
        <time>2022-07-26T11:07:41Z</time>
      </trkpt>
      <trkpt lat="44.62998" lon="-0.18915">
        <ele>75.6</ele>
        <time>2022-07-26T11:07:42Z</time>
      </trkpt>
      <trkpt lat="44.63" lon="-0.18914">
        <ele>75.6</ele>
        <time>2022-07-26T11:07:44Z</time>
      </trkpt>
      <trkpt lat="44.63001" lon="-0.18914">
        <ele>75.5</ele>
        <time>2022-07-26T11:07:45Z</time>
      </trkpt>
      <trkpt lat="44.63002" lon="-0.18913">
        <ele>75.5</ele>
        <time>2022-07-26T11:07:46Z</time>
      </trkpt>
      <trkpt lat="44.63004" lon="-0.18913">
        <ele>75.5</ele>
        <time>2022-07-26T11:07:47Z</time>
      </trkpt>
      <trkpt lat="44.63005" lon="-0.18912">
        <ele>75.5</ele>
        <time>2022-07-26T11:07:48Z</time>
      </trkpt>
      <trkpt lat="44.63007" lon="-0.18912">
        <ele>75.5</ele>
        <time>2022-07-26T11:07:49Z</time>
      </trkpt>
      <trkpt lat="44.63008" lon="-0.18912">
        <ele>75.5</ele>
        <time>2022-07-26T11:07:50Z</time>
      </trkpt>
      <trkpt lat="44.63009" lon="-0.18913">
        <ele>75.5</ele>
        <time>2022-07-26T11:07:51Z</time>
      </trkpt>
      <trkpt lat="44.6301" lon="-0.18913">
        <ele>75.3</ele>
        <time>2022-07-26T11:07:52Z</time>
      </trkpt>
      <trkpt lat="44.63011" lon="-0.18914">
        <ele>75.3</ele>
        <time>2022-07-26T11:07:53Z</time>
      </trkpt>
      <trkpt lat="44.63013" lon="-0.18916">
        <ele>75.2</ele>
        <time>2022-07-26T11:07:54Z</time>
      </trkpt>
      <trkpt lat="44.63014" lon="-0.18917">
        <ele>75.1</ele>
        <time>2022-07-26T11:07:55Z</time>
      </trkpt>
      <trkpt lat="44.63014" lon="-0.18919">
        <ele>75.1</ele>
        <time>2022-07-26T11:07:56Z</time>
      </trkpt>
      <trkpt lat="44.63014" lon="-0.18922">
        <ele>74.9</ele>
        <time>2022-07-26T11:07:58Z</time>
      </trkpt>
      <trkpt lat="44.63014" lon="-0.18926">
        <ele>74.8</ele>
        <time>2022-07-26T11:07:59Z</time>
      </trkpt>
      <trkpt lat="44.63013" lon="-0.18927">
        <ele>74.8</ele>
        <time>2022-07-26T11:08:00Z</time>
      </trkpt>
      <trkpt lat="44.63013" lon="-0.18929">
        <ele>74.8</ele>
        <time>2022-07-26T11:08:01Z</time>
      </trkpt>
      <trkpt lat="44.63013" lon="-0.1893">
        <ele>74.7</ele>
        <time>2022-07-26T11:08:02Z</time>
      </trkpt>
      <trkpt lat="44.63013" lon="-0.18932">
        <ele>74.7</ele>
        <time>2022-07-26T11:08:03Z</time>
      </trkpt>
      <trkpt lat="44.63012" lon="-0.18934">
        <ele>74.6</ele>
        <time>2022-07-26T11:08:04Z</time>
      </trkpt>
      <trkpt lat="44.63012" lon="-0.18936">
        <ele>74.6</ele>
        <time>2022-07-26T11:08:05Z</time>
      </trkpt>
      <trkpt lat="44.63011" lon="-0.18939">
        <ele>74.5</ele>
        <time>2022-07-26T11:08:06Z</time>
      </trkpt>
      <trkpt lat="44.63011" lon="-0.18941">
        <ele>74.5</ele>
        <time>2022-07-26T11:08:07Z</time>
      </trkpt>
      <trkpt lat="44.63011" lon="-0.18942">
        <ele>74.5</ele>
        <time>2022-07-26T11:08:08Z</time>
      </trkpt>
      <trkpt lat="44.63011" lon="-0.18944">
        <ele>74.4</ele>
        <time>2022-07-26T11:08:10Z</time>
      </trkpt>
      <trkpt lat="44.63012" lon="-0.18945">
        <ele>74.4</ele>
        <time>2022-07-26T11:08:11Z</time>
      </trkpt>
      <trkpt lat="44.63012" lon="-0.18947">
        <ele>74.4</ele>
        <time>2022-07-26T11:08:12Z</time>
      </trkpt>
      <trkpt lat="44.63012" lon="-0.18949">
        <ele>74.2</ele>
        <time>2022-07-26T11:08:13Z</time>
      </trkpt>
      <trkpt lat="44.63013" lon="-0.18952">
        <ele>74.1</ele>
        <time>2022-07-26T11:08:14Z</time>
      </trkpt>
      <trkpt lat="44.63013" lon="-0.18954">
        <ele>74.1</ele>
        <time>2022-07-26T11:08:16Z</time>
      </trkpt>
      <trkpt lat="44.63013" lon="-0.18956">
        <ele>74</ele>
        <time>2022-07-26T11:08:17Z</time>
      </trkpt>
      <trkpt lat="44.63013" lon="-0.18958">
        <ele>74</ele>
        <time>2022-07-26T11:08:18Z</time>
      </trkpt>
      <trkpt lat="44.63013" lon="-0.18959">
        <ele>74</ele>
        <time>2022-07-26T11:08:19Z</time>
      </trkpt>
      <trkpt lat="44.63014" lon="-0.18961">
        <ele>73.9</ele>
        <time>2022-07-26T11:08:20Z</time>
      </trkpt>
      <trkpt lat="44.63014" lon="-0.18963">
        <ele>73.9</ele>
        <time>2022-07-26T11:08:21Z</time>
      </trkpt>
      <trkpt lat="44.63014" lon="-0.18964">
        <ele>73.8</ele>
        <time>2022-07-26T11:08:22Z</time>
      </trkpt>
      <trkpt lat="44.63014" lon="-0.18967">
        <ele>73.8</ele>
        <time>2022-07-26T11:08:24Z</time>
      </trkpt>
      <trkpt lat="44.63014" lon="-0.1897">
        <ele>73.7</ele>
        <time>2022-07-26T11:08:25Z</time>
      </trkpt>
      <trkpt lat="44.63014" lon="-0.18971">
        <ele>73.7</ele>
        <time>2022-07-26T11:08:26Z</time>
      </trkpt>
      <trkpt lat="44.63014" lon="-0.18973">
        <ele>73.7</ele>
        <time>2022-07-26T11:08:27Z</time>
      </trkpt>
      <trkpt lat="44.63014" lon="-0.18975">
        <ele>73.6</ele>
        <time>2022-07-26T11:08:28Z</time>
      </trkpt>
      <trkpt lat="44.63015" lon="-0.18977">
        <ele>73.5</ele>
        <time>2022-07-26T11:08:30Z</time>
      </trkpt>
      <trkpt lat="44.63015" lon="-0.18979">
        <ele>73.5</ele>
        <time>2022-07-26T11:08:31Z</time>
      </trkpt>
      <trkpt lat="44.63015" lon="-0.18981">
        <ele>73.5</ele>
        <time>2022-07-26T11:08:32Z</time>
      </trkpt>
      <trkpt lat="44.63015" lon="-0.18983">
        <ele>73.4</ele>
        <time>2022-07-26T11:08:33Z</time>
      </trkpt>
      <trkpt lat="44.63015" lon="-0.18985">
        <ele>73.3</ele>
        <time>2022-07-26T11:08:34Z</time>
      </trkpt>
      <trkpt lat="44.63016" lon="-0.18987">
        <ele>73.2</ele>
        <time>2022-07-26T11:08:35Z</time>
      </trkpt>
      <trkpt lat="44.63016" lon="-0.18989">
        <ele>73.2</ele>
        <time>2022-07-26T11:08:36Z</time>
      </trkpt>
      <trkpt lat="44.63016" lon="-0.18991">
        <ele>73.1</ele>
        <time>2022-07-26T11:08:37Z</time>
      </trkpt>
      <trkpt lat="44.63017" lon="-0.18993">
        <ele>73.1</ele>
        <time>2022-07-26T11:08:38Z</time>
      </trkpt>
      <trkpt lat="44.63017" lon="-0.18997">
        <ele>73</ele>
        <time>2022-07-26T11:08:40Z</time>
      </trkpt>
      <trkpt lat="44.63017" lon="-0.18998">
        <ele>73</ele>
        <time>2022-07-26T11:08:41Z</time>
      </trkpt>
      <trkpt lat="44.63018" lon="-0.19001">
        <ele>72.9</ele>
        <time>2022-07-26T11:08:42Z</time>
      </trkpt>
      <trkpt lat="44.63018" lon="-0.19002">
        <ele>72.9</ele>
        <time>2022-07-26T11:08:43Z</time>
      </trkpt>
      <trkpt lat="44.63018" lon="-0.19004">
        <ele>72.8</ele>
        <time>2022-07-26T11:08:44Z</time>
      </trkpt>
      <trkpt lat="44.63018" lon="-0.19005">
        <ele>72.8</ele>
        <time>2022-07-26T11:08:45Z</time>
      </trkpt>
      <trkpt lat="44.63019" lon="-0.19007">
        <ele>72.7</ele>
        <time>2022-07-26T11:08:46Z</time>
      </trkpt>
      <trkpt lat="44.63019" lon="-0.19011">
        <ele>72.7</ele>
        <time>2022-07-26T11:08:48Z</time>
      </trkpt>
      <trkpt lat="44.6302" lon="-0.19012">
        <ele>72.6</ele>
        <time>2022-07-26T11:08:49Z</time>
      </trkpt>
      <trkpt lat="44.6302" lon="-0.19015">
        <ele>72.6</ele>
        <time>2022-07-26T11:08:51Z</time>
      </trkpt>
      <trkpt lat="44.6302" lon="-0.19017">
        <ele>72.5</ele>
        <time>2022-07-26T11:08:52Z</time>
      </trkpt>
      <trkpt lat="44.63021" lon="-0.19019">
        <ele>72.5</ele>
        <time>2022-07-26T11:08:53Z</time>
      </trkpt>
      <trkpt lat="44.63021" lon="-0.19021">
        <ele>72.5</ele>
        <time>2022-07-26T11:08:54Z</time>
      </trkpt>
      <trkpt lat="44.63022" lon="-0.19022">
        <ele>72.5</ele>
        <time>2022-07-26T11:08:55Z</time>
      </trkpt>
      <trkpt lat="44.63022" lon="-0.19024">
        <ele>72.5</ele>
        <time>2022-07-26T11:08:56Z</time>
      </trkpt>
      <trkpt lat="44.63024" lon="-0.19024">
        <ele>72.4</ele>
        <time>2022-07-26T11:08:57Z</time>
      </trkpt>
      <trkpt lat="44.63025" lon="-0.19025">
        <ele>72.4</ele>
        <time>2022-07-26T11:08:58Z</time>
      </trkpt>
      <trkpt lat="44.63026" lon="-0.19026">
        <ele>72.4</ele>
        <time>2022-07-26T11:09:00Z</time>
      </trkpt>
      <trkpt lat="44.63027" lon="-0.19026">
        <ele>72.4</ele>
        <time>2022-07-26T11:09:01Z</time>
      </trkpt>
      <trkpt lat="44.63028" lon="-0.19026">
        <ele>72.4</ele>
        <time>2022-07-26T11:09:02Z</time>
      </trkpt>
      <trkpt lat="44.63029" lon="-0.19025">
        <ele>72.4</ele>
        <time>2022-07-26T11:09:03Z</time>
      </trkpt>
      <trkpt lat="44.63029" lon="-0.19024">
        <ele>72.4</ele>
        <time>2022-07-26T11:09:04Z</time>
      </trkpt>
      <trkpt lat="44.6303" lon="-0.19023">
        <ele>72.4</ele>
        <time>2022-07-26T11:09:06Z</time>
      </trkpt>
      <trkpt lat="44.63031" lon="-0.19021">
        <ele>72.4</ele>
        <time>2022-07-26T11:09:07Z</time>
      </trkpt>
      <trkpt lat="44.63032" lon="-0.1902">
        <ele>72.4</ele>
        <time>2022-07-26T11:09:08Z</time>
      </trkpt>
      <trkpt lat="44.63034" lon="-0.19017">
        <ele>72.5</ele>
        <time>2022-07-26T11:09:09Z</time>
      </trkpt>
      <trkpt lat="44.63035" lon="-0.19016">
        <ele>72.5</ele>
        <time>2022-07-26T11:09:10Z</time>
      </trkpt>
      <trkpt lat="44.63036" lon="-0.19014">
        <ele>72.5</ele>
        <time>2022-07-26T11:09:12Z</time>
      </trkpt>
      <trkpt lat="44.63037" lon="-0.19013">
        <ele>72.5</ele>
        <time>2022-07-26T11:09:13Z</time>
      </trkpt>
      <trkpt lat="44.63039" lon="-0.1901">
        <ele>72.6</ele>
        <time>2022-07-26T11:09:15Z</time>
      </trkpt>
      <trkpt lat="44.6304" lon="-0.19008">
        <ele>72.5</ele>
        <time>2022-07-26T11:09:16Z</time>
      </trkpt>
      <trkpt lat="44.63041" lon="-0.19007">
        <ele>72.6</ele>
        <time>2022-07-26T11:09:17Z</time>
      </trkpt>
      <trkpt lat="44.63041" lon="-0.19006">
        <ele>72.6</ele>
        <time>2022-07-26T11:09:18Z</time>
      </trkpt>
      <trkpt lat="44.63042" lon="-0.19004">
        <ele>72.6</ele>
        <time>2022-07-26T11:09:19Z</time>
      </trkpt>
      <trkpt lat="44.63043" lon="-0.19003">
        <ele>72.6</ele>
        <time>2022-07-26T11:09:20Z</time>
      </trkpt>
      <trkpt lat="44.63044" lon="-0.19001">
        <ele>72.7</ele>
        <time>2022-07-26T11:09:21Z</time>
      </trkpt>
      <trkpt lat="44.63045" lon="-0.19">
        <ele>72.7</ele>
        <time>2022-07-26T11:09:22Z</time>
      </trkpt>
      <trkpt lat="44.63046" lon="-0.18999">
        <ele>72.7</ele>
        <time>2022-07-26T11:09:23Z</time>
      </trkpt>
      <trkpt lat="44.63047" lon="-0.18997">
        <ele>72.7</ele>
        <time>2022-07-26T11:09:24Z</time>
      </trkpt>
      <trkpt lat="44.63048" lon="-0.18996">
        <ele>72.7</ele>
        <time>2022-07-26T11:09:26Z</time>
      </trkpt>
      <trkpt lat="44.63048" lon="-0.18995">
        <ele>72.7</ele>
        <time>2022-07-26T11:09:27Z</time>
      </trkpt>
      <trkpt lat="44.6305" lon="-0.18994">
        <ele>72.8</ele>
        <time>2022-07-26T11:09:28Z</time>
      </trkpt>
      <trkpt lat="44.63051" lon="-0.18993">
        <ele>72.8</ele>
        <time>2022-07-26T11:09:29Z</time>
      </trkpt>
      <trkpt lat="44.63051" lon="-0.18992">
        <ele>72.8</ele>
        <time>2022-07-26T11:09:30Z</time>
      </trkpt>
      <trkpt lat="44.63052" lon="-0.18991">
        <ele>72.8</ele>
        <time>2022-07-26T11:09:31Z</time>
      </trkpt>
      <trkpt lat="44.63053" lon="-0.1899">
        <ele>72.8</ele>
        <time>2022-07-26T11:09:32Z</time>
      </trkpt>
      <trkpt lat="44.63054" lon="-0.18989">
        <ele>72.8</ele>
        <time>2022-07-26T11:09:33Z</time>
      </trkpt>
      <trkpt lat="44.63055" lon="-0.18988">
        <ele>72.8</ele>
        <time>2022-07-26T11:09:34Z</time>
      </trkpt>
      <trkpt lat="44.63057" lon="-0.18986">
        <ele>72.8</ele>
        <time>2022-07-26T11:09:35Z</time>
      </trkpt>
      <trkpt lat="44.63057" lon="-0.18985">
        <ele>72.9</ele>
        <time>2022-07-26T11:09:36Z</time>
      </trkpt>
      <trkpt lat="44.63058" lon="-0.18984">
        <ele>72.9</ele>
        <time>2022-07-26T11:09:37Z</time>
      </trkpt>
      <trkpt lat="44.63059" lon="-0.18983">
        <ele>72.9</ele>
        <time>2022-07-26T11:09:39Z</time>
      </trkpt>
      <trkpt lat="44.63061" lon="-0.18981">
        <ele>72.9</ele>
        <time>2022-07-26T11:09:40Z</time>
      </trkpt>
      <trkpt lat="44.63062" lon="-0.1898">
        <ele>72.9</ele>
        <time>2022-07-26T11:09:41Z</time>
      </trkpt>
      <trkpt lat="44.63063" lon="-0.18978">
        <ele>72.9</ele>
        <time>2022-07-26T11:09:43Z</time>
      </trkpt>
      <trkpt lat="44.63064" lon="-0.18977">
        <ele>73</ele>
        <time>2022-07-26T11:09:44Z</time>
      </trkpt>
      <trkpt lat="44.63065" lon="-0.18976">
        <ele>73</ele>
        <time>2022-07-26T11:09:45Z</time>
      </trkpt>
      <trkpt lat="44.63066" lon="-0.18975">
        <ele>73</ele>
        <time>2022-07-26T11:09:46Z</time>
      </trkpt>
      <trkpt lat="44.63066" lon="-0.18974">
        <ele>73</ele>
        <time>2022-07-26T11:09:47Z</time>
      </trkpt>
      <trkpt lat="44.63068" lon="-0.18973">
        <ele>73</ele>
        <time>2022-07-26T11:09:49Z</time>
      </trkpt>
      <trkpt lat="44.63069" lon="-0.18971">
        <ele>73.1</ele>
        <time>2022-07-26T11:09:50Z</time>
      </trkpt>
      <trkpt lat="44.6307" lon="-0.18971">
        <ele>73.1</ele>
        <time>2022-07-26T11:09:51Z</time>
      </trkpt>
      <trkpt lat="44.63071" lon="-0.1897">
        <ele>73.1</ele>
        <time>2022-07-26T11:09:52Z</time>
      </trkpt>
      <trkpt lat="44.63072" lon="-0.18969">
        <ele>73.1</ele>
        <time>2022-07-26T11:09:53Z</time>
      </trkpt>
      <trkpt lat="44.63073" lon="-0.18968">
        <ele>73.2</ele>
        <time>2022-07-26T11:09:54Z</time>
      </trkpt>
      <trkpt lat="44.63074" lon="-0.18967">
        <ele>73.2</ele>
        <time>2022-07-26T11:09:55Z</time>
      </trkpt>
      <trkpt lat="44.63075" lon="-0.18967">
        <ele>73.2</ele>
        <time>2022-07-26T11:09:56Z</time>
      </trkpt>
      <trkpt lat="44.63076" lon="-0.18966">
        <ele>73.2</ele>
        <time>2022-07-26T11:09:57Z</time>
      </trkpt>
      <trkpt lat="44.63078" lon="-0.18964">
        <ele>73.3</ele>
        <time>2022-07-26T11:09:59Z</time>
      </trkpt>
      <trkpt lat="44.63078" lon="-0.18963">
        <ele>73.3</ele>
        <time>2022-07-26T11:10:00Z</time>
      </trkpt>
      <trkpt lat="44.63079" lon="-0.18962">
        <ele>73.3</ele>
        <time>2022-07-26T11:10:01Z</time>
      </trkpt>
      <trkpt lat="44.6308" lon="-0.18961">
        <ele>73.3</ele>
        <time>2022-07-26T11:10:02Z</time>
      </trkpt>
      <trkpt lat="44.63081" lon="-0.1896">
        <ele>73.3</ele>
        <time>2022-07-26T11:10:03Z</time>
      </trkpt>
      <trkpt lat="44.63082" lon="-0.18959">
        <ele>73.3</ele>
        <time>2022-07-26T11:10:04Z</time>
      </trkpt>
      <trkpt lat="44.63084" lon="-0.18958">
        <ele>73.4</ele>
        <time>2022-07-26T11:10:06Z</time>
      </trkpt>
      <trkpt lat="44.63085" lon="-0.18956">
        <ele>73.4</ele>
        <time>2022-07-26T11:10:07Z</time>
      </trkpt>
      <trkpt lat="44.63086" lon="-0.18954">
        <ele>73.4</ele>
        <time>2022-07-26T11:10:08Z</time>
      </trkpt>
      <trkpt lat="44.63087" lon="-0.18953">
        <ele>73.4</ele>
        <time>2022-07-26T11:10:09Z</time>
      </trkpt>
      <trkpt lat="44.63088" lon="-0.18952">
        <ele>73.4</ele>
        <time>2022-07-26T11:10:10Z</time>
      </trkpt>
      <trkpt lat="44.63089" lon="-0.18952">
        <ele>73.5</ele>
        <time>2022-07-26T11:10:11Z</time>
      </trkpt>
      <trkpt lat="44.6309" lon="-0.18951">
        <ele>73.5</ele>
        <time>2022-07-26T11:10:13Z</time>
      </trkpt>
      <trkpt lat="44.63091" lon="-0.1895">
        <ele>73.5</ele>
        <time>2022-07-26T11:10:14Z</time>
      </trkpt>
      <trkpt lat="44.63093" lon="-0.18947">
        <ele>73.6</ele>
        <time>2022-07-26T11:10:15Z</time>
      </trkpt>
      <trkpt lat="44.63094" lon="-0.18946">
        <ele>73.6</ele>
        <time>2022-07-26T11:10:17Z</time>
      </trkpt>
      <trkpt lat="44.63095" lon="-0.18945">
        <ele>73.6</ele>
        <time>2022-07-26T11:10:18Z</time>
      </trkpt>
      <trkpt lat="44.63096" lon="-0.18944">
        <ele>73.6</ele>
        <time>2022-07-26T11:10:19Z</time>
      </trkpt>
      <trkpt lat="44.63096" lon="-0.18943">
        <ele>73.6</ele>
        <time>2022-07-26T11:10:20Z</time>
      </trkpt>
      <trkpt lat="44.63097" lon="-0.18942">
        <ele>73.6</ele>
        <time>2022-07-26T11:10:21Z</time>
      </trkpt>
      <trkpt lat="44.63097" lon="-0.18942">
        <ele>73.6</ele>
        <time>2022-07-26T11:10:22Z</time>
      </trkpt>
      <trkpt lat="44.63096" lon="-0.18941">
        <ele>73.6</ele>
        <time>2022-07-26T11:10:23Z</time>
      </trkpt>
      <trkpt lat="44.63097" lon="-0.1894">
        <ele>73.6</ele>
        <time>2022-07-26T11:10:24Z</time>
      </trkpt>
      <trkpt lat="44.63098" lon="-0.18938">
        <ele>73.7</ele>
        <time>2022-07-26T11:10:26Z</time>
      </trkpt>
      <trkpt lat="44.63099" lon="-0.18938">
        <ele>73.7</ele>
        <time>2022-07-26T11:10:27Z</time>
      </trkpt>
      <trkpt lat="44.631" lon="-0.18938">
        <ele>73.7</ele>
        <time>2022-07-26T11:10:28Z</time>
      </trkpt>
      <trkpt lat="44.63101" lon="-0.18938">
        <ele>73.6</ele>
        <time>2022-07-26T11:10:29Z</time>
      </trkpt>
      <trkpt lat="44.63102" lon="-0.1894">
        <ele>73.6</ele>
        <time>2022-07-26T11:10:30Z</time>
      </trkpt>
      <trkpt lat="44.63103" lon="-0.18941">
        <ele>73.6</ele>
        <time>2022-07-26T11:10:31Z</time>
      </trkpt>
      <trkpt lat="44.63103" lon="-0.18943">
        <ele>73.6</ele>
        <time>2022-07-26T11:10:32Z</time>
      </trkpt>
      <trkpt lat="44.63104" lon="-0.18945">
        <ele>73.6</ele>
        <time>2022-07-26T11:10:33Z</time>
      </trkpt>
      <trkpt lat="44.63104" lon="-0.18947">
        <ele>73.6</ele>
        <time>2022-07-26T11:10:35Z</time>
      </trkpt>
      <trkpt lat="44.63105" lon="-0.18949">
        <ele>73.6</ele>
        <time>2022-07-26T11:10:36Z</time>
      </trkpt>
      <trkpt lat="44.63105" lon="-0.1895">
        <ele>73.6</ele>
        <time>2022-07-26T11:10:37Z</time>
      </trkpt>
      <trkpt lat="44.63106" lon="-0.18952">
        <ele>73.6</ele>
        <time>2022-07-26T11:10:38Z</time>
      </trkpt>
      <trkpt lat="44.63107" lon="-0.18953">
        <ele>73.6</ele>
        <time>2022-07-26T11:10:39Z</time>
      </trkpt>
      <trkpt lat="44.63108" lon="-0.18956">
        <ele>73.6</ele>
        <time>2022-07-26T11:10:40Z</time>
      </trkpt>
      <trkpt lat="44.63108" lon="-0.18958">
        <ele>73.6</ele>
        <time>2022-07-26T11:10:42Z</time>
      </trkpt>
      <trkpt lat="44.63109" lon="-0.1896">
        <ele>73.6</ele>
        <time>2022-07-26T11:10:43Z</time>
      </trkpt>
      <trkpt lat="44.63109" lon="-0.18961">
        <ele>73.5</ele>
        <time>2022-07-26T11:10:44Z</time>
      </trkpt>
      <trkpt lat="44.63109" lon="-0.18963">
        <ele>73.5</ele>
        <time>2022-07-26T11:10:45Z</time>
      </trkpt>
      <trkpt lat="44.6311" lon="-0.18966">
        <ele>73.5</ele>
        <time>2022-07-26T11:10:46Z</time>
      </trkpt>
      <trkpt lat="44.63111" lon="-0.18967">
        <ele>73.5</ele>
        <time>2022-07-26T11:10:47Z</time>
      </trkpt>
      <trkpt lat="44.63112" lon="-0.18969">
        <ele>73.5</ele>
        <time>2022-07-26T11:10:49Z</time>
      </trkpt>
      <trkpt lat="44.63113" lon="-0.18971">
        <ele>73.5</ele>
        <time>2022-07-26T11:10:50Z</time>
      </trkpt>
      <trkpt lat="44.63114" lon="-0.18973">
        <ele>73.5</ele>
        <time>2022-07-26T11:10:51Z</time>
      </trkpt>
      <trkpt lat="44.63114" lon="-0.18974">
        <ele>73.5</ele>
        <time>2022-07-26T11:10:52Z</time>
      </trkpt>
      <trkpt lat="44.63116" lon="-0.18976">
        <ele>73.5</ele>
        <time>2022-07-26T11:10:53Z</time>
      </trkpt>
      <trkpt lat="44.63116" lon="-0.18977">
        <ele>73.5</ele>
        <time>2022-07-26T11:10:54Z</time>
      </trkpt>
      <trkpt lat="44.63117" lon="-0.18978">
        <ele>73.5</ele>
        <time>2022-07-26T11:10:55Z</time>
      </trkpt>
      <trkpt lat="44.63118" lon="-0.18981">
        <ele>73.5</ele>
        <time>2022-07-26T11:10:56Z</time>
      </trkpt>
      <trkpt lat="44.63118" lon="-0.18982">
        <ele>73.5</ele>
        <time>2022-07-26T11:10:57Z</time>
      </trkpt>
      <trkpt lat="44.63119" lon="-0.18983">
        <ele>73.5</ele>
        <time>2022-07-26T11:10:58Z</time>
      </trkpt>
      <trkpt lat="44.63119" lon="-0.18984">
        <ele>73.5</ele>
        <time>2022-07-26T11:10:59Z</time>
      </trkpt>
      <trkpt lat="44.6312" lon="-0.18986">
        <ele>73.5</ele>
        <time>2022-07-26T11:11:00Z</time>
      </trkpt>
      <trkpt lat="44.63121" lon="-0.18988">
        <ele>73.5</ele>
        <time>2022-07-26T11:11:01Z</time>
      </trkpt>
      <trkpt lat="44.63121" lon="-0.1899">
        <ele>73.5</ele>
        <time>2022-07-26T11:11:02Z</time>
      </trkpt>
      <trkpt lat="44.63122" lon="-0.18992">
        <ele>73.6</ele>
        <time>2022-07-26T11:11:04Z</time>
      </trkpt>
      <trkpt lat="44.63123" lon="-0.18993">
        <ele>73.6</ele>
        <time>2022-07-26T11:11:05Z</time>
      </trkpt>
      <trkpt lat="44.63125" lon="-0.18994">
        <ele>73.6</ele>
        <time>2022-07-26T11:11:06Z</time>
      </trkpt>
      <trkpt lat="44.63126" lon="-0.18994">
        <ele>73.6</ele>
        <time>2022-07-26T11:11:07Z</time>
      </trkpt>
      <trkpt lat="44.63127" lon="-0.18994">
        <ele>73.6</ele>
        <time>2022-07-26T11:11:09Z</time>
      </trkpt>
      <trkpt lat="44.6313" lon="-0.18995">
        <ele>73.7</ele>
        <time>2022-07-26T11:11:10Z</time>
      </trkpt>
      <trkpt lat="44.63132" lon="-0.18995">
        <ele>73.8</ele>
        <time>2022-07-26T11:11:11Z</time>
      </trkpt>
      <trkpt lat="44.63134" lon="-0.18995">
        <ele>73.8</ele>
        <time>2022-07-26T11:11:12Z</time>
      </trkpt>
      <trkpt lat="44.63135" lon="-0.18994">
        <ele>73.8</ele>
        <time>2022-07-26T11:11:13Z</time>
      </trkpt>
      <trkpt lat="44.63135" lon="-0.18994">
        <ele>73.8</ele>
        <time>2022-07-26T11:11:14Z</time>
      </trkpt>
      <trkpt lat="44.63138" lon="-0.18992">
        <ele>73.8</ele>
        <time>2022-07-26T11:11:16Z</time>
      </trkpt>
      <trkpt lat="44.63139" lon="-0.18991">
        <ele>73.8</ele>
        <time>2022-07-26T11:11:17Z</time>
      </trkpt>
      <trkpt lat="44.63139" lon="-0.18991">
        <ele>73.8</ele>
        <time>2022-07-26T11:11:18Z</time>
      </trkpt>
      <trkpt lat="44.63141" lon="-0.1899">
        <ele>73.7</ele>
        <time>2022-07-26T11:11:19Z</time>
      </trkpt>
      <trkpt lat="44.63142" lon="-0.18989">
        <ele>73.7</ele>
        <time>2022-07-26T11:11:20Z</time>
      </trkpt>
      <trkpt lat="44.63143" lon="-0.18989">
        <ele>73.7</ele>
        <time>2022-07-26T11:11:21Z</time>
      </trkpt>
      <trkpt lat="44.63144" lon="-0.18988">
        <ele>73.6</ele>
        <time>2022-07-26T11:11:23Z</time>
      </trkpt>
      <trkpt lat="44.63146" lon="-0.18987">
        <ele>73.6</ele>
        <time>2022-07-26T11:11:24Z</time>
      </trkpt>
      <trkpt lat="44.63147" lon="-0.18985">
        <ele>73.4</ele>
        <time>2022-07-26T11:11:25Z</time>
      </trkpt>
      <trkpt lat="44.63149" lon="-0.18984">
        <ele>73.3</ele>
        <time>2022-07-26T11:11:26Z</time>
      </trkpt>
      <trkpt lat="44.63149" lon="-0.18984">
        <ele>73.3</ele>
        <time>2022-07-26T11:11:27Z</time>
      </trkpt>
      <trkpt lat="44.6315" lon="-0.18983">
        <ele>73.2</ele>
        <time>2022-07-26T11:11:28Z</time>
      </trkpt>
      <trkpt lat="44.63151" lon="-0.18982">
        <ele>73.2</ele>
        <time>2022-07-26T11:11:29Z</time>
      </trkpt>
      <trkpt lat="44.63152" lon="-0.18981">
        <ele>73</ele>
        <time>2022-07-26T11:11:30Z</time>
      </trkpt>
      <trkpt lat="44.63153" lon="-0.1898">
        <ele>72.8</ele>
        <time>2022-07-26T11:11:31Z</time>
      </trkpt>
      <trkpt lat="44.63154" lon="-0.1898">
        <ele>72.8</ele>
        <time>2022-07-26T11:11:32Z</time>
      </trkpt>
      <trkpt lat="44.63155" lon="-0.18978">
        <ele>72.8</ele>
        <time>2022-07-26T11:11:33Z</time>
      </trkpt>
      <trkpt lat="44.63156" lon="-0.18977">
        <ele>72.4</ele>
        <time>2022-07-26T11:11:34Z</time>
      </trkpt>
      <trkpt lat="44.63158" lon="-0.18975">
        <ele>72.4</ele>
        <time>2022-07-26T11:11:36Z</time>
      </trkpt>
      <trkpt lat="44.63159" lon="-0.18974">
        <ele>72</ele>
        <time>2022-07-26T11:11:37Z</time>
      </trkpt>
      <trkpt lat="44.6316" lon="-0.18973">
        <ele>72</ele>
        <time>2022-07-26T11:11:38Z</time>
      </trkpt>
      <trkpt lat="44.63161" lon="-0.18972">
        <ele>71.9</ele>
        <time>2022-07-26T11:11:39Z</time>
      </trkpt>
      <trkpt lat="44.63162" lon="-0.1897">
        <ele>71.5</ele>
        <time>2022-07-26T11:11:40Z</time>
      </trkpt>
      <trkpt lat="44.63163" lon="-0.18968">
        <ele>71.4</ele>
        <time>2022-07-26T11:11:41Z</time>
      </trkpt>
      <trkpt lat="44.63164" lon="-0.18967">
        <ele>71.4</ele>
        <time>2022-07-26T11:11:42Z</time>
      </trkpt>
      <trkpt lat="44.63165" lon="-0.18966">
        <ele>71</ele>
        <time>2022-07-26T11:11:43Z</time>
      </trkpt>
      <trkpt lat="44.63166" lon="-0.18966">
        <ele>71</ele>
        <time>2022-07-26T11:11:45Z</time>
      </trkpt>
      <trkpt lat="44.63168" lon="-0.18965">
        <ele>70.7</ele>
        <time>2022-07-26T11:11:46Z</time>
      </trkpt>
      <trkpt lat="44.63169" lon="-0.18965">
        <ele>70.7</ele>
        <time>2022-07-26T11:11:47Z</time>
      </trkpt>
      <trkpt lat="44.63171" lon="-0.18965">
        <ele>70.7</ele>
        <time>2022-07-26T11:11:48Z</time>
      </trkpt>
      <trkpt lat="44.63172" lon="-0.18966">
        <ele>70.4</ele>
        <time>2022-07-26T11:11:49Z</time>
      </trkpt>
      <trkpt lat="44.63173" lon="-0.18966">
        <ele>70.4</ele>
        <time>2022-07-26T11:11:50Z</time>
      </trkpt>
      <trkpt lat="44.63174" lon="-0.18966">
        <ele>70.1</ele>
        <time>2022-07-26T11:11:51Z</time>
      </trkpt>
      <trkpt lat="44.63175" lon="-0.18967">
        <ele>70.1</ele>
        <time>2022-07-26T11:11:52Z</time>
      </trkpt>
      <trkpt lat="44.63176" lon="-0.18967">
        <ele>70.1</ele>
        <time>2022-07-26T11:11:53Z</time>
      </trkpt>
      <trkpt lat="44.63176" lon="-0.18966">
        <ele>70.1</ele>
        <time>2022-07-26T11:11:54Z</time>
      </trkpt>
      <trkpt lat="44.63177" lon="-0.18965">
        <ele>69.8</ele>
        <time>2022-07-26T11:11:55Z</time>
      </trkpt>
      <trkpt lat="44.63178" lon="-0.18963">
        <ele>69.7</ele>
        <time>2022-07-26T11:11:56Z</time>
      </trkpt>
      <trkpt lat="44.63178" lon="-0.18961">
        <ele>69.7</ele>
        <time>2022-07-26T11:11:58Z</time>
      </trkpt>
      <trkpt lat="44.63178" lon="-0.18959">
        <ele>69.7</ele>
        <time>2022-07-26T11:11:59Z</time>
      </trkpt>
      <trkpt lat="44.63178" lon="-0.18958">
        <ele>69.7</ele>
        <time>2022-07-26T11:12:00Z</time>
      </trkpt>
      <trkpt lat="44.63179" lon="-0.18956">
        <ele>69.7</ele>
        <time>2022-07-26T11:12:01Z</time>
      </trkpt>
      <trkpt lat="44.6318" lon="-0.18955">
        <ele>69.6</ele>
        <time>2022-07-26T11:12:02Z</time>
      </trkpt>
      <trkpt lat="44.6318" lon="-0.18955">
        <ele>69.4</ele>
        <time>2022-07-26T11:12:03Z</time>
      </trkpt>
      <trkpt lat="44.63181" lon="-0.18954">
        <ele>69.4</ele>
        <time>2022-07-26T11:12:04Z</time>
      </trkpt>
      <trkpt lat="44.63182" lon="-0.18953">
        <ele>69.4</ele>
        <time>2022-07-26T11:12:05Z</time>
      </trkpt>
      <trkpt lat="44.63185" lon="-0.18952">
        <ele>69.2</ele>
        <time>2022-07-26T11:12:06Z</time>
      </trkpt>
      <trkpt lat="44.63186" lon="-0.18952">
        <ele>69.2</ele>
        <time>2022-07-26T11:12:08Z</time>
      </trkpt>
      <trkpt lat="44.63187" lon="-0.18951">
        <ele>69</ele>
        <time>2022-07-26T11:12:09Z</time>
      </trkpt>
      <trkpt lat="44.63188" lon="-0.18951">
        <ele>69</ele>
        <time>2022-07-26T11:12:10Z</time>
      </trkpt>
      <trkpt lat="44.63189" lon="-0.1895">
        <ele>69</ele>
        <time>2022-07-26T11:12:11Z</time>
      </trkpt>
      <trkpt lat="44.6319" lon="-0.1895">
        <ele>68.8</ele>
        <time>2022-07-26T11:12:12Z</time>
      </trkpt>
      <trkpt lat="44.63191" lon="-0.1895">
        <ele>68.8</ele>
        <time>2022-07-26T11:12:13Z</time>
      </trkpt>
      <trkpt lat="44.63192" lon="-0.18949">
        <ele>68.8</ele>
        <time>2022-07-26T11:12:14Z</time>
      </trkpt>
      <trkpt lat="44.63193" lon="-0.18948">
        <ele>68.7</ele>
        <time>2022-07-26T11:12:15Z</time>
      </trkpt>
      <trkpt lat="44.63195" lon="-0.18946">
        <ele>68.7</ele>
        <time>2022-07-26T11:12:16Z</time>
      </trkpt>
      <trkpt lat="44.63196" lon="-0.18945">
        <ele>68.6</ele>
        <time>2022-07-26T11:12:17Z</time>
      </trkpt>
      <trkpt lat="44.63197" lon="-0.18945">
        <ele>68.6</ele>
        <time>2022-07-26T11:12:18Z</time>
      </trkpt>
      <trkpt lat="44.63198" lon="-0.18943">
        <ele>68.6</ele>
        <time>2022-07-26T11:12:20Z</time>
      </trkpt>
      <trkpt lat="44.632" lon="-0.18942">
        <ele>68.4</ele>
        <time>2022-07-26T11:12:21Z</time>
      </trkpt>
      <trkpt lat="44.63201" lon="-0.18942">
        <ele>68.4</ele>
        <time>2022-07-26T11:12:22Z</time>
      </trkpt>
      <trkpt lat="44.63203" lon="-0.1894">
        <ele>68.3</ele>
        <time>2022-07-26T11:12:23Z</time>
      </trkpt>
      <trkpt lat="44.63203" lon="-0.18939">
        <ele>68.3</ele>
        <time>2022-07-26T11:12:24Z</time>
      </trkpt>
      <trkpt lat="44.63204" lon="-0.18939">
        <ele>68.3</ele>
        <time>2022-07-26T11:12:25Z</time>
      </trkpt>
      <trkpt lat="44.63206" lon="-0.18938">
        <ele>68.2</ele>
        <time>2022-07-26T11:12:26Z</time>
      </trkpt>
      <trkpt lat="44.63207" lon="-0.18937">
        <ele>68.2</ele>
        <time>2022-07-26T11:12:27Z</time>
      </trkpt>
      <trkpt lat="44.63208" lon="-0.18936">
        <ele>68.1</ele>
        <time>2022-07-26T11:12:28Z</time>
      </trkpt>
      <trkpt lat="44.63209" lon="-0.18935">
        <ele>68.1</ele>
        <time>2022-07-26T11:12:29Z</time>
      </trkpt>
      <trkpt lat="44.6321" lon="-0.18934">
        <ele>68.1</ele>
        <time>2022-07-26T11:12:30Z</time>
      </trkpt>
      <trkpt lat="44.63211" lon="-0.18932">
        <ele>68</ele>
        <time>2022-07-26T11:12:32Z</time>
      </trkpt>
      <trkpt lat="44.63212" lon="-0.18932">
        <ele>68</ele>
        <time>2022-07-26T11:12:33Z</time>
      </trkpt>
      <trkpt lat="44.63214" lon="-0.1893">
        <ele>67.9</ele>
        <time>2022-07-26T11:12:34Z</time>
      </trkpt>
      <trkpt lat="44.63215" lon="-0.18929">
        <ele>67.9</ele>
        <time>2022-07-26T11:12:35Z</time>
      </trkpt>
      <trkpt lat="44.63216" lon="-0.18928">
        <ele>67.9</ele>
        <time>2022-07-26T11:12:36Z</time>
      </trkpt>
      <trkpt lat="44.63216" lon="-0.18927">
        <ele>67.9</ele>
        <time>2022-07-26T11:12:37Z</time>
      </trkpt>
      <trkpt lat="44.63217" lon="-0.18926">
        <ele>67.8</ele>
        <time>2022-07-26T11:12:38Z</time>
      </trkpt>
      <trkpt lat="44.63218" lon="-0.18926">
        <ele>67.8</ele>
        <time>2022-07-26T11:12:39Z</time>
      </trkpt>
      <trkpt lat="44.6322" lon="-0.18924">
        <ele>67.8</ele>
        <time>2022-07-26T11:12:41Z</time>
      </trkpt>
      <trkpt lat="44.6322" lon="-0.18924">
        <ele>67.8</ele>
        <time>2022-07-26T11:12:42Z</time>
      </trkpt>
      <trkpt lat="44.63222" lon="-0.18922">
        <ele>67.8</ele>
        <time>2022-07-26T11:12:44Z</time>
      </trkpt>
      <trkpt lat="44.63222" lon="-0.18922">
        <ele>67.8</ele>
        <time>2022-07-26T11:12:45Z</time>
      </trkpt>
      <trkpt lat="44.63224" lon="-0.18921">
        <ele>67.7</ele>
        <time>2022-07-26T11:12:46Z</time>
      </trkpt>
      <trkpt lat="44.63225" lon="-0.1892">
        <ele>67.7</ele>
        <time>2022-07-26T11:12:47Z</time>
      </trkpt>
      <trkpt lat="44.63226" lon="-0.18919">
        <ele>67.7</ele>
        <time>2022-07-26T11:12:48Z</time>
      </trkpt>
      <trkpt lat="44.63227" lon="-0.18918">
        <ele>67.7</ele>
        <time>2022-07-26T11:12:49Z</time>
      </trkpt>
      <trkpt lat="44.63229" lon="-0.18916">
        <ele>67.7</ele>
        <time>2022-07-26T11:12:50Z</time>
      </trkpt>
      <trkpt lat="44.6323" lon="-0.18915">
        <ele>67.7</ele>
        <time>2022-07-26T11:12:52Z</time>
      </trkpt>
      <trkpt lat="44.63231" lon="-0.18914">
        <ele>67.7</ele>
        <time>2022-07-26T11:12:53Z</time>
      </trkpt>
      <trkpt lat="44.63232" lon="-0.18913">
        <ele>67.7</ele>
        <time>2022-07-26T11:12:54Z</time>
      </trkpt>
      <trkpt lat="44.63233" lon="-0.18912">
        <ele>67.7</ele>
        <time>2022-07-26T11:12:55Z</time>
      </trkpt>
      <trkpt lat="44.63234" lon="-0.1891">
        <ele>67.7</ele>
        <time>2022-07-26T11:12:56Z</time>
      </trkpt>
      <trkpt lat="44.63235" lon="-0.1891">
        <ele>67.7</ele>
        <time>2022-07-26T11:12:57Z</time>
      </trkpt>
      <trkpt lat="44.63235" lon="-0.1891">
        <ele>67.7</ele>
        <time>2022-07-26T11:12:58Z</time>
      </trkpt>
      <trkpt lat="44.63236" lon="-0.18909">
        <ele>67.7</ele>
        <time>2022-07-26T11:12:59Z</time>
      </trkpt>
      <trkpt lat="44.63238" lon="-0.18909">
        <ele>67.7</ele>
        <time>2022-07-26T11:13:00Z</time>
      </trkpt>
      <trkpt lat="44.6324" lon="-0.18907">
        <ele>67.7</ele>
        <time>2022-07-26T11:13:02Z</time>
      </trkpt>
      <trkpt lat="44.63241" lon="-0.18906">
        <ele>67.7</ele>
        <time>2022-07-26T11:13:03Z</time>
      </trkpt>
      <trkpt lat="44.63242" lon="-0.18905">
        <ele>67.7</ele>
        <time>2022-07-26T11:13:04Z</time>
      </trkpt>
      <trkpt lat="44.63243" lon="-0.18905">
        <ele>67.7</ele>
        <time>2022-07-26T11:13:05Z</time>
      </trkpt>
      <trkpt lat="44.63245" lon="-0.18903">
        <ele>67.7</ele>
        <time>2022-07-26T11:13:06Z</time>
      </trkpt>
      <trkpt lat="44.63245" lon="-0.18902">
        <ele>67.7</ele>
        <time>2022-07-26T11:13:07Z</time>
      </trkpt>
      <trkpt lat="44.63246" lon="-0.18901">
        <ele>67.7</ele>
        <time>2022-07-26T11:13:08Z</time>
      </trkpt>
      <trkpt lat="44.63247" lon="-0.189">
        <ele>67.7</ele>
        <time>2022-07-26T11:13:09Z</time>
      </trkpt>
      <trkpt lat="44.63246" lon="-0.18898">
        <ele>67.7</ele>
        <time>2022-07-26T11:13:10Z</time>
      </trkpt>
      <trkpt lat="44.63245" lon="-0.18895">
        <ele>67.7</ele>
        <time>2022-07-26T11:13:11Z</time>
      </trkpt>
      <trkpt lat="44.63245" lon="-0.18894">
        <ele>67.7</ele>
        <time>2022-07-26T11:13:12Z</time>
      </trkpt>
      <trkpt lat="44.63244" lon="-0.1889">
        <ele>67.7</ele>
        <time>2022-07-26T11:13:13Z</time>
      </trkpt>
      <trkpt lat="44.63244" lon="-0.18889">
        <ele>67.7</ele>
        <time>2022-07-26T11:13:15Z</time>
      </trkpt>
      <trkpt lat="44.63244" lon="-0.18888">
        <ele>67.7</ele>
        <time>2022-07-26T11:13:16Z</time>
      </trkpt>
      <trkpt lat="44.63245" lon="-0.18886">
        <ele>67.7</ele>
        <time>2022-07-26T11:13:17Z</time>
      </trkpt>
      <trkpt lat="44.63245" lon="-0.18884">
        <ele>67.7</ele>
        <time>2022-07-26T11:13:18Z</time>
      </trkpt>
      <trkpt lat="44.63246" lon="-0.18883">
        <ele>67.7</ele>
        <time>2022-07-26T11:13:19Z</time>
      </trkpt>
      <trkpt lat="44.63247" lon="-0.18881">
        <ele>67.7</ele>
        <time>2022-07-26T11:13:21Z</time>
      </trkpt>
      <trkpt lat="44.63247" lon="-0.18878">
        <ele>67.7</ele>
        <time>2022-07-26T11:13:22Z</time>
      </trkpt>
      <trkpt lat="44.63248" lon="-0.18877">
        <ele>67.7</ele>
        <time>2022-07-26T11:13:23Z</time>
      </trkpt>
      <trkpt lat="44.63249" lon="-0.18875">
        <ele>67.7</ele>
        <time>2022-07-26T11:13:24Z</time>
      </trkpt>
      <trkpt lat="44.6325" lon="-0.18874">
        <ele>67.7</ele>
        <time>2022-07-26T11:13:25Z</time>
      </trkpt>
      <trkpt lat="44.63252" lon="-0.18871">
        <ele>67.7</ele>
        <time>2022-07-26T11:13:27Z</time>
      </trkpt>
      <trkpt lat="44.63253" lon="-0.1887">
        <ele>67.7</ele>
        <time>2022-07-26T11:13:28Z</time>
      </trkpt>
      <trkpt lat="44.63253" lon="-0.18869">
        <ele>67.7</ele>
        <time>2022-07-26T11:13:29Z</time>
      </trkpt>
      <trkpt lat="44.63254" lon="-0.18867">
        <ele>67.8</ele>
        <time>2022-07-26T11:13:30Z</time>
      </trkpt>
      <trkpt lat="44.63256" lon="-0.18864">
        <ele>67.8</ele>
        <time>2022-07-26T11:13:31Z</time>
      </trkpt>
      <trkpt lat="44.63257" lon="-0.18862">
        <ele>67.8</ele>
        <time>2022-07-26T11:13:33Z</time>
      </trkpt>
      <trkpt lat="44.63257" lon="-0.18861">
        <ele>67.8</ele>
        <time>2022-07-26T11:13:34Z</time>
      </trkpt>
      <trkpt lat="44.63258" lon="-0.1886">
        <ele>67.8</ele>
        <time>2022-07-26T11:13:35Z</time>
      </trkpt>
      <trkpt lat="44.63259" lon="-0.18859">
        <ele>67.8</ele>
        <time>2022-07-26T11:13:36Z</time>
      </trkpt>
      <trkpt lat="44.6326" lon="-0.18857">
        <ele>67.8</ele>
        <time>2022-07-26T11:13:37Z</time>
      </trkpt>
      <trkpt lat="44.6326" lon="-0.18856">
        <ele>67.9</ele>
        <time>2022-07-26T11:13:38Z</time>
      </trkpt>
      <trkpt lat="44.6326" lon="-0.18855">
        <ele>67.9</ele>
        <time>2022-07-26T11:13:39Z</time>
      </trkpt>
      <trkpt lat="44.63261" lon="-0.18854">
        <ele>67.9</ele>
        <time>2022-07-26T11:13:40Z</time>
      </trkpt>
      <trkpt lat="44.63261" lon="-0.18852">
        <ele>67.9</ele>
        <time>2022-07-26T11:13:41Z</time>
      </trkpt>
      <trkpt lat="44.63262" lon="-0.1885">
        <ele>67.9</ele>
        <time>2022-07-26T11:13:43Z</time>
      </trkpt>
      <trkpt lat="44.63263" lon="-0.18849">
        <ele>68</ele>
        <time>2022-07-26T11:13:44Z</time>
      </trkpt>
      <trkpt lat="44.63264" lon="-0.18847">
        <ele>68</ele>
        <time>2022-07-26T11:13:45Z</time>
      </trkpt>
      <trkpt lat="44.63264" lon="-0.18846">
        <ele>68</ele>
        <time>2022-07-26T11:13:46Z</time>
      </trkpt>
      <trkpt lat="44.63266" lon="-0.18844">
        <ele>68</ele>
        <time>2022-07-26T11:13:47Z</time>
      </trkpt>
      <trkpt lat="44.63267" lon="-0.18843">
        <ele>68.1</ele>
        <time>2022-07-26T11:13:48Z</time>
      </trkpt>
      <trkpt lat="44.63267" lon="-0.18842">
        <ele>68.1</ele>
        <time>2022-07-26T11:13:49Z</time>
      </trkpt>
      <trkpt lat="44.63268" lon="-0.1884">
        <ele>68.1</ele>
        <time>2022-07-26T11:13:50Z</time>
      </trkpt>
      <trkpt lat="44.63269" lon="-0.18838">
        <ele>68.2</ele>
        <time>2022-07-26T11:13:51Z</time>
      </trkpt>
      <trkpt lat="44.6327" lon="-0.18837">
        <ele>68.2</ele>
        <time>2022-07-26T11:13:52Z</time>
      </trkpt>
      <trkpt lat="44.6327" lon="-0.18834">
        <ele>68.3</ele>
        <time>2022-07-26T11:13:53Z</time>
      </trkpt>
      <trkpt lat="44.63271" lon="-0.18833">
        <ele>68.3</ele>
        <time>2022-07-26T11:13:55Z</time>
      </trkpt>
      <trkpt lat="44.63271" lon="-0.18832">
        <ele>68.3</ele>
        <time>2022-07-26T11:13:56Z</time>
      </trkpt>
      <trkpt lat="44.63273" lon="-0.18831">
        <ele>68.4</ele>
        <time>2022-07-26T11:13:57Z</time>
      </trkpt>
      <trkpt lat="44.63274" lon="-0.18831">
        <ele>68.4</ele>
        <time>2022-07-26T11:13:58Z</time>
      </trkpt>
      <trkpt lat="44.63275" lon="-0.18831">
        <ele>68.4</ele>
        <time>2022-07-26T11:13:59Z</time>
      </trkpt>
      <trkpt lat="44.63276" lon="-0.1883">
        <ele>68.5</ele>
        <time>2022-07-26T11:14:00Z</time>
      </trkpt>
      <trkpt lat="44.63278" lon="-0.18829">
        <ele>68.5</ele>
        <time>2022-07-26T11:14:01Z</time>
      </trkpt>
      <trkpt lat="44.63278" lon="-0.18829">
        <ele>68.4</ele>
        <time>2022-07-26T11:14:03Z</time>
      </trkpt>
      <trkpt lat="44.6328" lon="-0.18829">
        <ele>68.4</ele>
        <time>2022-07-26T11:14:04Z</time>
      </trkpt>
      <trkpt lat="44.63281" lon="-0.18829">
        <ele>68.4</ele>
        <time>2022-07-26T11:14:05Z</time>
      </trkpt>
      <trkpt lat="44.63283" lon="-0.1883">
        <ele>68.3</ele>
        <time>2022-07-26T11:14:07Z</time>
      </trkpt>
      <trkpt lat="44.63283" lon="-0.18832">
        <ele>68.3</ele>
        <time>2022-07-26T11:14:08Z</time>
      </trkpt>
      <trkpt lat="44.63285" lon="-0.18834">
        <ele>68.3</ele>
        <time>2022-07-26T11:14:09Z</time>
      </trkpt>
      <trkpt lat="44.63286" lon="-0.18835">
        <ele>68.2</ele>
        <time>2022-07-26T11:14:10Z</time>
      </trkpt>
      <trkpt lat="44.63287" lon="-0.18836">
        <ele>68.2</ele>
        <time>2022-07-26T11:14:11Z</time>
      </trkpt>
      <trkpt lat="44.63287" lon="-0.18837">
        <ele>68.2</ele>
        <time>2022-07-26T11:14:12Z</time>
      </trkpt>
      <trkpt lat="44.63287" lon="-0.18839">
        <ele>68.2</ele>
        <time>2022-07-26T11:14:14Z</time>
      </trkpt>
      <trkpt lat="44.63288" lon="-0.1884">
        <ele>68.1</ele>
        <time>2022-07-26T11:14:15Z</time>
      </trkpt>
      <trkpt lat="44.63288" lon="-0.18843">
        <ele>68.1</ele>
        <time>2022-07-26T11:14:16Z</time>
      </trkpt>
      <trkpt lat="44.63289" lon="-0.18844">
        <ele>68.1</ele>
        <time>2022-07-26T11:14:17Z</time>
      </trkpt>
      <trkpt lat="44.6329" lon="-0.18846">
        <ele>68</ele>
        <time>2022-07-26T11:14:18Z</time>
      </trkpt>
      <trkpt lat="44.6329" lon="-0.18849">
        <ele>68</ele>
        <time>2022-07-26T11:14:20Z</time>
      </trkpt>
      <trkpt lat="44.6329" lon="-0.18851">
        <ele>68</ele>
        <time>2022-07-26T11:14:21Z</time>
      </trkpt>
      <trkpt lat="44.63291" lon="-0.18853">
        <ele>67.9</ele>
        <time>2022-07-26T11:14:22Z</time>
      </trkpt>
      <trkpt lat="44.63292" lon="-0.18855">
        <ele>67.9</ele>
        <time>2022-07-26T11:14:23Z</time>
      </trkpt>
      <trkpt lat="44.63292" lon="-0.18856">
        <ele>67.9</ele>
        <time>2022-07-26T11:14:24Z</time>
      </trkpt>
      <trkpt lat="44.63293" lon="-0.18858">
        <ele>67.8</ele>
        <time>2022-07-26T11:14:25Z</time>
      </trkpt>
      <trkpt lat="44.63294" lon="-0.1886">
        <ele>67.8</ele>
        <time>2022-07-26T11:14:26Z</time>
      </trkpt>
      <trkpt lat="44.63294" lon="-0.18861">
        <ele>67.8</ele>
        <time>2022-07-26T11:14:27Z</time>
      </trkpt>
      <trkpt lat="44.63295" lon="-0.18864">
        <ele>67.7</ele>
        <time>2022-07-26T11:14:28Z</time>
      </trkpt>
      <trkpt lat="44.63296" lon="-0.18865">
        <ele>67.7</ele>
        <time>2022-07-26T11:14:29Z</time>
      </trkpt>
      <trkpt lat="44.63297" lon="-0.18866">
        <ele>67.7</ele>
        <time>2022-07-26T11:14:30Z</time>
      </trkpt>
      <trkpt lat="44.63298" lon="-0.18868">
        <ele>67.6</ele>
        <time>2022-07-26T11:14:32Z</time>
      </trkpt>
      <trkpt lat="44.63299" lon="-0.18869">
        <ele>67.6</ele>
        <time>2022-07-26T11:14:33Z</time>
      </trkpt>
      <trkpt lat="44.633" lon="-0.1887">
        <ele>67.6</ele>
        <time>2022-07-26T11:14:34Z</time>
      </trkpt>
      <trkpt lat="44.633" lon="-0.18871">
        <ele>67.5</ele>
        <time>2022-07-26T11:14:35Z</time>
      </trkpt>
      <trkpt lat="44.63301" lon="-0.18873">
        <ele>67.5</ele>
        <time>2022-07-26T11:14:36Z</time>
      </trkpt>
      <trkpt lat="44.63302" lon="-0.18875">
        <ele>67.5</ele>
        <time>2022-07-26T11:14:37Z</time>
      </trkpt>
      <trkpt lat="44.63302" lon="-0.18876">
        <ele>67.5</ele>
        <time>2022-07-26T11:14:38Z</time>
      </trkpt>
      <trkpt lat="44.63302" lon="-0.18876">
        <ele>67.4</ele>
        <time>2022-07-26T11:14:40Z</time>
      </trkpt>
      <trkpt lat="44.63302" lon="-0.18877">
        <ele>67.4</ele>
        <time>2022-07-26T11:14:41Z</time>
      </trkpt>
      <trkpt lat="44.63302" lon="-0.18878">
        <ele>67.4</ele>
        <time>2022-07-26T11:14:42Z</time>
      </trkpt>
      <trkpt lat="44.63302" lon="-0.18879">
        <ele>67.4</ele>
        <time>2022-07-26T11:14:43Z</time>
      </trkpt>
      <trkpt lat="44.63303" lon="-0.18881">
        <ele>67.4</ele>
        <time>2022-07-26T11:14:44Z</time>
      </trkpt>
      <trkpt lat="44.63303" lon="-0.18883">
        <ele>67.3</ele>
        <time>2022-07-26T11:14:45Z</time>
      </trkpt>
      <trkpt lat="44.63303" lon="-0.18884">
        <ele>67.3</ele>
        <time>2022-07-26T11:14:46Z</time>
      </trkpt>
      <trkpt lat="44.63304" lon="-0.18887">
        <ele>67.3</ele>
        <time>2022-07-26T11:14:47Z</time>
      </trkpt>
      <trkpt lat="44.63305" lon="-0.1889">
        <ele>67.2</ele>
        <time>2022-07-26T11:14:48Z</time>
      </trkpt>
      <trkpt lat="44.63306" lon="-0.18892">
        <ele>67.2</ele>
        <time>2022-07-26T11:14:50Z</time>
      </trkpt>
      <trkpt lat="44.63306" lon="-0.18893">
        <ele>67.2</ele>
        <time>2022-07-26T11:14:51Z</time>
      </trkpt>
      <trkpt lat="44.63307" lon="-0.18894">
        <ele>67.1</ele>
        <time>2022-07-26T11:14:52Z</time>
      </trkpt>
      <trkpt lat="44.63307" lon="-0.18896">
        <ele>67.1</ele>
        <time>2022-07-26T11:14:53Z</time>
      </trkpt>
      <trkpt lat="44.63307" lon="-0.18897">
        <ele>67.1</ele>
        <time>2022-07-26T11:14:54Z</time>
      </trkpt>
      <trkpt lat="44.63308" lon="-0.18899">
        <ele>67</ele>
        <time>2022-07-26T11:14:55Z</time>
      </trkpt>
      <trkpt lat="44.6331" lon="-0.18901">
        <ele>67</ele>
        <time>2022-07-26T11:14:57Z</time>
      </trkpt>
      <trkpt lat="44.6331" lon="-0.18901">
        <ele>67</ele>
        <time>2022-07-26T11:14:58Z</time>
      </trkpt>
      <trkpt lat="44.6331" lon="-0.189">
        <ele>67</ele>
        <time>2022-07-26T11:14:59Z</time>
      </trkpt>
      <trkpt lat="44.6331" lon="-0.189">
        <ele>67</ele>
        <time>2022-07-26T11:15:01Z</time>
      </trkpt>
      <trkpt lat="44.6331" lon="-0.18902">
        <ele>66.9</ele>
        <time>2022-07-26T11:15:02Z</time>
      </trkpt>
      <trkpt lat="44.63311" lon="-0.18903">
        <ele>66.9</ele>
        <time>2022-07-26T11:15:03Z</time>
      </trkpt>
      <trkpt lat="44.63312" lon="-0.18906">
        <ele>66.8</ele>
        <time>2022-07-26T11:15:05Z</time>
      </trkpt>
      <trkpt lat="44.63314" lon="-0.18909">
        <ele>66.8</ele>
        <time>2022-07-26T11:15:06Z</time>
      </trkpt>
      <trkpt lat="44.63314" lon="-0.18911">
        <ele>66.7</ele>
        <time>2022-07-26T11:15:07Z</time>
      </trkpt>
      <trkpt lat="44.63315" lon="-0.18912">
        <ele>66.7</ele>
        <time>2022-07-26T11:15:08Z</time>
      </trkpt>
      <trkpt lat="44.63315" lon="-0.18912">
        <ele>66.7</ele>
        <time>2022-07-26T11:15:09Z</time>
      </trkpt>
      <trkpt lat="44.63316" lon="-0.18912">
        <ele>66.7</ele>
        <time>2022-07-26T11:15:10Z</time>
      </trkpt>
      <trkpt lat="44.63316" lon="-0.18912">
        <ele>66.7</ele>
        <time>2022-07-26T11:15:11Z</time>
      </trkpt>
      <trkpt lat="44.63316" lon="-0.18912">
        <ele>66.7</ele>
        <time>2022-07-26T11:15:12Z</time>
      </trkpt>
      <trkpt lat="44.63316" lon="-0.18912">
        <ele>66.7</ele>
        <time>2022-07-26T11:15:13Z</time>
      </trkpt>
      <trkpt lat="44.63316" lon="-0.18911">
        <ele>66.7</ele>
        <time>2022-07-26T11:15:14Z</time>
      </trkpt>
      <trkpt lat="44.63316" lon="-0.18911">
        <ele>66.7</ele>
        <time>2022-07-26T11:15:15Z</time>
      </trkpt>
      <trkpt lat="44.63316" lon="-0.18911">
        <ele>66.7</ele>
        <time>2022-07-26T11:15:16Z</time>
      </trkpt>
      <trkpt lat="44.63316" lon="-0.18912">
        <ele>66.7</ele>
        <time>2022-07-26T11:15:17Z</time>
      </trkpt>
      <trkpt lat="44.63318" lon="-0.18916">
        <ele>66.6</ele>
        <time>2022-07-26T11:15:19Z</time>
      </trkpt>
      <trkpt lat="44.63318" lon="-0.18919">
        <ele>66.5</ele>
        <time>2022-07-26T11:15:21Z</time>
      </trkpt>
      <trkpt lat="44.63319" lon="-0.1892">
        <ele>66.5</ele>
        <time>2022-07-26T11:15:22Z</time>
      </trkpt>
      <trkpt lat="44.63319" lon="-0.18922">
        <ele>66.5</ele>
        <time>2022-07-26T11:15:23Z</time>
      </trkpt>
      <trkpt lat="44.6332" lon="-0.18924">
        <ele>66.4</ele>
        <time>2022-07-26T11:15:24Z</time>
      </trkpt>
      <trkpt lat="44.63321" lon="-0.18926">
        <ele>66.4</ele>
        <time>2022-07-26T11:15:25Z</time>
      </trkpt>
      <trkpt lat="44.63322" lon="-0.18927">
        <ele>66.4</ele>
        <time>2022-07-26T11:15:27Z</time>
      </trkpt>
      <trkpt lat="44.63322" lon="-0.18928">
        <ele>66.3</ele>
        <time>2022-07-26T11:15:28Z</time>
      </trkpt>
      <trkpt lat="44.63323" lon="-0.18929">
        <ele>66.3</ele>
        <time>2022-07-26T11:15:29Z</time>
      </trkpt>
      <trkpt lat="44.63323" lon="-0.18929">
        <ele>66.3</ele>
        <time>2022-07-26T11:15:30Z</time>
      </trkpt>
      <trkpt lat="44.63324" lon="-0.18929">
        <ele>66.3</ele>
        <time>2022-07-26T11:15:31Z</time>
      </trkpt>
      <trkpt lat="44.63324" lon="-0.18929">
        <ele>66.3</ele>
        <time>2022-07-26T11:15:32Z</time>
      </trkpt>
      <trkpt lat="44.63324" lon="-0.1893">
        <ele>66.3</ele>
        <time>2022-07-26T11:15:34Z</time>
      </trkpt>
      <trkpt lat="44.63325" lon="-0.1893">
        <ele>66.3</ele>
        <time>2022-07-26T11:15:35Z</time>
      </trkpt>
      <trkpt lat="44.63325" lon="-0.1893">
        <ele>66.3</ele>
        <time>2022-07-26T11:15:36Z</time>
      </trkpt>
      <trkpt lat="44.63325" lon="-0.1893">
        <ele>66.3</ele>
        <time>2022-07-26T11:15:37Z</time>
      </trkpt>
      <trkpt lat="44.63326" lon="-0.18931">
        <ele>66.2</ele>
        <time>2022-07-26T11:15:38Z</time>
      </trkpt>
      <trkpt lat="44.63326" lon="-0.18931">
        <ele>66.2</ele>
        <time>2022-07-26T11:15:39Z</time>
      </trkpt>
      <trkpt lat="44.63326" lon="-0.18931">
        <ele>66.2</ele>
        <time>2022-07-26T11:15:40Z</time>
      </trkpt>
      <trkpt lat="44.63326" lon="-0.18931">
        <ele>66.2</ele>
        <time>2022-07-26T11:15:41Z</time>
      </trkpt>
      <trkpt lat="44.63326" lon="-0.18931">
        <ele>66.2</ele>
        <time>2022-07-26T11:15:42Z</time>
      </trkpt>
      <trkpt lat="44.63326" lon="-0.18931">
        <ele>66.2</ele>
        <time>2022-07-26T11:15:43Z</time>
      </trkpt>
      <trkpt lat="44.63326" lon="-0.18931">
        <ele>66.2</ele>
        <time>2022-07-26T11:15:44Z</time>
      </trkpt>
      <trkpt lat="44.63326" lon="-0.18931">
        <ele>66.2</ele>
        <time>2022-07-26T11:15:45Z</time>
      </trkpt>
      <trkpt lat="44.63326" lon="-0.18931">
        <ele>66.2</ele>
        <time>2022-07-26T11:15:46Z</time>
      </trkpt>
      <trkpt lat="44.63326" lon="-0.18931">
        <ele>66.2</ele>
        <time>2022-07-26T11:15:47Z</time>
      </trkpt>
      <trkpt lat="44.63326" lon="-0.18931">
        <ele>66.2</ele>
        <time>2022-07-26T11:15:48Z</time>
      </trkpt>
      <trkpt lat="44.63326" lon="-0.18931">
        <ele>66.2</ele>
        <time>2022-07-26T11:15:49Z</time>
      </trkpt>
      <trkpt lat="44.63326" lon="-0.18931">
        <ele>66.2</ele>
        <time>2022-07-26T11:15:50Z</time>
      </trkpt>
      <trkpt lat="44.63326" lon="-0.18931">
        <ele>66.2</ele>
        <time>2022-07-26T11:15:51Z</time>
      </trkpt>
      <trkpt lat="44.63326" lon="-0.1893">
        <ele>66.2</ele>
        <time>2022-07-26T11:15:52Z</time>
      </trkpt>
      <trkpt lat="44.63326" lon="-0.1893">
        <ele>66.2</ele>
        <time>2022-07-26T11:15:53Z</time>
      </trkpt>
      <trkpt lat="44.63326" lon="-0.1893">
        <ele>66.2</ele>
        <time>2022-07-26T11:15:54Z</time>
      </trkpt>
      <trkpt lat="44.63325" lon="-0.18931">
        <ele>66.2</ele>
        <time>2022-07-26T11:15:55Z</time>
      </trkpt>
      <trkpt lat="44.63325" lon="-0.18931">
        <ele>66.2</ele>
        <time>2022-07-26T11:15:56Z</time>
      </trkpt>
      <trkpt lat="44.63325" lon="-0.18931">
        <ele>66.2</ele>
        <time>2022-07-26T11:15:57Z</time>
      </trkpt>
      <trkpt lat="44.63325" lon="-0.18931">
        <ele>66.2</ele>
        <time>2022-07-26T11:15:58Z</time>
      </trkpt>
      <trkpt lat="44.63325" lon="-0.18931">
        <ele>66.2</ele>
        <time>2022-07-26T11:15:59Z</time>
      </trkpt>
      <trkpt lat="44.63325" lon="-0.18931">
        <ele>66.2</ele>
        <time>2022-07-26T11:16:00Z</time>
      </trkpt>
      <trkpt lat="44.63325" lon="-0.18931">
        <ele>66.2</ele>
        <time>2022-07-26T11:16:01Z</time>
      </trkpt>
      <trkpt lat="44.63325" lon="-0.18931">
        <ele>66.2</ele>
        <time>2022-07-26T11:16:02Z</time>
      </trkpt>
      <trkpt lat="44.63325" lon="-0.18931">
        <ele>66.2</ele>
        <time>2022-07-26T11:16:03Z</time>
      </trkpt>
      <trkpt lat="44.63325" lon="-0.18931">
        <ele>66.2</ele>
        <time>2022-07-26T11:16:04Z</time>
      </trkpt>
      <trkpt lat="44.63325" lon="-0.18931">
        <ele>66.2</ele>
        <time>2022-07-26T11:16:05Z</time>
      </trkpt>
      <trkpt lat="44.63325" lon="-0.18931">
        <ele>66.2</ele>
        <time>2022-07-26T11:16:06Z</time>
      </trkpt>
      <trkpt lat="44.63325" lon="-0.18931">
        <ele>66.2</ele>
        <time>2022-07-26T11:16:07Z</time>
      </trkpt>
      <trkpt lat="44.63325" lon="-0.18931">
        <ele>66.2</ele>
        <time>2022-07-26T11:16:08Z</time>
      </trkpt>
      <trkpt lat="44.63325" lon="-0.18931">
        <ele>66.2</ele>
        <time>2022-07-26T11:16:09Z</time>
      </trkpt>
      <trkpt lat="44.63325" lon="-0.18931">
        <ele>66.2</ele>
        <time>2022-07-26T11:16:10Z</time>
      </trkpt>
      <trkpt lat="44.63325" lon="-0.18931">
        <ele>66.2</ele>
        <time>2022-07-26T11:16:11Z</time>
      </trkpt>
      <trkpt lat="44.63325" lon="-0.18931">
        <ele>66.2</ele>
        <time>2022-07-26T11:16:12Z</time>
      </trkpt>
      <trkpt lat="44.63325" lon="-0.18931">
        <ele>66.2</ele>
        <time>2022-07-26T11:16:13Z</time>
      </trkpt>
      <trkpt lat="44.63325" lon="-0.18931">
        <ele>66.2</ele>
        <time>2022-07-26T11:16:14Z</time>
      </trkpt>
      <trkpt lat="44.63325" lon="-0.18931">
        <ele>66.2</ele>
        <time>2022-07-26T11:16:15Z</time>
      </trkpt>
      <trkpt lat="44.63325" lon="-0.18931">
        <ele>66.2</ele>
        <time>2022-07-26T11:16:16Z</time>
      </trkpt>
      <trkpt lat="44.63324" lon="-0.18931">
        <ele>66.2</ele>
        <time>2022-07-26T11:16:17Z</time>
      </trkpt>
      <trkpt lat="44.63324" lon="-0.18931">
        <ele>66.2</ele>
        <time>2022-07-26T11:16:18Z</time>
      </trkpt>
      <trkpt lat="44.63324" lon="-0.18931">
        <ele>66.2</ele>
        <time>2022-07-26T11:16:19Z</time>
      </trkpt>
      <trkpt lat="44.63324" lon="-0.18931">
        <ele>66.2</ele>
        <time>2022-07-26T11:16:20Z</time>
      </trkpt>
      <trkpt lat="44.63324" lon="-0.18931">
        <ele>66.2</ele>
        <time>2022-07-26T11:16:21Z</time>
      </trkpt>
      <trkpt lat="44.63324" lon="-0.18931">
        <ele>66.2</ele>
        <time>2022-07-26T11:16:22Z</time>
      </trkpt>
      <trkpt lat="44.63324" lon="-0.18931">
        <ele>66.2</ele>
        <time>2022-07-26T11:16:23Z</time>
      </trkpt>
      <trkpt lat="44.63324" lon="-0.18931">
        <ele>66.2</ele>
        <time>2022-07-26T11:16:24Z</time>
      </trkpt>
      <trkpt lat="44.63324" lon="-0.18931">
        <ele>66.2</ele>
        <time>2022-07-26T11:16:25Z</time>
      </trkpt>
      <trkpt lat="44.63324" lon="-0.18931">
        <ele>66.2</ele>
        <time>2022-07-26T11:16:26Z</time>
      </trkpt>
      <trkpt lat="44.63324" lon="-0.18931">
        <ele>66.2</ele>
        <time>2022-07-26T11:16:27Z</time>
      </trkpt>
      <trkpt lat="44.63324" lon="-0.18931">
        <ele>66.1</ele>
        <time>2022-07-26T11:16:28Z</time>
      </trkpt>
      <trkpt lat="44.63324" lon="-0.18931">
        <ele>66.1</ele>
        <time>2022-07-26T11:16:29Z</time>
      </trkpt>
      <trkpt lat="44.63324" lon="-0.18931">
        <ele>66.1</ele>
        <time>2022-07-26T11:16:30Z</time>
      </trkpt>
      <trkpt lat="44.63324" lon="-0.18931">
        <ele>66.1</ele>
        <time>2022-07-26T11:16:31Z</time>
      </trkpt>
      <trkpt lat="44.63324" lon="-0.18931">
        <ele>66.1</ele>
        <time>2022-07-26T11:16:32Z</time>
      </trkpt>
      <trkpt lat="44.63324" lon="-0.18931">
        <ele>66.1</ele>
        <time>2022-07-26T11:16:33Z</time>
      </trkpt>
      <trkpt lat="44.63324" lon="-0.18931">
        <ele>66.1</ele>
        <time>2022-07-26T11:16:34Z</time>
      </trkpt>
      <trkpt lat="44.63324" lon="-0.18931">
        <ele>66.1</ele>
        <time>2022-07-26T11:16:35Z</time>
      </trkpt>
      <trkpt lat="44.63324" lon="-0.18931">
        <ele>66.1</ele>
        <time>2022-07-26T11:16:36Z</time>
      </trkpt>
      <trkpt lat="44.63324" lon="-0.18931">
        <ele>66.1</ele>
        <time>2022-07-26T11:16:37Z</time>
      </trkpt>
      <trkpt lat="44.63324" lon="-0.18931">
        <ele>66.1</ele>
        <time>2022-07-26T11:16:38Z</time>
      </trkpt>
      <trkpt lat="44.63324" lon="-0.18931">
        <ele>66.1</ele>
        <time>2022-07-26T11:16:39Z</time>
      </trkpt>
      <trkpt lat="44.63324" lon="-0.18931">
        <ele>66.1</ele>
        <time>2022-07-26T11:16:40Z</time>
      </trkpt>
      <trkpt lat="44.63324" lon="-0.18932">
        <ele>66.1</ele>
        <time>2022-07-26T11:16:41Z</time>
      </trkpt>
      <trkpt lat="44.63322" lon="-0.18932">
        <ele>66.1</ele>
        <time>2022-07-26T11:16:42Z</time>
      </trkpt>
      <trkpt lat="44.63321" lon="-0.18933">
        <ele>66.1</ele>
        <time>2022-07-26T11:16:43Z</time>
      </trkpt>
      <trkpt lat="44.63321" lon="-0.18935">
        <ele>66</ele>
        <time>2022-07-26T11:16:44Z</time>
      </trkpt>
      <trkpt lat="44.63321" lon="-0.18936">
        <ele>66</ele>
        <time>2022-07-26T11:16:45Z</time>
      </trkpt>
      <trkpt lat="44.63321" lon="-0.18937">
        <ele>66</ele>
        <time>2022-07-26T11:16:47Z</time>
      </trkpt>
      <trkpt lat="44.63321" lon="-0.18938">
        <ele>66</ele>
        <time>2022-07-26T11:16:48Z</time>
      </trkpt>
      <trkpt lat="44.63322" lon="-0.18941">
        <ele>65.9</ele>
        <time>2022-07-26T11:16:49Z</time>
      </trkpt>
      <trkpt lat="44.63322" lon="-0.18942">
        <ele>65.9</ele>
        <time>2022-07-26T11:16:50Z</time>
      </trkpt>
      <trkpt lat="44.63323" lon="-0.18944">
        <ele>65.9</ele>
        <time>2022-07-26T11:16:51Z</time>
      </trkpt>
      <trkpt lat="44.63324" lon="-0.18945">
        <ele>65.8</ele>
        <time>2022-07-26T11:16:52Z</time>
      </trkpt>
      <trkpt lat="44.63324" lon="-0.18946">
        <ele>65.8</ele>
        <time>2022-07-26T11:16:53Z</time>
      </trkpt>
      <trkpt lat="44.63325" lon="-0.18947">
        <ele>65.8</ele>
        <time>2022-07-26T11:16:54Z</time>
      </trkpt>
      <trkpt lat="44.63326" lon="-0.18948">
        <ele>65.8</ele>
        <time>2022-07-26T11:16:55Z</time>
      </trkpt>
      <trkpt lat="44.63326" lon="-0.18949">
        <ele>65.7</ele>
        <time>2022-07-26T11:16:56Z</time>
      </trkpt>
      <trkpt lat="44.63327" lon="-0.18952">
        <ele>65.7</ele>
        <time>2022-07-26T11:16:58Z</time>
      </trkpt>
      <trkpt lat="44.63328" lon="-0.18953">
        <ele>65.7</ele>
        <time>2022-07-26T11:16:59Z</time>
      </trkpt>
      <trkpt lat="44.63329" lon="-0.18954">
        <ele>65.6</ele>
        <time>2022-07-26T11:17:00Z</time>
      </trkpt>
      <trkpt lat="44.6333" lon="-0.18955">
        <ele>65.6</ele>
        <time>2022-07-26T11:17:01Z</time>
      </trkpt>
      <trkpt lat="44.63332" lon="-0.18959">
        <ele>65.5</ele>
        <time>2022-07-26T11:17:03Z</time>
      </trkpt>
      <trkpt lat="44.63332" lon="-0.18959">
        <ele>65.5</ele>
        <time>2022-07-26T11:17:04Z</time>
      </trkpt>
      <trkpt lat="44.63333" lon="-0.18961">
        <ele>65.5</ele>
        <time>2022-07-26T11:17:05Z</time>
      </trkpt>
      <trkpt lat="44.63334" lon="-0.18962">
        <ele>65.5</ele>
        <time>2022-07-26T11:17:06Z</time>
      </trkpt>
      <trkpt lat="44.63335" lon="-0.18964">
        <ele>65.4</ele>
        <time>2022-07-26T11:17:07Z</time>
      </trkpt>
      <trkpt lat="44.63336" lon="-0.18966">
        <ele>65.4</ele>
        <time>2022-07-26T11:17:08Z</time>
      </trkpt>
      <trkpt lat="44.63336" lon="-0.18967">
        <ele>65.4</ele>
        <time>2022-07-26T11:17:09Z</time>
      </trkpt>
      <trkpt lat="44.63337" lon="-0.18968">
        <ele>65.3</ele>
        <time>2022-07-26T11:17:10Z</time>
      </trkpt>
      <trkpt lat="44.63338" lon="-0.1897">
        <ele>65.3</ele>
        <time>2022-07-26T11:17:11Z</time>
      </trkpt>
      <trkpt lat="44.63339" lon="-0.18971">
        <ele>65.3</ele>
        <time>2022-07-26T11:17:12Z</time>
      </trkpt>
      <trkpt lat="44.6334" lon="-0.18973">
        <ele>65.2</ele>
        <time>2022-07-26T11:17:13Z</time>
      </trkpt>
      <trkpt lat="44.6334" lon="-0.18974">
        <ele>65.2</ele>
        <time>2022-07-26T11:17:14Z</time>
      </trkpt>
      <trkpt lat="44.63341" lon="-0.18975">
        <ele>65.2</ele>
        <time>2022-07-26T11:17:15Z</time>
      </trkpt>
      <trkpt lat="44.63342" lon="-0.18977">
        <ele>65.2</ele>
        <time>2022-07-26T11:17:16Z</time>
      </trkpt>
      <trkpt lat="44.63343" lon="-0.18978">
        <ele>65.1</ele>
        <time>2022-07-26T11:17:17Z</time>
      </trkpt>
      <trkpt lat="44.63343" lon="-0.1898">
        <ele>65.1</ele>
        <time>2022-07-26T11:17:18Z</time>
      </trkpt>
      <trkpt lat="44.63345" lon="-0.18983">
        <ele>65</ele>
        <time>2022-07-26T11:17:20Z</time>
      </trkpt>
      <trkpt lat="44.63345" lon="-0.18984">
        <ele>65</ele>
        <time>2022-07-26T11:17:21Z</time>
      </trkpt>
      <trkpt lat="44.63346" lon="-0.18985">
        <ele>65</ele>
        <time>2022-07-26T11:17:22Z</time>
      </trkpt>
      <trkpt lat="44.63347" lon="-0.18988">
        <ele>64.9</ele>
        <time>2022-07-26T11:17:23Z</time>
      </trkpt>
      <trkpt lat="44.63348" lon="-0.18989">
        <ele>64.9</ele>
        <time>2022-07-26T11:17:24Z</time>
      </trkpt>
      <trkpt lat="44.63348" lon="-0.1899">
        <ele>64.9</ele>
        <time>2022-07-26T11:17:25Z</time>
      </trkpt>
      <trkpt lat="44.63349" lon="-0.18991">
        <ele>64.9</ele>
        <time>2022-07-26T11:17:26Z</time>
      </trkpt>
      <trkpt lat="44.63351" lon="-0.18994">
        <ele>64.8</ele>
        <time>2022-07-26T11:17:28Z</time>
      </trkpt>
      <trkpt lat="44.63352" lon="-0.18997">
        <ele>64.8</ele>
        <time>2022-07-26T11:17:29Z</time>
      </trkpt>
      <trkpt lat="44.63353" lon="-0.18997">
        <ele>64.7</ele>
        <time>2022-07-26T11:17:30Z</time>
      </trkpt>
      <trkpt lat="44.63353" lon="-0.18998">
        <ele>64.7</ele>
        <time>2022-07-26T11:17:31Z</time>
      </trkpt>
      <trkpt lat="44.63354" lon="-0.19001">
        <ele>64.7</ele>
        <time>2022-07-26T11:17:33Z</time>
      </trkpt>
      <trkpt lat="44.63355" lon="-0.19001">
        <ele>64.7</ele>
        <time>2022-07-26T11:17:34Z</time>
      </trkpt>
      <trkpt lat="44.63356" lon="-0.19003">
        <ele>64.6</ele>
        <time>2022-07-26T11:17:35Z</time>
      </trkpt>
      <trkpt lat="44.63357" lon="-0.19004">
        <ele>64.6</ele>
        <time>2022-07-26T11:17:36Z</time>
      </trkpt>
      <trkpt lat="44.63357" lon="-0.19005">
        <ele>64.6</ele>
        <time>2022-07-26T11:17:37Z</time>
      </trkpt>
      <trkpt lat="44.63359" lon="-0.19007">
        <ele>64.5</ele>
        <time>2022-07-26T11:17:38Z</time>
      </trkpt>
      <trkpt lat="44.63359" lon="-0.19008">
        <ele>64.5</ele>
        <time>2022-07-26T11:17:39Z</time>
      </trkpt>
      <trkpt lat="44.6336" lon="-0.1901">
        <ele>64.5</ele>
        <time>2022-07-26T11:17:40Z</time>
      </trkpt>
      <trkpt lat="44.63361" lon="-0.19012">
        <ele>64.4</ele>
        <time>2022-07-26T11:17:42Z</time>
      </trkpt>
      <trkpt lat="44.63363" lon="-0.19015">
        <ele>64.4</ele>
        <time>2022-07-26T11:17:43Z</time>
      </trkpt>
      <trkpt lat="44.63363" lon="-0.19016">
        <ele>64.4</ele>
        <time>2022-07-26T11:17:44Z</time>
      </trkpt>
      <trkpt lat="44.63364" lon="-0.19016">
        <ele>64.3</ele>
        <time>2022-07-26T11:17:45Z</time>
      </trkpt>
      <trkpt lat="44.63365" lon="-0.19019">
        <ele>64.3</ele>
        <time>2022-07-26T11:17:46Z</time>
      </trkpt>
      <trkpt lat="44.63366" lon="-0.1902">
        <ele>64.3</ele>
        <time>2022-07-26T11:17:47Z</time>
      </trkpt>
      <trkpt lat="44.63366" lon="-0.19021">
        <ele>64.2</ele>
        <time>2022-07-26T11:17:48Z</time>
      </trkpt>
      <trkpt lat="44.63367" lon="-0.19023">
        <ele>64.2</ele>
        <time>2022-07-26T11:17:49Z</time>
      </trkpt>
      <trkpt lat="44.63367" lon="-0.19024">
        <ele>64.2</ele>
        <time>2022-07-26T11:17:50Z</time>
      </trkpt>
      <trkpt lat="44.63368" lon="-0.19025">
        <ele>64.2</ele>
        <time>2022-07-26T11:17:51Z</time>
      </trkpt>
      <trkpt lat="44.63369" lon="-0.19027">
        <ele>64.1</ele>
        <time>2022-07-26T11:17:52Z</time>
      </trkpt>
      <trkpt lat="44.63371" lon="-0.19029">
        <ele>64.1</ele>
        <time>2022-07-26T11:17:54Z</time>
      </trkpt>
      <trkpt lat="44.63371" lon="-0.1903">
        <ele>64</ele>
        <time>2022-07-26T11:17:55Z</time>
      </trkpt>
      <trkpt lat="44.63372" lon="-0.19032">
        <ele>64</ele>
        <time>2022-07-26T11:17:56Z</time>
      </trkpt>
      <trkpt lat="44.63373" lon="-0.19033">
        <ele>64</ele>
        <time>2022-07-26T11:17:57Z</time>
      </trkpt>
      <trkpt lat="44.63374" lon="-0.19036">
        <ele>63.9</ele>
        <time>2022-07-26T11:17:58Z</time>
      </trkpt>
      <trkpt lat="44.63374" lon="-0.19037">
        <ele>63.9</ele>
        <time>2022-07-26T11:17:59Z</time>
      </trkpt>
      <trkpt lat="44.63375" lon="-0.19038">
        <ele>63.9</ele>
        <time>2022-07-26T11:18:00Z</time>
      </trkpt>
      <trkpt lat="44.63375" lon="-0.19039">
        <ele>63.9</ele>
        <time>2022-07-26T11:18:01Z</time>
      </trkpt>
      <trkpt lat="44.63376" lon="-0.1904">
        <ele>63.8</ele>
        <time>2022-07-26T11:18:02Z</time>
      </trkpt>
      <trkpt lat="44.63377" lon="-0.19042">
        <ele>63.8</ele>
        <time>2022-07-26T11:18:03Z</time>
      </trkpt>
      <trkpt lat="44.63378" lon="-0.19043">
        <ele>63.8</ele>
        <time>2022-07-26T11:18:04Z</time>
      </trkpt>
      <trkpt lat="44.63378" lon="-0.19044">
        <ele>63.8</ele>
        <time>2022-07-26T11:18:05Z</time>
      </trkpt>
      <trkpt lat="44.63379" lon="-0.19046">
        <ele>63.7</ele>
        <time>2022-07-26T11:18:06Z</time>
      </trkpt>
      <trkpt lat="44.6338" lon="-0.19047">
        <ele>63.7</ele>
        <time>2022-07-26T11:18:07Z</time>
      </trkpt>
      <trkpt lat="44.63381" lon="-0.19049">
        <ele>63.7</ele>
        <time>2022-07-26T11:18:08Z</time>
      </trkpt>
      <trkpt lat="44.63382" lon="-0.1905">
        <ele>63.6</ele>
        <time>2022-07-26T11:18:09Z</time>
      </trkpt>
      <trkpt lat="44.63383" lon="-0.19052">
        <ele>63.6</ele>
        <time>2022-07-26T11:18:10Z</time>
      </trkpt>
      <trkpt lat="44.63384" lon="-0.19053">
        <ele>63.6</ele>
        <time>2022-07-26T11:18:11Z</time>
      </trkpt>
      <trkpt lat="44.63384" lon="-0.19054">
        <ele>63.5</ele>
        <time>2022-07-26T11:18:12Z</time>
      </trkpt>
      <trkpt lat="44.63385" lon="-0.19056">
        <ele>63.5</ele>
        <time>2022-07-26T11:18:14Z</time>
      </trkpt>
      <trkpt lat="44.63386" lon="-0.19058">
        <ele>63.5</ele>
        <time>2022-07-26T11:18:15Z</time>
      </trkpt>
      <trkpt lat="44.63387" lon="-0.19059">
        <ele>63.4</ele>
        <time>2022-07-26T11:18:16Z</time>
      </trkpt>
      <trkpt lat="44.63389" lon="-0.19062">
        <ele>63.4</ele>
        <time>2022-07-26T11:18:18Z</time>
      </trkpt>
      <trkpt lat="44.63389" lon="-0.19063">
        <ele>63.3</ele>
        <time>2022-07-26T11:18:19Z</time>
      </trkpt>
      <trkpt lat="44.6339" lon="-0.19065">
        <ele>63.3</ele>
        <time>2022-07-26T11:18:20Z</time>
      </trkpt>
      <trkpt lat="44.63391" lon="-0.19066">
        <ele>63.3</ele>
        <time>2022-07-26T11:18:21Z</time>
      </trkpt>
      <trkpt lat="44.63391" lon="-0.19066">
        <ele>63.3</ele>
        <time>2022-07-26T11:18:22Z</time>
      </trkpt>
      <trkpt lat="44.6339" lon="-0.19066">
        <ele>63.3</ele>
        <time>2022-07-26T11:18:23Z</time>
      </trkpt>
      <trkpt lat="44.6339" lon="-0.19066">
        <ele>63.3</ele>
        <time>2022-07-26T11:18:24Z</time>
      </trkpt>
      <trkpt lat="44.63389" lon="-0.19065">
        <ele>63.2</ele>
        <time>2022-07-26T11:18:25Z</time>
      </trkpt>
      <trkpt lat="44.63389" lon="-0.19065">
        <ele>63.2</ele>
        <time>2022-07-26T11:18:26Z</time>
      </trkpt>
      <trkpt lat="44.63389" lon="-0.19064">
        <ele>63.2</ele>
        <time>2022-07-26T11:18:27Z</time>
      </trkpt>
      <trkpt lat="44.63389" lon="-0.19064">
        <ele>63.2</ele>
        <time>2022-07-26T11:18:28Z</time>
      </trkpt>
      <trkpt lat="44.63389" lon="-0.19064">
        <ele>63.2</ele>
        <time>2022-07-26T11:18:29Z</time>
      </trkpt>
      <trkpt lat="44.63389" lon="-0.19065">
        <ele>63.2</ele>
        <time>2022-07-26T11:18:30Z</time>
      </trkpt>
      <trkpt lat="44.6339" lon="-0.19066">
        <ele>63.2</ele>
        <time>2022-07-26T11:18:31Z</time>
      </trkpt>
      <trkpt lat="44.63392" lon="-0.19068">
        <ele>63.1</ele>
        <time>2022-07-26T11:18:33Z</time>
      </trkpt>
      <trkpt lat="44.63393" lon="-0.19068">
        <ele>63.1</ele>
        <time>2022-07-26T11:18:34Z</time>
      </trkpt>
      <trkpt lat="44.63395" lon="-0.19068">
        <ele>63.2</ele>
        <time>2022-07-26T11:18:35Z</time>
      </trkpt>
      <trkpt lat="44.63396" lon="-0.19067">
        <ele>63.3</ele>
        <time>2022-07-26T11:18:36Z</time>
      </trkpt>
      <trkpt lat="44.63398" lon="-0.19066">
        <ele>63.3</ele>
        <time>2022-07-26T11:18:37Z</time>
      </trkpt>
      <trkpt lat="44.63401" lon="-0.19063">
        <ele>63.5</ele>
        <time>2022-07-26T11:18:39Z</time>
      </trkpt>
      <trkpt lat="44.63402" lon="-0.19062">
        <ele>63.6</ele>
        <time>2022-07-26T11:18:40Z</time>
      </trkpt>
      <trkpt lat="44.63403" lon="-0.1906">
        <ele>63.6</ele>
        <time>2022-07-26T11:18:41Z</time>
      </trkpt>
      <trkpt lat="44.63405" lon="-0.19058">
        <ele>63.7</ele>
        <time>2022-07-26T11:18:43Z</time>
      </trkpt>
      <trkpt lat="44.63407" lon="-0.19056">
        <ele>63.8</ele>
        <time>2022-07-26T11:18:44Z</time>
      </trkpt>
      <trkpt lat="44.63408" lon="-0.19055">
        <ele>63.9</ele>
        <time>2022-07-26T11:18:45Z</time>
      </trkpt>
      <trkpt lat="44.63408" lon="-0.19054">
        <ele>63.9</ele>
        <time>2022-07-26T11:18:46Z</time>
      </trkpt>
      <trkpt lat="44.6341" lon="-0.19053">
        <ele>63.9</ele>
        <time>2022-07-26T11:18:47Z</time>
      </trkpt>
      <trkpt lat="44.63411" lon="-0.19052">
        <ele>64</ele>
        <time>2022-07-26T11:18:48Z</time>
      </trkpt>
      <trkpt lat="44.63412" lon="-0.19051">
        <ele>64.1</ele>
        <time>2022-07-26T11:18:49Z</time>
      </trkpt>
      <trkpt lat="44.63412" lon="-0.1905">
        <ele>64.1</ele>
        <time>2022-07-26T11:18:50Z</time>
      </trkpt>
      <trkpt lat="44.63414" lon="-0.19048">
        <ele>64.2</ele>
        <time>2022-07-26T11:18:51Z</time>
      </trkpt>
      <trkpt lat="44.63415" lon="-0.19046">
        <ele>64.3</ele>
        <time>2022-07-26T11:18:52Z</time>
      </trkpt>
      <trkpt lat="44.63416" lon="-0.19045">
        <ele>64.3</ele>
        <time>2022-07-26T11:18:54Z</time>
      </trkpt>
      <trkpt lat="44.63417" lon="-0.19043">
        <ele>64.4</ele>
        <time>2022-07-26T11:18:55Z</time>
      </trkpt>
      <trkpt lat="44.63418" lon="-0.19042">
        <ele>64.5</ele>
        <time>2022-07-26T11:18:56Z</time>
      </trkpt>
      <trkpt lat="44.63419" lon="-0.19041">
        <ele>64.5</ele>
        <time>2022-07-26T11:18:57Z</time>
      </trkpt>
      <trkpt lat="44.6342" lon="-0.19039">
        <ele>64.6</ele>
        <time>2022-07-26T11:18:58Z</time>
      </trkpt>
      <trkpt lat="44.63421" lon="-0.19038">
        <ele>64.6</ele>
        <time>2022-07-26T11:18:59Z</time>
      </trkpt>
      <trkpt lat="44.63422" lon="-0.19035">
        <ele>64.8</ele>
        <time>2022-07-26T11:19:01Z</time>
      </trkpt>
      <trkpt lat="44.63423" lon="-0.19034">
        <ele>64.8</ele>
        <time>2022-07-26T11:19:02Z</time>
      </trkpt>
      <trkpt lat="44.63424" lon="-0.19032">
        <ele>64.8</ele>
        <time>2022-07-26T11:19:03Z</time>
      </trkpt>
      <trkpt lat="44.63425" lon="-0.19031">
        <ele>64.9</ele>
        <time>2022-07-26T11:19:04Z</time>
      </trkpt>
      <trkpt lat="44.63427" lon="-0.19029">
        <ele>65</ele>
        <time>2022-07-26T11:19:05Z</time>
      </trkpt>
      <trkpt lat="44.63428" lon="-0.19028">
        <ele>65</ele>
        <time>2022-07-26T11:19:07Z</time>
      </trkpt>
      <trkpt lat="44.63429" lon="-0.19027">
        <ele>65</ele>
        <time>2022-07-26T11:19:08Z</time>
      </trkpt>
      <trkpt lat="44.63429" lon="-0.19027">
        <ele>65</ele>
        <time>2022-07-26T11:19:09Z</time>
      </trkpt>
      <trkpt lat="44.6343" lon="-0.19026">
        <ele>65</ele>
        <time>2022-07-26T11:19:10Z</time>
      </trkpt>
      <trkpt lat="44.63432" lon="-0.19023">
        <ele>65.1</ele>
        <time>2022-07-26T11:19:12Z</time>
      </trkpt>
      <trkpt lat="44.63433" lon="-0.19022">
        <ele>65.1</ele>
        <time>2022-07-26T11:19:13Z</time>
      </trkpt>
      <trkpt lat="44.63433" lon="-0.19021">
        <ele>65.1</ele>
        <time>2022-07-26T11:19:14Z</time>
      </trkpt>
      <trkpt lat="44.63434" lon="-0.19019">
        <ele>65.2</ele>
        <time>2022-07-26T11:19:16Z</time>
      </trkpt>
      <trkpt lat="44.63434" lon="-0.19017">
        <ele>65.2</ele>
        <time>2022-07-26T11:19:17Z</time>
      </trkpt>
      <trkpt lat="44.63435" lon="-0.19014">
        <ele>65.3</ele>
        <time>2022-07-26T11:19:18Z</time>
      </trkpt>
      <trkpt lat="44.63435" lon="-0.19013">
        <ele>65.3</ele>
        <time>2022-07-26T11:19:19Z</time>
      </trkpt>
      <trkpt lat="44.63435" lon="-0.19012">
        <ele>65.3</ele>
        <time>2022-07-26T11:19:20Z</time>
      </trkpt>
      <trkpt lat="44.63435" lon="-0.1901">
        <ele>65.4</ele>
        <time>2022-07-26T11:19:21Z</time>
      </trkpt>
      <trkpt lat="44.63436" lon="-0.19006">
        <ele>65.5</ele>
        <time>2022-07-26T11:19:23Z</time>
      </trkpt>
      <trkpt lat="44.63436" lon="-0.19005">
        <ele>65.5</ele>
        <time>2022-07-26T11:19:24Z</time>
      </trkpt>
      <trkpt lat="44.63437" lon="-0.19003">
        <ele>65.5</ele>
        <time>2022-07-26T11:19:25Z</time>
      </trkpt>
      <trkpt lat="44.63437" lon="-0.19001">
        <ele>65.6</ele>
        <time>2022-07-26T11:19:26Z</time>
      </trkpt>
      <trkpt lat="44.63437" lon="-0.19">
        <ele>65.6</ele>
        <time>2022-07-26T11:19:27Z</time>
      </trkpt>
      <trkpt lat="44.63438" lon="-0.18997">
        <ele>65.6</ele>
        <time>2022-07-26T11:19:28Z</time>
      </trkpt>
      <trkpt lat="44.63438" lon="-0.18994">
        <ele>65.7</ele>
        <time>2022-07-26T11:19:29Z</time>
      </trkpt>
      <trkpt lat="44.63438" lon="-0.18993">
        <ele>65.7</ele>
        <time>2022-07-26T11:19:31Z</time>
      </trkpt>
      <trkpt lat="44.63439" lon="-0.18991">
        <ele>65.7</ele>
        <time>2022-07-26T11:19:32Z</time>
      </trkpt>
      <trkpt lat="44.63439" lon="-0.18988">
        <ele>65.8</ele>
        <time>2022-07-26T11:19:34Z</time>
      </trkpt>
      <trkpt lat="44.63439" lon="-0.18986">
        <ele>65.8</ele>
        <time>2022-07-26T11:19:35Z</time>
      </trkpt>
      <trkpt lat="44.63439" lon="-0.18983">
        <ele>65.8</ele>
        <time>2022-07-26T11:19:36Z</time>
      </trkpt>
      <trkpt lat="44.6344" lon="-0.18982">
        <ele>65.8</ele>
        <time>2022-07-26T11:19:37Z</time>
      </trkpt>
      <trkpt lat="44.6344" lon="-0.1898">
        <ele>65.8</ele>
        <time>2022-07-26T11:19:38Z</time>
      </trkpt>
      <trkpt lat="44.6344" lon="-0.18979">
        <ele>65.8</ele>
        <time>2022-07-26T11:19:39Z</time>
      </trkpt>
      <trkpt lat="44.63439" lon="-0.18976">
        <ele>65.9</ele>
        <time>2022-07-26T11:19:41Z</time>
      </trkpt>
      <trkpt lat="44.63439" lon="-0.18974">
        <ele>65.9</ele>
        <time>2022-07-26T11:19:42Z</time>
      </trkpt>
      <trkpt lat="44.63439" lon="-0.18971">
        <ele>65.9</ele>
        <time>2022-07-26T11:19:43Z</time>
      </trkpt>
      <trkpt lat="44.63438" lon="-0.1897">
        <ele>65.9</ele>
        <time>2022-07-26T11:19:44Z</time>
      </trkpt>
      <trkpt lat="44.63438" lon="-0.18969">
        <ele>66</ele>
        <time>2022-07-26T11:19:45Z</time>
      </trkpt>
      <trkpt lat="44.63438" lon="-0.18967">
        <ele>66</ele>
        <time>2022-07-26T11:19:46Z</time>
      </trkpt>
      <trkpt lat="44.63437" lon="-0.18964">
        <ele>66</ele>
        <time>2022-07-26T11:19:47Z</time>
      </trkpt>
      <trkpt lat="44.63436" lon="-0.18963">
        <ele>66.1</ele>
        <time>2022-07-26T11:19:48Z</time>
      </trkpt>
      <trkpt lat="44.63436" lon="-0.18962">
        <ele>66.1</ele>
        <time>2022-07-26T11:19:49Z</time>
      </trkpt>
      <trkpt lat="44.63435" lon="-0.18961">
        <ele>66.1</ele>
        <time>2022-07-26T11:19:50Z</time>
      </trkpt>
      <trkpt lat="44.63435" lon="-0.18959">
        <ele>66.2</ele>
        <time>2022-07-26T11:19:51Z</time>
      </trkpt>
      <trkpt lat="44.63434" lon="-0.18957">
        <ele>66.2</ele>
        <time>2022-07-26T11:19:52Z</time>
      </trkpt>
      <trkpt lat="44.63433" lon="-0.18955">
        <ele>66.3</ele>
        <time>2022-07-26T11:19:54Z</time>
      </trkpt>
      <trkpt lat="44.63433" lon="-0.18953">
        <ele>66.3</ele>
        <time>2022-07-26T11:19:55Z</time>
      </trkpt>
      <trkpt lat="44.63433" lon="-0.18951">
        <ele>66.4</ele>
        <time>2022-07-26T11:19:56Z</time>
      </trkpt>
      <trkpt lat="44.63433" lon="-0.18949">
        <ele>66.5</ele>
        <time>2022-07-26T11:19:58Z</time>
      </trkpt>
      <trkpt lat="44.63432" lon="-0.18947">
        <ele>66.5</ele>
        <time>2022-07-26T11:19:59Z</time>
      </trkpt>
      <trkpt lat="44.63432" lon="-0.18946">
        <ele>66.6</ele>
        <time>2022-07-26T11:20:00Z</time>
      </trkpt>
      <trkpt lat="44.63431" lon="-0.18945">
        <ele>66.6</ele>
        <time>2022-07-26T11:20:01Z</time>
      </trkpt>
      <trkpt lat="44.63431" lon="-0.18944">
        <ele>66.7</ele>
        <time>2022-07-26T11:20:02Z</time>
      </trkpt>
      <trkpt lat="44.6343" lon="-0.18942">
        <ele>66.7</ele>
        <time>2022-07-26T11:20:03Z</time>
      </trkpt>
      <trkpt lat="44.63429" lon="-0.18941">
        <ele>66.8</ele>
        <time>2022-07-26T11:20:04Z</time>
      </trkpt>
      <trkpt lat="44.63429" lon="-0.1894">
        <ele>66.8</ele>
        <time>2022-07-26T11:20:05Z</time>
      </trkpt>
      <trkpt lat="44.63428" lon="-0.18938">
        <ele>66.9</ele>
        <time>2022-07-26T11:20:06Z</time>
      </trkpt>
      <trkpt lat="44.63427" lon="-0.18937">
        <ele>66.9</ele>
        <time>2022-07-26T11:20:07Z</time>
      </trkpt>
      <trkpt lat="44.63426" lon="-0.18934">
        <ele>67</ele>
        <time>2022-07-26T11:20:08Z</time>
      </trkpt>
      <trkpt lat="44.63425" lon="-0.18933">
        <ele>67.1</ele>
        <time>2022-07-26T11:20:09Z</time>
      </trkpt>
      <trkpt lat="44.63425" lon="-0.18932">
        <ele>67.1</ele>
        <time>2022-07-26T11:20:10Z</time>
      </trkpt>
      <trkpt lat="44.63424" lon="-0.18931">
        <ele>67.2</ele>
        <time>2022-07-26T11:20:11Z</time>
      </trkpt>
      <trkpt lat="44.63423" lon="-0.1893">
        <ele>67.2</ele>
        <time>2022-07-26T11:20:12Z</time>
      </trkpt>
      <trkpt lat="44.63422" lon="-0.18928">
        <ele>67.3</ele>
        <time>2022-07-26T11:20:14Z</time>
      </trkpt>
      <trkpt lat="44.63422" lon="-0.18927">
        <ele>67.3</ele>
        <time>2022-07-26T11:20:15Z</time>
      </trkpt>
      <trkpt lat="44.63421" lon="-0.18924">
        <ele>67.4</ele>
        <time>2022-07-26T11:20:16Z</time>
      </trkpt>
      <trkpt lat="44.6342" lon="-0.18923">
        <ele>67.5</ele>
        <time>2022-07-26T11:20:17Z</time>
      </trkpt>
      <trkpt lat="44.63419" lon="-0.18922">
        <ele>67.5</ele>
        <time>2022-07-26T11:20:18Z</time>
      </trkpt>
      <trkpt lat="44.63419" lon="-0.1892">
        <ele>67.5</ele>
        <time>2022-07-26T11:20:20Z</time>
      </trkpt>
      <trkpt lat="44.63418" lon="-0.18919">
        <ele>67.6</ele>
        <time>2022-07-26T11:20:21Z</time>
      </trkpt>
      <trkpt lat="44.63418" lon="-0.18917">
        <ele>67.6</ele>
        <time>2022-07-26T11:20:22Z</time>
      </trkpt>
      <trkpt lat="44.63418" lon="-0.18916">
        <ele>67.7</ele>
        <time>2022-07-26T11:20:23Z</time>
      </trkpt>
      <trkpt lat="44.63418" lon="-0.18913">
        <ele>67.7</ele>
        <time>2022-07-26T11:20:24Z</time>
      </trkpt>
      <trkpt lat="44.63417" lon="-0.1891">
        <ele>67.8</ele>
        <time>2022-07-26T11:20:25Z</time>
      </trkpt>
      <trkpt lat="44.63416" lon="-0.18909">
        <ele>67.8</ele>
        <time>2022-07-26T11:20:26Z</time>
      </trkpt>
      <trkpt lat="44.63416" lon="-0.18908">
        <ele>67.8</ele>
        <time>2022-07-26T11:20:27Z</time>
      </trkpt>
      <trkpt lat="44.63415" lon="-0.18906">
        <ele>67.8</ele>
        <time>2022-07-26T11:20:28Z</time>
      </trkpt>
      <trkpt lat="44.63415" lon="-0.18904">
        <ele>67.9</ele>
        <time>2022-07-26T11:20:29Z</time>
      </trkpt>
      <trkpt lat="44.63415" lon="-0.18902">
        <ele>67.9</ele>
        <time>2022-07-26T11:20:30Z</time>
      </trkpt>
      <trkpt lat="44.63415" lon="-0.189">
        <ele>67.9</ele>
        <time>2022-07-26T11:20:31Z</time>
      </trkpt>
      <trkpt lat="44.63415" lon="-0.18897">
        <ele>67.9</ele>
        <time>2022-07-26T11:20:32Z</time>
      </trkpt>
      <trkpt lat="44.63415" lon="-0.18896">
        <ele>68</ele>
        <time>2022-07-26T11:20:34Z</time>
      </trkpt>
      <trkpt lat="44.63415" lon="-0.18894">
        <ele>68</ele>
        <time>2022-07-26T11:20:35Z</time>
      </trkpt>
      <trkpt lat="44.63415" lon="-0.18892">
        <ele>68</ele>
        <time>2022-07-26T11:20:36Z</time>
      </trkpt>
      <trkpt lat="44.63415" lon="-0.18891">
        <ele>68</ele>
        <time>2022-07-26T11:20:37Z</time>
      </trkpt>
      <trkpt lat="44.63415" lon="-0.18888">
        <ele>68.1</ele>
        <time>2022-07-26T11:20:38Z</time>
      </trkpt>
      <trkpt lat="44.63415" lon="-0.18887">
        <ele>68.2</ele>
        <time>2022-07-26T11:20:39Z</time>
      </trkpt>
      <trkpt lat="44.63415" lon="-0.18885">
        <ele>68.2</ele>
        <time>2022-07-26T11:20:40Z</time>
      </trkpt>
      <trkpt lat="44.63415" lon="-0.18882">
        <ele>68.3</ele>
        <time>2022-07-26T11:20:42Z</time>
      </trkpt>
      <trkpt lat="44.63415" lon="-0.1888">
        <ele>68.4</ele>
        <time>2022-07-26T11:20:43Z</time>
      </trkpt>
      <trkpt lat="44.63416" lon="-0.18878">
        <ele>68.4</ele>
        <time>2022-07-26T11:20:44Z</time>
      </trkpt>
      <trkpt lat="44.63416" lon="-0.18877">
        <ele>68.5</ele>
        <time>2022-07-26T11:20:45Z</time>
      </trkpt>
      <trkpt lat="44.63415" lon="-0.18875">
        <ele>68.5</ele>
        <time>2022-07-26T11:20:46Z</time>
      </trkpt>
      <trkpt lat="44.63416" lon="-0.18872">
        <ele>68.6</ele>
        <time>2022-07-26T11:20:48Z</time>
      </trkpt>
      <trkpt lat="44.63416" lon="-0.1887">
        <ele>68.7</ele>
        <time>2022-07-26T11:20:49Z</time>
      </trkpt>
      <trkpt lat="44.63417" lon="-0.18868">
        <ele>68.7</ele>
        <time>2022-07-26T11:20:50Z</time>
      </trkpt>
      <trkpt lat="44.63417" lon="-0.18865">
        <ele>68.8</ele>
        <time>2022-07-26T11:20:51Z</time>
      </trkpt>
      <trkpt lat="44.63418" lon="-0.18864">
        <ele>68.8</ele>
        <time>2022-07-26T11:20:52Z</time>
      </trkpt>
      <trkpt lat="44.63418" lon="-0.18863">
        <ele>68.8</ele>
        <time>2022-07-26T11:20:53Z</time>
      </trkpt>
      <trkpt lat="44.63418" lon="-0.18862">
        <ele>68.9</ele>
        <time>2022-07-26T11:20:54Z</time>
      </trkpt>
      <trkpt lat="44.63418" lon="-0.1886">
        <ele>68.9</ele>
        <time>2022-07-26T11:20:55Z</time>
      </trkpt>
      <trkpt lat="44.63419" lon="-0.18858">
        <ele>68.9</ele>
        <time>2022-07-26T11:20:56Z</time>
      </trkpt>
      <trkpt lat="44.63419" lon="-0.18854">
        <ele>69</ele>
        <time>2022-07-26T11:20:58Z</time>
      </trkpt>
      <trkpt lat="44.6342" lon="-0.18853">
        <ele>69</ele>
        <time>2022-07-26T11:20:59Z</time>
      </trkpt>
      <trkpt lat="44.6342" lon="-0.18852">
        <ele>69</ele>
        <time>2022-07-26T11:21:00Z</time>
      </trkpt>
      <trkpt lat="44.6342" lon="-0.1885">
        <ele>69</ele>
        <time>2022-07-26T11:21:01Z</time>
      </trkpt>
      <trkpt lat="44.6342" lon="-0.18849">
        <ele>69.1</ele>
        <time>2022-07-26T11:21:02Z</time>
      </trkpt>
      <trkpt lat="44.63421" lon="-0.18845">
        <ele>69.1</ele>
        <time>2022-07-26T11:21:04Z</time>
      </trkpt>
      <trkpt lat="44.63421" lon="-0.18844">
        <ele>69.1</ele>
        <time>2022-07-26T11:21:05Z</time>
      </trkpt>
      <trkpt lat="44.63421" lon="-0.18842">
        <ele>69</ele>
        <time>2022-07-26T11:21:06Z</time>
      </trkpt>
      <trkpt lat="44.63421" lon="-0.1884">
        <ele>69</ele>
        <time>2022-07-26T11:21:07Z</time>
      </trkpt>
      <trkpt lat="44.63421" lon="-0.18839">
        <ele>69</ele>
        <time>2022-07-26T11:21:08Z</time>
      </trkpt>
      <trkpt lat="44.63422" lon="-0.18837">
        <ele>69</ele>
        <time>2022-07-26T11:21:09Z</time>
      </trkpt>
      <trkpt lat="44.63422" lon="-0.18835">
        <ele>69</ele>
        <time>2022-07-26T11:21:10Z</time>
      </trkpt>
      <trkpt lat="44.63423" lon="-0.18834">
        <ele>68.9</ele>
        <time>2022-07-26T11:21:11Z</time>
      </trkpt>
      <trkpt lat="44.63423" lon="-0.18833">
        <ele>68.9</ele>
        <time>2022-07-26T11:21:12Z</time>
      </trkpt>
      <trkpt lat="44.63424" lon="-0.18831">
        <ele>68.8</ele>
        <time>2022-07-26T11:21:13Z</time>
      </trkpt>
      <trkpt lat="44.63424" lon="-0.18829">
        <ele>68.8</ele>
        <time>2022-07-26T11:21:14Z</time>
      </trkpt>
      <trkpt lat="44.63425" lon="-0.18828">
        <ele>68.7</ele>
        <time>2022-07-26T11:21:15Z</time>
      </trkpt>
      <trkpt lat="44.63425" lon="-0.18826">
        <ele>68.7</ele>
        <time>2022-07-26T11:21:16Z</time>
      </trkpt>
      <trkpt lat="44.63425" lon="-0.18824">
        <ele>68.6</ele>
        <time>2022-07-26T11:21:17Z</time>
      </trkpt>
      <trkpt lat="44.63426" lon="-0.18822">
        <ele>68.5</ele>
        <time>2022-07-26T11:21:19Z</time>
      </trkpt>
      <trkpt lat="44.63426" lon="-0.1882">
        <ele>68.5</ele>
        <time>2022-07-26T11:21:20Z</time>
      </trkpt>
      <trkpt lat="44.63426" lon="-0.18818">
        <ele>68.4</ele>
        <time>2022-07-26T11:21:21Z</time>
      </trkpt>
      <trkpt lat="44.63426" lon="-0.18817">
        <ele>68.4</ele>
        <time>2022-07-26T11:21:22Z</time>
      </trkpt>
      <trkpt lat="44.63426" lon="-0.18815">
        <ele>68.3</ele>
        <time>2022-07-26T11:21:23Z</time>
      </trkpt>
      <trkpt lat="44.63427" lon="-0.18812">
        <ele>68.2</ele>
        <time>2022-07-26T11:21:24Z</time>
      </trkpt>
      <trkpt lat="44.63427" lon="-0.18811">
        <ele>68.2</ele>
        <time>2022-07-26T11:21:25Z</time>
      </trkpt>
      <trkpt lat="44.63427" lon="-0.1881">
        <ele>68.1</ele>
        <time>2022-07-26T11:21:26Z</time>
      </trkpt>
      <trkpt lat="44.63427" lon="-0.18808">
        <ele>68.1</ele>
        <time>2022-07-26T11:21:27Z</time>
      </trkpt>
      <trkpt lat="44.63427" lon="-0.18806">
        <ele>68</ele>
        <time>2022-07-26T11:21:28Z</time>
      </trkpt>
      <trkpt lat="44.63427" lon="-0.18804">
        <ele>67.9</ele>
        <time>2022-07-26T11:21:29Z</time>
      </trkpt>
      <trkpt lat="44.63427" lon="-0.18803">
        <ele>67.9</ele>
        <time>2022-07-26T11:21:30Z</time>
      </trkpt>
      <trkpt lat="44.63427" lon="-0.188">
        <ele>67.8</ele>
        <time>2022-07-26T11:21:32Z</time>
      </trkpt>
      <trkpt lat="44.63427" lon="-0.18798">
        <ele>67.8</ele>
        <time>2022-07-26T11:21:33Z</time>
      </trkpt>
      <trkpt lat="44.63428" lon="-0.18796">
        <ele>67.7</ele>
        <time>2022-07-26T11:21:34Z</time>
      </trkpt>
      <trkpt lat="44.63428" lon="-0.18794">
        <ele>67.7</ele>
        <time>2022-07-26T11:21:35Z</time>
      </trkpt>
      <trkpt lat="44.63428" lon="-0.18793">
        <ele>67.7</ele>
        <time>2022-07-26T11:21:36Z</time>
      </trkpt>
      <trkpt lat="44.63429" lon="-0.18791">
        <ele>67.7</ele>
        <time>2022-07-26T11:21:37Z</time>
      </trkpt>
      <trkpt lat="44.63429" lon="-0.1879">
        <ele>67.7</ele>
        <time>2022-07-26T11:21:38Z</time>
      </trkpt>
      <trkpt lat="44.63429" lon="-0.18787">
        <ele>67.7</ele>
        <time>2022-07-26T11:21:39Z</time>
      </trkpt>
      <trkpt lat="44.6343" lon="-0.18786">
        <ele>67.7</ele>
        <time>2022-07-26T11:21:40Z</time>
      </trkpt>
      <trkpt lat="44.6343" lon="-0.18784">
        <ele>67.7</ele>
        <time>2022-07-26T11:21:41Z</time>
      </trkpt>
      <trkpt lat="44.6343" lon="-0.18783">
        <ele>67.7</ele>
        <time>2022-07-26T11:21:42Z</time>
      </trkpt>
      <trkpt lat="44.6343" lon="-0.18781">
        <ele>67.7</ele>
        <time>2022-07-26T11:21:43Z</time>
      </trkpt>
      <trkpt lat="44.6343" lon="-0.18779">
        <ele>67.7</ele>
        <time>2022-07-26T11:21:44Z</time>
      </trkpt>
      <trkpt lat="44.6343" lon="-0.18778">
        <ele>67.7</ele>
        <time>2022-07-26T11:21:45Z</time>
      </trkpt>
      <trkpt lat="44.6343" lon="-0.18776">
        <ele>67.7</ele>
        <time>2022-07-26T11:21:46Z</time>
      </trkpt>
      <trkpt lat="44.63431" lon="-0.18774">
        <ele>67.7</ele>
        <time>2022-07-26T11:21:48Z</time>
      </trkpt>
      <trkpt lat="44.63431" lon="-0.18771">
        <ele>67.8</ele>
        <time>2022-07-26T11:21:49Z</time>
      </trkpt>
      <trkpt lat="44.63431" lon="-0.1877">
        <ele>67.8</ele>
        <time>2022-07-26T11:21:50Z</time>
      </trkpt>
      <trkpt lat="44.63431" lon="-0.18767">
        <ele>67.8</ele>
        <time>2022-07-26T11:21:52Z</time>
      </trkpt>
      <trkpt lat="44.63431" lon="-0.18765">
        <ele>67.8</ele>
        <time>2022-07-26T11:21:53Z</time>
      </trkpt>
      <trkpt lat="44.63432" lon="-0.18762">
        <ele>67.9</ele>
        <time>2022-07-26T11:21:54Z</time>
      </trkpt>
      <trkpt lat="44.63432" lon="-0.18761">
        <ele>67.9</ele>
        <time>2022-07-26T11:21:55Z</time>
      </trkpt>
      <trkpt lat="44.63432" lon="-0.1876">
        <ele>67.9</ele>
        <time>2022-07-26T11:21:56Z</time>
      </trkpt>
      <trkpt lat="44.63433" lon="-0.18757">
        <ele>67.9</ele>
        <time>2022-07-26T11:21:57Z</time>
      </trkpt>
      <trkpt lat="44.63433" lon="-0.18755">
        <ele>67.9</ele>
        <time>2022-07-26T11:21:58Z</time>
      </trkpt>
      <trkpt lat="44.63433" lon="-0.18753">
        <ele>67.9</ele>
        <time>2022-07-26T11:21:59Z</time>
      </trkpt>
      <trkpt lat="44.63433" lon="-0.18751">
        <ele>68</ele>
        <time>2022-07-26T11:22:00Z</time>
      </trkpt>
      <trkpt lat="44.63433" lon="-0.18749">
        <ele>68</ele>
        <time>2022-07-26T11:22:01Z</time>
      </trkpt>
      <trkpt lat="44.63434" lon="-0.18748">
        <ele>68</ele>
        <time>2022-07-26T11:22:02Z</time>
      </trkpt>
      <trkpt lat="44.63434" lon="-0.18747">
        <ele>68</ele>
        <time>2022-07-26T11:22:03Z</time>
      </trkpt>
      <trkpt lat="44.63434" lon="-0.18744">
        <ele>68</ele>
        <time>2022-07-26T11:22:04Z</time>
      </trkpt>
      <trkpt lat="44.63435" lon="-0.18741">
        <ele>68</ele>
        <time>2022-07-26T11:22:05Z</time>
      </trkpt>
      <trkpt lat="44.63435" lon="-0.1874">
        <ele>68</ele>
        <time>2022-07-26T11:22:06Z</time>
      </trkpt>
      <trkpt lat="44.63435" lon="-0.18738">
        <ele>68</ele>
        <time>2022-07-26T11:22:07Z</time>
      </trkpt>
      <trkpt lat="44.63435" lon="-0.18736">
        <ele>68</ele>
        <time>2022-07-26T11:22:09Z</time>
      </trkpt>
      <trkpt lat="44.63436" lon="-0.18734">
        <ele>68</ele>
        <time>2022-07-26T11:22:10Z</time>
      </trkpt>
      <trkpt lat="44.63436" lon="-0.18732">
        <ele>68</ele>
        <time>2022-07-26T11:22:11Z</time>
      </trkpt>
      <trkpt lat="44.63436" lon="-0.1873">
        <ele>68</ele>
        <time>2022-07-26T11:22:12Z</time>
      </trkpt>
      <trkpt lat="44.63436" lon="-0.18728">
        <ele>68</ele>
        <time>2022-07-26T11:22:13Z</time>
      </trkpt>
      <trkpt lat="44.63436" lon="-0.18726">
        <ele>68</ele>
        <time>2022-07-26T11:22:14Z</time>
      </trkpt>
      <trkpt lat="44.63436" lon="-0.18724">
        <ele>68</ele>
        <time>2022-07-26T11:22:15Z</time>
      </trkpt>
      <trkpt lat="44.63437" lon="-0.18721">
        <ele>68</ele>
        <time>2022-07-26T11:22:17Z</time>
      </trkpt>
      <trkpt lat="44.63437" lon="-0.18719">
        <ele>68</ele>
        <time>2022-07-26T11:22:18Z</time>
      </trkpt>
      <trkpt lat="44.63438" lon="-0.18718">
        <ele>68.1</ele>
        <time>2022-07-26T11:22:19Z</time>
      </trkpt>
      <trkpt lat="44.63439" lon="-0.18714">
        <ele>68.1</ele>
        <time>2022-07-26T11:22:21Z</time>
      </trkpt>
      <trkpt lat="44.63439" lon="-0.18712">
        <ele>68.1</ele>
        <time>2022-07-26T11:22:22Z</time>
      </trkpt>
      <trkpt lat="44.63438" lon="-0.1871">
        <ele>68.2</ele>
        <time>2022-07-26T11:22:23Z</time>
      </trkpt>
      <trkpt lat="44.63438" lon="-0.18708">
        <ele>68.2</ele>
        <time>2022-07-26T11:22:24Z</time>
      </trkpt>
      <trkpt lat="44.63438" lon="-0.18703">
        <ele>68.3</ele>
        <time>2022-07-26T11:22:26Z</time>
      </trkpt>
      <trkpt lat="44.63438" lon="-0.18702">
        <ele>68.3</ele>
        <time>2022-07-26T11:22:27Z</time>
      </trkpt>
      <trkpt lat="44.63438" lon="-0.187">
        <ele>68.4</ele>
        <time>2022-07-26T11:22:28Z</time>
      </trkpt>
      <trkpt lat="44.63438" lon="-0.18697">
        <ele>68.4</ele>
        <time>2022-07-26T11:22:30Z</time>
      </trkpt>
      <trkpt lat="44.63438" lon="-0.18695">
        <ele>68.5</ele>
        <time>2022-07-26T11:22:31Z</time>
      </trkpt>
      <trkpt lat="44.63439" lon="-0.18692">
        <ele>68.5</ele>
        <time>2022-07-26T11:22:32Z</time>
      </trkpt>
      <trkpt lat="44.63439" lon="-0.18692">
        <ele>68.5</ele>
        <time>2022-07-26T11:22:33Z</time>
      </trkpt>
      <trkpt lat="44.63439" lon="-0.1869">
        <ele>68.6</ele>
        <time>2022-07-26T11:22:34Z</time>
      </trkpt>
      <trkpt lat="44.63439" lon="-0.18688">
        <ele>68.6</ele>
        <time>2022-07-26T11:22:35Z</time>
      </trkpt>
      <trkpt lat="44.63439" lon="-0.18687">
        <ele>68.6</ele>
        <time>2022-07-26T11:22:36Z</time>
      </trkpt>
      <trkpt lat="44.63439" lon="-0.18684">
        <ele>68.6</ele>
        <time>2022-07-26T11:22:37Z</time>
      </trkpt>
      <trkpt lat="44.63439" lon="-0.18682">
        <ele>68.7</ele>
        <time>2022-07-26T11:22:38Z</time>
      </trkpt>
      <trkpt lat="44.63439" lon="-0.18681">
        <ele>68.7</ele>
        <time>2022-07-26T11:22:39Z</time>
      </trkpt>
      <trkpt lat="44.63439" lon="-0.18679">
        <ele>68.7</ele>
        <time>2022-07-26T11:22:40Z</time>
      </trkpt>
      <trkpt lat="44.63439" lon="-0.18676">
        <ele>68.8</ele>
        <time>2022-07-26T11:22:41Z</time>
      </trkpt>
      <trkpt lat="44.63439" lon="-0.18675">
        <ele>68.8</ele>
        <time>2022-07-26T11:22:42Z</time>
      </trkpt>
      <trkpt lat="44.6344" lon="-0.18673">
        <ele>68.8</ele>
        <time>2022-07-26T11:22:43Z</time>
      </trkpt>
      <trkpt lat="44.6344" lon="-0.1867">
        <ele>68.8</ele>
        <time>2022-07-26T11:22:44Z</time>
      </trkpt>
      <trkpt lat="44.6344" lon="-0.18669">
        <ele>68.8</ele>
        <time>2022-07-26T11:22:45Z</time>
      </trkpt>
      <trkpt lat="44.6344" lon="-0.18667">
        <ele>68.9</ele>
        <time>2022-07-26T11:22:46Z</time>
      </trkpt>
      <trkpt lat="44.6344" lon="-0.18666">
        <ele>68.9</ele>
        <time>2022-07-26T11:22:47Z</time>
      </trkpt>
      <trkpt lat="44.63441" lon="-0.18663">
        <ele>68.9</ele>
        <time>2022-07-26T11:22:49Z</time>
      </trkpt>
      <trkpt lat="44.63441" lon="-0.1866">
        <ele>69</ele>
        <time>2022-07-26T11:22:50Z</time>
      </trkpt>
      <trkpt lat="44.63441" lon="-0.18658">
        <ele>69</ele>
        <time>2022-07-26T11:22:51Z</time>
      </trkpt>
      <trkpt lat="44.63441" lon="-0.18657">
        <ele>69</ele>
        <time>2022-07-26T11:22:52Z</time>
      </trkpt>
      <trkpt lat="44.63441" lon="-0.18654">
        <ele>69</ele>
        <time>2022-07-26T11:22:53Z</time>
      </trkpt>
      <trkpt lat="44.63441" lon="-0.18652">
        <ele>69.1</ele>
        <time>2022-07-26T11:22:55Z</time>
      </trkpt>
      <trkpt lat="44.63441" lon="-0.18651">
        <ele>69.1</ele>
        <time>2022-07-26T11:22:56Z</time>
      </trkpt>
      <trkpt lat="44.6344" lon="-0.18648">
        <ele>69.1</ele>
        <time>2022-07-26T11:22:57Z</time>
      </trkpt>
      <trkpt lat="44.6344" lon="-0.18647">
        <ele>69.1</ele>
        <time>2022-07-26T11:22:58Z</time>
      </trkpt>
      <trkpt lat="44.6344" lon="-0.18644">
        <ele>69.2</ele>
        <time>2022-07-26T11:22:59Z</time>
      </trkpt>
      <trkpt lat="44.6344" lon="-0.18642">
        <ele>69.2</ele>
        <time>2022-07-26T11:23:01Z</time>
      </trkpt>
      <trkpt lat="44.6344" lon="-0.18639">
        <ele>69.2</ele>
        <time>2022-07-26T11:23:02Z</time>
      </trkpt>
      <trkpt lat="44.6344" lon="-0.18637">
        <ele>69.3</ele>
        <time>2022-07-26T11:23:03Z</time>
      </trkpt>
      <trkpt lat="44.6344" lon="-0.18636">
        <ele>69.3</ele>
        <time>2022-07-26T11:23:04Z</time>
      </trkpt>
      <trkpt lat="44.6344" lon="-0.18633">
        <ele>69.3</ele>
        <time>2022-07-26T11:23:06Z</time>
      </trkpt>
      <trkpt lat="44.63441" lon="-0.18629">
        <ele>69.4</ele>
        <time>2022-07-26T11:23:07Z</time>
      </trkpt>
      <trkpt lat="44.63441" lon="-0.18629">
        <ele>69.4</ele>
        <time>2022-07-26T11:23:08Z</time>
      </trkpt>
      <trkpt lat="44.63441" lon="-0.18625">
        <ele>69.4</ele>
        <time>2022-07-26T11:23:09Z</time>
      </trkpt>
      <trkpt lat="44.63441" lon="-0.18624">
        <ele>69.5</ele>
        <time>2022-07-26T11:23:10Z</time>
      </trkpt>
      <trkpt lat="44.63441" lon="-0.18623">
        <ele>69.5</ele>
        <time>2022-07-26T11:23:11Z</time>
      </trkpt>
      <trkpt lat="44.63441" lon="-0.1862">
        <ele>69.5</ele>
        <time>2022-07-26T11:23:12Z</time>
      </trkpt>
      <trkpt lat="44.63441" lon="-0.18618">
        <ele>69.6</ele>
        <time>2022-07-26T11:23:14Z</time>
      </trkpt>
      <trkpt lat="44.63441" lon="-0.18615">
        <ele>69.6</ele>
        <time>2022-07-26T11:23:15Z</time>
      </trkpt>
      <trkpt lat="44.63441" lon="-0.18614">
        <ele>69.6</ele>
        <time>2022-07-26T11:23:16Z</time>
      </trkpt>
      <trkpt lat="44.63441" lon="-0.1861">
        <ele>69.7</ele>
        <time>2022-07-26T11:23:17Z</time>
      </trkpt>
      <trkpt lat="44.63441" lon="-0.18609">
        <ele>69.7</ele>
        <time>2022-07-26T11:23:18Z</time>
      </trkpt>
      <trkpt lat="44.63442" lon="-0.18609">
        <ele>69.7</ele>
        <time>2022-07-26T11:23:19Z</time>
      </trkpt>
      <trkpt lat="44.63442" lon="-0.18607">
        <ele>69.7</ele>
        <time>2022-07-26T11:23:20Z</time>
      </trkpt>
      <trkpt lat="44.63442" lon="-0.18605">
        <ele>69.7</ele>
        <time>2022-07-26T11:23:21Z</time>
      </trkpt>
      <trkpt lat="44.63442" lon="-0.186">
        <ele>69.7</ele>
        <time>2022-07-26T11:23:23Z</time>
      </trkpt>
      <trkpt lat="44.63442" lon="-0.18599">
        <ele>69.7</ele>
        <time>2022-07-26T11:23:24Z</time>
      </trkpt>
      <trkpt lat="44.63442" lon="-0.18597">
        <ele>69.8</ele>
        <time>2022-07-26T11:23:25Z</time>
      </trkpt>
      <trkpt lat="44.63442" lon="-0.18596">
        <ele>69.8</ele>
        <time>2022-07-26T11:23:26Z</time>
      </trkpt>
      <trkpt lat="44.63443" lon="-0.18593">
        <ele>69.8</ele>
        <time>2022-07-26T11:23:28Z</time>
      </trkpt>
      <trkpt lat="44.63443" lon="-0.18591">
        <ele>69.8</ele>
        <time>2022-07-26T11:23:29Z</time>
      </trkpt>
      <trkpt lat="44.63443" lon="-0.18589">
        <ele>69.8</ele>
        <time>2022-07-26T11:23:30Z</time>
      </trkpt>
      <trkpt lat="44.63444" lon="-0.18587">
        <ele>69.8</ele>
        <time>2022-07-26T11:23:31Z</time>
      </trkpt>
      <trkpt lat="44.63443" lon="-0.18583">
        <ele>69.8</ele>
        <time>2022-07-26T11:23:33Z</time>
      </trkpt>
      <trkpt lat="44.63443" lon="-0.1858">
        <ele>69.9</ele>
        <time>2022-07-26T11:23:34Z</time>
      </trkpt>
      <trkpt lat="44.63443" lon="-0.18579">
        <ele>69.9</ele>
        <time>2022-07-26T11:23:35Z</time>
      </trkpt>
      <trkpt lat="44.63443" lon="-0.18578">
        <ele>69.9</ele>
        <time>2022-07-26T11:23:36Z</time>
      </trkpt>
      <trkpt lat="44.63443" lon="-0.18573">
        <ele>69.9</ele>
        <time>2022-07-26T11:23:38Z</time>
      </trkpt>
      <trkpt lat="44.63443" lon="-0.18571">
        <ele>69.9</ele>
        <time>2022-07-26T11:23:39Z</time>
      </trkpt>
      <trkpt lat="44.63443" lon="-0.1857">
        <ele>69.9</ele>
        <time>2022-07-26T11:23:40Z</time>
      </trkpt>
      <trkpt lat="44.63444" lon="-0.18569">
        <ele>69.9</ele>
        <time>2022-07-26T11:23:41Z</time>
      </trkpt>
      <trkpt lat="44.63444" lon="-0.18566">
        <ele>69.9</ele>
        <time>2022-07-26T11:23:42Z</time>
      </trkpt>
      <trkpt lat="44.63444" lon="-0.18565">
        <ele>69.9</ele>
        <time>2022-07-26T11:23:43Z</time>
      </trkpt>
      <trkpt lat="44.63444" lon="-0.18563">
        <ele>69.9</ele>
        <time>2022-07-26T11:23:44Z</time>
      </trkpt>
      <trkpt lat="44.63444" lon="-0.18562">
        <ele>69.9</ele>
        <time>2022-07-26T11:23:45Z</time>
      </trkpt>
      <trkpt lat="44.63444" lon="-0.1856">
        <ele>69.9</ele>
        <time>2022-07-26T11:23:46Z</time>
      </trkpt>
      <trkpt lat="44.63444" lon="-0.18557">
        <ele>69.9</ele>
        <time>2022-07-26T11:23:47Z</time>
      </trkpt>
      <trkpt lat="44.63444" lon="-0.18556">
        <ele>69.9</ele>
        <time>2022-07-26T11:23:48Z</time>
      </trkpt>
      <trkpt lat="44.63444" lon="-0.18553">
        <ele>69.9</ele>
        <time>2022-07-26T11:23:49Z</time>
      </trkpt>
      <trkpt lat="44.63444" lon="-0.18552">
        <ele>69.9</ele>
        <time>2022-07-26T11:23:50Z</time>
      </trkpt>
      <trkpt lat="44.63444" lon="-0.18551">
        <ele>69.9</ele>
        <time>2022-07-26T11:23:51Z</time>
      </trkpt>
      <trkpt lat="44.63444" lon="-0.18547">
        <ele>69.9</ele>
        <time>2022-07-26T11:23:52Z</time>
      </trkpt>
      <trkpt lat="44.63444" lon="-0.18547">
        <ele>69.8</ele>
        <time>2022-07-26T11:23:53Z</time>
      </trkpt>
      <trkpt lat="44.63444" lon="-0.18544">
        <ele>69.8</ele>
        <time>2022-07-26T11:23:54Z</time>
      </trkpt>
      <trkpt lat="44.63445" lon="-0.18542">
        <ele>69.8</ele>
        <time>2022-07-26T11:23:55Z</time>
      </trkpt>
      <trkpt lat="44.63445" lon="-0.18541">
        <ele>69.8</ele>
        <time>2022-07-26T11:23:56Z</time>
      </trkpt>
      <trkpt lat="44.63445" lon="-0.18538">
        <ele>69.8</ele>
        <time>2022-07-26T11:23:58Z</time>
      </trkpt>
      <trkpt lat="44.63445" lon="-0.18537">
        <ele>69.8</ele>
        <time>2022-07-26T11:23:59Z</time>
      </trkpt>
      <trkpt lat="44.63445" lon="-0.18534">
        <ele>69.7</ele>
        <time>2022-07-26T11:24:00Z</time>
      </trkpt>
      <trkpt lat="44.63445" lon="-0.18532">
        <ele>69.7</ele>
        <time>2022-07-26T11:24:01Z</time>
      </trkpt>
      <trkpt lat="44.63445" lon="-0.18531">
        <ele>69.7</ele>
        <time>2022-07-26T11:24:02Z</time>
      </trkpt>
      <trkpt lat="44.63446" lon="-0.18529">
        <ele>69.7</ele>
        <time>2022-07-26T11:24:03Z</time>
      </trkpt>
      <trkpt lat="44.63446" lon="-0.18527">
        <ele>69.7</ele>
        <time>2022-07-26T11:24:04Z</time>
      </trkpt>
      <trkpt lat="44.63446" lon="-0.18525">
        <ele>69.7</ele>
        <time>2022-07-26T11:24:05Z</time>
      </trkpt>
      <trkpt lat="44.63446" lon="-0.18523">
        <ele>69.7</ele>
        <time>2022-07-26T11:24:06Z</time>
      </trkpt>
      <trkpt lat="44.63446" lon="-0.18522">
        <ele>69.7</ele>
        <time>2022-07-26T11:24:07Z</time>
      </trkpt>
      <trkpt lat="44.63446" lon="-0.18519">
        <ele>69.6</ele>
        <time>2022-07-26T11:24:08Z</time>
      </trkpt>
      <trkpt lat="44.63446" lon="-0.18518">
        <ele>69.6</ele>
        <time>2022-07-26T11:24:09Z</time>
      </trkpt>
      <trkpt lat="44.63446" lon="-0.18516">
        <ele>69.6</ele>
        <time>2022-07-26T11:24:10Z</time>
      </trkpt>
      <trkpt lat="44.63446" lon="-0.18514">
        <ele>69.6</ele>
        <time>2022-07-26T11:24:11Z</time>
      </trkpt>
      <trkpt lat="44.63447" lon="-0.18511">
        <ele>69.6</ele>
        <time>2022-07-26T11:24:13Z</time>
      </trkpt>
      <trkpt lat="44.63447" lon="-0.18509">
        <ele>69.7</ele>
        <time>2022-07-26T11:24:14Z</time>
      </trkpt>
      <trkpt lat="44.63447" lon="-0.18507">
        <ele>69.7</ele>
        <time>2022-07-26T11:24:15Z</time>
      </trkpt>
      <trkpt lat="44.63447" lon="-0.18505">
        <ele>69.7</ele>
        <time>2022-07-26T11:24:16Z</time>
      </trkpt>
      <trkpt lat="44.63447" lon="-0.18504">
        <ele>69.7</ele>
        <time>2022-07-26T11:24:17Z</time>
      </trkpt>
      <trkpt lat="44.63447" lon="-0.18501">
        <ele>69.8</ele>
        <time>2022-07-26T11:24:18Z</time>
      </trkpt>
      <trkpt lat="44.63447" lon="-0.185">
        <ele>69.8</ele>
        <time>2022-07-26T11:24:19Z</time>
      </trkpt>
      <trkpt lat="44.63447" lon="-0.18498">
        <ele>69.8</ele>
        <time>2022-07-26T11:24:20Z</time>
      </trkpt>
      <trkpt lat="44.63448" lon="-0.18496">
        <ele>69.9</ele>
        <time>2022-07-26T11:24:21Z</time>
      </trkpt>
      <trkpt lat="44.63448" lon="-0.18494">
        <ele>70</ele>
        <time>2022-07-26T11:24:22Z</time>
      </trkpt>
      <trkpt lat="44.63448" lon="-0.18492">
        <ele>70</ele>
        <time>2022-07-26T11:24:23Z</time>
      </trkpt>
      <trkpt lat="44.63448" lon="-0.1849">
        <ele>70.1</ele>
        <time>2022-07-26T11:24:25Z</time>
      </trkpt>
      <trkpt lat="44.63448" lon="-0.18488">
        <ele>70.1</ele>
        <time>2022-07-26T11:24:26Z</time>
      </trkpt>
      <trkpt lat="44.63448" lon="-0.18485">
        <ele>70.2</ele>
        <time>2022-07-26T11:24:27Z</time>
      </trkpt>
      <trkpt lat="44.63448" lon="-0.18482">
        <ele>70.3</ele>
        <time>2022-07-26T11:24:29Z</time>
      </trkpt>
      <trkpt lat="44.63448" lon="-0.1848">
        <ele>70.4</ele>
        <time>2022-07-26T11:24:30Z</time>
      </trkpt>
      <trkpt lat="44.63449" lon="-0.18478">
        <ele>70.4</ele>
        <time>2022-07-26T11:24:31Z</time>
      </trkpt>
      <trkpt lat="44.63449" lon="-0.18475">
        <ele>70.5</ele>
        <time>2022-07-26T11:24:32Z</time>
      </trkpt>
      <trkpt lat="44.63449" lon="-0.18473">
        <ele>70.5</ele>
        <time>2022-07-26T11:24:33Z</time>
      </trkpt>
      <trkpt lat="44.63449" lon="-0.18471">
        <ele>70.6</ele>
        <time>2022-07-26T11:24:34Z</time>
      </trkpt>
      <trkpt lat="44.63449" lon="-0.18469">
        <ele>70.6</ele>
        <time>2022-07-26T11:24:35Z</time>
      </trkpt>
      <trkpt lat="44.63448" lon="-0.18468">
        <ele>70.6</ele>
        <time>2022-07-26T11:24:36Z</time>
      </trkpt>
      <trkpt lat="44.63448" lon="-0.18465">
        <ele>70.6</ele>
        <time>2022-07-26T11:24:37Z</time>
      </trkpt>
      <trkpt lat="44.63448" lon="-0.18463">
        <ele>70.6</ele>
        <time>2022-07-26T11:24:38Z</time>
      </trkpt>
      <trkpt lat="44.63448" lon="-0.18461">
        <ele>70.7</ele>
        <time>2022-07-26T11:24:39Z</time>
      </trkpt>
      <trkpt lat="44.63448" lon="-0.18459">
        <ele>70.7</ele>
        <time>2022-07-26T11:24:40Z</time>
      </trkpt>
      <trkpt lat="44.63448" lon="-0.18458">
        <ele>70.7</ele>
        <time>2022-07-26T11:24:41Z</time>
      </trkpt>
      <trkpt lat="44.63448" lon="-0.18452">
        <ele>70.6</ele>
        <time>2022-07-26T11:24:43Z</time>
      </trkpt>
      <trkpt lat="44.63448" lon="-0.18451">
        <ele>70.6</ele>
        <time>2022-07-26T11:24:44Z</time>
      </trkpt>
      <trkpt lat="44.63449" lon="-0.1845">
        <ele>70.6</ele>
        <time>2022-07-26T11:24:45Z</time>
      </trkpt>
      <trkpt lat="44.63449" lon="-0.18449">
        <ele>70.6</ele>
        <time>2022-07-26T11:24:46Z</time>
      </trkpt>
      <trkpt lat="44.6345" lon="-0.18444">
        <ele>70.5</ele>
        <time>2022-07-26T11:24:48Z</time>
      </trkpt>
      <trkpt lat="44.6345" lon="-0.18442">
        <ele>70.5</ele>
        <time>2022-07-26T11:24:49Z</time>
      </trkpt>
      <trkpt lat="44.6345" lon="-0.18441">
        <ele>70.5</ele>
        <time>2022-07-26T11:24:50Z</time>
      </trkpt>
      <trkpt lat="44.6345" lon="-0.1844">
        <ele>70.5</ele>
        <time>2022-07-26T11:24:51Z</time>
      </trkpt>
      <trkpt lat="44.63451" lon="-0.18437">
        <ele>70.5</ele>
        <time>2022-07-26T11:24:52Z</time>
      </trkpt>
      <trkpt lat="44.6345" lon="-0.18436">
        <ele>70.5</ele>
        <time>2022-07-26T11:24:53Z</time>
      </trkpt>
      <trkpt lat="44.6345" lon="-0.18433">
        <ele>70.4</ele>
        <time>2022-07-26T11:24:54Z</time>
      </trkpt>
      <trkpt lat="44.6345" lon="-0.18432">
        <ele>70.4</ele>
        <time>2022-07-26T11:24:55Z</time>
      </trkpt>
      <trkpt lat="44.6345" lon="-0.18431">
        <ele>70.4</ele>
        <time>2022-07-26T11:24:56Z</time>
      </trkpt>
      <trkpt lat="44.6345" lon="-0.18428">
        <ele>70.4</ele>
        <time>2022-07-26T11:24:57Z</time>
      </trkpt>
      <trkpt lat="44.6345" lon="-0.18427">
        <ele>70.4</ele>
        <time>2022-07-26T11:24:58Z</time>
      </trkpt>
      <trkpt lat="44.6345" lon="-0.18425">
        <ele>70.4</ele>
        <time>2022-07-26T11:25:00Z</time>
      </trkpt>
      <trkpt lat="44.6345" lon="-0.18423">
        <ele>70.4</ele>
        <time>2022-07-26T11:25:01Z</time>
      </trkpt>
      <trkpt lat="44.6345" lon="-0.18421">
        <ele>70.4</ele>
        <time>2022-07-26T11:25:02Z</time>
      </trkpt>
      <trkpt lat="44.6345" lon="-0.18419">
        <ele>70.5</ele>
        <time>2022-07-26T11:25:03Z</time>
      </trkpt>
      <trkpt lat="44.63451" lon="-0.18416">
        <ele>70.5</ele>
        <time>2022-07-26T11:25:04Z</time>
      </trkpt>
      <trkpt lat="44.63451" lon="-0.18414">
        <ele>70.5</ele>
        <time>2022-07-26T11:25:05Z</time>
      </trkpt>
      <trkpt lat="44.63451" lon="-0.18413">
        <ele>70.5</ele>
        <time>2022-07-26T11:25:06Z</time>
      </trkpt>
      <trkpt lat="44.63451" lon="-0.1841">
        <ele>70.5</ele>
        <time>2022-07-26T11:25:08Z</time>
      </trkpt>
      <trkpt lat="44.63452" lon="-0.18409">
        <ele>70.6</ele>
        <time>2022-07-26T11:25:09Z</time>
      </trkpt>
      <trkpt lat="44.63452" lon="-0.18407">
        <ele>70.6</ele>
        <time>2022-07-26T11:25:10Z</time>
      </trkpt>
      <trkpt lat="44.63453" lon="-0.18405">
        <ele>70.6</ele>
        <time>2022-07-26T11:25:11Z</time>
      </trkpt>
      <trkpt lat="44.63454" lon="-0.18401">
        <ele>70.6</ele>
        <time>2022-07-26T11:25:13Z</time>
      </trkpt>
      <trkpt lat="44.63454" lon="-0.18399">
        <ele>70.6</ele>
        <time>2022-07-26T11:25:14Z</time>
      </trkpt>
      <trkpt lat="44.63454" lon="-0.18398">
        <ele>70.7</ele>
        <time>2022-07-26T11:25:15Z</time>
      </trkpt>
      <trkpt lat="44.63455" lon="-0.18396">
        <ele>70.7</ele>
        <time>2022-07-26T11:25:16Z</time>
      </trkpt>
      <trkpt lat="44.63455" lon="-0.18395">
        <ele>70.7</ele>
        <time>2022-07-26T11:25:17Z</time>
      </trkpt>
      <trkpt lat="44.63457" lon="-0.18392">
        <ele>70.7</ele>
        <time>2022-07-26T11:25:19Z</time>
      </trkpt>
      <trkpt lat="44.63458" lon="-0.18391">
        <ele>70.8</ele>
        <time>2022-07-26T11:25:20Z</time>
      </trkpt>
      <trkpt lat="44.6346" lon="-0.1839">
        <ele>70.8</ele>
        <time>2022-07-26T11:25:21Z</time>
      </trkpt>
      <trkpt lat="44.63461" lon="-0.18387">
        <ele>70.8</ele>
        <time>2022-07-26T11:25:22Z</time>
      </trkpt>
      <trkpt lat="44.63462" lon="-0.18386">
        <ele>70.8</ele>
        <time>2022-07-26T11:25:24Z</time>
      </trkpt>
      <trkpt lat="44.63462" lon="-0.18384">
        <ele>70.9</ele>
        <time>2022-07-26T11:25:25Z</time>
      </trkpt>
      <trkpt lat="44.63463" lon="-0.18383">
        <ele>70.9</ele>
        <time>2022-07-26T11:25:26Z</time>
      </trkpt>
      <trkpt lat="44.63464" lon="-0.18382">
        <ele>70.9</ele>
        <time>2022-07-26T11:25:27Z</time>
      </trkpt>
      <trkpt lat="44.63465" lon="-0.18379">
        <ele>70.9</ele>
        <time>2022-07-26T11:25:28Z</time>
      </trkpt>
      <trkpt lat="44.63466" lon="-0.18378">
        <ele>71</ele>
        <time>2022-07-26T11:25:29Z</time>
      </trkpt>
      <trkpt lat="44.63467" lon="-0.18378">
        <ele>71</ele>
        <time>2022-07-26T11:25:30Z</time>
      </trkpt>
      <trkpt lat="44.63468" lon="-0.18375">
        <ele>71</ele>
        <time>2022-07-26T11:25:32Z</time>
      </trkpt>
      <trkpt lat="44.63469" lon="-0.18374">
        <ele>71</ele>
        <time>2022-07-26T11:25:33Z</time>
      </trkpt>
      <trkpt lat="44.6347" lon="-0.18373">
        <ele>71.1</ele>
        <time>2022-07-26T11:25:34Z</time>
      </trkpt>
      <trkpt lat="44.6347" lon="-0.18371">
        <ele>71.1</ele>
        <time>2022-07-26T11:25:35Z</time>
      </trkpt>
      <trkpt lat="44.63471" lon="-0.1837">
        <ele>71.1</ele>
        <time>2022-07-26T11:25:36Z</time>
      </trkpt>
      <trkpt lat="44.63472" lon="-0.18369">
        <ele>71.2</ele>
        <time>2022-07-26T11:25:37Z</time>
      </trkpt>
      <trkpt lat="44.63474" lon="-0.18367">
        <ele>71.2</ele>
        <time>2022-07-26T11:25:38Z</time>
      </trkpt>
      <trkpt lat="44.63474" lon="-0.18367">
        <ele>71.3</ele>
        <time>2022-07-26T11:25:39Z</time>
      </trkpt>
      <trkpt lat="44.63475" lon="-0.18366">
        <ele>71.3</ele>
        <time>2022-07-26T11:25:41Z</time>
      </trkpt>
      <trkpt lat="44.63476" lon="-0.18365">
        <ele>71.3</ele>
        <time>2022-07-26T11:25:42Z</time>
      </trkpt>
      <trkpt lat="44.63478" lon="-0.18362">
        <ele>71.4</ele>
        <time>2022-07-26T11:25:43Z</time>
      </trkpt>
      <trkpt lat="44.63479" lon="-0.18362">
        <ele>71.5</ele>
        <time>2022-07-26T11:25:44Z</time>
      </trkpt>
      <trkpt lat="44.6348" lon="-0.18361">
        <ele>71.5</ele>
        <time>2022-07-26T11:25:45Z</time>
      </trkpt>
      <trkpt lat="44.6348" lon="-0.1836">
        <ele>71.5</ele>
        <time>2022-07-26T11:25:46Z</time>
      </trkpt>
      <trkpt lat="44.63481" lon="-0.18358">
        <ele>71.6</ele>
        <time>2022-07-26T11:25:47Z</time>
      </trkpt>
      <trkpt lat="44.63483" lon="-0.18356">
        <ele>71.6</ele>
        <time>2022-07-26T11:25:48Z</time>
      </trkpt>
      <trkpt lat="44.63483" lon="-0.18355">
        <ele>71.6</ele>
        <time>2022-07-26T11:25:49Z</time>
      </trkpt>
      <trkpt lat="44.63484" lon="-0.18353">
        <ele>71.6</ele>
        <time>2022-07-26T11:25:50Z</time>
      </trkpt>
      <trkpt lat="44.63486" lon="-0.18351">
        <ele>71.6</ele>
        <time>2022-07-26T11:25:52Z</time>
      </trkpt>
      <trkpt lat="44.63487" lon="-0.18348">
        <ele>71.6</ele>
        <time>2022-07-26T11:25:53Z</time>
      </trkpt>
      <trkpt lat="44.63488" lon="-0.18347">
        <ele>71.6</ele>
        <time>2022-07-26T11:25:54Z</time>
      </trkpt>
      <trkpt lat="44.63489" lon="-0.18345">
        <ele>71.6</ele>
        <time>2022-07-26T11:25:56Z</time>
      </trkpt>
      <trkpt lat="44.6349" lon="-0.18344">
        <ele>71.6</ele>
        <time>2022-07-26T11:25:57Z</time>
      </trkpt>
      <trkpt lat="44.63492" lon="-0.18342">
        <ele>71.6</ele>
        <time>2022-07-26T11:25:58Z</time>
      </trkpt>
      <trkpt lat="44.63492" lon="-0.18341">
        <ele>71.6</ele>
        <time>2022-07-26T11:25:59Z</time>
      </trkpt>
      <trkpt lat="44.63493" lon="-0.1834">
        <ele>71.6</ele>
        <time>2022-07-26T11:26:00Z</time>
      </trkpt>
      <trkpt lat="44.63494" lon="-0.18338">
        <ele>71.6</ele>
        <time>2022-07-26T11:26:01Z</time>
      </trkpt>
      <trkpt lat="44.63495" lon="-0.18337">
        <ele>71.6</ele>
        <time>2022-07-26T11:26:02Z</time>
      </trkpt>
      <trkpt lat="44.63497" lon="-0.18334">
        <ele>71.6</ele>
        <time>2022-07-26T11:26:03Z</time>
      </trkpt>
      <trkpt lat="44.63497" lon="-0.18334">
        <ele>71.6</ele>
        <time>2022-07-26T11:26:04Z</time>
      </trkpt>
      <trkpt lat="44.63498" lon="-0.18332">
        <ele>71.6</ele>
        <time>2022-07-26T11:26:05Z</time>
      </trkpt>
      <trkpt lat="44.63498" lon="-0.18331">
        <ele>71.6</ele>
        <time>2022-07-26T11:26:06Z</time>
      </trkpt>
      <trkpt lat="44.63499" lon="-0.1833">
        <ele>71.6</ele>
        <time>2022-07-26T11:26:07Z</time>
      </trkpt>
      <trkpt lat="44.63501" lon="-0.18328">
        <ele>71.6</ele>
        <time>2022-07-26T11:26:08Z</time>
      </trkpt>
      <trkpt lat="44.63502" lon="-0.18325">
        <ele>71.6</ele>
        <time>2022-07-26T11:26:10Z</time>
      </trkpt>
      <trkpt lat="44.63503" lon="-0.18324">
        <ele>71.7</ele>
        <time>2022-07-26T11:26:11Z</time>
      </trkpt>
      <trkpt lat="44.63503" lon="-0.18323">
        <ele>71.7</ele>
        <time>2022-07-26T11:26:12Z</time>
      </trkpt>
      <trkpt lat="44.63504" lon="-0.1832">
        <ele>71.7</ele>
        <time>2022-07-26T11:26:13Z</time>
      </trkpt>
      <trkpt lat="44.63505" lon="-0.18319">
        <ele>71.7</ele>
        <time>2022-07-26T11:26:14Z</time>
      </trkpt>
      <trkpt lat="44.63506" lon="-0.18318">
        <ele>71.8</ele>
        <time>2022-07-26T11:26:15Z</time>
      </trkpt>
      <trkpt lat="44.63506" lon="-0.18316">
        <ele>71.8</ele>
        <time>2022-07-26T11:26:16Z</time>
      </trkpt>
      <trkpt lat="44.63507" lon="-0.18315">
        <ele>71.8</ele>
        <time>2022-07-26T11:26:17Z</time>
      </trkpt>
      <trkpt lat="44.63508" lon="-0.18312">
        <ele>71.9</ele>
        <time>2022-07-26T11:26:18Z</time>
      </trkpt>
      <trkpt lat="44.63509" lon="-0.1831">
        <ele>71.9</ele>
        <time>2022-07-26T11:26:20Z</time>
      </trkpt>
      <trkpt lat="44.6351" lon="-0.18309">
        <ele>72</ele>
        <time>2022-07-26T11:26:21Z</time>
      </trkpt>
      <trkpt lat="44.6351" lon="-0.18308">
        <ele>72</ele>
        <time>2022-07-26T11:26:22Z</time>
      </trkpt>
      <trkpt lat="44.63512" lon="-0.18305">
        <ele>72</ele>
        <time>2022-07-26T11:26:23Z</time>
      </trkpt>
      <trkpt lat="44.63512" lon="-0.18305">
        <ele>72</ele>
        <time>2022-07-26T11:26:24Z</time>
      </trkpt>
      <trkpt lat="44.63513" lon="-0.18303">
        <ele>72.1</ele>
        <time>2022-07-26T11:26:25Z</time>
      </trkpt>
      <trkpt lat="44.63513" lon="-0.18302">
        <ele>72.1</ele>
        <time>2022-07-26T11:26:26Z</time>
      </trkpt>
      <trkpt lat="44.63514" lon="-0.183">
        <ele>72.1</ele>
        <time>2022-07-26T11:26:27Z</time>
      </trkpt>
      <trkpt lat="44.63516" lon="-0.18298">
        <ele>72.2</ele>
        <time>2022-07-26T11:26:29Z</time>
      </trkpt>
      <trkpt lat="44.63516" lon="-0.18298">
        <ele>72.2</ele>
        <time>2022-07-26T11:26:30Z</time>
      </trkpt>
      <trkpt lat="44.63516" lon="-0.18299">
        <ele>72.2</ele>
        <time>2022-07-26T11:26:31Z</time>
      </trkpt>
      <trkpt lat="44.63516" lon="-0.18299">
        <ele>72.2</ele>
        <time>2022-07-26T11:26:32Z</time>
      </trkpt>
      <trkpt lat="44.63516" lon="-0.18299">
        <ele>72.2</ele>
        <time>2022-07-26T11:26:33Z</time>
      </trkpt>
      <trkpt lat="44.63516" lon="-0.18299">
        <ele>72.2</ele>
        <time>2022-07-26T11:26:34Z</time>
      </trkpt>
      <trkpt lat="44.63516" lon="-0.18299">
        <ele>72.2</ele>
        <time>2022-07-26T11:26:35Z</time>
      </trkpt>
      <trkpt lat="44.63515" lon="-0.183">
        <ele>72.2</ele>
        <time>2022-07-26T11:26:36Z</time>
      </trkpt>
      <trkpt lat="44.63515" lon="-0.183">
        <ele>72.2</ele>
        <time>2022-07-26T11:26:37Z</time>
      </trkpt>
      <trkpt lat="44.63515" lon="-0.183">
        <ele>72.2</ele>
        <time>2022-07-26T11:26:38Z</time>
      </trkpt>
      <trkpt lat="44.63515" lon="-0.183">
        <ele>72.2</ele>
        <time>2022-07-26T11:26:39Z</time>
      </trkpt>
      <trkpt lat="44.63515" lon="-0.183">
        <ele>72.2</ele>
        <time>2022-07-26T11:26:40Z</time>
      </trkpt>
      <trkpt lat="44.63516" lon="-0.18299">
        <ele>72.2</ele>
        <time>2022-07-26T11:26:41Z</time>
      </trkpt>
      <trkpt lat="44.63516" lon="-0.18297">
        <ele>72.3</ele>
        <time>2022-07-26T11:26:42Z</time>
      </trkpt>
      <trkpt lat="44.63517" lon="-0.18294">
        <ele>72.3</ele>
        <time>2022-07-26T11:26:43Z</time>
      </trkpt>
      <trkpt lat="44.63517" lon="-0.18293">
        <ele>72.3</ele>
        <time>2022-07-26T11:26:44Z</time>
      </trkpt>
      <trkpt lat="44.63517" lon="-0.18291">
        <ele>72.3</ele>
        <time>2022-07-26T11:26:45Z</time>
      </trkpt>
      <trkpt lat="44.63518" lon="-0.18289">
        <ele>72.4</ele>
        <time>2022-07-26T11:26:46Z</time>
      </trkpt>
      <trkpt lat="44.63519" lon="-0.18285">
        <ele>72.4</ele>
        <time>2022-07-26T11:26:48Z</time>
      </trkpt>
      <trkpt lat="44.6352" lon="-0.18284">
        <ele>72.4</ele>
        <time>2022-07-26T11:26:49Z</time>
      </trkpt>
      <trkpt lat="44.63521" lon="-0.18283">
        <ele>72.4</ele>
        <time>2022-07-26T11:26:50Z</time>
      </trkpt>
      <trkpt lat="44.63521" lon="-0.18281">
        <ele>72.4</ele>
        <time>2022-07-26T11:26:51Z</time>
      </trkpt>
      <trkpt lat="44.63522" lon="-0.18279">
        <ele>72.5</ele>
        <time>2022-07-26T11:26:52Z</time>
      </trkpt>
      <trkpt lat="44.63524" lon="-0.18277">
        <ele>72.5</ele>
        <time>2022-07-26T11:26:53Z</time>
      </trkpt>
      <trkpt lat="44.63524" lon="-0.18277">
        <ele>72.5</ele>
        <time>2022-07-26T11:26:54Z</time>
      </trkpt>
      <trkpt lat="44.63525" lon="-0.18276">
        <ele>72.5</ele>
        <time>2022-07-26T11:26:55Z</time>
      </trkpt>
      <trkpt lat="44.63525" lon="-0.18274">
        <ele>72.5</ele>
        <time>2022-07-26T11:26:56Z</time>
      </trkpt>
      <trkpt lat="44.63526" lon="-0.18272">
        <ele>72.5</ele>
        <time>2022-07-26T11:26:57Z</time>
      </trkpt>
      <trkpt lat="44.63527" lon="-0.1827">
        <ele>72.5</ele>
        <time>2022-07-26T11:26:58Z</time>
      </trkpt>
      <trkpt lat="44.63529" lon="-0.18268">
        <ele>72.5</ele>
        <time>2022-07-26T11:26:59Z</time>
      </trkpt>
      <trkpt lat="44.63529" lon="-0.18267">
        <ele>72.5</ele>
        <time>2022-07-26T11:27:01Z</time>
      </trkpt>
      <trkpt lat="44.6353" lon="-0.18266">
        <ele>72.5</ele>
        <time>2022-07-26T11:27:02Z</time>
      </trkpt>
      <trkpt lat="44.63532" lon="-0.18264">
        <ele>72.5</ele>
        <time>2022-07-26T11:27:03Z</time>
      </trkpt>
      <trkpt lat="44.63532" lon="-0.18263">
        <ele>72.5</ele>
        <time>2022-07-26T11:27:04Z</time>
      </trkpt>
      <trkpt lat="44.63533" lon="-0.18262">
        <ele>72.5</ele>
        <time>2022-07-26T11:27:05Z</time>
      </trkpt>
      <trkpt lat="44.63533" lon="-0.18261">
        <ele>72.5</ele>
        <time>2022-07-26T11:27:06Z</time>
      </trkpt>
      <trkpt lat="44.63533" lon="-0.18259">
        <ele>72.5</ele>
        <time>2022-07-26T11:27:07Z</time>
      </trkpt>
      <trkpt lat="44.63534" lon="-0.18257">
        <ele>72.5</ele>
        <time>2022-07-26T11:27:09Z</time>
      </trkpt>
      <trkpt lat="44.63535" lon="-0.18255">
        <ele>72.5</ele>
        <time>2022-07-26T11:27:10Z</time>
      </trkpt>
      <trkpt lat="44.63535" lon="-0.18253">
        <ele>72.5</ele>
        <time>2022-07-26T11:27:11Z</time>
      </trkpt>
      <trkpt lat="44.63536" lon="-0.18252">
        <ele>72.4</ele>
        <time>2022-07-26T11:27:12Z</time>
      </trkpt>
      <trkpt lat="44.63537" lon="-0.1825">
        <ele>72.4</ele>
        <time>2022-07-26T11:27:13Z</time>
      </trkpt>
      <trkpt lat="44.63537" lon="-0.18249">
        <ele>72.4</ele>
        <time>2022-07-26T11:27:14Z</time>
      </trkpt>
      <trkpt lat="44.63538" lon="-0.18248">
        <ele>72.4</ele>
        <time>2022-07-26T11:27:15Z</time>
      </trkpt>
      <trkpt lat="44.63539" lon="-0.18247">
        <ele>72.4</ele>
        <time>2022-07-26T11:27:16Z</time>
      </trkpt>
      <trkpt lat="44.6354" lon="-0.18246">
        <ele>72.3</ele>
        <time>2022-07-26T11:27:17Z</time>
      </trkpt>
      <trkpt lat="44.63541" lon="-0.18243">
        <ele>72.3</ele>
        <time>2022-07-26T11:27:18Z</time>
      </trkpt>
      <trkpt lat="44.63543" lon="-0.18241">
        <ele>72.2</ele>
        <time>2022-07-26T11:27:19Z</time>
      </trkpt>
      <trkpt lat="44.63543" lon="-0.1824">
        <ele>72.2</ele>
        <time>2022-07-26T11:27:20Z</time>
      </trkpt>
      <trkpt lat="44.63544" lon="-0.18239">
        <ele>72.2</ele>
        <time>2022-07-26T11:27:21Z</time>
      </trkpt>
      <trkpt lat="44.63546" lon="-0.18237">
        <ele>72.2</ele>
        <time>2022-07-26T11:27:23Z</time>
      </trkpt>
      <trkpt lat="44.63546" lon="-0.18236">
        <ele>72.1</ele>
        <time>2022-07-26T11:27:24Z</time>
      </trkpt>
      <trkpt lat="44.63547" lon="-0.18235">
        <ele>72.1</ele>
        <time>2022-07-26T11:27:25Z</time>
      </trkpt>
      <trkpt lat="44.63547" lon="-0.18233">
        <ele>72.1</ele>
        <time>2022-07-26T11:27:26Z</time>
      </trkpt>
      <trkpt lat="44.63548" lon="-0.18232">
        <ele>72.1</ele>
        <time>2022-07-26T11:27:27Z</time>
      </trkpt>
      <trkpt lat="44.63549" lon="-0.1823">
        <ele>72.1</ele>
        <time>2022-07-26T11:27:29Z</time>
      </trkpt>
      <trkpt lat="44.6355" lon="-0.18228">
        <ele>72.1</ele>
        <time>2022-07-26T11:27:30Z</time>
      </trkpt>
      <trkpt lat="44.6355" lon="-0.18227">
        <ele>72.1</ele>
        <time>2022-07-26T11:27:31Z</time>
      </trkpt>
      <trkpt lat="44.63553" lon="-0.18225">
        <ele>72.1</ele>
        <time>2022-07-26T11:27:33Z</time>
      </trkpt>
      <trkpt lat="44.63553" lon="-0.18224">
        <ele>72.1</ele>
        <time>2022-07-26T11:27:34Z</time>
      </trkpt>
      <trkpt lat="44.63554" lon="-0.18223">
        <ele>72.1</ele>
        <time>2022-07-26T11:27:35Z</time>
      </trkpt>
      <trkpt lat="44.63555" lon="-0.18222">
        <ele>72.1</ele>
        <time>2022-07-26T11:27:36Z</time>
      </trkpt>
      <trkpt lat="44.63558" lon="-0.1822">
        <ele>72.1</ele>
        <time>2022-07-26T11:27:38Z</time>
      </trkpt>
      <trkpt lat="44.63558" lon="-0.18219">
        <ele>72.1</ele>
        <time>2022-07-26T11:27:39Z</time>
      </trkpt>
      <trkpt lat="44.63559" lon="-0.18219">
        <ele>72.1</ele>
        <time>2022-07-26T11:27:40Z</time>
      </trkpt>
      <trkpt lat="44.6356" lon="-0.18218">
        <ele>72.1</ele>
        <time>2022-07-26T11:27:41Z</time>
      </trkpt>
      <trkpt lat="44.63564" lon="-0.18215">
        <ele>72.2</ele>
        <time>2022-07-26T11:27:43Z</time>
      </trkpt>
      <trkpt lat="44.63565" lon="-0.18215">
        <ele>72.2</ele>
        <time>2022-07-26T11:27:44Z</time>
      </trkpt>
      <trkpt lat="44.63565" lon="-0.18214">
        <ele>72.2</ele>
        <time>2022-07-26T11:27:45Z</time>
      </trkpt>
      <trkpt lat="44.63566" lon="-0.18214">
        <ele>72.2</ele>
        <time>2022-07-26T11:27:46Z</time>
      </trkpt>
      <trkpt lat="44.63567" lon="-0.18214">
        <ele>72.2</ele>
        <time>2022-07-26T11:27:47Z</time>
      </trkpt>
      <trkpt lat="44.63569" lon="-0.18212">
        <ele>72.3</ele>
        <time>2022-07-26T11:27:48Z</time>
      </trkpt>
      <trkpt lat="44.63569" lon="-0.18211">
        <ele>72.3</ele>
        <time>2022-07-26T11:27:49Z</time>
      </trkpt>
      <trkpt lat="44.6357" lon="-0.1821">
        <ele>72.3</ele>
        <time>2022-07-26T11:27:51Z</time>
      </trkpt>
      <trkpt lat="44.63572" lon="-0.18209">
        <ele>72.4</ele>
        <time>2022-07-26T11:27:52Z</time>
      </trkpt>
      <trkpt lat="44.63573" lon="-0.18208">
        <ele>72.4</ele>
        <time>2022-07-26T11:27:53Z</time>
      </trkpt>
      <trkpt lat="44.63575" lon="-0.18207">
        <ele>72.5</ele>
        <time>2022-07-26T11:27:54Z</time>
      </trkpt>
      <trkpt lat="44.63576" lon="-0.18206">
        <ele>72.5</ele>
        <time>2022-07-26T11:27:55Z</time>
      </trkpt>
      <trkpt lat="44.63577" lon="-0.18205">
        <ele>72.6</ele>
        <time>2022-07-26T11:27:56Z</time>
      </trkpt>
      <trkpt lat="44.63581" lon="-0.18202">
        <ele>72.8</ele>
        <time>2022-07-26T11:27:59Z</time>
      </trkpt>
      <trkpt lat="44.63582" lon="-0.18201">
        <ele>72.8</ele>
        <time>2022-07-26T11:28:00Z</time>
      </trkpt>
      <trkpt lat="44.63584" lon="-0.182">
        <ele>72.8</ele>
        <time>2022-07-26T11:28:01Z</time>
      </trkpt>
      <trkpt lat="44.63585" lon="-0.182">
        <ele>72.9</ele>
        <time>2022-07-26T11:28:02Z</time>
      </trkpt>
      <trkpt lat="44.63587" lon="-0.18199">
        <ele>72.9</ele>
        <time>2022-07-26T11:28:04Z</time>
      </trkpt>
      <trkpt lat="44.63589" lon="-0.18198">
        <ele>73</ele>
        <time>2022-07-26T11:28:05Z</time>
      </trkpt>
      <trkpt lat="44.6359" lon="-0.18198">
        <ele>73</ele>
        <time>2022-07-26T11:28:06Z</time>
      </trkpt>
      <trkpt lat="44.63591" lon="-0.18197">
        <ele>73</ele>
        <time>2022-07-26T11:28:07Z</time>
      </trkpt>
      <trkpt lat="44.63593" lon="-0.18196">
        <ele>73.1</ele>
        <time>2022-07-26T11:28:08Z</time>
      </trkpt>
      <trkpt lat="44.63594" lon="-0.18196">
        <ele>73.1</ele>
        <time>2022-07-26T11:28:09Z</time>
      </trkpt>
      <trkpt lat="44.63595" lon="-0.18195">
        <ele>73.1</ele>
        <time>2022-07-26T11:28:10Z</time>
      </trkpt>
      <trkpt lat="44.63596" lon="-0.18194">
        <ele>73.1</ele>
        <time>2022-07-26T11:28:11Z</time>
      </trkpt>
      <trkpt lat="44.63597" lon="-0.18194">
        <ele>73.1</ele>
        <time>2022-07-26T11:28:12Z</time>
      </trkpt>
      <trkpt lat="44.63599" lon="-0.18193">
        <ele>73.2</ele>
        <time>2022-07-26T11:28:13Z</time>
      </trkpt>
      <trkpt lat="44.636" lon="-0.18193">
        <ele>73.2</ele>
        <time>2022-07-26T11:28:14Z</time>
      </trkpt>
      <trkpt lat="44.63602" lon="-0.18192">
        <ele>73.3</ele>
        <time>2022-07-26T11:28:16Z</time>
      </trkpt>
      <trkpt lat="44.63603" lon="-0.18191">
        <ele>73.3</ele>
        <time>2022-07-26T11:28:17Z</time>
      </trkpt>
      <trkpt lat="44.63604" lon="-0.18191">
        <ele>73.4</ele>
        <time>2022-07-26T11:28:18Z</time>
      </trkpt>
      <trkpt lat="44.63605" lon="-0.1819">
        <ele>73.4</ele>
        <time>2022-07-26T11:28:19Z</time>
      </trkpt>
      <trkpt lat="44.63606" lon="-0.18189">
        <ele>73.5</ele>
        <time>2022-07-26T11:28:20Z</time>
      </trkpt>
      <trkpt lat="44.63608" lon="-0.18189">
        <ele>73.5</ele>
        <time>2022-07-26T11:28:21Z</time>
      </trkpt>
      <trkpt lat="44.63609" lon="-0.18188">
        <ele>73.6</ele>
        <time>2022-07-26T11:28:22Z</time>
      </trkpt>
      <trkpt lat="44.63611" lon="-0.18187">
        <ele>73.7</ele>
        <time>2022-07-26T11:28:24Z</time>
      </trkpt>
      <trkpt lat="44.63612" lon="-0.18187">
        <ele>73.7</ele>
        <time>2022-07-26T11:28:25Z</time>
      </trkpt>
      <trkpt lat="44.63613" lon="-0.18187">
        <ele>73.8</ele>
        <time>2022-07-26T11:28:26Z</time>
      </trkpt>
      <trkpt lat="44.63615" lon="-0.18186">
        <ele>73.9</ele>
        <time>2022-07-26T11:28:27Z</time>
      </trkpt>
      <trkpt lat="44.63617" lon="-0.18185">
        <ele>74</ele>
        <time>2022-07-26T11:28:28Z</time>
      </trkpt>
      <trkpt lat="44.63618" lon="-0.18185">
        <ele>74</ele>
        <time>2022-07-26T11:28:29Z</time>
      </trkpt>
      <trkpt lat="44.63618" lon="-0.18185">
        <ele>74</ele>
        <time>2022-07-26T11:28:30Z</time>
      </trkpt>
      <trkpt lat="44.63619" lon="-0.18184">
        <ele>74.1</ele>
        <time>2022-07-26T11:28:31Z</time>
      </trkpt>
      <trkpt lat="44.63621" lon="-0.18184">
        <ele>74.1</ele>
        <time>2022-07-26T11:28:32Z</time>
      </trkpt>
      <trkpt lat="44.63623" lon="-0.18183">
        <ele>74.2</ele>
        <time>2022-07-26T11:28:33Z</time>
      </trkpt>
      <trkpt lat="44.63624" lon="-0.18182">
        <ele>74.2</ele>
        <time>2022-07-26T11:28:34Z</time>
      </trkpt>
      <trkpt lat="44.63626" lon="-0.18182">
        <ele>74.3</ele>
        <time>2022-07-26T11:28:35Z</time>
      </trkpt>
      <trkpt lat="44.63627" lon="-0.18181">
        <ele>74.3</ele>
        <time>2022-07-26T11:28:36Z</time>
      </trkpt>
      <trkpt lat="44.63627" lon="-0.18181">
        <ele>74.4</ele>
        <time>2022-07-26T11:28:37Z</time>
      </trkpt>
      <trkpt lat="44.6363" lon="-0.1818">
        <ele>74.4</ele>
        <time>2022-07-26T11:28:39Z</time>
      </trkpt>
      <trkpt lat="44.63631" lon="-0.1818">
        <ele>74.4</ele>
        <time>2022-07-26T11:28:40Z</time>
      </trkpt>
      <trkpt lat="44.63633" lon="-0.18179">
        <ele>74.5</ele>
        <time>2022-07-26T11:28:41Z</time>
      </trkpt>
      <trkpt lat="44.63634" lon="-0.18178">
        <ele>74.5</ele>
        <time>2022-07-26T11:28:42Z</time>
      </trkpt>
      <trkpt lat="44.63635" lon="-0.18178">
        <ele>74.5</ele>
        <time>2022-07-26T11:28:43Z</time>
      </trkpt>
      <trkpt lat="44.63636" lon="-0.18178">
        <ele>74.6</ele>
        <time>2022-07-26T11:28:44Z</time>
      </trkpt>
      <trkpt lat="44.63638" lon="-0.18177">
        <ele>74.6</ele>
        <time>2022-07-26T11:28:46Z</time>
      </trkpt>
      <trkpt lat="44.63639" lon="-0.18177">
        <ele>74.6</ele>
        <time>2022-07-26T11:28:47Z</time>
      </trkpt>
      <trkpt lat="44.63641" lon="-0.18176">
        <ele>74.6</ele>
        <time>2022-07-26T11:28:48Z</time>
      </trkpt>
      <trkpt lat="44.63643" lon="-0.18176">
        <ele>74.7</ele>
        <time>2022-07-26T11:28:49Z</time>
      </trkpt>
      <trkpt lat="44.63644" lon="-0.18176">
        <ele>74.7</ele>
        <time>2022-07-26T11:28:51Z</time>
      </trkpt>
      <trkpt lat="44.63645" lon="-0.18175">
        <ele>74.7</ele>
        <time>2022-07-26T11:28:52Z</time>
      </trkpt>
      <trkpt lat="44.63647" lon="-0.18174">
        <ele>74.7</ele>
        <time>2022-07-26T11:28:54Z</time>
      </trkpt>
      <trkpt lat="44.63648" lon="-0.18173">
        <ele>74.7</ele>
        <time>2022-07-26T11:28:55Z</time>
      </trkpt>
      <trkpt lat="44.63649" lon="-0.18173">
        <ele>74.7</ele>
        <time>2022-07-26T11:28:56Z</time>
      </trkpt>
      <trkpt lat="44.63649" lon="-0.18172">
        <ele>74.7</ele>
        <time>2022-07-26T11:28:57Z</time>
      </trkpt>
      <trkpt lat="44.6365" lon="-0.18171">
        <ele>74.7</ele>
        <time>2022-07-26T11:28:58Z</time>
      </trkpt>
      <trkpt lat="44.63651" lon="-0.1817">
        <ele>74.7</ele>
        <time>2022-07-26T11:28:59Z</time>
      </trkpt>
      <trkpt lat="44.63652" lon="-0.18169">
        <ele>74.7</ele>
        <time>2022-07-26T11:29:00Z</time>
      </trkpt>
      <trkpt lat="44.63653" lon="-0.18169">
        <ele>74.7</ele>
        <time>2022-07-26T11:29:01Z</time>
      </trkpt>
      <trkpt lat="44.63655" lon="-0.18168">
        <ele>74.7</ele>
        <time>2022-07-26T11:29:02Z</time>
      </trkpt>
      <trkpt lat="44.63655" lon="-0.18167">
        <ele>74.7</ele>
        <time>2022-07-26T11:29:03Z</time>
      </trkpt>
      <trkpt lat="44.63656" lon="-0.18166">
        <ele>74.7</ele>
        <time>2022-07-26T11:29:04Z</time>
      </trkpt>
      <trkpt lat="44.63658" lon="-0.18165">
        <ele>74.7</ele>
        <time>2022-07-26T11:29:06Z</time>
      </trkpt>
      <trkpt lat="44.63659" lon="-0.18164">
        <ele>74.7</ele>
        <time>2022-07-26T11:29:07Z</time>
      </trkpt>
      <trkpt lat="44.6366" lon="-0.18164">
        <ele>74.7</ele>
        <time>2022-07-26T11:29:08Z</time>
      </trkpt>
      <trkpt lat="44.63662" lon="-0.18162">
        <ele>74.7</ele>
        <time>2022-07-26T11:29:10Z</time>
      </trkpt>
      <trkpt lat="44.63663" lon="-0.18161">
        <ele>74.6</ele>
        <time>2022-07-26T11:29:11Z</time>
      </trkpt>
      <trkpt lat="44.63664" lon="-0.1816">
        <ele>74.6</ele>
        <time>2022-07-26T11:29:12Z</time>
      </trkpt>
      <trkpt lat="44.63665" lon="-0.18159">
        <ele>74.6</ele>
        <time>2022-07-26T11:29:13Z</time>
      </trkpt>
      <trkpt lat="44.63666" lon="-0.18158">
        <ele>74.6</ele>
        <time>2022-07-26T11:29:14Z</time>
      </trkpt>
      <trkpt lat="44.63667" lon="-0.18157">
        <ele>74.6</ele>
        <time>2022-07-26T11:29:15Z</time>
      </trkpt>
      <trkpt lat="44.63667" lon="-0.18155">
        <ele>74.6</ele>
        <time>2022-07-26T11:29:16Z</time>
      </trkpt>
      <trkpt lat="44.63667" lon="-0.18153">
        <ele>74.6</ele>
        <time>2022-07-26T11:29:17Z</time>
      </trkpt>
      <trkpt lat="44.63667" lon="-0.18152">
        <ele>74.6</ele>
        <time>2022-07-26T11:29:18Z</time>
      </trkpt>
      <trkpt lat="44.63668" lon="-0.1815">
        <ele>74.6</ele>
        <time>2022-07-26T11:29:19Z</time>
      </trkpt>
      <trkpt lat="44.63668" lon="-0.18149">
        <ele>74.7</ele>
        <time>2022-07-26T11:29:20Z</time>
      </trkpt>
      <trkpt lat="44.63668" lon="-0.18148">
        <ele>74.7</ele>
        <time>2022-07-26T11:29:21Z</time>
      </trkpt>
      <trkpt lat="44.63669" lon="-0.18147">
        <ele>74.7</ele>
        <time>2022-07-26T11:29:23Z</time>
      </trkpt>
      <trkpt lat="44.63669" lon="-0.18147">
        <ele>74.7</ele>
        <time>2022-07-26T11:29:24Z</time>
      </trkpt>
      <trkpt lat="44.6367" lon="-0.18145">
        <ele>74.7</ele>
        <time>2022-07-26T11:29:25Z</time>
      </trkpt>
      <trkpt lat="44.63671" lon="-0.18143">
        <ele>74.7</ele>
        <time>2022-07-26T11:29:26Z</time>
      </trkpt>
      <trkpt lat="44.63672" lon="-0.1814">
        <ele>74.7</ele>
        <time>2022-07-26T11:29:27Z</time>
      </trkpt>
      <trkpt lat="44.63673" lon="-0.18139">
        <ele>74.7</ele>
        <time>2022-07-26T11:29:28Z</time>
      </trkpt>
      <trkpt lat="44.63674" lon="-0.18138">
        <ele>74.7</ele>
        <time>2022-07-26T11:29:29Z</time>
      </trkpt>
      <trkpt lat="44.63675" lon="-0.18136">
        <ele>74.8</ele>
        <time>2022-07-26T11:29:31Z</time>
      </trkpt>
      <trkpt lat="44.63675" lon="-0.18134">
        <ele>74.8</ele>
        <time>2022-07-26T11:29:32Z</time>
      </trkpt>
      <trkpt lat="44.63676" lon="-0.18133">
        <ele>74.8</ele>
        <time>2022-07-26T11:29:33Z</time>
      </trkpt>
      <trkpt lat="44.63677" lon="-0.18132">
        <ele>74.8</ele>
        <time>2022-07-26T11:29:34Z</time>
      </trkpt>
      <trkpt lat="44.63677" lon="-0.18131">
        <ele>74.8</ele>
        <time>2022-07-26T11:29:35Z</time>
      </trkpt>
      <trkpt lat="44.63677" lon="-0.1813">
        <ele>74.8</ele>
        <time>2022-07-26T11:29:36Z</time>
      </trkpt>
      <trkpt lat="44.63678" lon="-0.18129">
        <ele>74.8</ele>
        <time>2022-07-26T11:29:37Z</time>
      </trkpt>
      <trkpt lat="44.63678" lon="-0.18128">
        <ele>74.8</ele>
        <time>2022-07-26T11:29:38Z</time>
      </trkpt>
      <trkpt lat="44.63679" lon="-0.18125">
        <ele>74.8</ele>
        <time>2022-07-26T11:29:39Z</time>
      </trkpt>
      <trkpt lat="44.63679" lon="-0.18124">
        <ele>74.8</ele>
        <time>2022-07-26T11:29:41Z</time>
      </trkpt>
      <trkpt lat="44.6368" lon="-0.18123">
        <ele>74.7</ele>
        <time>2022-07-26T11:29:42Z</time>
      </trkpt>
      <trkpt lat="44.6368" lon="-0.18121">
        <ele>74.7</ele>
        <time>2022-07-26T11:29:43Z</time>
      </trkpt>
      <trkpt lat="44.63679" lon="-0.18119">
        <ele>74.7</ele>
        <time>2022-07-26T11:29:45Z</time>
      </trkpt>
      <trkpt lat="44.63679" lon="-0.18117">
        <ele>74.7</ele>
        <time>2022-07-26T11:29:46Z</time>
      </trkpt>
      <trkpt lat="44.63678" lon="-0.18116">
        <ele>74.7</ele>
        <time>2022-07-26T11:29:47Z</time>
      </trkpt>
      <trkpt lat="44.63678" lon="-0.18117">
        <ele>74.7</ele>
        <time>2022-07-26T11:29:48Z</time>
      </trkpt>
      <trkpt lat="44.63678" lon="-0.18117">
        <ele>74.7</ele>
        <time>2022-07-26T11:29:49Z</time>
      </trkpt>
      <trkpt lat="44.63678" lon="-0.18118">
        <ele>74.7</ele>
        <time>2022-07-26T11:29:50Z</time>
      </trkpt>
      <trkpt lat="44.63678" lon="-0.18118">
        <ele>74.7</ele>
        <time>2022-07-26T11:29:51Z</time>
      </trkpt>
      <trkpt lat="44.63678" lon="-0.18118">
        <ele>74.7</ele>
        <time>2022-07-26T11:29:52Z</time>
      </trkpt>
      <trkpt lat="44.63678" lon="-0.18119">
        <ele>74.7</ele>
        <time>2022-07-26T11:29:53Z</time>
      </trkpt>
      <trkpt lat="44.63678" lon="-0.18119">
        <ele>74.7</ele>
        <time>2022-07-26T11:29:54Z</time>
      </trkpt>
      <trkpt lat="44.63678" lon="-0.18119">
        <ele>74.7</ele>
        <time>2022-07-26T11:29:55Z</time>
      </trkpt>
      <trkpt lat="44.63678" lon="-0.18119">
        <ele>74.7</ele>
        <time>2022-07-26T11:29:56Z</time>
      </trkpt>
      <trkpt lat="44.63678" lon="-0.18119">
        <ele>74.7</ele>
        <time>2022-07-26T11:29:57Z</time>
      </trkpt>
      <trkpt lat="44.63678" lon="-0.18119">
        <ele>74.7</ele>
        <time>2022-07-26T11:29:58Z</time>
      </trkpt>
      <trkpt lat="44.63678" lon="-0.18119">
        <ele>74.7</ele>
        <time>2022-07-26T11:29:59Z</time>
      </trkpt>
      <trkpt lat="44.63677" lon="-0.1812">
        <ele>74.7</ele>
        <time>2022-07-26T11:30:00Z</time>
      </trkpt>
      <trkpt lat="44.63677" lon="-0.1812">
        <ele>74.7</ele>
        <time>2022-07-26T11:30:01Z</time>
      </trkpt>
      <trkpt lat="44.63677" lon="-0.1812">
        <ele>74.7</ele>
        <time>2022-07-26T11:30:02Z</time>
      </trkpt>
      <trkpt lat="44.63677" lon="-0.1812">
        <ele>74.7</ele>
        <time>2022-07-26T11:30:03Z</time>
      </trkpt>
      <trkpt lat="44.63677" lon="-0.1812">
        <ele>74.7</ele>
        <time>2022-07-26T11:30:04Z</time>
      </trkpt>
      <trkpt lat="44.63678" lon="-0.18119">
        <ele>74.7</ele>
        <time>2022-07-26T11:30:05Z</time>
      </trkpt>
      <trkpt lat="44.63678" lon="-0.18118">
        <ele>74.7</ele>
        <time>2022-07-26T11:30:06Z</time>
      </trkpt>
      <trkpt lat="44.63678" lon="-0.18117">
        <ele>74.7</ele>
        <time>2022-07-26T11:30:07Z</time>
      </trkpt>
      <trkpt lat="44.63678" lon="-0.18115">
        <ele>74.7</ele>
        <time>2022-07-26T11:30:08Z</time>
      </trkpt>
      <trkpt lat="44.63678" lon="-0.18112">
        <ele>74.7</ele>
        <time>2022-07-26T11:30:10Z</time>
      </trkpt>
      <trkpt lat="44.63678" lon="-0.1811">
        <ele>74.7</ele>
        <time>2022-07-26T11:30:11Z</time>
      </trkpt>
      <trkpt lat="44.63678" lon="-0.18107">
        <ele>74.7</ele>
        <time>2022-07-26T11:30:12Z</time>
      </trkpt>
      <trkpt lat="44.63678" lon="-0.18106">
        <ele>74.7</ele>
        <time>2022-07-26T11:30:13Z</time>
      </trkpt>
      <trkpt lat="44.63678" lon="-0.18104">
        <ele>74.7</ele>
        <time>2022-07-26T11:30:14Z</time>
      </trkpt>
      <trkpt lat="44.63678" lon="-0.18103">
        <ele>74.7</ele>
        <time>2022-07-26T11:30:15Z</time>
      </trkpt>
      <trkpt lat="44.63678" lon="-0.18101">
        <ele>74.7</ele>
        <time>2022-07-26T11:30:16Z</time>
      </trkpt>
      <trkpt lat="44.63678" lon="-0.18099">
        <ele>74.7</ele>
        <time>2022-07-26T11:30:17Z</time>
      </trkpt>
      <trkpt lat="44.63678" lon="-0.18096">
        <ele>74.7</ele>
        <time>2022-07-26T11:30:19Z</time>
      </trkpt>
      <trkpt lat="44.63678" lon="-0.18095">
        <ele>74.7</ele>
        <time>2022-07-26T11:30:20Z</time>
      </trkpt>
      <trkpt lat="44.63679" lon="-0.18094">
        <ele>74.8</ele>
        <time>2022-07-26T11:30:21Z</time>
      </trkpt>
      <trkpt lat="44.63679" lon="-0.18093">
        <ele>74.8</ele>
        <time>2022-07-26T11:30:22Z</time>
      </trkpt>
      <trkpt lat="44.63679" lon="-0.18091">
        <ele>74.8</ele>
        <time>2022-07-26T11:30:23Z</time>
      </trkpt>
      <trkpt lat="44.63679" lon="-0.18089">
        <ele>74.8</ele>
        <time>2022-07-26T11:30:24Z</time>
      </trkpt>
      <trkpt lat="44.63679" lon="-0.18088">
        <ele>74.8</ele>
        <time>2022-07-26T11:30:25Z</time>
      </trkpt>
      <trkpt lat="44.63678" lon="-0.18086">
        <ele>74.8</ele>
        <time>2022-07-26T11:30:26Z</time>
      </trkpt>
      <trkpt lat="44.63678" lon="-0.18083">
        <ele>74.9</ele>
        <time>2022-07-26T11:30:28Z</time>
      </trkpt>
      <trkpt lat="44.63678" lon="-0.18081">
        <ele>74.9</ele>
        <time>2022-07-26T11:30:29Z</time>
      </trkpt>
      <trkpt lat="44.63678" lon="-0.18079">
        <ele>74.9</ele>
        <time>2022-07-26T11:30:30Z</time>
      </trkpt>
      <trkpt lat="44.63678" lon="-0.18078">
        <ele>74.9</ele>
        <time>2022-07-26T11:30:31Z</time>
      </trkpt>
      <trkpt lat="44.63678" lon="-0.18077">
        <ele>74.9</ele>
        <time>2022-07-26T11:30:32Z</time>
      </trkpt>
      <trkpt lat="44.63678" lon="-0.18076">
        <ele>74.9</ele>
        <time>2022-07-26T11:30:33Z</time>
      </trkpt>
      <trkpt lat="44.63678" lon="-0.18074">
        <ele>74.9</ele>
        <time>2022-07-26T11:30:34Z</time>
      </trkpt>
      <trkpt lat="44.63678" lon="-0.18073">
        <ele>74.9</ele>
        <time>2022-07-26T11:30:35Z</time>
      </trkpt>
      <trkpt lat="44.63678" lon="-0.18071">
        <ele>75</ele>
        <time>2022-07-26T11:30:36Z</time>
      </trkpt>
      <trkpt lat="44.63677" lon="-0.18068">
        <ele>75</ele>
        <time>2022-07-26T11:30:37Z</time>
      </trkpt>
      <trkpt lat="44.63677" lon="-0.18067">
        <ele>75</ele>
        <time>2022-07-26T11:30:38Z</time>
      </trkpt>
      <trkpt lat="44.63677" lon="-0.18065">
        <ele>75</ele>
        <time>2022-07-26T11:30:39Z</time>
      </trkpt>
      <trkpt lat="44.63677" lon="-0.18064">
        <ele>75.1</ele>
        <time>2022-07-26T11:30:40Z</time>
      </trkpt>
      <trkpt lat="44.63677" lon="-0.18062">
        <ele>75.1</ele>
        <time>2022-07-26T11:30:41Z</time>
      </trkpt>
      <trkpt lat="44.63677" lon="-0.18061">
        <ele>75.1</ele>
        <time>2022-07-26T11:30:42Z</time>
      </trkpt>
      <trkpt lat="44.63677" lon="-0.18058">
        <ele>75.1</ele>
        <time>2022-07-26T11:30:43Z</time>
      </trkpt>
      <trkpt lat="44.63677" lon="-0.18057">
        <ele>75.2</ele>
        <time>2022-07-26T11:30:44Z</time>
      </trkpt>
      <trkpt lat="44.63677" lon="-0.18055">
        <ele>75.2</ele>
        <time>2022-07-26T11:30:45Z</time>
      </trkpt>
      <trkpt lat="44.63677" lon="-0.18053">
        <ele>75.2</ele>
        <time>2022-07-26T11:30:46Z</time>
      </trkpt>
      <trkpt lat="44.63678" lon="-0.18052">
        <ele>75.2</ele>
        <time>2022-07-26T11:30:47Z</time>
      </trkpt>
      <trkpt lat="44.63678" lon="-0.1805">
        <ele>75.3</ele>
        <time>2022-07-26T11:30:48Z</time>
      </trkpt>
      <trkpt lat="44.63678" lon="-0.18048">
        <ele>75.3</ele>
        <time>2022-07-26T11:30:49Z</time>
      </trkpt>
      <trkpt lat="44.63678" lon="-0.18046">
        <ele>75.3</ele>
        <time>2022-07-26T11:30:50Z</time>
      </trkpt>
      <trkpt lat="44.63678" lon="-0.18045">
        <ele>75.3</ele>
        <time>2022-07-26T11:30:51Z</time>
      </trkpt>
      <trkpt lat="44.63677" lon="-0.18043">
        <ele>75.3</ele>
        <time>2022-07-26T11:30:52Z</time>
      </trkpt>
      <trkpt lat="44.63677" lon="-0.18042">
        <ele>75.3</ele>
        <time>2022-07-26T11:30:53Z</time>
      </trkpt>
      <trkpt lat="44.63677" lon="-0.18039">
        <ele>75.3</ele>
        <time>2022-07-26T11:30:54Z</time>
      </trkpt>
      <trkpt lat="44.63677" lon="-0.18038">
        <ele>75.3</ele>
        <time>2022-07-26T11:30:55Z</time>
      </trkpt>
      <trkpt lat="44.63677" lon="-0.18036">
        <ele>75.3</ele>
        <time>2022-07-26T11:30:56Z</time>
      </trkpt>
      <trkpt lat="44.63677" lon="-0.18035">
        <ele>75.3</ele>
        <time>2022-07-26T11:30:57Z</time>
      </trkpt>
      <trkpt lat="44.63677" lon="-0.1803">
        <ele>75.3</ele>
        <time>2022-07-26T11:30:59Z</time>
      </trkpt>
      <trkpt lat="44.63677" lon="-0.18029">
        <ele>75.3</ele>
        <time>2022-07-26T11:31:00Z</time>
      </trkpt>
      <trkpt lat="44.63677" lon="-0.18028">
        <ele>75.3</ele>
        <time>2022-07-26T11:31:01Z</time>
      </trkpt>
      <trkpt lat="44.63677" lon="-0.18026">
        <ele>75.3</ele>
        <time>2022-07-26T11:31:02Z</time>
      </trkpt>
      <trkpt lat="44.63677" lon="-0.18024">
        <ele>75.2</ele>
        <time>2022-07-26T11:31:03Z</time>
      </trkpt>
      <trkpt lat="44.63676" lon="-0.18022">
        <ele>75.2</ele>
        <time>2022-07-26T11:31:04Z</time>
      </trkpt>
      <trkpt lat="44.63676" lon="-0.1802">
        <ele>75.2</ele>
        <time>2022-07-26T11:31:05Z</time>
      </trkpt>
      <trkpt lat="44.63676" lon="-0.18019">
        <ele>75.2</ele>
        <time>2022-07-26T11:31:06Z</time>
      </trkpt>
      <trkpt lat="44.63676" lon="-0.18017">
        <ele>75.2</ele>
        <time>2022-07-26T11:31:07Z</time>
      </trkpt>
      <trkpt lat="44.63676" lon="-0.18015">
        <ele>75.1</ele>
        <time>2022-07-26T11:31:08Z</time>
      </trkpt>
      <trkpt lat="44.63676" lon="-0.18012">
        <ele>75.1</ele>
        <time>2022-07-26T11:31:09Z</time>
      </trkpt>
      <trkpt lat="44.63675" lon="-0.18011">
        <ele>75.1</ele>
        <time>2022-07-26T11:31:10Z</time>
      </trkpt>
      <trkpt lat="44.63675" lon="-0.18009">
        <ele>75.1</ele>
        <time>2022-07-26T11:31:11Z</time>
      </trkpt>
      <trkpt lat="44.63675" lon="-0.18006">
        <ele>75.1</ele>
        <time>2022-07-26T11:31:13Z</time>
      </trkpt>
      <trkpt lat="44.63675" lon="-0.18003">
        <ele>75.1</ele>
        <time>2022-07-26T11:31:14Z</time>
      </trkpt>
      <trkpt lat="44.63675" lon="-0.18002">
        <ele>75.1</ele>
        <time>2022-07-26T11:31:15Z</time>
      </trkpt>
      <trkpt lat="44.63675" lon="-0.17999">
        <ele>75.1</ele>
        <time>2022-07-26T11:31:16Z</time>
      </trkpt>
      <trkpt lat="44.63675" lon="-0.17998">
        <ele>75.1</ele>
        <time>2022-07-26T11:31:17Z</time>
      </trkpt>
      <trkpt lat="44.63675" lon="-0.17997">
        <ele>75.1</ele>
        <time>2022-07-26T11:31:18Z</time>
      </trkpt>
      <trkpt lat="44.63674" lon="-0.17994">
        <ele>75.2</ele>
        <time>2022-07-26T11:31:19Z</time>
      </trkpt>
      <trkpt lat="44.63674" lon="-0.17993">
        <ele>75.2</ele>
        <time>2022-07-26T11:31:21Z</time>
      </trkpt>
      <trkpt lat="44.63674" lon="-0.17991">
        <ele>75.2</ele>
        <time>2022-07-26T11:31:22Z</time>
      </trkpt>
      <trkpt lat="44.63674" lon="-0.17989">
        <ele>75.2</ele>
        <time>2022-07-26T11:31:23Z</time>
      </trkpt>
      <trkpt lat="44.63674" lon="-0.17987">
        <ele>75.2</ele>
        <time>2022-07-26T11:31:24Z</time>
      </trkpt>
      <trkpt lat="44.63674" lon="-0.17984">
        <ele>75.2</ele>
        <time>2022-07-26T11:31:25Z</time>
      </trkpt>
      <trkpt lat="44.63674" lon="-0.17983">
        <ele>75.2</ele>
        <time>2022-07-26T11:31:26Z</time>
      </trkpt>
      <trkpt lat="44.63674" lon="-0.17981">
        <ele>75.2</ele>
        <time>2022-07-26T11:31:27Z</time>
      </trkpt>
      <trkpt lat="44.63674" lon="-0.17976">
        <ele>75.2</ele>
        <time>2022-07-26T11:31:29Z</time>
      </trkpt>
      <trkpt lat="44.63674" lon="-0.17974">
        <ele>75.3</ele>
        <time>2022-07-26T11:31:31Z</time>
      </trkpt>
      <trkpt lat="44.63674" lon="-0.17972">
        <ele>75.3</ele>
        <time>2022-07-26T11:31:32Z</time>
      </trkpt>
      <trkpt lat="44.63674" lon="-0.1797">
        <ele>75.3</ele>
        <time>2022-07-26T11:31:33Z</time>
      </trkpt>
      <trkpt lat="44.63674" lon="-0.17967">
        <ele>75.3</ele>
        <time>2022-07-26T11:31:34Z</time>
      </trkpt>
      <trkpt lat="44.63674" lon="-0.17966">
        <ele>75.3</ele>
        <time>2022-07-26T11:31:35Z</time>
      </trkpt>
      <trkpt lat="44.63674" lon="-0.17965">
        <ele>75.3</ele>
        <time>2022-07-26T11:31:36Z</time>
      </trkpt>
      <trkpt lat="44.63674" lon="-0.17963">
        <ele>75.3</ele>
        <time>2022-07-26T11:31:37Z</time>
      </trkpt>
      <trkpt lat="44.63674" lon="-0.17961">
        <ele>75.4</ele>
        <time>2022-07-26T11:31:38Z</time>
      </trkpt>
      <trkpt lat="44.63674" lon="-0.17957">
        <ele>75.4</ele>
        <time>2022-07-26T11:31:40Z</time>
      </trkpt>
      <trkpt lat="44.63674" lon="-0.17954">
        <ele>75.5</ele>
        <time>2022-07-26T11:31:41Z</time>
      </trkpt>
      <trkpt lat="44.63673" lon="-0.17953">
        <ele>75.5</ele>
        <time>2022-07-26T11:31:42Z</time>
      </trkpt>
      <trkpt lat="44.63673" lon="-0.17952">
        <ele>75.6</ele>
        <time>2022-07-26T11:31:43Z</time>
      </trkpt>
      <trkpt lat="44.63674" lon="-0.17947">
        <ele>75.6</ele>
        <time>2022-07-26T11:31:45Z</time>
      </trkpt>
      <trkpt lat="44.63674" lon="-0.17947">
        <ele>75.7</ele>
        <time>2022-07-26T11:31:46Z</time>
      </trkpt>
      <trkpt lat="44.63674" lon="-0.17943">
        <ele>75.7</ele>
        <time>2022-07-26T11:31:47Z</time>
      </trkpt>
      <trkpt lat="44.63674" lon="-0.17942">
        <ele>75.8</ele>
        <time>2022-07-26T11:31:48Z</time>
      </trkpt>
      <trkpt lat="44.63674" lon="-0.1794">
        <ele>75.8</ele>
        <time>2022-07-26T11:31:49Z</time>
      </trkpt>
      <trkpt lat="44.63674" lon="-0.17938">
        <ele>75.8</ele>
        <time>2022-07-26T11:31:51Z</time>
      </trkpt>
      <trkpt lat="44.63674" lon="-0.17936">
        <ele>75.9</ele>
        <time>2022-07-26T11:31:52Z</time>
      </trkpt>
      <trkpt lat="44.63674" lon="-0.17934">
        <ele>75.9</ele>
        <time>2022-07-26T11:31:53Z</time>
      </trkpt>
      <trkpt lat="44.63673" lon="-0.17931">
        <ele>75.9</ele>
        <time>2022-07-26T11:31:54Z</time>
      </trkpt>
      <trkpt lat="44.63673" lon="-0.1793">
        <ele>76</ele>
        <time>2022-07-26T11:31:55Z</time>
      </trkpt>
      <trkpt lat="44.63673" lon="-0.17928">
        <ele>76</ele>
        <time>2022-07-26T11:31:56Z</time>
      </trkpt>
      <trkpt lat="44.63672" lon="-0.17927">
        <ele>76</ele>
        <time>2022-07-26T11:31:57Z</time>
      </trkpt>
      <trkpt lat="44.63672" lon="-0.17925">
        <ele>76</ele>
        <time>2022-07-26T11:31:58Z</time>
      </trkpt>
      <trkpt lat="44.63672" lon="-0.17922">
        <ele>76</ele>
        <time>2022-07-26T11:31:59Z</time>
      </trkpt>
      <trkpt lat="44.63672" lon="-0.17921">
        <ele>76</ele>
        <time>2022-07-26T11:32:00Z</time>
      </trkpt>
      <trkpt lat="44.63672" lon="-0.17919">
        <ele>76</ele>
        <time>2022-07-26T11:32:01Z</time>
      </trkpt>
      <trkpt lat="44.63671" lon="-0.17917">
        <ele>76</ele>
        <time>2022-07-26T11:32:02Z</time>
      </trkpt>
      <trkpt lat="44.63671" lon="-0.17916">
        <ele>76</ele>
        <time>2022-07-26T11:32:03Z</time>
      </trkpt>
      <trkpt lat="44.63671" lon="-0.17913">
        <ele>76</ele>
        <time>2022-07-26T11:32:04Z</time>
      </trkpt>
      <trkpt lat="44.63671" lon="-0.17912">
        <ele>76</ele>
        <time>2022-07-26T11:32:05Z</time>
      </trkpt>
      <trkpt lat="44.63671" lon="-0.17911">
        <ele>76.1</ele>
        <time>2022-07-26T11:32:06Z</time>
      </trkpt>
      <trkpt lat="44.63671" lon="-0.17909">
        <ele>76.1</ele>
        <time>2022-07-26T11:32:07Z</time>
      </trkpt>
      <trkpt lat="44.63671" lon="-0.17907">
        <ele>76.1</ele>
        <time>2022-07-26T11:32:08Z</time>
      </trkpt>
      <trkpt lat="44.63671" lon="-0.17904">
        <ele>76.1</ele>
        <time>2022-07-26T11:32:10Z</time>
      </trkpt>
      <trkpt lat="44.63671" lon="-0.17902">
        <ele>76.1</ele>
        <time>2022-07-26T11:32:11Z</time>
      </trkpt>
      <trkpt lat="44.63671" lon="-0.179">
        <ele>76.1</ele>
        <time>2022-07-26T11:32:12Z</time>
      </trkpt>
      <trkpt lat="44.63671" lon="-0.17898">
        <ele>76.1</ele>
        <time>2022-07-26T11:32:13Z</time>
      </trkpt>
      <trkpt lat="44.63671" lon="-0.17895">
        <ele>76.2</ele>
        <time>2022-07-26T11:32:15Z</time>
      </trkpt>
      <trkpt lat="44.63671" lon="-0.17892">
        <ele>76.2</ele>
        <time>2022-07-26T11:32:16Z</time>
      </trkpt>
      <trkpt lat="44.63671" lon="-0.17891">
        <ele>76.2</ele>
        <time>2022-07-26T11:32:17Z</time>
      </trkpt>
      <trkpt lat="44.63671" lon="-0.17889">
        <ele>76.2</ele>
        <time>2022-07-26T11:32:18Z</time>
      </trkpt>
      <trkpt lat="44.6367" lon="-0.17885">
        <ele>76.3</ele>
        <time>2022-07-26T11:32:20Z</time>
      </trkpt>
      <trkpt lat="44.6367" lon="-0.17884">
        <ele>76.3</ele>
        <time>2022-07-26T11:32:21Z</time>
      </trkpt>
      <trkpt lat="44.6367" lon="-0.17882">
        <ele>76.3</ele>
        <time>2022-07-26T11:32:22Z</time>
      </trkpt>
      <trkpt lat="44.6367" lon="-0.1788">
        <ele>76.3</ele>
        <time>2022-07-26T11:32:23Z</time>
      </trkpt>
      <trkpt lat="44.6367" lon="-0.17877">
        <ele>76.4</ele>
        <time>2022-07-26T11:32:24Z</time>
      </trkpt>
      <trkpt lat="44.6367" lon="-0.17876">
        <ele>76.4</ele>
        <time>2022-07-26T11:32:25Z</time>
      </trkpt>
      <trkpt lat="44.6367" lon="-0.17875">
        <ele>76.4</ele>
        <time>2022-07-26T11:32:26Z</time>
      </trkpt>
      <trkpt lat="44.63669" lon="-0.17872">
        <ele>76.4</ele>
        <time>2022-07-26T11:32:27Z</time>
      </trkpt>
      <trkpt lat="44.63669" lon="-0.17871">
        <ele>76.4</ele>
        <time>2022-07-26T11:32:29Z</time>
      </trkpt>
      <trkpt lat="44.63669" lon="-0.17868">
        <ele>76.4</ele>
        <time>2022-07-26T11:32:30Z</time>
      </trkpt>
      <trkpt lat="44.63669" lon="-0.17866">
        <ele>76.4</ele>
        <time>2022-07-26T11:32:31Z</time>
      </trkpt>
      <trkpt lat="44.63668" lon="-0.17862">
        <ele>76.4</ele>
        <time>2022-07-26T11:32:33Z</time>
      </trkpt>
      <trkpt lat="44.63668" lon="-0.17861">
        <ele>76.5</ele>
        <time>2022-07-26T11:32:34Z</time>
      </trkpt>
      <trkpt lat="44.63668" lon="-0.17858">
        <ele>76.5</ele>
        <time>2022-07-26T11:32:35Z</time>
      </trkpt>
      <trkpt lat="44.63667" lon="-0.17857">
        <ele>76.5</ele>
        <time>2022-07-26T11:32:36Z</time>
      </trkpt>
      <trkpt lat="44.63667" lon="-0.17852">
        <ele>76.5</ele>
        <time>2022-07-26T11:32:38Z</time>
      </trkpt>
      <trkpt lat="44.63667" lon="-0.17851">
        <ele>76.5</ele>
        <time>2022-07-26T11:32:39Z</time>
      </trkpt>
      <trkpt lat="44.63667" lon="-0.17849">
        <ele>76.5</ele>
        <time>2022-07-26T11:32:40Z</time>
      </trkpt>
      <trkpt lat="44.63667" lon="-0.17848">
        <ele>76.5</ele>
        <time>2022-07-26T11:32:41Z</time>
      </trkpt>
      <trkpt lat="44.63667" lon="-0.17846">
        <ele>76.5</ele>
        <time>2022-07-26T11:32:42Z</time>
      </trkpt>
      <trkpt lat="44.63667" lon="-0.17843">
        <ele>76.5</ele>
        <time>2022-07-26T11:32:44Z</time>
      </trkpt>
      <trkpt lat="44.63667" lon="-0.17841">
        <ele>76.6</ele>
        <time>2022-07-26T11:32:45Z</time>
      </trkpt>
      <trkpt lat="44.63667" lon="-0.17839">
        <ele>76.6</ele>
        <time>2022-07-26T11:32:46Z</time>
      </trkpt>
      <trkpt lat="44.63667" lon="-0.17835">
        <ele>76.7</ele>
        <time>2022-07-26T11:32:47Z</time>
      </trkpt>
      <trkpt lat="44.63667" lon="-0.17834">
        <ele>76.7</ele>
        <time>2022-07-26T11:32:48Z</time>
      </trkpt>
      <trkpt lat="44.63667" lon="-0.17833">
        <ele>76.7</ele>
        <time>2022-07-26T11:32:49Z</time>
      </trkpt>
      <trkpt lat="44.63668" lon="-0.1783">
        <ele>76.8</ele>
        <time>2022-07-26T11:32:50Z</time>
      </trkpt>
      <trkpt lat="44.63668" lon="-0.17829">
        <ele>76.8</ele>
        <time>2022-07-26T11:32:51Z</time>
      </trkpt>
      <trkpt lat="44.63668" lon="-0.17828">
        <ele>76.9</ele>
        <time>2022-07-26T11:32:52Z</time>
      </trkpt>
      <trkpt lat="44.63668" lon="-0.17826">
        <ele>76.9</ele>
        <time>2022-07-26T11:32:53Z</time>
      </trkpt>
      <trkpt lat="44.63668" lon="-0.17824">
        <ele>77</ele>
        <time>2022-07-26T11:32:54Z</time>
      </trkpt>
      <trkpt lat="44.63668" lon="-0.17822">
        <ele>77.1</ele>
        <time>2022-07-26T11:32:56Z</time>
      </trkpt>
      <trkpt lat="44.63668" lon="-0.1782">
        <ele>77.1</ele>
        <time>2022-07-26T11:32:57Z</time>
      </trkpt>
      <trkpt lat="44.63667" lon="-0.17819">
        <ele>77.2</ele>
        <time>2022-07-26T11:32:58Z</time>
      </trkpt>
      <trkpt lat="44.63666" lon="-0.17816">
        <ele>77.3</ele>
        <time>2022-07-26T11:33:00Z</time>
      </trkpt>
      <trkpt lat="44.63666" lon="-0.17815">
        <ele>77.4</ele>
        <time>2022-07-26T11:33:01Z</time>
      </trkpt>
      <trkpt lat="44.63665" lon="-0.17814">
        <ele>77.5</ele>
        <time>2022-07-26T11:33:02Z</time>
      </trkpt>
      <trkpt lat="44.63664" lon="-0.17813">
        <ele>77.6</ele>
        <time>2022-07-26T11:33:03Z</time>
      </trkpt>
      <trkpt lat="44.63663" lon="-0.17813">
        <ele>77.6</ele>
        <time>2022-07-26T11:33:04Z</time>
      </trkpt>
      <trkpt lat="44.63662" lon="-0.17812">
        <ele>77.7</ele>
        <time>2022-07-26T11:33:05Z</time>
      </trkpt>
      <trkpt lat="44.63662" lon="-0.17814">
        <ele>77.7</ele>
        <time>2022-07-26T11:33:06Z</time>
      </trkpt>
      <trkpt lat="44.63662" lon="-0.17814">
        <ele>77.8</ele>
        <time>2022-07-26T11:33:07Z</time>
      </trkpt>
      <trkpt lat="44.63662" lon="-0.17814">
        <ele>77.8</ele>
        <time>2022-07-26T11:33:08Z</time>
      </trkpt>
      <trkpt lat="44.63662" lon="-0.17814">
        <ele>77.8</ele>
        <time>2022-07-26T11:33:09Z</time>
      </trkpt>
      <trkpt lat="44.63661" lon="-0.17815">
        <ele>77.8</ele>
        <time>2022-07-26T11:33:10Z</time>
      </trkpt>
      <trkpt lat="44.63662" lon="-0.17815">
        <ele>77.8</ele>
        <time>2022-07-26T11:33:11Z</time>
      </trkpt>
      <trkpt lat="44.63662" lon="-0.17815">
        <ele>77.8</ele>
        <time>2022-07-26T11:33:12Z</time>
      </trkpt>
      <trkpt lat="44.63662" lon="-0.17815">
        <ele>77.8</ele>
        <time>2022-07-26T11:33:13Z</time>
      </trkpt>
      <trkpt lat="44.63662" lon="-0.17815">
        <ele>77.8</ele>
        <time>2022-07-26T11:33:14Z</time>
      </trkpt>
      <trkpt lat="44.63661" lon="-0.17815">
        <ele>77.8</ele>
        <time>2022-07-26T11:33:15Z</time>
      </trkpt>
      <trkpt lat="44.63661" lon="-0.17815">
        <ele>77.8</ele>
        <time>2022-07-26T11:33:16Z</time>
      </trkpt>
      <trkpt lat="44.63661" lon="-0.17814">
        <ele>77.9</ele>
        <time>2022-07-26T11:33:17Z</time>
      </trkpt>
      <trkpt lat="44.63661" lon="-0.17812">
        <ele>77.9</ele>
        <time>2022-07-26T11:33:18Z</time>
      </trkpt>
      <trkpt lat="44.6366" lon="-0.1781">
        <ele>78</ele>
        <time>2022-07-26T11:33:19Z</time>
      </trkpt>
      <trkpt lat="44.6366" lon="-0.17807">
        <ele>78</ele>
        <time>2022-07-26T11:33:21Z</time>
      </trkpt>
      <trkpt lat="44.6366" lon="-0.17805">
        <ele>78</ele>
        <time>2022-07-26T11:33:22Z</time>
      </trkpt>
      <trkpt lat="44.63661" lon="-0.17803">
        <ele>78</ele>
        <time>2022-07-26T11:33:23Z</time>
      </trkpt>
      <trkpt lat="44.63661" lon="-0.17801">
        <ele>77.9</ele>
        <time>2022-07-26T11:33:24Z</time>
      </trkpt>
      <trkpt lat="44.63662" lon="-0.17799">
        <ele>77.9</ele>
        <time>2022-07-26T11:33:25Z</time>
      </trkpt>
      <trkpt lat="44.63663" lon="-0.17797">
        <ele>77.9</ele>
        <time>2022-07-26T11:33:26Z</time>
      </trkpt>
      <trkpt lat="44.63663" lon="-0.17794">
        <ele>77.9</ele>
        <time>2022-07-26T11:33:28Z</time>
      </trkpt>
      <trkpt lat="44.63664" lon="-0.17792">
        <ele>77.9</ele>
        <time>2022-07-26T11:33:29Z</time>
      </trkpt>
      <trkpt lat="44.63664" lon="-0.17789">
        <ele>77.9</ele>
        <time>2022-07-26T11:33:30Z</time>
      </trkpt>
      <trkpt lat="44.63664" lon="-0.17788">
        <ele>77.9</ele>
        <time>2022-07-26T11:33:31Z</time>
      </trkpt>
      <trkpt lat="44.63664" lon="-0.17785">
        <ele>77.8</ele>
        <time>2022-07-26T11:33:32Z</time>
      </trkpt>
      <trkpt lat="44.63665" lon="-0.17781">
        <ele>77.8</ele>
        <time>2022-07-26T11:33:34Z</time>
      </trkpt>
      <trkpt lat="44.63665" lon="-0.1778">
        <ele>77.8</ele>
        <time>2022-07-26T11:33:35Z</time>
      </trkpt>
      <trkpt lat="44.63666" lon="-0.17779">
        <ele>77.8</ele>
        <time>2022-07-26T11:33:36Z</time>
      </trkpt>
      <trkpt lat="44.63666" lon="-0.17777">
        <ele>77.8</ele>
        <time>2022-07-26T11:33:37Z</time>
      </trkpt>
      <trkpt lat="44.63667" lon="-0.17774">
        <ele>77.8</ele>
        <time>2022-07-26T11:33:39Z</time>
      </trkpt>
      <trkpt lat="44.63667" lon="-0.17772">
        <ele>77.8</ele>
        <time>2022-07-26T11:33:40Z</time>
      </trkpt>
      <trkpt lat="44.63667" lon="-0.1777">
        <ele>77.8</ele>
        <time>2022-07-26T11:33:41Z</time>
      </trkpt>
      <trkpt lat="44.63667" lon="-0.17769">
        <ele>77.8</ele>
        <time>2022-07-26T11:33:42Z</time>
      </trkpt>
      <trkpt lat="44.63667" lon="-0.17766">
        <ele>77.8</ele>
        <time>2022-07-26T11:33:43Z</time>
      </trkpt>
      <trkpt lat="44.63668" lon="-0.17764">
        <ele>77.8</ele>
        <time>2022-07-26T11:33:44Z</time>
      </trkpt>
      <trkpt lat="44.63668" lon="-0.17763">
        <ele>77.8</ele>
        <time>2022-07-26T11:33:45Z</time>
      </trkpt>
      <trkpt lat="44.63668" lon="-0.17761">
        <ele>77.8</ele>
        <time>2022-07-26T11:33:46Z</time>
      </trkpt>
      <trkpt lat="44.63668" lon="-0.1776">
        <ele>77.8</ele>
        <time>2022-07-26T11:33:47Z</time>
      </trkpt>
      <trkpt lat="44.63669" lon="-0.17759">
        <ele>77.8</ele>
        <time>2022-07-26T11:33:48Z</time>
      </trkpt>
      <trkpt lat="44.63669" lon="-0.17755">
        <ele>77.8</ele>
        <time>2022-07-26T11:33:49Z</time>
      </trkpt>
      <trkpt lat="44.63669" lon="-0.17754">
        <ele>77.9</ele>
        <time>2022-07-26T11:33:50Z</time>
      </trkpt>
      <trkpt lat="44.63669" lon="-0.17753">
        <ele>77.9</ele>
        <time>2022-07-26T11:33:51Z</time>
      </trkpt>
      <trkpt lat="44.63669" lon="-0.17751">
        <ele>77.9</ele>
        <time>2022-07-26T11:33:52Z</time>
      </trkpt>
      <trkpt lat="44.63669" lon="-0.17749">
        <ele>77.9</ele>
        <time>2022-07-26T11:33:53Z</time>
      </trkpt>
      <trkpt lat="44.63669" lon="-0.17747">
        <ele>77.9</ele>
        <time>2022-07-26T11:33:54Z</time>
      </trkpt>
      <trkpt lat="44.63669" lon="-0.17746">
        <ele>77.9</ele>
        <time>2022-07-26T11:33:55Z</time>
      </trkpt>
      <trkpt lat="44.6367" lon="-0.17744">
        <ele>77.9</ele>
        <time>2022-07-26T11:33:56Z</time>
      </trkpt>
      <trkpt lat="44.6367" lon="-0.17743">
        <ele>77.9</ele>
        <time>2022-07-26T11:33:57Z</time>
      </trkpt>
      <trkpt lat="44.6367" lon="-0.17741">
        <ele>77.9</ele>
        <time>2022-07-26T11:33:58Z</time>
      </trkpt>
      <trkpt lat="44.63671" lon="-0.1774">
        <ele>77.9</ele>
        <time>2022-07-26T11:33:59Z</time>
      </trkpt>
      <trkpt lat="44.63671" lon="-0.17737">
        <ele>78</ele>
        <time>2022-07-26T11:34:00Z</time>
      </trkpt>
      <trkpt lat="44.63671" lon="-0.17734">
        <ele>78</ele>
        <time>2022-07-26T11:34:01Z</time>
      </trkpt>
      <trkpt lat="44.63671" lon="-0.17733">
        <ele>78</ele>
        <time>2022-07-26T11:34:03Z</time>
      </trkpt>
      <trkpt lat="44.63672" lon="-0.17732">
        <ele>78</ele>
        <time>2022-07-26T11:34:04Z</time>
      </trkpt>
      <trkpt lat="44.63672" lon="-0.17728">
        <ele>78</ele>
        <time>2022-07-26T11:34:05Z</time>
      </trkpt>
      <trkpt lat="44.63672" lon="-0.17727">
        <ele>78</ele>
        <time>2022-07-26T11:34:06Z</time>
      </trkpt>
      <trkpt lat="44.63673" lon="-0.17726">
        <ele>78.1</ele>
        <time>2022-07-26T11:34:07Z</time>
      </trkpt>
      <trkpt lat="44.63673" lon="-0.17725">
        <ele>78.1</ele>
        <time>2022-07-26T11:34:08Z</time>
      </trkpt>
      <trkpt lat="44.63674" lon="-0.17723">
        <ele>78.1</ele>
        <time>2022-07-26T11:34:09Z</time>
      </trkpt>
      <trkpt lat="44.63674" lon="-0.1772">
        <ele>78.1</ele>
        <time>2022-07-26T11:34:11Z</time>
      </trkpt>
      <trkpt lat="44.63675" lon="-0.17717">
        <ele>78.1</ele>
        <time>2022-07-26T11:34:12Z</time>
      </trkpt>
      <trkpt lat="44.63675" lon="-0.17716">
        <ele>78.2</ele>
        <time>2022-07-26T11:34:13Z</time>
      </trkpt>
      <trkpt lat="44.63675" lon="-0.17715">
        <ele>78.2</ele>
        <time>2022-07-26T11:34:14Z</time>
      </trkpt>
      <trkpt lat="44.63675" lon="-0.17712">
        <ele>78.2</ele>
        <time>2022-07-26T11:34:15Z</time>
      </trkpt>
      <trkpt lat="44.63675" lon="-0.17711">
        <ele>78.2</ele>
        <time>2022-07-26T11:34:16Z</time>
      </trkpt>
      <trkpt lat="44.63676" lon="-0.17708">
        <ele>78.2</ele>
        <time>2022-07-26T11:34:18Z</time>
      </trkpt>
      <trkpt lat="44.63676" lon="-0.17706">
        <ele>78.3</ele>
        <time>2022-07-26T11:34:19Z</time>
      </trkpt>
      <trkpt lat="44.63676" lon="-0.17703">
        <ele>78.3</ele>
        <time>2022-07-26T11:34:20Z</time>
      </trkpt>
      <trkpt lat="44.63676" lon="-0.17702">
        <ele>78.3</ele>
        <time>2022-07-26T11:34:21Z</time>
      </trkpt>
      <trkpt lat="44.63676" lon="-0.17701">
        <ele>78.3</ele>
        <time>2022-07-26T11:34:22Z</time>
      </trkpt>
      <trkpt lat="44.63677" lon="-0.17699">
        <ele>78.3</ele>
        <time>2022-07-26T11:34:23Z</time>
      </trkpt>
      <trkpt lat="44.63677" lon="-0.17697">
        <ele>78.4</ele>
        <time>2022-07-26T11:34:24Z</time>
      </trkpt>
      <trkpt lat="44.63678" lon="-0.17696">
        <ele>78.4</ele>
        <time>2022-07-26T11:34:25Z</time>
      </trkpt>
      <trkpt lat="44.63678" lon="-0.17694">
        <ele>78.4</ele>
        <time>2022-07-26T11:34:27Z</time>
      </trkpt>
      <trkpt lat="44.63678" lon="-0.17692">
        <ele>78.5</ele>
        <time>2022-07-26T11:34:28Z</time>
      </trkpt>
      <trkpt lat="44.63679" lon="-0.1769">
        <ele>78.5</ele>
        <time>2022-07-26T11:34:29Z</time>
      </trkpt>
      <trkpt lat="44.63679" lon="-0.17688">
        <ele>78.5</ele>
        <time>2022-07-26T11:34:30Z</time>
      </trkpt>
      <trkpt lat="44.63679" lon="-0.17685">
        <ele>78.6</ele>
        <time>2022-07-26T11:34:32Z</time>
      </trkpt>
      <trkpt lat="44.6368" lon="-0.17683">
        <ele>78.6</ele>
        <time>2022-07-26T11:34:33Z</time>
      </trkpt>
      <trkpt lat="44.6368" lon="-0.17682">
        <ele>78.6</ele>
        <time>2022-07-26T11:34:34Z</time>
      </trkpt>
      <trkpt lat="44.63681" lon="-0.17679">
        <ele>78.7</ele>
        <time>2022-07-26T11:34:35Z</time>
      </trkpt>
      <trkpt lat="44.63681" lon="-0.17678">
        <ele>78.7</ele>
        <time>2022-07-26T11:34:36Z</time>
      </trkpt>
      <trkpt lat="44.63682" lon="-0.17675">
        <ele>78.8</ele>
        <time>2022-07-26T11:34:38Z</time>
      </trkpt>
      <trkpt lat="44.63683" lon="-0.17674">
        <ele>78.8</ele>
        <time>2022-07-26T11:34:39Z</time>
      </trkpt>
      <trkpt lat="44.63684" lon="-0.17671">
        <ele>78.9</ele>
        <time>2022-07-26T11:34:40Z</time>
      </trkpt>
      <trkpt lat="44.63684" lon="-0.1767">
        <ele>78.9</ele>
        <time>2022-07-26T11:34:41Z</time>
      </trkpt>
      <trkpt lat="44.63684" lon="-0.17667">
        <ele>78.9</ele>
        <time>2022-07-26T11:34:42Z</time>
      </trkpt>
      <trkpt lat="44.63684" lon="-0.17666">
        <ele>79</ele>
        <time>2022-07-26T11:34:43Z</time>
      </trkpt>
      <trkpt lat="44.63685" lon="-0.17665">
        <ele>79</ele>
        <time>2022-07-26T11:34:44Z</time>
      </trkpt>
      <trkpt lat="44.63685" lon="-0.17662">
        <ele>79</ele>
        <time>2022-07-26T11:34:45Z</time>
      </trkpt>
      <trkpt lat="44.63685" lon="-0.17661">
        <ele>79.1</ele>
        <time>2022-07-26T11:34:46Z</time>
      </trkpt>
      <trkpt lat="44.63686" lon="-0.1766">
        <ele>79.1</ele>
        <time>2022-07-26T11:34:47Z</time>
      </trkpt>
      <trkpt lat="44.63686" lon="-0.17658">
        <ele>79.1</ele>
        <time>2022-07-26T11:34:48Z</time>
      </trkpt>
      <trkpt lat="44.63685" lon="-0.17656">
        <ele>79.2</ele>
        <time>2022-07-26T11:34:50Z</time>
      </trkpt>
      <trkpt lat="44.63686" lon="-0.17653">
        <ele>79.3</ele>
        <time>2022-07-26T11:34:51Z</time>
      </trkpt>
      <trkpt lat="44.63686" lon="-0.17652">
        <ele>79.3</ele>
        <time>2022-07-26T11:34:52Z</time>
      </trkpt>
      <trkpt lat="44.63687" lon="-0.17649">
        <ele>79.4</ele>
        <time>2022-07-26T11:34:53Z</time>
      </trkpt>
      <trkpt lat="44.63688" lon="-0.17648">
        <ele>79.5</ele>
        <time>2022-07-26T11:34:54Z</time>
      </trkpt>
      <trkpt lat="44.63688" lon="-0.17647">
        <ele>79.5</ele>
        <time>2022-07-26T11:34:55Z</time>
      </trkpt>
      <trkpt lat="44.63689" lon="-0.17646">
        <ele>79.5</ele>
        <time>2022-07-26T11:34:56Z</time>
      </trkpt>
      <trkpt lat="44.6369" lon="-0.17645">
        <ele>79.6</ele>
        <time>2022-07-26T11:34:57Z</time>
      </trkpt>
      <trkpt lat="44.63691" lon="-0.17643">
        <ele>79.7</ele>
        <time>2022-07-26T11:34:58Z</time>
      </trkpt>
      <trkpt lat="44.63691" lon="-0.17641">
        <ele>79.7</ele>
        <time>2022-07-26T11:34:59Z</time>
      </trkpt>
      <trkpt lat="44.63692" lon="-0.17639">
        <ele>79.8</ele>
        <time>2022-07-26T11:35:00Z</time>
      </trkpt>
      <trkpt lat="44.63692" lon="-0.17638">
        <ele>79.9</ele>
        <time>2022-07-26T11:35:01Z</time>
      </trkpt>
      <trkpt lat="44.63693" lon="-0.17636">
        <ele>79.9</ele>
        <time>2022-07-26T11:35:02Z</time>
      </trkpt>
      <trkpt lat="44.63693" lon="-0.17634">
        <ele>80</ele>
        <time>2022-07-26T11:35:04Z</time>
      </trkpt>
      <trkpt lat="44.63693" lon="-0.17633">
        <ele>80</ele>
        <time>2022-07-26T11:35:05Z</time>
      </trkpt>
      <trkpt lat="44.63694" lon="-0.17631">
        <ele>80.1</ele>
        <time>2022-07-26T11:35:06Z</time>
      </trkpt>
      <trkpt lat="44.63695" lon="-0.17628">
        <ele>80.2</ele>
        <time>2022-07-26T11:35:07Z</time>
      </trkpt>
      <trkpt lat="44.63695" lon="-0.17627">
        <ele>80.2</ele>
        <time>2022-07-26T11:35:09Z</time>
      </trkpt>
      <trkpt lat="44.63696" lon="-0.17626">
        <ele>80.3</ele>
        <time>2022-07-26T11:35:10Z</time>
      </trkpt>
      <trkpt lat="44.63696" lon="-0.17624">
        <ele>80.3</ele>
        <time>2022-07-26T11:35:11Z</time>
      </trkpt>
      <trkpt lat="44.63696" lon="-0.17622">
        <ele>80.4</ele>
        <time>2022-07-26T11:35:12Z</time>
      </trkpt>
      <trkpt lat="44.63696" lon="-0.17619">
        <ele>80.5</ele>
        <time>2022-07-26T11:35:13Z</time>
      </trkpt>
      <trkpt lat="44.63697" lon="-0.17618">
        <ele>80.5</ele>
        <time>2022-07-26T11:35:14Z</time>
      </trkpt>
      <trkpt lat="44.63697" lon="-0.17616">
        <ele>80.6</ele>
        <time>2022-07-26T11:35:15Z</time>
      </trkpt>
      <trkpt lat="44.63696" lon="-0.17615">
        <ele>80.6</ele>
        <time>2022-07-26T11:35:16Z</time>
      </trkpt>
      <trkpt lat="44.63696" lon="-0.17614">
        <ele>80.3</ele>
        <time>2022-07-26T11:35:17Z</time>
      </trkpt>
      <trkpt lat="44.63695" lon="-0.17612">
        <ele>80.2</ele>
        <time>2022-07-26T11:35:18Z</time>
      </trkpt>
      <trkpt lat="44.63694" lon="-0.17611">
        <ele>80.1</ele>
        <time>2022-07-26T11:35:19Z</time>
      </trkpt>
      <trkpt lat="44.63693" lon="-0.1761">
        <ele>80</ele>
        <time>2022-07-26T11:35:20Z</time>
      </trkpt>
      <trkpt lat="44.63692" lon="-0.17609">
        <ele>79.8</ele>
        <time>2022-07-26T11:35:22Z</time>
      </trkpt>
      <trkpt lat="44.63689" lon="-0.17608">
        <ele>79.6</ele>
        <time>2022-07-26T11:35:23Z</time>
      </trkpt>
      <trkpt lat="44.63688" lon="-0.17608">
        <ele>79.5</ele>
        <time>2022-07-26T11:35:24Z</time>
      </trkpt>
      <trkpt lat="44.63686" lon="-0.17609">
        <ele>79.4</ele>
        <time>2022-07-26T11:35:25Z</time>
      </trkpt>
      <trkpt lat="44.63685" lon="-0.17609">
        <ele>79.3</ele>
        <time>2022-07-26T11:35:26Z</time>
      </trkpt>
      <trkpt lat="44.63684" lon="-0.17609">
        <ele>79.1</ele>
        <time>2022-07-26T11:35:27Z</time>
      </trkpt>
      <trkpt lat="44.63682" lon="-0.1761">
        <ele>79</ele>
        <time>2022-07-26T11:35:28Z</time>
      </trkpt>
      <trkpt lat="44.63681" lon="-0.17611">
        <ele>78.9</ele>
        <time>2022-07-26T11:35:29Z</time>
      </trkpt>
      <trkpt lat="44.63678" lon="-0.17613">
        <ele>78.6</ele>
        <time>2022-07-26T11:35:31Z</time>
      </trkpt>
      <trkpt lat="44.63677" lon="-0.17613">
        <ele>78.6</ele>
        <time>2022-07-26T11:35:32Z</time>
      </trkpt>
      <trkpt lat="44.63675" lon="-0.17614">
        <ele>78.4</ele>
        <time>2022-07-26T11:35:33Z</time>
      </trkpt>
      <trkpt lat="44.63674" lon="-0.17614">
        <ele>78.3</ele>
        <time>2022-07-26T11:35:34Z</time>
      </trkpt>
      <trkpt lat="44.63673" lon="-0.17615">
        <ele>78.2</ele>
        <time>2022-07-26T11:35:35Z</time>
      </trkpt>
      <trkpt lat="44.63672" lon="-0.17615">
        <ele>78.1</ele>
        <time>2022-07-26T11:35:36Z</time>
      </trkpt>
      <trkpt lat="44.63671" lon="-0.17616">
        <ele>78</ele>
        <time>2022-07-26T11:35:37Z</time>
      </trkpt>
      <trkpt lat="44.63669" lon="-0.17617">
        <ele>77.9</ele>
        <time>2022-07-26T11:35:39Z</time>
      </trkpt>
      <trkpt lat="44.63668" lon="-0.17617">
        <ele>77.8</ele>
        <time>2022-07-26T11:35:40Z</time>
      </trkpt>
      <trkpt lat="44.63666" lon="-0.17618">
        <ele>77.6</ele>
        <time>2022-07-26T11:35:41Z</time>
      </trkpt>
      <trkpt lat="44.63665" lon="-0.17618">
        <ele>77.5</ele>
        <time>2022-07-26T11:35:42Z</time>
      </trkpt>
      <trkpt lat="44.63663" lon="-0.17619">
        <ele>77.4</ele>
        <time>2022-07-26T11:35:43Z</time>
      </trkpt>
      <trkpt lat="44.63662" lon="-0.17619">
        <ele>77.3</ele>
        <time>2022-07-26T11:35:44Z</time>
      </trkpt>
      <trkpt lat="44.6366" lon="-0.1762">
        <ele>77.1</ele>
        <time>2022-07-26T11:35:45Z</time>
      </trkpt>
      <trkpt lat="44.63659" lon="-0.1762">
        <ele>77.1</ele>
        <time>2022-07-26T11:35:46Z</time>
      </trkpt>
      <trkpt lat="44.63658" lon="-0.17621">
        <ele>77</ele>
        <time>2022-07-26T11:35:47Z</time>
      </trkpt>
      <trkpt lat="44.63657" lon="-0.17621">
        <ele>76.9</ele>
        <time>2022-07-26T11:35:48Z</time>
      </trkpt>
      <trkpt lat="44.63655" lon="-0.17621">
        <ele>76.8</ele>
        <time>2022-07-26T11:35:50Z</time>
      </trkpt>
      <trkpt lat="44.63654" lon="-0.17621">
        <ele>76.7</ele>
        <time>2022-07-26T11:35:51Z</time>
      </trkpt>
      <trkpt lat="44.63653" lon="-0.17621">
        <ele>76.7</ele>
        <time>2022-07-26T11:35:52Z</time>
      </trkpt>
      <trkpt lat="44.63652" lon="-0.17622">
        <ele>76.6</ele>
        <time>2022-07-26T11:35:53Z</time>
      </trkpt>
      <trkpt lat="44.63651" lon="-0.17622">
        <ele>76.5</ele>
        <time>2022-07-26T11:35:54Z</time>
      </trkpt>
      <trkpt lat="44.63649" lon="-0.17622">
        <ele>76.4</ele>
        <time>2022-07-26T11:35:55Z</time>
      </trkpt>
      <trkpt lat="44.63648" lon="-0.17622">
        <ele>76.4</ele>
        <time>2022-07-26T11:35:56Z</time>
      </trkpt>
      <trkpt lat="44.63647" lon="-0.17623">
        <ele>76.3</ele>
        <time>2022-07-26T11:35:57Z</time>
      </trkpt>
      <trkpt lat="44.63646" lon="-0.17623">
        <ele>76.2</ele>
        <time>2022-07-26T11:35:58Z</time>
      </trkpt>
      <trkpt lat="44.63643" lon="-0.17625">
        <ele>76.1</ele>
        <time>2022-07-26T11:36:00Z</time>
      </trkpt>
      <trkpt lat="44.63641" lon="-0.17625">
        <ele>75.9</ele>
        <time>2022-07-26T11:36:01Z</time>
      </trkpt>
      <trkpt lat="44.63641" lon="-0.17626">
        <ele>75.9</ele>
        <time>2022-07-26T11:36:02Z</time>
      </trkpt>
      <trkpt lat="44.6364" lon="-0.17626">
        <ele>75.8</ele>
        <time>2022-07-26T11:36:03Z</time>
      </trkpt>
      <trkpt lat="44.63637" lon="-0.17627">
        <ele>75.7</ele>
        <time>2022-07-26T11:36:05Z</time>
      </trkpt>
      <trkpt lat="44.63636" lon="-0.17627">
        <ele>75.6</ele>
        <time>2022-07-26T11:36:06Z</time>
      </trkpt>
      <trkpt lat="44.63635" lon="-0.17627">
        <ele>75.6</ele>
        <time>2022-07-26T11:36:08Z</time>
      </trkpt>
      <trkpt lat="44.63633" lon="-0.17628">
        <ele>75.5</ele>
        <time>2022-07-26T11:36:09Z</time>
      </trkpt>
      <trkpt lat="44.63632" lon="-0.17628">
        <ele>75.4</ele>
        <time>2022-07-26T11:36:10Z</time>
      </trkpt>
      <trkpt lat="44.63631" lon="-0.17629">
        <ele>75.4</ele>
        <time>2022-07-26T11:36:11Z</time>
      </trkpt>
      <trkpt lat="44.6363" lon="-0.17629">
        <ele>75.3</ele>
        <time>2022-07-26T11:36:12Z</time>
      </trkpt>
      <trkpt lat="44.63628" lon="-0.17629">
        <ele>75.2</ele>
        <time>2022-07-26T11:36:13Z</time>
      </trkpt>
      <trkpt lat="44.63627" lon="-0.17629">
        <ele>75.1</ele>
        <time>2022-07-26T11:36:14Z</time>
      </trkpt>
      <trkpt lat="44.63626" lon="-0.17629">
        <ele>75.1</ele>
        <time>2022-07-26T11:36:15Z</time>
      </trkpt>
      <trkpt lat="44.63625" lon="-0.17628">
        <ele>75</ele>
        <time>2022-07-26T11:36:16Z</time>
      </trkpt>
      <trkpt lat="44.63623" lon="-0.17628">
        <ele>74.9</ele>
        <time>2022-07-26T11:36:18Z</time>
      </trkpt>
      <trkpt lat="44.6362" lon="-0.17628">
        <ele>74.8</ele>
        <time>2022-07-26T11:36:19Z</time>
      </trkpt>
      <trkpt lat="44.63619" lon="-0.17628">
        <ele>74.8</ele>
        <time>2022-07-26T11:36:20Z</time>
      </trkpt>
      <trkpt lat="44.63618" lon="-0.17628">
        <ele>74.7</ele>
        <time>2022-07-26T11:36:21Z</time>
      </trkpt>
      <trkpt lat="44.63617" lon="-0.17628">
        <ele>74.6</ele>
        <time>2022-07-26T11:36:22Z</time>
      </trkpt>
      <trkpt lat="44.63614" lon="-0.17628">
        <ele>74.5</ele>
        <time>2022-07-26T11:36:24Z</time>
      </trkpt>
      <trkpt lat="44.63612" lon="-0.17628">
        <ele>74.4</ele>
        <time>2022-07-26T11:36:25Z</time>
      </trkpt>
      <trkpt lat="44.63611" lon="-0.17628">
        <ele>74.4</ele>
        <time>2022-07-26T11:36:26Z</time>
      </trkpt>
      <trkpt lat="44.63608" lon="-0.17629">
        <ele>74.3</ele>
        <time>2022-07-26T11:36:27Z</time>
      </trkpt>
      <trkpt lat="44.63607" lon="-0.17629">
        <ele>74.2</ele>
        <time>2022-07-26T11:36:28Z</time>
      </trkpt>
      <trkpt lat="44.63606" lon="-0.17629">
        <ele>74.2</ele>
        <time>2022-07-26T11:36:29Z</time>
      </trkpt>
      <trkpt lat="44.63605" lon="-0.1763">
        <ele>74.2</ele>
        <time>2022-07-26T11:36:31Z</time>
      </trkpt>
      <trkpt lat="44.63604" lon="-0.17631">
        <ele>74.1</ele>
        <time>2022-07-26T11:36:32Z</time>
      </trkpt>
      <trkpt lat="44.63602" lon="-0.17632">
        <ele>74</ele>
        <time>2022-07-26T11:36:33Z</time>
      </trkpt>
      <trkpt lat="44.63601" lon="-0.17633">
        <ele>74</ele>
        <time>2022-07-26T11:36:34Z</time>
      </trkpt>
      <trkpt lat="44.636" lon="-0.17635">
        <ele>73.9</ele>
        <time>2022-07-26T11:36:35Z</time>
      </trkpt>
      <trkpt lat="44.63598" lon="-0.17636">
        <ele>73.9</ele>
        <time>2022-07-26T11:36:36Z</time>
      </trkpt>
      <trkpt lat="44.63597" lon="-0.17637">
        <ele>73.8</ele>
        <time>2022-07-26T11:36:37Z</time>
      </trkpt>
      <trkpt lat="44.63594" lon="-0.17639">
        <ele>73.7</ele>
        <time>2022-07-26T11:36:39Z</time>
      </trkpt>
      <trkpt lat="44.63592" lon="-0.1764">
        <ele>73.6</ele>
        <time>2022-07-26T11:36:40Z</time>
      </trkpt>
      <trkpt lat="44.63591" lon="-0.1764">
        <ele>73.6</ele>
        <time>2022-07-26T11:36:41Z</time>
      </trkpt>
      <trkpt lat="44.6359" lon="-0.1764">
        <ele>73.6</ele>
        <time>2022-07-26T11:36:42Z</time>
      </trkpt>
      <trkpt lat="44.63589" lon="-0.1764">
        <ele>73.5</ele>
        <time>2022-07-26T11:36:43Z</time>
      </trkpt>
      <trkpt lat="44.63587" lon="-0.17639">
        <ele>73.5</ele>
        <time>2022-07-26T11:36:44Z</time>
      </trkpt>
      <trkpt lat="44.63586" lon="-0.17638">
        <ele>73.4</ele>
        <time>2022-07-26T11:36:45Z</time>
      </trkpt>
      <trkpt lat="44.63584" lon="-0.17638">
        <ele>73.4</ele>
        <time>2022-07-26T11:36:46Z</time>
      </trkpt>
      <trkpt lat="44.63582" lon="-0.17637">
        <ele>73.3</ele>
        <time>2022-07-26T11:36:48Z</time>
      </trkpt>
      <trkpt lat="44.63581" lon="-0.17637">
        <ele>73.3</ele>
        <time>2022-07-26T11:36:49Z</time>
      </trkpt>
      <trkpt lat="44.63579" lon="-0.17637">
        <ele>73.2</ele>
        <time>2022-07-26T11:36:51Z</time>
      </trkpt>
      <trkpt lat="44.63577" lon="-0.17637">
        <ele>73.2</ele>
        <time>2022-07-26T11:36:52Z</time>
      </trkpt>
      <trkpt lat="44.63575" lon="-0.17637">
        <ele>73.1</ele>
        <time>2022-07-26T11:36:53Z</time>
      </trkpt>
      <trkpt lat="44.63573" lon="-0.17636">
        <ele>73.1</ele>
        <time>2022-07-26T11:36:55Z</time>
      </trkpt>
      <trkpt lat="44.63572" lon="-0.17636">
        <ele>73</ele>
        <time>2022-07-26T11:36:56Z</time>
      </trkpt>
      <trkpt lat="44.63571" lon="-0.17636">
        <ele>73</ele>
        <time>2022-07-26T11:36:57Z</time>
      </trkpt>
      <trkpt lat="44.6357" lon="-0.17636">
        <ele>73</ele>
        <time>2022-07-26T11:36:58Z</time>
      </trkpt>
      <trkpt lat="44.63568" lon="-0.17636">
        <ele>72.9</ele>
        <time>2022-07-26T11:36:59Z</time>
      </trkpt>
      <trkpt lat="44.63567" lon="-0.17636">
        <ele>72.9</ele>
        <time>2022-07-26T11:37:00Z</time>
      </trkpt>
      <trkpt lat="44.63566" lon="-0.17636">
        <ele>72.9</ele>
        <time>2022-07-26T11:37:01Z</time>
      </trkpt>
      <trkpt lat="44.63564" lon="-0.17636">
        <ele>72.9</ele>
        <time>2022-07-26T11:37:02Z</time>
      </trkpt>
      <trkpt lat="44.63562" lon="-0.17635">
        <ele>72.8</ele>
        <time>2022-07-26T11:37:03Z</time>
      </trkpt>
      <trkpt lat="44.63561" lon="-0.17631">
        <ele>72.6</ele>
        <time>2022-07-26T11:37:05Z</time>
      </trkpt>
      <trkpt lat="44.63561" lon="-0.17629">
        <ele>72.5</ele>
        <time>2022-07-26T11:37:06Z</time>
      </trkpt>
      <trkpt lat="44.63562" lon="-0.17625">
        <ele>72.4</ele>
        <time>2022-07-26T11:37:07Z</time>
      </trkpt>
      <trkpt lat="44.63562" lon="-0.17623">
        <ele>72.3</ele>
        <time>2022-07-26T11:37:08Z</time>
      </trkpt>
      <trkpt lat="44.63561" lon="-0.1762">
        <ele>72.2</ele>
        <time>2022-07-26T11:37:09Z</time>
      </trkpt>
      <trkpt lat="44.6356" lon="-0.17619">
        <ele>72.1</ele>
        <time>2022-07-26T11:37:11Z</time>
      </trkpt>
      <trkpt lat="44.6356" lon="-0.17617">
        <ele>72.1</ele>
        <time>2022-07-26T11:37:12Z</time>
      </trkpt>
      <trkpt lat="44.6356" lon="-0.17616">
        <ele>72.1</ele>
        <time>2022-07-26T11:37:13Z</time>
      </trkpt>
      <trkpt lat="44.63559" lon="-0.17614">
        <ele>72</ele>
        <time>2022-07-26T11:37:14Z</time>
      </trkpt>
      <trkpt lat="44.6356" lon="-0.17611">
        <ele>71.9</ele>
        <time>2022-07-26T11:37:15Z</time>
      </trkpt>
      <trkpt lat="44.6356" lon="-0.1761">
        <ele>71.9</ele>
        <time>2022-07-26T11:37:16Z</time>
      </trkpt>
      <trkpt lat="44.6356" lon="-0.17609">
        <ele>71.9</ele>
        <time>2022-07-26T11:37:17Z</time>
      </trkpt>
      <trkpt lat="44.6356" lon="-0.17607">
        <ele>71.8</ele>
        <time>2022-07-26T11:37:18Z</time>
      </trkpt>
      <trkpt lat="44.63559" lon="-0.17605">
        <ele>71.8</ele>
        <time>2022-07-26T11:37:19Z</time>
      </trkpt>
      <trkpt lat="44.63559" lon="-0.17603">
        <ele>71.7</ele>
        <time>2022-07-26T11:37:20Z</time>
      </trkpt>
      <trkpt lat="44.63559" lon="-0.17601">
        <ele>71.7</ele>
        <time>2022-07-26T11:37:21Z</time>
      </trkpt>
      <trkpt lat="44.63559" lon="-0.176">
        <ele>71.6</ele>
        <time>2022-07-26T11:37:22Z</time>
      </trkpt>
      <trkpt lat="44.63559" lon="-0.17598">
        <ele>71.6</ele>
        <time>2022-07-26T11:37:23Z</time>
      </trkpt>
      <trkpt lat="44.63559" lon="-0.17596">
        <ele>71.5</ele>
        <time>2022-07-26T11:37:24Z</time>
      </trkpt>
      <trkpt lat="44.63559" lon="-0.17594">
        <ele>71.5</ele>
        <time>2022-07-26T11:37:25Z</time>
      </trkpt>
      <trkpt lat="44.63559" lon="-0.17593">
        <ele>71.4</ele>
        <time>2022-07-26T11:37:26Z</time>
      </trkpt>
      <trkpt lat="44.63559" lon="-0.17591">
        <ele>71.4</ele>
        <time>2022-07-26T11:37:27Z</time>
      </trkpt>
      <trkpt lat="44.63559" lon="-0.17589">
        <ele>71.3</ele>
        <time>2022-07-26T11:37:28Z</time>
      </trkpt>
      <trkpt lat="44.63559" lon="-0.17587">
        <ele>71.3</ele>
        <time>2022-07-26T11:37:29Z</time>
      </trkpt>
      <trkpt lat="44.63559" lon="-0.17585">
        <ele>71.2</ele>
        <time>2022-07-26T11:37:30Z</time>
      </trkpt>
      <trkpt lat="44.63559" lon="-0.17584">
        <ele>71.2</ele>
        <time>2022-07-26T11:37:31Z</time>
      </trkpt>
      <trkpt lat="44.63558" lon="-0.17582">
        <ele>71.1</ele>
        <time>2022-07-26T11:37:32Z</time>
      </trkpt>
      <trkpt lat="44.63558" lon="-0.17579">
        <ele>71.1</ele>
        <time>2022-07-26T11:37:33Z</time>
      </trkpt>
      <trkpt lat="44.63558" lon="-0.17578">
        <ele>71</ele>
        <time>2022-07-26T11:37:34Z</time>
      </trkpt>
      <trkpt lat="44.63558" lon="-0.17577">
        <ele>71</ele>
        <time>2022-07-26T11:37:35Z</time>
      </trkpt>
      <trkpt lat="44.63558" lon="-0.17574">
        <ele>70.9</ele>
        <time>2022-07-26T11:37:36Z</time>
      </trkpt>
      <trkpt lat="44.63557" lon="-0.17573">
        <ele>70.9</ele>
        <time>2022-07-26T11:37:37Z</time>
      </trkpt>
      <trkpt lat="44.63557" lon="-0.17572">
        <ele>70.9</ele>
        <time>2022-07-26T11:37:38Z</time>
      </trkpt>
      <trkpt lat="44.63557" lon="-0.17569">
        <ele>70.8</ele>
        <time>2022-07-26T11:37:39Z</time>
      </trkpt>
      <trkpt lat="44.63557" lon="-0.17567">
        <ele>70.7</ele>
        <time>2022-07-26T11:37:40Z</time>
      </trkpt>
      <trkpt lat="44.63556" lon="-0.17565">
        <ele>70.7</ele>
        <time>2022-07-26T11:37:41Z</time>
      </trkpt>
      <trkpt lat="44.63556" lon="-0.17563">
        <ele>70.6</ele>
        <time>2022-07-26T11:37:42Z</time>
      </trkpt>
      <trkpt lat="44.63556" lon="-0.17562">
        <ele>70.6</ele>
        <time>2022-07-26T11:37:43Z</time>
      </trkpt>
      <trkpt lat="44.63556" lon="-0.17559">
        <ele>70.5</ele>
        <time>2022-07-26T11:37:44Z</time>
      </trkpt>
      <trkpt lat="44.63556" lon="-0.17558">
        <ele>70.5</ele>
        <time>2022-07-26T11:37:45Z</time>
      </trkpt>
      <trkpt lat="44.63556" lon="-0.17555">
        <ele>70.4</ele>
        <time>2022-07-26T11:37:46Z</time>
      </trkpt>
      <trkpt lat="44.63556" lon="-0.17554">
        <ele>70.4</ele>
        <time>2022-07-26T11:37:47Z</time>
      </trkpt>
      <trkpt lat="44.63556" lon="-0.17553">
        <ele>70.4</ele>
        <time>2022-07-26T11:37:48Z</time>
      </trkpt>
      <trkpt lat="44.63555" lon="-0.17549">
        <ele>70.3</ele>
        <time>2022-07-26T11:37:49Z</time>
      </trkpt>
      <trkpt lat="44.63555" lon="-0.17547">
        <ele>70.3</ele>
        <time>2022-07-26T11:37:51Z</time>
      </trkpt>
      <trkpt lat="44.63555" lon="-0.17545">
        <ele>70.2</ele>
        <time>2022-07-26T11:37:52Z</time>
      </trkpt>
      <trkpt lat="44.63555" lon="-0.17544">
        <ele>70.2</ele>
        <time>2022-07-26T11:37:53Z</time>
      </trkpt>
      <trkpt lat="44.63554" lon="-0.17542">
        <ele>70.2</ele>
        <time>2022-07-26T11:37:54Z</time>
      </trkpt>
      <trkpt lat="44.63554" lon="-0.17539">
        <ele>70.2</ele>
        <time>2022-07-26T11:37:55Z</time>
      </trkpt>
      <trkpt lat="44.63554" lon="-0.17538">
        <ele>70.2</ele>
        <time>2022-07-26T11:37:56Z</time>
      </trkpt>
      <trkpt lat="44.63554" lon="-0.17537">
        <ele>70.2</ele>
        <time>2022-07-26T11:37:57Z</time>
      </trkpt>
      <trkpt lat="44.63554" lon="-0.17531">
        <ele>70.1</ele>
        <time>2022-07-26T11:37:59Z</time>
      </trkpt>
      <trkpt lat="44.63554" lon="-0.1753">
        <ele>70.1</ele>
        <time>2022-07-26T11:38:00Z</time>
      </trkpt>
      <trkpt lat="44.63554" lon="-0.17528">
        <ele>70.1</ele>
        <time>2022-07-26T11:38:01Z</time>
      </trkpt>
      <trkpt lat="44.63554" lon="-0.17527">
        <ele>70.1</ele>
        <time>2022-07-26T11:38:02Z</time>
      </trkpt>
      <trkpt lat="44.63553" lon="-0.17525">
        <ele>70.1</ele>
        <time>2022-07-26T11:38:03Z</time>
      </trkpt>
      <trkpt lat="44.63553" lon="-0.17523">
        <ele>70.1</ele>
        <time>2022-07-26T11:38:04Z</time>
      </trkpt>
      <trkpt lat="44.63553" lon="-0.1752">
        <ele>70.2</ele>
        <time>2022-07-26T11:38:05Z</time>
      </trkpt>
      <trkpt lat="44.63553" lon="-0.17519">
        <ele>70.2</ele>
        <time>2022-07-26T11:38:06Z</time>
      </trkpt>
      <trkpt lat="44.63553" lon="-0.17518">
        <ele>70.2</ele>
        <time>2022-07-26T11:38:07Z</time>
      </trkpt>
      <trkpt lat="44.63552" lon="-0.17516">
        <ele>70.2</ele>
        <time>2022-07-26T11:38:08Z</time>
      </trkpt>
      <trkpt lat="44.63552" lon="-0.17514">
        <ele>70.2</ele>
        <time>2022-07-26T11:38:09Z</time>
      </trkpt>
      <trkpt lat="44.63552" lon="-0.17511">
        <ele>70.2</ele>
        <time>2022-07-26T11:38:10Z</time>
      </trkpt>
      <trkpt lat="44.63552" lon="-0.1751">
        <ele>70.2</ele>
        <time>2022-07-26T11:38:11Z</time>
      </trkpt>
      <trkpt lat="44.63552" lon="-0.17509">
        <ele>70.2</ele>
        <time>2022-07-26T11:38:12Z</time>
      </trkpt>
      <trkpt lat="44.63551" lon="-0.17507">
        <ele>70.2</ele>
        <time>2022-07-26T11:38:13Z</time>
      </trkpt>
      <trkpt lat="44.63551" lon="-0.17504">
        <ele>70.3</ele>
        <time>2022-07-26T11:38:14Z</time>
      </trkpt>
      <trkpt lat="44.63551" lon="-0.17503">
        <ele>70.3</ele>
        <time>2022-07-26T11:38:15Z</time>
      </trkpt>
      <trkpt lat="44.63551" lon="-0.17501">
        <ele>70.3</ele>
        <time>2022-07-26T11:38:16Z</time>
      </trkpt>
      <trkpt lat="44.6355" lon="-0.175">
        <ele>70.3</ele>
        <time>2022-07-26T11:38:17Z</time>
      </trkpt>
      <trkpt lat="44.6355" lon="-0.17498">
        <ele>70.3</ele>
        <time>2022-07-26T11:38:18Z</time>
      </trkpt>
      <trkpt lat="44.6355" lon="-0.17495">
        <ele>70.4</ele>
        <time>2022-07-26T11:38:19Z</time>
      </trkpt>
      <trkpt lat="44.6355" lon="-0.17492">
        <ele>70.4</ele>
        <time>2022-07-26T11:38:20Z</time>
      </trkpt>
      <trkpt lat="44.63549" lon="-0.17491">
        <ele>70.4</ele>
        <time>2022-07-26T11:38:21Z</time>
      </trkpt>
      <trkpt lat="44.63549" lon="-0.1749">
        <ele>70.4</ele>
        <time>2022-07-26T11:38:22Z</time>
      </trkpt>
      <trkpt lat="44.63549" lon="-0.17488">
        <ele>70.4</ele>
        <time>2022-07-26T11:38:23Z</time>
      </trkpt>
      <trkpt lat="44.63549" lon="-0.17485">
        <ele>70.4</ele>
        <time>2022-07-26T11:38:24Z</time>
      </trkpt>
      <trkpt lat="44.63549" lon="-0.17484">
        <ele>70.4</ele>
        <time>2022-07-26T11:38:25Z</time>
      </trkpt>
      <trkpt lat="44.63549" lon="-0.17482">
        <ele>70.4</ele>
        <time>2022-07-26T11:38:26Z</time>
      </trkpt>
      <trkpt lat="44.63549" lon="-0.17481">
        <ele>70.4</ele>
        <time>2022-07-26T11:38:27Z</time>
      </trkpt>
      <trkpt lat="44.63549" lon="-0.17479">
        <ele>70.4</ele>
        <time>2022-07-26T11:38:28Z</time>
      </trkpt>
      <trkpt lat="44.63549" lon="-0.17476">
        <ele>70.4</ele>
        <time>2022-07-26T11:38:29Z</time>
      </trkpt>
      <trkpt lat="44.63548" lon="-0.17474">
        <ele>70.4</ele>
        <time>2022-07-26T11:38:30Z</time>
      </trkpt>
      <trkpt lat="44.63548" lon="-0.17473">
        <ele>70.4</ele>
        <time>2022-07-26T11:38:31Z</time>
      </trkpt>
      <trkpt lat="44.63548" lon="-0.17471">
        <ele>70.4</ele>
        <time>2022-07-26T11:38:32Z</time>
      </trkpt>
      <trkpt lat="44.63548" lon="-0.1747">
        <ele>70.4</ele>
        <time>2022-07-26T11:38:33Z</time>
      </trkpt>
      <trkpt lat="44.63547" lon="-0.17467">
        <ele>70.4</ele>
        <time>2022-07-26T11:38:34Z</time>
      </trkpt>
      <trkpt lat="44.63547" lon="-0.17466">
        <ele>70.4</ele>
        <time>2022-07-26T11:38:35Z</time>
      </trkpt>
      <trkpt lat="44.63547" lon="-0.17464">
        <ele>70.4</ele>
        <time>2022-07-26T11:38:36Z</time>
      </trkpt>
      <trkpt lat="44.63547" lon="-0.17463">
        <ele>70.4</ele>
        <time>2022-07-26T11:38:37Z</time>
      </trkpt>
      <trkpt lat="44.63547" lon="-0.17461">
        <ele>70.4</ele>
        <time>2022-07-26T11:38:38Z</time>
      </trkpt>
      <trkpt lat="44.63546" lon="-0.17458">
        <ele>70.4</ele>
        <time>2022-07-26T11:38:39Z</time>
      </trkpt>
      <trkpt lat="44.63546" lon="-0.17457">
        <ele>70.4</ele>
        <time>2022-07-26T11:38:40Z</time>
      </trkpt>
      <trkpt lat="44.63546" lon="-0.17455">
        <ele>70.4</ele>
        <time>2022-07-26T11:38:41Z</time>
      </trkpt>
      <trkpt lat="44.63546" lon="-0.17453">
        <ele>70.4</ele>
        <time>2022-07-26T11:38:42Z</time>
      </trkpt>
      <trkpt lat="44.63546" lon="-0.17451">
        <ele>70.4</ele>
        <time>2022-07-26T11:38:43Z</time>
      </trkpt>
      <trkpt lat="44.63545" lon="-0.17449">
        <ele>70.4</ele>
        <time>2022-07-26T11:38:44Z</time>
      </trkpt>
      <trkpt lat="44.63545" lon="-0.17447">
        <ele>70.4</ele>
        <time>2022-07-26T11:38:45Z</time>
      </trkpt>
      <trkpt lat="44.63545" lon="-0.17446">
        <ele>70.4</ele>
        <time>2022-07-26T11:38:46Z</time>
      </trkpt>
      <trkpt lat="44.63545" lon="-0.17444">
        <ele>70.4</ele>
        <time>2022-07-26T11:38:47Z</time>
      </trkpt>
      <trkpt lat="44.63545" lon="-0.17442">
        <ele>70.4</ele>
        <time>2022-07-26T11:38:48Z</time>
      </trkpt>
      <trkpt lat="44.63545" lon="-0.1744">
        <ele>70.4</ele>
        <time>2022-07-26T11:38:49Z</time>
      </trkpt>
      <trkpt lat="44.63545" lon="-0.17438">
        <ele>70.4</ele>
        <time>2022-07-26T11:38:50Z</time>
      </trkpt>
      <trkpt lat="44.63545" lon="-0.17436">
        <ele>70.4</ele>
        <time>2022-07-26T11:38:51Z</time>
      </trkpt>
      <trkpt lat="44.63545" lon="-0.17435">
        <ele>70.4</ele>
        <time>2022-07-26T11:38:52Z</time>
      </trkpt>
      <trkpt lat="44.63545" lon="-0.17433">
        <ele>70.4</ele>
        <time>2022-07-26T11:38:53Z</time>
      </trkpt>
      <trkpt lat="44.63545" lon="-0.1743">
        <ele>70.3</ele>
        <time>2022-07-26T11:38:54Z</time>
      </trkpt>
      <trkpt lat="44.63545" lon="-0.17428">
        <ele>70.3</ele>
        <time>2022-07-26T11:38:55Z</time>
      </trkpt>
      <trkpt lat="44.63545" lon="-0.17427">
        <ele>70.3</ele>
        <time>2022-07-26T11:38:56Z</time>
      </trkpt>
      <trkpt lat="44.63545" lon="-0.17425">
        <ele>70.3</ele>
        <time>2022-07-26T11:38:57Z</time>
      </trkpt>
      <trkpt lat="44.63545" lon="-0.17424">
        <ele>70.3</ele>
        <time>2022-07-26T11:38:58Z</time>
      </trkpt>
      <trkpt lat="44.63545" lon="-0.17421">
        <ele>70.3</ele>
        <time>2022-07-26T11:38:59Z</time>
      </trkpt>
      <trkpt lat="44.63545" lon="-0.1742">
        <ele>70.3</ele>
        <time>2022-07-26T11:39:00Z</time>
      </trkpt>
      <trkpt lat="44.63545" lon="-0.1742">
        <ele>70.3</ele>
        <time>2022-07-26T11:39:01Z</time>
      </trkpt>
      <trkpt lat="44.63546" lon="-0.17421">
        <ele>70.2</ele>
        <time>2022-07-26T11:39:02Z</time>
      </trkpt>
      <trkpt lat="44.63546" lon="-0.17421">
        <ele>70.2</ele>
        <time>2022-07-26T11:39:03Z</time>
      </trkpt>
      <trkpt lat="44.63546" lon="-0.17421">
        <ele>70.2</ele>
        <time>2022-07-26T11:39:04Z</time>
      </trkpt>
      <trkpt lat="44.63546" lon="-0.17419">
        <ele>70.2</ele>
        <time>2022-07-26T11:39:06Z</time>
      </trkpt>
      <trkpt lat="44.63545" lon="-0.17416">
        <ele>70.2</ele>
        <time>2022-07-26T11:39:07Z</time>
      </trkpt>
      <trkpt lat="44.63544" lon="-0.17412">
        <ele>70.2</ele>
        <time>2022-07-26T11:39:08Z</time>
      </trkpt>
      <trkpt lat="44.63544" lon="-0.17411">
        <ele>70.2</ele>
        <time>2022-07-26T11:39:09Z</time>
      </trkpt>
      <trkpt lat="44.63543" lon="-0.17409">
        <ele>70.2</ele>
        <time>2022-07-26T11:39:11Z</time>
      </trkpt>
      <trkpt lat="44.63543" lon="-0.17406">
        <ele>70.2</ele>
        <time>2022-07-26T11:39:12Z</time>
      </trkpt>
      <trkpt lat="44.63542" lon="-0.17402">
        <ele>70.2</ele>
        <time>2022-07-26T11:39:13Z</time>
      </trkpt>
      <trkpt lat="44.63542" lon="-0.17401">
        <ele>70.2</ele>
        <time>2022-07-26T11:39:14Z</time>
      </trkpt>
      <trkpt lat="44.63542" lon="-0.17398">
        <ele>70.2</ele>
        <time>2022-07-26T11:39:15Z</time>
      </trkpt>
      <trkpt lat="44.63541" lon="-0.17397">
        <ele>70.2</ele>
        <time>2022-07-26T11:39:16Z</time>
      </trkpt>
      <trkpt lat="44.63541" lon="-0.17396">
        <ele>70.2</ele>
        <time>2022-07-26T11:39:17Z</time>
      </trkpt>
      <trkpt lat="44.63541" lon="-0.17394">
        <ele>70.2</ele>
        <time>2022-07-26T11:39:18Z</time>
      </trkpt>
      <trkpt lat="44.6354" lon="-0.17391">
        <ele>70.2</ele>
        <time>2022-07-26T11:39:19Z</time>
      </trkpt>
      <trkpt lat="44.6354" lon="-0.1739">
        <ele>70.2</ele>
        <time>2022-07-26T11:39:20Z</time>
      </trkpt>
      <trkpt lat="44.63541" lon="-0.17388">
        <ele>70.2</ele>
        <time>2022-07-26T11:39:21Z</time>
      </trkpt>
      <trkpt lat="44.6354" lon="-0.17386">
        <ele>70.2</ele>
        <time>2022-07-26T11:39:23Z</time>
      </trkpt>
      <trkpt lat="44.63539" lon="-0.17382">
        <ele>70.2</ele>
        <time>2022-07-26T11:39:24Z</time>
      </trkpt>
      <trkpt lat="44.63539" lon="-0.17381">
        <ele>70.3</ele>
        <time>2022-07-26T11:39:25Z</time>
      </trkpt>
      <trkpt lat="44.63539" lon="-0.1738">
        <ele>70.3</ele>
        <time>2022-07-26T11:39:26Z</time>
      </trkpt>
      <trkpt lat="44.63539" lon="-0.17378">
        <ele>70.3</ele>
        <time>2022-07-26T11:39:27Z</time>
      </trkpt>
      <trkpt lat="44.63539" lon="-0.17377">
        <ele>70.3</ele>
        <time>2022-07-26T11:39:28Z</time>
      </trkpt>
      <trkpt lat="44.63539" lon="-0.17376">
        <ele>70.3</ele>
        <time>2022-07-26T11:39:29Z</time>
      </trkpt>
      <trkpt lat="44.63539" lon="-0.17374">
        <ele>70.3</ele>
        <time>2022-07-26T11:39:30Z</time>
      </trkpt>
      <trkpt lat="44.63539" lon="-0.17372">
        <ele>70.3</ele>
        <time>2022-07-26T11:39:31Z</time>
      </trkpt>
      <trkpt lat="44.63539" lon="-0.17371">
        <ele>70.3</ele>
        <time>2022-07-26T11:39:32Z</time>
      </trkpt>
      <trkpt lat="44.63539" lon="-0.17369">
        <ele>70.3</ele>
        <time>2022-07-26T11:39:33Z</time>
      </trkpt>
      <trkpt lat="44.63539" lon="-0.17368">
        <ele>70.3</ele>
        <time>2022-07-26T11:39:34Z</time>
      </trkpt>
      <trkpt lat="44.63539" lon="-0.17366">
        <ele>70.3</ele>
        <time>2022-07-26T11:39:35Z</time>
      </trkpt>
      <trkpt lat="44.63539" lon="-0.17365">
        <ele>70.3</ele>
        <time>2022-07-26T11:39:36Z</time>
      </trkpt>
      <trkpt lat="44.63539" lon="-0.17363">
        <ele>70.3</ele>
        <time>2022-07-26T11:39:37Z</time>
      </trkpt>
      <trkpt lat="44.63539" lon="-0.17361">
        <ele>70.3</ele>
        <time>2022-07-26T11:39:38Z</time>
      </trkpt>
      <trkpt lat="44.63539" lon="-0.17359">
        <ele>70.3</ele>
        <time>2022-07-26T11:39:39Z</time>
      </trkpt>
      <trkpt lat="44.63539" lon="-0.17357">
        <ele>70.3</ele>
        <time>2022-07-26T11:39:41Z</time>
      </trkpt>
      <trkpt lat="44.6354" lon="-0.17354">
        <ele>70.3</ele>
        <time>2022-07-26T11:39:42Z</time>
      </trkpt>
      <trkpt lat="44.6354" lon="-0.17352">
        <ele>70.3</ele>
        <time>2022-07-26T11:39:44Z</time>
      </trkpt>
      <trkpt lat="44.6354" lon="-0.1735">
        <ele>70.3</ele>
        <time>2022-07-26T11:39:45Z</time>
      </trkpt>
      <trkpt lat="44.63541" lon="-0.17348">
        <ele>70.3</ele>
        <time>2022-07-26T11:39:46Z</time>
      </trkpt>
      <trkpt lat="44.63541" lon="-0.17346">
        <ele>70.3</ele>
        <time>2022-07-26T11:39:47Z</time>
      </trkpt>
      <trkpt lat="44.63541" lon="-0.17344">
        <ele>70.2</ele>
        <time>2022-07-26T11:39:48Z</time>
      </trkpt>
      <trkpt lat="44.63541" lon="-0.17342">
        <ele>70.2</ele>
        <time>2022-07-26T11:39:49Z</time>
      </trkpt>
      <trkpt lat="44.63541" lon="-0.17341">
        <ele>70.2</ele>
        <time>2022-07-26T11:39:50Z</time>
      </trkpt>
      <trkpt lat="44.6354" lon="-0.17339">
        <ele>70.2</ele>
        <time>2022-07-26T11:39:51Z</time>
      </trkpt>
      <trkpt lat="44.6354" lon="-0.17337">
        <ele>70.2</ele>
        <time>2022-07-26T11:39:52Z</time>
      </trkpt>
      <trkpt lat="44.6354" lon="-0.17336">
        <ele>70.1</ele>
        <time>2022-07-26T11:39:53Z</time>
      </trkpt>
      <trkpt lat="44.63539" lon="-0.17333">
        <ele>70.1</ele>
        <time>2022-07-26T11:39:54Z</time>
      </trkpt>
      <trkpt lat="44.63539" lon="-0.17331">
        <ele>70.1</ele>
        <time>2022-07-26T11:39:55Z</time>
      </trkpt>
      <trkpt lat="44.63538" lon="-0.1733">
        <ele>70.1</ele>
        <time>2022-07-26T11:39:56Z</time>
      </trkpt>
      <trkpt lat="44.63538" lon="-0.17329">
        <ele>70.1</ele>
        <time>2022-07-26T11:39:57Z</time>
      </trkpt>
      <trkpt lat="44.63537" lon="-0.17327">
        <ele>70</ele>
        <time>2022-07-26T11:39:58Z</time>
      </trkpt>
      <trkpt lat="44.63537" lon="-0.17325">
        <ele>70</ele>
        <time>2022-07-26T11:39:59Z</time>
      </trkpt>
      <trkpt lat="44.63537" lon="-0.17323">
        <ele>70</ele>
        <time>2022-07-26T11:40:01Z</time>
      </trkpt>
      <trkpt lat="44.63537" lon="-0.17321">
        <ele>70</ele>
        <time>2022-07-26T11:40:02Z</time>
      </trkpt>
      <trkpt lat="44.63537" lon="-0.1732">
        <ele>70</ele>
        <time>2022-07-26T11:40:03Z</time>
      </trkpt>
      <trkpt lat="44.63537" lon="-0.17319">
        <ele>70</ele>
        <time>2022-07-26T11:40:04Z</time>
      </trkpt>
      <trkpt lat="44.63537" lon="-0.17317">
        <ele>70</ele>
        <time>2022-07-26T11:40:05Z</time>
      </trkpt>
      <trkpt lat="44.63538" lon="-0.17316">
        <ele>70</ele>
        <time>2022-07-26T11:40:06Z</time>
      </trkpt>
      <trkpt lat="44.63538" lon="-0.17314">
        <ele>70.1</ele>
        <time>2022-07-26T11:40:07Z</time>
      </trkpt>
      <trkpt lat="44.63539" lon="-0.1731">
        <ele>70.1</ele>
        <time>2022-07-26T11:40:08Z</time>
      </trkpt>
      <trkpt lat="44.63539" lon="-0.17309">
        <ele>70.1</ele>
        <time>2022-07-26T11:40:09Z</time>
      </trkpt>
      <trkpt lat="44.63539" lon="-0.17308">
        <ele>70.1</ele>
        <time>2022-07-26T11:40:10Z</time>
      </trkpt>
      <trkpt lat="44.63539" lon="-0.17307">
        <ele>70.2</ele>
        <time>2022-07-26T11:40:11Z</time>
      </trkpt>
      <trkpt lat="44.63539" lon="-0.17304">
        <ele>70.2</ele>
        <time>2022-07-26T11:40:13Z</time>
      </trkpt>
      <trkpt lat="44.63539" lon="-0.17301">
        <ele>70.3</ele>
        <time>2022-07-26T11:40:14Z</time>
      </trkpt>
      <trkpt lat="44.63539" lon="-0.173">
        <ele>70.3</ele>
        <time>2022-07-26T11:40:15Z</time>
      </trkpt>
      <trkpt lat="44.63539" lon="-0.17298">
        <ele>70.4</ele>
        <time>2022-07-26T11:40:16Z</time>
      </trkpt>
      <trkpt lat="44.63539" lon="-0.17295">
        <ele>70.5</ele>
        <time>2022-07-26T11:40:18Z</time>
      </trkpt>
      <trkpt lat="44.63538" lon="-0.17293">
        <ele>70.6</ele>
        <time>2022-07-26T11:40:19Z</time>
      </trkpt>
      <trkpt lat="44.63538" lon="-0.17291">
        <ele>70.6</ele>
        <time>2022-07-26T11:40:20Z</time>
      </trkpt>
      <trkpt lat="44.63539" lon="-0.17289">
        <ele>70.7</ele>
        <time>2022-07-26T11:40:22Z</time>
      </trkpt>
      <trkpt lat="44.63539" lon="-0.17286">
        <ele>70.8</ele>
        <time>2022-07-26T11:40:23Z</time>
      </trkpt>
      <trkpt lat="44.63539" lon="-0.17282">
        <ele>70.9</ele>
        <time>2022-07-26T11:40:24Z</time>
      </trkpt>
      <trkpt lat="44.6354" lon="-0.1728">
        <ele>71</ele>
        <time>2022-07-26T11:40:26Z</time>
      </trkpt>
      <trkpt lat="44.6354" lon="-0.17278">
        <ele>71</ele>
        <time>2022-07-26T11:40:27Z</time>
      </trkpt>
      <trkpt lat="44.6354" lon="-0.17277">
        <ele>71.1</ele>
        <time>2022-07-26T11:40:28Z</time>
      </trkpt>
      <trkpt lat="44.6354" lon="-0.17275">
        <ele>71.1</ele>
        <time>2022-07-26T11:40:29Z</time>
      </trkpt>
      <trkpt lat="44.6354" lon="-0.17272">
        <ele>71.2</ele>
        <time>2022-07-26T11:40:31Z</time>
      </trkpt>
      <trkpt lat="44.6354" lon="-0.17271">
        <ele>71.3</ele>
        <time>2022-07-26T11:40:32Z</time>
      </trkpt>
      <trkpt lat="44.6354" lon="-0.1727">
        <ele>71.3</ele>
        <time>2022-07-26T11:40:33Z</time>
      </trkpt>
      <trkpt lat="44.6354" lon="-0.17268">
        <ele>71.4</ele>
        <time>2022-07-26T11:40:34Z</time>
      </trkpt>
      <trkpt lat="44.6354" lon="-0.17265">
        <ele>71.4</ele>
        <time>2022-07-26T11:40:35Z</time>
      </trkpt>
      <trkpt lat="44.6354" lon="-0.17264">
        <ele>71.5</ele>
        <time>2022-07-26T11:40:36Z</time>
      </trkpt>
      <trkpt lat="44.6354" lon="-0.17263">
        <ele>71.5</ele>
        <time>2022-07-26T11:40:37Z</time>
      </trkpt>
      <trkpt lat="44.6354" lon="-0.17261">
        <ele>71.6</ele>
        <time>2022-07-26T11:40:38Z</time>
      </trkpt>
      <trkpt lat="44.6354" lon="-0.17259">
        <ele>71.6</ele>
        <time>2022-07-26T11:40:39Z</time>
      </trkpt>
      <trkpt lat="44.6354" lon="-0.17257">
        <ele>71.7</ele>
        <time>2022-07-26T11:40:40Z</time>
      </trkpt>
      <trkpt lat="44.6354" lon="-0.17253">
        <ele>71.8</ele>
        <time>2022-07-26T11:40:42Z</time>
      </trkpt>
      <trkpt lat="44.6354" lon="-0.17252">
        <ele>71.9</ele>
        <time>2022-07-26T11:40:43Z</time>
      </trkpt>
      <trkpt lat="44.6354" lon="-0.1725">
        <ele>71.9</ele>
        <time>2022-07-26T11:40:44Z</time>
      </trkpt>
      <trkpt lat="44.6354" lon="-0.17249">
        <ele>72</ele>
        <time>2022-07-26T11:40:45Z</time>
      </trkpt>
      <trkpt lat="44.6354" lon="-0.17247">
        <ele>72</ele>
        <time>2022-07-26T11:40:46Z</time>
      </trkpt>
      <trkpt lat="44.6354" lon="-0.17244">
        <ele>72.1</ele>
        <time>2022-07-26T11:40:47Z</time>
      </trkpt>
      <trkpt lat="44.6354" lon="-0.17242">
        <ele>72.1</ele>
        <time>2022-07-26T11:40:48Z</time>
      </trkpt>
      <trkpt lat="44.63539" lon="-0.17241">
        <ele>72.2</ele>
        <time>2022-07-26T11:40:49Z</time>
      </trkpt>
      <trkpt lat="44.63539" lon="-0.17239">
        <ele>72.2</ele>
        <time>2022-07-26T11:40:50Z</time>
      </trkpt>
      <trkpt lat="44.63539" lon="-0.17238">
        <ele>72.2</ele>
        <time>2022-07-26T11:40:51Z</time>
      </trkpt>
      <trkpt lat="44.63538" lon="-0.17236">
        <ele>72.2</ele>
        <time>2022-07-26T11:40:53Z</time>
      </trkpt>
      <trkpt lat="44.63538" lon="-0.17235">
        <ele>72.2</ele>
        <time>2022-07-26T11:40:54Z</time>
      </trkpt>
      <trkpt lat="44.63536" lon="-0.17233">
        <ele>72.1</ele>
        <time>2022-07-26T11:40:55Z</time>
      </trkpt>
      <trkpt lat="44.63535" lon="-0.17232">
        <ele>72.1</ele>
        <time>2022-07-26T11:40:56Z</time>
      </trkpt>
      <trkpt lat="44.63534" lon="-0.17232">
        <ele>72.1</ele>
        <time>2022-07-26T11:40:57Z</time>
      </trkpt>
      <trkpt lat="44.63531" lon="-0.17233">
        <ele>72</ele>
        <time>2022-07-26T11:40:58Z</time>
      </trkpt>
      <trkpt lat="44.6353" lon="-0.17233">
        <ele>71.9</ele>
        <time>2022-07-26T11:40:59Z</time>
      </trkpt>
      <trkpt lat="44.63529" lon="-0.17234">
        <ele>71.9</ele>
        <time>2022-07-26T11:41:01Z</time>
      </trkpt>
      <trkpt lat="44.63527" lon="-0.17234">
        <ele>71.8</ele>
        <time>2022-07-26T11:41:02Z</time>
      </trkpt>
      <trkpt lat="44.63525" lon="-0.17234">
        <ele>71.7</ele>
        <time>2022-07-26T11:41:03Z</time>
      </trkpt>
      <trkpt lat="44.63522" lon="-0.17234">
        <ele>71.6</ele>
        <time>2022-07-26T11:41:05Z</time>
      </trkpt>
      <trkpt lat="44.63521" lon="-0.17234">
        <ele>71.5</ele>
        <time>2022-07-26T11:41:06Z</time>
      </trkpt>
      <trkpt lat="44.6352" lon="-0.17234">
        <ele>71.5</ele>
        <time>2022-07-26T11:41:07Z</time>
      </trkpt>
      <trkpt lat="44.63519" lon="-0.17234">
        <ele>71.4</ele>
        <time>2022-07-26T11:41:08Z</time>
      </trkpt>
      <trkpt lat="44.63518" lon="-0.17234">
        <ele>71.4</ele>
        <time>2022-07-26T11:41:09Z</time>
      </trkpt>
      <trkpt lat="44.63516" lon="-0.17234">
        <ele>71.3</ele>
        <time>2022-07-26T11:41:10Z</time>
      </trkpt>
      <trkpt lat="44.63514" lon="-0.17234">
        <ele>71.2</ele>
        <time>2022-07-26T11:41:11Z</time>
      </trkpt>
      <trkpt lat="44.63513" lon="-0.17234">
        <ele>71.2</ele>
        <time>2022-07-26T11:41:12Z</time>
      </trkpt>
      <trkpt lat="44.63512" lon="-0.17233">
        <ele>71.2</ele>
        <time>2022-07-26T11:41:13Z</time>
      </trkpt>
      <trkpt lat="44.63508" lon="-0.17234">
        <ele>71.1</ele>
        <time>2022-07-26T11:41:15Z</time>
      </trkpt>
      <trkpt lat="44.63507" lon="-0.17234">
        <ele>71</ele>
        <time>2022-07-26T11:41:16Z</time>
      </trkpt>
      <trkpt lat="44.63506" lon="-0.17234">
        <ele>71</ele>
        <time>2022-07-26T11:41:17Z</time>
      </trkpt>
      <trkpt lat="44.63505" lon="-0.17233">
        <ele>71</ele>
        <time>2022-07-26T11:41:18Z</time>
      </trkpt>
      <trkpt lat="44.63503" lon="-0.17233">
        <ele>70.9</ele>
        <time>2022-07-26T11:41:20Z</time>
      </trkpt>
      <trkpt lat="44.63502" lon="-0.17233">
        <ele>70.9</ele>
        <time>2022-07-26T11:41:21Z</time>
      </trkpt>
      <trkpt lat="44.63501" lon="-0.17233">
        <ele>70.9</ele>
        <time>2022-07-26T11:41:22Z</time>
      </trkpt>
      <trkpt lat="44.635" lon="-0.17233">
        <ele>70.8</ele>
        <time>2022-07-26T11:41:23Z</time>
      </trkpt>
      <trkpt lat="44.63499" lon="-0.17233">
        <ele>70.8</ele>
        <time>2022-07-26T11:41:24Z</time>
      </trkpt>
      <trkpt lat="44.63496" lon="-0.17233">
        <ele>70.8</ele>
        <time>2022-07-26T11:41:25Z</time>
      </trkpt>
      <trkpt lat="44.63495" lon="-0.17233">
        <ele>70.7</ele>
        <time>2022-07-26T11:41:27Z</time>
      </trkpt>
      <trkpt lat="44.63494" lon="-0.17233">
        <ele>70.7</ele>
        <time>2022-07-26T11:41:28Z</time>
      </trkpt>
      <trkpt lat="44.63492" lon="-0.17233">
        <ele>70.7</ele>
        <time>2022-07-26T11:41:29Z</time>
      </trkpt>
      <trkpt lat="44.63491" lon="-0.17234">
        <ele>70.7</ele>
        <time>2022-07-26T11:41:30Z</time>
      </trkpt>
      <trkpt lat="44.63491" lon="-0.17234">
        <ele>70.7</ele>
        <time>2022-07-26T11:41:31Z</time>
      </trkpt>
      <trkpt lat="44.6349" lon="-0.17234">
        <ele>70.7</ele>
        <time>2022-07-26T11:41:32Z</time>
      </trkpt>
      <trkpt lat="44.63488" lon="-0.17234">
        <ele>70.6</ele>
        <time>2022-07-26T11:41:33Z</time>
      </trkpt>
      <trkpt lat="44.63487" lon="-0.17234">
        <ele>70.6</ele>
        <time>2022-07-26T11:41:34Z</time>
      </trkpt>
      <trkpt lat="44.63484" lon="-0.17232">
        <ele>70.6</ele>
        <time>2022-07-26T11:41:36Z</time>
      </trkpt>
      <trkpt lat="44.63482" lon="-0.17231">
        <ele>70.6</ele>
        <time>2022-07-26T11:41:38Z</time>
      </trkpt>
      <trkpt lat="44.63481" lon="-0.1723">
        <ele>70.6</ele>
        <time>2022-07-26T11:41:39Z</time>
      </trkpt>
      <trkpt lat="44.6348" lon="-0.1723">
        <ele>70.5</ele>
        <time>2022-07-26T11:41:40Z</time>
      </trkpt>
      <trkpt lat="44.63479" lon="-0.1723">
        <ele>70.5</ele>
        <time>2022-07-26T11:41:41Z</time>
      </trkpt>
      <trkpt lat="44.63477" lon="-0.17231">
        <ele>70.5</ele>
        <time>2022-07-26T11:41:42Z</time>
      </trkpt>
      <trkpt lat="44.63476" lon="-0.17231">
        <ele>70.5</ele>
        <time>2022-07-26T11:41:43Z</time>
      </trkpt>
      <trkpt lat="44.63475" lon="-0.17231">
        <ele>70.5</ele>
        <time>2022-07-26T11:41:44Z</time>
      </trkpt>
      <trkpt lat="44.63474" lon="-0.17231">
        <ele>70.4</ele>
        <time>2022-07-26T11:41:45Z</time>
      </trkpt>
      <trkpt lat="44.63473" lon="-0.17231">
        <ele>70.4</ele>
        <time>2022-07-26T11:41:46Z</time>
      </trkpt>
      <trkpt lat="44.63472" lon="-0.17231">
        <ele>70.4</ele>
        <time>2022-07-26T11:41:47Z</time>
      </trkpt>
      <trkpt lat="44.63471" lon="-0.17231">
        <ele>70.4</ele>
        <time>2022-07-26T11:41:48Z</time>
      </trkpt>
      <trkpt lat="44.63469" lon="-0.17231">
        <ele>70.3</ele>
        <time>2022-07-26T11:41:49Z</time>
      </trkpt>
      <trkpt lat="44.63468" lon="-0.1723">
        <ele>70.3</ele>
        <time>2022-07-26T11:41:51Z</time>
      </trkpt>
      <trkpt lat="44.63466" lon="-0.1723">
        <ele>70.2</ele>
        <time>2022-07-26T11:41:52Z</time>
      </trkpt>
      <trkpt lat="44.63464" lon="-0.1723">
        <ele>70.2</ele>
        <time>2022-07-26T11:41:53Z</time>
      </trkpt>
      <trkpt lat="44.63463" lon="-0.1723">
        <ele>70.1</ele>
        <time>2022-07-26T11:41:54Z</time>
      </trkpt>
      <trkpt lat="44.63461" lon="-0.17231">
        <ele>70</ele>
        <time>2022-07-26T11:41:56Z</time>
      </trkpt>
      <trkpt lat="44.6346" lon="-0.17231">
        <ele>70</ele>
        <time>2022-07-26T11:41:57Z</time>
      </trkpt>
      <trkpt lat="44.63458" lon="-0.17231">
        <ele>69.9</ele>
        <time>2022-07-26T11:41:58Z</time>
      </trkpt>
      <trkpt lat="44.63457" lon="-0.17231">
        <ele>69.9</ele>
        <time>2022-07-26T11:41:59Z</time>
      </trkpt>
      <trkpt lat="44.63455" lon="-0.17232">
        <ele>69.8</ele>
        <time>2022-07-26T11:42:00Z</time>
      </trkpt>
      <trkpt lat="44.63454" lon="-0.17232">
        <ele>69.8</ele>
        <time>2022-07-26T11:42:01Z</time>
      </trkpt>
      <trkpt lat="44.63452" lon="-0.17232">
        <ele>69.8</ele>
        <time>2022-07-26T11:42:02Z</time>
      </trkpt>
      <trkpt lat="44.63451" lon="-0.17232">
        <ele>69.7</ele>
        <time>2022-07-26T11:42:03Z</time>
      </trkpt>
      <trkpt lat="44.63451" lon="-0.17232">
        <ele>69.7</ele>
        <time>2022-07-26T11:42:04Z</time>
      </trkpt>
      <trkpt lat="44.63448" lon="-0.17231">
        <ele>69.7</ele>
        <time>2022-07-26T11:42:05Z</time>
      </trkpt>
      <trkpt lat="44.63448" lon="-0.17231">
        <ele>69.6</ele>
        <time>2022-07-26T11:42:06Z</time>
      </trkpt>
      <trkpt lat="44.63445" lon="-0.17231">
        <ele>69.6</ele>
        <time>2022-07-26T11:42:07Z</time>
      </trkpt>
      <trkpt lat="44.63445" lon="-0.17231">
        <ele>69.6</ele>
        <time>2022-07-26T11:42:08Z</time>
      </trkpt>
      <trkpt lat="44.63444" lon="-0.17231">
        <ele>69.5</ele>
        <time>2022-07-26T11:42:09Z</time>
      </trkpt>
      <trkpt lat="44.63441" lon="-0.17231">
        <ele>69.5</ele>
        <time>2022-07-26T11:42:10Z</time>
      </trkpt>
      <trkpt lat="44.6344" lon="-0.17231">
        <ele>69.4</ele>
        <time>2022-07-26T11:42:11Z</time>
      </trkpt>
      <trkpt lat="44.63438" lon="-0.17231">
        <ele>69.4</ele>
        <time>2022-07-26T11:42:12Z</time>
      </trkpt>
      <trkpt lat="44.63437" lon="-0.17231">
        <ele>69.4</ele>
        <time>2022-07-26T11:42:13Z</time>
      </trkpt>
      <trkpt lat="44.63436" lon="-0.17231">
        <ele>69.3</ele>
        <time>2022-07-26T11:42:14Z</time>
      </trkpt>
      <trkpt lat="44.63434" lon="-0.17231">
        <ele>69.3</ele>
        <time>2022-07-26T11:42:15Z</time>
      </trkpt>
      <trkpt lat="44.63433" lon="-0.17231">
        <ele>69.3</ele>
        <time>2022-07-26T11:42:16Z</time>
      </trkpt>
      <trkpt lat="44.63431" lon="-0.17231">
        <ele>69.3</ele>
        <time>2022-07-26T11:42:17Z</time>
      </trkpt>
      <trkpt lat="44.6343" lon="-0.17232">
        <ele>69.3</ele>
        <time>2022-07-26T11:42:18Z</time>
      </trkpt>
      <trkpt lat="44.63429" lon="-0.17232">
        <ele>69.3</ele>
        <time>2022-07-26T11:42:19Z</time>
      </trkpt>
      <trkpt lat="44.63427" lon="-0.17232">
        <ele>69.2</ele>
        <time>2022-07-26T11:42:20Z</time>
      </trkpt>
      <trkpt lat="44.63426" lon="-0.17232">
        <ele>69.2</ele>
        <time>2022-07-26T11:42:21Z</time>
      </trkpt>
      <trkpt lat="44.63425" lon="-0.17232">
        <ele>69.2</ele>
        <time>2022-07-26T11:42:22Z</time>
      </trkpt>
      <trkpt lat="44.63423" lon="-0.17232">
        <ele>69.2</ele>
        <time>2022-07-26T11:42:24Z</time>
      </trkpt>
      <trkpt lat="44.63421" lon="-0.17232">
        <ele>69.2</ele>
        <time>2022-07-26T11:42:25Z</time>
      </trkpt>
      <trkpt lat="44.6342" lon="-0.17232">
        <ele>69.2</ele>
        <time>2022-07-26T11:42:26Z</time>
      </trkpt>
      <trkpt lat="44.63418" lon="-0.17232">
        <ele>69.2</ele>
        <time>2022-07-26T11:42:28Z</time>
      </trkpt>
      <trkpt lat="44.63416" lon="-0.17232">
        <ele>69.1</ele>
        <time>2022-07-26T11:42:29Z</time>
      </trkpt>
      <trkpt lat="44.63414" lon="-0.17232">
        <ele>69.1</ele>
        <time>2022-07-26T11:42:30Z</time>
      </trkpt>
      <trkpt lat="44.63412" lon="-0.17232">
        <ele>69.1</ele>
        <time>2022-07-26T11:42:31Z</time>
      </trkpt>
      <trkpt lat="44.63411" lon="-0.17232">
        <ele>69.1</ele>
        <time>2022-07-26T11:42:33Z</time>
      </trkpt>
      <trkpt lat="44.6341" lon="-0.17232">
        <ele>69.1</ele>
        <time>2022-07-26T11:42:34Z</time>
      </trkpt>
      <trkpt lat="44.63408" lon="-0.17232">
        <ele>69.1</ele>
        <time>2022-07-26T11:42:35Z</time>
      </trkpt>
      <trkpt lat="44.63407" lon="-0.17233">
        <ele>69.1</ele>
        <time>2022-07-26T11:42:36Z</time>
      </trkpt>
      <trkpt lat="44.63405" lon="-0.17233">
        <ele>69</ele>
        <time>2022-07-26T11:42:37Z</time>
      </trkpt>
      <trkpt lat="44.63404" lon="-0.17233">
        <ele>69</ele>
        <time>2022-07-26T11:42:38Z</time>
      </trkpt>
      <trkpt lat="44.63403" lon="-0.17233">
        <ele>69</ele>
        <time>2022-07-26T11:42:39Z</time>
      </trkpt>
      <trkpt lat="44.63401" lon="-0.17233">
        <ele>69.1</ele>
        <time>2022-07-26T11:42:40Z</time>
      </trkpt>
      <trkpt lat="44.63399" lon="-0.17233">
        <ele>69.1</ele>
        <time>2022-07-26T11:42:42Z</time>
      </trkpt>
      <trkpt lat="44.63398" lon="-0.17233">
        <ele>69.1</ele>
        <time>2022-07-26T11:42:43Z</time>
      </trkpt>
      <trkpt lat="44.63396" lon="-0.17233">
        <ele>69.1</ele>
        <time>2022-07-26T11:42:44Z</time>
      </trkpt>
      <trkpt lat="44.63394" lon="-0.17232">
        <ele>69.1</ele>
        <time>2022-07-26T11:42:46Z</time>
      </trkpt>
      <trkpt lat="44.63393" lon="-0.17232">
        <ele>69.1</ele>
        <time>2022-07-26T11:42:47Z</time>
      </trkpt>
      <trkpt lat="44.63392" lon="-0.17231">
        <ele>69.1</ele>
        <time>2022-07-26T11:42:48Z</time>
      </trkpt>
      <trkpt lat="44.6339" lon="-0.17231">
        <ele>69.2</ele>
        <time>2022-07-26T11:42:49Z</time>
      </trkpt>
      <trkpt lat="44.63388" lon="-0.17231">
        <ele>69.2</ele>
        <time>2022-07-26T11:42:50Z</time>
      </trkpt>
      <trkpt lat="44.63387" lon="-0.17231">
        <ele>69.2</ele>
        <time>2022-07-26T11:42:51Z</time>
      </trkpt>
      <trkpt lat="44.63386" lon="-0.17231">
        <ele>69.2</ele>
        <time>2022-07-26T11:42:52Z</time>
      </trkpt>
      <trkpt lat="44.63384" lon="-0.17231">
        <ele>69.2</ele>
        <time>2022-07-26T11:42:53Z</time>
      </trkpt>
      <trkpt lat="44.63381" lon="-0.1723">
        <ele>69.2</ele>
        <time>2022-07-26T11:42:55Z</time>
      </trkpt>
      <trkpt lat="44.63381" lon="-0.1723">
        <ele>69.2</ele>
        <time>2022-07-26T11:42:56Z</time>
      </trkpt>
      <trkpt lat="44.6338" lon="-0.1723">
        <ele>69.2</ele>
        <time>2022-07-26T11:42:57Z</time>
      </trkpt>
      <trkpt lat="44.63378" lon="-0.1723">
        <ele>69.1</ele>
        <time>2022-07-26T11:42:58Z</time>
      </trkpt>
      <trkpt lat="44.63377" lon="-0.1723">
        <ele>69.1</ele>
        <time>2022-07-26T11:42:59Z</time>
      </trkpt>
      <trkpt lat="44.63375" lon="-0.1723">
        <ele>69.1</ele>
        <time>2022-07-26T11:43:00Z</time>
      </trkpt>
      <trkpt lat="44.63374" lon="-0.1723">
        <ele>69.1</ele>
        <time>2022-07-26T11:43:01Z</time>
      </trkpt>
      <trkpt lat="44.63373" lon="-0.1723">
        <ele>69</ele>
        <time>2022-07-26T11:43:02Z</time>
      </trkpt>
      <trkpt lat="44.63372" lon="-0.1723">
        <ele>69</ele>
        <time>2022-07-26T11:43:03Z</time>
      </trkpt>
      <trkpt lat="44.63368" lon="-0.1723">
        <ele>68.9</ele>
        <time>2022-07-26T11:43:05Z</time>
      </trkpt>
      <trkpt lat="44.63368" lon="-0.1723">
        <ele>68.9</ele>
        <time>2022-07-26T11:43:06Z</time>
      </trkpt>
      <trkpt lat="44.63367" lon="-0.1723">
        <ele>68.8</ele>
        <time>2022-07-26T11:43:07Z</time>
      </trkpt>
      <trkpt lat="44.63365" lon="-0.1723">
        <ele>68.8</ele>
        <time>2022-07-26T11:43:08Z</time>
      </trkpt>
      <trkpt lat="44.63364" lon="-0.1723">
        <ele>68.7</ele>
        <time>2022-07-26T11:43:09Z</time>
      </trkpt>
      <trkpt lat="44.63362" lon="-0.1723">
        <ele>68.6</ele>
        <time>2022-07-26T11:43:10Z</time>
      </trkpt>
      <trkpt lat="44.6336" lon="-0.1723">
        <ele>68.5</ele>
        <time>2022-07-26T11:43:11Z</time>
      </trkpt>
      <trkpt lat="44.63359" lon="-0.1723">
        <ele>68.5</ele>
        <time>2022-07-26T11:43:12Z</time>
      </trkpt>
      <trkpt lat="44.63358" lon="-0.17229">
        <ele>68.4</ele>
        <time>2022-07-26T11:43:13Z</time>
      </trkpt>
      <trkpt lat="44.63357" lon="-0.17229">
        <ele>68.4</ele>
        <time>2022-07-26T11:43:14Z</time>
      </trkpt>
      <trkpt lat="44.63354" lon="-0.17229">
        <ele>68.3</ele>
        <time>2022-07-26T11:43:16Z</time>
      </trkpt>
      <trkpt lat="44.63353" lon="-0.17229">
        <ele>68.3</ele>
        <time>2022-07-26T11:43:17Z</time>
      </trkpt>
      <trkpt lat="44.63352" lon="-0.17229">
        <ele>68.2</ele>
        <time>2022-07-26T11:43:18Z</time>
      </trkpt>
      <trkpt lat="44.63349" lon="-0.17229">
        <ele>68.2</ele>
        <time>2022-07-26T11:43:19Z</time>
      </trkpt>
      <trkpt lat="44.63348" lon="-0.17229">
        <ele>68.2</ele>
        <time>2022-07-26T11:43:20Z</time>
      </trkpt>
      <trkpt lat="44.63347" lon="-0.17229">
        <ele>68.2</ele>
        <time>2022-07-26T11:43:21Z</time>
      </trkpt>
      <trkpt lat="44.63346" lon="-0.17229">
        <ele>68.2</ele>
        <time>2022-07-26T11:43:22Z</time>
      </trkpt>
      <trkpt lat="44.63345" lon="-0.17229">
        <ele>68.1</ele>
        <time>2022-07-26T11:43:23Z</time>
      </trkpt>
      <trkpt lat="44.63343" lon="-0.17229">
        <ele>68.1</ele>
        <time>2022-07-26T11:43:24Z</time>
      </trkpt>
      <trkpt lat="44.63341" lon="-0.17229">
        <ele>68.1</ele>
        <time>2022-07-26T11:43:25Z</time>
      </trkpt>
      <trkpt lat="44.63341" lon="-0.17229">
        <ele>68.1</ele>
        <time>2022-07-26T11:43:26Z</time>
      </trkpt>
      <trkpt lat="44.6334" lon="-0.17228">
        <ele>68.1</ele>
        <time>2022-07-26T11:43:27Z</time>
      </trkpt>
      <trkpt lat="44.63338" lon="-0.17228">
        <ele>68.1</ele>
        <time>2022-07-26T11:43:28Z</time>
      </trkpt>
      <trkpt lat="44.63336" lon="-0.17228">
        <ele>68.1</ele>
        <time>2022-07-26T11:43:29Z</time>
      </trkpt>
      <trkpt lat="44.63335" lon="-0.17228">
        <ele>68.1</ele>
        <time>2022-07-26T11:43:30Z</time>
      </trkpt>
      <trkpt lat="44.63334" lon="-0.17228">
        <ele>68.1</ele>
        <time>2022-07-26T11:43:31Z</time>
      </trkpt>
      <trkpt lat="44.63332" lon="-0.17227">
        <ele>68.1</ele>
        <time>2022-07-26T11:43:32Z</time>
      </trkpt>
      <trkpt lat="44.6333" lon="-0.17227">
        <ele>68.1</ele>
        <time>2022-07-26T11:43:34Z</time>
      </trkpt>
      <trkpt lat="44.63328" lon="-0.17226">
        <ele>68.1</ele>
        <time>2022-07-26T11:43:35Z</time>
      </trkpt>
      <trkpt lat="44.63327" lon="-0.17226">
        <ele>68.1</ele>
        <time>2022-07-26T11:43:36Z</time>
      </trkpt>
      <trkpt lat="44.63325" lon="-0.17226">
        <ele>68</ele>
        <time>2022-07-26T11:43:37Z</time>
      </trkpt>
      <trkpt lat="44.63324" lon="-0.17226">
        <ele>68</ele>
        <time>2022-07-26T11:43:38Z</time>
      </trkpt>
      <trkpt lat="44.63323" lon="-0.17226">
        <ele>68</ele>
        <time>2022-07-26T11:43:39Z</time>
      </trkpt>
      <trkpt lat="44.6332" lon="-0.17225">
        <ele>68</ele>
        <time>2022-07-26T11:43:40Z</time>
      </trkpt>
      <trkpt lat="44.63319" lon="-0.17225">
        <ele>68</ele>
        <time>2022-07-26T11:43:41Z</time>
      </trkpt>
      <trkpt lat="44.63318" lon="-0.17225">
        <ele>68</ele>
        <time>2022-07-26T11:43:42Z</time>
      </trkpt>
      <trkpt lat="44.63316" lon="-0.17225">
        <ele>68</ele>
        <time>2022-07-26T11:43:44Z</time>
      </trkpt>
      <trkpt lat="44.63313" lon="-0.17225">
        <ele>68</ele>
        <time>2022-07-26T11:43:45Z</time>
      </trkpt>
      <trkpt lat="44.63311" lon="-0.17225">
        <ele>68</ele>
        <time>2022-07-26T11:43:46Z</time>
      </trkpt>
      <trkpt lat="44.6331" lon="-0.17225">
        <ele>68</ele>
        <time>2022-07-26T11:43:48Z</time>
      </trkpt>
      <trkpt lat="44.63309" lon="-0.17225">
        <ele>68</ele>
        <time>2022-07-26T11:43:49Z</time>
      </trkpt>
      <trkpt lat="44.63308" lon="-0.17225">
        <ele>68</ele>
        <time>2022-07-26T11:43:50Z</time>
      </trkpt>
      <trkpt lat="44.63306" lon="-0.17224">
        <ele>68</ele>
        <time>2022-07-26T11:43:51Z</time>
      </trkpt>
      <trkpt lat="44.63305" lon="-0.17224">
        <ele>68</ele>
        <time>2022-07-26T11:43:52Z</time>
      </trkpt>
      <trkpt lat="44.63304" lon="-0.17224">
        <ele>68</ele>
        <time>2022-07-26T11:43:53Z</time>
      </trkpt>
      <trkpt lat="44.63303" lon="-0.17224">
        <ele>68</ele>
        <time>2022-07-26T11:43:54Z</time>
      </trkpt>
      <trkpt lat="44.633" lon="-0.17224">
        <ele>68</ele>
        <time>2022-07-26T11:43:55Z</time>
      </trkpt>
      <trkpt lat="44.633" lon="-0.17224">
        <ele>68</ele>
        <time>2022-07-26T11:43:56Z</time>
      </trkpt>
      <trkpt lat="44.63297" lon="-0.17224">
        <ele>68</ele>
        <time>2022-07-26T11:43:58Z</time>
      </trkpt>
      <trkpt lat="44.63296" lon="-0.17224">
        <ele>68</ele>
        <time>2022-07-26T11:43:59Z</time>
      </trkpt>
      <trkpt lat="44.63294" lon="-0.17225">
        <ele>68</ele>
        <time>2022-07-26T11:44:00Z</time>
      </trkpt>
      <trkpt lat="44.63293" lon="-0.17225">
        <ele>68</ele>
        <time>2022-07-26T11:44:01Z</time>
      </trkpt>
      <trkpt lat="44.63293" lon="-0.17226">
        <ele>68</ele>
        <time>2022-07-26T11:44:02Z</time>
      </trkpt>
      <trkpt lat="44.63292" lon="-0.17226">
        <ele>68</ele>
        <time>2022-07-26T11:44:03Z</time>
      </trkpt>
      <trkpt lat="44.6329" lon="-0.17226">
        <ele>68</ele>
        <time>2022-07-26T11:44:04Z</time>
      </trkpt>
      <trkpt lat="44.63287" lon="-0.17225">
        <ele>68</ele>
        <time>2022-07-26T11:44:06Z</time>
      </trkpt>
      <trkpt lat="44.63286" lon="-0.17225">
        <ele>67.9</ele>
        <time>2022-07-26T11:44:07Z</time>
      </trkpt>
      <trkpt lat="44.63285" lon="-0.17224">
        <ele>67.9</ele>
        <time>2022-07-26T11:44:08Z</time>
      </trkpt>
      <trkpt lat="44.63282" lon="-0.17224">
        <ele>67.9</ele>
        <time>2022-07-26T11:44:09Z</time>
      </trkpt>
      <trkpt lat="44.63281" lon="-0.17223">
        <ele>67.9</ele>
        <time>2022-07-26T11:44:10Z</time>
      </trkpt>
      <trkpt lat="44.63278" lon="-0.17223">
        <ele>67.9</ele>
        <time>2022-07-26T11:44:11Z</time>
      </trkpt>
      <trkpt lat="44.63277" lon="-0.17222">
        <ele>67.9</ele>
        <time>2022-07-26T11:44:13Z</time>
      </trkpt>
      <trkpt lat="44.63275" lon="-0.17222">
        <ele>67.9</ele>
        <time>2022-07-26T11:44:14Z</time>
      </trkpt>
      <trkpt lat="44.63274" lon="-0.17222">
        <ele>67.9</ele>
        <time>2022-07-26T11:44:15Z</time>
      </trkpt>
      <trkpt lat="44.63273" lon="-0.17222">
        <ele>67.9</ele>
        <time>2022-07-26T11:44:16Z</time>
      </trkpt>
      <trkpt lat="44.63272" lon="-0.17222">
        <ele>67.9</ele>
        <time>2022-07-26T11:44:17Z</time>
      </trkpt>
      <trkpt lat="44.63271" lon="-0.17221">
        <ele>67.9</ele>
        <time>2022-07-26T11:44:18Z</time>
      </trkpt>
      <trkpt lat="44.63269" lon="-0.17221">
        <ele>67.9</ele>
        <time>2022-07-26T11:44:21Z</time>
      </trkpt>
      <trkpt lat="44.63268" lon="-0.1722">
        <ele>68</ele>
        <time>2022-07-26T11:44:22Z</time>
      </trkpt>
      <trkpt lat="44.63267" lon="-0.1722">
        <ele>68</ele>
        <time>2022-07-26T11:44:23Z</time>
      </trkpt>
      <trkpt lat="44.63266" lon="-0.17219">
        <ele>68</ele>
        <time>2022-07-26T11:44:24Z</time>
      </trkpt>
      <trkpt lat="44.63264" lon="-0.17219">
        <ele>68</ele>
        <time>2022-07-26T11:44:25Z</time>
      </trkpt>
      <trkpt lat="44.63262" lon="-0.17219">
        <ele>68</ele>
        <time>2022-07-26T11:44:27Z</time>
      </trkpt>
      <trkpt lat="44.63261" lon="-0.17219">
        <ele>68.1</ele>
        <time>2022-07-26T11:44:28Z</time>
      </trkpt>
      <trkpt lat="44.6326" lon="-0.17219">
        <ele>68.1</ele>
        <time>2022-07-26T11:44:29Z</time>
      </trkpt>
      <trkpt lat="44.63259" lon="-0.17218">
        <ele>68.1</ele>
        <time>2022-07-26T11:44:30Z</time>
      </trkpt>
      <trkpt lat="44.63257" lon="-0.17218">
        <ele>68.1</ele>
        <time>2022-07-26T11:44:31Z</time>
      </trkpt>
      <trkpt lat="44.63256" lon="-0.17218">
        <ele>68.1</ele>
        <time>2022-07-26T11:44:32Z</time>
      </trkpt>
      <trkpt lat="44.63255" lon="-0.17218">
        <ele>68.2</ele>
        <time>2022-07-26T11:44:33Z</time>
      </trkpt>
      <trkpt lat="44.63254" lon="-0.17218">
        <ele>68.2</ele>
        <time>2022-07-26T11:44:34Z</time>
      </trkpt>
      <trkpt lat="44.63251" lon="-0.17217">
        <ele>68.3</ele>
        <time>2022-07-26T11:44:36Z</time>
      </trkpt>
      <trkpt lat="44.6325" lon="-0.17217">
        <ele>68.3</ele>
        <time>2022-07-26T11:44:37Z</time>
      </trkpt>
      <trkpt lat="44.63249" lon="-0.17217">
        <ele>68.3</ele>
        <time>2022-07-26T11:44:38Z</time>
      </trkpt>
      <trkpt lat="44.63246" lon="-0.17218">
        <ele>68.3</ele>
        <time>2022-07-26T11:44:41Z</time>
      </trkpt>
      <trkpt lat="44.63245" lon="-0.17218">
        <ele>68.4</ele>
        <time>2022-07-26T11:44:42Z</time>
      </trkpt>
      <trkpt lat="44.63244" lon="-0.17218">
        <ele>68.4</ele>
        <time>2022-07-26T11:44:43Z</time>
      </trkpt>
      <trkpt lat="44.63242" lon="-0.17217">
        <ele>68.4</ele>
        <time>2022-07-26T11:44:44Z</time>
      </trkpt>
      <trkpt lat="44.63241" lon="-0.17216">
        <ele>68.4</ele>
        <time>2022-07-26T11:44:45Z</time>
      </trkpt>
      <trkpt lat="44.6324" lon="-0.17216">
        <ele>68.4</ele>
        <time>2022-07-26T11:44:47Z</time>
      </trkpt>
      <trkpt lat="44.63238" lon="-0.17217">
        <ele>68.4</ele>
        <time>2022-07-26T11:44:48Z</time>
      </trkpt>
      <trkpt lat="44.63236" lon="-0.17217">
        <ele>68.4</ele>
        <time>2022-07-26T11:44:50Z</time>
      </trkpt>
      <trkpt lat="44.63234" lon="-0.17217">
        <ele>68.4</ele>
        <time>2022-07-26T11:44:51Z</time>
      </trkpt>
      <trkpt lat="44.63233" lon="-0.17216">
        <ele>68.4</ele>
        <time>2022-07-26T11:44:52Z</time>
      </trkpt>
      <trkpt lat="44.63231" lon="-0.17216">
        <ele>68.4</ele>
        <time>2022-07-26T11:44:53Z</time>
      </trkpt>
      <trkpt lat="44.63231" lon="-0.17216">
        <ele>68.4</ele>
        <time>2022-07-26T11:44:54Z</time>
      </trkpt>
      <trkpt lat="44.63229" lon="-0.17216">
        <ele>68.4</ele>
        <time>2022-07-26T11:44:55Z</time>
      </trkpt>
      <trkpt lat="44.63228" lon="-0.17216">
        <ele>68.4</ele>
        <time>2022-07-26T11:44:56Z</time>
      </trkpt>
      <trkpt lat="44.63227" lon="-0.17216">
        <ele>68.4</ele>
        <time>2022-07-26T11:44:57Z</time>
      </trkpt>
      <trkpt lat="44.63225" lon="-0.17216">
        <ele>68.4</ele>
        <time>2022-07-26T11:44:58Z</time>
      </trkpt>
      <trkpt lat="44.63224" lon="-0.17215">
        <ele>68.4</ele>
        <time>2022-07-26T11:44:59Z</time>
      </trkpt>
      <trkpt lat="44.63221" lon="-0.17215">
        <ele>68.3</ele>
        <time>2022-07-26T11:45:01Z</time>
      </trkpt>
      <trkpt lat="44.6322" lon="-0.17215">
        <ele>68.3</ele>
        <time>2022-07-26T11:45:02Z</time>
      </trkpt>
      <trkpt lat="44.63219" lon="-0.17215">
        <ele>68.3</ele>
        <time>2022-07-26T11:45:03Z</time>
      </trkpt>
      <trkpt lat="44.63218" lon="-0.17214">
        <ele>68.3</ele>
        <time>2022-07-26T11:45:04Z</time>
      </trkpt>
      <trkpt lat="44.63217" lon="-0.17214">
        <ele>68.3</ele>
        <time>2022-07-26T11:45:05Z</time>
      </trkpt>
      <trkpt lat="44.63215" lon="-0.17214">
        <ele>68.3</ele>
        <time>2022-07-26T11:45:06Z</time>
      </trkpt>
      <trkpt lat="44.63214" lon="-0.17213">
        <ele>68.2</ele>
        <time>2022-07-26T11:45:07Z</time>
      </trkpt>
      <trkpt lat="44.63213" lon="-0.17213">
        <ele>68.2</ele>
        <time>2022-07-26T11:45:08Z</time>
      </trkpt>
      <trkpt lat="44.63212" lon="-0.17213">
        <ele>68.2</ele>
        <time>2022-07-26T11:45:09Z</time>
      </trkpt>
      <trkpt lat="44.6321" lon="-0.17212">
        <ele>68.2</ele>
        <time>2022-07-26T11:45:11Z</time>
      </trkpt>
      <trkpt lat="44.63209" lon="-0.17212">
        <ele>68.2</ele>
        <time>2022-07-26T11:45:12Z</time>
      </trkpt>
      <trkpt lat="44.63206" lon="-0.17212">
        <ele>68.2</ele>
        <time>2022-07-26T11:45:13Z</time>
      </trkpt>
      <trkpt lat="44.63206" lon="-0.17212">
        <ele>68.2</ele>
        <time>2022-07-26T11:45:14Z</time>
      </trkpt>
      <trkpt lat="44.63205" lon="-0.17213">
        <ele>68.1</ele>
        <time>2022-07-26T11:45:15Z</time>
      </trkpt>
      <trkpt lat="44.63202" lon="-0.17213">
        <ele>68.1</ele>
        <time>2022-07-26T11:45:16Z</time>
      </trkpt>
      <trkpt lat="44.63201" lon="-0.17213">
        <ele>68.1</ele>
        <time>2022-07-26T11:45:18Z</time>
      </trkpt>
      <trkpt lat="44.63199" lon="-0.17213">
        <ele>68</ele>
        <time>2022-07-26T11:45:19Z</time>
      </trkpt>
      <trkpt lat="44.63198" lon="-0.17214">
        <ele>68</ele>
        <time>2022-07-26T11:45:20Z</time>
      </trkpt>
      <trkpt lat="44.63197" lon="-0.17214">
        <ele>68</ele>
        <time>2022-07-26T11:45:21Z</time>
      </trkpt>
      <trkpt lat="44.63196" lon="-0.17214">
        <ele>67.9</ele>
        <time>2022-07-26T11:45:22Z</time>
      </trkpt>
      <trkpt lat="44.63195" lon="-0.17214">
        <ele>67.9</ele>
        <time>2022-07-26T11:45:23Z</time>
      </trkpt>
      <trkpt lat="44.63194" lon="-0.17214">
        <ele>67.9</ele>
        <time>2022-07-26T11:45:24Z</time>
      </trkpt>
      <trkpt lat="44.63193" lon="-0.17213">
        <ele>67.8</ele>
        <time>2022-07-26T11:45:25Z</time>
      </trkpt>
      <trkpt lat="44.63191" lon="-0.17213">
        <ele>67.7</ele>
        <time>2022-07-26T11:45:26Z</time>
      </trkpt>
      <trkpt lat="44.6319" lon="-0.17212">
        <ele>67.7</ele>
        <time>2022-07-26T11:45:27Z</time>
      </trkpt>
      <trkpt lat="44.63189" lon="-0.17212">
        <ele>67.6</ele>
        <time>2022-07-26T11:45:28Z</time>
      </trkpt>
      <trkpt lat="44.63188" lon="-0.17212">
        <ele>67.5</ele>
        <time>2022-07-26T11:45:29Z</time>
      </trkpt>
      <trkpt lat="44.63186" lon="-0.17212">
        <ele>67.5</ele>
        <time>2022-07-26T11:45:30Z</time>
      </trkpt>
      <trkpt lat="44.63185" lon="-0.17211">
        <ele>67.4</ele>
        <time>2022-07-26T11:45:31Z</time>
      </trkpt>
      <trkpt lat="44.63184" lon="-0.17211">
        <ele>67.3</ele>
        <time>2022-07-26T11:45:32Z</time>
      </trkpt>
      <trkpt lat="44.63183" lon="-0.1721">
        <ele>67.3</ele>
        <time>2022-07-26T11:45:33Z</time>
      </trkpt>
      <trkpt lat="44.63181" lon="-0.1721">
        <ele>67.2</ele>
        <time>2022-07-26T11:45:34Z</time>
      </trkpt>
      <trkpt lat="44.6318" lon="-0.1721">
        <ele>67.1</ele>
        <time>2022-07-26T11:45:35Z</time>
      </trkpt>
      <trkpt lat="44.63178" lon="-0.1721">
        <ele>67.1</ele>
        <time>2022-07-26T11:45:36Z</time>
      </trkpt>
      <trkpt lat="44.63178" lon="-0.1721">
        <ele>67</ele>
        <time>2022-07-26T11:45:37Z</time>
      </trkpt>
      <trkpt lat="44.63176" lon="-0.1721">
        <ele>67</ele>
        <time>2022-07-26T11:45:38Z</time>
      </trkpt>
      <trkpt lat="44.63175" lon="-0.1721">
        <ele>67</ele>
        <time>2022-07-26T11:45:39Z</time>
      </trkpt>
      <trkpt lat="44.63172" lon="-0.17211">
        <ele>66.9</ele>
        <time>2022-07-26T11:45:40Z</time>
      </trkpt>
      <trkpt lat="44.63171" lon="-0.17211">
        <ele>66.9</ele>
        <time>2022-07-26T11:45:41Z</time>
      </trkpt>
      <trkpt lat="44.6317" lon="-0.17211">
        <ele>66.8</ele>
        <time>2022-07-26T11:45:42Z</time>
      </trkpt>
      <trkpt lat="44.63169" lon="-0.1721">
        <ele>66.8</ele>
        <time>2022-07-26T11:45:43Z</time>
      </trkpt>
      <trkpt lat="44.63168" lon="-0.1721">
        <ele>66.8</ele>
        <time>2022-07-26T11:45:44Z</time>
      </trkpt>
      <trkpt lat="44.63167" lon="-0.1721">
        <ele>66.7</ele>
        <time>2022-07-26T11:45:45Z</time>
      </trkpt>
      <trkpt lat="44.63165" lon="-0.17209">
        <ele>66.7</ele>
        <time>2022-07-26T11:45:46Z</time>
      </trkpt>
      <trkpt lat="44.63164" lon="-0.17209">
        <ele>66.6</ele>
        <time>2022-07-26T11:45:47Z</time>
      </trkpt>
      <trkpt lat="44.63163" lon="-0.17209">
        <ele>66.6</ele>
        <time>2022-07-26T11:45:48Z</time>
      </trkpt>
      <trkpt lat="44.63162" lon="-0.17209">
        <ele>66.6</ele>
        <time>2022-07-26T11:45:49Z</time>
      </trkpt>
      <trkpt lat="44.63159" lon="-0.17209">
        <ele>66.5</ele>
        <time>2022-07-26T11:45:51Z</time>
      </trkpt>
      <trkpt lat="44.63158" lon="-0.17209">
        <ele>66.4</ele>
        <time>2022-07-26T11:45:52Z</time>
      </trkpt>
      <trkpt lat="44.63157" lon="-0.1721">
        <ele>66.4</ele>
        <time>2022-07-26T11:45:53Z</time>
      </trkpt>
      <trkpt lat="44.63156" lon="-0.17209">
        <ele>66.4</ele>
        <time>2022-07-26T11:45:54Z</time>
      </trkpt>
      <trkpt lat="44.63154" lon="-0.17209">
        <ele>66.3</ele>
        <time>2022-07-26T11:45:56Z</time>
      </trkpt>
      <trkpt lat="44.63153" lon="-0.17208">
        <ele>66.2</ele>
        <time>2022-07-26T11:45:57Z</time>
      </trkpt>
      <trkpt lat="44.63151" lon="-0.17208">
        <ele>66.2</ele>
        <time>2022-07-26T11:45:58Z</time>
      </trkpt>
      <trkpt lat="44.6315" lon="-0.17208">
        <ele>66.2</ele>
        <time>2022-07-26T11:46:00Z</time>
      </trkpt>
      <trkpt lat="44.63147" lon="-0.17207">
        <ele>66.1</ele>
        <time>2022-07-26T11:46:01Z</time>
      </trkpt>
      <trkpt lat="44.63146" lon="-0.17207">
        <ele>66.1</ele>
        <time>2022-07-26T11:46:02Z</time>
      </trkpt>
      <trkpt lat="44.63144" lon="-0.17207">
        <ele>66</ele>
        <time>2022-07-26T11:46:04Z</time>
      </trkpt>
      <trkpt lat="44.63143" lon="-0.17206">
        <ele>66</ele>
        <time>2022-07-26T11:46:05Z</time>
      </trkpt>
      <trkpt lat="44.63141" lon="-0.17206">
        <ele>66</ele>
        <time>2022-07-26T11:46:06Z</time>
      </trkpt>
      <trkpt lat="44.6314" lon="-0.17206">
        <ele>66</ele>
        <time>2022-07-26T11:46:07Z</time>
      </trkpt>
      <trkpt lat="44.63138" lon="-0.17206">
        <ele>66</ele>
        <time>2022-07-26T11:46:08Z</time>
      </trkpt>
      <trkpt lat="44.63137" lon="-0.17206">
        <ele>66</ele>
        <time>2022-07-26T11:46:09Z</time>
      </trkpt>
      <trkpt lat="44.63136" lon="-0.17206">
        <ele>66</ele>
        <time>2022-07-26T11:46:10Z</time>
      </trkpt>
      <trkpt lat="44.63133" lon="-0.17208">
        <ele>66</ele>
        <time>2022-07-26T11:46:12Z</time>
      </trkpt>
      <trkpt lat="44.63133" lon="-0.1721">
        <ele>66</ele>
        <time>2022-07-26T11:46:13Z</time>
      </trkpt>
      <trkpt lat="44.63132" lon="-0.17212">
        <ele>66</ele>
        <time>2022-07-26T11:46:14Z</time>
      </trkpt>
      <trkpt lat="44.63132" lon="-0.17213">
        <ele>66</ele>
        <time>2022-07-26T11:46:15Z</time>
      </trkpt>
      <trkpt lat="44.63132" lon="-0.17217">
        <ele>65.9</ele>
        <time>2022-07-26T11:46:17Z</time>
      </trkpt>
      <trkpt lat="44.63133" lon="-0.17219">
        <ele>65.8</ele>
        <time>2022-07-26T11:46:18Z</time>
      </trkpt>
      <trkpt lat="44.63134" lon="-0.1722">
        <ele>65.8</ele>
        <time>2022-07-26T11:46:19Z</time>
      </trkpt>
      <trkpt lat="44.63134" lon="-0.17222">
        <ele>65.8</ele>
        <time>2022-07-26T11:46:20Z</time>
      </trkpt>
      <trkpt lat="44.63134" lon="-0.17225">
        <ele>65.8</ele>
        <time>2022-07-26T11:46:21Z</time>
      </trkpt>
      <trkpt lat="44.63134" lon="-0.17226">
        <ele>65.8</ele>
        <time>2022-07-26T11:46:22Z</time>
      </trkpt>
      <trkpt lat="44.63134" lon="-0.17228">
        <ele>65.8</ele>
        <time>2022-07-26T11:46:23Z</time>
      </trkpt>
      <trkpt lat="44.63133" lon="-0.17229">
        <ele>65.8</ele>
        <time>2022-07-26T11:46:24Z</time>
      </trkpt>
      <trkpt lat="44.63133" lon="-0.17231">
        <ele>65.7</ele>
        <time>2022-07-26T11:46:25Z</time>
      </trkpt>
      <trkpt lat="44.63132" lon="-0.17233">
        <ele>65.7</ele>
        <time>2022-07-26T11:46:26Z</time>
      </trkpt>
      <trkpt lat="44.63132" lon="-0.17234">
        <ele>65.7</ele>
        <time>2022-07-26T11:46:27Z</time>
      </trkpt>
      <trkpt lat="44.63132" lon="-0.17236">
        <ele>65.7</ele>
        <time>2022-07-26T11:46:28Z</time>
      </trkpt>
      <trkpt lat="44.63132" lon="-0.17238">
        <ele>65.7</ele>
        <time>2022-07-26T11:46:29Z</time>
      </trkpt>
      <trkpt lat="44.63133" lon="-0.17241">
        <ele>65.7</ele>
        <time>2022-07-26T11:46:31Z</time>
      </trkpt>
      <trkpt lat="44.63134" lon="-0.17241">
        <ele>65.7</ele>
        <time>2022-07-26T11:46:32Z</time>
      </trkpt>
      <trkpt lat="44.63135" lon="-0.17242">
        <ele>65.7</ele>
        <time>2022-07-26T11:46:33Z</time>
      </trkpt>
      <trkpt lat="44.63136" lon="-0.17242">
        <ele>65.7</ele>
        <time>2022-07-26T11:46:34Z</time>
      </trkpt>
      <trkpt lat="44.63137" lon="-0.17242">
        <ele>65.7</ele>
        <time>2022-07-26T11:46:35Z</time>
      </trkpt>
      <trkpt lat="44.63139" lon="-0.17242">
        <ele>65.7</ele>
        <time>2022-07-26T11:46:36Z</time>
      </trkpt>
      <trkpt lat="44.6314" lon="-0.17241">
        <ele>65.7</ele>
        <time>2022-07-26T11:46:37Z</time>
      </trkpt>
      <trkpt lat="44.63142" lon="-0.17241">
        <ele>65.7</ele>
        <time>2022-07-26T11:46:39Z</time>
      </trkpt>
      <trkpt lat="44.63143" lon="-0.17241">
        <ele>65.7</ele>
        <time>2022-07-26T11:46:40Z</time>
      </trkpt>
      <trkpt lat="44.63143" lon="-0.17243">
        <ele>65.7</ele>
        <time>2022-07-26T11:46:41Z</time>
      </trkpt>
      <trkpt lat="44.63143" lon="-0.17244">
        <ele>65.7</ele>
        <time>2022-07-26T11:46:42Z</time>
      </trkpt>
      <trkpt lat="44.63142" lon="-0.17244">
        <ele>65.7</ele>
        <time>2022-07-26T11:46:43Z</time>
      </trkpt>
      <trkpt lat="44.6314" lon="-0.17243">
        <ele>65.7</ele>
        <time>2022-07-26T11:46:44Z</time>
      </trkpt>
      <trkpt lat="44.63139" lon="-0.17243">
        <ele>65.7</ele>
        <time>2022-07-26T11:46:45Z</time>
      </trkpt>
      <trkpt lat="44.63139" lon="-0.17244">
        <ele>65.7</ele>
        <time>2022-07-26T11:46:46Z</time>
      </trkpt>
      <trkpt lat="44.63139" lon="-0.17244">
        <ele>65.7</ele>
        <time>2022-07-26T11:46:47Z</time>
      </trkpt>
      <trkpt lat="44.63139" lon="-0.17244">
        <ele>65.7</ele>
        <time>2022-07-26T11:46:48Z</time>
      </trkpt>
      <trkpt lat="44.63139" lon="-0.17244">
        <ele>65.7</ele>
        <time>2022-07-26T11:46:49Z</time>
      </trkpt>
      <trkpt lat="44.63138" lon="-0.17244">
        <ele>65.7</ele>
        <time>2022-07-26T11:46:50Z</time>
      </trkpt>
      <trkpt lat="44.63138" lon="-0.17244">
        <ele>65.7</ele>
        <time>2022-07-26T11:46:51Z</time>
      </trkpt>
      <trkpt lat="44.63138" lon="-0.17244">
        <ele>65.7</ele>
        <time>2022-07-26T11:46:52Z</time>
      </trkpt>
      <trkpt lat="44.63138" lon="-0.17244">
        <ele>65.7</ele>
        <time>2022-07-26T11:46:53Z</time>
      </trkpt>
      <trkpt lat="44.63138" lon="-0.17244">
        <ele>65.7</ele>
        <time>2022-07-26T11:46:54Z</time>
      </trkpt>
      <trkpt lat="44.63138" lon="-0.17244">
        <ele>65.7</ele>
        <time>2022-07-26T11:46:55Z</time>
      </trkpt>
      <trkpt lat="44.63137" lon="-0.17244">
        <ele>65.7</ele>
        <time>2022-07-26T11:46:56Z</time>
      </trkpt>
      <trkpt lat="44.63137" lon="-0.17244">
        <ele>65.7</ele>
        <time>2022-07-26T11:46:57Z</time>
      </trkpt>
      <trkpt lat="44.63137" lon="-0.17245">
        <ele>65.7</ele>
        <time>2022-07-26T11:46:58Z</time>
      </trkpt>
      <trkpt lat="44.63137" lon="-0.17245">
        <ele>65.7</ele>
        <time>2022-07-26T11:46:59Z</time>
      </trkpt>
      <trkpt lat="44.63137" lon="-0.17245">
        <ele>65.7</ele>
        <time>2022-07-26T11:47:00Z</time>
      </trkpt>
      <trkpt lat="44.63137" lon="-0.17245">
        <ele>65.7</ele>
        <time>2022-07-26T11:47:01Z</time>
      </trkpt>
      <trkpt lat="44.63137" lon="-0.17245">
        <ele>65.7</ele>
        <time>2022-07-26T11:47:02Z</time>
      </trkpt>
      <trkpt lat="44.63136" lon="-0.17245">
        <ele>65.7</ele>
        <time>2022-07-26T11:47:03Z</time>
      </trkpt>
      <trkpt lat="44.63136" lon="-0.17245">
        <ele>65.7</ele>
        <time>2022-07-26T11:47:04Z</time>
      </trkpt>
      <trkpt lat="44.63136" lon="-0.17245">
        <ele>65.7</ele>
        <time>2022-07-26T11:47:05Z</time>
      </trkpt>
      <trkpt lat="44.63136" lon="-0.17245">
        <ele>65.7</ele>
        <time>2022-07-26T11:47:06Z</time>
      </trkpt>
      <trkpt lat="44.63136" lon="-0.17245">
        <ele>65.7</ele>
        <time>2022-07-26T11:47:07Z</time>
      </trkpt>
      <trkpt lat="44.63136" lon="-0.17245">
        <ele>65.7</ele>
        <time>2022-07-26T11:47:08Z</time>
      </trkpt>
      <trkpt lat="44.63136" lon="-0.17245">
        <ele>65.7</ele>
        <time>2022-07-26T11:47:09Z</time>
      </trkpt>
      <trkpt lat="44.63136" lon="-0.17245">
        <ele>65.7</ele>
        <time>2022-07-26T11:47:10Z</time>
      </trkpt>
      <trkpt lat="44.63135" lon="-0.17245">
        <ele>65.7</ele>
        <time>2022-07-26T11:47:11Z</time>
      </trkpt>
      <trkpt lat="44.63134" lon="-0.17246">
        <ele>65.6</ele>
        <time>2022-07-26T11:47:12Z</time>
      </trkpt>
      <trkpt lat="44.63133" lon="-0.17246">
        <ele>65.6</ele>
        <time>2022-07-26T11:47:13Z</time>
      </trkpt>
      <trkpt lat="44.63134" lon="-0.17245">
        <ele>65.6</ele>
        <time>2022-07-26T11:47:14Z</time>
      </trkpt>
      <trkpt lat="44.63135" lon="-0.17245">
        <ele>65.7</ele>
        <time>2022-07-26T11:47:15Z</time>
      </trkpt>
      <trkpt lat="44.63135" lon="-0.17244">
        <ele>65.7</ele>
        <time>2022-07-26T11:47:16Z</time>
      </trkpt>
      <trkpt lat="44.63136" lon="-0.17244">
        <ele>65.7</ele>
        <time>2022-07-26T11:47:17Z</time>
      </trkpt>
      <trkpt lat="44.63136" lon="-0.17244">
        <ele>65.7</ele>
        <time>2022-07-26T11:47:18Z</time>
      </trkpt>
      <trkpt lat="44.63136" lon="-0.17244">
        <ele>65.7</ele>
        <time>2022-07-26T11:47:19Z</time>
      </trkpt>
      <trkpt lat="44.63136" lon="-0.17244">
        <ele>65.7</ele>
        <time>2022-07-26T11:47:20Z</time>
      </trkpt>
      <trkpt lat="44.63136" lon="-0.17244">
        <ele>65.7</ele>
        <time>2022-07-26T11:47:21Z</time>
      </trkpt>
      <trkpt lat="44.63136" lon="-0.17244">
        <ele>65.7</ele>
        <time>2022-07-26T11:47:22Z</time>
      </trkpt>
      <trkpt lat="44.63136" lon="-0.17244">
        <ele>65.7</ele>
        <time>2022-07-26T11:47:23Z</time>
      </trkpt>
      <trkpt lat="44.63136" lon="-0.17244">
        <ele>65.7</ele>
        <time>2022-07-26T11:47:24Z</time>
      </trkpt>
      <trkpt lat="44.63136" lon="-0.17244">
        <ele>65.7</ele>
        <time>2022-07-26T11:47:25Z</time>
      </trkpt>
      <trkpt lat="44.63136" lon="-0.17244">
        <ele>65.7</ele>
        <time>2022-07-26T11:47:26Z</time>
      </trkpt>
      <trkpt lat="44.63136" lon="-0.17244">
        <ele>65.7</ele>
        <time>2022-07-26T11:47:27Z</time>
      </trkpt>
      <trkpt lat="44.63136" lon="-0.17244">
        <ele>65.7</ele>
        <time>2022-07-26T11:47:28Z</time>
      </trkpt>
      <trkpt lat="44.63136" lon="-0.17244">
        <ele>65.7</ele>
        <time>2022-07-26T11:47:29Z</time>
      </trkpt>
      <trkpt lat="44.63136" lon="-0.17244">
        <ele>65.7</ele>
        <time>2022-07-26T11:47:30Z</time>
      </trkpt>
      <trkpt lat="44.63136" lon="-0.17244">
        <ele>65.7</ele>
        <time>2022-07-26T11:47:31Z</time>
      </trkpt>
      <trkpt lat="44.63136" lon="-0.17244">
        <ele>65.7</ele>
        <time>2022-07-26T11:47:32Z</time>
      </trkpt>
      <trkpt lat="44.63136" lon="-0.17244">
        <ele>65.7</ele>
        <time>2022-07-26T11:47:33Z</time>
      </trkpt>
      <trkpt lat="44.63136" lon="-0.17244">
        <ele>65.7</ele>
        <time>2022-07-26T11:47:34Z</time>
      </trkpt>
      <trkpt lat="44.63136" lon="-0.17244">
        <ele>65.7</ele>
        <time>2022-07-26T11:47:35Z</time>
      </trkpt>
      <trkpt lat="44.63136" lon="-0.17243">
        <ele>65.7</ele>
        <time>2022-07-26T11:47:36Z</time>
      </trkpt>
      <trkpt lat="44.63137" lon="-0.17242">
        <ele>65.7</ele>
        <time>2022-07-26T11:47:37Z</time>
      </trkpt>
      <trkpt lat="44.63137" lon="-0.17242">
        <ele>65.7</ele>
        <time>2022-07-26T11:47:38Z</time>
      </trkpt>
      <trkpt lat="44.63137" lon="-0.17242">
        <ele>65.7</ele>
        <time>2022-07-26T11:47:39Z</time>
      </trkpt>
      <trkpt lat="44.63137" lon="-0.17242">
        <ele>65.7</ele>
        <time>2022-07-26T11:47:40Z</time>
      </trkpt>
      <trkpt lat="44.63137" lon="-0.17242">
        <ele>65.7</ele>
        <time>2022-07-26T11:47:41Z</time>
      </trkpt>
      <trkpt lat="44.63137" lon="-0.17242">
        <ele>65.7</ele>
        <time>2022-07-26T11:47:42Z</time>
      </trkpt>
      <trkpt lat="44.63137" lon="-0.17242">
        <ele>65.7</ele>
        <time>2022-07-26T11:47:43Z</time>
      </trkpt>
      <trkpt lat="44.63137" lon="-0.17242">
        <ele>65.7</ele>
        <time>2022-07-26T11:47:44Z</time>
      </trkpt>
      <trkpt lat="44.63137" lon="-0.17242">
        <ele>65.7</ele>
        <time>2022-07-26T11:47:45Z</time>
      </trkpt>
      <trkpt lat="44.63137" lon="-0.17242">
        <ele>65.7</ele>
        <time>2022-07-26T11:47:46Z</time>
      </trkpt>
      <trkpt lat="44.63137" lon="-0.17242">
        <ele>65.7</ele>
        <time>2022-07-26T11:47:47Z</time>
      </trkpt>
      <trkpt lat="44.63137" lon="-0.17242">
        <ele>65.7</ele>
        <time>2022-07-26T11:47:48Z</time>
      </trkpt>
      <trkpt lat="44.63137" lon="-0.17242">
        <ele>65.7</ele>
        <time>2022-07-26T11:47:49Z</time>
      </trkpt>
      <trkpt lat="44.63137" lon="-0.17242">
        <ele>65.7</ele>
        <time>2022-07-26T11:47:50Z</time>
      </trkpt>
      <trkpt lat="44.63137" lon="-0.17242">
        <ele>65.7</ele>
        <time>2022-07-26T11:47:51Z</time>
      </trkpt>
      <trkpt lat="44.63137" lon="-0.17242">
        <ele>65.7</ele>
        <time>2022-07-26T11:47:52Z</time>
      </trkpt>
      <trkpt lat="44.63137" lon="-0.17242">
        <ele>65.7</ele>
        <time>2022-07-26T11:47:53Z</time>
      </trkpt>
      <trkpt lat="44.63137" lon="-0.17242">
        <ele>65.7</ele>
        <time>2022-07-26T11:47:54Z</time>
      </trkpt>
      <trkpt lat="44.63137" lon="-0.17241">
        <ele>65.7</ele>
        <time>2022-07-26T11:47:55Z</time>
      </trkpt>
      <trkpt lat="44.63137" lon="-0.17241">
        <ele>65.7</ele>
        <time>2022-07-26T11:47:56Z</time>
      </trkpt>
      <trkpt lat="44.63137" lon="-0.17241">
        <ele>65.7</ele>
        <time>2022-07-26T11:47:57Z</time>
      </trkpt>
      <trkpt lat="44.63136" lon="-0.1724">
        <ele>65.7</ele>
        <time>2022-07-26T11:47:58Z</time>
      </trkpt>
      <trkpt lat="44.63136" lon="-0.1724">
        <ele>65.7</ele>
        <time>2022-07-26T11:47:59Z</time>
      </trkpt>
      <trkpt lat="44.63135" lon="-0.17239">
        <ele>65.7</ele>
        <time>2022-07-26T11:48:00Z</time>
      </trkpt>
      <trkpt lat="44.63135" lon="-0.17239">
        <ele>65.7</ele>
        <time>2022-07-26T11:48:01Z</time>
      </trkpt>
      <trkpt lat="44.63135" lon="-0.17238">
        <ele>65.7</ele>
        <time>2022-07-26T11:48:02Z</time>
      </trkpt>
      <trkpt lat="44.63134" lon="-0.17238">
        <ele>65.7</ele>
        <time>2022-07-26T11:48:03Z</time>
      </trkpt>
      <trkpt lat="44.63133" lon="-0.17238">
        <ele>65.7</ele>
        <time>2022-07-26T11:48:04Z</time>
      </trkpt>
      <trkpt lat="44.63132" lon="-0.17237">
        <ele>65.7</ele>
        <time>2022-07-26T11:48:05Z</time>
      </trkpt>
      <trkpt lat="44.6313" lon="-0.17237">
        <ele>65.7</ele>
        <time>2022-07-26T11:48:07Z</time>
      </trkpt>
      <trkpt lat="44.63129" lon="-0.17238">
        <ele>65.7</ele>
        <time>2022-07-26T11:48:08Z</time>
      </trkpt>
      <trkpt lat="44.63127" lon="-0.17239">
        <ele>65.6</ele>
        <time>2022-07-26T11:48:09Z</time>
      </trkpt>
      <trkpt lat="44.63126" lon="-0.1724">
        <ele>65.6</ele>
        <time>2022-07-26T11:48:10Z</time>
      </trkpt>
      <trkpt lat="44.63126" lon="-0.17241">
        <ele>65.6</ele>
        <time>2022-07-26T11:48:11Z</time>
      </trkpt>
      <trkpt lat="44.63125" lon="-0.17245">
        <ele>65.6</ele>
        <time>2022-07-26T11:48:12Z</time>
      </trkpt>
      <trkpt lat="44.63125" lon="-0.17247">
        <ele>65.6</ele>
        <time>2022-07-26T11:48:13Z</time>
      </trkpt>
      <trkpt lat="44.63125" lon="-0.17249">
        <ele>65.6</ele>
        <time>2022-07-26T11:48:14Z</time>
      </trkpt>
      <trkpt lat="44.63125" lon="-0.17251">
        <ele>65.6</ele>
        <time>2022-07-26T11:48:15Z</time>
      </trkpt>
      <trkpt lat="44.63125" lon="-0.17255">
        <ele>65.6</ele>
        <time>2022-07-26T11:48:16Z</time>
      </trkpt>
      <trkpt lat="44.63126" lon="-0.17258">
        <ele>65.6</ele>
        <time>2022-07-26T11:48:18Z</time>
      </trkpt>
      <trkpt lat="44.63126" lon="-0.1726">
        <ele>65.6</ele>
        <time>2022-07-26T11:48:19Z</time>
      </trkpt>
      <trkpt lat="44.63126" lon="-0.17262">
        <ele>65.6</ele>
        <time>2022-07-26T11:48:20Z</time>
      </trkpt>
      <trkpt lat="44.63126" lon="-0.17263">
        <ele>65.6</ele>
        <time>2022-07-26T11:48:21Z</time>
      </trkpt>
      <trkpt lat="44.63126" lon="-0.17264">
        <ele>65.6</ele>
        <time>2022-07-26T11:48:22Z</time>
      </trkpt>
      <trkpt lat="44.63126" lon="-0.17266">
        <ele>65.6</ele>
        <time>2022-07-26T11:48:23Z</time>
      </trkpt>
      <trkpt lat="44.63126" lon="-0.17268">
        <ele>65.6</ele>
        <time>2022-07-26T11:48:24Z</time>
      </trkpt>
      <trkpt lat="44.63126" lon="-0.17271">
        <ele>65.5</ele>
        <time>2022-07-26T11:48:25Z</time>
      </trkpt>
      <trkpt lat="44.63126" lon="-0.17274">
        <ele>65.6</ele>
        <time>2022-07-26T11:48:27Z</time>
      </trkpt>
      <trkpt lat="44.63126" lon="-0.17275">
        <ele>65.6</ele>
        <time>2022-07-26T11:48:28Z</time>
      </trkpt>
      <trkpt lat="44.63126" lon="-0.17277">
        <ele>65.6</ele>
        <time>2022-07-26T11:48:29Z</time>
      </trkpt>
      <trkpt lat="44.63125" lon="-0.1728">
        <ele>65.6</ele>
        <time>2022-07-26T11:48:30Z</time>
      </trkpt>
      <trkpt lat="44.63125" lon="-0.17281">
        <ele>65.5</ele>
        <time>2022-07-26T11:48:31Z</time>
      </trkpt>
      <trkpt lat="44.63125" lon="-0.17282">
        <ele>65.5</ele>
        <time>2022-07-26T11:48:32Z</time>
      </trkpt>
      <trkpt lat="44.63124" lon="-0.17284">
        <ele>65.5</ele>
        <time>2022-07-26T11:48:33Z</time>
      </trkpt>
      <trkpt lat="44.63124" lon="-0.17286">
        <ele>65.5</ele>
        <time>2022-07-26T11:48:34Z</time>
      </trkpt>
      <trkpt lat="44.63122" lon="-0.1729">
        <ele>65.6</ele>
        <time>2022-07-26T11:48:35Z</time>
      </trkpt>
      <trkpt lat="44.63122" lon="-0.17291">
        <ele>65.5</ele>
        <time>2022-07-26T11:48:37Z</time>
      </trkpt>
      <trkpt lat="44.63121" lon="-0.17293">
        <ele>65.5</ele>
        <time>2022-07-26T11:48:38Z</time>
      </trkpt>
      <trkpt lat="44.63121" lon="-0.17294">
        <ele>65.5</ele>
        <time>2022-07-26T11:48:39Z</time>
      </trkpt>
      <trkpt lat="44.6312" lon="-0.17295">
        <ele>65.5</ele>
        <time>2022-07-26T11:48:40Z</time>
      </trkpt>
      <trkpt lat="44.6312" lon="-0.17298">
        <ele>65.5</ele>
        <time>2022-07-26T11:48:41Z</time>
      </trkpt>
      <trkpt lat="44.6312" lon="-0.173">
        <ele>65.5</ele>
        <time>2022-07-26T11:48:42Z</time>
      </trkpt>
      <trkpt lat="44.6312" lon="-0.17301">
        <ele>65.5</ele>
        <time>2022-07-26T11:48:43Z</time>
      </trkpt>
      <trkpt lat="44.6312" lon="-0.17306">
        <ele>65.5</ele>
        <time>2022-07-26T11:48:45Z</time>
      </trkpt>
      <trkpt lat="44.6312" lon="-0.17307">
        <ele>65.5</ele>
        <time>2022-07-26T11:48:46Z</time>
      </trkpt>
      <trkpt lat="44.6312" lon="-0.17308">
        <ele>65.5</ele>
        <time>2022-07-26T11:48:47Z</time>
      </trkpt>
      <trkpt lat="44.6312" lon="-0.17309">
        <ele>65.5</ele>
        <time>2022-07-26T11:48:48Z</time>
      </trkpt>
      <trkpt lat="44.6312" lon="-0.1731">
        <ele>65.5</ele>
        <time>2022-07-26T11:48:49Z</time>
      </trkpt>
      <trkpt lat="44.63119" lon="-0.17313">
        <ele>65.5</ele>
        <time>2022-07-26T11:48:50Z</time>
      </trkpt>
      <trkpt lat="44.63119" lon="-0.17315">
        <ele>65.5</ele>
        <time>2022-07-26T11:48:51Z</time>
      </trkpt>
      <trkpt lat="44.63118" lon="-0.17316">
        <ele>65.5</ele>
        <time>2022-07-26T11:48:52Z</time>
      </trkpt>
      <trkpt lat="44.63118" lon="-0.17319">
        <ele>65.5</ele>
        <time>2022-07-26T11:48:53Z</time>
      </trkpt>
      <trkpt lat="44.63117" lon="-0.1732">
        <ele>65.5</ele>
        <time>2022-07-26T11:48:55Z</time>
      </trkpt>
      <trkpt lat="44.63117" lon="-0.17322">
        <ele>65.5</ele>
        <time>2022-07-26T11:48:56Z</time>
      </trkpt>
      <trkpt lat="44.63117" lon="-0.17323">
        <ele>65.5</ele>
        <time>2022-07-26T11:48:57Z</time>
      </trkpt>
      <trkpt lat="44.63117" lon="-0.17325">
        <ele>65.5</ele>
        <time>2022-07-26T11:48:58Z</time>
      </trkpt>
      <trkpt lat="44.63117" lon="-0.17327">
        <ele>65.5</ele>
        <time>2022-07-26T11:48:59Z</time>
      </trkpt>
      <trkpt lat="44.63117" lon="-0.17329">
        <ele>65.5</ele>
        <time>2022-07-26T11:49:00Z</time>
      </trkpt>
      <trkpt lat="44.63117" lon="-0.17331">
        <ele>65.5</ele>
        <time>2022-07-26T11:49:01Z</time>
      </trkpt>
      <trkpt lat="44.63117" lon="-0.17333">
        <ele>65.5</ele>
        <time>2022-07-26T11:49:02Z</time>
      </trkpt>
      <trkpt lat="44.63118" lon="-0.17335">
        <ele>65.5</ele>
        <time>2022-07-26T11:49:04Z</time>
      </trkpt>
      <trkpt lat="44.63119" lon="-0.17338">
        <ele>65.5</ele>
        <time>2022-07-26T11:49:05Z</time>
      </trkpt>
      <trkpt lat="44.63119" lon="-0.17338">
        <ele>65.5</ele>
        <time>2022-07-26T11:49:06Z</time>
      </trkpt>
      <trkpt lat="44.63121" lon="-0.17339">
        <ele>65.5</ele>
        <time>2022-07-26T11:49:07Z</time>
      </trkpt>
      <trkpt lat="44.63122" lon="-0.1734">
        <ele>65.5</ele>
        <time>2022-07-26T11:49:08Z</time>
      </trkpt>
      <trkpt lat="44.63123" lon="-0.1734">
        <ele>65.5</ele>
        <time>2022-07-26T11:49:09Z</time>
      </trkpt>
      <trkpt lat="44.63124" lon="-0.17341">
        <ele>65.5</ele>
        <time>2022-07-26T11:49:10Z</time>
      </trkpt>
      <trkpt lat="44.63125" lon="-0.17341">
        <ele>65.6</ele>
        <time>2022-07-26T11:49:11Z</time>
      </trkpt>
      <trkpt lat="44.63127" lon="-0.17341">
        <ele>65.6</ele>
        <time>2022-07-26T11:49:12Z</time>
      </trkpt>
      <trkpt lat="44.63128" lon="-0.17341">
        <ele>65.6</ele>
        <time>2022-07-26T11:49:13Z</time>
      </trkpt>
      <trkpt lat="44.63131" lon="-0.17342">
        <ele>65.6</ele>
        <time>2022-07-26T11:49:14Z</time>
      </trkpt>
      <trkpt lat="44.63132" lon="-0.17342">
        <ele>65.6</ele>
        <time>2022-07-26T11:49:15Z</time>
      </trkpt>
      <trkpt lat="44.63133" lon="-0.17342">
        <ele>65.6</ele>
        <time>2022-07-26T11:49:16Z</time>
      </trkpt>
      <trkpt lat="44.63135" lon="-0.17343">
        <ele>65.6</ele>
        <time>2022-07-26T11:49:18Z</time>
      </trkpt>
      <trkpt lat="44.63136" lon="-0.17344">
        <ele>65.6</ele>
        <time>2022-07-26T11:49:19Z</time>
      </trkpt>
      <trkpt lat="44.63137" lon="-0.17346">
        <ele>65.6</ele>
        <time>2022-07-26T11:49:20Z</time>
      </trkpt>
      <trkpt lat="44.63138" lon="-0.17348">
        <ele>65.6</ele>
        <time>2022-07-26T11:49:21Z</time>
      </trkpt>
      <trkpt lat="44.63138" lon="-0.1735">
        <ele>65.6</ele>
        <time>2022-07-26T11:49:22Z</time>
      </trkpt>
      <trkpt lat="44.63138" lon="-0.17352">
        <ele>65.6</ele>
        <time>2022-07-26T11:49:24Z</time>
      </trkpt>
      <trkpt lat="44.63137" lon="-0.17353">
        <ele>65.6</ele>
        <time>2022-07-26T11:49:25Z</time>
      </trkpt>
      <trkpt lat="44.63137" lon="-0.17355">
        <ele>65.6</ele>
        <time>2022-07-26T11:49:26Z</time>
      </trkpt>
      <trkpt lat="44.63137" lon="-0.17358">
        <ele>65.6</ele>
        <time>2022-07-26T11:49:27Z</time>
      </trkpt>
      <trkpt lat="44.63136" lon="-0.17359">
        <ele>65.6</ele>
        <time>2022-07-26T11:49:28Z</time>
      </trkpt>
      <trkpt lat="44.63136" lon="-0.1736">
        <ele>65.6</ele>
        <time>2022-07-26T11:49:29Z</time>
      </trkpt>
      <trkpt lat="44.63136" lon="-0.17363">
        <ele>65.6</ele>
        <time>2022-07-26T11:49:31Z</time>
      </trkpt>
      <trkpt lat="44.63136" lon="-0.17365">
        <ele>65.6</ele>
        <time>2022-07-26T11:49:32Z</time>
      </trkpt>
      <trkpt lat="44.63136" lon="-0.17367">
        <ele>65.6</ele>
        <time>2022-07-26T11:49:33Z</time>
      </trkpt>
      <trkpt lat="44.63136" lon="-0.17369">
        <ele>65.6</ele>
        <time>2022-07-26T11:49:34Z</time>
      </trkpt>
      <trkpt lat="44.63136" lon="-0.17373">
        <ele>65.6</ele>
        <time>2022-07-26T11:49:36Z</time>
      </trkpt>
      <trkpt lat="44.63136" lon="-0.17375">
        <ele>65.6</ele>
        <time>2022-07-26T11:49:37Z</time>
      </trkpt>
      <trkpt lat="44.63136" lon="-0.17377">
        <ele>65.6</ele>
        <time>2022-07-26T11:49:38Z</time>
      </trkpt>
      <trkpt lat="44.63135" lon="-0.17378">
        <ele>65.6</ele>
        <time>2022-07-26T11:49:39Z</time>
      </trkpt>
      <trkpt lat="44.63135" lon="-0.1738">
        <ele>65.6</ele>
        <time>2022-07-26T11:49:40Z</time>
      </trkpt>
      <trkpt lat="44.63135" lon="-0.17382">
        <ele>65.6</ele>
        <time>2022-07-26T11:49:41Z</time>
      </trkpt>
      <trkpt lat="44.63134" lon="-0.17383">
        <ele>65.6</ele>
        <time>2022-07-26T11:49:42Z</time>
      </trkpt>
      <trkpt lat="44.63134" lon="-0.17386">
        <ele>65.6</ele>
        <time>2022-07-26T11:49:44Z</time>
      </trkpt>
      <trkpt lat="44.63133" lon="-0.17389">
        <ele>65.6</ele>
        <time>2022-07-26T11:49:45Z</time>
      </trkpt>
      <trkpt lat="44.63133" lon="-0.1739">
        <ele>65.6</ele>
        <time>2022-07-26T11:49:46Z</time>
      </trkpt>
      <trkpt lat="44.63132" lon="-0.17391">
        <ele>65.6</ele>
        <time>2022-07-26T11:49:48Z</time>
      </trkpt>
      <trkpt lat="44.63131" lon="-0.17393">
        <ele>65.6</ele>
        <time>2022-07-26T11:49:49Z</time>
      </trkpt>
      <trkpt lat="44.63131" lon="-0.17395">
        <ele>65.5</ele>
        <time>2022-07-26T11:49:50Z</time>
      </trkpt>
      <trkpt lat="44.6313" lon="-0.17396">
        <ele>65.5</ele>
        <time>2022-07-26T11:49:51Z</time>
      </trkpt>
      <trkpt lat="44.63129" lon="-0.17398">
        <ele>65.5</ele>
        <time>2022-07-26T11:49:52Z</time>
      </trkpt>
      <trkpt lat="44.63129" lon="-0.174">
        <ele>65.5</ele>
        <time>2022-07-26T11:49:53Z</time>
      </trkpt>
      <trkpt lat="44.63128" lon="-0.17401">
        <ele>65.5</ele>
        <time>2022-07-26T11:49:55Z</time>
      </trkpt>
      <trkpt lat="44.63127" lon="-0.17403">
        <ele>65.5</ele>
        <time>2022-07-26T11:49:56Z</time>
      </trkpt>
      <trkpt lat="44.63127" lon="-0.17404">
        <ele>65.5</ele>
        <time>2022-07-26T11:49:57Z</time>
      </trkpt>
      <trkpt lat="44.63126" lon="-0.17405">
        <ele>65.5</ele>
        <time>2022-07-26T11:49:58Z</time>
      </trkpt>
      <trkpt lat="44.63125" lon="-0.17406">
        <ele>65.5</ele>
        <time>2022-07-26T11:49:59Z</time>
      </trkpt>
      <trkpt lat="44.63123" lon="-0.17408">
        <ele>65.5</ele>
        <time>2022-07-26T11:50:00Z</time>
      </trkpt>
      <trkpt lat="44.63122" lon="-0.17408">
        <ele>65.5</ele>
        <time>2022-07-26T11:50:01Z</time>
      </trkpt>
      <trkpt lat="44.63121" lon="-0.17408">
        <ele>65.5</ele>
        <time>2022-07-26T11:50:03Z</time>
      </trkpt>
      <trkpt lat="44.6312" lon="-0.17408">
        <ele>65.5</ele>
        <time>2022-07-26T11:50:04Z</time>
      </trkpt>
      <trkpt lat="44.63119" lon="-0.17408">
        <ele>65.5</ele>
        <time>2022-07-26T11:50:05Z</time>
      </trkpt>
      <trkpt lat="44.63118" lon="-0.17409">
        <ele>65.5</ele>
        <time>2022-07-26T11:50:06Z</time>
      </trkpt>
      <trkpt lat="44.63117" lon="-0.17408">
        <ele>65.5</ele>
        <time>2022-07-26T11:50:07Z</time>
      </trkpt>
      <trkpt lat="44.63116" lon="-0.17408">
        <ele>65.5</ele>
        <time>2022-07-26T11:50:08Z</time>
      </trkpt>
      <trkpt lat="44.63114" lon="-0.17408">
        <ele>65.5</ele>
        <time>2022-07-26T11:50:10Z</time>
      </trkpt>
      <trkpt lat="44.63111" lon="-0.17407">
        <ele>65.5</ele>
        <time>2022-07-26T11:50:11Z</time>
      </trkpt>
      <trkpt lat="44.63111" lon="-0.17407">
        <ele>65.5</ele>
        <time>2022-07-26T11:50:12Z</time>
      </trkpt>
      <trkpt lat="44.6311" lon="-0.17407">
        <ele>65.5</ele>
        <time>2022-07-26T11:50:13Z</time>
      </trkpt>
      <trkpt lat="44.63108" lon="-0.17407">
        <ele>65.5</ele>
        <time>2022-07-26T11:50:14Z</time>
      </trkpt>
      <trkpt lat="44.63107" lon="-0.17408">
        <ele>65.5</ele>
        <time>2022-07-26T11:50:15Z</time>
      </trkpt>
      <trkpt lat="44.63106" lon="-0.17408">
        <ele>65.5</ele>
        <time>2022-07-26T11:50:16Z</time>
      </trkpt>
      <trkpt lat="44.63105" lon="-0.17408">
        <ele>65.5</ele>
        <time>2022-07-26T11:50:17Z</time>
      </trkpt>
      <trkpt lat="44.63104" lon="-0.17409">
        <ele>65.5</ele>
        <time>2022-07-26T11:50:18Z</time>
      </trkpt>
      <trkpt lat="44.63103" lon="-0.1741">
        <ele>65.5</ele>
        <time>2022-07-26T11:50:19Z</time>
      </trkpt>
      <trkpt lat="44.63101" lon="-0.17412">
        <ele>65.4</ele>
        <time>2022-07-26T11:50:20Z</time>
      </trkpt>
      <trkpt lat="44.631" lon="-0.17412">
        <ele>65.4</ele>
        <time>2022-07-26T11:50:22Z</time>
      </trkpt>
      <trkpt lat="44.63099" lon="-0.17413">
        <ele>65.4</ele>
        <time>2022-07-26T11:50:23Z</time>
      </trkpt>
      <trkpt lat="44.63098" lon="-0.17415">
        <ele>65.4</ele>
        <time>2022-07-26T11:50:24Z</time>
      </trkpt>
      <trkpt lat="44.63097" lon="-0.17415">
        <ele>65.4</ele>
        <time>2022-07-26T11:50:25Z</time>
      </trkpt>
      <trkpt lat="44.63096" lon="-0.17418">
        <ele>65.4</ele>
        <time>2022-07-26T11:50:26Z</time>
      </trkpt>
      <trkpt lat="44.63096" lon="-0.17419">
        <ele>65.4</ele>
        <time>2022-07-26T11:50:27Z</time>
      </trkpt>
      <trkpt lat="44.63095" lon="-0.17421">
        <ele>65.4</ele>
        <time>2022-07-26T11:50:28Z</time>
      </trkpt>
      <trkpt lat="44.63094" lon="-0.17422">
        <ele>65.4</ele>
        <time>2022-07-26T11:50:30Z</time>
      </trkpt>
      <trkpt lat="44.63093" lon="-0.17424">
        <ele>65.4</ele>
        <time>2022-07-26T11:50:31Z</time>
      </trkpt>
      <trkpt lat="44.63092" lon="-0.17424">
        <ele>65.4</ele>
        <time>2022-07-26T11:50:32Z</time>
      </trkpt>
      <trkpt lat="44.63091" lon="-0.17425">
        <ele>65.4</ele>
        <time>2022-07-26T11:50:33Z</time>
      </trkpt>
      <trkpt lat="44.6309" lon="-0.17425">
        <ele>65.4</ele>
        <time>2022-07-26T11:50:34Z</time>
      </trkpt>
      <trkpt lat="44.63088" lon="-0.17426">
        <ele>65.4</ele>
        <time>2022-07-26T11:50:35Z</time>
      </trkpt>
      <trkpt lat="44.63087" lon="-0.17426">
        <ele>65.4</ele>
        <time>2022-07-26T11:50:36Z</time>
      </trkpt>
      <trkpt lat="44.63086" lon="-0.17426">
        <ele>65.4</ele>
        <time>2022-07-26T11:50:38Z</time>
      </trkpt>
      <trkpt lat="44.63084" lon="-0.17426">
        <ele>65.4</ele>
        <time>2022-07-26T11:50:39Z</time>
      </trkpt>
      <trkpt lat="44.63084" lon="-0.17426">
        <ele>65.4</ele>
        <time>2022-07-26T11:50:40Z</time>
      </trkpt>
      <trkpt lat="44.63081" lon="-0.17426">
        <ele>65.4</ele>
        <time>2022-07-26T11:50:41Z</time>
      </trkpt>
      <trkpt lat="44.6308" lon="-0.17426">
        <ele>65.4</ele>
        <time>2022-07-26T11:50:42Z</time>
      </trkpt>
      <trkpt lat="44.63079" lon="-0.17426">
        <ele>65.4</ele>
        <time>2022-07-26T11:50:43Z</time>
      </trkpt>
      <trkpt lat="44.63078" lon="-0.17427">
        <ele>65.4</ele>
        <time>2022-07-26T11:50:44Z</time>
      </trkpt>
      <trkpt lat="44.63076" lon="-0.17428">
        <ele>65.4</ele>
        <time>2022-07-26T11:50:46Z</time>
      </trkpt>
      <trkpt lat="44.63075" lon="-0.17429">
        <ele>65.4</ele>
        <time>2022-07-26T11:50:47Z</time>
      </trkpt>
      <trkpt lat="44.63075" lon="-0.17429">
        <ele>65.4</ele>
        <time>2022-07-26T11:50:48Z</time>
      </trkpt>
      <trkpt lat="44.63075" lon="-0.1743">
        <ele>65.4</ele>
        <time>2022-07-26T11:50:49Z</time>
      </trkpt>
      <trkpt lat="44.63075" lon="-0.1743">
        <ele>65.4</ele>
        <time>2022-07-26T11:50:50Z</time>
      </trkpt>
      <trkpt lat="44.63075" lon="-0.17432">
        <ele>65.4</ele>
        <time>2022-07-26T11:50:51Z</time>
      </trkpt>
      <trkpt lat="44.63076" lon="-0.17433">
        <ele>65.4</ele>
        <time>2022-07-26T11:50:52Z</time>
      </trkpt>
      <trkpt lat="44.63076" lon="-0.17435">
        <ele>65.4</ele>
        <time>2022-07-26T11:50:54Z</time>
      </trkpt>
      <trkpt lat="44.63077" lon="-0.17437">
        <ele>65.3</ele>
        <time>2022-07-26T11:50:55Z</time>
      </trkpt>
      <trkpt lat="44.63077" lon="-0.17438">
        <ele>65.3</ele>
        <time>2022-07-26T11:50:56Z</time>
      </trkpt>
      <trkpt lat="44.63078" lon="-0.17441">
        <ele>65.3</ele>
        <time>2022-07-26T11:50:57Z</time>
      </trkpt>
      <trkpt lat="44.63078" lon="-0.17442">
        <ele>65.3</ele>
        <time>2022-07-26T11:50:58Z</time>
      </trkpt>
      <trkpt lat="44.63078" lon="-0.17443">
        <ele>65.3</ele>
        <time>2022-07-26T11:50:59Z</time>
      </trkpt>
      <trkpt lat="44.63079" lon="-0.17447">
        <ele>65.2</ele>
        <time>2022-07-26T11:51:01Z</time>
      </trkpt>
      <trkpt lat="44.63078" lon="-0.17448">
        <ele>65.2</ele>
        <time>2022-07-26T11:51:02Z</time>
      </trkpt>
      <trkpt lat="44.63078" lon="-0.17449">
        <ele>65.2</ele>
        <time>2022-07-26T11:51:03Z</time>
      </trkpt>
      <trkpt lat="44.63078" lon="-0.17451">
        <ele>65.2</ele>
        <time>2022-07-26T11:51:04Z</time>
      </trkpt>
      <trkpt lat="44.63077" lon="-0.17454">
        <ele>65.1</ele>
        <time>2022-07-26T11:51:06Z</time>
      </trkpt>
      <trkpt lat="44.63076" lon="-0.17454">
        <ele>65.2</ele>
        <time>2022-07-26T11:51:07Z</time>
      </trkpt>
      <trkpt lat="44.63076" lon="-0.17454">
        <ele>65.2</ele>
        <time>2022-07-26T11:51:08Z</time>
      </trkpt>
      <trkpt lat="44.63076" lon="-0.17454">
        <ele>65.2</ele>
        <time>2022-07-26T11:51:09Z</time>
      </trkpt>
      <trkpt lat="44.63076" lon="-0.17454">
        <ele>65.2</ele>
        <time>2022-07-26T11:51:10Z</time>
      </trkpt>
      <trkpt lat="44.63076" lon="-0.17454">
        <ele>65.2</ele>
        <time>2022-07-26T11:51:12Z</time>
      </trkpt>
      <trkpt lat="44.63076" lon="-0.17455">
        <ele>65.2</ele>
        <time>2022-07-26T11:51:13Z</time>
      </trkpt>
      <trkpt lat="44.63076" lon="-0.17457">
        <ele>65.2</ele>
        <time>2022-07-26T11:51:14Z</time>
      </trkpt>
      <trkpt lat="44.63076" lon="-0.17458">
        <ele>65.1</ele>
        <time>2022-07-26T11:51:15Z</time>
      </trkpt>
      <trkpt lat="44.63076" lon="-0.1746">
        <ele>65.1</ele>
        <time>2022-07-26T11:51:16Z</time>
      </trkpt>
      <trkpt lat="44.63076" lon="-0.17462">
        <ele>65.1</ele>
        <time>2022-07-26T11:51:17Z</time>
      </trkpt>
      <trkpt lat="44.63076" lon="-0.17463">
        <ele>65.1</ele>
        <time>2022-07-26T11:51:18Z</time>
      </trkpt>
      <trkpt lat="44.63076" lon="-0.17465">
        <ele>65.1</ele>
        <time>2022-07-26T11:51:20Z</time>
      </trkpt>
      <trkpt lat="44.63076" lon="-0.17467">
        <ele>65</ele>
        <time>2022-07-26T11:51:21Z</time>
      </trkpt>
      <trkpt lat="44.63076" lon="-0.17471">
        <ele>65</ele>
        <time>2022-07-26T11:51:23Z</time>
      </trkpt>
      <trkpt lat="44.63076" lon="-0.17472">
        <ele>65</ele>
        <time>2022-07-26T11:51:24Z</time>
      </trkpt>
      <trkpt lat="44.63077" lon="-0.17473">
        <ele>65</ele>
        <time>2022-07-26T11:51:25Z</time>
      </trkpt>
      <trkpt lat="44.63077" lon="-0.17476">
        <ele>65</ele>
        <time>2022-07-26T11:51:26Z</time>
      </trkpt>
      <trkpt lat="44.63077" lon="-0.17477">
        <ele>65</ele>
        <time>2022-07-26T11:51:27Z</time>
      </trkpt>
      <trkpt lat="44.63077" lon="-0.17478">
        <ele>65</ele>
        <time>2022-07-26T11:51:28Z</time>
      </trkpt>
      <trkpt lat="44.63077" lon="-0.1748">
        <ele>64.9</ele>
        <time>2022-07-26T11:51:29Z</time>
      </trkpt>
      <trkpt lat="44.63077" lon="-0.17481">
        <ele>64.9</ele>
        <time>2022-07-26T11:51:30Z</time>
      </trkpt>
      <trkpt lat="44.63077" lon="-0.17483">
        <ele>64.9</ele>
        <time>2022-07-26T11:51:31Z</time>
      </trkpt>
      <trkpt lat="44.63078" lon="-0.17484">
        <ele>64.9</ele>
        <time>2022-07-26T11:51:32Z</time>
      </trkpt>
      <trkpt lat="44.63079" lon="-0.17487">
        <ele>64.9</ele>
        <time>2022-07-26T11:51:34Z</time>
      </trkpt>
      <trkpt lat="44.6308" lon="-0.17488">
        <ele>64.9</ele>
        <time>2022-07-26T11:51:35Z</time>
      </trkpt>
      <trkpt lat="44.6308" lon="-0.17489">
        <ele>64.9</ele>
        <time>2022-07-26T11:51:36Z</time>
      </trkpt>
      <trkpt lat="44.6308" lon="-0.17489">
        <ele>64.9</ele>
        <time>2022-07-26T11:51:37Z</time>
      </trkpt>
      <trkpt lat="44.6308" lon="-0.17488">
        <ele>64.9</ele>
        <time>2022-07-26T11:51:38Z</time>
      </trkpt>
      <trkpt lat="44.63081" lon="-0.17488">
        <ele>64.9</ele>
        <time>2022-07-26T11:51:39Z</time>
      </trkpt>
      <trkpt lat="44.63081" lon="-0.17487">
        <ele>64.9</ele>
        <time>2022-07-26T11:51:40Z</time>
      </trkpt>
      <trkpt lat="44.63081" lon="-0.17487">
        <ele>64.9</ele>
        <time>2022-07-26T11:51:41Z</time>
      </trkpt>
      <trkpt lat="44.63081" lon="-0.17487">
        <ele>64.9</ele>
        <time>2022-07-26T11:51:42Z</time>
      </trkpt>
      <trkpt lat="44.63081" lon="-0.17487">
        <ele>64.9</ele>
        <time>2022-07-26T11:51:44Z</time>
      </trkpt>
      <trkpt lat="44.63081" lon="-0.17487">
        <ele>64.9</ele>
        <time>2022-07-26T11:51:45Z</time>
      </trkpt>
      <trkpt lat="44.63081" lon="-0.17489">
        <ele>64.9</ele>
        <time>2022-07-26T11:51:46Z</time>
      </trkpt>
      <trkpt lat="44.6308" lon="-0.1749">
        <ele>64.9</ele>
        <time>2022-07-26T11:51:47Z</time>
      </trkpt>
      <trkpt lat="44.6308" lon="-0.17492">
        <ele>64.9</ele>
        <time>2022-07-26T11:51:48Z</time>
      </trkpt>
      <trkpt lat="44.63081" lon="-0.17493">
        <ele>64.9</ele>
        <time>2022-07-26T11:51:49Z</time>
      </trkpt>
      <trkpt lat="44.63081" lon="-0.17494">
        <ele>64.9</ele>
        <time>2022-07-26T11:51:50Z</time>
      </trkpt>
      <trkpt lat="44.63082" lon="-0.17496">
        <ele>64.9</ele>
        <time>2022-07-26T11:51:51Z</time>
      </trkpt>
      <trkpt lat="44.63083" lon="-0.17497">
        <ele>64.9</ele>
        <time>2022-07-26T11:51:52Z</time>
      </trkpt>
      <trkpt lat="44.63083" lon="-0.17498">
        <ele>64.9</ele>
        <time>2022-07-26T11:51:53Z</time>
      </trkpt>
      <trkpt lat="44.63084" lon="-0.17499">
        <ele>64.9</ele>
        <time>2022-07-26T11:51:54Z</time>
      </trkpt>
      <trkpt lat="44.63084" lon="-0.17501">
        <ele>64.9</ele>
        <time>2022-07-26T11:51:55Z</time>
      </trkpt>
      <trkpt lat="44.63085" lon="-0.17503">
        <ele>64.9</ele>
        <time>2022-07-26T11:51:56Z</time>
      </trkpt>
      <trkpt lat="44.63085" lon="-0.17504">
        <ele>64.9</ele>
        <time>2022-07-26T11:51:57Z</time>
      </trkpt>
      <trkpt lat="44.63086" lon="-0.17505">
        <ele>64.9</ele>
        <time>2022-07-26T11:51:58Z</time>
      </trkpt>
      <trkpt lat="44.63086" lon="-0.17506">
        <ele>64.9</ele>
        <time>2022-07-26T11:51:59Z</time>
      </trkpt>
      <trkpt lat="44.63087" lon="-0.17509">
        <ele>64.9</ele>
        <time>2022-07-26T11:52:01Z</time>
      </trkpt>
      <trkpt lat="44.63088" lon="-0.1751">
        <ele>64.9</ele>
        <time>2022-07-26T11:52:02Z</time>
      </trkpt>
      <trkpt lat="44.63088" lon="-0.17511">
        <ele>64.9</ele>
        <time>2022-07-26T11:52:03Z</time>
      </trkpt>
      <trkpt lat="44.63089" lon="-0.17512">
        <ele>64.9</ele>
        <time>2022-07-26T11:52:04Z</time>
      </trkpt>
      <trkpt lat="44.6309" lon="-0.17513">
        <ele>64.9</ele>
        <time>2022-07-26T11:52:05Z</time>
      </trkpt>
      <trkpt lat="44.63091" lon="-0.17514">
        <ele>64.9</ele>
        <time>2022-07-26T11:52:06Z</time>
      </trkpt>
      <trkpt lat="44.63091" lon="-0.17514">
        <ele>64.9</ele>
        <time>2022-07-26T11:52:07Z</time>
      </trkpt>
      <trkpt lat="44.63092" lon="-0.17515">
        <ele>64.9</ele>
        <time>2022-07-26T11:52:08Z</time>
      </trkpt>
      <trkpt lat="44.63092" lon="-0.17516">
        <ele>64.9</ele>
        <time>2022-07-26T11:52:09Z</time>
      </trkpt>
      <trkpt lat="44.63091" lon="-0.17517">
        <ele>64.9</ele>
        <time>2022-07-26T11:52:10Z</time>
      </trkpt>
      <trkpt lat="44.63091" lon="-0.17519">
        <ele>64.9</ele>
        <time>2022-07-26T11:52:11Z</time>
      </trkpt>
      <trkpt lat="44.6309" lon="-0.1752">
        <ele>64.9</ele>
        <time>2022-07-26T11:52:13Z</time>
      </trkpt>
      <trkpt lat="44.63089" lon="-0.17522">
        <ele>64.9</ele>
        <time>2022-07-26T11:52:14Z</time>
      </trkpt>
      <trkpt lat="44.63087" lon="-0.17523">
        <ele>64.9</ele>
        <time>2022-07-26T11:52:15Z</time>
      </trkpt>
      <trkpt lat="44.63086" lon="-0.17525">
        <ele>64.9</ele>
        <time>2022-07-26T11:52:16Z</time>
      </trkpt>
      <trkpt lat="44.63086" lon="-0.17527">
        <ele>64.9</ele>
        <time>2022-07-26T11:52:17Z</time>
      </trkpt>
      <trkpt lat="44.63086" lon="-0.17529">
        <ele>64.9</ele>
        <time>2022-07-26T11:52:18Z</time>
      </trkpt>
      <trkpt lat="44.63086" lon="-0.17531">
        <ele>64.9</ele>
        <time>2022-07-26T11:52:19Z</time>
      </trkpt>
      <trkpt lat="44.63085" lon="-0.17533">
        <ele>64.9</ele>
        <time>2022-07-26T11:52:21Z</time>
      </trkpt>
      <trkpt lat="44.63085" lon="-0.17536">
        <ele>64.9</ele>
        <time>2022-07-26T11:52:22Z</time>
      </trkpt>
      <trkpt lat="44.63085" lon="-0.17537">
        <ele>64.9</ele>
        <time>2022-07-26T11:52:23Z</time>
      </trkpt>
      <trkpt lat="44.63085" lon="-0.17539">
        <ele>64.9</ele>
        <time>2022-07-26T11:52:24Z</time>
      </trkpt>
      <trkpt lat="44.63084" lon="-0.1754">
        <ele>64.9</ele>
        <time>2022-07-26T11:52:25Z</time>
      </trkpt>
      <trkpt lat="44.63085" lon="-0.17544">
        <ele>64.9</ele>
        <time>2022-07-26T11:52:27Z</time>
      </trkpt>
      <trkpt lat="44.63085" lon="-0.17545">
        <ele>64.9</ele>
        <time>2022-07-26T11:52:28Z</time>
      </trkpt>
      <trkpt lat="44.63086" lon="-0.17547">
        <ele>65</ele>
        <time>2022-07-26T11:52:29Z</time>
      </trkpt>
      <trkpt lat="44.63087" lon="-0.17548">
        <ele>65</ele>
        <time>2022-07-26T11:52:30Z</time>
      </trkpt>
      <trkpt lat="44.63088" lon="-0.1755">
        <ele>65</ele>
        <time>2022-07-26T11:52:32Z</time>
      </trkpt>
      <trkpt lat="44.63088" lon="-0.17552">
        <ele>65</ele>
        <time>2022-07-26T11:52:33Z</time>
      </trkpt>
      <trkpt lat="44.63089" lon="-0.17552">
        <ele>65</ele>
        <time>2022-07-26T11:52:34Z</time>
      </trkpt>
      <trkpt lat="44.6309" lon="-0.17552">
        <ele>65</ele>
        <time>2022-07-26T11:52:35Z</time>
      </trkpt>
      <trkpt lat="44.6309" lon="-0.17554">
        <ele>65.1</ele>
        <time>2022-07-26T11:52:36Z</time>
      </trkpt>
      <trkpt lat="44.6309" lon="-0.17554">
        <ele>65.1</ele>
        <time>2022-07-26T11:52:37Z</time>
      </trkpt>
      <trkpt lat="44.6309" lon="-0.17556">
        <ele>65.1</ele>
        <time>2022-07-26T11:52:38Z</time>
      </trkpt>
      <trkpt lat="44.6309" lon="-0.17558">
        <ele>65.1</ele>
        <time>2022-07-26T11:52:39Z</time>
      </trkpt>
      <trkpt lat="44.6309" lon="-0.17559">
        <ele>65.1</ele>
        <time>2022-07-26T11:52:41Z</time>
      </trkpt>
      <trkpt lat="44.63088" lon="-0.17561">
        <ele>65.1</ele>
        <time>2022-07-26T11:52:42Z</time>
      </trkpt>
      <trkpt lat="44.63088" lon="-0.17563">
        <ele>65.1</ele>
        <time>2022-07-26T11:52:44Z</time>
      </trkpt>
      <trkpt lat="44.63088" lon="-0.17565">
        <ele>65.1</ele>
        <time>2022-07-26T11:52:45Z</time>
      </trkpt>
      <trkpt lat="44.63088" lon="-0.17567">
        <ele>65.1</ele>
        <time>2022-07-26T11:52:46Z</time>
      </trkpt>
      <trkpt lat="44.63087" lon="-0.17569">
        <ele>65.1</ele>
        <time>2022-07-26T11:52:48Z</time>
      </trkpt>
      <trkpt lat="44.63087" lon="-0.17569">
        <ele>65.1</ele>
        <time>2022-07-26T11:52:49Z</time>
      </trkpt>
      <trkpt lat="44.63087" lon="-0.17569">
        <ele>65.1</ele>
        <time>2022-07-26T11:52:50Z</time>
      </trkpt>
      <trkpt lat="44.63086" lon="-0.17569">
        <ele>65.1</ele>
        <time>2022-07-26T11:52:52Z</time>
      </trkpt>
      <trkpt lat="44.63086" lon="-0.17569">
        <ele>65.1</ele>
        <time>2022-07-26T11:52:53Z</time>
      </trkpt>
      <trkpt lat="44.63086" lon="-0.17569">
        <ele>65.1</ele>
        <time>2022-07-26T11:52:54Z</time>
      </trkpt>
      <trkpt lat="44.63086" lon="-0.1757">
        <ele>65.1</ele>
        <time>2022-07-26T11:52:55Z</time>
      </trkpt>
      <trkpt lat="44.63086" lon="-0.17572">
        <ele>65.1</ele>
        <time>2022-07-26T11:52:56Z</time>
      </trkpt>
      <trkpt lat="44.63087" lon="-0.17575">
        <ele>65.2</ele>
        <time>2022-07-26T11:52:57Z</time>
      </trkpt>
      <trkpt lat="44.63089" lon="-0.17576">
        <ele>65.2</ele>
        <time>2022-07-26T11:52:59Z</time>
      </trkpt>
      <trkpt lat="44.6309" lon="-0.17577">
        <ele>65.2</ele>
        <time>2022-07-26T11:53:00Z</time>
      </trkpt>
      <trkpt lat="44.63092" lon="-0.17579">
        <ele>65.4</ele>
        <time>2022-07-26T11:53:01Z</time>
      </trkpt>
      <trkpt lat="44.63093" lon="-0.17581">
        <ele>65.4</ele>
        <time>2022-07-26T11:53:03Z</time>
      </trkpt>
      <trkpt lat="44.63093" lon="-0.17583">
        <ele>65.4</ele>
        <time>2022-07-26T11:53:04Z</time>
      </trkpt>
      <trkpt lat="44.63093" lon="-0.17586">
        <ele>65.4</ele>
        <time>2022-07-26T11:53:05Z</time>
      </trkpt>
      <trkpt lat="44.63093" lon="-0.17588">
        <ele>65.5</ele>
        <time>2022-07-26T11:53:06Z</time>
      </trkpt>
      <trkpt lat="44.63092" lon="-0.17591">
        <ele>65.5</ele>
        <time>2022-07-26T11:53:07Z</time>
      </trkpt>
      <trkpt lat="44.63091" lon="-0.17592">
        <ele>65.5</ele>
        <time>2022-07-26T11:53:08Z</time>
      </trkpt>
      <trkpt lat="44.6309" lon="-0.17595">
        <ele>65.5</ele>
        <time>2022-07-26T11:53:09Z</time>
      </trkpt>
      <trkpt lat="44.63089" lon="-0.17596">
        <ele>65.5</ele>
        <time>2022-07-26T11:53:10Z</time>
      </trkpt>
      <trkpt lat="44.63089" lon="-0.17597">
        <ele>65.5</ele>
        <time>2022-07-26T11:53:11Z</time>
      </trkpt>
      <trkpt lat="44.63089" lon="-0.17598">
        <ele>65.5</ele>
        <time>2022-07-26T11:53:12Z</time>
      </trkpt>
      <trkpt lat="44.6309" lon="-0.176">
        <ele>65.6</ele>
        <time>2022-07-26T11:53:13Z</time>
      </trkpt>
      <trkpt lat="44.63091" lon="-0.17602">
        <ele>65.6</ele>
        <time>2022-07-26T11:53:15Z</time>
      </trkpt>
      <trkpt lat="44.63093" lon="-0.17604">
        <ele>65.7</ele>
        <time>2022-07-26T11:53:16Z</time>
      </trkpt>
      <trkpt lat="44.63093" lon="-0.17606">
        <ele>65.7</ele>
        <time>2022-07-26T11:53:17Z</time>
      </trkpt>
      <trkpt lat="44.63094" lon="-0.17607">
        <ele>65.7</ele>
        <time>2022-07-26T11:53:18Z</time>
      </trkpt>
      <trkpt lat="44.63094" lon="-0.17609">
        <ele>65.8</ele>
        <time>2022-07-26T11:53:20Z</time>
      </trkpt>
      <trkpt lat="44.63094" lon="-0.17609">
        <ele>65.8</ele>
        <time>2022-07-26T11:53:21Z</time>
      </trkpt>
      <trkpt lat="44.63095" lon="-0.17609">
        <ele>65.8</ele>
        <time>2022-07-26T11:53:23Z</time>
      </trkpt>
      <trkpt lat="44.63096" lon="-0.1761">
        <ele>65.9</ele>
        <time>2022-07-26T11:53:24Z</time>
      </trkpt>
      <trkpt lat="44.63096" lon="-0.17609">
        <ele>65.9</ele>
        <time>2022-07-26T11:53:25Z</time>
      </trkpt>
      <trkpt lat="44.63097" lon="-0.17609">
        <ele>65.9</ele>
        <time>2022-07-26T11:53:27Z</time>
      </trkpt>
      <trkpt lat="44.63097" lon="-0.17609">
        <ele>65.9</ele>
        <time>2022-07-26T11:53:28Z</time>
      </trkpt>
      <trkpt lat="44.63097" lon="-0.17609">
        <ele>65.9</ele>
        <time>2022-07-26T11:53:29Z</time>
      </trkpt>
      <trkpt lat="44.63097" lon="-0.17609">
        <ele>65.9</ele>
        <time>2022-07-26T11:53:30Z</time>
      </trkpt>
      <trkpt lat="44.63097" lon="-0.17609">
        <ele>65.9</ele>
        <time>2022-07-26T11:53:32Z</time>
      </trkpt>
      <trkpt lat="44.63097" lon="-0.17609">
        <ele>65.9</ele>
        <time>2022-07-26T11:53:33Z</time>
      </trkpt>
      <trkpt lat="44.63097" lon="-0.17609">
        <ele>65.9</ele>
        <time>2022-07-26T11:53:34Z</time>
      </trkpt>
      <trkpt lat="44.63097" lon="-0.17609">
        <ele>65.9</ele>
        <time>2022-07-26T11:53:35Z</time>
      </trkpt>
      <trkpt lat="44.63097" lon="-0.17609">
        <ele>65.9</ele>
        <time>2022-07-26T11:53:36Z</time>
      </trkpt>
      <trkpt lat="44.63097" lon="-0.17609">
        <ele>65.9</ele>
        <time>2022-07-26T11:53:37Z</time>
      </trkpt>
      <trkpt lat="44.63097" lon="-0.17609">
        <ele>65.9</ele>
        <time>2022-07-26T11:53:38Z</time>
      </trkpt>
      <trkpt lat="44.63097" lon="-0.17609">
        <ele>65.9</ele>
        <time>2022-07-26T11:53:39Z</time>
      </trkpt>
      <trkpt lat="44.63097" lon="-0.17609">
        <ele>65.9</ele>
        <time>2022-07-26T11:53:40Z</time>
      </trkpt>
      <trkpt lat="44.63097" lon="-0.17609">
        <ele>65.9</ele>
        <time>2022-07-26T11:53:41Z</time>
      </trkpt>
      <trkpt lat="44.63097" lon="-0.17609">
        <ele>65.9</ele>
        <time>2022-07-26T11:53:42Z</time>
      </trkpt>
      <trkpt lat="44.63097" lon="-0.17609">
        <ele>65.9</ele>
        <time>2022-07-26T11:53:43Z</time>
      </trkpt>
      <trkpt lat="44.63097" lon="-0.17608">
        <ele>65.9</ele>
        <time>2022-07-26T11:53:44Z</time>
      </trkpt>
      <trkpt lat="44.63096" lon="-0.17608">
        <ele>65.8</ele>
        <time>2022-07-26T11:53:45Z</time>
      </trkpt>
      <trkpt lat="44.63096" lon="-0.17608">
        <ele>65.8</ele>
        <time>2022-07-26T11:53:46Z</time>
      </trkpt>
      <trkpt lat="44.63096" lon="-0.17607">
        <ele>65.8</ele>
        <time>2022-07-26T11:53:47Z</time>
      </trkpt>
      <trkpt lat="44.63096" lon="-0.17607">
        <ele>65.8</ele>
        <time>2022-07-26T11:53:48Z</time>
      </trkpt>
      <trkpt lat="44.63096" lon="-0.17607">
        <ele>65.8</ele>
        <time>2022-07-26T11:53:49Z</time>
      </trkpt>
      <trkpt lat="44.63096" lon="-0.17607">
        <ele>65.8</ele>
        <time>2022-07-26T11:53:50Z</time>
      </trkpt>
      <trkpt lat="44.63096" lon="-0.17607">
        <ele>65.8</ele>
        <time>2022-07-26T11:53:51Z</time>
      </trkpt>
      <trkpt lat="44.63096" lon="-0.17607">
        <ele>65.8</ele>
        <time>2022-07-26T11:53:52Z</time>
      </trkpt>
      <trkpt lat="44.63096" lon="-0.17607">
        <ele>65.8</ele>
        <time>2022-07-26T11:53:53Z</time>
      </trkpt>
      <trkpt lat="44.63096" lon="-0.17607">
        <ele>65.8</ele>
        <time>2022-07-26T11:53:54Z</time>
      </trkpt>
      <trkpt lat="44.63096" lon="-0.17607">
        <ele>65.8</ele>
        <time>2022-07-26T11:53:55Z</time>
      </trkpt>
      <trkpt lat="44.63096" lon="-0.17606">
        <ele>65.8</ele>
        <time>2022-07-26T11:53:56Z</time>
      </trkpt>
      <trkpt lat="44.63096" lon="-0.17606">
        <ele>65.8</ele>
        <time>2022-07-26T11:53:57Z</time>
      </trkpt>
      <trkpt lat="44.63096" lon="-0.17606">
        <ele>65.8</ele>
        <time>2022-07-26T11:53:58Z</time>
      </trkpt>
      <trkpt lat="44.63096" lon="-0.17606">
        <ele>65.8</ele>
        <time>2022-07-26T11:53:59Z</time>
      </trkpt>
      <trkpt lat="44.63096" lon="-0.17606">
        <ele>65.8</ele>
        <time>2022-07-26T11:54:00Z</time>
      </trkpt>
      <trkpt lat="44.63096" lon="-0.17606">
        <ele>65.8</ele>
        <time>2022-07-26T11:54:01Z</time>
      </trkpt>
      <trkpt lat="44.63096" lon="-0.17606">
        <ele>65.8</ele>
        <time>2022-07-26T11:54:02Z</time>
      </trkpt>
      <trkpt lat="44.63096" lon="-0.17606">
        <ele>65.8</ele>
        <time>2022-07-26T11:54:03Z</time>
      </trkpt>
      <trkpt lat="44.63096" lon="-0.17606">
        <ele>65.8</ele>
        <time>2022-07-26T11:54:04Z</time>
      </trkpt>
      <trkpt lat="44.63096" lon="-0.17606">
        <ele>65.8</ele>
        <time>2022-07-26T11:54:05Z</time>
      </trkpt>
      <trkpt lat="44.63096" lon="-0.17606">
        <ele>65.8</ele>
        <time>2022-07-26T11:54:06Z</time>
      </trkpt>
      <trkpt lat="44.63096" lon="-0.17606">
        <ele>65.8</ele>
        <time>2022-07-26T11:54:07Z</time>
      </trkpt>
      <trkpt lat="44.63096" lon="-0.17606">
        <ele>65.8</ele>
        <time>2022-07-26T11:54:08Z</time>
      </trkpt>
      <trkpt lat="44.63096" lon="-0.17605">
        <ele>65.8</ele>
        <time>2022-07-26T11:54:09Z</time>
      </trkpt>
      <trkpt lat="44.63096" lon="-0.17605">
        <ele>65.8</ele>
        <time>2022-07-26T11:54:10Z</time>
      </trkpt>
      <trkpt lat="44.63096" lon="-0.17605">
        <ele>65.8</ele>
        <time>2022-07-26T11:54:11Z</time>
      </trkpt>
      <trkpt lat="44.63096" lon="-0.17605">
        <ele>65.8</ele>
        <time>2022-07-26T11:54:12Z</time>
      </trkpt>
      <trkpt lat="44.63096" lon="-0.17605">
        <ele>65.8</ele>
        <time>2022-07-26T11:54:13Z</time>
      </trkpt>
      <trkpt lat="44.63096" lon="-0.17606">
        <ele>65.8</ele>
        <time>2022-07-26T11:54:14Z</time>
      </trkpt>
      <trkpt lat="44.63096" lon="-0.17606">
        <ele>65.8</ele>
        <time>2022-07-26T11:54:15Z</time>
      </trkpt>
      <trkpt lat="44.63096" lon="-0.17606">
        <ele>65.8</ele>
        <time>2022-07-26T11:54:16Z</time>
      </trkpt>
      <trkpt lat="44.63096" lon="-0.17606">
        <ele>65.8</ele>
        <time>2022-07-26T11:54:17Z</time>
      </trkpt>
      <trkpt lat="44.63096" lon="-0.17606">
        <ele>65.8</ele>
        <time>2022-07-26T11:54:18Z</time>
      </trkpt>
      <trkpt lat="44.63096" lon="-0.17606">
        <ele>65.8</ele>
        <time>2022-07-26T11:54:19Z</time>
      </trkpt>
      <trkpt lat="44.63096" lon="-0.17606">
        <ele>65.8</ele>
        <time>2022-07-26T11:54:20Z</time>
      </trkpt>
      <trkpt lat="44.63096" lon="-0.17606">
        <ele>65.8</ele>
        <time>2022-07-26T11:54:21Z</time>
      </trkpt>
      <trkpt lat="44.63096" lon="-0.17606">
        <ele>65.8</ele>
        <time>2022-07-26T11:54:22Z</time>
      </trkpt>
      <trkpt lat="44.63096" lon="-0.17606">
        <ele>65.8</ele>
        <time>2022-07-26T11:54:23Z</time>
      </trkpt>
      <trkpt lat="44.63096" lon="-0.17606">
        <ele>65.8</ele>
        <time>2022-07-26T11:54:24Z</time>
      </trkpt>
      <trkpt lat="44.63096" lon="-0.17606">
        <ele>65.8</ele>
        <time>2022-07-26T11:54:25Z</time>
      </trkpt>
      <trkpt lat="44.63096" lon="-0.17606">
        <ele>65.8</ele>
        <time>2022-07-26T11:54:26Z</time>
      </trkpt>
      <trkpt lat="44.63096" lon="-0.17606">
        <ele>65.8</ele>
        <time>2022-07-26T11:54:27Z</time>
      </trkpt>
      <trkpt lat="44.63096" lon="-0.17606">
        <ele>65.8</ele>
        <time>2022-07-26T11:54:28Z</time>
      </trkpt>
      <trkpt lat="44.63096" lon="-0.17606">
        <ele>65.8</ele>
        <time>2022-07-26T11:54:29Z</time>
      </trkpt>
      <trkpt lat="44.63096" lon="-0.17606">
        <ele>65.8</ele>
        <time>2022-07-26T11:54:30Z</time>
      </trkpt>
      <trkpt lat="44.63096" lon="-0.17606">
        <ele>65.8</ele>
        <time>2022-07-26T11:54:31Z</time>
      </trkpt>
      <trkpt lat="44.63096" lon="-0.17606">
        <ele>65.8</ele>
        <time>2022-07-26T11:54:32Z</time>
      </trkpt>
      <trkpt lat="44.63096" lon="-0.17606">
        <ele>65.8</ele>
        <time>2022-07-26T11:54:33Z</time>
      </trkpt>
      <trkpt lat="44.63096" lon="-0.17606">
        <ele>65.8</ele>
        <time>2022-07-26T11:54:34Z</time>
      </trkpt>
      <trkpt lat="44.63096" lon="-0.17605">
        <ele>65.8</ele>
        <time>2022-07-26T11:54:35Z</time>
      </trkpt>
      <trkpt lat="44.63096" lon="-0.17605">
        <ele>65.8</ele>
        <time>2022-07-26T11:54:36Z</time>
      </trkpt>
      <trkpt lat="44.63095" lon="-0.17605">
        <ele>65.8</ele>
        <time>2022-07-26T11:54:37Z</time>
      </trkpt>
      <trkpt lat="44.63095" lon="-0.17605">
        <ele>65.8</ele>
        <time>2022-07-26T11:54:38Z</time>
      </trkpt>
      <trkpt lat="44.63095" lon="-0.17605">
        <ele>65.7</ele>
        <time>2022-07-26T11:54:39Z</time>
      </trkpt>
      <trkpt lat="44.63095" lon="-0.17604">
        <ele>65.7</ele>
        <time>2022-07-26T11:54:40Z</time>
      </trkpt>
      <trkpt lat="44.63095" lon="-0.17604">
        <ele>65.7</ele>
        <time>2022-07-26T11:54:41Z</time>
      </trkpt>
      <trkpt lat="44.63095" lon="-0.17604">
        <ele>65.8</ele>
        <time>2022-07-26T11:54:42Z</time>
      </trkpt>
      <trkpt lat="44.63095" lon="-0.17605">
        <ele>65.8</ele>
        <time>2022-07-26T11:54:43Z</time>
      </trkpt>
      <trkpt lat="44.63095" lon="-0.17605">
        <ele>65.8</ele>
        <time>2022-07-26T11:54:44Z</time>
      </trkpt>
      <trkpt lat="44.63095" lon="-0.17606">
        <ele>65.8</ele>
        <time>2022-07-26T11:54:45Z</time>
      </trkpt>
      <trkpt lat="44.63095" lon="-0.17606">
        <ele>65.8</ele>
        <time>2022-07-26T11:54:46Z</time>
      </trkpt>
      <trkpt lat="44.63095" lon="-0.17606">
        <ele>65.8</ele>
        <time>2022-07-26T11:54:47Z</time>
      </trkpt>
      <trkpt lat="44.63095" lon="-0.17606">
        <ele>65.8</ele>
        <time>2022-07-26T11:54:48Z</time>
      </trkpt>
      <trkpt lat="44.63095" lon="-0.17606">
        <ele>65.8</ele>
        <time>2022-07-26T11:54:49Z</time>
      </trkpt>
      <trkpt lat="44.63095" lon="-0.17606">
        <ele>65.8</ele>
        <time>2022-07-26T11:54:50Z</time>
      </trkpt>
      <trkpt lat="44.63095" lon="-0.17606">
        <ele>65.8</ele>
        <time>2022-07-26T11:54:51Z</time>
      </trkpt>
      <trkpt lat="44.63096" lon="-0.17606">
        <ele>65.8</ele>
        <time>2022-07-26T11:54:52Z</time>
      </trkpt>
      <trkpt lat="44.63096" lon="-0.17606">
        <ele>65.8</ele>
        <time>2022-07-26T11:54:53Z</time>
      </trkpt>
      <trkpt lat="44.63096" lon="-0.17606">
        <ele>65.8</ele>
        <time>2022-07-26T11:54:54Z</time>
      </trkpt>
      <trkpt lat="44.63096" lon="-0.17606">
        <ele>65.8</ele>
        <time>2022-07-26T11:54:55Z</time>
      </trkpt>
      <trkpt lat="44.63096" lon="-0.17605">
        <ele>65.8</ele>
        <time>2022-07-26T11:54:56Z</time>
      </trkpt>
      <trkpt lat="44.63096" lon="-0.17605">
        <ele>65.8</ele>
        <time>2022-07-26T11:54:57Z</time>
      </trkpt>
      <trkpt lat="44.63096" lon="-0.17605">
        <ele>65.8</ele>
        <time>2022-07-26T11:54:58Z</time>
      </trkpt>
      <trkpt lat="44.63095" lon="-0.17605">
        <ele>65.8</ele>
        <time>2022-07-26T11:54:59Z</time>
      </trkpt>
      <trkpt lat="44.63095" lon="-0.17605">
        <ele>65.8</ele>
        <time>2022-07-26T11:55:00Z</time>
      </trkpt>
      <trkpt lat="44.63095" lon="-0.17605">
        <ele>65.8</ele>
        <time>2022-07-26T11:55:01Z</time>
      </trkpt>
      <trkpt lat="44.63095" lon="-0.17605">
        <ele>65.8</ele>
        <time>2022-07-26T11:55:02Z</time>
      </trkpt>
      <trkpt lat="44.63095" lon="-0.17605">
        <ele>65.8</ele>
        <time>2022-07-26T11:55:03Z</time>
      </trkpt>
      <trkpt lat="44.63095" lon="-0.17605">
        <ele>65.8</ele>
        <time>2022-07-26T11:55:04Z</time>
      </trkpt>
      <trkpt lat="44.63095" lon="-0.17605">
        <ele>65.8</ele>
        <time>2022-07-26T11:55:05Z</time>
      </trkpt>
      <trkpt lat="44.63095" lon="-0.17605">
        <ele>65.8</ele>
        <time>2022-07-26T11:55:06Z</time>
      </trkpt>
      <trkpt lat="44.63095" lon="-0.17605">
        <ele>65.8</ele>
        <time>2022-07-26T11:55:07Z</time>
      </trkpt>
      <trkpt lat="44.63095" lon="-0.17605">
        <ele>65.8</ele>
        <time>2022-07-26T11:55:08Z</time>
      </trkpt>
      <trkpt lat="44.63095" lon="-0.17605">
        <ele>65.8</ele>
        <time>2022-07-26T11:55:09Z</time>
      </trkpt>
      <trkpt lat="44.63095" lon="-0.17605">
        <ele>65.8</ele>
        <time>2022-07-26T11:55:10Z</time>
      </trkpt>
      <trkpt lat="44.63095" lon="-0.17605">
        <ele>65.8</ele>
        <time>2022-07-26T11:55:11Z</time>
      </trkpt>
      <trkpt lat="44.63095" lon="-0.17605">
        <ele>65.8</ele>
        <time>2022-07-26T11:55:12Z</time>
      </trkpt>
      <trkpt lat="44.63095" lon="-0.17605">
        <ele>65.8</ele>
        <time>2022-07-26T11:55:13Z</time>
      </trkpt>
      <trkpt lat="44.63095" lon="-0.17605">
        <ele>65.8</ele>
        <time>2022-07-26T11:55:14Z</time>
      </trkpt>
      <trkpt lat="44.63095" lon="-0.17605">
        <ele>65.8</ele>
        <time>2022-07-26T11:55:15Z</time>
      </trkpt>
      <trkpt lat="44.63095" lon="-0.17605">
        <ele>65.8</ele>
        <time>2022-07-26T11:55:16Z</time>
      </trkpt>
      <trkpt lat="44.63095" lon="-0.17605">
        <ele>65.8</ele>
        <time>2022-07-26T11:55:17Z</time>
      </trkpt>
      <trkpt lat="44.63095" lon="-0.17605">
        <ele>65.8</ele>
        <time>2022-07-26T11:55:18Z</time>
      </trkpt>
      <trkpt lat="44.63095" lon="-0.17605">
        <ele>65.8</ele>
        <time>2022-07-26T11:55:19Z</time>
      </trkpt>
      <trkpt lat="44.63095" lon="-0.17605">
        <ele>65.8</ele>
        <time>2022-07-26T11:55:20Z</time>
      </trkpt>
      <trkpt lat="44.63095" lon="-0.17605">
        <ele>65.8</ele>
        <time>2022-07-26T11:55:21Z</time>
      </trkpt>
      <trkpt lat="44.63095" lon="-0.17605">
        <ele>65.8</ele>
        <time>2022-07-26T11:55:22Z</time>
      </trkpt>
      <trkpt lat="44.63095" lon="-0.17605">
        <ele>65.8</ele>
        <time>2022-07-26T11:55:23Z</time>
      </trkpt>
      <trkpt lat="44.63095" lon="-0.17605">
        <ele>65.8</ele>
        <time>2022-07-26T11:55:24Z</time>
      </trkpt>
      <trkpt lat="44.63095" lon="-0.17605">
        <ele>65.8</ele>
        <time>2022-07-26T11:55:25Z</time>
      </trkpt>
      <trkpt lat="44.63095" lon="-0.17605">
        <ele>65.8</ele>
        <time>2022-07-26T11:55:26Z</time>
      </trkpt>
      <trkpt lat="44.63095" lon="-0.17605">
        <ele>65.8</ele>
        <time>2022-07-26T11:55:27Z</time>
      </trkpt>
      <trkpt lat="44.63095" lon="-0.17605">
        <ele>65.8</ele>
        <time>2022-07-26T11:55:28Z</time>
      </trkpt>
      <trkpt lat="44.63095" lon="-0.17605">
        <ele>65.8</ele>
        <time>2022-07-26T11:55:29Z</time>
      </trkpt>
      <trkpt lat="44.63095" lon="-0.17605">
        <ele>65.8</ele>
        <time>2022-07-26T11:55:30Z</time>
      </trkpt>
      <trkpt lat="44.63095" lon="-0.17605">
        <ele>65.8</ele>
        <time>2022-07-26T11:55:31Z</time>
      </trkpt>
      <trkpt lat="44.63095" lon="-0.17605">
        <ele>65.8</ele>
        <time>2022-07-26T11:55:32Z</time>
      </trkpt>
      <trkpt lat="44.63095" lon="-0.17605">
        <ele>65.8</ele>
        <time>2022-07-26T11:55:33Z</time>
      </trkpt>
      <trkpt lat="44.63095" lon="-0.17605">
        <ele>65.8</ele>
        <time>2022-07-26T11:55:34Z</time>
      </trkpt>
      <trkpt lat="44.63095" lon="-0.17605">
        <ele>65.8</ele>
        <time>2022-07-26T11:55:35Z</time>
      </trkpt>
      <trkpt lat="44.63095" lon="-0.17605">
        <ele>65.8</ele>
        <time>2022-07-26T11:55:36Z</time>
      </trkpt>
      <trkpt lat="44.63096" lon="-0.17604">
        <ele>65.8</ele>
        <time>2022-07-26T11:55:37Z</time>
      </trkpt>
      <trkpt lat="44.63096" lon="-0.17604">
        <ele>65.8</ele>
        <time>2022-07-26T11:55:38Z</time>
      </trkpt>
      <trkpt lat="44.63095" lon="-0.17604">
        <ele>65.8</ele>
        <time>2022-07-26T11:55:39Z</time>
      </trkpt>
      <trkpt lat="44.63095" lon="-0.17605">
        <ele>65.8</ele>
        <time>2022-07-26T11:55:40Z</time>
      </trkpt>
      <trkpt lat="44.63095" lon="-0.17605">
        <ele>65.8</ele>
        <time>2022-07-26T11:55:41Z</time>
      </trkpt>
      <trkpt lat="44.63095" lon="-0.17605">
        <ele>65.8</ele>
        <time>2022-07-26T11:55:42Z</time>
      </trkpt>
      <trkpt lat="44.63095" lon="-0.17605">
        <ele>65.8</ele>
        <time>2022-07-26T11:55:43Z</time>
      </trkpt>
      <trkpt lat="44.63095" lon="-0.17605">
        <ele>65.8</ele>
        <time>2022-07-26T11:55:44Z</time>
      </trkpt>
      <trkpt lat="44.63095" lon="-0.17605">
        <ele>65.8</ele>
        <time>2022-07-26T11:55:46Z</time>
      </trkpt>
      <trkpt lat="44.63095" lon="-0.17605">
        <ele>65.8</ele>
        <time>2022-07-26T11:55:47Z</time>
      </trkpt>
    </trkseg>
  </trk>
</gpx>